<?xml version="1.0" encoding="UTF-8" standalone="no" ?>
<gpx xmlns="http://www.topografix.com/GPX/1/1" xmlns:xsi="http://www.w3.org/2001/XMLSchema-instance" xsi:schemaLocation="http://www.topografix.com/GPX/1/1 http://www.topografix.com/GPX/1/1/gpx.xsd" version="1.1" creator="VisuGPX - https://www.visugpx.com">
  <metadata>
    <name>Alsace_J1_Lacs et vignobles</name>
    <desc><![CDATA[Ride The Track Alsace 2025 - Jour 1]]></desc>
  </metadata>
  <trk>
    <name><![CDATA[visugpx_nTXDzFE8y0_1]]></name>
    <extensions>
      <line xmlns="http://www.topografix.com/GPX/gpx_style/0/2">
        <color>0000FF</color>
        <width>4</width>
      </line>
    </extensions>
    <trkseg>
      <trkpt lat="48.0534" lon="7.1149">
        <ele>487</ele>
        <time>2025-09-08T06:16:13Z</time>
      </trkpt>
      <trkpt lat="48.05339" lon="7.11491">
        <ele>486.8</ele>
        <time>2025-09-08T06:16:14Z</time>
      </trkpt>
      <trkpt lat="48.05337" lon="7.11491">
        <ele>486.8</ele>
        <time>2025-09-08T06:16:15Z</time>
      </trkpt>
      <trkpt lat="48.05334" lon="7.11491">
        <ele>486.8</ele>
        <time>2025-09-08T06:16:16Z</time>
      </trkpt>
      <trkpt lat="48.05332" lon="7.11491">
        <ele>486.8</ele>
        <time>2025-09-08T06:16:17Z</time>
      </trkpt>
      <trkpt lat="48.05329" lon="7.11491">
        <ele>486.8</ele>
        <time>2025-09-08T06:16:18Z</time>
      </trkpt>
      <trkpt lat="48.05326" lon="7.11491">
        <ele>486.8</ele>
        <time>2025-09-08T06:16:19Z</time>
      </trkpt>
      <trkpt lat="48.05323" lon="7.1149">
        <ele>486.8</ele>
        <time>2025-09-08T06:16:20Z</time>
      </trkpt>
      <trkpt lat="48.0532" lon="7.11491">
        <ele>486.8</ele>
        <time>2025-09-08T06:16:21Z</time>
      </trkpt>
      <trkpt lat="48.05317" lon="7.11491">
        <ele>486.8</ele>
        <time>2025-09-08T06:16:22Z</time>
      </trkpt>
      <trkpt lat="48.05315" lon="7.11491">
        <ele>486.8</ele>
        <time>2025-09-08T06:16:23Z</time>
      </trkpt>
      <trkpt lat="48.05312" lon="7.11491">
        <ele>486.8</ele>
        <time>2025-09-08T06:16:24Z</time>
      </trkpt>
      <trkpt lat="48.0531" lon="7.11491">
        <ele>487</ele>
        <time>2025-09-08T06:16:25Z</time>
      </trkpt>
      <trkpt lat="48.05307" lon="7.11491">
        <ele>487.4</ele>
        <time>2025-09-08T06:16:26Z</time>
      </trkpt>
      <trkpt lat="48.05305" lon="7.11491">
        <ele>487.8</ele>
        <time>2025-09-08T06:16:27Z</time>
      </trkpt>
      <trkpt lat="48.05302" lon="7.11491">
        <ele>488</ele>
        <time>2025-09-08T06:16:28Z</time>
      </trkpt>
      <trkpt lat="48.053" lon="7.1149">
        <ele>488.2</ele>
        <time>2025-09-08T06:16:29Z</time>
      </trkpt>
      <trkpt lat="48.05297" lon="7.1149">
        <ele>488.6</ele>
        <time>2025-09-08T06:16:30Z</time>
      </trkpt>
      <trkpt lat="48.05295" lon="7.11492">
        <ele>488.8</ele>
        <time>2025-09-08T06:16:31Z</time>
      </trkpt>
      <trkpt lat="48.05295" lon="7.11495">
        <ele>489.2</ele>
        <time>2025-09-08T06:16:32Z</time>
      </trkpt>
      <trkpt lat="48.05295" lon="7.11498">
        <ele>489.6</ele>
        <time>2025-09-08T06:16:33Z</time>
      </trkpt>
      <trkpt lat="48.05296" lon="7.11501">
        <ele>489.8</ele>
        <time>2025-09-08T06:16:34Z</time>
      </trkpt>
      <trkpt lat="48.05297" lon="7.11504">
        <ele>490</ele>
        <time>2025-09-08T06:16:35Z</time>
      </trkpt>
      <trkpt lat="48.05299" lon="7.11507">
        <ele>490.4</ele>
        <time>2025-09-08T06:16:36Z</time>
      </trkpt>
      <trkpt lat="48.053" lon="7.11509">
        <ele>490.6</ele>
        <time>2025-09-08T06:16:37Z</time>
      </trkpt>
      <trkpt lat="48.05301" lon="7.11511">
        <ele>490.8</ele>
        <time>2025-09-08T06:16:38Z</time>
      </trkpt>
      <trkpt lat="48.05303" lon="7.11514">
        <ele>491</ele>
        <time>2025-09-08T06:16:39Z</time>
      </trkpt>
      <trkpt lat="48.05304" lon="7.11517">
        <ele>491.4</ele>
        <time>2025-09-08T06:16:40Z</time>
      </trkpt>
      <trkpt lat="48.05306" lon="7.1152">
        <ele>491.8</ele>
        <time>2025-09-08T06:16:41Z</time>
      </trkpt>
      <trkpt lat="48.05307" lon="7.11522">
        <ele>491.8</ele>
        <time>2025-09-08T06:16:42Z</time>
      </trkpt>
      <trkpt lat="48.05309" lon="7.11525">
        <ele>492</ele>
        <time>2025-09-08T06:16:43Z</time>
      </trkpt>
      <trkpt lat="48.05311" lon="7.11526">
        <ele>492</ele>
        <time>2025-09-08T06:16:44Z</time>
      </trkpt>
      <trkpt lat="48.05313" lon="7.11528">
        <ele>492.2</ele>
        <time>2025-09-08T06:16:45Z</time>
      </trkpt>
      <trkpt lat="48.05315" lon="7.11531">
        <ele>492.4</ele>
        <time>2025-09-08T06:16:46Z</time>
      </trkpt>
      <trkpt lat="48.05316" lon="7.11534">
        <ele>492.6</ele>
        <time>2025-09-08T06:16:47Z</time>
      </trkpt>
      <trkpt lat="48.05317" lon="7.11538">
        <ele>492.8</ele>
        <time>2025-09-08T06:16:48Z</time>
      </trkpt>
      <trkpt lat="48.05318" lon="7.11542">
        <ele>493.2</ele>
        <time>2025-09-08T06:16:49Z</time>
      </trkpt>
      <trkpt lat="48.05318" lon="7.11546">
        <ele>493.4</ele>
        <time>2025-09-08T06:16:50Z</time>
      </trkpt>
      <trkpt lat="48.05317" lon="7.1155">
        <ele>493.6</ele>
        <time>2025-09-08T06:16:51Z</time>
      </trkpt>
      <trkpt lat="48.05316" lon="7.11555">
        <ele>494</ele>
        <time>2025-09-08T06:16:52Z</time>
      </trkpt>
      <trkpt lat="48.05315" lon="7.11558">
        <ele>494.2</ele>
        <time>2025-09-08T06:16:53Z</time>
      </trkpt>
      <trkpt lat="48.05314" lon="7.11561">
        <ele>494.6</ele>
        <time>2025-09-08T06:16:54Z</time>
      </trkpt>
      <trkpt lat="48.05313" lon="7.11565">
        <ele>494.8</ele>
        <time>2025-09-08T06:16:55Z</time>
      </trkpt>
      <trkpt lat="48.05312" lon="7.11569">
        <ele>495</ele>
        <time>2025-09-08T06:16:56Z</time>
      </trkpt>
      <trkpt lat="48.05311" lon="7.11573">
        <ele>495.4</ele>
        <time>2025-09-08T06:16:57Z</time>
      </trkpt>
      <trkpt lat="48.05311" lon="7.11577">
        <ele>495.6</ele>
        <time>2025-09-08T06:16:58Z</time>
      </trkpt>
      <trkpt lat="48.05311" lon="7.11581">
        <ele>495.8</ele>
        <time>2025-09-08T06:16:59Z</time>
      </trkpt>
      <trkpt lat="48.05311" lon="7.11585">
        <ele>495.8</ele>
        <time>2025-09-08T06:17:00Z</time>
      </trkpt>
      <trkpt lat="48.05311" lon="7.11589">
        <ele>496</ele>
        <time>2025-09-08T06:17:01Z</time>
      </trkpt>
      <trkpt lat="48.05311" lon="7.11593">
        <ele>496.4</ele>
        <time>2025-09-08T06:17:02Z</time>
      </trkpt>
      <trkpt lat="48.05311" lon="7.11597">
        <ele>496.8</ele>
        <time>2025-09-08T06:17:03Z</time>
      </trkpt>
      <trkpt lat="48.05311" lon="7.11602">
        <ele>497.2</ele>
        <time>2025-09-08T06:17:04Z</time>
      </trkpt>
      <trkpt lat="48.05311" lon="7.11606">
        <ele>497.6</ele>
        <time>2025-09-08T06:17:05Z</time>
      </trkpt>
      <trkpt lat="48.05312" lon="7.11609">
        <ele>498</ele>
        <time>2025-09-08T06:17:06Z</time>
      </trkpt>
      <trkpt lat="48.05313" lon="7.11613">
        <ele>498.2</ele>
        <time>2025-09-08T06:17:07Z</time>
      </trkpt>
      <trkpt lat="48.05314" lon="7.11616">
        <ele>498.8</ele>
        <time>2025-09-08T06:17:08Z</time>
      </trkpt>
      <trkpt lat="48.05315" lon="7.11619">
        <ele>499.2</ele>
        <time>2025-09-08T06:17:09Z</time>
      </trkpt>
      <trkpt lat="48.05317" lon="7.11623">
        <ele>499.6</ele>
        <time>2025-09-08T06:17:10Z</time>
      </trkpt>
      <trkpt lat="48.05318" lon="7.11627">
        <ele>499.8</ele>
        <time>2025-09-08T06:17:11Z</time>
      </trkpt>
      <trkpt lat="48.0532" lon="7.1163">
        <ele>500.2</ele>
        <time>2025-09-08T06:17:12Z</time>
      </trkpt>
      <trkpt lat="48.05322" lon="7.11633">
        <ele>500.6</ele>
        <time>2025-09-08T06:17:13Z</time>
      </trkpt>
      <trkpt lat="48.05324" lon="7.11636">
        <ele>501</ele>
        <time>2025-09-08T06:17:14Z</time>
      </trkpt>
      <trkpt lat="48.05326" lon="7.11639">
        <ele>501.2</ele>
        <time>2025-09-08T06:17:15Z</time>
      </trkpt>
      <trkpt lat="48.05328" lon="7.11642">
        <ele>501.6</ele>
        <time>2025-09-08T06:17:16Z</time>
      </trkpt>
      <trkpt lat="48.0533" lon="7.11645">
        <ele>501.8</ele>
        <time>2025-09-08T06:17:17Z</time>
      </trkpt>
      <trkpt lat="48.05332" lon="7.11648">
        <ele>502</ele>
        <time>2025-09-08T06:17:18Z</time>
      </trkpt>
      <trkpt lat="48.05334" lon="7.11651">
        <ele>502.4</ele>
        <time>2025-09-08T06:17:19Z</time>
      </trkpt>
      <trkpt lat="48.05337" lon="7.11654">
        <ele>502.8</ele>
        <time>2025-09-08T06:17:20Z</time>
      </trkpt>
      <trkpt lat="48.05339" lon="7.11657">
        <ele>503</ele>
        <time>2025-09-08T06:17:21Z</time>
      </trkpt>
      <trkpt lat="48.05341" lon="7.1166">
        <ele>503.2</ele>
        <time>2025-09-08T06:17:22Z</time>
      </trkpt>
      <trkpt lat="48.05344" lon="7.11662">
        <ele>503.6</ele>
        <time>2025-09-08T06:17:23Z</time>
      </trkpt>
      <trkpt lat="48.05346" lon="7.11665">
        <ele>503.8</ele>
        <time>2025-09-08T06:17:24Z</time>
      </trkpt>
      <trkpt lat="48.05347" lon="7.11668">
        <ele>504.4</ele>
        <time>2025-09-08T06:17:25Z</time>
      </trkpt>
      <trkpt lat="48.05349" lon="7.11671">
        <ele>504.6</ele>
        <time>2025-09-08T06:17:26Z</time>
      </trkpt>
      <trkpt lat="48.0535" lon="7.11674">
        <ele>504.8</ele>
        <time>2025-09-08T06:17:27Z</time>
      </trkpt>
      <trkpt lat="48.05351" lon="7.11678">
        <ele>505</ele>
        <time>2025-09-08T06:17:28Z</time>
      </trkpt>
      <trkpt lat="48.05352" lon="7.11681">
        <ele>505.2</ele>
        <time>2025-09-08T06:17:29Z</time>
      </trkpt>
      <trkpt lat="48.05353" lon="7.11685">
        <ele>505.6</ele>
        <time>2025-09-08T06:17:30Z</time>
      </trkpt>
      <trkpt lat="48.05354" lon="7.11688">
        <ele>506</ele>
        <time>2025-09-08T06:17:31Z</time>
      </trkpt>
      <trkpt lat="48.05356" lon="7.11689">
        <ele>506.4</ele>
        <time>2025-09-08T06:17:32Z</time>
      </trkpt>
      <trkpt lat="48.05358" lon="7.1169">
        <ele>506.6</ele>
        <time>2025-09-08T06:17:33Z</time>
      </trkpt>
      <trkpt lat="48.05359" lon="7.11688">
        <ele>507</ele>
        <time>2025-09-08T06:17:34Z</time>
      </trkpt>
      <trkpt lat="48.0536" lon="7.11686">
        <ele>507.4</ele>
        <time>2025-09-08T06:17:35Z</time>
      </trkpt>
      <trkpt lat="48.05359" lon="7.11683">
        <ele>508</ele>
        <time>2025-09-08T06:17:36Z</time>
      </trkpt>
      <trkpt lat="48.05359" lon="7.1168">
        <ele>508.2</ele>
        <time>2025-09-08T06:17:37Z</time>
      </trkpt>
      <trkpt lat="48.05359" lon="7.11677">
        <ele>508.4</ele>
        <time>2025-09-08T06:17:38Z</time>
      </trkpt>
      <trkpt lat="48.0536" lon="7.11673">
        <ele>508.8</ele>
        <time>2025-09-08T06:17:39Z</time>
      </trkpt>
      <trkpt lat="48.0536" lon="7.1167">
        <ele>509.2</ele>
        <time>2025-09-08T06:17:40Z</time>
      </trkpt>
      <trkpt lat="48.05361" lon="7.11666">
        <ele>509.4</ele>
        <time>2025-09-08T06:17:41Z</time>
      </trkpt>
      <trkpt lat="48.05362" lon="7.11662">
        <ele>509.8</ele>
        <time>2025-09-08T06:17:42Z</time>
      </trkpt>
      <trkpt lat="48.05363" lon="7.11659">
        <ele>510</ele>
        <time>2025-09-08T06:17:43Z</time>
      </trkpt>
      <trkpt lat="48.05364" lon="7.11655">
        <ele>510.2</ele>
        <time>2025-09-08T06:17:44Z</time>
      </trkpt>
      <trkpt lat="48.05367" lon="7.11652">
        <ele>510.6</ele>
        <time>2025-09-08T06:17:45Z</time>
      </trkpt>
      <trkpt lat="48.05368" lon="7.11649">
        <ele>511</ele>
        <time>2025-09-08T06:17:46Z</time>
      </trkpt>
      <trkpt lat="48.0537" lon="7.11646">
        <ele>511.4</ele>
        <time>2025-09-08T06:17:47Z</time>
      </trkpt>
      <trkpt lat="48.05372" lon="7.11643">
        <ele>511.6</ele>
        <time>2025-09-08T06:17:48Z</time>
      </trkpt>
      <trkpt lat="48.05374" lon="7.1164">
        <ele>511.8</ele>
        <time>2025-09-08T06:17:49Z</time>
      </trkpt>
      <trkpt lat="48.05375" lon="7.11637">
        <ele>512</ele>
        <time>2025-09-08T06:17:50Z</time>
      </trkpt>
      <trkpt lat="48.05377" lon="7.11634">
        <ele>512.2</ele>
        <time>2025-09-08T06:17:51Z</time>
      </trkpt>
      <trkpt lat="48.05378" lon="7.11631">
        <ele>512.6</ele>
        <time>2025-09-08T06:17:52Z</time>
      </trkpt>
      <trkpt lat="48.0538" lon="7.11628">
        <ele>513</ele>
        <time>2025-09-08T06:17:53Z</time>
      </trkpt>
      <trkpt lat="48.05381" lon="7.11624">
        <ele>513</ele>
        <time>2025-09-08T06:17:54Z</time>
      </trkpt>
      <trkpt lat="48.05383" lon="7.11621">
        <ele>513.6</ele>
        <time>2025-09-08T06:17:55Z</time>
      </trkpt>
      <trkpt lat="48.05384" lon="7.11618">
        <ele>513.8</ele>
        <time>2025-09-08T06:17:56Z</time>
      </trkpt>
      <trkpt lat="48.05386" lon="7.11614">
        <ele>514</ele>
        <time>2025-09-08T06:17:57Z</time>
      </trkpt>
      <trkpt lat="48.05387" lon="7.11611">
        <ele>514</ele>
        <time>2025-09-08T06:17:58Z</time>
      </trkpt>
      <trkpt lat="48.05388" lon="7.11607">
        <ele>514.2</ele>
        <time>2025-09-08T06:17:59Z</time>
      </trkpt>
      <trkpt lat="48.05389" lon="7.11604">
        <ele>514.4</ele>
        <time>2025-09-08T06:18:00Z</time>
      </trkpt>
      <trkpt lat="48.05391" lon="7.11601">
        <ele>514.4</ele>
        <time>2025-09-08T06:18:01Z</time>
      </trkpt>
      <trkpt lat="48.05392" lon="7.11598">
        <ele>514.6</ele>
        <time>2025-09-08T06:18:02Z</time>
      </trkpt>
      <trkpt lat="48.05393" lon="7.11596">
        <ele>514.8</ele>
        <time>2025-09-08T06:18:03Z</time>
      </trkpt>
      <trkpt lat="48.05395" lon="7.11593">
        <ele>515</ele>
        <time>2025-09-08T06:18:04Z</time>
      </trkpt>
      <trkpt lat="48.05397" lon="7.11592">
        <ele>515.2</ele>
        <time>2025-09-08T06:18:05Z</time>
      </trkpt>
      <trkpt lat="48.05399" lon="7.11592">
        <ele>515.4</ele>
        <time>2025-09-08T06:18:06Z</time>
      </trkpt>
      <trkpt lat="48.05401" lon="7.1159">
        <ele>515.6</ele>
        <time>2025-09-08T06:18:07Z</time>
      </trkpt>
      <trkpt lat="48.05403" lon="7.11589">
        <ele>515.8</ele>
        <time>2025-09-08T06:18:08Z</time>
      </trkpt>
      <trkpt lat="48.05405" lon="7.11588">
        <ele>516.2</ele>
        <time>2025-09-08T06:18:09Z</time>
      </trkpt>
      <trkpt lat="48.05407" lon="7.11587">
        <ele>516.4</ele>
        <time>2025-09-08T06:18:10Z</time>
      </trkpt>
      <trkpt lat="48.05409" lon="7.11586">
        <ele>516.6</ele>
        <time>2025-09-08T06:18:11Z</time>
      </trkpt>
      <trkpt lat="48.05411" lon="7.11584">
        <ele>517</ele>
        <time>2025-09-08T06:18:12Z</time>
      </trkpt>
      <trkpt lat="48.05413" lon="7.11583">
        <ele>517.2</ele>
        <time>2025-09-08T06:18:13Z</time>
      </trkpt>
      <trkpt lat="48.05415" lon="7.11581">
        <ele>517.4</ele>
        <time>2025-09-08T06:18:14Z</time>
      </trkpt>
      <trkpt lat="48.05418" lon="7.1158">
        <ele>517.6</ele>
        <time>2025-09-08T06:18:15Z</time>
      </trkpt>
      <trkpt lat="48.0542" lon="7.11577">
        <ele>517.8</ele>
        <time>2025-09-08T06:18:16Z</time>
      </trkpt>
      <trkpt lat="48.05423" lon="7.11575">
        <ele>517.8</ele>
        <time>2025-09-08T06:18:17Z</time>
      </trkpt>
      <trkpt lat="48.05425" lon="7.11573">
        <ele>518</ele>
        <time>2025-09-08T06:18:18Z</time>
      </trkpt>
      <trkpt lat="48.05427" lon="7.1157">
        <ele>518.2</ele>
        <time>2025-09-08T06:18:19Z</time>
      </trkpt>
      <trkpt lat="48.0543" lon="7.11567">
        <ele>518.4</ele>
        <time>2025-09-08T06:18:20Z</time>
      </trkpt>
      <trkpt lat="48.05432" lon="7.11565">
        <ele>518.4</ele>
        <time>2025-09-08T06:18:21Z</time>
      </trkpt>
      <trkpt lat="48.05435" lon="7.11563">
        <ele>518.6</ele>
        <time>2025-09-08T06:18:22Z</time>
      </trkpt>
      <trkpt lat="48.05437" lon="7.1156">
        <ele>518.6</ele>
        <time>2025-09-08T06:18:23Z</time>
      </trkpt>
      <trkpt lat="48.0544" lon="7.11558">
        <ele>518.8</ele>
        <time>2025-09-08T06:18:24Z</time>
      </trkpt>
      <trkpt lat="48.05442" lon="7.11555">
        <ele>519.2</ele>
        <time>2025-09-08T06:18:25Z</time>
      </trkpt>
      <trkpt lat="48.05444" lon="7.11551">
        <ele>519.4</ele>
        <time>2025-09-08T06:18:26Z</time>
      </trkpt>
      <trkpt lat="48.05445" lon="7.11549">
        <ele>519.8</ele>
        <time>2025-09-08T06:18:27Z</time>
      </trkpt>
      <trkpt lat="48.05447" lon="7.11546">
        <ele>520</ele>
        <time>2025-09-08T06:18:28Z</time>
      </trkpt>
      <trkpt lat="48.05448" lon="7.11543">
        <ele>520.4</ele>
        <time>2025-09-08T06:18:29Z</time>
      </trkpt>
      <trkpt lat="48.0545" lon="7.11538">
        <ele>520.8</ele>
        <time>2025-09-08T06:18:30Z</time>
      </trkpt>
      <trkpt lat="48.05452" lon="7.11534">
        <ele>521.2</ele>
        <time>2025-09-08T06:18:31Z</time>
      </trkpt>
      <trkpt lat="48.05453" lon="7.1153">
        <ele>521.4</ele>
        <time>2025-09-08T06:18:32Z</time>
      </trkpt>
      <trkpt lat="48.05455" lon="7.11526">
        <ele>521.6</ele>
        <time>2025-09-08T06:18:33Z</time>
      </trkpt>
      <trkpt lat="48.05457" lon="7.11522">
        <ele>521.8</ele>
        <time>2025-09-08T06:18:34Z</time>
      </trkpt>
      <trkpt lat="48.05458" lon="7.11518">
        <ele>522.2</ele>
        <time>2025-09-08T06:18:35Z</time>
      </trkpt>
      <trkpt lat="48.0546" lon="7.11514">
        <ele>522.4</ele>
        <time>2025-09-08T06:18:36Z</time>
      </trkpt>
      <trkpt lat="48.05462" lon="7.1151">
        <ele>522.6</ele>
        <time>2025-09-08T06:18:37Z</time>
      </trkpt>
      <trkpt lat="48.05464" lon="7.11505">
        <ele>522.8</ele>
        <time>2025-09-08T06:18:38Z</time>
      </trkpt>
      <trkpt lat="48.05466" lon="7.11501">
        <ele>523</ele>
        <time>2025-09-08T06:18:39Z</time>
      </trkpt>
      <trkpt lat="48.05468" lon="7.11497">
        <ele>523.2</ele>
        <time>2025-09-08T06:18:40Z</time>
      </trkpt>
      <trkpt lat="48.0547" lon="7.11494">
        <ele>523.2</ele>
        <time>2025-09-08T06:18:41Z</time>
      </trkpt>
      <trkpt lat="48.05472" lon="7.1149">
        <ele>523.4</ele>
        <time>2025-09-08T06:18:42Z</time>
      </trkpt>
      <trkpt lat="48.05474" lon="7.11486">
        <ele>523.6</ele>
        <time>2025-09-08T06:18:43Z</time>
      </trkpt>
      <trkpt lat="48.05476" lon="7.11482">
        <ele>523.8</ele>
        <time>2025-09-08T06:18:44Z</time>
      </trkpt>
      <trkpt lat="48.05479" lon="7.11478">
        <ele>524</ele>
        <time>2025-09-08T06:18:45Z</time>
      </trkpt>
      <trkpt lat="48.05481" lon="7.11475">
        <ele>524.2</ele>
        <time>2025-09-08T06:18:46Z</time>
      </trkpt>
      <trkpt lat="48.05483" lon="7.11472">
        <ele>524.6</ele>
        <time>2025-09-08T06:18:47Z</time>
      </trkpt>
      <trkpt lat="48.05485" lon="7.11468">
        <ele>524.8</ele>
        <time>2025-09-08T06:18:48Z</time>
      </trkpt>
      <trkpt lat="48.05488" lon="7.11464">
        <ele>524.8</ele>
        <time>2025-09-08T06:18:49Z</time>
      </trkpt>
      <trkpt lat="48.0549" lon="7.1146">
        <ele>525</ele>
        <time>2025-09-08T06:18:50Z</time>
      </trkpt>
      <trkpt lat="48.05492" lon="7.11456">
        <ele>525.2</ele>
        <time>2025-09-08T06:18:51Z</time>
      </trkpt>
      <trkpt lat="48.05494" lon="7.11452">
        <ele>525.4</ele>
        <time>2025-09-08T06:18:52Z</time>
      </trkpt>
      <trkpt lat="48.05496" lon="7.11447">
        <ele>525.6</ele>
        <time>2025-09-08T06:18:53Z</time>
      </trkpt>
      <trkpt lat="48.05499" lon="7.11443">
        <ele>525.6</ele>
        <time>2025-09-08T06:18:54Z</time>
      </trkpt>
      <trkpt lat="48.05501" lon="7.11438">
        <ele>525.8</ele>
        <time>2025-09-08T06:18:55Z</time>
      </trkpt>
      <trkpt lat="48.05503" lon="7.11434">
        <ele>526</ele>
        <time>2025-09-08T06:18:56Z</time>
      </trkpt>
      <trkpt lat="48.05504" lon="7.11429">
        <ele>526</ele>
        <time>2025-09-08T06:18:57Z</time>
      </trkpt>
      <trkpt lat="48.05506" lon="7.11425">
        <ele>526.2</ele>
        <time>2025-09-08T06:18:58Z</time>
      </trkpt>
      <trkpt lat="48.05507" lon="7.11421">
        <ele>526.2</ele>
        <time>2025-09-08T06:18:59Z</time>
      </trkpt>
      <trkpt lat="48.05509" lon="7.11416">
        <ele>526.2</ele>
        <time>2025-09-08T06:19:00Z</time>
      </trkpt>
      <trkpt lat="48.0551" lon="7.11411">
        <ele>526.2</ele>
        <time>2025-09-08T06:19:01Z</time>
      </trkpt>
      <trkpt lat="48.05511" lon="7.11406">
        <ele>526.2</ele>
        <time>2025-09-08T06:19:02Z</time>
      </trkpt>
      <trkpt lat="48.05511" lon="7.11401">
        <ele>526.2</ele>
        <time>2025-09-08T06:19:03Z</time>
      </trkpt>
      <trkpt lat="48.05511" lon="7.11396">
        <ele>526.2</ele>
        <time>2025-09-08T06:19:04Z</time>
      </trkpt>
      <trkpt lat="48.05509" lon="7.11391">
        <ele>526.2</ele>
        <time>2025-09-08T06:19:05Z</time>
      </trkpt>
      <trkpt lat="48.05509" lon="7.11385">
        <ele>526</ele>
        <time>2025-09-08T06:19:06Z</time>
      </trkpt>
      <trkpt lat="48.05509" lon="7.1138">
        <ele>526</ele>
        <time>2025-09-08T06:19:07Z</time>
      </trkpt>
      <trkpt lat="48.0551" lon="7.11375">
        <ele>526</ele>
        <time>2025-09-08T06:19:08Z</time>
      </trkpt>
      <trkpt lat="48.05511" lon="7.1137">
        <ele>526</ele>
        <time>2025-09-08T06:19:09Z</time>
      </trkpt>
      <trkpt lat="48.05513" lon="7.11365">
        <ele>526</ele>
        <time>2025-09-08T06:19:10Z</time>
      </trkpt>
      <trkpt lat="48.05514" lon="7.11361">
        <ele>526.2</ele>
        <time>2025-09-08T06:19:11Z</time>
      </trkpt>
      <trkpt lat="48.05516" lon="7.11357">
        <ele>526.4</ele>
        <time>2025-09-08T06:19:12Z</time>
      </trkpt>
      <trkpt lat="48.05518" lon="7.11353">
        <ele>526.4</ele>
        <time>2025-09-08T06:19:13Z</time>
      </trkpt>
      <trkpt lat="48.05519" lon="7.11348">
        <ele>527</ele>
        <time>2025-09-08T06:19:14Z</time>
      </trkpt>
      <trkpt lat="48.05521" lon="7.11345">
        <ele>527.4</ele>
        <time>2025-09-08T06:19:15Z</time>
      </trkpt>
      <trkpt lat="48.05523" lon="7.11341">
        <ele>527.8</ele>
        <time>2025-09-08T06:19:16Z</time>
      </trkpt>
      <trkpt lat="48.05524" lon="7.11337">
        <ele>528.2</ele>
        <time>2025-09-08T06:19:17Z</time>
      </trkpt>
      <trkpt lat="48.05525" lon="7.11333">
        <ele>528.6</ele>
        <time>2025-09-08T06:19:18Z</time>
      </trkpt>
      <trkpt lat="48.05527" lon="7.11328">
        <ele>529</ele>
        <time>2025-09-08T06:19:19Z</time>
      </trkpt>
      <trkpt lat="48.05528" lon="7.11324">
        <ele>529.8</ele>
        <time>2025-09-08T06:19:20Z</time>
      </trkpt>
      <trkpt lat="48.05529" lon="7.11319">
        <ele>530</ele>
        <time>2025-09-08T06:19:21Z</time>
      </trkpt>
      <trkpt lat="48.0553" lon="7.11316">
        <ele>530.2</ele>
        <time>2025-09-08T06:19:22Z</time>
      </trkpt>
      <trkpt lat="48.05531" lon="7.11311">
        <ele>530.6</ele>
        <time>2025-09-08T06:19:23Z</time>
      </trkpt>
      <trkpt lat="48.05532" lon="7.11307">
        <ele>531</ele>
        <time>2025-09-08T06:19:24Z</time>
      </trkpt>
      <trkpt lat="48.05533" lon="7.11304">
        <ele>531.4</ele>
        <time>2025-09-08T06:19:25Z</time>
      </trkpt>
      <trkpt lat="48.05534" lon="7.113">
        <ele>531.6</ele>
        <time>2025-09-08T06:19:26Z</time>
      </trkpt>
      <trkpt lat="48.05535" lon="7.11295">
        <ele>531.8</ele>
        <time>2025-09-08T06:19:27Z</time>
      </trkpt>
      <trkpt lat="48.05537" lon="7.11291">
        <ele>532.2</ele>
        <time>2025-09-08T06:19:28Z</time>
      </trkpt>
      <trkpt lat="48.05538" lon="7.11288">
        <ele>532.4</ele>
        <time>2025-09-08T06:19:29Z</time>
      </trkpt>
      <trkpt lat="48.05539" lon="7.11284">
        <ele>532.6</ele>
        <time>2025-09-08T06:19:30Z</time>
      </trkpt>
      <trkpt lat="48.0554" lon="7.11279">
        <ele>533</ele>
        <time>2025-09-08T06:19:31Z</time>
      </trkpt>
      <trkpt lat="48.05541" lon="7.11276">
        <ele>533.2</ele>
        <time>2025-09-08T06:19:32Z</time>
      </trkpt>
      <trkpt lat="48.05543" lon="7.11272">
        <ele>533.4</ele>
        <time>2025-09-08T06:19:33Z</time>
      </trkpt>
      <trkpt lat="48.05544" lon="7.11268">
        <ele>533.6</ele>
        <time>2025-09-08T06:19:34Z</time>
      </trkpt>
      <trkpt lat="48.05545" lon="7.11264">
        <ele>533.8</ele>
        <time>2025-09-08T06:19:35Z</time>
      </trkpt>
      <trkpt lat="48.05546" lon="7.11261">
        <ele>534.4</ele>
        <time>2025-09-08T06:19:36Z</time>
      </trkpt>
      <trkpt lat="48.05548" lon="7.11257">
        <ele>534.6</ele>
        <time>2025-09-08T06:19:37Z</time>
      </trkpt>
      <trkpt lat="48.0555" lon="7.11252">
        <ele>534.6</ele>
        <time>2025-09-08T06:19:38Z</time>
      </trkpt>
      <trkpt lat="48.05552" lon="7.11248">
        <ele>534.8</ele>
        <time>2025-09-08T06:19:39Z</time>
      </trkpt>
      <trkpt lat="48.05554" lon="7.11244">
        <ele>535</ele>
        <time>2025-09-08T06:19:40Z</time>
      </trkpt>
      <trkpt lat="48.05555" lon="7.1124">
        <ele>535</ele>
        <time>2025-09-08T06:19:41Z</time>
      </trkpt>
      <trkpt lat="48.05557" lon="7.11236">
        <ele>535.2</ele>
        <time>2025-09-08T06:19:42Z</time>
      </trkpt>
      <trkpt lat="48.05559" lon="7.11231">
        <ele>535.2</ele>
        <time>2025-09-08T06:19:43Z</time>
      </trkpt>
      <trkpt lat="48.0556" lon="7.11227">
        <ele>535.4</ele>
        <time>2025-09-08T06:19:44Z</time>
      </trkpt>
      <trkpt lat="48.05562" lon="7.11222">
        <ele>535.8</ele>
        <time>2025-09-08T06:19:45Z</time>
      </trkpt>
      <trkpt lat="48.05564" lon="7.11218">
        <ele>535.8</ele>
        <time>2025-09-08T06:19:46Z</time>
      </trkpt>
      <trkpt lat="48.05566" lon="7.11213">
        <ele>536</ele>
        <time>2025-09-08T06:19:47Z</time>
      </trkpt>
      <trkpt lat="48.05567" lon="7.11208">
        <ele>536.2</ele>
        <time>2025-09-08T06:19:48Z</time>
      </trkpt>
      <trkpt lat="48.05569" lon="7.11203">
        <ele>536.2</ele>
        <time>2025-09-08T06:19:49Z</time>
      </trkpt>
      <trkpt lat="48.05571" lon="7.11199">
        <ele>536.4</ele>
        <time>2025-09-08T06:19:50Z</time>
      </trkpt>
      <trkpt lat="48.05573" lon="7.11194">
        <ele>536.4</ele>
        <time>2025-09-08T06:19:51Z</time>
      </trkpt>
      <trkpt lat="48.05575" lon="7.11189">
        <ele>536.4</ele>
        <time>2025-09-08T06:19:52Z</time>
      </trkpt>
      <trkpt lat="48.05577" lon="7.11184">
        <ele>536.4</ele>
        <time>2025-09-08T06:19:53Z</time>
      </trkpt>
      <trkpt lat="48.0558" lon="7.1118">
        <ele>536.6</ele>
        <time>2025-09-08T06:19:54Z</time>
      </trkpt>
      <trkpt lat="48.05583" lon="7.11175">
        <ele>536.6</ele>
        <time>2025-09-08T06:19:55Z</time>
      </trkpt>
      <trkpt lat="48.05586" lon="7.11171">
        <ele>536.4</ele>
        <time>2025-09-08T06:19:56Z</time>
      </trkpt>
      <trkpt lat="48.05589" lon="7.11168">
        <ele>536.4</ele>
        <time>2025-09-08T06:19:57Z</time>
      </trkpt>
      <trkpt lat="48.05593" lon="7.11165">
        <ele>536.4</ele>
        <time>2025-09-08T06:19:58Z</time>
      </trkpt>
      <trkpt lat="48.05597" lon="7.11162">
        <ele>536.4</ele>
        <time>2025-09-08T06:19:59Z</time>
      </trkpt>
      <trkpt lat="48.05601" lon="7.1116">
        <ele>536.4</ele>
        <time>2025-09-08T06:20:00Z</time>
      </trkpt>
      <trkpt lat="48.05605" lon="7.11159">
        <ele>536.2</ele>
        <time>2025-09-08T06:20:01Z</time>
      </trkpt>
      <trkpt lat="48.05609" lon="7.11158">
        <ele>536.2</ele>
        <time>2025-09-08T06:20:02Z</time>
      </trkpt>
      <trkpt lat="48.05613" lon="7.11157">
        <ele>536.2</ele>
        <time>2025-09-08T06:20:03Z</time>
      </trkpt>
      <trkpt lat="48.05617" lon="7.11157">
        <ele>536.4</ele>
        <time>2025-09-08T06:20:04Z</time>
      </trkpt>
      <trkpt lat="48.05621" lon="7.11156">
        <ele>536.4</ele>
        <time>2025-09-08T06:20:05Z</time>
      </trkpt>
      <trkpt lat="48.05625" lon="7.11156">
        <ele>536.8</ele>
        <time>2025-09-08T06:20:06Z</time>
      </trkpt>
      <trkpt lat="48.05629" lon="7.11155">
        <ele>536.8</ele>
        <time>2025-09-08T06:20:07Z</time>
      </trkpt>
      <trkpt lat="48.05633" lon="7.11155">
        <ele>536.8</ele>
        <time>2025-09-08T06:20:08Z</time>
      </trkpt>
      <trkpt lat="48.05636" lon="7.11155">
        <ele>536.8</ele>
        <time>2025-09-08T06:20:09Z</time>
      </trkpt>
      <trkpt lat="48.05639" lon="7.11155">
        <ele>536.8</ele>
        <time>2025-09-08T06:20:10Z</time>
      </trkpt>
      <trkpt lat="48.05641" lon="7.11154">
        <ele>537</ele>
        <time>2025-09-08T06:20:11Z</time>
      </trkpt>
      <trkpt lat="48.05643" lon="7.11155">
        <ele>537.2</ele>
        <time>2025-09-08T06:20:12Z</time>
      </trkpt>
      <trkpt lat="48.05644" lon="7.11154">
        <ele>537.4</ele>
        <time>2025-09-08T06:20:13Z</time>
      </trkpt>
      <trkpt lat="48.05645" lon="7.11153">
        <ele>537.8</ele>
        <time>2025-09-08T06:20:14Z</time>
      </trkpt>
      <trkpt lat="48.05645" lon="7.11152">
        <ele>538.2</ele>
        <time>2025-09-08T06:20:15Z</time>
      </trkpt>
      <trkpt lat="48.05646" lon="7.11149">
        <ele>538.6</ele>
        <time>2025-09-08T06:20:16Z</time>
      </trkpt>
      <trkpt lat="48.05648" lon="7.11147">
        <ele>538.8</ele>
        <time>2025-09-08T06:20:17Z</time>
      </trkpt>
      <trkpt lat="48.05649" lon="7.11145">
        <ele>539</ele>
        <time>2025-09-08T06:20:18Z</time>
      </trkpt>
      <trkpt lat="48.0565" lon="7.11142">
        <ele>539.2</ele>
        <time>2025-09-08T06:20:19Z</time>
      </trkpt>
      <trkpt lat="48.05651" lon="7.1114">
        <ele>539.4</ele>
        <time>2025-09-08T06:20:20Z</time>
      </trkpt>
      <trkpt lat="48.05652" lon="7.11139">
        <ele>540.2</ele>
        <time>2025-09-08T06:20:21Z</time>
      </trkpt>
      <trkpt lat="48.05653" lon="7.11136">
        <ele>540.2</ele>
        <time>2025-09-08T06:20:22Z</time>
      </trkpt>
      <trkpt lat="48.05654" lon="7.11133">
        <ele>540.2</ele>
        <time>2025-09-08T06:20:23Z</time>
      </trkpt>
      <trkpt lat="48.05655" lon="7.1113">
        <ele>540.2</ele>
        <time>2025-09-08T06:20:24Z</time>
      </trkpt>
      <trkpt lat="48.05656" lon="7.11126">
        <ele>539.4</ele>
        <time>2025-09-08T06:20:25Z</time>
      </trkpt>
      <trkpt lat="48.05658" lon="7.11122">
        <ele>539.2</ele>
        <time>2025-09-08T06:20:26Z</time>
      </trkpt>
      <trkpt lat="48.05659" lon="7.11118">
        <ele>539</ele>
        <time>2025-09-08T06:20:27Z</time>
      </trkpt>
      <trkpt lat="48.0566" lon="7.11112">
        <ele>538.8</ele>
        <time>2025-09-08T06:20:28Z</time>
      </trkpt>
      <trkpt lat="48.05661" lon="7.11107">
        <ele>538.6</ele>
        <time>2025-09-08T06:20:29Z</time>
      </trkpt>
      <trkpt lat="48.05663" lon="7.11101">
        <ele>538.6</ele>
        <time>2025-09-08T06:20:30Z</time>
      </trkpt>
      <trkpt lat="48.05665" lon="7.11095">
        <ele>538.4</ele>
        <time>2025-09-08T06:20:31Z</time>
      </trkpt>
      <trkpt lat="48.05667" lon="7.11089">
        <ele>538.4</ele>
        <time>2025-09-08T06:20:32Z</time>
      </trkpt>
      <trkpt lat="48.05668" lon="7.11084">
        <ele>538.4</ele>
        <time>2025-09-08T06:20:33Z</time>
      </trkpt>
      <trkpt lat="48.0567" lon="7.11078">
        <ele>538.4</ele>
        <time>2025-09-08T06:20:34Z</time>
      </trkpt>
      <trkpt lat="48.05672" lon="7.11073">
        <ele>538.4</ele>
        <time>2025-09-08T06:20:35Z</time>
      </trkpt>
      <trkpt lat="48.05673" lon="7.11067">
        <ele>538.4</ele>
        <time>2025-09-08T06:20:36Z</time>
      </trkpt>
      <trkpt lat="48.05675" lon="7.11062">
        <ele>538.4</ele>
        <time>2025-09-08T06:20:37Z</time>
      </trkpt>
      <trkpt lat="48.05677" lon="7.11056">
        <ele>538.2</ele>
        <time>2025-09-08T06:20:38Z</time>
      </trkpt>
      <trkpt lat="48.05679" lon="7.1105">
        <ele>538.2</ele>
        <time>2025-09-08T06:20:39Z</time>
      </trkpt>
      <trkpt lat="48.05682" lon="7.11043">
        <ele>538.2</ele>
        <time>2025-09-08T06:20:40Z</time>
      </trkpt>
      <trkpt lat="48.05684" lon="7.11037">
        <ele>537.8</ele>
        <time>2025-09-08T06:20:41Z</time>
      </trkpt>
      <trkpt lat="48.05686" lon="7.11031">
        <ele>537.6</ele>
        <time>2025-09-08T06:20:42Z</time>
      </trkpt>
      <trkpt lat="48.05689" lon="7.11024">
        <ele>537.2</ele>
        <time>2025-09-08T06:20:43Z</time>
      </trkpt>
      <trkpt lat="48.05692" lon="7.11018">
        <ele>537.2</ele>
        <time>2025-09-08T06:20:44Z</time>
      </trkpt>
      <trkpt lat="48.05695" lon="7.11012">
        <ele>537</ele>
        <time>2025-09-08T06:20:45Z</time>
      </trkpt>
      <trkpt lat="48.05699" lon="7.11006">
        <ele>536.8</ele>
        <time>2025-09-08T06:20:46Z</time>
      </trkpt>
      <trkpt lat="48.05703" lon="7.11001">
        <ele>536.6</ele>
        <time>2025-09-08T06:20:47Z</time>
      </trkpt>
      <trkpt lat="48.05707" lon="7.10997">
        <ele>536.4</ele>
        <time>2025-09-08T06:20:48Z</time>
      </trkpt>
      <trkpt lat="48.05711" lon="7.10993">
        <ele>536.4</ele>
        <time>2025-09-08T06:20:49Z</time>
      </trkpt>
      <trkpt lat="48.05716" lon="7.10991">
        <ele>536.2</ele>
        <time>2025-09-08T06:20:50Z</time>
      </trkpt>
      <trkpt lat="48.0572" lon="7.10991">
        <ele>536.2</ele>
        <time>2025-09-08T06:20:51Z</time>
      </trkpt>
      <trkpt lat="48.05725" lon="7.10991">
        <ele>536.2</ele>
        <time>2025-09-08T06:20:52Z</time>
      </trkpt>
      <trkpt lat="48.0573" lon="7.1099">
        <ele>536</ele>
        <time>2025-09-08T06:20:53Z</time>
      </trkpt>
      <trkpt lat="48.05735" lon="7.10988">
        <ele>536</ele>
        <time>2025-09-08T06:20:54Z</time>
      </trkpt>
      <trkpt lat="48.0574" lon="7.10986">
        <ele>536</ele>
        <time>2025-09-08T06:20:55Z</time>
      </trkpt>
      <trkpt lat="48.05744" lon="7.10986">
        <ele>536</ele>
        <time>2025-09-08T06:20:56Z</time>
      </trkpt>
      <trkpt lat="48.05749" lon="7.10987">
        <ele>535.8</ele>
        <time>2025-09-08T06:20:57Z</time>
      </trkpt>
      <trkpt lat="48.05754" lon="7.10989">
        <ele>535.4</ele>
        <time>2025-09-08T06:20:58Z</time>
      </trkpt>
      <trkpt lat="48.05759" lon="7.10992">
        <ele>535.2</ele>
        <time>2025-09-08T06:20:59Z</time>
      </trkpt>
      <trkpt lat="48.05764" lon="7.10997">
        <ele>535</ele>
        <time>2025-09-08T06:21:00Z</time>
      </trkpt>
      <trkpt lat="48.05769" lon="7.11002">
        <ele>534.6</ele>
        <time>2025-09-08T06:21:01Z</time>
      </trkpt>
      <trkpt lat="48.05775" lon="7.11008">
        <ele>534.2</ele>
        <time>2025-09-08T06:21:02Z</time>
      </trkpt>
      <trkpt lat="48.05781" lon="7.11013">
        <ele>533.8</ele>
        <time>2025-09-08T06:21:03Z</time>
      </trkpt>
      <trkpt lat="48.05787" lon="7.11017">
        <ele>533.6</ele>
        <time>2025-09-08T06:21:04Z</time>
      </trkpt>
      <trkpt lat="48.05793" lon="7.1102">
        <ele>532.8</ele>
        <time>2025-09-08T06:21:05Z</time>
      </trkpt>
      <trkpt lat="48.05799" lon="7.11024">
        <ele>532.4</ele>
        <time>2025-09-08T06:21:06Z</time>
      </trkpt>
      <trkpt lat="48.05804" lon="7.11027">
        <ele>532.2</ele>
        <time>2025-09-08T06:21:07Z</time>
      </trkpt>
      <trkpt lat="48.05811" lon="7.11028">
        <ele>532</ele>
        <time>2025-09-08T06:21:08Z</time>
      </trkpt>
      <trkpt lat="48.05817" lon="7.11029">
        <ele>531.4</ele>
        <time>2025-09-08T06:21:09Z</time>
      </trkpt>
      <trkpt lat="48.05823" lon="7.11031">
        <ele>531.2</ele>
        <time>2025-09-08T06:21:10Z</time>
      </trkpt>
      <trkpt lat="48.05829" lon="7.11031">
        <ele>531</ele>
        <time>2025-09-08T06:21:11Z</time>
      </trkpt>
      <trkpt lat="48.05835" lon="7.11026">
        <ele>530.6</ele>
        <time>2025-09-08T06:21:12Z</time>
      </trkpt>
      <trkpt lat="48.05837" lon="7.11018">
        <ele>530.2</ele>
        <time>2025-09-08T06:21:13Z</time>
      </trkpt>
      <trkpt lat="48.0584" lon="7.1101">
        <ele>529.8</ele>
        <time>2025-09-08T06:21:14Z</time>
      </trkpt>
      <trkpt lat="48.05842" lon="7.11003">
        <ele>529.6</ele>
        <time>2025-09-08T06:21:15Z</time>
      </trkpt>
      <trkpt lat="48.05843" lon="7.10996">
        <ele>529.4</ele>
        <time>2025-09-08T06:21:16Z</time>
      </trkpt>
      <trkpt lat="48.05843" lon="7.10988">
        <ele>529.2</ele>
        <time>2025-09-08T06:21:17Z</time>
      </trkpt>
      <trkpt lat="48.05845" lon="7.10979">
        <ele>529.2</ele>
        <time>2025-09-08T06:21:18Z</time>
      </trkpt>
      <trkpt lat="48.05846" lon="7.1097">
        <ele>529</ele>
        <time>2025-09-08T06:21:19Z</time>
      </trkpt>
      <trkpt lat="48.05847" lon="7.10961">
        <ele>528.8</ele>
        <time>2025-09-08T06:21:20Z</time>
      </trkpt>
      <trkpt lat="48.05847" lon="7.10951">
        <ele>528.6</ele>
        <time>2025-09-08T06:21:21Z</time>
      </trkpt>
      <trkpt lat="48.05847" lon="7.1094">
        <ele>528.4</ele>
        <time>2025-09-08T06:21:22Z</time>
      </trkpt>
      <trkpt lat="48.05848" lon="7.10928">
        <ele>528.2</ele>
        <time>2025-09-08T06:21:23Z</time>
      </trkpt>
      <trkpt lat="48.0585" lon="7.10917">
        <ele>527.8</ele>
        <time>2025-09-08T06:21:24Z</time>
      </trkpt>
      <trkpt lat="48.05853" lon="7.10909">
        <ele>527.4</ele>
        <time>2025-09-08T06:21:25Z</time>
      </trkpt>
      <trkpt lat="48.05854" lon="7.10902">
        <ele>526.8</ele>
        <time>2025-09-08T06:21:26Z</time>
      </trkpt>
      <trkpt lat="48.05854" lon="7.10894">
        <ele>526.8</ele>
        <time>2025-09-08T06:21:27Z</time>
      </trkpt>
      <trkpt lat="48.05855" lon="7.10887">
        <ele>526.4</ele>
        <time>2025-09-08T06:21:28Z</time>
      </trkpt>
      <trkpt lat="48.05857" lon="7.1088">
        <ele>526.4</ele>
        <time>2025-09-08T06:21:29Z</time>
      </trkpt>
      <trkpt lat="48.05859" lon="7.10873">
        <ele>526.2</ele>
        <time>2025-09-08T06:21:30Z</time>
      </trkpt>
      <trkpt lat="48.05863" lon="7.10866">
        <ele>526</ele>
        <time>2025-09-08T06:21:31Z</time>
      </trkpt>
      <trkpt lat="48.05866" lon="7.10858">
        <ele>526</ele>
        <time>2025-09-08T06:21:32Z</time>
      </trkpt>
      <trkpt lat="48.0587" lon="7.1085">
        <ele>525.8</ele>
        <time>2025-09-08T06:21:33Z</time>
      </trkpt>
      <trkpt lat="48.05874" lon="7.10842">
        <ele>525.6</ele>
        <time>2025-09-08T06:21:34Z</time>
      </trkpt>
      <trkpt lat="48.05878" lon="7.10834">
        <ele>525.4</ele>
        <time>2025-09-08T06:21:35Z</time>
      </trkpt>
      <trkpt lat="48.05882" lon="7.10825">
        <ele>525</ele>
        <time>2025-09-08T06:21:36Z</time>
      </trkpt>
      <trkpt lat="48.05886" lon="7.10816">
        <ele>524.2</ele>
        <time>2025-09-08T06:21:37Z</time>
      </trkpt>
      <trkpt lat="48.0589" lon="7.10809">
        <ele>524.2</ele>
        <time>2025-09-08T06:21:38Z</time>
      </trkpt>
      <trkpt lat="48.05894" lon="7.10802">
        <ele>524.2</ele>
        <time>2025-09-08T06:21:39Z</time>
      </trkpt>
      <trkpt lat="48.05896" lon="7.10797">
        <ele>524.2</ele>
        <time>2025-09-08T06:21:40Z</time>
      </trkpt>
      <trkpt lat="48.05898" lon="7.10792">
        <ele>524.2</ele>
        <time>2025-09-08T06:21:41Z</time>
      </trkpt>
      <trkpt lat="48.059" lon="7.10788">
        <ele>524.4</ele>
        <time>2025-09-08T06:21:42Z</time>
      </trkpt>
      <trkpt lat="48.05901" lon="7.10783">
        <ele>525.2</ele>
        <time>2025-09-08T06:21:43Z</time>
      </trkpt>
      <trkpt lat="48.05902" lon="7.1078">
        <ele>525.6</ele>
        <time>2025-09-08T06:21:44Z</time>
      </trkpt>
      <trkpt lat="48.05904" lon="7.10776">
        <ele>526.4</ele>
        <time>2025-09-08T06:21:45Z</time>
      </trkpt>
      <trkpt lat="48.05905" lon="7.10772">
        <ele>527.4</ele>
        <time>2025-09-08T06:21:46Z</time>
      </trkpt>
      <trkpt lat="48.05906" lon="7.10769">
        <ele>528</ele>
        <time>2025-09-08T06:21:47Z</time>
      </trkpt>
      <trkpt lat="48.05907" lon="7.10767">
        <ele>528.6</ele>
        <time>2025-09-08T06:21:48Z</time>
      </trkpt>
      <trkpt lat="48.05907" lon="7.10767">
        <ele>528.8</ele>
        <time>2025-09-08T06:21:49Z</time>
      </trkpt>
      <trkpt lat="48.05908" lon="7.10767">
        <ele>529.2</ele>
        <time>2025-09-08T06:21:50Z</time>
      </trkpt>
      <trkpt lat="48.05908" lon="7.10766">
        <ele>529.6</ele>
        <time>2025-09-08T06:21:51Z</time>
      </trkpt>
      <trkpt lat="48.05908" lon="7.10766">
        <ele>530</ele>
        <time>2025-09-08T06:21:52Z</time>
      </trkpt>
      <trkpt lat="48.05908" lon="7.10766">
        <ele>530.2</ele>
        <time>2025-09-08T06:21:53Z</time>
      </trkpt>
      <trkpt lat="48.05908" lon="7.10766">
        <ele>530.4</ele>
        <time>2025-09-08T06:21:54Z</time>
      </trkpt>
      <trkpt lat="48.05908" lon="7.10766">
        <ele>530.4</ele>
        <time>2025-09-08T06:21:55Z</time>
      </trkpt>
      <trkpt lat="48.05908" lon="7.10764">
        <ele>530.4</ele>
        <time>2025-09-08T06:21:56Z</time>
      </trkpt>
      <trkpt lat="48.05912" lon="7.10767">
        <ele>530.4</ele>
        <time>2025-09-08T06:22:20Z</time>
      </trkpt>
      <trkpt lat="48.05912" lon="7.1077">
        <ele>530.4</ele>
        <time>2025-09-08T06:22:21Z</time>
      </trkpt>
      <trkpt lat="48.05913" lon="7.10774">
        <ele>530.6</ele>
        <time>2025-09-08T06:22:22Z</time>
      </trkpt>
      <trkpt lat="48.05913" lon="7.10779">
        <ele>530.6</ele>
        <time>2025-09-08T06:22:23Z</time>
      </trkpt>
      <trkpt lat="48.05913" lon="7.10782">
        <ele>530.6</ele>
        <time>2025-09-08T06:22:24Z</time>
      </trkpt>
      <trkpt lat="48.05914" lon="7.10787">
        <ele>530.6</ele>
        <time>2025-09-08T06:22:25Z</time>
      </trkpt>
      <trkpt lat="48.05915" lon="7.10792">
        <ele>530.6</ele>
        <time>2025-09-08T06:22:26Z</time>
      </trkpt>
      <trkpt lat="48.05915" lon="7.10795">
        <ele>530.8</ele>
        <time>2025-09-08T06:22:27Z</time>
      </trkpt>
      <trkpt lat="48.05916" lon="7.10799">
        <ele>531</ele>
        <time>2025-09-08T06:22:28Z</time>
      </trkpt>
      <trkpt lat="48.05918" lon="7.10803">
        <ele>531.2</ele>
        <time>2025-09-08T06:22:29Z</time>
      </trkpt>
      <trkpt lat="48.0592" lon="7.10807">
        <ele>531.8</ele>
        <time>2025-09-08T06:22:30Z</time>
      </trkpt>
      <trkpt lat="48.05922" lon="7.1081">
        <ele>532.2</ele>
        <time>2025-09-08T06:22:31Z</time>
      </trkpt>
      <trkpt lat="48.05923" lon="7.10812">
        <ele>532.6</ele>
        <time>2025-09-08T06:22:32Z</time>
      </trkpt>
      <trkpt lat="48.05925" lon="7.10815">
        <ele>533.4</ele>
        <time>2025-09-08T06:22:33Z</time>
      </trkpt>
      <trkpt lat="48.05927" lon="7.10818">
        <ele>533.8</ele>
        <time>2025-09-08T06:22:34Z</time>
      </trkpt>
      <trkpt lat="48.05928" lon="7.10819">
        <ele>534.4</ele>
        <time>2025-09-08T06:22:35Z</time>
      </trkpt>
      <trkpt lat="48.0593" lon="7.10822">
        <ele>535</ele>
        <time>2025-09-08T06:22:36Z</time>
      </trkpt>
      <trkpt lat="48.05931" lon="7.10824">
        <ele>535.4</ele>
        <time>2025-09-08T06:22:37Z</time>
      </trkpt>
      <trkpt lat="48.05933" lon="7.10826">
        <ele>535.8</ele>
        <time>2025-09-08T06:22:38Z</time>
      </trkpt>
      <trkpt lat="48.05935" lon="7.10829">
        <ele>536.4</ele>
        <time>2025-09-08T06:22:39Z</time>
      </trkpt>
      <trkpt lat="48.05935" lon="7.10832">
        <ele>536.8</ele>
        <time>2025-09-08T06:22:40Z</time>
      </trkpt>
      <trkpt lat="48.05935" lon="7.10836">
        <ele>537.4</ele>
        <time>2025-09-08T06:22:41Z</time>
      </trkpt>
      <trkpt lat="48.05935" lon="7.10839">
        <ele>538</ele>
        <time>2025-09-08T06:22:42Z</time>
      </trkpt>
      <trkpt lat="48.05935" lon="7.10842">
        <ele>538.4</ele>
        <time>2025-09-08T06:22:43Z</time>
      </trkpt>
      <trkpt lat="48.05935" lon="7.10845">
        <ele>539</ele>
        <time>2025-09-08T06:22:44Z</time>
      </trkpt>
      <trkpt lat="48.05936" lon="7.10848">
        <ele>539.6</ele>
        <time>2025-09-08T06:22:45Z</time>
      </trkpt>
      <trkpt lat="48.05935" lon="7.1085">
        <ele>539.8</ele>
        <time>2025-09-08T06:22:46Z</time>
      </trkpt>
      <trkpt lat="48.05934" lon="7.10852">
        <ele>540.4</ele>
        <time>2025-09-08T06:22:47Z</time>
      </trkpt>
      <trkpt lat="48.05933" lon="7.10855">
        <ele>541.2</ele>
        <time>2025-09-08T06:22:48Z</time>
      </trkpt>
      <trkpt lat="48.05932" lon="7.10858">
        <ele>541.6</ele>
        <time>2025-09-08T06:22:49Z</time>
      </trkpt>
      <trkpt lat="48.0593" lon="7.10861">
        <ele>542</ele>
        <time>2025-09-08T06:22:50Z</time>
      </trkpt>
      <trkpt lat="48.05929" lon="7.10864">
        <ele>542.6</ele>
        <time>2025-09-08T06:22:51Z</time>
      </trkpt>
      <trkpt lat="48.05928" lon="7.10867">
        <ele>542.8</ele>
        <time>2025-09-08T06:22:52Z</time>
      </trkpt>
      <trkpt lat="48.05926" lon="7.1087">
        <ele>543.4</ele>
        <time>2025-09-08T06:22:53Z</time>
      </trkpt>
      <trkpt lat="48.05925" lon="7.10873">
        <ele>543.6</ele>
        <time>2025-09-08T06:22:54Z</time>
      </trkpt>
      <trkpt lat="48.05924" lon="7.10877">
        <ele>543.8</ele>
        <time>2025-09-08T06:22:55Z</time>
      </trkpt>
      <trkpt lat="48.05923" lon="7.1088">
        <ele>544.2</ele>
        <time>2025-09-08T06:22:56Z</time>
      </trkpt>
      <trkpt lat="48.05921" lon="7.10883">
        <ele>544.4</ele>
        <time>2025-09-08T06:22:57Z</time>
      </trkpt>
      <trkpt lat="48.0592" lon="7.10887">
        <ele>545</ele>
        <time>2025-09-08T06:22:58Z</time>
      </trkpt>
      <trkpt lat="48.05918" lon="7.1089">
        <ele>545.2</ele>
        <time>2025-09-08T06:22:59Z</time>
      </trkpt>
      <trkpt lat="48.05917" lon="7.10894">
        <ele>545.4</ele>
        <time>2025-09-08T06:23:00Z</time>
      </trkpt>
      <trkpt lat="48.05916" lon="7.10897">
        <ele>545.6</ele>
        <time>2025-09-08T06:23:01Z</time>
      </trkpt>
      <trkpt lat="48.05914" lon="7.10901">
        <ele>545.8</ele>
        <time>2025-09-08T06:23:02Z</time>
      </trkpt>
      <trkpt lat="48.05913" lon="7.10904">
        <ele>545.8</ele>
        <time>2025-09-08T06:23:03Z</time>
      </trkpt>
      <trkpt lat="48.05911" lon="7.10907">
        <ele>546.2</ele>
        <time>2025-09-08T06:23:04Z</time>
      </trkpt>
      <trkpt lat="48.0591" lon="7.1091">
        <ele>546.4</ele>
        <time>2025-09-08T06:23:05Z</time>
      </trkpt>
      <trkpt lat="48.05908" lon="7.10913">
        <ele>546.6</ele>
        <time>2025-09-08T06:23:06Z</time>
      </trkpt>
      <trkpt lat="48.05907" lon="7.10916">
        <ele>546.8</ele>
        <time>2025-09-08T06:23:07Z</time>
      </trkpt>
      <trkpt lat="48.05906" lon="7.10919">
        <ele>547</ele>
        <time>2025-09-08T06:23:08Z</time>
      </trkpt>
      <trkpt lat="48.05905" lon="7.10923">
        <ele>547.4</ele>
        <time>2025-09-08T06:23:09Z</time>
      </trkpt>
      <trkpt lat="48.05904" lon="7.10926">
        <ele>547.6</ele>
        <time>2025-09-08T06:23:10Z</time>
      </trkpt>
      <trkpt lat="48.05904" lon="7.1093">
        <ele>547.8</ele>
        <time>2025-09-08T06:23:11Z</time>
      </trkpt>
      <trkpt lat="48.05905" lon="7.10933">
        <ele>548</ele>
        <time>2025-09-08T06:23:12Z</time>
      </trkpt>
      <trkpt lat="48.05907" lon="7.10935">
        <ele>548.4</ele>
        <time>2025-09-08T06:23:13Z</time>
      </trkpt>
      <trkpt lat="48.05909" lon="7.10936">
        <ele>548.6</ele>
        <time>2025-09-08T06:23:14Z</time>
      </trkpt>
      <trkpt lat="48.05912" lon="7.10936">
        <ele>549</ele>
        <time>2025-09-08T06:23:15Z</time>
      </trkpt>
      <trkpt lat="48.05914" lon="7.10934">
        <ele>549</ele>
        <time>2025-09-08T06:23:16Z</time>
      </trkpt>
      <trkpt lat="48.05916" lon="7.10932">
        <ele>549.2</ele>
        <time>2025-09-08T06:23:17Z</time>
      </trkpt>
      <trkpt lat="48.05917" lon="7.10929">
        <ele>549.6</ele>
        <time>2025-09-08T06:23:18Z</time>
      </trkpt>
      <trkpt lat="48.05919" lon="7.10927">
        <ele>549.8</ele>
        <time>2025-09-08T06:23:19Z</time>
      </trkpt>
      <trkpt lat="48.05921" lon="7.10924">
        <ele>550.2</ele>
        <time>2025-09-08T06:23:20Z</time>
      </trkpt>
      <trkpt lat="48.05922" lon="7.10922">
        <ele>550.4</ele>
        <time>2025-09-08T06:23:21Z</time>
      </trkpt>
      <trkpt lat="48.05925" lon="7.10919">
        <ele>550.6</ele>
        <time>2025-09-08T06:23:22Z</time>
      </trkpt>
      <trkpt lat="48.05927" lon="7.10917">
        <ele>550.8</ele>
        <time>2025-09-08T06:23:23Z</time>
      </trkpt>
      <trkpt lat="48.05929" lon="7.10916">
        <ele>551</ele>
        <time>2025-09-08T06:23:24Z</time>
      </trkpt>
      <trkpt lat="48.05932" lon="7.10914">
        <ele>551.2</ele>
        <time>2025-09-08T06:23:25Z</time>
      </trkpt>
      <trkpt lat="48.05934" lon="7.10913">
        <ele>551.6</ele>
        <time>2025-09-08T06:23:26Z</time>
      </trkpt>
      <trkpt lat="48.05937" lon="7.10912">
        <ele>551.8</ele>
        <time>2025-09-08T06:23:27Z</time>
      </trkpt>
      <trkpt lat="48.0594" lon="7.10911">
        <ele>552</ele>
        <time>2025-09-08T06:23:28Z</time>
      </trkpt>
      <trkpt lat="48.05942" lon="7.10909">
        <ele>552.2</ele>
        <time>2025-09-08T06:23:29Z</time>
      </trkpt>
      <trkpt lat="48.05945" lon="7.10908">
        <ele>552.6</ele>
        <time>2025-09-08T06:23:30Z</time>
      </trkpt>
      <trkpt lat="48.05948" lon="7.10907">
        <ele>552.8</ele>
        <time>2025-09-08T06:23:31Z</time>
      </trkpt>
      <trkpt lat="48.0595" lon="7.10906">
        <ele>553</ele>
        <time>2025-09-08T06:23:32Z</time>
      </trkpt>
      <trkpt lat="48.05952" lon="7.10905">
        <ele>553.2</ele>
        <time>2025-09-08T06:23:33Z</time>
      </trkpt>
      <trkpt lat="48.05955" lon="7.10904">
        <ele>553.6</ele>
        <time>2025-09-08T06:23:34Z</time>
      </trkpt>
      <trkpt lat="48.05958" lon="7.10903">
        <ele>553.8</ele>
        <time>2025-09-08T06:23:35Z</time>
      </trkpt>
      <trkpt lat="48.05961" lon="7.10902">
        <ele>554.2</ele>
        <time>2025-09-08T06:23:36Z</time>
      </trkpt>
      <trkpt lat="48.05963" lon="7.109">
        <ele>554.4</ele>
        <time>2025-09-08T06:23:37Z</time>
      </trkpt>
      <trkpt lat="48.05966" lon="7.10899">
        <ele>554.6</ele>
        <time>2025-09-08T06:23:38Z</time>
      </trkpt>
      <trkpt lat="48.05969" lon="7.10897">
        <ele>554.8</ele>
        <time>2025-09-08T06:23:39Z</time>
      </trkpt>
      <trkpt lat="48.05971" lon="7.10895">
        <ele>555</ele>
        <time>2025-09-08T06:23:40Z</time>
      </trkpt>
      <trkpt lat="48.05973" lon="7.10893">
        <ele>555.2</ele>
        <time>2025-09-08T06:23:41Z</time>
      </trkpt>
      <trkpt lat="48.05975" lon="7.10891">
        <ele>555.2</ele>
        <time>2025-09-08T06:23:42Z</time>
      </trkpt>
      <trkpt lat="48.05978" lon="7.10889">
        <ele>555.6</ele>
        <time>2025-09-08T06:23:43Z</time>
      </trkpt>
      <trkpt lat="48.0598" lon="7.10886">
        <ele>555.8</ele>
        <time>2025-09-08T06:23:44Z</time>
      </trkpt>
      <trkpt lat="48.05982" lon="7.10885">
        <ele>556.2</ele>
        <time>2025-09-08T06:23:45Z</time>
      </trkpt>
      <trkpt lat="48.05984" lon="7.10882">
        <ele>556.2</ele>
        <time>2025-09-08T06:23:46Z</time>
      </trkpt>
      <trkpt lat="48.05986" lon="7.1088">
        <ele>556.4</ele>
        <time>2025-09-08T06:23:47Z</time>
      </trkpt>
      <trkpt lat="48.05988" lon="7.10878">
        <ele>556.8</ele>
        <time>2025-09-08T06:23:48Z</time>
      </trkpt>
      <trkpt lat="48.0599" lon="7.10876">
        <ele>557</ele>
        <time>2025-09-08T06:23:49Z</time>
      </trkpt>
      <trkpt lat="48.05993" lon="7.10874">
        <ele>557.2</ele>
        <time>2025-09-08T06:23:50Z</time>
      </trkpt>
      <trkpt lat="48.05995" lon="7.10872">
        <ele>557.4</ele>
        <time>2025-09-08T06:23:51Z</time>
      </trkpt>
      <trkpt lat="48.05997" lon="7.1087">
        <ele>557.8</ele>
        <time>2025-09-08T06:23:52Z</time>
      </trkpt>
      <trkpt lat="48.06" lon="7.10868">
        <ele>558</ele>
        <time>2025-09-08T06:23:53Z</time>
      </trkpt>
      <trkpt lat="48.06002" lon="7.10867">
        <ele>558.4</ele>
        <time>2025-09-08T06:23:54Z</time>
      </trkpt>
      <trkpt lat="48.06005" lon="7.10865">
        <ele>558.6</ele>
        <time>2025-09-08T06:23:55Z</time>
      </trkpt>
      <trkpt lat="48.06007" lon="7.10863">
        <ele>558.8</ele>
        <time>2025-09-08T06:23:56Z</time>
      </trkpt>
      <trkpt lat="48.0601" lon="7.10862">
        <ele>559</ele>
        <time>2025-09-08T06:23:57Z</time>
      </trkpt>
      <trkpt lat="48.06012" lon="7.1086">
        <ele>559.2</ele>
        <time>2025-09-08T06:23:58Z</time>
      </trkpt>
      <trkpt lat="48.06015" lon="7.10858">
        <ele>559.8</ele>
        <time>2025-09-08T06:23:59Z</time>
      </trkpt>
      <trkpt lat="48.06017" lon="7.10856">
        <ele>559.8</ele>
        <time>2025-09-08T06:24:00Z</time>
      </trkpt>
      <trkpt lat="48.06019" lon="7.10854">
        <ele>560</ele>
        <time>2025-09-08T06:24:01Z</time>
      </trkpt>
      <trkpt lat="48.06022" lon="7.10852">
        <ele>560.2</ele>
        <time>2025-09-08T06:24:02Z</time>
      </trkpt>
      <trkpt lat="48.06024" lon="7.1085">
        <ele>560.2</ele>
        <time>2025-09-08T06:24:03Z</time>
      </trkpt>
      <trkpt lat="48.06026" lon="7.10848">
        <ele>560.4</ele>
        <time>2025-09-08T06:24:04Z</time>
      </trkpt>
      <trkpt lat="48.06028" lon="7.10846">
        <ele>560.6</ele>
        <time>2025-09-08T06:24:05Z</time>
      </trkpt>
      <trkpt lat="48.06031" lon="7.10845">
        <ele>560.8</ele>
        <time>2025-09-08T06:24:06Z</time>
      </trkpt>
      <trkpt lat="48.06033" lon="7.10843">
        <ele>560.8</ele>
        <time>2025-09-08T06:24:07Z</time>
      </trkpt>
      <trkpt lat="48.06036" lon="7.10842">
        <ele>561</ele>
        <time>2025-09-08T06:24:08Z</time>
      </trkpt>
      <trkpt lat="48.06038" lon="7.10841">
        <ele>561</ele>
        <time>2025-09-08T06:24:09Z</time>
      </trkpt>
      <trkpt lat="48.06041" lon="7.1084">
        <ele>561.2</ele>
        <time>2025-09-08T06:24:10Z</time>
      </trkpt>
      <trkpt lat="48.06043" lon="7.10839">
        <ele>561.6</ele>
        <time>2025-09-08T06:24:11Z</time>
      </trkpt>
      <trkpt lat="48.06046" lon="7.10838">
        <ele>561.8</ele>
        <time>2025-09-08T06:24:12Z</time>
      </trkpt>
      <trkpt lat="48.06049" lon="7.10837">
        <ele>562.2</ele>
        <time>2025-09-08T06:24:13Z</time>
      </trkpt>
      <trkpt lat="48.06052" lon="7.10837">
        <ele>562.4</ele>
        <time>2025-09-08T06:24:14Z</time>
      </trkpt>
      <trkpt lat="48.06054" lon="7.10836">
        <ele>562.6</ele>
        <time>2025-09-08T06:24:15Z</time>
      </trkpt>
      <trkpt lat="48.06057" lon="7.10835">
        <ele>562.6</ele>
        <time>2025-09-08T06:24:16Z</time>
      </trkpt>
      <trkpt lat="48.0606" lon="7.10835">
        <ele>562.8</ele>
        <time>2025-09-08T06:24:17Z</time>
      </trkpt>
      <trkpt lat="48.06063" lon="7.10835">
        <ele>563</ele>
        <time>2025-09-08T06:24:18Z</time>
      </trkpt>
      <trkpt lat="48.06066" lon="7.10835">
        <ele>563</ele>
        <time>2025-09-08T06:24:19Z</time>
      </trkpt>
      <trkpt lat="48.06069" lon="7.10836">
        <ele>563.4</ele>
        <time>2025-09-08T06:24:20Z</time>
      </trkpt>
      <trkpt lat="48.06072" lon="7.10837">
        <ele>563.6</ele>
        <time>2025-09-08T06:24:21Z</time>
      </trkpt>
      <trkpt lat="48.06075" lon="7.10838">
        <ele>563.8</ele>
        <time>2025-09-08T06:24:22Z</time>
      </trkpt>
      <trkpt lat="48.06077" lon="7.1084">
        <ele>564</ele>
        <time>2025-09-08T06:24:23Z</time>
      </trkpt>
      <trkpt lat="48.0608" lon="7.10841">
        <ele>564.2</ele>
        <time>2025-09-08T06:24:24Z</time>
      </trkpt>
      <trkpt lat="48.06083" lon="7.10843">
        <ele>564.4</ele>
        <time>2025-09-08T06:24:25Z</time>
      </trkpt>
      <trkpt lat="48.06086" lon="7.10844">
        <ele>564.4</ele>
        <time>2025-09-08T06:24:26Z</time>
      </trkpt>
      <trkpt lat="48.06088" lon="7.10846">
        <ele>564.6</ele>
        <time>2025-09-08T06:24:27Z</time>
      </trkpt>
      <trkpt lat="48.06091" lon="7.10848">
        <ele>564.8</ele>
        <time>2025-09-08T06:24:28Z</time>
      </trkpt>
      <trkpt lat="48.06093" lon="7.1085">
        <ele>565</ele>
        <time>2025-09-08T06:24:29Z</time>
      </trkpt>
      <trkpt lat="48.06095" lon="7.10853">
        <ele>565</ele>
        <time>2025-09-08T06:24:30Z</time>
      </trkpt>
      <trkpt lat="48.06097" lon="7.10855">
        <ele>565.2</ele>
        <time>2025-09-08T06:24:31Z</time>
      </trkpt>
      <trkpt lat="48.061" lon="7.10857">
        <ele>565.4</ele>
        <time>2025-09-08T06:24:32Z</time>
      </trkpt>
      <trkpt lat="48.06102" lon="7.10859">
        <ele>565.8</ele>
        <time>2025-09-08T06:24:33Z</time>
      </trkpt>
      <trkpt lat="48.06105" lon="7.10862">
        <ele>566</ele>
        <time>2025-09-08T06:24:34Z</time>
      </trkpt>
      <trkpt lat="48.06107" lon="7.10864">
        <ele>566.2</ele>
        <time>2025-09-08T06:24:35Z</time>
      </trkpt>
      <trkpt lat="48.06109" lon="7.10867">
        <ele>566.2</ele>
        <time>2025-09-08T06:24:36Z</time>
      </trkpt>
      <trkpt lat="48.06112" lon="7.1087">
        <ele>566.6</ele>
        <time>2025-09-08T06:24:37Z</time>
      </trkpt>
      <trkpt lat="48.06114" lon="7.10872">
        <ele>566.8</ele>
        <time>2025-09-08T06:24:38Z</time>
      </trkpt>
      <trkpt lat="48.06116" lon="7.10875">
        <ele>567</ele>
        <time>2025-09-08T06:24:39Z</time>
      </trkpt>
      <trkpt lat="48.06118" lon="7.10878">
        <ele>567.2</ele>
        <time>2025-09-08T06:24:40Z</time>
      </trkpt>
      <trkpt lat="48.0612" lon="7.1088">
        <ele>567.2</ele>
        <time>2025-09-08T06:24:41Z</time>
      </trkpt>
      <trkpt lat="48.06123" lon="7.10883">
        <ele>567.4</ele>
        <time>2025-09-08T06:24:42Z</time>
      </trkpt>
      <trkpt lat="48.06125" lon="7.10886">
        <ele>567.8</ele>
        <time>2025-09-08T06:24:43Z</time>
      </trkpt>
      <trkpt lat="48.06127" lon="7.10889">
        <ele>568</ele>
        <time>2025-09-08T06:24:44Z</time>
      </trkpt>
      <trkpt lat="48.06129" lon="7.10892">
        <ele>568</ele>
        <time>2025-09-08T06:24:45Z</time>
      </trkpt>
      <trkpt lat="48.06131" lon="7.10896">
        <ele>568.2</ele>
        <time>2025-09-08T06:24:46Z</time>
      </trkpt>
      <trkpt lat="48.06132" lon="7.10899">
        <ele>568.4</ele>
        <time>2025-09-08T06:24:47Z</time>
      </trkpt>
      <trkpt lat="48.06133" lon="7.10902">
        <ele>568.6</ele>
        <time>2025-09-08T06:24:48Z</time>
      </trkpt>
      <trkpt lat="48.06134" lon="7.10906">
        <ele>568.8</ele>
        <time>2025-09-08T06:24:49Z</time>
      </trkpt>
      <trkpt lat="48.06135" lon="7.10909">
        <ele>569</ele>
        <time>2025-09-08T06:24:50Z</time>
      </trkpt>
      <trkpt lat="48.06136" lon="7.10913">
        <ele>569.2</ele>
        <time>2025-09-08T06:24:51Z</time>
      </trkpt>
      <trkpt lat="48.06137" lon="7.10917">
        <ele>569.4</ele>
        <time>2025-09-08T06:24:52Z</time>
      </trkpt>
      <trkpt lat="48.06138" lon="7.10921">
        <ele>569.6</ele>
        <time>2025-09-08T06:24:53Z</time>
      </trkpt>
      <trkpt lat="48.06139" lon="7.10925">
        <ele>569.8</ele>
        <time>2025-09-08T06:24:54Z</time>
      </trkpt>
      <trkpt lat="48.0614" lon="7.1093">
        <ele>569.8</ele>
        <time>2025-09-08T06:24:55Z</time>
      </trkpt>
      <trkpt lat="48.06141" lon="7.10934">
        <ele>570</ele>
        <time>2025-09-08T06:24:56Z</time>
      </trkpt>
      <trkpt lat="48.06142" lon="7.10939">
        <ele>570.2</ele>
        <time>2025-09-08T06:24:57Z</time>
      </trkpt>
      <trkpt lat="48.06143" lon="7.10943">
        <ele>570.4</ele>
        <time>2025-09-08T06:24:58Z</time>
      </trkpt>
      <trkpt lat="48.06144" lon="7.10947">
        <ele>570.6</ele>
        <time>2025-09-08T06:24:59Z</time>
      </trkpt>
      <trkpt lat="48.06144" lon="7.10952">
        <ele>570.8</ele>
        <time>2025-09-08T06:25:00Z</time>
      </trkpt>
      <trkpt lat="48.06145" lon="7.10956">
        <ele>571</ele>
        <time>2025-09-08T06:25:01Z</time>
      </trkpt>
      <trkpt lat="48.06144" lon="7.1096">
        <ele>571</ele>
        <time>2025-09-08T06:25:02Z</time>
      </trkpt>
      <trkpt lat="48.06144" lon="7.10964">
        <ele>571.2</ele>
        <time>2025-09-08T06:25:03Z</time>
      </trkpt>
      <trkpt lat="48.06144" lon="7.10969">
        <ele>571.4</ele>
        <time>2025-09-08T06:25:04Z</time>
      </trkpt>
      <trkpt lat="48.06143" lon="7.10973">
        <ele>571.6</ele>
        <time>2025-09-08T06:25:05Z</time>
      </trkpt>
      <trkpt lat="48.06143" lon="7.10977">
        <ele>572</ele>
        <time>2025-09-08T06:25:06Z</time>
      </trkpt>
      <trkpt lat="48.06142" lon="7.10981">
        <ele>572.2</ele>
        <time>2025-09-08T06:25:07Z</time>
      </trkpt>
      <trkpt lat="48.06142" lon="7.10986">
        <ele>572.2</ele>
        <time>2025-09-08T06:25:08Z</time>
      </trkpt>
      <trkpt lat="48.06141" lon="7.1099">
        <ele>572.4</ele>
        <time>2025-09-08T06:25:09Z</time>
      </trkpt>
      <trkpt lat="48.06141" lon="7.10994">
        <ele>572.8</ele>
        <time>2025-09-08T06:25:10Z</time>
      </trkpt>
      <trkpt lat="48.0614" lon="7.10998">
        <ele>573</ele>
        <time>2025-09-08T06:25:11Z</time>
      </trkpt>
      <trkpt lat="48.0614" lon="7.11002">
        <ele>573</ele>
        <time>2025-09-08T06:25:12Z</time>
      </trkpt>
      <trkpt lat="48.06139" lon="7.11007">
        <ele>573.2</ele>
        <time>2025-09-08T06:25:13Z</time>
      </trkpt>
      <trkpt lat="48.06139" lon="7.11011">
        <ele>573.6</ele>
        <time>2025-09-08T06:25:14Z</time>
      </trkpt>
      <trkpt lat="48.06138" lon="7.11014">
        <ele>573.8</ele>
        <time>2025-09-08T06:25:15Z</time>
      </trkpt>
      <trkpt lat="48.06137" lon="7.11017">
        <ele>574</ele>
        <time>2025-09-08T06:25:16Z</time>
      </trkpt>
      <trkpt lat="48.06135" lon="7.11018">
        <ele>574.2</ele>
        <time>2025-09-08T06:25:17Z</time>
      </trkpt>
      <trkpt lat="48.06132" lon="7.11017">
        <ele>574.6</ele>
        <time>2025-09-08T06:25:18Z</time>
      </trkpt>
      <trkpt lat="48.0613" lon="7.11014">
        <ele>574.8</ele>
        <time>2025-09-08T06:25:19Z</time>
      </trkpt>
      <trkpt lat="48.06129" lon="7.11012">
        <ele>575</ele>
        <time>2025-09-08T06:25:20Z</time>
      </trkpt>
      <trkpt lat="48.06128" lon="7.11009">
        <ele>575.4</ele>
        <time>2025-09-08T06:25:21Z</time>
      </trkpt>
      <trkpt lat="48.06127" lon="7.11005">
        <ele>575.6</ele>
        <time>2025-09-08T06:25:22Z</time>
      </trkpt>
      <trkpt lat="48.06126" lon="7.11002">
        <ele>576</ele>
        <time>2025-09-08T06:25:23Z</time>
      </trkpt>
      <trkpt lat="48.06125" lon="7.10998">
        <ele>576.2</ele>
        <time>2025-09-08T06:25:24Z</time>
      </trkpt>
      <trkpt lat="48.06124" lon="7.10995">
        <ele>576.6</ele>
        <time>2025-09-08T06:25:25Z</time>
      </trkpt>
      <trkpt lat="48.06123" lon="7.10992">
        <ele>576.8</ele>
        <time>2025-09-08T06:25:26Z</time>
      </trkpt>
      <trkpt lat="48.06122" lon="7.10988">
        <ele>577.2</ele>
        <time>2025-09-08T06:25:27Z</time>
      </trkpt>
      <trkpt lat="48.0612" lon="7.10985">
        <ele>577.6</ele>
        <time>2025-09-08T06:25:28Z</time>
      </trkpt>
      <trkpt lat="48.06118" lon="7.10981">
        <ele>578</ele>
        <time>2025-09-08T06:25:29Z</time>
      </trkpt>
      <trkpt lat="48.06116" lon="7.10979">
        <ele>578.4</ele>
        <time>2025-09-08T06:25:30Z</time>
      </trkpt>
      <trkpt lat="48.06114" lon="7.10976">
        <ele>578.4</ele>
        <time>2025-09-08T06:25:31Z</time>
      </trkpt>
      <trkpt lat="48.06112" lon="7.10974">
        <ele>578.6</ele>
        <time>2025-09-08T06:25:32Z</time>
      </trkpt>
      <trkpt lat="48.0611" lon="7.10971">
        <ele>579.2</ele>
        <time>2025-09-08T06:25:33Z</time>
      </trkpt>
      <trkpt lat="48.06108" lon="7.10969">
        <ele>579.4</ele>
        <time>2025-09-08T06:25:34Z</time>
      </trkpt>
      <trkpt lat="48.06106" lon="7.10967">
        <ele>579.6</ele>
        <time>2025-09-08T06:25:35Z</time>
      </trkpt>
      <trkpt lat="48.06104" lon="7.10964">
        <ele>580</ele>
        <time>2025-09-08T06:25:36Z</time>
      </trkpt>
      <trkpt lat="48.06102" lon="7.10962">
        <ele>580.2</ele>
        <time>2025-09-08T06:25:37Z</time>
      </trkpt>
      <trkpt lat="48.061" lon="7.1096">
        <ele>580.8</ele>
        <time>2025-09-08T06:25:38Z</time>
      </trkpt>
      <trkpt lat="48.06098" lon="7.10958">
        <ele>581</ele>
        <time>2025-09-08T06:25:39Z</time>
      </trkpt>
      <trkpt lat="48.06096" lon="7.10957">
        <ele>581.2</ele>
        <time>2025-09-08T06:25:40Z</time>
      </trkpt>
      <trkpt lat="48.06093" lon="7.10957">
        <ele>581.4</ele>
        <time>2025-09-08T06:25:41Z</time>
      </trkpt>
      <trkpt lat="48.06091" lon="7.10957">
        <ele>581.8</ele>
        <time>2025-09-08T06:25:42Z</time>
      </trkpt>
      <trkpt lat="48.06088" lon="7.10958">
        <ele>582</ele>
        <time>2025-09-08T06:25:43Z</time>
      </trkpt>
      <trkpt lat="48.06086" lon="7.10959">
        <ele>582.4</ele>
        <time>2025-09-08T06:25:44Z</time>
      </trkpt>
      <trkpt lat="48.06084" lon="7.10962">
        <ele>582.6</ele>
        <time>2025-09-08T06:25:45Z</time>
      </trkpt>
      <trkpt lat="48.06084" lon="7.10965">
        <ele>582.8</ele>
        <time>2025-09-08T06:25:46Z</time>
      </trkpt>
      <trkpt lat="48.06083" lon="7.10969">
        <ele>583.4</ele>
        <time>2025-09-08T06:25:47Z</time>
      </trkpt>
      <trkpt lat="48.06083" lon="7.10973">
        <ele>583.8</ele>
        <time>2025-09-08T06:25:48Z</time>
      </trkpt>
      <trkpt lat="48.06083" lon="7.10977">
        <ele>584</ele>
        <time>2025-09-08T06:25:49Z</time>
      </trkpt>
      <trkpt lat="48.06083" lon="7.10981">
        <ele>584.4</ele>
        <time>2025-09-08T06:25:50Z</time>
      </trkpt>
      <trkpt lat="48.06082" lon="7.10985">
        <ele>584.6</ele>
        <time>2025-09-08T06:25:51Z</time>
      </trkpt>
      <trkpt lat="48.06082" lon="7.10989">
        <ele>585</ele>
        <time>2025-09-08T06:25:52Z</time>
      </trkpt>
      <trkpt lat="48.06081" lon="7.10993">
        <ele>585.4</ele>
        <time>2025-09-08T06:25:53Z</time>
      </trkpt>
      <trkpt lat="48.0608" lon="7.10998">
        <ele>585.8</ele>
        <time>2025-09-08T06:25:54Z</time>
      </trkpt>
      <trkpt lat="48.0608" lon="7.11002">
        <ele>586</ele>
        <time>2025-09-08T06:25:55Z</time>
      </trkpt>
      <trkpt lat="48.06079" lon="7.11006">
        <ele>586</ele>
        <time>2025-09-08T06:25:56Z</time>
      </trkpt>
      <trkpt lat="48.06078" lon="7.1101">
        <ele>586.6</ele>
        <time>2025-09-08T06:25:57Z</time>
      </trkpt>
      <trkpt lat="48.06078" lon="7.11015">
        <ele>586.6</ele>
        <time>2025-09-08T06:25:58Z</time>
      </trkpt>
      <trkpt lat="48.06078" lon="7.11019">
        <ele>586.8</ele>
        <time>2025-09-08T06:25:59Z</time>
      </trkpt>
      <trkpt lat="48.06078" lon="7.11023">
        <ele>586.8</ele>
        <time>2025-09-08T06:26:00Z</time>
      </trkpt>
      <trkpt lat="48.06078" lon="7.11028">
        <ele>587</ele>
        <time>2025-09-08T06:26:01Z</time>
      </trkpt>
      <trkpt lat="48.06077" lon="7.11031">
        <ele>587.2</ele>
        <time>2025-09-08T06:26:02Z</time>
      </trkpt>
      <trkpt lat="48.06077" lon="7.11036">
        <ele>587.4</ele>
        <time>2025-09-08T06:26:03Z</time>
      </trkpt>
      <trkpt lat="48.06078" lon="7.1104">
        <ele>587.6</ele>
        <time>2025-09-08T06:26:04Z</time>
      </trkpt>
      <trkpt lat="48.06078" lon="7.11044">
        <ele>587.8</ele>
        <time>2025-09-08T06:26:05Z</time>
      </trkpt>
      <trkpt lat="48.06079" lon="7.11048">
        <ele>587.8</ele>
        <time>2025-09-08T06:26:06Z</time>
      </trkpt>
      <trkpt lat="48.0608" lon="7.11052">
        <ele>588</ele>
        <time>2025-09-08T06:26:07Z</time>
      </trkpt>
      <trkpt lat="48.06081" lon="7.11055">
        <ele>588</ele>
        <time>2025-09-08T06:26:08Z</time>
      </trkpt>
      <trkpt lat="48.06082" lon="7.1106">
        <ele>588.2</ele>
        <time>2025-09-08T06:26:09Z</time>
      </trkpt>
      <trkpt lat="48.06082" lon="7.11064">
        <ele>588.4</ele>
        <time>2025-09-08T06:26:10Z</time>
      </trkpt>
      <trkpt lat="48.06083" lon="7.11068">
        <ele>588.4</ele>
        <time>2025-09-08T06:26:11Z</time>
      </trkpt>
      <trkpt lat="48.06084" lon="7.11072">
        <ele>588.6</ele>
        <time>2025-09-08T06:26:12Z</time>
      </trkpt>
      <trkpt lat="48.06085" lon="7.11076">
        <ele>588.8</ele>
        <time>2025-09-08T06:26:13Z</time>
      </trkpt>
      <trkpt lat="48.06087" lon="7.1108">
        <ele>588.8</ele>
        <time>2025-09-08T06:26:14Z</time>
      </trkpt>
      <trkpt lat="48.06088" lon="7.11084">
        <ele>589</ele>
        <time>2025-09-08T06:26:15Z</time>
      </trkpt>
      <trkpt lat="48.06089" lon="7.11088">
        <ele>589</ele>
        <time>2025-09-08T06:26:16Z</time>
      </trkpt>
      <trkpt lat="48.0609" lon="7.11091">
        <ele>589.2</ele>
        <time>2025-09-08T06:26:17Z</time>
      </trkpt>
      <trkpt lat="48.06091" lon="7.11095">
        <ele>589.2</ele>
        <time>2025-09-08T06:26:18Z</time>
      </trkpt>
      <trkpt lat="48.06092" lon="7.11099">
        <ele>589.4</ele>
        <time>2025-09-08T06:26:19Z</time>
      </trkpt>
      <trkpt lat="48.06093" lon="7.11103">
        <ele>589.4</ele>
        <time>2025-09-08T06:26:20Z</time>
      </trkpt>
      <trkpt lat="48.06094" lon="7.11107">
        <ele>589.6</ele>
        <time>2025-09-08T06:26:21Z</time>
      </trkpt>
      <trkpt lat="48.06095" lon="7.1111">
        <ele>589.6</ele>
        <time>2025-09-08T06:26:22Z</time>
      </trkpt>
      <trkpt lat="48.06096" lon="7.11114">
        <ele>589.8</ele>
        <time>2025-09-08T06:26:23Z</time>
      </trkpt>
      <trkpt lat="48.06097" lon="7.11117">
        <ele>590</ele>
        <time>2025-09-08T06:26:24Z</time>
      </trkpt>
      <trkpt lat="48.061" lon="7.11119">
        <ele>590.2</ele>
        <time>2025-09-08T06:26:25Z</time>
      </trkpt>
      <trkpt lat="48.06102" lon="7.11121">
        <ele>590.4</ele>
        <time>2025-09-08T06:26:26Z</time>
      </trkpt>
      <trkpt lat="48.06104" lon="7.11123">
        <ele>590.8</ele>
        <time>2025-09-08T06:26:27Z</time>
      </trkpt>
      <trkpt lat="48.06106" lon="7.11124">
        <ele>590.8</ele>
        <time>2025-09-08T06:26:28Z</time>
      </trkpt>
      <trkpt lat="48.06109" lon="7.11124">
        <ele>591.4</ele>
        <time>2025-09-08T06:26:29Z</time>
      </trkpt>
      <trkpt lat="48.06111" lon="7.11124">
        <ele>591.6</ele>
        <time>2025-09-08T06:26:30Z</time>
      </trkpt>
      <trkpt lat="48.06114" lon="7.11125">
        <ele>592</ele>
        <time>2025-09-08T06:26:31Z</time>
      </trkpt>
      <trkpt lat="48.06116" lon="7.11125">
        <ele>592.2</ele>
        <time>2025-09-08T06:26:32Z</time>
      </trkpt>
      <trkpt lat="48.06119" lon="7.11124">
        <ele>592.6</ele>
        <time>2025-09-08T06:26:33Z</time>
      </trkpt>
      <trkpt lat="48.06121" lon="7.11123">
        <ele>592.8</ele>
        <time>2025-09-08T06:26:34Z</time>
      </trkpt>
      <trkpt lat="48.06124" lon="7.11122">
        <ele>593.2</ele>
        <time>2025-09-08T06:26:35Z</time>
      </trkpt>
      <trkpt lat="48.06127" lon="7.11121">
        <ele>593.4</ele>
        <time>2025-09-08T06:26:36Z</time>
      </trkpt>
      <trkpt lat="48.0613" lon="7.11121">
        <ele>593.6</ele>
        <time>2025-09-08T06:26:37Z</time>
      </trkpt>
      <trkpt lat="48.06132" lon="7.11121">
        <ele>593.8</ele>
        <time>2025-09-08T06:26:38Z</time>
      </trkpt>
      <trkpt lat="48.06135" lon="7.11122">
        <ele>594</ele>
        <time>2025-09-08T06:26:39Z</time>
      </trkpt>
      <trkpt lat="48.06136" lon="7.11125">
        <ele>594.2</ele>
        <time>2025-09-08T06:26:40Z</time>
      </trkpt>
      <trkpt lat="48.06137" lon="7.11127">
        <ele>594.4</ele>
        <time>2025-09-08T06:26:41Z</time>
      </trkpt>
      <trkpt lat="48.06139" lon="7.1113">
        <ele>594.8</ele>
        <time>2025-09-08T06:26:42Z</time>
      </trkpt>
      <trkpt lat="48.0614" lon="7.11133">
        <ele>595</ele>
        <time>2025-09-08T06:26:43Z</time>
      </trkpt>
      <trkpt lat="48.06142" lon="7.11136">
        <ele>595.4</ele>
        <time>2025-09-08T06:26:44Z</time>
      </trkpt>
      <trkpt lat="48.06143" lon="7.11138">
        <ele>595.6</ele>
        <time>2025-09-08T06:26:45Z</time>
      </trkpt>
      <trkpt lat="48.06145" lon="7.1114">
        <ele>596</ele>
        <time>2025-09-08T06:26:46Z</time>
      </trkpt>
      <trkpt lat="48.06148" lon="7.11141">
        <ele>596.2</ele>
        <time>2025-09-08T06:26:47Z</time>
      </trkpt>
      <trkpt lat="48.0615" lon="7.11142">
        <ele>596.8</ele>
        <time>2025-09-08T06:26:48Z</time>
      </trkpt>
      <trkpt lat="48.06152" lon="7.11145">
        <ele>597.2</ele>
        <time>2025-09-08T06:26:49Z</time>
      </trkpt>
      <trkpt lat="48.06153" lon="7.11147">
        <ele>597.8</ele>
        <time>2025-09-08T06:26:50Z</time>
      </trkpt>
      <trkpt lat="48.06156" lon="7.11149">
        <ele>598.4</ele>
        <time>2025-09-08T06:26:51Z</time>
      </trkpt>
      <trkpt lat="48.06158" lon="7.11151">
        <ele>598.8</ele>
        <time>2025-09-08T06:26:52Z</time>
      </trkpt>
      <trkpt lat="48.0616" lon="7.11152">
        <ele>599.2</ele>
        <time>2025-09-08T06:26:53Z</time>
      </trkpt>
      <trkpt lat="48.06163" lon="7.11153">
        <ele>599.4</ele>
        <time>2025-09-08T06:26:54Z</time>
      </trkpt>
      <trkpt lat="48.06165" lon="7.11155">
        <ele>600</ele>
        <time>2025-09-08T06:26:55Z</time>
      </trkpt>
      <trkpt lat="48.06168" lon="7.11156">
        <ele>600.6</ele>
        <time>2025-09-08T06:26:56Z</time>
      </trkpt>
      <trkpt lat="48.06169" lon="7.11158">
        <ele>601</ele>
        <time>2025-09-08T06:26:57Z</time>
      </trkpt>
      <trkpt lat="48.06172" lon="7.1116">
        <ele>601.2</ele>
        <time>2025-09-08T06:26:58Z</time>
      </trkpt>
      <trkpt lat="48.06174" lon="7.11161">
        <ele>601.8</ele>
        <time>2025-09-08T06:26:59Z</time>
      </trkpt>
      <trkpt lat="48.06176" lon="7.11162">
        <ele>602.6</ele>
        <time>2025-09-08T06:27:00Z</time>
      </trkpt>
      <trkpt lat="48.06178" lon="7.11163">
        <ele>602.6</ele>
        <time>2025-09-08T06:27:01Z</time>
      </trkpt>
      <trkpt lat="48.0618" lon="7.11164">
        <ele>603</ele>
        <time>2025-09-08T06:27:02Z</time>
      </trkpt>
      <trkpt lat="48.06182" lon="7.11165">
        <ele>603.4</ele>
        <time>2025-09-08T06:27:03Z</time>
      </trkpt>
      <trkpt lat="48.06184" lon="7.11167">
        <ele>603.8</ele>
        <time>2025-09-08T06:27:04Z</time>
      </trkpt>
      <trkpt lat="48.06186" lon="7.11168">
        <ele>604.2</ele>
        <time>2025-09-08T06:27:05Z</time>
      </trkpt>
      <trkpt lat="48.06189" lon="7.11169">
        <ele>604.6</ele>
        <time>2025-09-08T06:27:06Z</time>
      </trkpt>
      <trkpt lat="48.06191" lon="7.11172">
        <ele>605</ele>
        <time>2025-09-08T06:27:07Z</time>
      </trkpt>
      <trkpt lat="48.06193" lon="7.11173">
        <ele>605.4</ele>
        <time>2025-09-08T06:27:08Z</time>
      </trkpt>
      <trkpt lat="48.06195" lon="7.11175">
        <ele>605.8</ele>
        <time>2025-09-08T06:27:09Z</time>
      </trkpt>
      <trkpt lat="48.06197" lon="7.11177">
        <ele>606.2</ele>
        <time>2025-09-08T06:27:10Z</time>
      </trkpt>
      <trkpt lat="48.06199" lon="7.11179">
        <ele>606.4</ele>
        <time>2025-09-08T06:27:11Z</time>
      </trkpt>
      <trkpt lat="48.06201" lon="7.11181">
        <ele>607</ele>
        <time>2025-09-08T06:27:12Z</time>
      </trkpt>
      <trkpt lat="48.06204" lon="7.11183">
        <ele>607.4</ele>
        <time>2025-09-08T06:27:13Z</time>
      </trkpt>
      <trkpt lat="48.06206" lon="7.11184">
        <ele>607.6</ele>
        <time>2025-09-08T06:27:14Z</time>
      </trkpt>
      <trkpt lat="48.06208" lon="7.11187">
        <ele>607.8</ele>
        <time>2025-09-08T06:27:15Z</time>
      </trkpt>
      <trkpt lat="48.0621" lon="7.11189">
        <ele>608.2</ele>
        <time>2025-09-08T06:27:16Z</time>
      </trkpt>
      <trkpt lat="48.06212" lon="7.11191">
        <ele>608.6</ele>
        <time>2025-09-08T06:27:17Z</time>
      </trkpt>
      <trkpt lat="48.06213" lon="7.11193">
        <ele>608.8</ele>
        <time>2025-09-08T06:27:18Z</time>
      </trkpt>
      <trkpt lat="48.06215" lon="7.11195">
        <ele>609</ele>
        <time>2025-09-08T06:27:19Z</time>
      </trkpt>
      <trkpt lat="48.06217" lon="7.11197">
        <ele>609.2</ele>
        <time>2025-09-08T06:27:20Z</time>
      </trkpt>
      <trkpt lat="48.06219" lon="7.11199">
        <ele>609.8</ele>
        <time>2025-09-08T06:27:21Z</time>
      </trkpt>
      <trkpt lat="48.06222" lon="7.11202">
        <ele>610</ele>
        <time>2025-09-08T06:27:22Z</time>
      </trkpt>
      <trkpt lat="48.06224" lon="7.11205">
        <ele>610.4</ele>
        <time>2025-09-08T06:27:23Z</time>
      </trkpt>
      <trkpt lat="48.06226" lon="7.11206">
        <ele>610.4</ele>
        <time>2025-09-08T06:27:24Z</time>
      </trkpt>
      <trkpt lat="48.06228" lon="7.11209">
        <ele>610.6</ele>
        <time>2025-09-08T06:27:25Z</time>
      </trkpt>
      <trkpt lat="48.0623" lon="7.11211">
        <ele>611.2</ele>
        <time>2025-09-08T06:27:26Z</time>
      </trkpt>
      <trkpt lat="48.06232" lon="7.11214">
        <ele>611.4</ele>
        <time>2025-09-08T06:27:27Z</time>
      </trkpt>
      <trkpt lat="48.06233" lon="7.11217">
        <ele>611.8</ele>
        <time>2025-09-08T06:27:28Z</time>
      </trkpt>
      <trkpt lat="48.06235" lon="7.11219">
        <ele>612.2</ele>
        <time>2025-09-08T06:27:29Z</time>
      </trkpt>
      <trkpt lat="48.06237" lon="7.11222">
        <ele>612.6</ele>
        <time>2025-09-08T06:27:30Z</time>
      </trkpt>
      <trkpt lat="48.06239" lon="7.11225">
        <ele>613</ele>
        <time>2025-09-08T06:27:31Z</time>
      </trkpt>
      <trkpt lat="48.06241" lon="7.11228">
        <ele>613</ele>
        <time>2025-09-08T06:27:32Z</time>
      </trkpt>
      <trkpt lat="48.06243" lon="7.1123">
        <ele>613.2</ele>
        <time>2025-09-08T06:27:33Z</time>
      </trkpt>
      <trkpt lat="48.06245" lon="7.11233">
        <ele>613.4</ele>
        <time>2025-09-08T06:27:34Z</time>
      </trkpt>
      <trkpt lat="48.06247" lon="7.11236">
        <ele>613.8</ele>
        <time>2025-09-08T06:27:35Z</time>
      </trkpt>
      <trkpt lat="48.06249" lon="7.11239">
        <ele>614</ele>
        <time>2025-09-08T06:27:36Z</time>
      </trkpt>
      <trkpt lat="48.06251" lon="7.11241">
        <ele>614</ele>
        <time>2025-09-08T06:27:37Z</time>
      </trkpt>
      <trkpt lat="48.06253" lon="7.11244">
        <ele>614.2</ele>
        <time>2025-09-08T06:27:38Z</time>
      </trkpt>
      <trkpt lat="48.06255" lon="7.11246">
        <ele>614.4</ele>
        <time>2025-09-08T06:27:39Z</time>
      </trkpt>
      <trkpt lat="48.06257" lon="7.11249">
        <ele>614.8</ele>
        <time>2025-09-08T06:27:40Z</time>
      </trkpt>
      <trkpt lat="48.06259" lon="7.11251">
        <ele>615</ele>
        <time>2025-09-08T06:27:41Z</time>
      </trkpt>
      <trkpt lat="48.06261" lon="7.11254">
        <ele>615.2</ele>
        <time>2025-09-08T06:27:42Z</time>
      </trkpt>
      <trkpt lat="48.06263" lon="7.11256">
        <ele>615.4</ele>
        <time>2025-09-08T06:27:43Z</time>
      </trkpt>
      <trkpt lat="48.06266" lon="7.11259">
        <ele>615.6</ele>
        <time>2025-09-08T06:27:44Z</time>
      </trkpt>
      <trkpt lat="48.06268" lon="7.11263">
        <ele>616</ele>
        <time>2025-09-08T06:27:45Z</time>
      </trkpt>
      <trkpt lat="48.0627" lon="7.11266">
        <ele>616.2</ele>
        <time>2025-09-08T06:27:46Z</time>
      </trkpt>
      <trkpt lat="48.06272" lon="7.1127">
        <ele>616.4</ele>
        <time>2025-09-08T06:27:47Z</time>
      </trkpt>
      <trkpt lat="48.06275" lon="7.11273">
        <ele>616.8</ele>
        <time>2025-09-08T06:27:48Z</time>
      </trkpt>
      <trkpt lat="48.06278" lon="7.11275">
        <ele>616.8</ele>
        <time>2025-09-08T06:27:49Z</time>
      </trkpt>
      <trkpt lat="48.0628" lon="7.11278">
        <ele>617</ele>
        <time>2025-09-08T06:27:50Z</time>
      </trkpt>
      <trkpt lat="48.06283" lon="7.11281">
        <ele>617</ele>
        <time>2025-09-08T06:27:51Z</time>
      </trkpt>
      <trkpt lat="48.06285" lon="7.11283">
        <ele>617.2</ele>
        <time>2025-09-08T06:27:52Z</time>
      </trkpt>
      <trkpt lat="48.06288" lon="7.11286">
        <ele>617.4</ele>
        <time>2025-09-08T06:27:53Z</time>
      </trkpt>
      <trkpt lat="48.0629" lon="7.11289">
        <ele>617.4</ele>
        <time>2025-09-08T06:27:54Z</time>
      </trkpt>
      <trkpt lat="48.06292" lon="7.11292">
        <ele>617.8</ele>
        <time>2025-09-08T06:27:55Z</time>
      </trkpt>
      <trkpt lat="48.06294" lon="7.11295">
        <ele>617.8</ele>
        <time>2025-09-08T06:27:56Z</time>
      </trkpt>
      <trkpt lat="48.06297" lon="7.11299">
        <ele>618</ele>
        <time>2025-09-08T06:27:57Z</time>
      </trkpt>
      <trkpt lat="48.063" lon="7.11303">
        <ele>618.2</ele>
        <time>2025-09-08T06:27:58Z</time>
      </trkpt>
      <trkpt lat="48.06302" lon="7.11307">
        <ele>618.2</ele>
        <time>2025-09-08T06:27:59Z</time>
      </trkpt>
      <trkpt lat="48.06305" lon="7.11312">
        <ele>618.4</ele>
        <time>2025-09-08T06:28:00Z</time>
      </trkpt>
      <trkpt lat="48.06308" lon="7.11316">
        <ele>618.4</ele>
        <time>2025-09-08T06:28:01Z</time>
      </trkpt>
      <trkpt lat="48.06311" lon="7.1132">
        <ele>618.6</ele>
        <time>2025-09-08T06:28:02Z</time>
      </trkpt>
      <trkpt lat="48.06314" lon="7.11325">
        <ele>618.6</ele>
        <time>2025-09-08T06:28:03Z</time>
      </trkpt>
      <trkpt lat="48.06317" lon="7.11328">
        <ele>618.8</ele>
        <time>2025-09-08T06:28:04Z</time>
      </trkpt>
      <trkpt lat="48.0632" lon="7.11333">
        <ele>618.8</ele>
        <time>2025-09-08T06:28:05Z</time>
      </trkpt>
      <trkpt lat="48.06323" lon="7.11336">
        <ele>618.8</ele>
        <time>2025-09-08T06:28:06Z</time>
      </trkpt>
      <trkpt lat="48.06326" lon="7.11339">
        <ele>619</ele>
        <time>2025-09-08T06:28:07Z</time>
      </trkpt>
      <trkpt lat="48.06329" lon="7.11342">
        <ele>619</ele>
        <time>2025-09-08T06:28:08Z</time>
      </trkpt>
      <trkpt lat="48.06332" lon="7.11346">
        <ele>619.2</ele>
        <time>2025-09-08T06:28:09Z</time>
      </trkpt>
      <trkpt lat="48.06335" lon="7.11349">
        <ele>619.2</ele>
        <time>2025-09-08T06:28:10Z</time>
      </trkpt>
      <trkpt lat="48.06338" lon="7.11351">
        <ele>619.2</ele>
        <time>2025-09-08T06:28:11Z</time>
      </trkpt>
      <trkpt lat="48.06341" lon="7.11354">
        <ele>619.4</ele>
        <time>2025-09-08T06:28:12Z</time>
      </trkpt>
      <trkpt lat="48.06344" lon="7.11358">
        <ele>619.6</ele>
        <time>2025-09-08T06:28:13Z</time>
      </trkpt>
      <trkpt lat="48.06347" lon="7.11361">
        <ele>619.8</ele>
        <time>2025-09-08T06:28:14Z</time>
      </trkpt>
      <trkpt lat="48.0635" lon="7.11364">
        <ele>619.8</ele>
        <time>2025-09-08T06:28:15Z</time>
      </trkpt>
      <trkpt lat="48.06354" lon="7.11368">
        <ele>619.8</ele>
        <time>2025-09-08T06:28:16Z</time>
      </trkpt>
      <trkpt lat="48.06358" lon="7.11373">
        <ele>619.8</ele>
        <time>2025-09-08T06:28:17Z</time>
      </trkpt>
      <trkpt lat="48.06362" lon="7.11377">
        <ele>619.8</ele>
        <time>2025-09-08T06:28:18Z</time>
      </trkpt>
      <trkpt lat="48.06367" lon="7.11381">
        <ele>619.6</ele>
        <time>2025-09-08T06:28:19Z</time>
      </trkpt>
      <trkpt lat="48.06371" lon="7.11384">
        <ele>619.6</ele>
        <time>2025-09-08T06:28:20Z</time>
      </trkpt>
      <trkpt lat="48.06376" lon="7.11386">
        <ele>619.2</ele>
        <time>2025-09-08T06:28:21Z</time>
      </trkpt>
      <trkpt lat="48.06381" lon="7.11389">
        <ele>619</ele>
        <time>2025-09-08T06:28:22Z</time>
      </trkpt>
      <trkpt lat="48.06387" lon="7.11392">
        <ele>618.8</ele>
        <time>2025-09-08T06:28:23Z</time>
      </trkpt>
      <trkpt lat="48.06392" lon="7.11395">
        <ele>618.6</ele>
        <time>2025-09-08T06:28:24Z</time>
      </trkpt>
      <trkpt lat="48.06397" lon="7.11397">
        <ele>618</ele>
        <time>2025-09-08T06:28:25Z</time>
      </trkpt>
      <trkpt lat="48.06402" lon="7.114">
        <ele>617.8</ele>
        <time>2025-09-08T06:28:26Z</time>
      </trkpt>
      <trkpt lat="48.06407" lon="7.11402">
        <ele>617.8</ele>
        <time>2025-09-08T06:28:27Z</time>
      </trkpt>
      <trkpt lat="48.06412" lon="7.11403">
        <ele>617.6</ele>
        <time>2025-09-08T06:28:28Z</time>
      </trkpt>
      <trkpt lat="48.06416" lon="7.11402">
        <ele>617.6</ele>
        <time>2025-09-08T06:28:29Z</time>
      </trkpt>
      <trkpt lat="48.0642" lon="7.11401">
        <ele>617.6</ele>
        <time>2025-09-08T06:28:30Z</time>
      </trkpt>
      <trkpt lat="48.06424" lon="7.11399">
        <ele>617.8</ele>
        <time>2025-09-08T06:28:31Z</time>
      </trkpt>
      <trkpt lat="48.06428" lon="7.11396">
        <ele>617.6</ele>
        <time>2025-09-08T06:28:32Z</time>
      </trkpt>
      <trkpt lat="48.06432" lon="7.11395">
        <ele>617.8</ele>
        <time>2025-09-08T06:28:33Z</time>
      </trkpt>
      <trkpt lat="48.06436" lon="7.11393">
        <ele>617.8</ele>
        <time>2025-09-08T06:28:34Z</time>
      </trkpt>
      <trkpt lat="48.0644" lon="7.11392">
        <ele>617.8</ele>
        <time>2025-09-08T06:28:35Z</time>
      </trkpt>
      <trkpt lat="48.06443" lon="7.1139">
        <ele>617.8</ele>
        <time>2025-09-08T06:28:36Z</time>
      </trkpt>
      <trkpt lat="48.06447" lon="7.11388">
        <ele>618</ele>
        <time>2025-09-08T06:28:37Z</time>
      </trkpt>
      <trkpt lat="48.06449" lon="7.11384">
        <ele>618</ele>
        <time>2025-09-08T06:28:38Z</time>
      </trkpt>
      <trkpt lat="48.06452" lon="7.11381">
        <ele>618.2</ele>
        <time>2025-09-08T06:28:39Z</time>
      </trkpt>
      <trkpt lat="48.06455" lon="7.11378">
        <ele>618.4</ele>
        <time>2025-09-08T06:28:40Z</time>
      </trkpt>
      <trkpt lat="48.06459" lon="7.11373">
        <ele>618.6</ele>
        <time>2025-09-08T06:28:41Z</time>
      </trkpt>
      <trkpt lat="48.06462" lon="7.11367">
        <ele>618.8</ele>
        <time>2025-09-08T06:28:42Z</time>
      </trkpt>
      <trkpt lat="48.06466" lon="7.11361">
        <ele>618.8</ele>
        <time>2025-09-08T06:28:43Z</time>
      </trkpt>
      <trkpt lat="48.06469" lon="7.11356">
        <ele>618.8</ele>
        <time>2025-09-08T06:28:44Z</time>
      </trkpt>
      <trkpt lat="48.06473" lon="7.11351">
        <ele>618.6</ele>
        <time>2025-09-08T06:28:45Z</time>
      </trkpt>
      <trkpt lat="48.06476" lon="7.11347">
        <ele>618.4</ele>
        <time>2025-09-08T06:28:46Z</time>
      </trkpt>
      <trkpt lat="48.0648" lon="7.11342">
        <ele>618.4</ele>
        <time>2025-09-08T06:28:47Z</time>
      </trkpt>
      <trkpt lat="48.06482" lon="7.11337">
        <ele>618.2</ele>
        <time>2025-09-08T06:28:48Z</time>
      </trkpt>
      <trkpt lat="48.06485" lon="7.11331">
        <ele>618.2</ele>
        <time>2025-09-08T06:28:49Z</time>
      </trkpt>
      <trkpt lat="48.06489" lon="7.11327">
        <ele>618.2</ele>
        <time>2025-09-08T06:28:50Z</time>
      </trkpt>
      <trkpt lat="48.06492" lon="7.11322">
        <ele>618</ele>
        <time>2025-09-08T06:28:51Z</time>
      </trkpt>
      <trkpt lat="48.06496" lon="7.11317">
        <ele>618</ele>
        <time>2025-09-08T06:28:52Z</time>
      </trkpt>
      <trkpt lat="48.065" lon="7.11312">
        <ele>618</ele>
        <time>2025-09-08T06:28:53Z</time>
      </trkpt>
      <trkpt lat="48.06505" lon="7.11307">
        <ele>617.8</ele>
        <time>2025-09-08T06:28:54Z</time>
      </trkpt>
      <trkpt lat="48.06508" lon="7.11301">
        <ele>617.8</ele>
        <time>2025-09-08T06:28:55Z</time>
      </trkpt>
      <trkpt lat="48.06512" lon="7.11296">
        <ele>617.6</ele>
        <time>2025-09-08T06:28:56Z</time>
      </trkpt>
      <trkpt lat="48.06516" lon="7.1129">
        <ele>617.4</ele>
        <time>2025-09-08T06:28:57Z</time>
      </trkpt>
      <trkpt lat="48.06519" lon="7.11283">
        <ele>617.4</ele>
        <time>2025-09-08T06:28:58Z</time>
      </trkpt>
      <trkpt lat="48.06521" lon="7.11277">
        <ele>617.2</ele>
        <time>2025-09-08T06:28:59Z</time>
      </trkpt>
      <trkpt lat="48.06522" lon="7.11269">
        <ele>617.2</ele>
        <time>2025-09-08T06:29:00Z</time>
      </trkpt>
      <trkpt lat="48.06522" lon="7.11262">
        <ele>617.2</ele>
        <time>2025-09-08T06:29:01Z</time>
      </trkpt>
      <trkpt lat="48.06522" lon="7.11255">
        <ele>617.2</ele>
        <time>2025-09-08T06:29:02Z</time>
      </trkpt>
      <trkpt lat="48.06521" lon="7.11248">
        <ele>617.2</ele>
        <time>2025-09-08T06:29:03Z</time>
      </trkpt>
      <trkpt lat="48.06519" lon="7.11241">
        <ele>617.4</ele>
        <time>2025-09-08T06:29:04Z</time>
      </trkpt>
      <trkpt lat="48.06518" lon="7.11235">
        <ele>617.4</ele>
        <time>2025-09-08T06:29:05Z</time>
      </trkpt>
      <trkpt lat="48.06517" lon="7.11229">
        <ele>617.6</ele>
        <time>2025-09-08T06:29:06Z</time>
      </trkpt>
      <trkpt lat="48.06515" lon="7.11223">
        <ele>617.6</ele>
        <time>2025-09-08T06:29:07Z</time>
      </trkpt>
      <trkpt lat="48.06513" lon="7.11217">
        <ele>617.8</ele>
        <time>2025-09-08T06:29:08Z</time>
      </trkpt>
      <trkpt lat="48.06512" lon="7.11212">
        <ele>618.4</ele>
        <time>2025-09-08T06:29:09Z</time>
      </trkpt>
      <trkpt lat="48.0651" lon="7.11206">
        <ele>618.6</ele>
        <time>2025-09-08T06:29:10Z</time>
      </trkpt>
      <trkpt lat="48.06508" lon="7.112">
        <ele>619</ele>
        <time>2025-09-08T06:29:11Z</time>
      </trkpt>
      <trkpt lat="48.06506" lon="7.11193">
        <ele>619</ele>
        <time>2025-09-08T06:29:12Z</time>
      </trkpt>
      <trkpt lat="48.06504" lon="7.11187">
        <ele>619.2</ele>
        <time>2025-09-08T06:29:13Z</time>
      </trkpt>
      <trkpt lat="48.06503" lon="7.1118">
        <ele>619.2</ele>
        <time>2025-09-08T06:29:14Z</time>
      </trkpt>
      <trkpt lat="48.06501" lon="7.11173">
        <ele>619.2</ele>
        <time>2025-09-08T06:29:15Z</time>
      </trkpt>
      <trkpt lat="48.065" lon="7.11166">
        <ele>619.2</ele>
        <time>2025-09-08T06:29:16Z</time>
      </trkpt>
      <trkpt lat="48.06499" lon="7.11157">
        <ele>619.2</ele>
        <time>2025-09-08T06:29:17Z</time>
      </trkpt>
      <trkpt lat="48.06498" lon="7.11149">
        <ele>619</ele>
        <time>2025-09-08T06:29:18Z</time>
      </trkpt>
      <trkpt lat="48.06497" lon="7.11144">
        <ele>619</ele>
        <time>2025-09-08T06:29:19Z</time>
      </trkpt>
      <trkpt lat="48.06496" lon="7.1114">
        <ele>619</ele>
        <time>2025-09-08T06:29:20Z</time>
      </trkpt>
      <trkpt lat="48.06495" lon="7.11136">
        <ele>618.8</ele>
        <time>2025-09-08T06:29:21Z</time>
      </trkpt>
      <trkpt lat="48.06494" lon="7.11132">
        <ele>618.8</ele>
        <time>2025-09-08T06:29:22Z</time>
      </trkpt>
      <trkpt lat="48.06493" lon="7.11127">
        <ele>618.8</ele>
        <time>2025-09-08T06:29:23Z</time>
      </trkpt>
      <trkpt lat="48.06492" lon="7.11122">
        <ele>618.8</ele>
        <time>2025-09-08T06:29:24Z</time>
      </trkpt>
      <trkpt lat="48.06492" lon="7.11116">
        <ele>618.6</ele>
        <time>2025-09-08T06:29:25Z</time>
      </trkpt>
      <trkpt lat="48.06491" lon="7.11112">
        <ele>618.6</ele>
        <time>2025-09-08T06:29:26Z</time>
      </trkpt>
      <trkpt lat="48.0649" lon="7.11107">
        <ele>618.4</ele>
        <time>2025-09-08T06:29:27Z</time>
      </trkpt>
      <trkpt lat="48.0649" lon="7.11101">
        <ele>618.4</ele>
        <time>2025-09-08T06:29:28Z</time>
      </trkpt>
      <trkpt lat="48.0649" lon="7.11094">
        <ele>618.4</ele>
        <time>2025-09-08T06:29:29Z</time>
      </trkpt>
      <trkpt lat="48.0649" lon="7.1109">
        <ele>618.4</ele>
        <time>2025-09-08T06:29:30Z</time>
      </trkpt>
      <trkpt lat="48.0649" lon="7.11085">
        <ele>618.4</ele>
        <time>2025-09-08T06:29:31Z</time>
      </trkpt>
      <trkpt lat="48.0649" lon="7.1108">
        <ele>618.4</ele>
        <time>2025-09-08T06:29:32Z</time>
      </trkpt>
      <trkpt lat="48.0649" lon="7.11076">
        <ele>618.4</ele>
        <time>2025-09-08T06:29:33Z</time>
      </trkpt>
      <trkpt lat="48.0649" lon="7.11073">
        <ele>618.8</ele>
        <time>2025-09-08T06:29:34Z</time>
      </trkpt>
      <trkpt lat="48.06491" lon="7.11069">
        <ele>618.8</ele>
        <time>2025-09-08T06:29:35Z</time>
      </trkpt>
      <trkpt lat="48.06492" lon="7.11065">
        <ele>619.2</ele>
        <time>2025-09-08T06:29:36Z</time>
      </trkpt>
      <trkpt lat="48.06493" lon="7.11061">
        <ele>619.4</ele>
        <time>2025-09-08T06:29:37Z</time>
      </trkpt>
      <trkpt lat="48.06494" lon="7.11057">
        <ele>619.8</ele>
        <time>2025-09-08T06:29:38Z</time>
      </trkpt>
      <trkpt lat="48.06497" lon="7.11055">
        <ele>620.2</ele>
        <time>2025-09-08T06:29:39Z</time>
      </trkpt>
      <trkpt lat="48.065" lon="7.11054">
        <ele>620.4</ele>
        <time>2025-09-08T06:29:40Z</time>
      </trkpt>
      <trkpt lat="48.06502" lon="7.11053">
        <ele>620.8</ele>
        <time>2025-09-08T06:29:41Z</time>
      </trkpt>
      <trkpt lat="48.06505" lon="7.11051">
        <ele>621.2</ele>
        <time>2025-09-08T06:29:42Z</time>
      </trkpt>
      <trkpt lat="48.06508" lon="7.1105">
        <ele>621.4</ele>
        <time>2025-09-08T06:29:43Z</time>
      </trkpt>
      <trkpt lat="48.0651" lon="7.11048">
        <ele>621.8</ele>
        <time>2025-09-08T06:29:44Z</time>
      </trkpt>
      <trkpt lat="48.06513" lon="7.11047">
        <ele>622</ele>
        <time>2025-09-08T06:29:45Z</time>
      </trkpt>
      <trkpt lat="48.06516" lon="7.11046">
        <ele>622.4</ele>
        <time>2025-09-08T06:29:46Z</time>
      </trkpt>
      <trkpt lat="48.06519" lon="7.11045">
        <ele>622.8</ele>
        <time>2025-09-08T06:29:47Z</time>
      </trkpt>
      <trkpt lat="48.06522" lon="7.11045">
        <ele>623</ele>
        <time>2025-09-08T06:29:48Z</time>
      </trkpt>
      <trkpt lat="48.06525" lon="7.11045">
        <ele>623.4</ele>
        <time>2025-09-08T06:29:49Z</time>
      </trkpt>
      <trkpt lat="48.06527" lon="7.11045">
        <ele>623.8</ele>
        <time>2025-09-08T06:29:50Z</time>
      </trkpt>
      <trkpt lat="48.0653" lon="7.11046">
        <ele>624</ele>
        <time>2025-09-08T06:29:51Z</time>
      </trkpt>
      <trkpt lat="48.06534" lon="7.11046">
        <ele>624.2</ele>
        <time>2025-09-08T06:29:52Z</time>
      </trkpt>
      <trkpt lat="48.06537" lon="7.11047">
        <ele>624.6</ele>
        <time>2025-09-08T06:29:53Z</time>
      </trkpt>
      <trkpt lat="48.0654" lon="7.11048">
        <ele>624.8</ele>
        <time>2025-09-08T06:29:54Z</time>
      </trkpt>
      <trkpt lat="48.06543" lon="7.11049">
        <ele>625.2</ele>
        <time>2025-09-08T06:29:55Z</time>
      </trkpt>
      <trkpt lat="48.06545" lon="7.1105">
        <ele>625.6</ele>
        <time>2025-09-08T06:29:56Z</time>
      </trkpt>
      <trkpt lat="48.06548" lon="7.11051">
        <ele>625.8</ele>
        <time>2025-09-08T06:29:57Z</time>
      </trkpt>
      <trkpt lat="48.06551" lon="7.11052">
        <ele>626.2</ele>
        <time>2025-09-08T06:29:58Z</time>
      </trkpt>
      <trkpt lat="48.06554" lon="7.11053">
        <ele>626.4</ele>
        <time>2025-09-08T06:29:59Z</time>
      </trkpt>
      <trkpt lat="48.06557" lon="7.11054">
        <ele>626.8</ele>
        <time>2025-09-08T06:30:00Z</time>
      </trkpt>
      <trkpt lat="48.0656" lon="7.11055">
        <ele>627</ele>
        <time>2025-09-08T06:30:01Z</time>
      </trkpt>
      <trkpt lat="48.06562" lon="7.11055">
        <ele>627.2</ele>
        <time>2025-09-08T06:30:02Z</time>
      </trkpt>
      <trkpt lat="48.06565" lon="7.11055">
        <ele>627.6</ele>
        <time>2025-09-08T06:30:03Z</time>
      </trkpt>
      <trkpt lat="48.06568" lon="7.11055">
        <ele>628</ele>
        <time>2025-09-08T06:30:04Z</time>
      </trkpt>
      <trkpt lat="48.06571" lon="7.11055">
        <ele>628.2</ele>
        <time>2025-09-08T06:30:05Z</time>
      </trkpt>
      <trkpt lat="48.06574" lon="7.11054">
        <ele>628.6</ele>
        <time>2025-09-08T06:30:06Z</time>
      </trkpt>
      <trkpt lat="48.06577" lon="7.11053">
        <ele>628.8</ele>
        <time>2025-09-08T06:30:07Z</time>
      </trkpt>
      <trkpt lat="48.0658" lon="7.11053">
        <ele>629.2</ele>
        <time>2025-09-08T06:30:08Z</time>
      </trkpt>
      <trkpt lat="48.06583" lon="7.11052">
        <ele>629.6</ele>
        <time>2025-09-08T06:30:09Z</time>
      </trkpt>
      <trkpt lat="48.06585" lon="7.11052">
        <ele>630</ele>
        <time>2025-09-08T06:30:10Z</time>
      </trkpt>
      <trkpt lat="48.06588" lon="7.11051">
        <ele>630.4</ele>
        <time>2025-09-08T06:30:11Z</time>
      </trkpt>
      <trkpt lat="48.06591" lon="7.1105">
        <ele>630.6</ele>
        <time>2025-09-08T06:30:12Z</time>
      </trkpt>
      <trkpt lat="48.06593" lon="7.1105">
        <ele>630.8</ele>
        <time>2025-09-08T06:30:13Z</time>
      </trkpt>
      <trkpt lat="48.06596" lon="7.11049">
        <ele>631.2</ele>
        <time>2025-09-08T06:30:14Z</time>
      </trkpt>
      <trkpt lat="48.06599" lon="7.11049">
        <ele>631.4</ele>
        <time>2025-09-08T06:30:15Z</time>
      </trkpt>
      <trkpt lat="48.06602" lon="7.11048">
        <ele>631.8</ele>
        <time>2025-09-08T06:30:16Z</time>
      </trkpt>
      <trkpt lat="48.06605" lon="7.11048">
        <ele>632</ele>
        <time>2025-09-08T06:30:17Z</time>
      </trkpt>
      <trkpt lat="48.06608" lon="7.11048">
        <ele>632.2</ele>
        <time>2025-09-08T06:30:18Z</time>
      </trkpt>
      <trkpt lat="48.06611" lon="7.11047">
        <ele>632.6</ele>
        <time>2025-09-08T06:30:19Z</time>
      </trkpt>
      <trkpt lat="48.06614" lon="7.11047">
        <ele>633</ele>
        <time>2025-09-08T06:30:20Z</time>
      </trkpt>
      <trkpt lat="48.06617" lon="7.11047">
        <ele>633.2</ele>
        <time>2025-09-08T06:30:21Z</time>
      </trkpt>
      <trkpt lat="48.0662" lon="7.11047">
        <ele>633.6</ele>
        <time>2025-09-08T06:30:22Z</time>
      </trkpt>
      <trkpt lat="48.06623" lon="7.11048">
        <ele>634</ele>
        <time>2025-09-08T06:30:23Z</time>
      </trkpt>
      <trkpt lat="48.06626" lon="7.11049">
        <ele>634.2</ele>
        <time>2025-09-08T06:30:24Z</time>
      </trkpt>
      <trkpt lat="48.06629" lon="7.11049">
        <ele>634.4</ele>
        <time>2025-09-08T06:30:25Z</time>
      </trkpt>
      <trkpt lat="48.06631" lon="7.1105">
        <ele>634.6</ele>
        <time>2025-09-08T06:30:26Z</time>
      </trkpt>
      <trkpt lat="48.06634" lon="7.11051">
        <ele>635</ele>
        <time>2025-09-08T06:30:27Z</time>
      </trkpt>
      <trkpt lat="48.06637" lon="7.11052">
        <ele>635.4</ele>
        <time>2025-09-08T06:30:28Z</time>
      </trkpt>
      <trkpt lat="48.0664" lon="7.11054">
        <ele>635.6</ele>
        <time>2025-09-08T06:30:29Z</time>
      </trkpt>
      <trkpt lat="48.06643" lon="7.11055">
        <ele>636</ele>
        <time>2025-09-08T06:30:30Z</time>
      </trkpt>
      <trkpt lat="48.06645" lon="7.11057">
        <ele>636.4</ele>
        <time>2025-09-08T06:30:31Z</time>
      </trkpt>
      <trkpt lat="48.06648" lon="7.11059">
        <ele>636.6</ele>
        <time>2025-09-08T06:30:32Z</time>
      </trkpt>
      <trkpt lat="48.0665" lon="7.11062">
        <ele>637</ele>
        <time>2025-09-08T06:30:33Z</time>
      </trkpt>
      <trkpt lat="48.06652" lon="7.11065">
        <ele>637.2</ele>
        <time>2025-09-08T06:30:34Z</time>
      </trkpt>
      <trkpt lat="48.06654" lon="7.11068">
        <ele>637.6</ele>
        <time>2025-09-08T06:30:35Z</time>
      </trkpt>
      <trkpt lat="48.06656" lon="7.11071">
        <ele>638</ele>
        <time>2025-09-08T06:30:36Z</time>
      </trkpt>
      <trkpt lat="48.06657" lon="7.11075">
        <ele>638.4</ele>
        <time>2025-09-08T06:30:37Z</time>
      </trkpt>
      <trkpt lat="48.06659" lon="7.11079">
        <ele>638.8</ele>
        <time>2025-09-08T06:30:38Z</time>
      </trkpt>
      <trkpt lat="48.0666" lon="7.11082">
        <ele>639</ele>
        <time>2025-09-08T06:30:39Z</time>
      </trkpt>
      <trkpt lat="48.06662" lon="7.11086">
        <ele>639.2</ele>
        <time>2025-09-08T06:30:40Z</time>
      </trkpt>
      <trkpt lat="48.06663" lon="7.11089">
        <ele>639.6</ele>
        <time>2025-09-08T06:30:41Z</time>
      </trkpt>
      <trkpt lat="48.06665" lon="7.11093">
        <ele>640</ele>
        <time>2025-09-08T06:30:42Z</time>
      </trkpt>
      <trkpt lat="48.06666" lon="7.11097">
        <ele>640.4</ele>
        <time>2025-09-08T06:30:43Z</time>
      </trkpt>
      <trkpt lat="48.06668" lon="7.111">
        <ele>640.6</ele>
        <time>2025-09-08T06:30:44Z</time>
      </trkpt>
      <trkpt lat="48.06669" lon="7.11104">
        <ele>641</ele>
        <time>2025-09-08T06:30:45Z</time>
      </trkpt>
      <trkpt lat="48.0667" lon="7.11108">
        <ele>641.4</ele>
        <time>2025-09-08T06:30:46Z</time>
      </trkpt>
      <trkpt lat="48.06671" lon="7.11112">
        <ele>641.6</ele>
        <time>2025-09-08T06:30:47Z</time>
      </trkpt>
      <trkpt lat="48.06672" lon="7.11116">
        <ele>642</ele>
        <time>2025-09-08T06:30:48Z</time>
      </trkpt>
      <trkpt lat="48.06673" lon="7.1112">
        <ele>642.4</ele>
        <time>2025-09-08T06:30:49Z</time>
      </trkpt>
      <trkpt lat="48.06674" lon="7.11124">
        <ele>642.6</ele>
        <time>2025-09-08T06:30:50Z</time>
      </trkpt>
      <trkpt lat="48.06675" lon="7.11128">
        <ele>643</ele>
        <time>2025-09-08T06:30:51Z</time>
      </trkpt>
      <trkpt lat="48.06675" lon="7.11132">
        <ele>643.2</ele>
        <time>2025-09-08T06:30:52Z</time>
      </trkpt>
      <trkpt lat="48.06676" lon="7.11137">
        <ele>643.6</ele>
        <time>2025-09-08T06:30:53Z</time>
      </trkpt>
      <trkpt lat="48.06676" lon="7.11141">
        <ele>644</ele>
        <time>2025-09-08T06:30:54Z</time>
      </trkpt>
      <trkpt lat="48.06676" lon="7.11145">
        <ele>644.2</ele>
        <time>2025-09-08T06:30:55Z</time>
      </trkpt>
      <trkpt lat="48.06676" lon="7.1115">
        <ele>644.6</ele>
        <time>2025-09-08T06:30:56Z</time>
      </trkpt>
      <trkpt lat="48.06676" lon="7.11154">
        <ele>644.8</ele>
        <time>2025-09-08T06:30:57Z</time>
      </trkpt>
      <trkpt lat="48.06676" lon="7.11159">
        <ele>645</ele>
        <time>2025-09-08T06:30:58Z</time>
      </trkpt>
      <trkpt lat="48.06676" lon="7.11163">
        <ele>645.2</ele>
        <time>2025-09-08T06:30:59Z</time>
      </trkpt>
      <trkpt lat="48.06676" lon="7.11168">
        <ele>645.4</ele>
        <time>2025-09-08T06:31:00Z</time>
      </trkpt>
      <trkpt lat="48.06676" lon="7.11172">
        <ele>645.6</ele>
        <time>2025-09-08T06:31:01Z</time>
      </trkpt>
      <trkpt lat="48.06675" lon="7.11177">
        <ele>645.8</ele>
        <time>2025-09-08T06:31:02Z</time>
      </trkpt>
      <trkpt lat="48.06675" lon="7.11182">
        <ele>646</ele>
        <time>2025-09-08T06:31:03Z</time>
      </trkpt>
      <trkpt lat="48.06675" lon="7.11186">
        <ele>646.2</ele>
        <time>2025-09-08T06:31:04Z</time>
      </trkpt>
      <trkpt lat="48.06675" lon="7.11191">
        <ele>646.4</ele>
        <time>2025-09-08T06:31:05Z</time>
      </trkpt>
      <trkpt lat="48.06674" lon="7.11195">
        <ele>646.4</ele>
        <time>2025-09-08T06:31:06Z</time>
      </trkpt>
      <trkpt lat="48.06674" lon="7.112">
        <ele>646.6</ele>
        <time>2025-09-08T06:31:07Z</time>
      </trkpt>
      <trkpt lat="48.06673" lon="7.11204">
        <ele>646.8</ele>
        <time>2025-09-08T06:31:08Z</time>
      </trkpt>
      <trkpt lat="48.06672" lon="7.11209">
        <ele>647</ele>
        <time>2025-09-08T06:31:09Z</time>
      </trkpt>
      <trkpt lat="48.06671" lon="7.11214">
        <ele>647</ele>
        <time>2025-09-08T06:31:10Z</time>
      </trkpt>
      <trkpt lat="48.0667" lon="7.11218">
        <ele>647.2</ele>
        <time>2025-09-08T06:31:11Z</time>
      </trkpt>
      <trkpt lat="48.06669" lon="7.11223">
        <ele>647.6</ele>
        <time>2025-09-08T06:31:12Z</time>
      </trkpt>
      <trkpt lat="48.06668" lon="7.11228">
        <ele>647.8</ele>
        <time>2025-09-08T06:31:13Z</time>
      </trkpt>
      <trkpt lat="48.06667" lon="7.11232">
        <ele>648</ele>
        <time>2025-09-08T06:31:14Z</time>
      </trkpt>
      <trkpt lat="48.06666" lon="7.11237">
        <ele>648.2</ele>
        <time>2025-09-08T06:31:15Z</time>
      </trkpt>
      <trkpt lat="48.06665" lon="7.11241">
        <ele>648.4</ele>
        <time>2025-09-08T06:31:16Z</time>
      </trkpt>
      <trkpt lat="48.06664" lon="7.11246">
        <ele>648.6</ele>
        <time>2025-09-08T06:31:17Z</time>
      </trkpt>
      <trkpt lat="48.06663" lon="7.1125">
        <ele>648.8</ele>
        <time>2025-09-08T06:31:18Z</time>
      </trkpt>
      <trkpt lat="48.06662" lon="7.11254">
        <ele>649</ele>
        <time>2025-09-08T06:31:19Z</time>
      </trkpt>
      <trkpt lat="48.06661" lon="7.11259">
        <ele>649.2</ele>
        <time>2025-09-08T06:31:20Z</time>
      </trkpt>
      <trkpt lat="48.0666" lon="7.11263">
        <ele>649.4</ele>
        <time>2025-09-08T06:31:21Z</time>
      </trkpt>
      <trkpt lat="48.06659" lon="7.11268">
        <ele>649.8</ele>
        <time>2025-09-08T06:31:22Z</time>
      </trkpt>
      <trkpt lat="48.06658" lon="7.11272">
        <ele>650</ele>
        <time>2025-09-08T06:31:23Z</time>
      </trkpt>
      <trkpt lat="48.06658" lon="7.11277">
        <ele>650.2</ele>
        <time>2025-09-08T06:31:24Z</time>
      </trkpt>
      <trkpt lat="48.06657" lon="7.11281">
        <ele>650.2</ele>
        <time>2025-09-08T06:31:25Z</time>
      </trkpt>
      <trkpt lat="48.06656" lon="7.11286">
        <ele>650.6</ele>
        <time>2025-09-08T06:31:26Z</time>
      </trkpt>
      <trkpt lat="48.06655" lon="7.11291">
        <ele>650.8</ele>
        <time>2025-09-08T06:31:27Z</time>
      </trkpt>
      <trkpt lat="48.06654" lon="7.11295">
        <ele>651</ele>
        <time>2025-09-08T06:31:28Z</time>
      </trkpt>
      <trkpt lat="48.06653" lon="7.113">
        <ele>651.2</ele>
        <time>2025-09-08T06:31:29Z</time>
      </trkpt>
      <trkpt lat="48.06651" lon="7.11304">
        <ele>651.4</ele>
        <time>2025-09-08T06:31:30Z</time>
      </trkpt>
      <trkpt lat="48.0665" lon="7.11308">
        <ele>651.6</ele>
        <time>2025-09-08T06:31:31Z</time>
      </trkpt>
      <trkpt lat="48.06648" lon="7.11313">
        <ele>651.8</ele>
        <time>2025-09-08T06:31:32Z</time>
      </trkpt>
      <trkpt lat="48.06646" lon="7.11317">
        <ele>652</ele>
        <time>2025-09-08T06:31:33Z</time>
      </trkpt>
      <trkpt lat="48.06644" lon="7.11321">
        <ele>652.2</ele>
        <time>2025-09-08T06:31:34Z</time>
      </trkpt>
      <trkpt lat="48.06642" lon="7.11326">
        <ele>652.4</ele>
        <time>2025-09-08T06:31:35Z</time>
      </trkpt>
      <trkpt lat="48.06639" lon="7.1133">
        <ele>652.4</ele>
        <time>2025-09-08T06:31:36Z</time>
      </trkpt>
      <trkpt lat="48.06637" lon="7.11334">
        <ele>652.6</ele>
        <time>2025-09-08T06:31:37Z</time>
      </trkpt>
      <trkpt lat="48.06635" lon="7.11338">
        <ele>652.6</ele>
        <time>2025-09-08T06:31:38Z</time>
      </trkpt>
      <trkpt lat="48.06633" lon="7.11342">
        <ele>652.8</ele>
        <time>2025-09-08T06:31:39Z</time>
      </trkpt>
      <trkpt lat="48.06631" lon="7.11347">
        <ele>653</ele>
        <time>2025-09-08T06:31:40Z</time>
      </trkpt>
      <trkpt lat="48.06629" lon="7.11352">
        <ele>653</ele>
        <time>2025-09-08T06:31:41Z</time>
      </trkpt>
      <trkpt lat="48.06627" lon="7.11357">
        <ele>653.2</ele>
        <time>2025-09-08T06:31:42Z</time>
      </trkpt>
      <trkpt lat="48.06626" lon="7.11361">
        <ele>653.4</ele>
        <time>2025-09-08T06:31:43Z</time>
      </trkpt>
      <trkpt lat="48.06625" lon="7.11366">
        <ele>653.4</ele>
        <time>2025-09-08T06:31:44Z</time>
      </trkpt>
      <trkpt lat="48.06624" lon="7.11371">
        <ele>653.6</ele>
        <time>2025-09-08T06:31:45Z</time>
      </trkpt>
      <trkpt lat="48.06623" lon="7.11376">
        <ele>653.6</ele>
        <time>2025-09-08T06:31:46Z</time>
      </trkpt>
      <trkpt lat="48.06622" lon="7.11381">
        <ele>653.8</ele>
        <time>2025-09-08T06:31:47Z</time>
      </trkpt>
      <trkpt lat="48.06621" lon="7.11386">
        <ele>653.8</ele>
        <time>2025-09-08T06:31:48Z</time>
      </trkpt>
      <trkpt lat="48.0662" lon="7.11391">
        <ele>654</ele>
        <time>2025-09-08T06:31:49Z</time>
      </trkpt>
      <trkpt lat="48.0662" lon="7.11396">
        <ele>654</ele>
        <time>2025-09-08T06:31:50Z</time>
      </trkpt>
      <trkpt lat="48.06618" lon="7.114">
        <ele>654</ele>
        <time>2025-09-08T06:31:51Z</time>
      </trkpt>
      <trkpt lat="48.06617" lon="7.11405">
        <ele>654.4</ele>
        <time>2025-09-08T06:31:52Z</time>
      </trkpt>
      <trkpt lat="48.06616" lon="7.11409">
        <ele>654.4</ele>
        <time>2025-09-08T06:31:53Z</time>
      </trkpt>
      <trkpt lat="48.06616" lon="7.11413">
        <ele>654.8</ele>
        <time>2025-09-08T06:31:54Z</time>
      </trkpt>
      <trkpt lat="48.06614" lon="7.11418">
        <ele>654.8</ele>
        <time>2025-09-08T06:31:55Z</time>
      </trkpt>
      <trkpt lat="48.06614" lon="7.11422">
        <ele>655</ele>
        <time>2025-09-08T06:31:56Z</time>
      </trkpt>
      <trkpt lat="48.06613" lon="7.11427">
        <ele>655.2</ele>
        <time>2025-09-08T06:31:57Z</time>
      </trkpt>
      <trkpt lat="48.06612" lon="7.11431">
        <ele>655.4</ele>
        <time>2025-09-08T06:31:58Z</time>
      </trkpt>
      <trkpt lat="48.06611" lon="7.11435">
        <ele>655.6</ele>
        <time>2025-09-08T06:31:59Z</time>
      </trkpt>
      <trkpt lat="48.0661" lon="7.1144">
        <ele>655.8</ele>
        <time>2025-09-08T06:32:00Z</time>
      </trkpt>
      <trkpt lat="48.0661" lon="7.11444">
        <ele>656.4</ele>
        <time>2025-09-08T06:32:01Z</time>
      </trkpt>
      <trkpt lat="48.06609" lon="7.11448">
        <ele>656.6</ele>
        <time>2025-09-08T06:32:02Z</time>
      </trkpt>
      <trkpt lat="48.06608" lon="7.11452">
        <ele>657</ele>
        <time>2025-09-08T06:32:03Z</time>
      </trkpt>
      <trkpt lat="48.06607" lon="7.11456">
        <ele>657.4</ele>
        <time>2025-09-08T06:32:04Z</time>
      </trkpt>
      <trkpt lat="48.06607" lon="7.11461">
        <ele>657.8</ele>
        <time>2025-09-08T06:32:05Z</time>
      </trkpt>
      <trkpt lat="48.06607" lon="7.11465">
        <ele>658</ele>
        <time>2025-09-08T06:32:06Z</time>
      </trkpt>
      <trkpt lat="48.06606" lon="7.1147">
        <ele>658.4</ele>
        <time>2025-09-08T06:32:07Z</time>
      </trkpt>
      <trkpt lat="48.06606" lon="7.11474">
        <ele>658.8</ele>
        <time>2025-09-08T06:32:08Z</time>
      </trkpt>
      <trkpt lat="48.06605" lon="7.11478">
        <ele>659.2</ele>
        <time>2025-09-08T06:32:09Z</time>
      </trkpt>
      <trkpt lat="48.06605" lon="7.11483">
        <ele>659.6</ele>
        <time>2025-09-08T06:32:10Z</time>
      </trkpt>
      <trkpt lat="48.06604" lon="7.11487">
        <ele>660</ele>
        <time>2025-09-08T06:32:11Z</time>
      </trkpt>
      <trkpt lat="48.06603" lon="7.11491">
        <ele>660.4</ele>
        <time>2025-09-08T06:32:12Z</time>
      </trkpt>
      <trkpt lat="48.06603" lon="7.11496">
        <ele>660.8</ele>
        <time>2025-09-08T06:32:13Z</time>
      </trkpt>
      <trkpt lat="48.06602" lon="7.115">
        <ele>661.2</ele>
        <time>2025-09-08T06:32:14Z</time>
      </trkpt>
      <trkpt lat="48.06601" lon="7.11504">
        <ele>661.4</ele>
        <time>2025-09-08T06:32:15Z</time>
      </trkpt>
      <trkpt lat="48.066" lon="7.11508">
        <ele>661.6</ele>
        <time>2025-09-08T06:32:16Z</time>
      </trkpt>
      <trkpt lat="48.06598" lon="7.11512">
        <ele>661.8</ele>
        <time>2025-09-08T06:32:17Z</time>
      </trkpt>
      <trkpt lat="48.06597" lon="7.11516">
        <ele>662.2</ele>
        <time>2025-09-08T06:32:18Z</time>
      </trkpt>
      <trkpt lat="48.06595" lon="7.11519">
        <ele>662.6</ele>
        <time>2025-09-08T06:32:19Z</time>
      </trkpt>
      <trkpt lat="48.06593" lon="7.11521">
        <ele>662.8</ele>
        <time>2025-09-08T06:32:20Z</time>
      </trkpt>
      <trkpt lat="48.0659" lon="7.11524">
        <ele>663.4</ele>
        <time>2025-09-08T06:32:21Z</time>
      </trkpt>
      <trkpt lat="48.06588" lon="7.11527">
        <ele>663.8</ele>
        <time>2025-09-08T06:32:22Z</time>
      </trkpt>
      <trkpt lat="48.06586" lon="7.1153">
        <ele>664.2</ele>
        <time>2025-09-08T06:32:23Z</time>
      </trkpt>
      <trkpt lat="48.06583" lon="7.11532">
        <ele>664.6</ele>
        <time>2025-09-08T06:32:24Z</time>
      </trkpt>
      <trkpt lat="48.06581" lon="7.11535">
        <ele>665</ele>
        <time>2025-09-08T06:32:25Z</time>
      </trkpt>
      <trkpt lat="48.06578" lon="7.11537">
        <ele>665.6</ele>
        <time>2025-09-08T06:32:26Z</time>
      </trkpt>
      <trkpt lat="48.06576" lon="7.1154">
        <ele>666</ele>
        <time>2025-09-08T06:32:27Z</time>
      </trkpt>
      <trkpt lat="48.06573" lon="7.11542">
        <ele>666.4</ele>
        <time>2025-09-08T06:32:28Z</time>
      </trkpt>
      <trkpt lat="48.0657" lon="7.11544">
        <ele>666.6</ele>
        <time>2025-09-08T06:32:29Z</time>
      </trkpt>
      <trkpt lat="48.06568" lon="7.11546">
        <ele>667.2</ele>
        <time>2025-09-08T06:32:30Z</time>
      </trkpt>
      <trkpt lat="48.06565" lon="7.11548">
        <ele>667.2</ele>
        <time>2025-09-08T06:32:31Z</time>
      </trkpt>
      <trkpt lat="48.06563" lon="7.1155">
        <ele>667.8</ele>
        <time>2025-09-08T06:32:32Z</time>
      </trkpt>
      <trkpt lat="48.0656" lon="7.11552">
        <ele>668</ele>
        <time>2025-09-08T06:32:33Z</time>
      </trkpt>
      <trkpt lat="48.06558" lon="7.11554">
        <ele>668.4</ele>
        <time>2025-09-08T06:32:34Z</time>
      </trkpt>
      <trkpt lat="48.06555" lon="7.11556">
        <ele>668.8</ele>
        <time>2025-09-08T06:32:35Z</time>
      </trkpt>
      <trkpt lat="48.06553" lon="7.11559">
        <ele>669</ele>
        <time>2025-09-08T06:32:36Z</time>
      </trkpt>
      <trkpt lat="48.06551" lon="7.11563">
        <ele>669.4</ele>
        <time>2025-09-08T06:32:37Z</time>
      </trkpt>
      <trkpt lat="48.0655" lon="7.11567">
        <ele>669.6</ele>
        <time>2025-09-08T06:32:38Z</time>
      </trkpt>
      <trkpt lat="48.0655" lon="7.11571">
        <ele>670</ele>
        <time>2025-09-08T06:32:39Z</time>
      </trkpt>
      <trkpt lat="48.0655" lon="7.11575">
        <ele>670.2</ele>
        <time>2025-09-08T06:32:40Z</time>
      </trkpt>
      <trkpt lat="48.06552" lon="7.11578">
        <ele>670.4</ele>
        <time>2025-09-08T06:32:41Z</time>
      </trkpt>
      <trkpt lat="48.06555" lon="7.1158">
        <ele>670.6</ele>
        <time>2025-09-08T06:32:42Z</time>
      </trkpt>
      <trkpt lat="48.06558" lon="7.11581">
        <ele>671</ele>
        <time>2025-09-08T06:32:43Z</time>
      </trkpt>
      <trkpt lat="48.06561" lon="7.11581">
        <ele>671.4</ele>
        <time>2025-09-08T06:32:44Z</time>
      </trkpt>
      <trkpt lat="48.06564" lon="7.1158">
        <ele>671.6</ele>
        <time>2025-09-08T06:32:45Z</time>
      </trkpt>
      <trkpt lat="48.06567" lon="7.11579">
        <ele>672</ele>
        <time>2025-09-08T06:32:46Z</time>
      </trkpt>
      <trkpt lat="48.06569" lon="7.11578">
        <ele>672.2</ele>
        <time>2025-09-08T06:32:47Z</time>
      </trkpt>
      <trkpt lat="48.06572" lon="7.11577">
        <ele>672.6</ele>
        <time>2025-09-08T06:32:48Z</time>
      </trkpt>
      <trkpt lat="48.06575" lon="7.11576">
        <ele>673</ele>
        <time>2025-09-08T06:32:49Z</time>
      </trkpt>
      <trkpt lat="48.06578" lon="7.11575">
        <ele>673.2</ele>
        <time>2025-09-08T06:32:50Z</time>
      </trkpt>
      <trkpt lat="48.06581" lon="7.11574">
        <ele>673.8</ele>
        <time>2025-09-08T06:32:51Z</time>
      </trkpt>
      <trkpt lat="48.06584" lon="7.11573">
        <ele>674</ele>
        <time>2025-09-08T06:32:52Z</time>
      </trkpt>
      <trkpt lat="48.06587" lon="7.11573">
        <ele>674.4</ele>
        <time>2025-09-08T06:32:53Z</time>
      </trkpt>
      <trkpt lat="48.0659" lon="7.11573">
        <ele>674.6</ele>
        <time>2025-09-08T06:32:54Z</time>
      </trkpt>
      <trkpt lat="48.06593" lon="7.11573">
        <ele>675</ele>
        <time>2025-09-08T06:32:55Z</time>
      </trkpt>
      <trkpt lat="48.06596" lon="7.11573">
        <ele>675.2</ele>
        <time>2025-09-08T06:32:56Z</time>
      </trkpt>
      <trkpt lat="48.06599" lon="7.11573">
        <ele>675.4</ele>
        <time>2025-09-08T06:32:57Z</time>
      </trkpt>
      <trkpt lat="48.06602" lon="7.11574">
        <ele>675.6</ele>
        <time>2025-09-08T06:32:58Z</time>
      </trkpt>
      <trkpt lat="48.06604" lon="7.11575">
        <ele>676</ele>
        <time>2025-09-08T06:32:59Z</time>
      </trkpt>
      <trkpt lat="48.06607" lon="7.11576">
        <ele>676.2</ele>
        <time>2025-09-08T06:33:00Z</time>
      </trkpt>
      <trkpt lat="48.0661" lon="7.11578">
        <ele>676.6</ele>
        <time>2025-09-08T06:33:01Z</time>
      </trkpt>
      <trkpt lat="48.06612" lon="7.11579">
        <ele>676.8</ele>
        <time>2025-09-08T06:33:02Z</time>
      </trkpt>
      <trkpt lat="48.06615" lon="7.11581">
        <ele>677</ele>
        <time>2025-09-08T06:33:03Z</time>
      </trkpt>
      <trkpt lat="48.06617" lon="7.11583">
        <ele>677.4</ele>
        <time>2025-09-08T06:33:04Z</time>
      </trkpt>
      <trkpt lat="48.0662" lon="7.11585">
        <ele>677.6</ele>
        <time>2025-09-08T06:33:05Z</time>
      </trkpt>
      <trkpt lat="48.06622" lon="7.11588">
        <ele>678</ele>
        <time>2025-09-08T06:33:06Z</time>
      </trkpt>
      <trkpt lat="48.06624" lon="7.11591">
        <ele>678.2</ele>
        <time>2025-09-08T06:33:07Z</time>
      </trkpt>
      <trkpt lat="48.06627" lon="7.11594">
        <ele>678.6</ele>
        <time>2025-09-08T06:33:08Z</time>
      </trkpt>
      <trkpt lat="48.06629" lon="7.11597">
        <ele>678.8</ele>
        <time>2025-09-08T06:33:09Z</time>
      </trkpt>
      <trkpt lat="48.0663" lon="7.116">
        <ele>679.2</ele>
        <time>2025-09-08T06:33:10Z</time>
      </trkpt>
      <trkpt lat="48.06632" lon="7.11604">
        <ele>679.4</ele>
        <time>2025-09-08T06:33:11Z</time>
      </trkpt>
      <trkpt lat="48.06634" lon="7.11607">
        <ele>679.6</ele>
        <time>2025-09-08T06:33:12Z</time>
      </trkpt>
      <trkpt lat="48.06636" lon="7.1161">
        <ele>680</ele>
        <time>2025-09-08T06:33:13Z</time>
      </trkpt>
      <trkpt lat="48.06638" lon="7.11614">
        <ele>680.4</ele>
        <time>2025-09-08T06:33:14Z</time>
      </trkpt>
      <trkpt lat="48.06639" lon="7.11618">
        <ele>680.8</ele>
        <time>2025-09-08T06:33:15Z</time>
      </trkpt>
      <trkpt lat="48.06641" lon="7.11622">
        <ele>681.2</ele>
        <time>2025-09-08T06:33:16Z</time>
      </trkpt>
      <trkpt lat="48.06642" lon="7.11625">
        <ele>681.6</ele>
        <time>2025-09-08T06:33:17Z</time>
      </trkpt>
      <trkpt lat="48.06644" lon="7.11629">
        <ele>681.8</ele>
        <time>2025-09-08T06:33:18Z</time>
      </trkpt>
      <trkpt lat="48.06645" lon="7.11632">
        <ele>682</ele>
        <time>2025-09-08T06:33:19Z</time>
      </trkpt>
      <trkpt lat="48.06646" lon="7.11637">
        <ele>682.4</ele>
        <time>2025-09-08T06:33:20Z</time>
      </trkpt>
      <trkpt lat="48.06648" lon="7.1164">
        <ele>682.8</ele>
        <time>2025-09-08T06:33:21Z</time>
      </trkpt>
      <trkpt lat="48.06649" lon="7.11644">
        <ele>683</ele>
        <time>2025-09-08T06:33:22Z</time>
      </trkpt>
      <trkpt lat="48.0665" lon="7.11648">
        <ele>683.4</ele>
        <time>2025-09-08T06:33:23Z</time>
      </trkpt>
      <trkpt lat="48.0665" lon="7.11652">
        <ele>683.6</ele>
        <time>2025-09-08T06:33:24Z</time>
      </trkpt>
      <trkpt lat="48.06651" lon="7.11656">
        <ele>683.8</ele>
        <time>2025-09-08T06:33:25Z</time>
      </trkpt>
      <trkpt lat="48.0665" lon="7.1166">
        <ele>684.2</ele>
        <time>2025-09-08T06:33:26Z</time>
      </trkpt>
      <trkpt lat="48.0665" lon="7.11664">
        <ele>684.4</ele>
        <time>2025-09-08T06:33:27Z</time>
      </trkpt>
      <trkpt lat="48.0665" lon="7.11668">
        <ele>684.6</ele>
        <time>2025-09-08T06:33:28Z</time>
      </trkpt>
      <trkpt lat="48.06649" lon="7.11672">
        <ele>685</ele>
        <time>2025-09-08T06:33:29Z</time>
      </trkpt>
      <trkpt lat="48.06649" lon="7.11676">
        <ele>685.2</ele>
        <time>2025-09-08T06:33:30Z</time>
      </trkpt>
      <trkpt lat="48.06647" lon="7.11681">
        <ele>685.6</ele>
        <time>2025-09-08T06:33:31Z</time>
      </trkpt>
      <trkpt lat="48.06646" lon="7.11685">
        <ele>685.8</ele>
        <time>2025-09-08T06:33:32Z</time>
      </trkpt>
      <trkpt lat="48.06645" lon="7.1169">
        <ele>686</ele>
        <time>2025-09-08T06:33:33Z</time>
      </trkpt>
      <trkpt lat="48.06644" lon="7.11694">
        <ele>686.2</ele>
        <time>2025-09-08T06:33:34Z</time>
      </trkpt>
      <trkpt lat="48.06643" lon="7.11699">
        <ele>686.6</ele>
        <time>2025-09-08T06:33:35Z</time>
      </trkpt>
      <trkpt lat="48.06641" lon="7.11703">
        <ele>686.8</ele>
        <time>2025-09-08T06:33:36Z</time>
      </trkpt>
      <trkpt lat="48.0664" lon="7.11707">
        <ele>687.4</ele>
        <time>2025-09-08T06:33:37Z</time>
      </trkpt>
      <trkpt lat="48.06639" lon="7.11711">
        <ele>687.6</ele>
        <time>2025-09-08T06:33:38Z</time>
      </trkpt>
      <trkpt lat="48.06638" lon="7.11715">
        <ele>688</ele>
        <time>2025-09-08T06:33:39Z</time>
      </trkpt>
      <trkpt lat="48.06637" lon="7.1172">
        <ele>688.6</ele>
        <time>2025-09-08T06:33:40Z</time>
      </trkpt>
      <trkpt lat="48.06637" lon="7.11723">
        <ele>688.8</ele>
        <time>2025-09-08T06:33:41Z</time>
      </trkpt>
      <trkpt lat="48.06636" lon="7.11727">
        <ele>689.4</ele>
        <time>2025-09-08T06:33:42Z</time>
      </trkpt>
      <trkpt lat="48.06636" lon="7.11732">
        <ele>689.6</ele>
        <time>2025-09-08T06:33:43Z</time>
      </trkpt>
      <trkpt lat="48.06635" lon="7.11736">
        <ele>690.2</ele>
        <time>2025-09-08T06:33:44Z</time>
      </trkpt>
      <trkpt lat="48.06635" lon="7.11741">
        <ele>690.6</ele>
        <time>2025-09-08T06:33:45Z</time>
      </trkpt>
      <trkpt lat="48.06635" lon="7.11746">
        <ele>691</ele>
        <time>2025-09-08T06:33:46Z</time>
      </trkpt>
      <trkpt lat="48.06635" lon="7.1175">
        <ele>691.2</ele>
        <time>2025-09-08T06:33:47Z</time>
      </trkpt>
      <trkpt lat="48.06635" lon="7.11754">
        <ele>691.6</ele>
        <time>2025-09-08T06:33:48Z</time>
      </trkpt>
      <trkpt lat="48.06635" lon="7.11758">
        <ele>691.8</ele>
        <time>2025-09-08T06:33:49Z</time>
      </trkpt>
      <trkpt lat="48.06635" lon="7.11762">
        <ele>692.4</ele>
        <time>2025-09-08T06:33:50Z</time>
      </trkpt>
      <trkpt lat="48.06636" lon="7.11767">
        <ele>692.8</ele>
        <time>2025-09-08T06:33:51Z</time>
      </trkpt>
      <trkpt lat="48.06637" lon="7.11771">
        <ele>693</ele>
        <time>2025-09-08T06:33:52Z</time>
      </trkpt>
      <trkpt lat="48.06638" lon="7.11776">
        <ele>693.4</ele>
        <time>2025-09-08T06:33:53Z</time>
      </trkpt>
      <trkpt lat="48.06639" lon="7.1178">
        <ele>693.8</ele>
        <time>2025-09-08T06:33:54Z</time>
      </trkpt>
      <trkpt lat="48.0664" lon="7.11785">
        <ele>694</ele>
        <time>2025-09-08T06:33:55Z</time>
      </trkpt>
      <trkpt lat="48.06642" lon="7.11789">
        <ele>694</ele>
        <time>2025-09-08T06:33:56Z</time>
      </trkpt>
      <trkpt lat="48.06643" lon="7.11793">
        <ele>694.4</ele>
        <time>2025-09-08T06:33:57Z</time>
      </trkpt>
      <trkpt lat="48.06643" lon="7.11797">
        <ele>694.8</ele>
        <time>2025-09-08T06:33:58Z</time>
      </trkpt>
      <trkpt lat="48.06644" lon="7.11801">
        <ele>695</ele>
        <time>2025-09-08T06:33:59Z</time>
      </trkpt>
      <trkpt lat="48.06645" lon="7.11805">
        <ele>695.2</ele>
        <time>2025-09-08T06:34:00Z</time>
      </trkpt>
      <trkpt lat="48.06646" lon="7.11809">
        <ele>695.6</ele>
        <time>2025-09-08T06:34:01Z</time>
      </trkpt>
      <trkpt lat="48.06646" lon="7.11813">
        <ele>695.8</ele>
        <time>2025-09-08T06:34:02Z</time>
      </trkpt>
      <trkpt lat="48.06647" lon="7.11818">
        <ele>696.4</ele>
        <time>2025-09-08T06:34:03Z</time>
      </trkpt>
      <trkpt lat="48.06647" lon="7.11822">
        <ele>696.6</ele>
        <time>2025-09-08T06:34:04Z</time>
      </trkpt>
      <trkpt lat="48.06648" lon="7.11826">
        <ele>696.8</ele>
        <time>2025-09-08T06:34:05Z</time>
      </trkpt>
      <trkpt lat="48.06648" lon="7.1183">
        <ele>697</ele>
        <time>2025-09-08T06:34:06Z</time>
      </trkpt>
      <trkpt lat="48.06649" lon="7.11834">
        <ele>697.4</ele>
        <time>2025-09-08T06:34:07Z</time>
      </trkpt>
      <trkpt lat="48.06649" lon="7.11839">
        <ele>697.6</ele>
        <time>2025-09-08T06:34:08Z</time>
      </trkpt>
      <trkpt lat="48.0665" lon="7.11843">
        <ele>698</ele>
        <time>2025-09-08T06:34:09Z</time>
      </trkpt>
      <trkpt lat="48.0665" lon="7.11847">
        <ele>698.4</ele>
        <time>2025-09-08T06:34:10Z</time>
      </trkpt>
      <trkpt lat="48.06651" lon="7.11851">
        <ele>698.6</ele>
        <time>2025-09-08T06:34:11Z</time>
      </trkpt>
      <trkpt lat="48.06651" lon="7.11854">
        <ele>699</ele>
        <time>2025-09-08T06:34:12Z</time>
      </trkpt>
      <trkpt lat="48.06652" lon="7.11858">
        <ele>699.4</ele>
        <time>2025-09-08T06:34:13Z</time>
      </trkpt>
      <trkpt lat="48.06653" lon="7.11862">
        <ele>699.8</ele>
        <time>2025-09-08T06:34:14Z</time>
      </trkpt>
      <trkpt lat="48.06655" lon="7.11866">
        <ele>700.2</ele>
        <time>2025-09-08T06:34:15Z</time>
      </trkpt>
      <trkpt lat="48.06656" lon="7.1187">
        <ele>700.6</ele>
        <time>2025-09-08T06:34:16Z</time>
      </trkpt>
      <trkpt lat="48.06658" lon="7.11874">
        <ele>700.8</ele>
        <time>2025-09-08T06:34:17Z</time>
      </trkpt>
      <trkpt lat="48.0666" lon="7.11877">
        <ele>701.2</ele>
        <time>2025-09-08T06:34:18Z</time>
      </trkpt>
      <trkpt lat="48.06662" lon="7.1188">
        <ele>701.4</ele>
        <time>2025-09-08T06:34:19Z</time>
      </trkpt>
      <trkpt lat="48.06665" lon="7.11882">
        <ele>701.8</ele>
        <time>2025-09-08T06:34:20Z</time>
      </trkpt>
      <trkpt lat="48.06667" lon="7.11883">
        <ele>702.2</ele>
        <time>2025-09-08T06:34:21Z</time>
      </trkpt>
      <trkpt lat="48.0667" lon="7.11885">
        <ele>702.4</ele>
        <time>2025-09-08T06:34:22Z</time>
      </trkpt>
      <trkpt lat="48.06673" lon="7.11887">
        <ele>702.6</ele>
        <time>2025-09-08T06:34:23Z</time>
      </trkpt>
      <trkpt lat="48.06675" lon="7.11888">
        <ele>702.8</ele>
        <time>2025-09-08T06:34:24Z</time>
      </trkpt>
      <trkpt lat="48.06678" lon="7.1189">
        <ele>703.4</ele>
        <time>2025-09-08T06:34:25Z</time>
      </trkpt>
      <trkpt lat="48.0668" lon="7.11892">
        <ele>703.8</ele>
        <time>2025-09-08T06:34:26Z</time>
      </trkpt>
      <trkpt lat="48.06682" lon="7.11894">
        <ele>704</ele>
        <time>2025-09-08T06:34:27Z</time>
      </trkpt>
      <trkpt lat="48.06685" lon="7.11896">
        <ele>704.4</ele>
        <time>2025-09-08T06:34:28Z</time>
      </trkpt>
      <trkpt lat="48.06687" lon="7.11898">
        <ele>704.8</ele>
        <time>2025-09-08T06:34:29Z</time>
      </trkpt>
      <trkpt lat="48.0669" lon="7.11899">
        <ele>705</ele>
        <time>2025-09-08T06:34:30Z</time>
      </trkpt>
      <trkpt lat="48.06692" lon="7.11901">
        <ele>705.4</ele>
        <time>2025-09-08T06:34:31Z</time>
      </trkpt>
      <trkpt lat="48.06695" lon="7.11903">
        <ele>705.6</ele>
        <time>2025-09-08T06:34:32Z</time>
      </trkpt>
      <trkpt lat="48.06697" lon="7.11904">
        <ele>705.8</ele>
        <time>2025-09-08T06:34:33Z</time>
      </trkpt>
      <trkpt lat="48.067" lon="7.11906">
        <ele>706.2</ele>
        <time>2025-09-08T06:34:34Z</time>
      </trkpt>
      <trkpt lat="48.06702" lon="7.11907">
        <ele>706.4</ele>
        <time>2025-09-08T06:34:35Z</time>
      </trkpt>
      <trkpt lat="48.06705" lon="7.11908">
        <ele>706.8</ele>
        <time>2025-09-08T06:34:36Z</time>
      </trkpt>
      <trkpt lat="48.06708" lon="7.1191">
        <ele>707</ele>
        <time>2025-09-08T06:34:37Z</time>
      </trkpt>
      <trkpt lat="48.06711" lon="7.1191">
        <ele>707.4</ele>
        <time>2025-09-08T06:34:38Z</time>
      </trkpt>
      <trkpt lat="48.06714" lon="7.11911">
        <ele>707.6</ele>
        <time>2025-09-08T06:34:39Z</time>
      </trkpt>
      <trkpt lat="48.06716" lon="7.11912">
        <ele>708</ele>
        <time>2025-09-08T06:34:40Z</time>
      </trkpt>
      <trkpt lat="48.06719" lon="7.11912">
        <ele>708.2</ele>
        <time>2025-09-08T06:34:41Z</time>
      </trkpt>
      <trkpt lat="48.06722" lon="7.11912">
        <ele>708.4</ele>
        <time>2025-09-08T06:34:42Z</time>
      </trkpt>
      <trkpt lat="48.06725" lon="7.11913">
        <ele>708.6</ele>
        <time>2025-09-08T06:34:43Z</time>
      </trkpt>
      <trkpt lat="48.06728" lon="7.11913">
        <ele>709</ele>
        <time>2025-09-08T06:34:44Z</time>
      </trkpt>
      <trkpt lat="48.0673" lon="7.11913">
        <ele>709.4</ele>
        <time>2025-09-08T06:34:45Z</time>
      </trkpt>
      <trkpt lat="48.06733" lon="7.11913">
        <ele>709.6</ele>
        <time>2025-09-08T06:34:46Z</time>
      </trkpt>
      <trkpt lat="48.06736" lon="7.11913">
        <ele>710</ele>
        <time>2025-09-08T06:34:47Z</time>
      </trkpt>
      <trkpt lat="48.06739" lon="7.11913">
        <ele>710.2</ele>
        <time>2025-09-08T06:34:48Z</time>
      </trkpt>
      <trkpt lat="48.06741" lon="7.11914">
        <ele>710.6</ele>
        <time>2025-09-08T06:34:49Z</time>
      </trkpt>
      <trkpt lat="48.06744" lon="7.11914">
        <ele>710.8</ele>
        <time>2025-09-08T06:34:50Z</time>
      </trkpt>
      <trkpt lat="48.06747" lon="7.11914">
        <ele>711.2</ele>
        <time>2025-09-08T06:34:51Z</time>
      </trkpt>
      <trkpt lat="48.0675" lon="7.11915">
        <ele>711.4</ele>
        <time>2025-09-08T06:34:52Z</time>
      </trkpt>
      <trkpt lat="48.06752" lon="7.11915">
        <ele>711.8</ele>
        <time>2025-09-08T06:34:53Z</time>
      </trkpt>
      <trkpt lat="48.06755" lon="7.11916">
        <ele>712</ele>
        <time>2025-09-08T06:34:54Z</time>
      </trkpt>
      <trkpt lat="48.06758" lon="7.11917">
        <ele>712.2</ele>
        <time>2025-09-08T06:34:55Z</time>
      </trkpt>
      <trkpt lat="48.06761" lon="7.11918">
        <ele>712.6</ele>
        <time>2025-09-08T06:34:56Z</time>
      </trkpt>
      <trkpt lat="48.06764" lon="7.11919">
        <ele>712.8</ele>
        <time>2025-09-08T06:34:57Z</time>
      </trkpt>
      <trkpt lat="48.06766" lon="7.1192">
        <ele>713.2</ele>
        <time>2025-09-08T06:34:58Z</time>
      </trkpt>
      <trkpt lat="48.06769" lon="7.11922">
        <ele>713.4</ele>
        <time>2025-09-08T06:34:59Z</time>
      </trkpt>
      <trkpt lat="48.06772" lon="7.11923">
        <ele>713.6</ele>
        <time>2025-09-08T06:35:00Z</time>
      </trkpt>
      <trkpt lat="48.06774" lon="7.11925">
        <ele>714</ele>
        <time>2025-09-08T06:35:01Z</time>
      </trkpt>
      <trkpt lat="48.06776" lon="7.11926">
        <ele>714.2</ele>
        <time>2025-09-08T06:35:02Z</time>
      </trkpt>
      <trkpt lat="48.06778" lon="7.11929">
        <ele>714.4</ele>
        <time>2025-09-08T06:35:03Z</time>
      </trkpt>
      <trkpt lat="48.06781" lon="7.11931">
        <ele>714.6</ele>
        <time>2025-09-08T06:35:04Z</time>
      </trkpt>
      <trkpt lat="48.06783" lon="7.11933">
        <ele>715</ele>
        <time>2025-09-08T06:35:05Z</time>
      </trkpt>
      <trkpt lat="48.06785" lon="7.11936">
        <ele>715.2</ele>
        <time>2025-09-08T06:35:06Z</time>
      </trkpt>
      <trkpt lat="48.06787" lon="7.11938">
        <ele>715.6</ele>
        <time>2025-09-08T06:35:07Z</time>
      </trkpt>
      <trkpt lat="48.06789" lon="7.11941">
        <ele>715.8</ele>
        <time>2025-09-08T06:35:08Z</time>
      </trkpt>
      <trkpt lat="48.06791" lon="7.11944">
        <ele>716.2</ele>
        <time>2025-09-08T06:35:09Z</time>
      </trkpt>
      <trkpt lat="48.06793" lon="7.11947">
        <ele>716.4</ele>
        <time>2025-09-08T06:35:10Z</time>
      </trkpt>
      <trkpt lat="48.06795" lon="7.11949">
        <ele>716.8</ele>
        <time>2025-09-08T06:35:11Z</time>
      </trkpt>
      <trkpt lat="48.06797" lon="7.11952">
        <ele>717.2</ele>
        <time>2025-09-08T06:35:12Z</time>
      </trkpt>
      <trkpt lat="48.068" lon="7.11954">
        <ele>717.4</ele>
        <time>2025-09-08T06:35:13Z</time>
      </trkpt>
      <trkpt lat="48.06802" lon="7.11956">
        <ele>717.8</ele>
        <time>2025-09-08T06:35:14Z</time>
      </trkpt>
      <trkpt lat="48.06805" lon="7.11958">
        <ele>718</ele>
        <time>2025-09-08T06:35:15Z</time>
      </trkpt>
      <trkpt lat="48.06808" lon="7.11959">
        <ele>718.4</ele>
        <time>2025-09-08T06:35:16Z</time>
      </trkpt>
      <trkpt lat="48.06811" lon="7.1196">
        <ele>718.6</ele>
        <time>2025-09-08T06:35:17Z</time>
      </trkpt>
      <trkpt lat="48.06814" lon="7.11961">
        <ele>719</ele>
        <time>2025-09-08T06:35:18Z</time>
      </trkpt>
      <trkpt lat="48.06816" lon="7.11961">
        <ele>719.4</ele>
        <time>2025-09-08T06:35:19Z</time>
      </trkpt>
      <trkpt lat="48.06819" lon="7.11962">
        <ele>719.8</ele>
        <time>2025-09-08T06:35:20Z</time>
      </trkpt>
      <trkpt lat="48.06822" lon="7.11962">
        <ele>720.2</ele>
        <time>2025-09-08T06:35:21Z</time>
      </trkpt>
      <trkpt lat="48.06825" lon="7.11962">
        <ele>720.6</ele>
        <time>2025-09-08T06:35:22Z</time>
      </trkpt>
      <trkpt lat="48.06828" lon="7.11962">
        <ele>720.8</ele>
        <time>2025-09-08T06:35:23Z</time>
      </trkpt>
      <trkpt lat="48.0683" lon="7.11963">
        <ele>721.2</ele>
        <time>2025-09-08T06:35:24Z</time>
      </trkpt>
      <trkpt lat="48.06833" lon="7.11963">
        <ele>721.6</ele>
        <time>2025-09-08T06:35:25Z</time>
      </trkpt>
      <trkpt lat="48.06836" lon="7.11963">
        <ele>721.8</ele>
        <time>2025-09-08T06:35:26Z</time>
      </trkpt>
      <trkpt lat="48.06839" lon="7.11963">
        <ele>722</ele>
        <time>2025-09-08T06:35:27Z</time>
      </trkpt>
      <trkpt lat="48.06842" lon="7.11964">
        <ele>722.4</ele>
        <time>2025-09-08T06:35:28Z</time>
      </trkpt>
      <trkpt lat="48.06845" lon="7.11965">
        <ele>722.6</ele>
        <time>2025-09-08T06:35:29Z</time>
      </trkpt>
      <trkpt lat="48.06848" lon="7.11966">
        <ele>722.8</ele>
        <time>2025-09-08T06:35:30Z</time>
      </trkpt>
      <trkpt lat="48.0685" lon="7.11967">
        <ele>723</ele>
        <time>2025-09-08T06:35:31Z</time>
      </trkpt>
      <trkpt lat="48.06853" lon="7.11969">
        <ele>723.2</ele>
        <time>2025-09-08T06:35:32Z</time>
      </trkpt>
      <trkpt lat="48.06855" lon="7.1197">
        <ele>723.6</ele>
        <time>2025-09-08T06:35:33Z</time>
      </trkpt>
      <trkpt lat="48.06858" lon="7.11972">
        <ele>723.8</ele>
        <time>2025-09-08T06:35:34Z</time>
      </trkpt>
      <trkpt lat="48.0686" lon="7.11974">
        <ele>724</ele>
        <time>2025-09-08T06:35:35Z</time>
      </trkpt>
      <trkpt lat="48.06863" lon="7.11976">
        <ele>724.2</ele>
        <time>2025-09-08T06:35:36Z</time>
      </trkpt>
      <trkpt lat="48.06865" lon="7.11977">
        <ele>724.6</ele>
        <time>2025-09-08T06:35:37Z</time>
      </trkpt>
      <trkpt lat="48.06867" lon="7.11979">
        <ele>724.8</ele>
        <time>2025-09-08T06:35:38Z</time>
      </trkpt>
      <trkpt lat="48.0687" lon="7.1198">
        <ele>725</ele>
        <time>2025-09-08T06:35:39Z</time>
      </trkpt>
      <trkpt lat="48.06873" lon="7.11982">
        <ele>725.4</ele>
        <time>2025-09-08T06:35:40Z</time>
      </trkpt>
      <trkpt lat="48.06875" lon="7.11983">
        <ele>725.8</ele>
        <time>2025-09-08T06:35:41Z</time>
      </trkpt>
      <trkpt lat="48.06878" lon="7.11985">
        <ele>726</ele>
        <time>2025-09-08T06:35:42Z</time>
      </trkpt>
      <trkpt lat="48.0688" lon="7.11987">
        <ele>726.4</ele>
        <time>2025-09-08T06:35:43Z</time>
      </trkpt>
      <trkpt lat="48.06882" lon="7.11989">
        <ele>726.8</ele>
        <time>2025-09-08T06:35:44Z</time>
      </trkpt>
      <trkpt lat="48.06885" lon="7.11991">
        <ele>727</ele>
        <time>2025-09-08T06:35:45Z</time>
      </trkpt>
      <trkpt lat="48.06887" lon="7.11992">
        <ele>727.6</ele>
        <time>2025-09-08T06:35:46Z</time>
      </trkpt>
      <trkpt lat="48.06889" lon="7.11994">
        <ele>727.8</ele>
        <time>2025-09-08T06:35:47Z</time>
      </trkpt>
      <trkpt lat="48.06891" lon="7.11996">
        <ele>728.2</ele>
        <time>2025-09-08T06:35:48Z</time>
      </trkpt>
      <trkpt lat="48.06894" lon="7.11998">
        <ele>728.6</ele>
        <time>2025-09-08T06:35:49Z</time>
      </trkpt>
      <trkpt lat="48.06896" lon="7.12">
        <ele>729</ele>
        <time>2025-09-08T06:35:50Z</time>
      </trkpt>
      <trkpt lat="48.06898" lon="7.12002">
        <ele>729.6</ele>
        <time>2025-09-08T06:35:51Z</time>
      </trkpt>
      <trkpt lat="48.069" lon="7.12003">
        <ele>730</ele>
        <time>2025-09-08T06:35:52Z</time>
      </trkpt>
      <trkpt lat="48.06903" lon="7.12005">
        <ele>730.4</ele>
        <time>2025-09-08T06:35:53Z</time>
      </trkpt>
      <trkpt lat="48.06905" lon="7.12007">
        <ele>730.6</ele>
        <time>2025-09-08T06:35:54Z</time>
      </trkpt>
      <trkpt lat="48.06907" lon="7.1201">
        <ele>731</ele>
        <time>2025-09-08T06:35:55Z</time>
      </trkpt>
      <trkpt lat="48.06909" lon="7.12012">
        <ele>731.4</ele>
        <time>2025-09-08T06:35:56Z</time>
      </trkpt>
      <trkpt lat="48.06911" lon="7.12014">
        <ele>732</ele>
        <time>2025-09-08T06:35:57Z</time>
      </trkpt>
      <trkpt lat="48.06913" lon="7.12016">
        <ele>732.4</ele>
        <time>2025-09-08T06:35:58Z</time>
      </trkpt>
      <trkpt lat="48.06915" lon="7.12018">
        <ele>732.8</ele>
        <time>2025-09-08T06:35:59Z</time>
      </trkpt>
      <trkpt lat="48.06916" lon="7.12021">
        <ele>733.2</ele>
        <time>2025-09-08T06:36:00Z</time>
      </trkpt>
      <trkpt lat="48.06918" lon="7.12023">
        <ele>733.6</ele>
        <time>2025-09-08T06:36:01Z</time>
      </trkpt>
      <trkpt lat="48.0692" lon="7.12026">
        <ele>734</ele>
        <time>2025-09-08T06:36:02Z</time>
      </trkpt>
      <trkpt lat="48.06921" lon="7.12029">
        <ele>734.4</ele>
        <time>2025-09-08T06:36:03Z</time>
      </trkpt>
      <trkpt lat="48.06923" lon="7.12032">
        <ele>735</ele>
        <time>2025-09-08T06:36:04Z</time>
      </trkpt>
      <trkpt lat="48.06925" lon="7.12034">
        <ele>735.2</ele>
        <time>2025-09-08T06:36:05Z</time>
      </trkpt>
      <trkpt lat="48.06926" lon="7.12037">
        <ele>735.6</ele>
        <time>2025-09-08T06:36:06Z</time>
      </trkpt>
      <trkpt lat="48.06928" lon="7.1204">
        <ele>736</ele>
        <time>2025-09-08T06:36:07Z</time>
      </trkpt>
      <trkpt lat="48.0693" lon="7.12043">
        <ele>736.6</ele>
        <time>2025-09-08T06:36:08Z</time>
      </trkpt>
      <trkpt lat="48.06931" lon="7.12045">
        <ele>736.8</ele>
        <time>2025-09-08T06:36:09Z</time>
      </trkpt>
      <trkpt lat="48.06933" lon="7.12048">
        <ele>737.2</ele>
        <time>2025-09-08T06:36:10Z</time>
      </trkpt>
      <trkpt lat="48.06934" lon="7.1205">
        <ele>737.6</ele>
        <time>2025-09-08T06:36:11Z</time>
      </trkpt>
      <trkpt lat="48.06936" lon="7.12053">
        <ele>737.8</ele>
        <time>2025-09-08T06:36:12Z</time>
      </trkpt>
      <trkpt lat="48.06937" lon="7.12056">
        <ele>738.4</ele>
        <time>2025-09-08T06:36:13Z</time>
      </trkpt>
      <trkpt lat="48.06939" lon="7.12058">
        <ele>738.6</ele>
        <time>2025-09-08T06:36:14Z</time>
      </trkpt>
      <trkpt lat="48.06941" lon="7.1206">
        <ele>739</ele>
        <time>2025-09-08T06:36:15Z</time>
      </trkpt>
      <trkpt lat="48.06943" lon="7.12063">
        <ele>739.6</ele>
        <time>2025-09-08T06:36:16Z</time>
      </trkpt>
      <trkpt lat="48.06945" lon="7.12066">
        <ele>740.2</ele>
        <time>2025-09-08T06:36:17Z</time>
      </trkpt>
      <trkpt lat="48.06947" lon="7.12068">
        <ele>740.4</ele>
        <time>2025-09-08T06:36:18Z</time>
      </trkpt>
      <trkpt lat="48.06948" lon="7.1207">
        <ele>740.6</ele>
        <time>2025-09-08T06:36:19Z</time>
      </trkpt>
      <trkpt lat="48.0695" lon="7.12073">
        <ele>741</ele>
        <time>2025-09-08T06:36:20Z</time>
      </trkpt>
      <trkpt lat="48.06952" lon="7.12075">
        <ele>741.6</ele>
        <time>2025-09-08T06:36:21Z</time>
      </trkpt>
      <trkpt lat="48.06953" lon="7.12077">
        <ele>742</ele>
        <time>2025-09-08T06:36:22Z</time>
      </trkpt>
      <trkpt lat="48.06955" lon="7.1208">
        <ele>742.6</ele>
        <time>2025-09-08T06:36:23Z</time>
      </trkpt>
      <trkpt lat="48.06956" lon="7.12083">
        <ele>743</ele>
        <time>2025-09-08T06:36:24Z</time>
      </trkpt>
      <trkpt lat="48.06958" lon="7.12085">
        <ele>743.6</ele>
        <time>2025-09-08T06:36:25Z</time>
      </trkpt>
      <trkpt lat="48.06959" lon="7.12087">
        <ele>744</ele>
        <time>2025-09-08T06:36:26Z</time>
      </trkpt>
      <trkpt lat="48.06961" lon="7.12089">
        <ele>744.6</ele>
        <time>2025-09-08T06:36:27Z</time>
      </trkpt>
      <trkpt lat="48.06963" lon="7.12091">
        <ele>745</ele>
        <time>2025-09-08T06:36:28Z</time>
      </trkpt>
      <trkpt lat="48.06965" lon="7.12092">
        <ele>745.6</ele>
        <time>2025-09-08T06:36:29Z</time>
      </trkpt>
      <trkpt lat="48.06967" lon="7.12093">
        <ele>746.2</ele>
        <time>2025-09-08T06:36:30Z</time>
      </trkpt>
      <trkpt lat="48.06969" lon="7.12094">
        <ele>746.4</ele>
        <time>2025-09-08T06:36:31Z</time>
      </trkpt>
      <trkpt lat="48.06971" lon="7.12096">
        <ele>746.8</ele>
        <time>2025-09-08T06:36:32Z</time>
      </trkpt>
      <trkpt lat="48.06974" lon="7.12098">
        <ele>747.2</ele>
        <time>2025-09-08T06:36:33Z</time>
      </trkpt>
      <trkpt lat="48.06975" lon="7.12101">
        <ele>747.6</ele>
        <time>2025-09-08T06:36:34Z</time>
      </trkpt>
      <trkpt lat="48.06977" lon="7.12103">
        <ele>748</ele>
        <time>2025-09-08T06:36:35Z</time>
      </trkpt>
      <trkpt lat="48.06979" lon="7.12106">
        <ele>748.4</ele>
        <time>2025-09-08T06:36:36Z</time>
      </trkpt>
      <trkpt lat="48.06981" lon="7.12108">
        <ele>748.8</ele>
        <time>2025-09-08T06:36:37Z</time>
      </trkpt>
      <trkpt lat="48.06983" lon="7.12111">
        <ele>749.4</ele>
        <time>2025-09-08T06:36:38Z</time>
      </trkpt>
      <trkpt lat="48.06985" lon="7.12113">
        <ele>749.8</ele>
        <time>2025-09-08T06:36:39Z</time>
      </trkpt>
      <trkpt lat="48.06986" lon="7.12116">
        <ele>750.4</ele>
        <time>2025-09-08T06:36:40Z</time>
      </trkpt>
      <trkpt lat="48.06988" lon="7.12119">
        <ele>750.8</ele>
        <time>2025-09-08T06:36:41Z</time>
      </trkpt>
      <trkpt lat="48.06989" lon="7.12122">
        <ele>751.4</ele>
        <time>2025-09-08T06:36:42Z</time>
      </trkpt>
      <trkpt lat="48.0699" lon="7.12125">
        <ele>751.6</ele>
        <time>2025-09-08T06:36:43Z</time>
      </trkpt>
      <trkpt lat="48.06991" lon="7.12128">
        <ele>752.2</ele>
        <time>2025-09-08T06:36:44Z</time>
      </trkpt>
      <trkpt lat="48.06992" lon="7.12131">
        <ele>752.6</ele>
        <time>2025-09-08T06:36:45Z</time>
      </trkpt>
      <trkpt lat="48.06993" lon="7.12134">
        <ele>753</ele>
        <time>2025-09-08T06:36:46Z</time>
      </trkpt>
      <trkpt lat="48.06995" lon="7.12137">
        <ele>753.4</ele>
        <time>2025-09-08T06:36:47Z</time>
      </trkpt>
      <trkpt lat="48.06997" lon="7.1214">
        <ele>753.8</ele>
        <time>2025-09-08T06:36:48Z</time>
      </trkpt>
      <trkpt lat="48.06998" lon="7.12142">
        <ele>754</ele>
        <time>2025-09-08T06:36:49Z</time>
      </trkpt>
      <trkpt lat="48.07" lon="7.12145">
        <ele>754.6</ele>
        <time>2025-09-08T06:36:50Z</time>
      </trkpt>
      <trkpt lat="48.07002" lon="7.12147">
        <ele>755</ele>
        <time>2025-09-08T06:36:51Z</time>
      </trkpt>
      <trkpt lat="48.07004" lon="7.1215">
        <ele>755.4</ele>
        <time>2025-09-08T06:36:52Z</time>
      </trkpt>
      <trkpt lat="48.07005" lon="7.12153">
        <ele>755.8</ele>
        <time>2025-09-08T06:36:53Z</time>
      </trkpt>
      <trkpt lat="48.07007" lon="7.12156">
        <ele>756.2</ele>
        <time>2025-09-08T06:36:54Z</time>
      </trkpt>
      <trkpt lat="48.07009" lon="7.12158">
        <ele>756.6</ele>
        <time>2025-09-08T06:36:55Z</time>
      </trkpt>
      <trkpt lat="48.0701" lon="7.12161">
        <ele>756.8</ele>
        <time>2025-09-08T06:36:56Z</time>
      </trkpt>
      <trkpt lat="48.07012" lon="7.12164">
        <ele>757.4</ele>
        <time>2025-09-08T06:36:57Z</time>
      </trkpt>
      <trkpt lat="48.07014" lon="7.12167">
        <ele>757.6</ele>
        <time>2025-09-08T06:36:58Z</time>
      </trkpt>
      <trkpt lat="48.07016" lon="7.12169">
        <ele>758</ele>
        <time>2025-09-08T06:36:59Z</time>
      </trkpt>
      <trkpt lat="48.07017" lon="7.12172">
        <ele>758.4</ele>
        <time>2025-09-08T06:37:00Z</time>
      </trkpt>
      <trkpt lat="48.07019" lon="7.12174">
        <ele>758.8</ele>
        <time>2025-09-08T06:37:01Z</time>
      </trkpt>
      <trkpt lat="48.07021" lon="7.12177">
        <ele>759.2</ele>
        <time>2025-09-08T06:37:02Z</time>
      </trkpt>
      <trkpt lat="48.07022" lon="7.1218">
        <ele>759.2</ele>
        <time>2025-09-08T06:37:03Z</time>
      </trkpt>
      <trkpt lat="48.07024" lon="7.12183">
        <ele>759.8</ele>
        <time>2025-09-08T06:37:04Z</time>
      </trkpt>
      <trkpt lat="48.07026" lon="7.12186">
        <ele>760</ele>
        <time>2025-09-08T06:37:05Z</time>
      </trkpt>
      <trkpt lat="48.07028" lon="7.12188">
        <ele>760.2</ele>
        <time>2025-09-08T06:37:06Z</time>
      </trkpt>
      <trkpt lat="48.0703" lon="7.1219">
        <ele>760.6</ele>
        <time>2025-09-08T06:37:07Z</time>
      </trkpt>
      <trkpt lat="48.07032" lon="7.12192">
        <ele>760.8</ele>
        <time>2025-09-08T06:37:08Z</time>
      </trkpt>
      <trkpt lat="48.07034" lon="7.12195">
        <ele>761</ele>
        <time>2025-09-08T06:37:09Z</time>
      </trkpt>
      <trkpt lat="48.07036" lon="7.12197">
        <ele>761.2</ele>
        <time>2025-09-08T06:37:10Z</time>
      </trkpt>
      <trkpt lat="48.07039" lon="7.122">
        <ele>761.4</ele>
        <time>2025-09-08T06:37:11Z</time>
      </trkpt>
      <trkpt lat="48.07041" lon="7.12203">
        <ele>761.6</ele>
        <time>2025-09-08T06:37:12Z</time>
      </trkpt>
      <trkpt lat="48.07044" lon="7.12206">
        <ele>761.6</ele>
        <time>2025-09-08T06:37:13Z</time>
      </trkpt>
      <trkpt lat="48.07047" lon="7.12208">
        <ele>761.6</ele>
        <time>2025-09-08T06:37:14Z</time>
      </trkpt>
      <trkpt lat="48.0705" lon="7.12212">
        <ele>761.6</ele>
        <time>2025-09-08T06:37:15Z</time>
      </trkpt>
      <trkpt lat="48.07053" lon="7.12215">
        <ele>761.6</ele>
        <time>2025-09-08T06:37:16Z</time>
      </trkpt>
      <trkpt lat="48.07056" lon="7.12218">
        <ele>761.8</ele>
        <time>2025-09-08T06:37:17Z</time>
      </trkpt>
      <trkpt lat="48.0706" lon="7.1222">
        <ele>761.8</ele>
        <time>2025-09-08T06:37:18Z</time>
      </trkpt>
      <trkpt lat="48.07063" lon="7.12223">
        <ele>761.8</ele>
        <time>2025-09-08T06:37:19Z</time>
      </trkpt>
      <trkpt lat="48.07067" lon="7.12226">
        <ele>761.8</ele>
        <time>2025-09-08T06:37:20Z</time>
      </trkpt>
      <trkpt lat="48.07071" lon="7.12228">
        <ele>761.8</ele>
        <time>2025-09-08T06:37:21Z</time>
      </trkpt>
      <trkpt lat="48.07075" lon="7.1223">
        <ele>761.8</ele>
        <time>2025-09-08T06:37:22Z</time>
      </trkpt>
      <trkpt lat="48.07079" lon="7.12232">
        <ele>761.8</ele>
        <time>2025-09-08T06:37:23Z</time>
      </trkpt>
      <trkpt lat="48.07082" lon="7.12233">
        <ele>761.8</ele>
        <time>2025-09-08T06:37:24Z</time>
      </trkpt>
      <trkpt lat="48.07086" lon="7.12234">
        <ele>761.8</ele>
        <time>2025-09-08T06:37:25Z</time>
      </trkpt>
      <trkpt lat="48.0709" lon="7.12235">
        <ele>761.6</ele>
        <time>2025-09-08T06:37:26Z</time>
      </trkpt>
      <trkpt lat="48.07094" lon="7.12236">
        <ele>761.6</ele>
        <time>2025-09-08T06:37:27Z</time>
      </trkpt>
      <trkpt lat="48.07099" lon="7.12236">
        <ele>761.6</ele>
        <time>2025-09-08T06:37:28Z</time>
      </trkpt>
      <trkpt lat="48.07103" lon="7.12238">
        <ele>761.4</ele>
        <time>2025-09-08T06:37:29Z</time>
      </trkpt>
      <trkpt lat="48.07108" lon="7.12239">
        <ele>761.4</ele>
        <time>2025-09-08T06:37:30Z</time>
      </trkpt>
      <trkpt lat="48.07114" lon="7.1224">
        <ele>761.2</ele>
        <time>2025-09-08T06:37:31Z</time>
      </trkpt>
      <trkpt lat="48.07119" lon="7.12241">
        <ele>761.2</ele>
        <time>2025-09-08T06:37:32Z</time>
      </trkpt>
      <trkpt lat="48.07126" lon="7.12242">
        <ele>761</ele>
        <time>2025-09-08T06:37:33Z</time>
      </trkpt>
      <trkpt lat="48.07132" lon="7.12243">
        <ele>760.6</ele>
        <time>2025-09-08T06:37:34Z</time>
      </trkpt>
      <trkpt lat="48.07139" lon="7.12245">
        <ele>760.2</ele>
        <time>2025-09-08T06:37:35Z</time>
      </trkpt>
      <trkpt lat="48.07146" lon="7.12246">
        <ele>759.8</ele>
        <time>2025-09-08T06:37:36Z</time>
      </trkpt>
      <trkpt lat="48.07152" lon="7.12245">
        <ele>759.2</ele>
        <time>2025-09-08T06:37:37Z</time>
      </trkpt>
      <trkpt lat="48.07157" lon="7.12243">
        <ele>758.8</ele>
        <time>2025-09-08T06:37:38Z</time>
      </trkpt>
      <trkpt lat="48.07162" lon="7.12241">
        <ele>758.2</ele>
        <time>2025-09-08T06:37:39Z</time>
      </trkpt>
      <trkpt lat="48.07167" lon="7.12239">
        <ele>757.8</ele>
        <time>2025-09-08T06:37:40Z</time>
      </trkpt>
      <trkpt lat="48.07172" lon="7.12236">
        <ele>757.6</ele>
        <time>2025-09-08T06:37:41Z</time>
      </trkpt>
      <trkpt lat="48.07178" lon="7.12234">
        <ele>757.6</ele>
        <time>2025-09-08T06:37:42Z</time>
      </trkpt>
      <trkpt lat="48.07184" lon="7.12232">
        <ele>757.2</ele>
        <time>2025-09-08T06:37:43Z</time>
      </trkpt>
      <trkpt lat="48.0719" lon="7.12229">
        <ele>757</ele>
        <time>2025-09-08T06:37:44Z</time>
      </trkpt>
      <trkpt lat="48.07194" lon="7.12226">
        <ele>756.8</ele>
        <time>2025-09-08T06:37:45Z</time>
      </trkpt>
      <trkpt lat="48.07197" lon="7.12224">
        <ele>756.8</ele>
        <time>2025-09-08T06:37:46Z</time>
      </trkpt>
      <trkpt lat="48.072" lon="7.12222">
        <ele>756.8</ele>
        <time>2025-09-08T06:37:47Z</time>
      </trkpt>
      <trkpt lat="48.07203" lon="7.12221">
        <ele>756.8</ele>
        <time>2025-09-08T06:37:48Z</time>
      </trkpt>
      <trkpt lat="48.07206" lon="7.1222">
        <ele>757</ele>
        <time>2025-09-08T06:37:49Z</time>
      </trkpt>
      <trkpt lat="48.07209" lon="7.12219">
        <ele>757.4</ele>
        <time>2025-09-08T06:37:50Z</time>
      </trkpt>
      <trkpt lat="48.07212" lon="7.12219">
        <ele>757.8</ele>
        <time>2025-09-08T06:37:51Z</time>
      </trkpt>
      <trkpt lat="48.07215" lon="7.12219">
        <ele>758</ele>
        <time>2025-09-08T06:37:52Z</time>
      </trkpt>
      <trkpt lat="48.07217" lon="7.12219">
        <ele>758.6</ele>
        <time>2025-09-08T06:37:53Z</time>
      </trkpt>
      <trkpt lat="48.0722" lon="7.1222">
        <ele>759</ele>
        <time>2025-09-08T06:37:54Z</time>
      </trkpt>
      <trkpt lat="48.07222" lon="7.12221">
        <ele>759.4</ele>
        <time>2025-09-08T06:37:55Z</time>
      </trkpt>
      <trkpt lat="48.07224" lon="7.12223">
        <ele>759.8</ele>
        <time>2025-09-08T06:37:56Z</time>
      </trkpt>
      <trkpt lat="48.07226" lon="7.12225">
        <ele>760.2</ele>
        <time>2025-09-08T06:37:57Z</time>
      </trkpt>
      <trkpt lat="48.07228" lon="7.12228">
        <ele>760.6</ele>
        <time>2025-09-08T06:37:58Z</time>
      </trkpt>
      <trkpt lat="48.07228" lon="7.12231">
        <ele>761</ele>
        <time>2025-09-08T06:37:59Z</time>
      </trkpt>
      <trkpt lat="48.07229" lon="7.12234">
        <ele>761.2</ele>
        <time>2025-09-08T06:38:00Z</time>
      </trkpt>
      <trkpt lat="48.0723" lon="7.12236">
        <ele>761.8</ele>
        <time>2025-09-08T06:38:01Z</time>
      </trkpt>
      <trkpt lat="48.07231" lon="7.12238">
        <ele>762.4</ele>
        <time>2025-09-08T06:38:02Z</time>
      </trkpt>
      <trkpt lat="48.07233" lon="7.1224">
        <ele>762.8</ele>
        <time>2025-09-08T06:38:03Z</time>
      </trkpt>
      <trkpt lat="48.07234" lon="7.12241">
        <ele>763.2</ele>
        <time>2025-09-08T06:38:04Z</time>
      </trkpt>
      <trkpt lat="48.07234" lon="7.12242">
        <ele>763.8</ele>
        <time>2025-09-08T06:38:05Z</time>
      </trkpt>
      <trkpt lat="48.07234" lon="7.12242">
        <ele>764.2</ele>
        <time>2025-09-08T06:38:06Z</time>
      </trkpt>
      <trkpt lat="48.07236" lon="7.12244">
        <ele>764.6</ele>
        <time>2025-09-08T06:38:07Z</time>
      </trkpt>
      <trkpt lat="48.07236" lon="7.12244">
        <ele>765</ele>
        <time>2025-09-08T06:38:08Z</time>
      </trkpt>
      <trkpt lat="48.07236" lon="7.12244">
        <ele>765.2</ele>
        <time>2025-09-08T06:38:09Z</time>
      </trkpt>
      <trkpt lat="48.07237" lon="7.12245">
        <ele>765.6</ele>
        <time>2025-09-08T06:38:10Z</time>
      </trkpt>
      <trkpt lat="48.07238" lon="7.12246">
        <ele>765.8</ele>
        <time>2025-09-08T06:38:11Z</time>
      </trkpt>
      <trkpt lat="48.07239" lon="7.12247">
        <ele>766.2</ele>
        <time>2025-09-08T06:38:12Z</time>
      </trkpt>
      <trkpt lat="48.07239" lon="7.12247">
        <ele>766.4</ele>
        <time>2025-09-08T06:38:13Z</time>
      </trkpt>
      <trkpt lat="48.0724" lon="7.12248">
        <ele>766.8</ele>
        <time>2025-09-08T06:38:14Z</time>
      </trkpt>
      <trkpt lat="48.07241" lon="7.12248">
        <ele>767</ele>
        <time>2025-09-08T06:38:15Z</time>
      </trkpt>
      <trkpt lat="48.07243" lon="7.12249">
        <ele>767.2</ele>
        <time>2025-09-08T06:38:16Z</time>
      </trkpt>
      <trkpt lat="48.07243" lon="7.12249">
        <ele>767.4</ele>
        <time>2025-09-08T06:38:17Z</time>
      </trkpt>
      <trkpt lat="48.07244" lon="7.1225">
        <ele>767.6</ele>
        <time>2025-09-08T06:38:18Z</time>
      </trkpt>
      <trkpt lat="48.07244" lon="7.1225">
        <ele>767.8</ele>
        <time>2025-09-08T06:38:19Z</time>
      </trkpt>
      <trkpt lat="48.07248" lon="7.1225">
        <ele>769</ele>
        <time>2025-09-08T06:38:27Z</time>
      </trkpt>
      <trkpt lat="48.0725" lon="7.12249">
        <ele>769</ele>
        <time>2025-09-08T06:38:28Z</time>
      </trkpt>
      <trkpt lat="48.07252" lon="7.1225">
        <ele>769.2</ele>
        <time>2025-09-08T06:38:29Z</time>
      </trkpt>
      <trkpt lat="48.07255" lon="7.1225">
        <ele>769.2</ele>
        <time>2025-09-08T06:38:30Z</time>
      </trkpt>
      <trkpt lat="48.07257" lon="7.1225">
        <ele>769.4</ele>
        <time>2025-09-08T06:38:31Z</time>
      </trkpt>
      <trkpt lat="48.0726" lon="7.1225">
        <ele>769.4</ele>
        <time>2025-09-08T06:38:32Z</time>
      </trkpt>
      <trkpt lat="48.07263" lon="7.12251">
        <ele>769.6</ele>
        <time>2025-09-08T06:38:33Z</time>
      </trkpt>
      <trkpt lat="48.07265" lon="7.12251">
        <ele>770</ele>
        <time>2025-09-08T06:38:34Z</time>
      </trkpt>
      <trkpt lat="48.07267" lon="7.12251">
        <ele>770.6</ele>
        <time>2025-09-08T06:38:35Z</time>
      </trkpt>
      <trkpt lat="48.0727" lon="7.12252">
        <ele>771.2</ele>
        <time>2025-09-08T06:38:36Z</time>
      </trkpt>
      <trkpt lat="48.07272" lon="7.12252">
        <ele>771.4</ele>
        <time>2025-09-08T06:38:37Z</time>
      </trkpt>
      <trkpt lat="48.07274" lon="7.12251">
        <ele>772</ele>
        <time>2025-09-08T06:38:38Z</time>
      </trkpt>
      <trkpt lat="48.07277" lon="7.12251">
        <ele>772.6</ele>
        <time>2025-09-08T06:38:39Z</time>
      </trkpt>
      <trkpt lat="48.07279" lon="7.12252">
        <ele>773.4</ele>
        <time>2025-09-08T06:38:40Z</time>
      </trkpt>
      <trkpt lat="48.07281" lon="7.12252">
        <ele>773.8</ele>
        <time>2025-09-08T06:38:41Z</time>
      </trkpt>
      <trkpt lat="48.07283" lon="7.12252">
        <ele>774.4</ele>
        <time>2025-09-08T06:38:42Z</time>
      </trkpt>
      <trkpt lat="48.07285" lon="7.12253">
        <ele>774.8</ele>
        <time>2025-09-08T06:38:43Z</time>
      </trkpt>
      <trkpt lat="48.07288" lon="7.12254">
        <ele>775.4</ele>
        <time>2025-09-08T06:38:44Z</time>
      </trkpt>
      <trkpt lat="48.0729" lon="7.12255">
        <ele>775.6</ele>
        <time>2025-09-08T06:38:45Z</time>
      </trkpt>
      <trkpt lat="48.07292" lon="7.12257">
        <ele>776.2</ele>
        <time>2025-09-08T06:38:46Z</time>
      </trkpt>
      <trkpt lat="48.07294" lon="7.12258">
        <ele>776.8</ele>
        <time>2025-09-08T06:38:47Z</time>
      </trkpt>
      <trkpt lat="48.07296" lon="7.12259">
        <ele>777</ele>
        <time>2025-09-08T06:38:48Z</time>
      </trkpt>
      <trkpt lat="48.07297" lon="7.12261">
        <ele>777.6</ele>
        <time>2025-09-08T06:38:49Z</time>
      </trkpt>
      <trkpt lat="48.07299" lon="7.12262">
        <ele>778</ele>
        <time>2025-09-08T06:38:50Z</time>
      </trkpt>
      <trkpt lat="48.07301" lon="7.12263">
        <ele>778.4</ele>
        <time>2025-09-08T06:38:51Z</time>
      </trkpt>
      <trkpt lat="48.07304" lon="7.12265">
        <ele>778.8</ele>
        <time>2025-09-08T06:38:52Z</time>
      </trkpt>
      <trkpt lat="48.07306" lon="7.12266">
        <ele>779</ele>
        <time>2025-09-08T06:38:53Z</time>
      </trkpt>
      <trkpt lat="48.07308" lon="7.12267">
        <ele>779.4</ele>
        <time>2025-09-08T06:38:54Z</time>
      </trkpt>
      <trkpt lat="48.07311" lon="7.12268">
        <ele>779.8</ele>
        <time>2025-09-08T06:38:55Z</time>
      </trkpt>
      <trkpt lat="48.07313" lon="7.1227">
        <ele>780.2</ele>
        <time>2025-09-08T06:38:56Z</time>
      </trkpt>
      <trkpt lat="48.07315" lon="7.12271">
        <ele>780.4</ele>
        <time>2025-09-08T06:38:57Z</time>
      </trkpt>
      <trkpt lat="48.07318" lon="7.12273">
        <ele>780.6</ele>
        <time>2025-09-08T06:38:58Z</time>
      </trkpt>
      <trkpt lat="48.0732" lon="7.12274">
        <ele>780.6</ele>
        <time>2025-09-08T06:38:59Z</time>
      </trkpt>
      <trkpt lat="48.07322" lon="7.12275">
        <ele>780.8</ele>
        <time>2025-09-08T06:39:00Z</time>
      </trkpt>
      <trkpt lat="48.07324" lon="7.12277">
        <ele>781.2</ele>
        <time>2025-09-08T06:39:01Z</time>
      </trkpt>
      <trkpt lat="48.07326" lon="7.12279">
        <ele>781.4</ele>
        <time>2025-09-08T06:39:02Z</time>
      </trkpt>
      <trkpt lat="48.07328" lon="7.1228">
        <ele>781.6</ele>
        <time>2025-09-08T06:39:03Z</time>
      </trkpt>
      <trkpt lat="48.07329" lon="7.12283">
        <ele>781.8</ele>
        <time>2025-09-08T06:39:04Z</time>
      </trkpt>
      <trkpt lat="48.07331" lon="7.12285">
        <ele>782.2</ele>
        <time>2025-09-08T06:39:05Z</time>
      </trkpt>
      <trkpt lat="48.07333" lon="7.12288">
        <ele>782.6</ele>
        <time>2025-09-08T06:39:06Z</time>
      </trkpt>
      <trkpt lat="48.07335" lon="7.1229">
        <ele>783</ele>
        <time>2025-09-08T06:39:07Z</time>
      </trkpt>
      <trkpt lat="48.07337" lon="7.12293">
        <ele>783.4</ele>
        <time>2025-09-08T06:39:08Z</time>
      </trkpt>
      <trkpt lat="48.07339" lon="7.12295">
        <ele>783.8</ele>
        <time>2025-09-08T06:39:09Z</time>
      </trkpt>
      <trkpt lat="48.07341" lon="7.12297">
        <ele>784.2</ele>
        <time>2025-09-08T06:39:10Z</time>
      </trkpt>
      <trkpt lat="48.07342" lon="7.12299">
        <ele>784.8</ele>
        <time>2025-09-08T06:39:11Z</time>
      </trkpt>
      <trkpt lat="48.07344" lon="7.12301">
        <ele>785.2</ele>
        <time>2025-09-08T06:39:12Z</time>
      </trkpt>
      <trkpt lat="48.07346" lon="7.12304">
        <ele>785.6</ele>
        <time>2025-09-08T06:39:13Z</time>
      </trkpt>
      <trkpt lat="48.07348" lon="7.12305">
        <ele>786</ele>
        <time>2025-09-08T06:39:14Z</time>
      </trkpt>
      <trkpt lat="48.07351" lon="7.12306">
        <ele>786.4</ele>
        <time>2025-09-08T06:39:15Z</time>
      </trkpt>
      <trkpt lat="48.07353" lon="7.12308">
        <ele>787</ele>
        <time>2025-09-08T06:39:16Z</time>
      </trkpt>
      <trkpt lat="48.07355" lon="7.12309">
        <ele>787.2</ele>
        <time>2025-09-08T06:39:17Z</time>
      </trkpt>
      <trkpt lat="48.07358" lon="7.1231">
        <ele>787.6</ele>
        <time>2025-09-08T06:39:18Z</time>
      </trkpt>
      <trkpt lat="48.0736" lon="7.12311">
        <ele>788</ele>
        <time>2025-09-08T06:39:19Z</time>
      </trkpt>
      <trkpt lat="48.07362" lon="7.12311">
        <ele>788.4</ele>
        <time>2025-09-08T06:39:20Z</time>
      </trkpt>
      <trkpt lat="48.07365" lon="7.12311">
        <ele>788.8</ele>
        <time>2025-09-08T06:39:21Z</time>
      </trkpt>
      <trkpt lat="48.07367" lon="7.12311">
        <ele>789.2</ele>
        <time>2025-09-08T06:39:22Z</time>
      </trkpt>
      <trkpt lat="48.0737" lon="7.12311">
        <ele>789.6</ele>
        <time>2025-09-08T06:39:23Z</time>
      </trkpt>
      <trkpt lat="48.07372" lon="7.12312">
        <ele>789.6</ele>
        <time>2025-09-08T06:39:24Z</time>
      </trkpt>
      <trkpt lat="48.07375" lon="7.12312">
        <ele>789.8</ele>
        <time>2025-09-08T06:39:25Z</time>
      </trkpt>
      <trkpt lat="48.07377" lon="7.12312">
        <ele>790.2</ele>
        <time>2025-09-08T06:39:26Z</time>
      </trkpt>
      <trkpt lat="48.07379" lon="7.12313">
        <ele>790.4</ele>
        <time>2025-09-08T06:39:27Z</time>
      </trkpt>
      <trkpt lat="48.07382" lon="7.12314">
        <ele>790.8</ele>
        <time>2025-09-08T06:39:28Z</time>
      </trkpt>
      <trkpt lat="48.07384" lon="7.12314">
        <ele>791</ele>
        <time>2025-09-08T06:39:29Z</time>
      </trkpt>
      <trkpt lat="48.07387" lon="7.12315">
        <ele>791.4</ele>
        <time>2025-09-08T06:39:30Z</time>
      </trkpt>
      <trkpt lat="48.07389" lon="7.12315">
        <ele>791.6</ele>
        <time>2025-09-08T06:39:31Z</time>
      </trkpt>
      <trkpt lat="48.07391" lon="7.12315">
        <ele>791.8</ele>
        <time>2025-09-08T06:39:32Z</time>
      </trkpt>
      <trkpt lat="48.07394" lon="7.12315">
        <ele>792.4</ele>
        <time>2025-09-08T06:39:33Z</time>
      </trkpt>
      <trkpt lat="48.07396" lon="7.12315">
        <ele>793</ele>
        <time>2025-09-08T06:39:34Z</time>
      </trkpt>
      <trkpt lat="48.07398" lon="7.12313">
        <ele>793</ele>
        <time>2025-09-08T06:39:35Z</time>
      </trkpt>
      <trkpt lat="48.07401" lon="7.12313">
        <ele>793.4</ele>
        <time>2025-09-08T06:39:36Z</time>
      </trkpt>
      <trkpt lat="48.07404" lon="7.12312">
        <ele>793.6</ele>
        <time>2025-09-08T06:39:37Z</time>
      </trkpt>
      <trkpt lat="48.07407" lon="7.12311">
        <ele>794</ele>
        <time>2025-09-08T06:39:38Z</time>
      </trkpt>
      <trkpt lat="48.0741" lon="7.1231">
        <ele>794.2</ele>
        <time>2025-09-08T06:39:39Z</time>
      </trkpt>
      <trkpt lat="48.07412" lon="7.12309">
        <ele>794.2</ele>
        <time>2025-09-08T06:39:40Z</time>
      </trkpt>
      <trkpt lat="48.07416" lon="7.12308">
        <ele>794.4</ele>
        <time>2025-09-08T06:39:41Z</time>
      </trkpt>
      <trkpt lat="48.07419" lon="7.12308">
        <ele>794.4</ele>
        <time>2025-09-08T06:39:42Z</time>
      </trkpt>
      <trkpt lat="48.07422" lon="7.12308">
        <ele>794.4</ele>
        <time>2025-09-08T06:39:43Z</time>
      </trkpt>
      <trkpt lat="48.07426" lon="7.12308">
        <ele>794.6</ele>
        <time>2025-09-08T06:39:44Z</time>
      </trkpt>
      <trkpt lat="48.07429" lon="7.12309">
        <ele>794.6</ele>
        <time>2025-09-08T06:39:45Z</time>
      </trkpt>
      <trkpt lat="48.07432" lon="7.12309">
        <ele>794.6</ele>
        <time>2025-09-08T06:39:46Z</time>
      </trkpt>
      <trkpt lat="48.07434" lon="7.12309">
        <ele>794.8</ele>
        <time>2025-09-08T06:39:47Z</time>
      </trkpt>
      <trkpt lat="48.07436" lon="7.12308">
        <ele>794.8</ele>
        <time>2025-09-08T06:39:48Z</time>
      </trkpt>
      <trkpt lat="48.07439" lon="7.12307">
        <ele>794.8</ele>
        <time>2025-09-08T06:39:49Z</time>
      </trkpt>
      <trkpt lat="48.07441" lon="7.12304">
        <ele>794.8</ele>
        <time>2025-09-08T06:39:50Z</time>
      </trkpt>
      <trkpt lat="48.07444" lon="7.12301">
        <ele>794.8</ele>
        <time>2025-09-08T06:39:51Z</time>
      </trkpt>
      <trkpt lat="48.07448" lon="7.12298">
        <ele>794.8</ele>
        <time>2025-09-08T06:39:52Z</time>
      </trkpt>
      <trkpt lat="48.07451" lon="7.12295">
        <ele>794.8</ele>
        <time>2025-09-08T06:39:53Z</time>
      </trkpt>
      <trkpt lat="48.07455" lon="7.12292">
        <ele>794.8</ele>
        <time>2025-09-08T06:39:54Z</time>
      </trkpt>
      <trkpt lat="48.07459" lon="7.1229">
        <ele>794.6</ele>
        <time>2025-09-08T06:39:55Z</time>
      </trkpt>
      <trkpt lat="48.07462" lon="7.12287">
        <ele>794.4</ele>
        <time>2025-09-08T06:39:56Z</time>
      </trkpt>
      <trkpt lat="48.07465" lon="7.12285">
        <ele>794.4</ele>
        <time>2025-09-08T06:39:57Z</time>
      </trkpt>
      <trkpt lat="48.07468" lon="7.12281">
        <ele>794.4</ele>
        <time>2025-09-08T06:39:58Z</time>
      </trkpt>
      <trkpt lat="48.07471" lon="7.12278">
        <ele>794.4</ele>
        <time>2025-09-08T06:39:59Z</time>
      </trkpt>
      <trkpt lat="48.07475" lon="7.12275">
        <ele>794.2</ele>
        <time>2025-09-08T06:40:00Z</time>
      </trkpt>
      <trkpt lat="48.07478" lon="7.12272">
        <ele>794.2</ele>
        <time>2025-09-08T06:40:01Z</time>
      </trkpt>
      <trkpt lat="48.07482" lon="7.12268">
        <ele>794.2</ele>
        <time>2025-09-08T06:40:02Z</time>
      </trkpt>
      <trkpt lat="48.07485" lon="7.12265">
        <ele>794.2</ele>
        <time>2025-09-08T06:40:03Z</time>
      </trkpt>
      <trkpt lat="48.07488" lon="7.12262">
        <ele>794.2</ele>
        <time>2025-09-08T06:40:04Z</time>
      </trkpt>
      <trkpt lat="48.0749" lon="7.12259">
        <ele>794.2</ele>
        <time>2025-09-08T06:40:05Z</time>
      </trkpt>
      <trkpt lat="48.07492" lon="7.12254">
        <ele>794.2</ele>
        <time>2025-09-08T06:40:06Z</time>
      </trkpt>
      <trkpt lat="48.07495" lon="7.1225">
        <ele>794.2</ele>
        <time>2025-09-08T06:40:07Z</time>
      </trkpt>
      <trkpt lat="48.07497" lon="7.12244">
        <ele>794.6</ele>
        <time>2025-09-08T06:40:08Z</time>
      </trkpt>
      <trkpt lat="48.07499" lon="7.12238">
        <ele>794.8</ele>
        <time>2025-09-08T06:40:09Z</time>
      </trkpt>
      <trkpt lat="48.075" lon="7.12233">
        <ele>794.8</ele>
        <time>2025-09-08T06:40:10Z</time>
      </trkpt>
      <trkpt lat="48.07501" lon="7.12228">
        <ele>795</ele>
        <time>2025-09-08T06:40:11Z</time>
      </trkpt>
      <trkpt lat="48.07503" lon="7.12223">
        <ele>795</ele>
        <time>2025-09-08T06:40:12Z</time>
      </trkpt>
      <trkpt lat="48.07504" lon="7.12217">
        <ele>794.6</ele>
        <time>2025-09-08T06:40:13Z</time>
      </trkpt>
      <trkpt lat="48.07504" lon="7.12211">
        <ele>794.2</ele>
        <time>2025-09-08T06:40:14Z</time>
      </trkpt>
      <trkpt lat="48.07505" lon="7.12205">
        <ele>794</ele>
        <time>2025-09-08T06:40:15Z</time>
      </trkpt>
      <trkpt lat="48.07504" lon="7.12198">
        <ele>792.8</ele>
        <time>2025-09-08T06:40:16Z</time>
      </trkpt>
      <trkpt lat="48.07504" lon="7.12192">
        <ele>792.8</ele>
        <time>2025-09-08T06:40:17Z</time>
      </trkpt>
      <trkpt lat="48.07503" lon="7.12186">
        <ele>792.8</ele>
        <time>2025-09-08T06:40:18Z</time>
      </trkpt>
      <trkpt lat="48.07502" lon="7.1218">
        <ele>792.8</ele>
        <time>2025-09-08T06:40:19Z</time>
      </trkpt>
      <trkpt lat="48.07501" lon="7.12174">
        <ele>792.8</ele>
        <time>2025-09-08T06:40:20Z</time>
      </trkpt>
      <trkpt lat="48.07499" lon="7.12168">
        <ele>793</ele>
        <time>2025-09-08T06:40:21Z</time>
      </trkpt>
      <trkpt lat="48.07497" lon="7.12162">
        <ele>793</ele>
        <time>2025-09-08T06:40:22Z</time>
      </trkpt>
      <trkpt lat="48.07494" lon="7.12157">
        <ele>793.2</ele>
        <time>2025-09-08T06:40:23Z</time>
      </trkpt>
      <trkpt lat="48.07492" lon="7.12151">
        <ele>793.2</ele>
        <time>2025-09-08T06:40:24Z</time>
      </trkpt>
      <trkpt lat="48.0749" lon="7.12146">
        <ele>793.2</ele>
        <time>2025-09-08T06:40:25Z</time>
      </trkpt>
      <trkpt lat="48.07489" lon="7.12141">
        <ele>793.2</ele>
        <time>2025-09-08T06:40:26Z</time>
      </trkpt>
      <trkpt lat="48.07487" lon="7.12135">
        <ele>793.4</ele>
        <time>2025-09-08T06:40:27Z</time>
      </trkpt>
      <trkpt lat="48.07486" lon="7.1213">
        <ele>793.4</ele>
        <time>2025-09-08T06:40:28Z</time>
      </trkpt>
      <trkpt lat="48.07485" lon="7.12124">
        <ele>793.6</ele>
        <time>2025-09-08T06:40:29Z</time>
      </trkpt>
      <trkpt lat="48.07484" lon="7.12119">
        <ele>793.8</ele>
        <time>2025-09-08T06:40:30Z</time>
      </trkpt>
      <trkpt lat="48.07483" lon="7.12114">
        <ele>794</ele>
        <time>2025-09-08T06:40:31Z</time>
      </trkpt>
      <trkpt lat="48.07483" lon="7.12109">
        <ele>794</ele>
        <time>2025-09-08T06:40:32Z</time>
      </trkpt>
      <trkpt lat="48.07483" lon="7.12104">
        <ele>794.4</ele>
        <time>2025-09-08T06:40:33Z</time>
      </trkpt>
      <trkpt lat="48.07485" lon="7.121">
        <ele>794.6</ele>
        <time>2025-09-08T06:40:34Z</time>
      </trkpt>
      <trkpt lat="48.07485" lon="7.12096">
        <ele>794.6</ele>
        <time>2025-09-08T06:40:35Z</time>
      </trkpt>
      <trkpt lat="48.07485" lon="7.12093">
        <ele>794.8</ele>
        <time>2025-09-08T06:40:36Z</time>
      </trkpt>
      <trkpt lat="48.07484" lon="7.1209">
        <ele>795</ele>
        <time>2025-09-08T06:40:37Z</time>
      </trkpt>
      <trkpt lat="48.07483" lon="7.12086">
        <ele>795</ele>
        <time>2025-09-08T06:40:38Z</time>
      </trkpt>
      <trkpt lat="48.07482" lon="7.12083">
        <ele>795</ele>
        <time>2025-09-08T06:40:39Z</time>
      </trkpt>
      <trkpt lat="48.07481" lon="7.1208">
        <ele>795.2</ele>
        <time>2025-09-08T06:40:40Z</time>
      </trkpt>
      <trkpt lat="48.0748" lon="7.12076">
        <ele>795.2</ele>
        <time>2025-09-08T06:40:41Z</time>
      </trkpt>
      <trkpt lat="48.0748" lon="7.12073">
        <ele>795.2</ele>
        <time>2025-09-08T06:40:42Z</time>
      </trkpt>
      <trkpt lat="48.07479" lon="7.12069">
        <ele>795.2</ele>
        <time>2025-09-08T06:40:43Z</time>
      </trkpt>
      <trkpt lat="48.07477" lon="7.12065">
        <ele>795.2</ele>
        <time>2025-09-08T06:40:44Z</time>
      </trkpt>
      <trkpt lat="48.07475" lon="7.1206">
        <ele>795.2</ele>
        <time>2025-09-08T06:40:45Z</time>
      </trkpt>
      <trkpt lat="48.07472" lon="7.12055">
        <ele>795</ele>
        <time>2025-09-08T06:40:46Z</time>
      </trkpt>
      <trkpt lat="48.07468" lon="7.1205">
        <ele>795</ele>
        <time>2025-09-08T06:40:47Z</time>
      </trkpt>
      <trkpt lat="48.07464" lon="7.12045">
        <ele>794.8</ele>
        <time>2025-09-08T06:40:48Z</time>
      </trkpt>
      <trkpt lat="48.07459" lon="7.12039">
        <ele>794.6</ele>
        <time>2025-09-08T06:40:49Z</time>
      </trkpt>
      <trkpt lat="48.07455" lon="7.12032">
        <ele>794.2</ele>
        <time>2025-09-08T06:40:50Z</time>
      </trkpt>
      <trkpt lat="48.07449" lon="7.12028">
        <ele>793.8</ele>
        <time>2025-09-08T06:40:51Z</time>
      </trkpt>
      <trkpt lat="48.07443" lon="7.12024">
        <ele>793.4</ele>
        <time>2025-09-08T06:40:52Z</time>
      </trkpt>
      <trkpt lat="48.07438" lon="7.12018">
        <ele>792.8</ele>
        <time>2025-09-08T06:40:53Z</time>
      </trkpt>
      <trkpt lat="48.07432" lon="7.12012">
        <ele>792.2</ele>
        <time>2025-09-08T06:40:54Z</time>
      </trkpt>
      <trkpt lat="48.07427" lon="7.12006">
        <ele>791.8</ele>
        <time>2025-09-08T06:40:55Z</time>
      </trkpt>
      <trkpt lat="48.07422" lon="7.12001">
        <ele>791.2</ele>
        <time>2025-09-08T06:40:56Z</time>
      </trkpt>
      <trkpt lat="48.07418" lon="7.11997">
        <ele>790.8</ele>
        <time>2025-09-08T06:40:57Z</time>
      </trkpt>
      <trkpt lat="48.07414" lon="7.11993">
        <ele>790.8</ele>
        <time>2025-09-08T06:40:58Z</time>
      </trkpt>
      <trkpt lat="48.0741" lon="7.11989">
        <ele>790.6</ele>
        <time>2025-09-08T06:40:59Z</time>
      </trkpt>
      <trkpt lat="48.07407" lon="7.11987">
        <ele>790.4</ele>
        <time>2025-09-08T06:41:00Z</time>
      </trkpt>
      <trkpt lat="48.07402" lon="7.11985">
        <ele>790.4</ele>
        <time>2025-09-08T06:41:01Z</time>
      </trkpt>
      <trkpt lat="48.07398" lon="7.11982">
        <ele>790.4</ele>
        <time>2025-09-08T06:41:02Z</time>
      </trkpt>
      <trkpt lat="48.07393" lon="7.1198">
        <ele>790.4</ele>
        <time>2025-09-08T06:41:03Z</time>
      </trkpt>
      <trkpt lat="48.07388" lon="7.11978">
        <ele>790.4</ele>
        <time>2025-09-08T06:41:04Z</time>
      </trkpt>
      <trkpt lat="48.07383" lon="7.11978">
        <ele>790.2</ele>
        <time>2025-09-08T06:41:05Z</time>
      </trkpt>
      <trkpt lat="48.07379" lon="7.11978">
        <ele>790.2</ele>
        <time>2025-09-08T06:41:06Z</time>
      </trkpt>
      <trkpt lat="48.07375" lon="7.11978">
        <ele>789.8</ele>
        <time>2025-09-08T06:41:07Z</time>
      </trkpt>
      <trkpt lat="48.0737" lon="7.11977">
        <ele>789.8</ele>
        <time>2025-09-08T06:41:08Z</time>
      </trkpt>
      <trkpt lat="48.07366" lon="7.11975">
        <ele>789.4</ele>
        <time>2025-09-08T06:41:09Z</time>
      </trkpt>
      <trkpt lat="48.07361" lon="7.11973">
        <ele>789</ele>
        <time>2025-09-08T06:41:10Z</time>
      </trkpt>
      <trkpt lat="48.07355" lon="7.11974">
        <ele>788.8</ele>
        <time>2025-09-08T06:41:11Z</time>
      </trkpt>
      <trkpt lat="48.07351" lon="7.11975">
        <ele>788</ele>
        <time>2025-09-08T06:41:12Z</time>
      </trkpt>
      <trkpt lat="48.07347" lon="7.11975">
        <ele>787.4</ele>
        <time>2025-09-08T06:41:13Z</time>
      </trkpt>
      <trkpt lat="48.07343" lon="7.11972">
        <ele>786.2</ele>
        <time>2025-09-08T06:41:14Z</time>
      </trkpt>
      <trkpt lat="48.07339" lon="7.1197">
        <ele>786.2</ele>
        <time>2025-09-08T06:41:15Z</time>
      </trkpt>
      <trkpt lat="48.07335" lon="7.11966">
        <ele>785.6</ele>
        <time>2025-09-08T06:41:16Z</time>
      </trkpt>
      <trkpt lat="48.0733" lon="7.11963">
        <ele>785.4</ele>
        <time>2025-09-08T06:41:17Z</time>
      </trkpt>
      <trkpt lat="48.07326" lon="7.11959">
        <ele>784.8</ele>
        <time>2025-09-08T06:41:18Z</time>
      </trkpt>
      <trkpt lat="48.07323" lon="7.11955">
        <ele>784.4</ele>
        <time>2025-09-08T06:41:19Z</time>
      </trkpt>
      <trkpt lat="48.07321" lon="7.1195">
        <ele>784.2</ele>
        <time>2025-09-08T06:41:20Z</time>
      </trkpt>
      <trkpt lat="48.07318" lon="7.11947">
        <ele>784</ele>
        <time>2025-09-08T06:41:21Z</time>
      </trkpt>
      <trkpt lat="48.07314" lon="7.11943">
        <ele>783.6</ele>
        <time>2025-09-08T06:41:22Z</time>
      </trkpt>
      <trkpt lat="48.0731" lon="7.1194">
        <ele>783.4</ele>
        <time>2025-09-08T06:41:23Z</time>
      </trkpt>
      <trkpt lat="48.07306" lon="7.11939">
        <ele>783.2</ele>
        <time>2025-09-08T06:41:24Z</time>
      </trkpt>
      <trkpt lat="48.07303" lon="7.11939">
        <ele>782.8</ele>
        <time>2025-09-08T06:41:25Z</time>
      </trkpt>
      <trkpt lat="48.073" lon="7.1194">
        <ele>782.6</ele>
        <time>2025-09-08T06:41:26Z</time>
      </trkpt>
      <trkpt lat="48.07297" lon="7.11941">
        <ele>782</ele>
        <time>2025-09-08T06:41:27Z</time>
      </trkpt>
      <trkpt lat="48.07294" lon="7.11939">
        <ele>781.2</ele>
        <time>2025-09-08T06:41:28Z</time>
      </trkpt>
      <trkpt lat="48.0729" lon="7.11937">
        <ele>780.6</ele>
        <time>2025-09-08T06:41:29Z</time>
      </trkpt>
      <trkpt lat="48.07286" lon="7.11936">
        <ele>780.2</ele>
        <time>2025-09-08T06:41:30Z</time>
      </trkpt>
      <trkpt lat="48.07282" lon="7.11936">
        <ele>779</ele>
        <time>2025-09-08T06:41:31Z</time>
      </trkpt>
      <trkpt lat="48.07278" lon="7.11936">
        <ele>778.6</ele>
        <time>2025-09-08T06:41:32Z</time>
      </trkpt>
      <trkpt lat="48.07274" lon="7.11935">
        <ele>777.8</ele>
        <time>2025-09-08T06:41:33Z</time>
      </trkpt>
      <trkpt lat="48.0727" lon="7.11933">
        <ele>777</ele>
        <time>2025-09-08T06:41:34Z</time>
      </trkpt>
      <trkpt lat="48.07267" lon="7.1193">
        <ele>776</ele>
        <time>2025-09-08T06:41:35Z</time>
      </trkpt>
      <trkpt lat="48.07263" lon="7.11925">
        <ele>775.2</ele>
        <time>2025-09-08T06:41:36Z</time>
      </trkpt>
      <trkpt lat="48.07258" lon="7.11922">
        <ele>774.6</ele>
        <time>2025-09-08T06:41:37Z</time>
      </trkpt>
      <trkpt lat="48.07253" lon="7.11919">
        <ele>773.6</ele>
        <time>2025-09-08T06:41:38Z</time>
      </trkpt>
      <trkpt lat="48.0725" lon="7.11915">
        <ele>772.2</ele>
        <time>2025-09-08T06:41:39Z</time>
      </trkpt>
      <trkpt lat="48.07247" lon="7.1191">
        <ele>771.4</ele>
        <time>2025-09-08T06:41:40Z</time>
      </trkpt>
      <trkpt lat="48.07246" lon="7.11904">
        <ele>770</ele>
        <time>2025-09-08T06:41:41Z</time>
      </trkpt>
      <trkpt lat="48.07244" lon="7.11897">
        <ele>769.4</ele>
        <time>2025-09-08T06:41:42Z</time>
      </trkpt>
      <trkpt lat="48.07243" lon="7.11889">
        <ele>768.6</ele>
        <time>2025-09-08T06:41:43Z</time>
      </trkpt>
      <trkpt lat="48.07241" lon="7.11881">
        <ele>767.6</ele>
        <time>2025-09-08T06:41:44Z</time>
      </trkpt>
      <trkpt lat="48.07239" lon="7.11874">
        <ele>766.4</ele>
        <time>2025-09-08T06:41:45Z</time>
      </trkpt>
      <trkpt lat="48.07237" lon="7.11866">
        <ele>765.2</ele>
        <time>2025-09-08T06:41:46Z</time>
      </trkpt>
      <trkpt lat="48.07236" lon="7.11858">
        <ele>764.2</ele>
        <time>2025-09-08T06:41:47Z</time>
      </trkpt>
      <trkpt lat="48.07234" lon="7.11852">
        <ele>763</ele>
        <time>2025-09-08T06:41:48Z</time>
      </trkpt>
      <trkpt lat="48.07232" lon="7.11846">
        <ele>762</ele>
        <time>2025-09-08T06:41:49Z</time>
      </trkpt>
      <trkpt lat="48.07229" lon="7.11839">
        <ele>760.8</ele>
        <time>2025-09-08T06:41:50Z</time>
      </trkpt>
      <trkpt lat="48.07227" lon="7.11832">
        <ele>760.2</ele>
        <time>2025-09-08T06:41:51Z</time>
      </trkpt>
      <trkpt lat="48.07225" lon="7.11822">
        <ele>759.4</ele>
        <time>2025-09-08T06:41:52Z</time>
      </trkpt>
      <trkpt lat="48.07225" lon="7.11813">
        <ele>758.2</ele>
        <time>2025-09-08T06:41:53Z</time>
      </trkpt>
      <trkpt lat="48.07226" lon="7.11803">
        <ele>757.4</ele>
        <time>2025-09-08T06:41:54Z</time>
      </trkpt>
      <trkpt lat="48.07227" lon="7.11795">
        <ele>756.8</ele>
        <time>2025-09-08T06:41:55Z</time>
      </trkpt>
      <trkpt lat="48.07226" lon="7.11786">
        <ele>756</ele>
        <time>2025-09-08T06:41:56Z</time>
      </trkpt>
      <trkpt lat="48.07224" lon="7.11778">
        <ele>755.2</ele>
        <time>2025-09-08T06:41:57Z</time>
      </trkpt>
      <trkpt lat="48.07223" lon="7.11771">
        <ele>754.8</ele>
        <time>2025-09-08T06:41:58Z</time>
      </trkpt>
      <trkpt lat="48.07221" lon="7.11764">
        <ele>754.2</ele>
        <time>2025-09-08T06:41:59Z</time>
      </trkpt>
      <trkpt lat="48.0722" lon="7.11756">
        <ele>753.6</ele>
        <time>2025-09-08T06:42:00Z</time>
      </trkpt>
      <trkpt lat="48.0722" lon="7.11747">
        <ele>753</ele>
        <time>2025-09-08T06:42:01Z</time>
      </trkpt>
      <trkpt lat="48.0722" lon="7.11738">
        <ele>752.2</ele>
        <time>2025-09-08T06:42:02Z</time>
      </trkpt>
      <trkpt lat="48.07218" lon="7.11728">
        <ele>751.2</ele>
        <time>2025-09-08T06:42:03Z</time>
      </trkpt>
      <trkpt lat="48.07217" lon="7.11718">
        <ele>750.4</ele>
        <time>2025-09-08T06:42:04Z</time>
      </trkpt>
      <trkpt lat="48.07217" lon="7.11708">
        <ele>749.4</ele>
        <time>2025-09-08T06:42:05Z</time>
      </trkpt>
      <trkpt lat="48.07218" lon="7.11701">
        <ele>748.6</ele>
        <time>2025-09-08T06:42:06Z</time>
      </trkpt>
      <trkpt lat="48.07218" lon="7.11693">
        <ele>747.2</ele>
        <time>2025-09-08T06:42:07Z</time>
      </trkpt>
      <trkpt lat="48.07218" lon="7.11686">
        <ele>747</ele>
        <time>2025-09-08T06:42:08Z</time>
      </trkpt>
      <trkpt lat="48.07219" lon="7.11681">
        <ele>746.6</ele>
        <time>2025-09-08T06:42:09Z</time>
      </trkpt>
      <trkpt lat="48.0722" lon="7.11677">
        <ele>746.6</ele>
        <time>2025-09-08T06:42:10Z</time>
      </trkpt>
      <trkpt lat="48.07221" lon="7.11672">
        <ele>746.6</ele>
        <time>2025-09-08T06:42:11Z</time>
      </trkpt>
      <trkpt lat="48.07221" lon="7.11668">
        <ele>746.6</ele>
        <time>2025-09-08T06:42:12Z</time>
      </trkpt>
      <trkpt lat="48.07222" lon="7.11664">
        <ele>746.6</ele>
        <time>2025-09-08T06:42:13Z</time>
      </trkpt>
      <trkpt lat="48.07223" lon="7.1166">
        <ele>746.8</ele>
        <time>2025-09-08T06:42:14Z</time>
      </trkpt>
      <trkpt lat="48.07225" lon="7.11657">
        <ele>747</ele>
        <time>2025-09-08T06:42:15Z</time>
      </trkpt>
      <trkpt lat="48.07226" lon="7.11652">
        <ele>747.4</ele>
        <time>2025-09-08T06:42:16Z</time>
      </trkpt>
      <trkpt lat="48.07227" lon="7.11648">
        <ele>747.4</ele>
        <time>2025-09-08T06:42:17Z</time>
      </trkpt>
      <trkpt lat="48.07228" lon="7.11644">
        <ele>747.6</ele>
        <time>2025-09-08T06:42:18Z</time>
      </trkpt>
      <trkpt lat="48.07229" lon="7.11641">
        <ele>747.8</ele>
        <time>2025-09-08T06:42:19Z</time>
      </trkpt>
      <trkpt lat="48.0723" lon="7.11637">
        <ele>748</ele>
        <time>2025-09-08T06:42:20Z</time>
      </trkpt>
      <trkpt lat="48.07231" lon="7.11634">
        <ele>748.4</ele>
        <time>2025-09-08T06:42:21Z</time>
      </trkpt>
      <trkpt lat="48.07232" lon="7.1163">
        <ele>748.8</ele>
        <time>2025-09-08T06:42:22Z</time>
      </trkpt>
      <trkpt lat="48.07233" lon="7.11627">
        <ele>749.2</ele>
        <time>2025-09-08T06:42:23Z</time>
      </trkpt>
      <trkpt lat="48.07233" lon="7.11624">
        <ele>749.4</ele>
        <time>2025-09-08T06:42:24Z</time>
      </trkpt>
      <trkpt lat="48.07234" lon="7.11621">
        <ele>749.6</ele>
        <time>2025-09-08T06:42:25Z</time>
      </trkpt>
      <trkpt lat="48.07235" lon="7.11618">
        <ele>749.8</ele>
        <time>2025-09-08T06:42:26Z</time>
      </trkpt>
      <trkpt lat="48.07236" lon="7.11615">
        <ele>750</ele>
        <time>2025-09-08T06:42:27Z</time>
      </trkpt>
      <trkpt lat="48.07237" lon="7.11612">
        <ele>750.4</ele>
        <time>2025-09-08T06:42:28Z</time>
      </trkpt>
      <trkpt lat="48.07238" lon="7.11609">
        <ele>750.6</ele>
        <time>2025-09-08T06:42:29Z</time>
      </trkpt>
      <trkpt lat="48.07239" lon="7.11605">
        <ele>750.8</ele>
        <time>2025-09-08T06:42:30Z</time>
      </trkpt>
      <trkpt lat="48.0724" lon="7.11601">
        <ele>751</ele>
        <time>2025-09-08T06:42:31Z</time>
      </trkpt>
      <trkpt lat="48.07241" lon="7.11596">
        <ele>751.4</ele>
        <time>2025-09-08T06:42:32Z</time>
      </trkpt>
      <trkpt lat="48.07242" lon="7.11591">
        <ele>751.4</ele>
        <time>2025-09-08T06:42:33Z</time>
      </trkpt>
      <trkpt lat="48.07243" lon="7.11586">
        <ele>751.6</ele>
        <time>2025-09-08T06:42:34Z</time>
      </trkpt>
      <trkpt lat="48.07244" lon="7.11581">
        <ele>751.6</ele>
        <time>2025-09-08T06:42:35Z</time>
      </trkpt>
      <trkpt lat="48.07245" lon="7.11575">
        <ele>751.6</ele>
        <time>2025-09-08T06:42:36Z</time>
      </trkpt>
      <trkpt lat="48.07246" lon="7.11569">
        <ele>751.6</ele>
        <time>2025-09-08T06:42:37Z</time>
      </trkpt>
      <trkpt lat="48.07248" lon="7.11564">
        <ele>751.6</ele>
        <time>2025-09-08T06:42:38Z</time>
      </trkpt>
      <trkpt lat="48.07249" lon="7.11558">
        <ele>751.6</ele>
        <time>2025-09-08T06:42:39Z</time>
      </trkpt>
      <trkpt lat="48.0725" lon="7.11553">
        <ele>751.4</ele>
        <time>2025-09-08T06:42:40Z</time>
      </trkpt>
      <trkpt lat="48.07251" lon="7.11548">
        <ele>751.4</ele>
        <time>2025-09-08T06:42:41Z</time>
      </trkpt>
      <trkpt lat="48.07252" lon="7.11542">
        <ele>751.4</ele>
        <time>2025-09-08T06:42:42Z</time>
      </trkpt>
      <trkpt lat="48.07253" lon="7.11537">
        <ele>751.2</ele>
        <time>2025-09-08T06:42:43Z</time>
      </trkpt>
      <trkpt lat="48.07255" lon="7.11531">
        <ele>751</ele>
        <time>2025-09-08T06:42:44Z</time>
      </trkpt>
      <trkpt lat="48.07256" lon="7.11524">
        <ele>751</ele>
        <time>2025-09-08T06:42:45Z</time>
      </trkpt>
      <trkpt lat="48.07258" lon="7.11518">
        <ele>750.8</ele>
        <time>2025-09-08T06:42:46Z</time>
      </trkpt>
      <trkpt lat="48.07261" lon="7.11512">
        <ele>750.8</ele>
        <time>2025-09-08T06:42:47Z</time>
      </trkpt>
      <trkpt lat="48.07263" lon="7.11506">
        <ele>750.6</ele>
        <time>2025-09-08T06:42:48Z</time>
      </trkpt>
      <trkpt lat="48.07265" lon="7.11501">
        <ele>750.6</ele>
        <time>2025-09-08T06:42:49Z</time>
      </trkpt>
      <trkpt lat="48.07267" lon="7.11495">
        <ele>750.6</ele>
        <time>2025-09-08T06:42:50Z</time>
      </trkpt>
      <trkpt lat="48.07269" lon="7.11489">
        <ele>750.4</ele>
        <time>2025-09-08T06:42:51Z</time>
      </trkpt>
      <trkpt lat="48.07272" lon="7.11483">
        <ele>750.4</ele>
        <time>2025-09-08T06:42:52Z</time>
      </trkpt>
      <trkpt lat="48.07275" lon="7.11478">
        <ele>750.4</ele>
        <time>2025-09-08T06:42:53Z</time>
      </trkpt>
      <trkpt lat="48.07277" lon="7.11473">
        <ele>750.4</ele>
        <time>2025-09-08T06:42:54Z</time>
      </trkpt>
      <trkpt lat="48.0728" lon="7.11468">
        <ele>750.4</ele>
        <time>2025-09-08T06:42:55Z</time>
      </trkpt>
      <trkpt lat="48.07283" lon="7.11463">
        <ele>750.4</ele>
        <time>2025-09-08T06:42:56Z</time>
      </trkpt>
      <trkpt lat="48.07287" lon="7.11458">
        <ele>750.4</ele>
        <time>2025-09-08T06:42:57Z</time>
      </trkpt>
      <trkpt lat="48.0729" lon="7.11454">
        <ele>750.4</ele>
        <time>2025-09-08T06:42:58Z</time>
      </trkpt>
      <trkpt lat="48.07294" lon="7.11451">
        <ele>750.4</ele>
        <time>2025-09-08T06:42:59Z</time>
      </trkpt>
      <trkpt lat="48.07298" lon="7.11447">
        <ele>750.2</ele>
        <time>2025-09-08T06:43:00Z</time>
      </trkpt>
      <trkpt lat="48.07302" lon="7.11444">
        <ele>749.8</ele>
        <time>2025-09-08T06:43:01Z</time>
      </trkpt>
      <trkpt lat="48.07306" lon="7.11441">
        <ele>749.8</ele>
        <time>2025-09-08T06:43:02Z</time>
      </trkpt>
      <trkpt lat="48.0731" lon="7.11438">
        <ele>749.6</ele>
        <time>2025-09-08T06:43:03Z</time>
      </trkpt>
      <trkpt lat="48.07314" lon="7.11435">
        <ele>749.4</ele>
        <time>2025-09-08T06:43:04Z</time>
      </trkpt>
      <trkpt lat="48.07318" lon="7.11432">
        <ele>749.2</ele>
        <time>2025-09-08T06:43:05Z</time>
      </trkpt>
      <trkpt lat="48.07322" lon="7.11429">
        <ele>749</ele>
        <time>2025-09-08T06:43:06Z</time>
      </trkpt>
      <trkpt lat="48.07326" lon="7.11426">
        <ele>748.8</ele>
        <time>2025-09-08T06:43:07Z</time>
      </trkpt>
      <trkpt lat="48.0733" lon="7.11422">
        <ele>748.8</ele>
        <time>2025-09-08T06:43:08Z</time>
      </trkpt>
      <trkpt lat="48.07334" lon="7.1142">
        <ele>748.8</ele>
        <time>2025-09-08T06:43:09Z</time>
      </trkpt>
      <trkpt lat="48.07338" lon="7.11417">
        <ele>748.6</ele>
        <time>2025-09-08T06:43:10Z</time>
      </trkpt>
      <trkpt lat="48.07343" lon="7.11414">
        <ele>748.4</ele>
        <time>2025-09-08T06:43:11Z</time>
      </trkpt>
      <trkpt lat="48.07348" lon="7.11412">
        <ele>748.2</ele>
        <time>2025-09-08T06:43:12Z</time>
      </trkpt>
      <trkpt lat="48.07352" lon="7.1141">
        <ele>748</ele>
        <time>2025-09-08T06:43:13Z</time>
      </trkpt>
      <trkpt lat="48.07357" lon="7.11409">
        <ele>747.8</ele>
        <time>2025-09-08T06:43:14Z</time>
      </trkpt>
      <trkpt lat="48.07361" lon="7.11409">
        <ele>747.6</ele>
        <time>2025-09-08T06:43:15Z</time>
      </trkpt>
      <trkpt lat="48.07366" lon="7.11409">
        <ele>747.6</ele>
        <time>2025-09-08T06:43:16Z</time>
      </trkpt>
      <trkpt lat="48.0737" lon="7.11409">
        <ele>747.6</ele>
        <time>2025-09-08T06:43:17Z</time>
      </trkpt>
      <trkpt lat="48.07375" lon="7.11409">
        <ele>747.6</ele>
        <time>2025-09-08T06:43:18Z</time>
      </trkpt>
      <trkpt lat="48.07379" lon="7.11409">
        <ele>747.6</ele>
        <time>2025-09-08T06:43:19Z</time>
      </trkpt>
      <trkpt lat="48.07384" lon="7.1141">
        <ele>747.6</ele>
        <time>2025-09-08T06:43:20Z</time>
      </trkpt>
      <trkpt lat="48.07389" lon="7.11409">
        <ele>747.6</ele>
        <time>2025-09-08T06:43:21Z</time>
      </trkpt>
      <trkpt lat="48.07393" lon="7.1141">
        <ele>747.8</ele>
        <time>2025-09-08T06:43:22Z</time>
      </trkpt>
      <trkpt lat="48.07398" lon="7.1141">
        <ele>748</ele>
        <time>2025-09-08T06:43:23Z</time>
      </trkpt>
      <trkpt lat="48.07403" lon="7.1141">
        <ele>748</ele>
        <time>2025-09-08T06:43:24Z</time>
      </trkpt>
      <trkpt lat="48.07407" lon="7.11409">
        <ele>748.2</ele>
        <time>2025-09-08T06:43:25Z</time>
      </trkpt>
      <trkpt lat="48.07411" lon="7.11409">
        <ele>748.2</ele>
        <time>2025-09-08T06:43:26Z</time>
      </trkpt>
      <trkpt lat="48.07416" lon="7.11408">
        <ele>748.4</ele>
        <time>2025-09-08T06:43:27Z</time>
      </trkpt>
      <trkpt lat="48.0742" lon="7.11408">
        <ele>748.4</ele>
        <time>2025-09-08T06:43:28Z</time>
      </trkpt>
      <trkpt lat="48.07424" lon="7.11407">
        <ele>748.4</ele>
        <time>2025-09-08T06:43:29Z</time>
      </trkpt>
      <trkpt lat="48.07428" lon="7.11407">
        <ele>748.6</ele>
        <time>2025-09-08T06:43:30Z</time>
      </trkpt>
      <trkpt lat="48.07433" lon="7.11407">
        <ele>748.8</ele>
        <time>2025-09-08T06:43:31Z</time>
      </trkpt>
      <trkpt lat="48.07437" lon="7.11407">
        <ele>748.8</ele>
        <time>2025-09-08T06:43:32Z</time>
      </trkpt>
      <trkpt lat="48.07441" lon="7.11408">
        <ele>749</ele>
        <time>2025-09-08T06:43:33Z</time>
      </trkpt>
      <trkpt lat="48.07445" lon="7.11407">
        <ele>749.2</ele>
        <time>2025-09-08T06:43:34Z</time>
      </trkpt>
      <trkpt lat="48.07449" lon="7.11407">
        <ele>749.4</ele>
        <time>2025-09-08T06:43:35Z</time>
      </trkpt>
      <trkpt lat="48.07453" lon="7.11406">
        <ele>749.4</ele>
        <time>2025-09-08T06:43:36Z</time>
      </trkpt>
      <trkpt lat="48.07457" lon="7.11405">
        <ele>749.4</ele>
        <time>2025-09-08T06:43:37Z</time>
      </trkpt>
      <trkpt lat="48.0746" lon="7.11405">
        <ele>749.6</ele>
        <time>2025-09-08T06:43:38Z</time>
      </trkpt>
      <trkpt lat="48.07464" lon="7.11405">
        <ele>750</ele>
        <time>2025-09-08T06:43:39Z</time>
      </trkpt>
      <trkpt lat="48.07468" lon="7.11405">
        <ele>750.2</ele>
        <time>2025-09-08T06:43:40Z</time>
      </trkpt>
      <trkpt lat="48.07471" lon="7.11406">
        <ele>750.4</ele>
        <time>2025-09-08T06:43:41Z</time>
      </trkpt>
      <trkpt lat="48.07475" lon="7.11406">
        <ele>750.6</ele>
        <time>2025-09-08T06:43:42Z</time>
      </trkpt>
      <trkpt lat="48.07478" lon="7.11406">
        <ele>750.6</ele>
        <time>2025-09-08T06:43:43Z</time>
      </trkpt>
      <trkpt lat="48.07482" lon="7.11407">
        <ele>750.8</ele>
        <time>2025-09-08T06:43:44Z</time>
      </trkpt>
      <trkpt lat="48.07486" lon="7.11407">
        <ele>750.8</ele>
        <time>2025-09-08T06:43:45Z</time>
      </trkpt>
      <trkpt lat="48.0749" lon="7.11406">
        <ele>751</ele>
        <time>2025-09-08T06:43:46Z</time>
      </trkpt>
      <trkpt lat="48.07495" lon="7.11405">
        <ele>751</ele>
        <time>2025-09-08T06:43:47Z</time>
      </trkpt>
      <trkpt lat="48.07499" lon="7.11403">
        <ele>751</ele>
        <time>2025-09-08T06:43:48Z</time>
      </trkpt>
      <trkpt lat="48.07504" lon="7.11402">
        <ele>751.2</ele>
        <time>2025-09-08T06:43:49Z</time>
      </trkpt>
      <trkpt lat="48.07508" lon="7.11401">
        <ele>751.2</ele>
        <time>2025-09-08T06:43:50Z</time>
      </trkpt>
      <trkpt lat="48.07512" lon="7.114">
        <ele>751.2</ele>
        <time>2025-09-08T06:43:51Z</time>
      </trkpt>
      <trkpt lat="48.07516" lon="7.114">
        <ele>751.2</ele>
        <time>2025-09-08T06:43:52Z</time>
      </trkpt>
      <trkpt lat="48.0752" lon="7.114">
        <ele>751.2</ele>
        <time>2025-09-08T06:43:53Z</time>
      </trkpt>
      <trkpt lat="48.07523" lon="7.11399">
        <ele>751.2</ele>
        <time>2025-09-08T06:43:54Z</time>
      </trkpt>
      <trkpt lat="48.07527" lon="7.11399">
        <ele>751.2</ele>
        <time>2025-09-08T06:43:55Z</time>
      </trkpt>
      <trkpt lat="48.07531" lon="7.11399">
        <ele>751.4</ele>
        <time>2025-09-08T06:43:56Z</time>
      </trkpt>
      <trkpt lat="48.07534" lon="7.11399">
        <ele>751.4</ele>
        <time>2025-09-08T06:43:57Z</time>
      </trkpt>
      <trkpt lat="48.07537" lon="7.114">
        <ele>751.4</ele>
        <time>2025-09-08T06:43:58Z</time>
      </trkpt>
      <trkpt lat="48.0754" lon="7.114">
        <ele>751.4</ele>
        <time>2025-09-08T06:43:59Z</time>
      </trkpt>
      <trkpt lat="48.07544" lon="7.11401">
        <ele>751.8</ele>
        <time>2025-09-08T06:44:00Z</time>
      </trkpt>
      <trkpt lat="48.07547" lon="7.11402">
        <ele>752</ele>
        <time>2025-09-08T06:44:01Z</time>
      </trkpt>
      <trkpt lat="48.0755" lon="7.11403">
        <ele>752.2</ele>
        <time>2025-09-08T06:44:02Z</time>
      </trkpt>
      <trkpt lat="48.07553" lon="7.11405">
        <ele>752.4</ele>
        <time>2025-09-08T06:44:03Z</time>
      </trkpt>
      <trkpt lat="48.07557" lon="7.11407">
        <ele>752.6</ele>
        <time>2025-09-08T06:44:04Z</time>
      </trkpt>
      <trkpt lat="48.07561" lon="7.11408">
        <ele>752.6</ele>
        <time>2025-09-08T06:44:05Z</time>
      </trkpt>
      <trkpt lat="48.07565" lon="7.11411">
        <ele>753</ele>
        <time>2025-09-08T06:44:06Z</time>
      </trkpt>
      <trkpt lat="48.07568" lon="7.11413">
        <ele>753.2</ele>
        <time>2025-09-08T06:44:07Z</time>
      </trkpt>
      <trkpt lat="48.07572" lon="7.11415">
        <ele>753.4</ele>
        <time>2025-09-08T06:44:08Z</time>
      </trkpt>
      <trkpt lat="48.07576" lon="7.11418">
        <ele>753.6</ele>
        <time>2025-09-08T06:44:09Z</time>
      </trkpt>
      <trkpt lat="48.0758" lon="7.11421">
        <ele>753.8</ele>
        <time>2025-09-08T06:44:10Z</time>
      </trkpt>
      <trkpt lat="48.07585" lon="7.11422">
        <ele>754</ele>
        <time>2025-09-08T06:44:11Z</time>
      </trkpt>
      <trkpt lat="48.07589" lon="7.11424">
        <ele>754.2</ele>
        <time>2025-09-08T06:44:12Z</time>
      </trkpt>
      <trkpt lat="48.07592" lon="7.11426">
        <ele>754.4</ele>
        <time>2025-09-08T06:44:13Z</time>
      </trkpt>
      <trkpt lat="48.07596" lon="7.11427">
        <ele>754.6</ele>
        <time>2025-09-08T06:44:14Z</time>
      </trkpt>
      <trkpt lat="48.076" lon="7.11429">
        <ele>754.8</ele>
        <time>2025-09-08T06:44:15Z</time>
      </trkpt>
      <trkpt lat="48.07603" lon="7.1143">
        <ele>755</ele>
        <time>2025-09-08T06:44:16Z</time>
      </trkpt>
      <trkpt lat="48.07606" lon="7.11432">
        <ele>755.2</ele>
        <time>2025-09-08T06:44:17Z</time>
      </trkpt>
      <trkpt lat="48.07609" lon="7.11433">
        <ele>755.6</ele>
        <time>2025-09-08T06:44:18Z</time>
      </trkpt>
      <trkpt lat="48.07612" lon="7.11435">
        <ele>755.8</ele>
        <time>2025-09-08T06:44:19Z</time>
      </trkpt>
      <trkpt lat="48.07615" lon="7.11436">
        <ele>756</ele>
        <time>2025-09-08T06:44:20Z</time>
      </trkpt>
      <trkpt lat="48.07619" lon="7.11438">
        <ele>756</ele>
        <time>2025-09-08T06:44:21Z</time>
      </trkpt>
      <trkpt lat="48.07622" lon="7.11439">
        <ele>756.2</ele>
        <time>2025-09-08T06:44:22Z</time>
      </trkpt>
      <trkpt lat="48.07625" lon="7.1144">
        <ele>756.6</ele>
        <time>2025-09-08T06:44:23Z</time>
      </trkpt>
      <trkpt lat="48.07628" lon="7.11441">
        <ele>756.6</ele>
        <time>2025-09-08T06:44:24Z</time>
      </trkpt>
      <trkpt lat="48.07631" lon="7.11442">
        <ele>756.8</ele>
        <time>2025-09-08T06:44:25Z</time>
      </trkpt>
      <trkpt lat="48.07634" lon="7.11442">
        <ele>756.8</ele>
        <time>2025-09-08T06:44:26Z</time>
      </trkpt>
      <trkpt lat="48.07637" lon="7.11443">
        <ele>757</ele>
        <time>2025-09-08T06:44:27Z</time>
      </trkpt>
      <trkpt lat="48.07641" lon="7.11443">
        <ele>757.4</ele>
        <time>2025-09-08T06:44:28Z</time>
      </trkpt>
      <trkpt lat="48.07644" lon="7.11444">
        <ele>757.4</ele>
        <time>2025-09-08T06:44:29Z</time>
      </trkpt>
      <trkpt lat="48.07648" lon="7.11445">
        <ele>757.4</ele>
        <time>2025-09-08T06:44:30Z</time>
      </trkpt>
      <trkpt lat="48.07652" lon="7.11446">
        <ele>757.6</ele>
        <time>2025-09-08T06:44:31Z</time>
      </trkpt>
      <trkpt lat="48.07656" lon="7.11447">
        <ele>757.6</ele>
        <time>2025-09-08T06:44:32Z</time>
      </trkpt>
      <trkpt lat="48.0766" lon="7.11447">
        <ele>757.6</ele>
        <time>2025-09-08T06:44:33Z</time>
      </trkpt>
      <trkpt lat="48.07664" lon="7.11448">
        <ele>757.6</ele>
        <time>2025-09-08T06:44:34Z</time>
      </trkpt>
      <trkpt lat="48.07668" lon="7.11448">
        <ele>757.8</ele>
        <time>2025-09-08T06:44:35Z</time>
      </trkpt>
      <trkpt lat="48.07672" lon="7.11448">
        <ele>757.8</ele>
        <time>2025-09-08T06:44:36Z</time>
      </trkpt>
      <trkpt lat="48.07676" lon="7.11449">
        <ele>757.8</ele>
        <time>2025-09-08T06:44:37Z</time>
      </trkpt>
      <trkpt lat="48.0768" lon="7.11448">
        <ele>757.8</ele>
        <time>2025-09-08T06:44:38Z</time>
      </trkpt>
      <trkpt lat="48.07685" lon="7.11449">
        <ele>757.8</ele>
        <time>2025-09-08T06:44:39Z</time>
      </trkpt>
      <trkpt lat="48.07689" lon="7.11449">
        <ele>757.8</ele>
        <time>2025-09-08T06:44:40Z</time>
      </trkpt>
      <trkpt lat="48.07694" lon="7.11448">
        <ele>757.8</ele>
        <time>2025-09-08T06:44:41Z</time>
      </trkpt>
      <trkpt lat="48.07698" lon="7.11449">
        <ele>757.8</ele>
        <time>2025-09-08T06:44:42Z</time>
      </trkpt>
      <trkpt lat="48.07703" lon="7.1145">
        <ele>757.8</ele>
        <time>2025-09-08T06:44:43Z</time>
      </trkpt>
      <trkpt lat="48.07707" lon="7.11452">
        <ele>757.8</ele>
        <time>2025-09-08T06:44:44Z</time>
      </trkpt>
      <trkpt lat="48.07712" lon="7.11453">
        <ele>757.8</ele>
        <time>2025-09-08T06:44:45Z</time>
      </trkpt>
      <trkpt lat="48.07716" lon="7.11454">
        <ele>757.8</ele>
        <time>2025-09-08T06:44:46Z</time>
      </trkpt>
      <trkpt lat="48.0772" lon="7.11455">
        <ele>758</ele>
        <time>2025-09-08T06:44:47Z</time>
      </trkpt>
      <trkpt lat="48.07724" lon="7.11456">
        <ele>758</ele>
        <time>2025-09-08T06:44:48Z</time>
      </trkpt>
      <trkpt lat="48.07728" lon="7.11457">
        <ele>758</ele>
        <time>2025-09-08T06:44:49Z</time>
      </trkpt>
      <trkpt lat="48.07732" lon="7.11458">
        <ele>758.2</ele>
        <time>2025-09-08T06:44:50Z</time>
      </trkpt>
      <trkpt lat="48.07737" lon="7.11459">
        <ele>758.4</ele>
        <time>2025-09-08T06:44:51Z</time>
      </trkpt>
      <trkpt lat="48.07741" lon="7.1146">
        <ele>758.8</ele>
        <time>2025-09-08T06:44:52Z</time>
      </trkpt>
      <trkpt lat="48.07746" lon="7.11461">
        <ele>759</ele>
        <time>2025-09-08T06:44:53Z</time>
      </trkpt>
      <trkpt lat="48.0775" lon="7.11462">
        <ele>759</ele>
        <time>2025-09-08T06:44:54Z</time>
      </trkpt>
      <trkpt lat="48.07754" lon="7.11462">
        <ele>759.2</ele>
        <time>2025-09-08T06:44:55Z</time>
      </trkpt>
      <trkpt lat="48.07759" lon="7.11462">
        <ele>759.2</ele>
        <time>2025-09-08T06:44:56Z</time>
      </trkpt>
      <trkpt lat="48.07764" lon="7.11461">
        <ele>759.4</ele>
        <time>2025-09-08T06:44:57Z</time>
      </trkpt>
      <trkpt lat="48.07768" lon="7.1146">
        <ele>759.4</ele>
        <time>2025-09-08T06:44:58Z</time>
      </trkpt>
      <trkpt lat="48.07773" lon="7.11459">
        <ele>759.4</ele>
        <time>2025-09-08T06:44:59Z</time>
      </trkpt>
      <trkpt lat="48.07779" lon="7.11459">
        <ele>759.6</ele>
        <time>2025-09-08T06:45:00Z</time>
      </trkpt>
      <trkpt lat="48.07785" lon="7.11458">
        <ele>759.6</ele>
        <time>2025-09-08T06:45:01Z</time>
      </trkpt>
      <trkpt lat="48.07791" lon="7.1146">
        <ele>759.4</ele>
        <time>2025-09-08T06:45:02Z</time>
      </trkpt>
      <trkpt lat="48.07797" lon="7.11461">
        <ele>759.2</ele>
        <time>2025-09-08T06:45:03Z</time>
      </trkpt>
      <trkpt lat="48.07803" lon="7.11462">
        <ele>758.6</ele>
        <time>2025-09-08T06:45:04Z</time>
      </trkpt>
      <trkpt lat="48.07809" lon="7.11461">
        <ele>758.4</ele>
        <time>2025-09-08T06:45:05Z</time>
      </trkpt>
      <trkpt lat="48.07815" lon="7.11461">
        <ele>758.2</ele>
        <time>2025-09-08T06:45:06Z</time>
      </trkpt>
      <trkpt lat="48.07821" lon="7.11459">
        <ele>757.8</ele>
        <time>2025-09-08T06:45:07Z</time>
      </trkpt>
      <trkpt lat="48.07827" lon="7.11458">
        <ele>757.6</ele>
        <time>2025-09-08T06:45:08Z</time>
      </trkpt>
      <trkpt lat="48.07832" lon="7.11458">
        <ele>757.4</ele>
        <time>2025-09-08T06:45:09Z</time>
      </trkpt>
      <trkpt lat="48.07836" lon="7.11459">
        <ele>757.4</ele>
        <time>2025-09-08T06:45:10Z</time>
      </trkpt>
      <trkpt lat="48.07841" lon="7.11461">
        <ele>757.4</ele>
        <time>2025-09-08T06:45:11Z</time>
      </trkpt>
      <trkpt lat="48.07845" lon="7.11462">
        <ele>757.4</ele>
        <time>2025-09-08T06:45:12Z</time>
      </trkpt>
      <trkpt lat="48.07849" lon="7.11462">
        <ele>757.4</ele>
        <time>2025-09-08T06:45:13Z</time>
      </trkpt>
      <trkpt lat="48.07853" lon="7.11462">
        <ele>757.6</ele>
        <time>2025-09-08T06:45:14Z</time>
      </trkpt>
      <trkpt lat="48.07858" lon="7.11462">
        <ele>757.6</ele>
        <time>2025-09-08T06:45:15Z</time>
      </trkpt>
      <trkpt lat="48.07864" lon="7.11461">
        <ele>757.6</ele>
        <time>2025-09-08T06:45:16Z</time>
      </trkpt>
      <trkpt lat="48.0787" lon="7.11461">
        <ele>757.6</ele>
        <time>2025-09-08T06:45:17Z</time>
      </trkpt>
      <trkpt lat="48.07876" lon="7.11461">
        <ele>757.6</ele>
        <time>2025-09-08T06:45:18Z</time>
      </trkpt>
      <trkpt lat="48.07882" lon="7.11463">
        <ele>757.6</ele>
        <time>2025-09-08T06:45:19Z</time>
      </trkpt>
      <trkpt lat="48.07887" lon="7.11464">
        <ele>757.4</ele>
        <time>2025-09-08T06:45:20Z</time>
      </trkpt>
      <trkpt lat="48.07893" lon="7.11463">
        <ele>757</ele>
        <time>2025-09-08T06:45:21Z</time>
      </trkpt>
      <trkpt lat="48.07897" lon="7.11461">
        <ele>756.6</ele>
        <time>2025-09-08T06:45:22Z</time>
      </trkpt>
      <trkpt lat="48.07901" lon="7.11458">
        <ele>756.4</ele>
        <time>2025-09-08T06:45:23Z</time>
      </trkpt>
      <trkpt lat="48.07905" lon="7.11456">
        <ele>756</ele>
        <time>2025-09-08T06:45:24Z</time>
      </trkpt>
      <trkpt lat="48.07907" lon="7.11452">
        <ele>755.8</ele>
        <time>2025-09-08T06:45:25Z</time>
      </trkpt>
      <trkpt lat="48.07909" lon="7.11449">
        <ele>755.6</ele>
        <time>2025-09-08T06:45:26Z</time>
      </trkpt>
      <trkpt lat="48.07909" lon="7.11449">
        <ele>755.4</ele>
        <time>2025-09-08T06:45:27Z</time>
      </trkpt>
      <trkpt lat="48.07909" lon="7.11449">
        <ele>755.6</ele>
        <time>2025-09-08T06:45:28Z</time>
      </trkpt>
      <trkpt lat="48.07913" lon="7.11428">
        <ele>757.2</ele>
        <time>2025-09-08T06:46:10Z</time>
      </trkpt>
      <trkpt lat="48.07913" lon="7.11425">
        <ele>757.4</ele>
        <time>2025-09-08T06:46:11Z</time>
      </trkpt>
      <trkpt lat="48.07913" lon="7.11422">
        <ele>757.6</ele>
        <time>2025-09-08T06:46:12Z</time>
      </trkpt>
      <trkpt lat="48.07913" lon="7.11419">
        <ele>757.8</ele>
        <time>2025-09-08T06:46:13Z</time>
      </trkpt>
      <trkpt lat="48.07914" lon="7.11415">
        <ele>758</ele>
        <time>2025-09-08T06:46:14Z</time>
      </trkpt>
      <trkpt lat="48.07914" lon="7.11412">
        <ele>758.2</ele>
        <time>2025-09-08T06:46:15Z</time>
      </trkpt>
      <trkpt lat="48.07914" lon="7.11409">
        <ele>758.6</ele>
        <time>2025-09-08T06:46:16Z</time>
      </trkpt>
      <trkpt lat="48.07915" lon="7.11405">
        <ele>759</ele>
        <time>2025-09-08T06:46:17Z</time>
      </trkpt>
      <trkpt lat="48.07915" lon="7.11402">
        <ele>759.4</ele>
        <time>2025-09-08T06:46:18Z</time>
      </trkpt>
      <trkpt lat="48.07915" lon="7.11398">
        <ele>759.6</ele>
        <time>2025-09-08T06:46:19Z</time>
      </trkpt>
      <trkpt lat="48.07915" lon="7.11395">
        <ele>759.8</ele>
        <time>2025-09-08T06:46:20Z</time>
      </trkpt>
      <trkpt lat="48.07916" lon="7.11391">
        <ele>760.4</ele>
        <time>2025-09-08T06:46:21Z</time>
      </trkpt>
      <trkpt lat="48.07916" lon="7.11387">
        <ele>760.6</ele>
        <time>2025-09-08T06:46:22Z</time>
      </trkpt>
      <trkpt lat="48.07916" lon="7.11383">
        <ele>760.8</ele>
        <time>2025-09-08T06:46:23Z</time>
      </trkpt>
      <trkpt lat="48.07917" lon="7.1138">
        <ele>760.8</ele>
        <time>2025-09-08T06:46:24Z</time>
      </trkpt>
      <trkpt lat="48.07917" lon="7.11377">
        <ele>761.2</ele>
        <time>2025-09-08T06:46:25Z</time>
      </trkpt>
      <trkpt lat="48.07917" lon="7.11374">
        <ele>761.4</ele>
        <time>2025-09-08T06:46:26Z</time>
      </trkpt>
      <trkpt lat="48.07917" lon="7.11371">
        <ele>761.6</ele>
        <time>2025-09-08T06:46:27Z</time>
      </trkpt>
      <trkpt lat="48.07917" lon="7.11367">
        <ele>761.8</ele>
        <time>2025-09-08T06:46:28Z</time>
      </trkpt>
      <trkpt lat="48.07918" lon="7.11363">
        <ele>762.2</ele>
        <time>2025-09-08T06:46:29Z</time>
      </trkpt>
      <trkpt lat="48.07917" lon="7.1136">
        <ele>762.6</ele>
        <time>2025-09-08T06:46:30Z</time>
      </trkpt>
      <trkpt lat="48.07917" lon="7.11357">
        <ele>762.8</ele>
        <time>2025-09-08T06:46:31Z</time>
      </trkpt>
      <trkpt lat="48.07916" lon="7.11354">
        <ele>763.2</ele>
        <time>2025-09-08T06:46:32Z</time>
      </trkpt>
      <trkpt lat="48.07916" lon="7.11351">
        <ele>763.4</ele>
        <time>2025-09-08T06:46:33Z</time>
      </trkpt>
      <trkpt lat="48.07916" lon="7.11348">
        <ele>763.8</ele>
        <time>2025-09-08T06:46:34Z</time>
      </trkpt>
      <trkpt lat="48.07915" lon="7.11345">
        <ele>764.4</ele>
        <time>2025-09-08T06:46:35Z</time>
      </trkpt>
      <trkpt lat="48.07915" lon="7.11342">
        <ele>764.8</ele>
        <time>2025-09-08T06:46:36Z</time>
      </trkpt>
      <trkpt lat="48.07914" lon="7.1134">
        <ele>765.2</ele>
        <time>2025-09-08T06:46:37Z</time>
      </trkpt>
      <trkpt lat="48.07914" lon="7.11337">
        <ele>765.4</ele>
        <time>2025-09-08T06:46:38Z</time>
      </trkpt>
      <trkpt lat="48.07913" lon="7.11334">
        <ele>765.6</ele>
        <time>2025-09-08T06:46:39Z</time>
      </trkpt>
      <trkpt lat="48.07913" lon="7.11331">
        <ele>766</ele>
        <time>2025-09-08T06:46:40Z</time>
      </trkpt>
      <trkpt lat="48.07912" lon="7.11328">
        <ele>766.2</ele>
        <time>2025-09-08T06:46:41Z</time>
      </trkpt>
      <trkpt lat="48.07912" lon="7.11325">
        <ele>766.6</ele>
        <time>2025-09-08T06:46:42Z</time>
      </trkpt>
      <trkpt lat="48.07912" lon="7.11322">
        <ele>767.2</ele>
        <time>2025-09-08T06:46:43Z</time>
      </trkpt>
      <trkpt lat="48.07911" lon="7.11319">
        <ele>767.4</ele>
        <time>2025-09-08T06:46:44Z</time>
      </trkpt>
      <trkpt lat="48.0791" lon="7.11316">
        <ele>768</ele>
        <time>2025-09-08T06:46:45Z</time>
      </trkpt>
      <trkpt lat="48.07909" lon="7.11313">
        <ele>768.4</ele>
        <time>2025-09-08T06:46:46Z</time>
      </trkpt>
      <trkpt lat="48.07909" lon="7.1131">
        <ele>768.8</ele>
        <time>2025-09-08T06:46:47Z</time>
      </trkpt>
      <trkpt lat="48.07909" lon="7.11308">
        <ele>769.2</ele>
        <time>2025-09-08T06:46:48Z</time>
      </trkpt>
      <trkpt lat="48.07908" lon="7.11305">
        <ele>769.6</ele>
        <time>2025-09-08T06:46:49Z</time>
      </trkpt>
      <trkpt lat="48.07908" lon="7.11302">
        <ele>770.2</ele>
        <time>2025-09-08T06:46:50Z</time>
      </trkpt>
      <trkpt lat="48.07908" lon="7.11299">
        <ele>770.6</ele>
        <time>2025-09-08T06:46:51Z</time>
      </trkpt>
      <trkpt lat="48.07908" lon="7.11295">
        <ele>770.8</ele>
        <time>2025-09-08T06:46:52Z</time>
      </trkpt>
      <trkpt lat="48.07908" lon="7.11292">
        <ele>771.4</ele>
        <time>2025-09-08T06:46:53Z</time>
      </trkpt>
      <trkpt lat="48.07908" lon="7.11288">
        <ele>771.8</ele>
        <time>2025-09-08T06:46:54Z</time>
      </trkpt>
      <trkpt lat="48.07908" lon="7.11285">
        <ele>772</ele>
        <time>2025-09-08T06:46:55Z</time>
      </trkpt>
      <trkpt lat="48.07909" lon="7.11281">
        <ele>772.4</ele>
        <time>2025-09-08T06:46:56Z</time>
      </trkpt>
      <trkpt lat="48.07909" lon="7.11278">
        <ele>772.6</ele>
        <time>2025-09-08T06:46:57Z</time>
      </trkpt>
      <trkpt lat="48.0791" lon="7.11275">
        <ele>772.8</ele>
        <time>2025-09-08T06:46:58Z</time>
      </trkpt>
      <trkpt lat="48.0791" lon="7.11272">
        <ele>773.4</ele>
        <time>2025-09-08T06:46:59Z</time>
      </trkpt>
      <trkpt lat="48.07911" lon="7.11269">
        <ele>773.8</ele>
        <time>2025-09-08T06:47:00Z</time>
      </trkpt>
      <trkpt lat="48.07912" lon="7.11266">
        <ele>774</ele>
        <time>2025-09-08T06:47:01Z</time>
      </trkpt>
      <trkpt lat="48.07912" lon="7.11263">
        <ele>774.4</ele>
        <time>2025-09-08T06:47:02Z</time>
      </trkpt>
      <trkpt lat="48.07913" lon="7.1126">
        <ele>774.8</ele>
        <time>2025-09-08T06:47:03Z</time>
      </trkpt>
      <trkpt lat="48.07913" lon="7.11257">
        <ele>775.4</ele>
        <time>2025-09-08T06:47:04Z</time>
      </trkpt>
      <trkpt lat="48.07913" lon="7.11254">
        <ele>775.8</ele>
        <time>2025-09-08T06:47:05Z</time>
      </trkpt>
      <trkpt lat="48.07914" lon="7.11251">
        <ele>776.2</ele>
        <time>2025-09-08T06:47:06Z</time>
      </trkpt>
      <trkpt lat="48.07915" lon="7.11248">
        <ele>776.8</ele>
        <time>2025-09-08T06:47:07Z</time>
      </trkpt>
      <trkpt lat="48.07916" lon="7.11245">
        <ele>777</ele>
        <time>2025-09-08T06:47:08Z</time>
      </trkpt>
      <trkpt lat="48.07917" lon="7.11243">
        <ele>777.4</ele>
        <time>2025-09-08T06:47:09Z</time>
      </trkpt>
      <trkpt lat="48.07918" lon="7.1124">
        <ele>777.8</ele>
        <time>2025-09-08T06:47:10Z</time>
      </trkpt>
      <trkpt lat="48.07919" lon="7.11238">
        <ele>778</ele>
        <time>2025-09-08T06:47:11Z</time>
      </trkpt>
      <trkpt lat="48.0792" lon="7.11235">
        <ele>778.2</ele>
        <time>2025-09-08T06:47:12Z</time>
      </trkpt>
      <trkpt lat="48.07921" lon="7.11232">
        <ele>778.4</ele>
        <time>2025-09-08T06:47:13Z</time>
      </trkpt>
      <trkpt lat="48.07922" lon="7.11229">
        <ele>778.8</ele>
        <time>2025-09-08T06:47:14Z</time>
      </trkpt>
      <trkpt lat="48.07922" lon="7.11226">
        <ele>779.2</ele>
        <time>2025-09-08T06:47:15Z</time>
      </trkpt>
      <trkpt lat="48.07923" lon="7.11223">
        <ele>779.4</ele>
        <time>2025-09-08T06:47:16Z</time>
      </trkpt>
      <trkpt lat="48.07923" lon="7.1122">
        <ele>779.8</ele>
        <time>2025-09-08T06:47:17Z</time>
      </trkpt>
      <trkpt lat="48.07924" lon="7.11217">
        <ele>780</ele>
        <time>2025-09-08T06:47:18Z</time>
      </trkpt>
      <trkpt lat="48.07925" lon="7.11214">
        <ele>780.2</ele>
        <time>2025-09-08T06:47:19Z</time>
      </trkpt>
      <trkpt lat="48.07926" lon="7.11212">
        <ele>780.6</ele>
        <time>2025-09-08T06:47:20Z</time>
      </trkpt>
      <trkpt lat="48.07927" lon="7.11209">
        <ele>780.6</ele>
        <time>2025-09-08T06:47:21Z</time>
      </trkpt>
      <trkpt lat="48.07928" lon="7.11206">
        <ele>781.2</ele>
        <time>2025-09-08T06:47:22Z</time>
      </trkpt>
      <trkpt lat="48.07928" lon="7.11203">
        <ele>781.4</ele>
        <time>2025-09-08T06:47:23Z</time>
      </trkpt>
      <trkpt lat="48.07929" lon="7.112">
        <ele>781.6</ele>
        <time>2025-09-08T06:47:24Z</time>
      </trkpt>
      <trkpt lat="48.07929" lon="7.11197">
        <ele>781.8</ele>
        <time>2025-09-08T06:47:25Z</time>
      </trkpt>
      <trkpt lat="48.0793" lon="7.11194">
        <ele>782.2</ele>
        <time>2025-09-08T06:47:26Z</time>
      </trkpt>
      <trkpt lat="48.07931" lon="7.11191">
        <ele>782.4</ele>
        <time>2025-09-08T06:47:27Z</time>
      </trkpt>
      <trkpt lat="48.07932" lon="7.11187">
        <ele>782.4</ele>
        <time>2025-09-08T06:47:28Z</time>
      </trkpt>
      <trkpt lat="48.07933" lon="7.11184">
        <ele>782.6</ele>
        <time>2025-09-08T06:47:29Z</time>
      </trkpt>
      <trkpt lat="48.07934" lon="7.11181">
        <ele>782.8</ele>
        <time>2025-09-08T06:47:30Z</time>
      </trkpt>
      <trkpt lat="48.07935" lon="7.11177">
        <ele>783</ele>
        <time>2025-09-08T06:47:31Z</time>
      </trkpt>
      <trkpt lat="48.07936" lon="7.11174">
        <ele>783.2</ele>
        <time>2025-09-08T06:47:32Z</time>
      </trkpt>
      <trkpt lat="48.07937" lon="7.1117">
        <ele>783.2</ele>
        <time>2025-09-08T06:47:33Z</time>
      </trkpt>
      <trkpt lat="48.07938" lon="7.11167">
        <ele>783.4</ele>
        <time>2025-09-08T06:47:34Z</time>
      </trkpt>
      <trkpt lat="48.0794" lon="7.11164">
        <ele>783.6</ele>
        <time>2025-09-08T06:47:35Z</time>
      </trkpt>
      <trkpt lat="48.07941" lon="7.11161">
        <ele>783.6</ele>
        <time>2025-09-08T06:47:36Z</time>
      </trkpt>
      <trkpt lat="48.07942" lon="7.11158">
        <ele>784</ele>
        <time>2025-09-08T06:47:37Z</time>
      </trkpt>
      <trkpt lat="48.07944" lon="7.11155">
        <ele>784.2</ele>
        <time>2025-09-08T06:47:38Z</time>
      </trkpt>
      <trkpt lat="48.07945" lon="7.11152">
        <ele>784.2</ele>
        <time>2025-09-08T06:47:39Z</time>
      </trkpt>
      <trkpt lat="48.07947" lon="7.11149">
        <ele>784.4</ele>
        <time>2025-09-08T06:47:40Z</time>
      </trkpt>
      <trkpt lat="48.07948" lon="7.11146">
        <ele>784.6</ele>
        <time>2025-09-08T06:47:41Z</time>
      </trkpt>
      <trkpt lat="48.0795" lon="7.11142">
        <ele>785</ele>
        <time>2025-09-08T06:47:42Z</time>
      </trkpt>
      <trkpt lat="48.07951" lon="7.11139">
        <ele>785.2</ele>
        <time>2025-09-08T06:47:43Z</time>
      </trkpt>
      <trkpt lat="48.07953" lon="7.11136">
        <ele>785.4</ele>
        <time>2025-09-08T06:47:44Z</time>
      </trkpt>
      <trkpt lat="48.07954" lon="7.11132">
        <ele>785.6</ele>
        <time>2025-09-08T06:47:45Z</time>
      </trkpt>
      <trkpt lat="48.07955" lon="7.11129">
        <ele>785.8</ele>
        <time>2025-09-08T06:47:46Z</time>
      </trkpt>
      <trkpt lat="48.07957" lon="7.11125">
        <ele>786.2</ele>
        <time>2025-09-08T06:47:47Z</time>
      </trkpt>
      <trkpt lat="48.07958" lon="7.11121">
        <ele>786.4</ele>
        <time>2025-09-08T06:47:48Z</time>
      </trkpt>
      <trkpt lat="48.0796" lon="7.11117">
        <ele>786.4</ele>
        <time>2025-09-08T06:47:49Z</time>
      </trkpt>
      <trkpt lat="48.07961" lon="7.11113">
        <ele>786.4</ele>
        <time>2025-09-08T06:47:50Z</time>
      </trkpt>
      <trkpt lat="48.07963" lon="7.11109">
        <ele>786.6</ele>
        <time>2025-09-08T06:47:51Z</time>
      </trkpt>
      <trkpt lat="48.07964" lon="7.11105">
        <ele>786.6</ele>
        <time>2025-09-08T06:47:52Z</time>
      </trkpt>
      <trkpt lat="48.07966" lon="7.11102">
        <ele>786.6</ele>
        <time>2025-09-08T06:47:53Z</time>
      </trkpt>
      <trkpt lat="48.07968" lon="7.11098">
        <ele>786.8</ele>
        <time>2025-09-08T06:47:54Z</time>
      </trkpt>
      <trkpt lat="48.0797" lon="7.11095">
        <ele>786.8</ele>
        <time>2025-09-08T06:47:55Z</time>
      </trkpt>
      <trkpt lat="48.07971" lon="7.11091">
        <ele>786.8</ele>
        <time>2025-09-08T06:47:56Z</time>
      </trkpt>
      <trkpt lat="48.07973" lon="7.11089">
        <ele>787</ele>
        <time>2025-09-08T06:47:57Z</time>
      </trkpt>
      <trkpt lat="48.07974" lon="7.11086">
        <ele>787</ele>
        <time>2025-09-08T06:47:58Z</time>
      </trkpt>
      <trkpt lat="48.07976" lon="7.11084">
        <ele>787</ele>
        <time>2025-09-08T06:47:59Z</time>
      </trkpt>
      <trkpt lat="48.07978" lon="7.11081">
        <ele>787</ele>
        <time>2025-09-08T06:48:00Z</time>
      </trkpt>
      <trkpt lat="48.0798" lon="7.11079">
        <ele>787</ele>
        <time>2025-09-08T06:48:01Z</time>
      </trkpt>
      <trkpt lat="48.07981" lon="7.11076">
        <ele>787</ele>
        <time>2025-09-08T06:48:02Z</time>
      </trkpt>
      <trkpt lat="48.07983" lon="7.11075">
        <ele>787</ele>
        <time>2025-09-08T06:48:03Z</time>
      </trkpt>
      <trkpt lat="48.07985" lon="7.11075">
        <ele>787</ele>
        <time>2025-09-08T06:48:04Z</time>
      </trkpt>
      <trkpt lat="48.07987" lon="7.11075">
        <ele>787.2</ele>
        <time>2025-09-08T06:48:05Z</time>
      </trkpt>
      <trkpt lat="48.0799" lon="7.11074">
        <ele>787.2</ele>
        <time>2025-09-08T06:48:06Z</time>
      </trkpt>
      <trkpt lat="48.07992" lon="7.11075">
        <ele>787.6</ele>
        <time>2025-09-08T06:48:07Z</time>
      </trkpt>
      <trkpt lat="48.07993" lon="7.11077">
        <ele>787.6</ele>
        <time>2025-09-08T06:48:08Z</time>
      </trkpt>
      <trkpt lat="48.07994" lon="7.11079">
        <ele>787.8</ele>
        <time>2025-09-08T06:48:09Z</time>
      </trkpt>
      <trkpt lat="48.07994" lon="7.11081">
        <ele>787.8</ele>
        <time>2025-09-08T06:48:10Z</time>
      </trkpt>
      <trkpt lat="48.07994" lon="7.11081">
        <ele>788.2</ele>
        <time>2025-09-08T06:48:11Z</time>
      </trkpt>
      <trkpt lat="48.07994" lon="7.11081">
        <ele>788.4</ele>
        <time>2025-09-08T06:48:12Z</time>
      </trkpt>
      <trkpt lat="48.07994" lon="7.11082">
        <ele>788.6</ele>
        <time>2025-09-08T06:48:13Z</time>
      </trkpt>
      <trkpt lat="48.08004" lon="7.11086">
        <ele>788.8</ele>
        <time>2025-09-08T06:48:39Z</time>
      </trkpt>
      <trkpt lat="48.08006" lon="7.11087">
        <ele>788.8</ele>
        <time>2025-09-08T06:48:40Z</time>
      </trkpt>
      <trkpt lat="48.08009" lon="7.11089">
        <ele>789.2</ele>
        <time>2025-09-08T06:48:41Z</time>
      </trkpt>
      <trkpt lat="48.08011" lon="7.1109">
        <ele>789.2</ele>
        <time>2025-09-08T06:48:42Z</time>
      </trkpt>
      <trkpt lat="48.08014" lon="7.1109">
        <ele>789.2</ele>
        <time>2025-09-08T06:48:43Z</time>
      </trkpt>
      <trkpt lat="48.08017" lon="7.1109">
        <ele>789.4</ele>
        <time>2025-09-08T06:48:44Z</time>
      </trkpt>
      <trkpt lat="48.0802" lon="7.11088">
        <ele>789.4</ele>
        <time>2025-09-08T06:48:45Z</time>
      </trkpt>
      <trkpt lat="48.08023" lon="7.11086">
        <ele>789.6</ele>
        <time>2025-09-08T06:48:46Z</time>
      </trkpt>
      <trkpt lat="48.08026" lon="7.11085">
        <ele>789.8</ele>
        <time>2025-09-08T06:48:47Z</time>
      </trkpt>
      <trkpt lat="48.08029" lon="7.11084">
        <ele>790</ele>
        <time>2025-09-08T06:48:48Z</time>
      </trkpt>
      <trkpt lat="48.08032" lon="7.11083">
        <ele>790</ele>
        <time>2025-09-08T06:48:49Z</time>
      </trkpt>
      <trkpt lat="48.08036" lon="7.11083">
        <ele>790.2</ele>
        <time>2025-09-08T06:48:50Z</time>
      </trkpt>
      <trkpt lat="48.08039" lon="7.11082">
        <ele>790.4</ele>
        <time>2025-09-08T06:48:51Z</time>
      </trkpt>
      <trkpt lat="48.08042" lon="7.11083">
        <ele>790.4</ele>
        <time>2025-09-08T06:48:52Z</time>
      </trkpt>
      <trkpt lat="48.08046" lon="7.11083">
        <ele>790.4</ele>
        <time>2025-09-08T06:48:53Z</time>
      </trkpt>
      <trkpt lat="48.08049" lon="7.11084">
        <ele>790.4</ele>
        <time>2025-09-08T06:48:54Z</time>
      </trkpt>
      <trkpt lat="48.08052" lon="7.11086">
        <ele>790.6</ele>
        <time>2025-09-08T06:48:55Z</time>
      </trkpt>
      <trkpt lat="48.08056" lon="7.11087">
        <ele>790.6</ele>
        <time>2025-09-08T06:48:56Z</time>
      </trkpt>
      <trkpt lat="48.08059" lon="7.11089">
        <ele>790.6</ele>
        <time>2025-09-08T06:48:57Z</time>
      </trkpt>
      <trkpt lat="48.08062" lon="7.11091">
        <ele>790.8</ele>
        <time>2025-09-08T06:48:58Z</time>
      </trkpt>
      <trkpt lat="48.08064" lon="7.11092">
        <ele>791</ele>
        <time>2025-09-08T06:48:59Z</time>
      </trkpt>
      <trkpt lat="48.08067" lon="7.11094">
        <ele>791.2</ele>
        <time>2025-09-08T06:49:00Z</time>
      </trkpt>
      <trkpt lat="48.0807" lon="7.11097">
        <ele>791.4</ele>
        <time>2025-09-08T06:49:01Z</time>
      </trkpt>
      <trkpt lat="48.08072" lon="7.11099">
        <ele>792</ele>
        <time>2025-09-08T06:49:02Z</time>
      </trkpt>
      <trkpt lat="48.08075" lon="7.111">
        <ele>792.4</ele>
        <time>2025-09-08T06:49:03Z</time>
      </trkpt>
      <trkpt lat="48.08078" lon="7.11102">
        <ele>792.6</ele>
        <time>2025-09-08T06:49:04Z</time>
      </trkpt>
      <trkpt lat="48.0808" lon="7.11105">
        <ele>793</ele>
        <time>2025-09-08T06:49:05Z</time>
      </trkpt>
      <trkpt lat="48.08083" lon="7.11107">
        <ele>793.2</ele>
        <time>2025-09-08T06:49:06Z</time>
      </trkpt>
      <trkpt lat="48.08086" lon="7.11109">
        <ele>793.4</ele>
        <time>2025-09-08T06:49:07Z</time>
      </trkpt>
      <trkpt lat="48.08089" lon="7.11112">
        <ele>793.6</ele>
        <time>2025-09-08T06:49:08Z</time>
      </trkpt>
      <trkpt lat="48.08091" lon="7.11114">
        <ele>793.8</ele>
        <time>2025-09-08T06:49:09Z</time>
      </trkpt>
      <trkpt lat="48.08094" lon="7.11116">
        <ele>793.8</ele>
        <time>2025-09-08T06:49:10Z</time>
      </trkpt>
      <trkpt lat="48.08097" lon="7.11117">
        <ele>794</ele>
        <time>2025-09-08T06:49:11Z</time>
      </trkpt>
      <trkpt lat="48.08099" lon="7.1112">
        <ele>794.4</ele>
        <time>2025-09-08T06:49:12Z</time>
      </trkpt>
      <trkpt lat="48.08102" lon="7.11122">
        <ele>794.4</ele>
        <time>2025-09-08T06:49:13Z</time>
      </trkpt>
      <trkpt lat="48.08105" lon="7.11124">
        <ele>794.8</ele>
        <time>2025-09-08T06:49:14Z</time>
      </trkpt>
      <trkpt lat="48.08108" lon="7.11127">
        <ele>795</ele>
        <time>2025-09-08T06:49:15Z</time>
      </trkpt>
      <trkpt lat="48.08111" lon="7.11129">
        <ele>795.2</ele>
        <time>2025-09-08T06:49:16Z</time>
      </trkpt>
      <trkpt lat="48.08114" lon="7.11131">
        <ele>795.4</ele>
        <time>2025-09-08T06:49:17Z</time>
      </trkpt>
      <trkpt lat="48.08117" lon="7.11133">
        <ele>795.4</ele>
        <time>2025-09-08T06:49:18Z</time>
      </trkpt>
      <trkpt lat="48.08119" lon="7.11135">
        <ele>795.6</ele>
        <time>2025-09-08T06:49:19Z</time>
      </trkpt>
      <trkpt lat="48.08122" lon="7.11138">
        <ele>795.6</ele>
        <time>2025-09-08T06:49:20Z</time>
      </trkpt>
      <trkpt lat="48.08125" lon="7.1114">
        <ele>795.6</ele>
        <time>2025-09-08T06:49:21Z</time>
      </trkpt>
      <trkpt lat="48.08128" lon="7.11142">
        <ele>795.8</ele>
        <time>2025-09-08T06:49:22Z</time>
      </trkpt>
      <trkpt lat="48.08131" lon="7.11144">
        <ele>795.8</ele>
        <time>2025-09-08T06:49:23Z</time>
      </trkpt>
      <trkpt lat="48.08134" lon="7.11146">
        <ele>796</ele>
        <time>2025-09-08T06:49:24Z</time>
      </trkpt>
      <trkpt lat="48.08137" lon="7.11148">
        <ele>796</ele>
        <time>2025-09-08T06:49:25Z</time>
      </trkpt>
      <trkpt lat="48.08139" lon="7.1115">
        <ele>796.2</ele>
        <time>2025-09-08T06:49:26Z</time>
      </trkpt>
      <trkpt lat="48.08142" lon="7.11152">
        <ele>796.6</ele>
        <time>2025-09-08T06:49:27Z</time>
      </trkpt>
      <trkpt lat="48.08145" lon="7.11154">
        <ele>796.6</ele>
        <time>2025-09-08T06:49:28Z</time>
      </trkpt>
      <trkpt lat="48.08147" lon="7.11156">
        <ele>796.8</ele>
        <time>2025-09-08T06:49:29Z</time>
      </trkpt>
      <trkpt lat="48.0815" lon="7.11158">
        <ele>796.8</ele>
        <time>2025-09-08T06:49:30Z</time>
      </trkpt>
      <trkpt lat="48.08153" lon="7.11159">
        <ele>797.2</ele>
        <time>2025-09-08T06:49:31Z</time>
      </trkpt>
      <trkpt lat="48.08155" lon="7.11161">
        <ele>797.6</ele>
        <time>2025-09-08T06:49:32Z</time>
      </trkpt>
      <trkpt lat="48.08158" lon="7.11163">
        <ele>797.8</ele>
        <time>2025-09-08T06:49:33Z</time>
      </trkpt>
      <trkpt lat="48.0816" lon="7.11165">
        <ele>798</ele>
        <time>2025-09-08T06:49:34Z</time>
      </trkpt>
      <trkpt lat="48.08162" lon="7.11167">
        <ele>798.2</ele>
        <time>2025-09-08T06:49:35Z</time>
      </trkpt>
      <trkpt lat="48.08164" lon="7.11168">
        <ele>798.8</ele>
        <time>2025-09-08T06:49:36Z</time>
      </trkpt>
      <trkpt lat="48.08167" lon="7.1117">
        <ele>799.2</ele>
        <time>2025-09-08T06:49:37Z</time>
      </trkpt>
      <trkpt lat="48.08169" lon="7.11172">
        <ele>799.4</ele>
        <time>2025-09-08T06:49:38Z</time>
      </trkpt>
      <trkpt lat="48.08172" lon="7.11174">
        <ele>799.8</ele>
        <time>2025-09-08T06:49:39Z</time>
      </trkpt>
      <trkpt lat="48.08175" lon="7.11176">
        <ele>800.2</ele>
        <time>2025-09-08T06:49:40Z</time>
      </trkpt>
      <trkpt lat="48.08177" lon="7.11178">
        <ele>800.4</ele>
        <time>2025-09-08T06:49:41Z</time>
      </trkpt>
      <trkpt lat="48.0818" lon="7.1118">
        <ele>800.6</ele>
        <time>2025-09-08T06:49:42Z</time>
      </trkpt>
      <trkpt lat="48.08182" lon="7.11182">
        <ele>801</ele>
        <time>2025-09-08T06:49:43Z</time>
      </trkpt>
      <trkpt lat="48.08185" lon="7.11184">
        <ele>801.2</ele>
        <time>2025-09-08T06:49:44Z</time>
      </trkpt>
      <trkpt lat="48.08187" lon="7.11186">
        <ele>801.4</ele>
        <time>2025-09-08T06:49:45Z</time>
      </trkpt>
      <trkpt lat="48.0819" lon="7.11187">
        <ele>801.8</ele>
        <time>2025-09-08T06:49:46Z</time>
      </trkpt>
      <trkpt lat="48.08192" lon="7.11189">
        <ele>801.8</ele>
        <time>2025-09-08T06:49:47Z</time>
      </trkpt>
      <trkpt lat="48.08195" lon="7.11191">
        <ele>802.2</ele>
        <time>2025-09-08T06:49:48Z</time>
      </trkpt>
      <trkpt lat="48.08198" lon="7.11193">
        <ele>802.4</ele>
        <time>2025-09-08T06:49:49Z</time>
      </trkpt>
      <trkpt lat="48.082" lon="7.11195">
        <ele>802.6</ele>
        <time>2025-09-08T06:49:50Z</time>
      </trkpt>
      <trkpt lat="48.08202" lon="7.11197">
        <ele>802.8</ele>
        <time>2025-09-08T06:49:51Z</time>
      </trkpt>
      <trkpt lat="48.08205" lon="7.11198">
        <ele>803.2</ele>
        <time>2025-09-08T06:49:52Z</time>
      </trkpt>
      <trkpt lat="48.08207" lon="7.112">
        <ele>803.4</ele>
        <time>2025-09-08T06:49:53Z</time>
      </trkpt>
      <trkpt lat="48.0821" lon="7.11202">
        <ele>803.8</ele>
        <time>2025-09-08T06:49:54Z</time>
      </trkpt>
      <trkpt lat="48.08212" lon="7.11204">
        <ele>804</ele>
        <time>2025-09-08T06:49:55Z</time>
      </trkpt>
      <trkpt lat="48.08215" lon="7.11207">
        <ele>804.2</ele>
        <time>2025-09-08T06:49:56Z</time>
      </trkpt>
      <trkpt lat="48.08217" lon="7.11209">
        <ele>804.6</ele>
        <time>2025-09-08T06:49:57Z</time>
      </trkpt>
      <trkpt lat="48.08219" lon="7.11211">
        <ele>804.8</ele>
        <time>2025-09-08T06:49:58Z</time>
      </trkpt>
      <trkpt lat="48.08221" lon="7.11213">
        <ele>805.2</ele>
        <time>2025-09-08T06:49:59Z</time>
      </trkpt>
      <trkpt lat="48.08224" lon="7.11215">
        <ele>805.4</ele>
        <time>2025-09-08T06:50:00Z</time>
      </trkpt>
      <trkpt lat="48.08226" lon="7.11217">
        <ele>805.6</ele>
        <time>2025-09-08T06:50:01Z</time>
      </trkpt>
      <trkpt lat="48.08228" lon="7.11218">
        <ele>806</ele>
        <time>2025-09-08T06:50:02Z</time>
      </trkpt>
      <trkpt lat="48.08231" lon="7.1122">
        <ele>806.4</ele>
        <time>2025-09-08T06:50:03Z</time>
      </trkpt>
      <trkpt lat="48.08233" lon="7.11221">
        <ele>806.8</ele>
        <time>2025-09-08T06:50:04Z</time>
      </trkpt>
      <trkpt lat="48.08235" lon="7.11224">
        <ele>807.4</ele>
        <time>2025-09-08T06:50:05Z</time>
      </trkpt>
      <trkpt lat="48.08237" lon="7.11225">
        <ele>807.6</ele>
        <time>2025-09-08T06:50:06Z</time>
      </trkpt>
      <trkpt lat="48.0824" lon="7.11226">
        <ele>808.2</ele>
        <time>2025-09-08T06:50:07Z</time>
      </trkpt>
      <trkpt lat="48.08242" lon="7.11229">
        <ele>808.6</ele>
        <time>2025-09-08T06:50:08Z</time>
      </trkpt>
      <trkpt lat="48.08245" lon="7.1123">
        <ele>808.8</ele>
        <time>2025-09-08T06:50:09Z</time>
      </trkpt>
      <trkpt lat="48.08248" lon="7.11231">
        <ele>809</ele>
        <time>2025-09-08T06:50:10Z</time>
      </trkpt>
      <trkpt lat="48.08249" lon="7.11232">
        <ele>809</ele>
        <time>2025-09-08T06:50:11Z</time>
      </trkpt>
      <trkpt lat="48.08249" lon="7.11232">
        <ele>809.2</ele>
        <time>2025-09-08T06:50:12Z</time>
      </trkpt>
      <trkpt lat="48.08249" lon="7.11232">
        <ele>809.4</ele>
        <time>2025-09-08T06:50:13Z</time>
      </trkpt>
      <trkpt lat="48.08251" lon="7.11233">
        <ele>809.8</ele>
        <time>2025-09-08T06:50:14Z</time>
      </trkpt>
      <trkpt lat="48.08251" lon="7.11233">
        <ele>809.8</ele>
        <time>2025-09-08T06:50:15Z</time>
      </trkpt>
      <trkpt lat="48.08251" lon="7.11233">
        <ele>810.2</ele>
        <time>2025-09-08T06:50:16Z</time>
      </trkpt>
      <trkpt lat="48.08258" lon="7.11238">
        <ele>812.2</ele>
        <time>2025-09-08T06:50:59Z</time>
      </trkpt>
      <trkpt lat="48.0826" lon="7.1124">
        <ele>812.2</ele>
        <time>2025-09-08T06:51:00Z</time>
      </trkpt>
      <trkpt lat="48.08262" lon="7.11242">
        <ele>812.2</ele>
        <time>2025-09-08T06:51:01Z</time>
      </trkpt>
      <trkpt lat="48.08265" lon="7.11243">
        <ele>812.2</ele>
        <time>2025-09-08T06:51:02Z</time>
      </trkpt>
      <trkpt lat="48.08266" lon="7.11245">
        <ele>812.4</ele>
        <time>2025-09-08T06:51:03Z</time>
      </trkpt>
      <trkpt lat="48.08268" lon="7.11246">
        <ele>812.4</ele>
        <time>2025-09-08T06:51:04Z</time>
      </trkpt>
      <trkpt lat="48.0827" lon="7.11246">
        <ele>812.6</ele>
        <time>2025-09-08T06:51:05Z</time>
      </trkpt>
      <trkpt lat="48.08272" lon="7.11246">
        <ele>812.8</ele>
        <time>2025-09-08T06:51:06Z</time>
      </trkpt>
      <trkpt lat="48.08274" lon="7.11248">
        <ele>813.2</ele>
        <time>2025-09-08T06:51:07Z</time>
      </trkpt>
      <trkpt lat="48.08276" lon="7.11249">
        <ele>813.4</ele>
        <time>2025-09-08T06:51:08Z</time>
      </trkpt>
      <trkpt lat="48.08278" lon="7.1125">
        <ele>813.6</ele>
        <time>2025-09-08T06:51:09Z</time>
      </trkpt>
      <trkpt lat="48.08281" lon="7.1125">
        <ele>813.8</ele>
        <time>2025-09-08T06:51:10Z</time>
      </trkpt>
      <trkpt lat="48.08283" lon="7.11251">
        <ele>813.8</ele>
        <time>2025-09-08T06:51:11Z</time>
      </trkpt>
      <trkpt lat="48.08285" lon="7.11253">
        <ele>814</ele>
        <time>2025-09-08T06:51:12Z</time>
      </trkpt>
      <trkpt lat="48.08288" lon="7.11253">
        <ele>814.2</ele>
        <time>2025-09-08T06:51:13Z</time>
      </trkpt>
      <trkpt lat="48.0829" lon="7.11254">
        <ele>814.4</ele>
        <time>2025-09-08T06:51:14Z</time>
      </trkpt>
      <trkpt lat="48.08292" lon="7.11255">
        <ele>814.4</ele>
        <time>2025-09-08T06:51:15Z</time>
      </trkpt>
      <trkpt lat="48.08295" lon="7.11256">
        <ele>814.6</ele>
        <time>2025-09-08T06:51:16Z</time>
      </trkpt>
      <trkpt lat="48.08297" lon="7.11257">
        <ele>814.8</ele>
        <time>2025-09-08T06:51:17Z</time>
      </trkpt>
      <trkpt lat="48.08299" lon="7.11258">
        <ele>815</ele>
        <time>2025-09-08T06:51:18Z</time>
      </trkpt>
      <trkpt lat="48.08301" lon="7.11259">
        <ele>815.2</ele>
        <time>2025-09-08T06:51:19Z</time>
      </trkpt>
      <trkpt lat="48.08303" lon="7.11261">
        <ele>815.4</ele>
        <time>2025-09-08T06:51:20Z</time>
      </trkpt>
      <trkpt lat="48.08305" lon="7.11262">
        <ele>815.6</ele>
        <time>2025-09-08T06:51:21Z</time>
      </trkpt>
      <trkpt lat="48.08307" lon="7.11263">
        <ele>815.8</ele>
        <time>2025-09-08T06:51:22Z</time>
      </trkpt>
      <trkpt lat="48.08309" lon="7.11264">
        <ele>815.8</ele>
        <time>2025-09-08T06:51:23Z</time>
      </trkpt>
      <trkpt lat="48.08311" lon="7.11265">
        <ele>816.2</ele>
        <time>2025-09-08T06:51:24Z</time>
      </trkpt>
      <trkpt lat="48.08313" lon="7.11266">
        <ele>816.4</ele>
        <time>2025-09-08T06:51:25Z</time>
      </trkpt>
      <trkpt lat="48.08315" lon="7.11268">
        <ele>816.6</ele>
        <time>2025-09-08T06:51:26Z</time>
      </trkpt>
      <trkpt lat="48.08317" lon="7.11269">
        <ele>816.8</ele>
        <time>2025-09-08T06:51:27Z</time>
      </trkpt>
      <trkpt lat="48.08319" lon="7.11269">
        <ele>817.2</ele>
        <time>2025-09-08T06:51:28Z</time>
      </trkpt>
      <trkpt lat="48.08321" lon="7.11271">
        <ele>817.4</ele>
        <time>2025-09-08T06:51:29Z</time>
      </trkpt>
      <trkpt lat="48.08323" lon="7.11271">
        <ele>817.6</ele>
        <time>2025-09-08T06:51:30Z</time>
      </trkpt>
      <trkpt lat="48.08324" lon="7.11272">
        <ele>817.8</ele>
        <time>2025-09-08T06:51:31Z</time>
      </trkpt>
      <trkpt lat="48.08326" lon="7.11274">
        <ele>818</ele>
        <time>2025-09-08T06:51:32Z</time>
      </trkpt>
      <trkpt lat="48.08326" lon="7.11275">
        <ele>818.4</ele>
        <time>2025-09-08T06:51:33Z</time>
      </trkpt>
      <trkpt lat="48.08325" lon="7.11275">
        <ele>818.4</ele>
        <time>2025-09-08T06:51:34Z</time>
      </trkpt>
      <trkpt lat="48.08338" lon="7.11289">
        <ele>822.8</ele>
        <time>2025-09-08T06:51:58Z</time>
      </trkpt>
      <trkpt lat="48.0834" lon="7.1129">
        <ele>823</ele>
        <time>2025-09-08T06:51:59Z</time>
      </trkpt>
      <trkpt lat="48.08342" lon="7.11291">
        <ele>823</ele>
        <time>2025-09-08T06:52:00Z</time>
      </trkpt>
      <trkpt lat="48.08343" lon="7.11292">
        <ele>823.2</ele>
        <time>2025-09-08T06:52:01Z</time>
      </trkpt>
      <trkpt lat="48.08346" lon="7.11293">
        <ele>823.2</ele>
        <time>2025-09-08T06:52:02Z</time>
      </trkpt>
      <trkpt lat="48.08348" lon="7.11293">
        <ele>823.2</ele>
        <time>2025-09-08T06:52:03Z</time>
      </trkpt>
      <trkpt lat="48.08349" lon="7.11294">
        <ele>823.2</ele>
        <time>2025-09-08T06:52:04Z</time>
      </trkpt>
      <trkpt lat="48.08351" lon="7.11294">
        <ele>823.2</ele>
        <time>2025-09-08T06:52:05Z</time>
      </trkpt>
      <trkpt lat="48.08354" lon="7.11292">
        <ele>823.2</ele>
        <time>2025-09-08T06:52:06Z</time>
      </trkpt>
      <trkpt lat="48.08357" lon="7.11291">
        <ele>823.2</ele>
        <time>2025-09-08T06:52:07Z</time>
      </trkpt>
      <trkpt lat="48.08361" lon="7.11291">
        <ele>823.2</ele>
        <time>2025-09-08T06:52:08Z</time>
      </trkpt>
      <trkpt lat="48.08365" lon="7.11291">
        <ele>823.2</ele>
        <time>2025-09-08T06:52:09Z</time>
      </trkpt>
      <trkpt lat="48.08368" lon="7.1129">
        <ele>823.2</ele>
        <time>2025-09-08T06:52:10Z</time>
      </trkpt>
      <trkpt lat="48.08372" lon="7.11289">
        <ele>823.4</ele>
        <time>2025-09-08T06:52:11Z</time>
      </trkpt>
      <trkpt lat="48.08374" lon="7.11288">
        <ele>823.4</ele>
        <time>2025-09-08T06:52:12Z</time>
      </trkpt>
      <trkpt lat="48.08376" lon="7.11289">
        <ele>823.6</ele>
        <time>2025-09-08T06:52:13Z</time>
      </trkpt>
      <trkpt lat="48.08378" lon="7.11289">
        <ele>823.6</ele>
        <time>2025-09-08T06:52:14Z</time>
      </trkpt>
      <trkpt lat="48.0838" lon="7.11289">
        <ele>823.8</ele>
        <time>2025-09-08T06:52:15Z</time>
      </trkpt>
      <trkpt lat="48.08382" lon="7.1129">
        <ele>824</ele>
        <time>2025-09-08T06:52:16Z</time>
      </trkpt>
      <trkpt lat="48.08384" lon="7.11291">
        <ele>824.2</ele>
        <time>2025-09-08T06:52:17Z</time>
      </trkpt>
      <trkpt lat="48.08386" lon="7.11291">
        <ele>824.6</ele>
        <time>2025-09-08T06:52:18Z</time>
      </trkpt>
      <trkpt lat="48.08388" lon="7.11292">
        <ele>825</ele>
        <time>2025-09-08T06:52:19Z</time>
      </trkpt>
      <trkpt lat="48.0839" lon="7.11292">
        <ele>825.2</ele>
        <time>2025-09-08T06:52:20Z</time>
      </trkpt>
      <trkpt lat="48.08392" lon="7.11293">
        <ele>825.4</ele>
        <time>2025-09-08T06:52:21Z</time>
      </trkpt>
      <trkpt lat="48.08394" lon="7.11293">
        <ele>825.4</ele>
        <time>2025-09-08T06:52:22Z</time>
      </trkpt>
      <trkpt lat="48.08396" lon="7.11294">
        <ele>825.8</ele>
        <time>2025-09-08T06:52:23Z</time>
      </trkpt>
      <trkpt lat="48.08398" lon="7.11294">
        <ele>826</ele>
        <time>2025-09-08T06:52:24Z</time>
      </trkpt>
      <trkpt lat="48.084" lon="7.11295">
        <ele>826.2</ele>
        <time>2025-09-08T06:52:25Z</time>
      </trkpt>
      <trkpt lat="48.08403" lon="7.11295">
        <ele>826.4</ele>
        <time>2025-09-08T06:52:26Z</time>
      </trkpt>
      <trkpt lat="48.08405" lon="7.11296">
        <ele>826.6</ele>
        <time>2025-09-08T06:52:27Z</time>
      </trkpt>
      <trkpt lat="48.08407" lon="7.11296">
        <ele>826.8</ele>
        <time>2025-09-08T06:52:28Z</time>
      </trkpt>
      <trkpt lat="48.08409" lon="7.11297">
        <ele>827.2</ele>
        <time>2025-09-08T06:52:29Z</time>
      </trkpt>
      <trkpt lat="48.08411" lon="7.11297">
        <ele>827.2</ele>
        <time>2025-09-08T06:52:30Z</time>
      </trkpt>
      <trkpt lat="48.08413" lon="7.11298">
        <ele>827.4</ele>
        <time>2025-09-08T06:52:31Z</time>
      </trkpt>
      <trkpt lat="48.08415" lon="7.11299">
        <ele>827.4</ele>
        <time>2025-09-08T06:52:32Z</time>
      </trkpt>
      <trkpt lat="48.08417" lon="7.113">
        <ele>827.6</ele>
        <time>2025-09-08T06:52:33Z</time>
      </trkpt>
      <trkpt lat="48.08419" lon="7.113">
        <ele>828</ele>
        <time>2025-09-08T06:52:34Z</time>
      </trkpt>
      <trkpt lat="48.08421" lon="7.11301">
        <ele>828.2</ele>
        <time>2025-09-08T06:52:35Z</time>
      </trkpt>
      <trkpt lat="48.08423" lon="7.11302">
        <ele>828.4</ele>
        <time>2025-09-08T06:52:36Z</time>
      </trkpt>
      <trkpt lat="48.08425" lon="7.11303">
        <ele>828.6</ele>
        <time>2025-09-08T06:52:37Z</time>
      </trkpt>
      <trkpt lat="48.08428" lon="7.11303">
        <ele>829</ele>
        <time>2025-09-08T06:52:38Z</time>
      </trkpt>
      <trkpt lat="48.0843" lon="7.11304">
        <ele>829</ele>
        <time>2025-09-08T06:52:39Z</time>
      </trkpt>
      <trkpt lat="48.08432" lon="7.11304">
        <ele>829.4</ele>
        <time>2025-09-08T06:52:40Z</time>
      </trkpt>
      <trkpt lat="48.08434" lon="7.11305">
        <ele>829.6</ele>
        <time>2025-09-08T06:52:41Z</time>
      </trkpt>
      <trkpt lat="48.08436" lon="7.11305">
        <ele>830</ele>
        <time>2025-09-08T06:52:42Z</time>
      </trkpt>
      <trkpt lat="48.08438" lon="7.11306">
        <ele>830.2</ele>
        <time>2025-09-08T06:52:43Z</time>
      </trkpt>
      <trkpt lat="48.0844" lon="7.11306">
        <ele>830.4</ele>
        <time>2025-09-08T06:52:44Z</time>
      </trkpt>
      <trkpt lat="48.08442" lon="7.11306">
        <ele>830.8</ele>
        <time>2025-09-08T06:52:45Z</time>
      </trkpt>
      <trkpt lat="48.08444" lon="7.11306">
        <ele>831</ele>
        <time>2025-09-08T06:52:46Z</time>
      </trkpt>
      <trkpt lat="48.08446" lon="7.11307">
        <ele>831.4</ele>
        <time>2025-09-08T06:52:47Z</time>
      </trkpt>
      <trkpt lat="48.08449" lon="7.11306">
        <ele>831.6</ele>
        <time>2025-09-08T06:52:48Z</time>
      </trkpt>
      <trkpt lat="48.08451" lon="7.11307">
        <ele>831.8</ele>
        <time>2025-09-08T06:52:49Z</time>
      </trkpt>
      <trkpt lat="48.08453" lon="7.11307">
        <ele>832</ele>
        <time>2025-09-08T06:52:50Z</time>
      </trkpt>
      <trkpt lat="48.08455" lon="7.11308">
        <ele>832.2</ele>
        <time>2025-09-08T06:52:51Z</time>
      </trkpt>
      <trkpt lat="48.08457" lon="7.11308">
        <ele>832.4</ele>
        <time>2025-09-08T06:52:52Z</time>
      </trkpt>
      <trkpt lat="48.08459" lon="7.11309">
        <ele>832.6</ele>
        <time>2025-09-08T06:52:53Z</time>
      </trkpt>
      <trkpt lat="48.08461" lon="7.1131">
        <ele>832.8</ele>
        <time>2025-09-08T06:52:54Z</time>
      </trkpt>
      <trkpt lat="48.08463" lon="7.1131">
        <ele>833</ele>
        <time>2025-09-08T06:52:55Z</time>
      </trkpt>
      <trkpt lat="48.08465" lon="7.11311">
        <ele>833.4</ele>
        <time>2025-09-08T06:52:56Z</time>
      </trkpt>
      <trkpt lat="48.08467" lon="7.11311">
        <ele>833.6</ele>
        <time>2025-09-08T06:52:57Z</time>
      </trkpt>
      <trkpt lat="48.0847" lon="7.11312">
        <ele>833.8</ele>
        <time>2025-09-08T06:52:58Z</time>
      </trkpt>
      <trkpt lat="48.08472" lon="7.11312">
        <ele>834</ele>
        <time>2025-09-08T06:52:59Z</time>
      </trkpt>
      <trkpt lat="48.08474" lon="7.11313">
        <ele>834.2</ele>
        <time>2025-09-08T06:53:00Z</time>
      </trkpt>
      <trkpt lat="48.08476" lon="7.11314">
        <ele>834.4</ele>
        <time>2025-09-08T06:53:01Z</time>
      </trkpt>
      <trkpt lat="48.08478" lon="7.11314">
        <ele>834.6</ele>
        <time>2025-09-08T06:53:02Z</time>
      </trkpt>
      <trkpt lat="48.08481" lon="7.11315">
        <ele>835</ele>
        <time>2025-09-08T06:53:03Z</time>
      </trkpt>
      <trkpt lat="48.08483" lon="7.11316">
        <ele>835.2</ele>
        <time>2025-09-08T06:53:04Z</time>
      </trkpt>
      <trkpt lat="48.08485" lon="7.11316">
        <ele>835.4</ele>
        <time>2025-09-08T06:53:05Z</time>
      </trkpt>
      <trkpt lat="48.08487" lon="7.11316">
        <ele>835.6</ele>
        <time>2025-09-08T06:53:06Z</time>
      </trkpt>
      <trkpt lat="48.08489" lon="7.11316">
        <ele>835.6</ele>
        <time>2025-09-08T06:53:07Z</time>
      </trkpt>
      <trkpt lat="48.08492" lon="7.11316">
        <ele>835.8</ele>
        <time>2025-09-08T06:53:08Z</time>
      </trkpt>
      <trkpt lat="48.08494" lon="7.11316">
        <ele>836</ele>
        <time>2025-09-08T06:53:09Z</time>
      </trkpt>
      <trkpt lat="48.08496" lon="7.11316">
        <ele>836.2</ele>
        <time>2025-09-08T06:53:10Z</time>
      </trkpt>
      <trkpt lat="48.08499" lon="7.11316">
        <ele>836.4</ele>
        <time>2025-09-08T06:53:11Z</time>
      </trkpt>
      <trkpt lat="48.08501" lon="7.11316">
        <ele>836.8</ele>
        <time>2025-09-08T06:53:12Z</time>
      </trkpt>
      <trkpt lat="48.08503" lon="7.11316">
        <ele>837</ele>
        <time>2025-09-08T06:53:13Z</time>
      </trkpt>
      <trkpt lat="48.08505" lon="7.11316">
        <ele>837.2</ele>
        <time>2025-09-08T06:53:14Z</time>
      </trkpt>
      <trkpt lat="48.08507" lon="7.11316">
        <ele>837.6</ele>
        <time>2025-09-08T06:53:15Z</time>
      </trkpt>
      <trkpt lat="48.08509" lon="7.11317">
        <ele>837.8</ele>
        <time>2025-09-08T06:53:16Z</time>
      </trkpt>
      <trkpt lat="48.08512" lon="7.11316">
        <ele>838</ele>
        <time>2025-09-08T06:53:17Z</time>
      </trkpt>
      <trkpt lat="48.08514" lon="7.11317">
        <ele>838.4</ele>
        <time>2025-09-08T06:53:18Z</time>
      </trkpt>
      <trkpt lat="48.08516" lon="7.11316">
        <ele>838.4</ele>
        <time>2025-09-08T06:53:19Z</time>
      </trkpt>
      <trkpt lat="48.08518" lon="7.11317">
        <ele>838.8</ele>
        <time>2025-09-08T06:53:20Z</time>
      </trkpt>
      <trkpt lat="48.0852" lon="7.11317">
        <ele>839.2</ele>
        <time>2025-09-08T06:53:21Z</time>
      </trkpt>
      <trkpt lat="48.08522" lon="7.11317">
        <ele>839.2</ele>
        <time>2025-09-08T06:53:22Z</time>
      </trkpt>
      <trkpt lat="48.08524" lon="7.11318">
        <ele>839.4</ele>
        <time>2025-09-08T06:53:23Z</time>
      </trkpt>
      <trkpt lat="48.08526" lon="7.11318">
        <ele>839.8</ele>
        <time>2025-09-08T06:53:24Z</time>
      </trkpt>
      <trkpt lat="48.08528" lon="7.11318">
        <ele>840.2</ele>
        <time>2025-09-08T06:53:25Z</time>
      </trkpt>
      <trkpt lat="48.0853" lon="7.11318">
        <ele>840.2</ele>
        <time>2025-09-08T06:53:26Z</time>
      </trkpt>
      <trkpt lat="48.08532" lon="7.11319">
        <ele>840.6</ele>
        <time>2025-09-08T06:53:27Z</time>
      </trkpt>
      <trkpt lat="48.08534" lon="7.1132">
        <ele>840.8</ele>
        <time>2025-09-08T06:53:28Z</time>
      </trkpt>
      <trkpt lat="48.08536" lon="7.1132">
        <ele>841</ele>
        <time>2025-09-08T06:53:29Z</time>
      </trkpt>
      <trkpt lat="48.08538" lon="7.1132">
        <ele>841</ele>
        <time>2025-09-08T06:53:30Z</time>
      </trkpt>
      <trkpt lat="48.0854" lon="7.1132">
        <ele>841.4</ele>
        <time>2025-09-08T06:53:31Z</time>
      </trkpt>
      <trkpt lat="48.08543" lon="7.11321">
        <ele>841.6</ele>
        <time>2025-09-08T06:53:32Z</time>
      </trkpt>
      <trkpt lat="48.08545" lon="7.11321">
        <ele>841.6</ele>
        <time>2025-09-08T06:53:33Z</time>
      </trkpt>
      <trkpt lat="48.08547" lon="7.11322">
        <ele>842</ele>
        <time>2025-09-08T06:53:34Z</time>
      </trkpt>
      <trkpt lat="48.08549" lon="7.11323">
        <ele>842.2</ele>
        <time>2025-09-08T06:53:35Z</time>
      </trkpt>
      <trkpt lat="48.0855" lon="7.11324">
        <ele>842.4</ele>
        <time>2025-09-08T06:53:36Z</time>
      </trkpt>
      <trkpt lat="48.08552" lon="7.11325">
        <ele>842.8</ele>
        <time>2025-09-08T06:53:37Z</time>
      </trkpt>
      <trkpt lat="48.08554" lon="7.11326">
        <ele>843</ele>
        <time>2025-09-08T06:53:38Z</time>
      </trkpt>
      <trkpt lat="48.08556" lon="7.11327">
        <ele>843.2</ele>
        <time>2025-09-08T06:53:39Z</time>
      </trkpt>
      <trkpt lat="48.08558" lon="7.11327">
        <ele>843.6</ele>
        <time>2025-09-08T06:53:40Z</time>
      </trkpt>
      <trkpt lat="48.08561" lon="7.11328">
        <ele>843.8</ele>
        <time>2025-09-08T06:53:41Z</time>
      </trkpt>
      <trkpt lat="48.08563" lon="7.11329">
        <ele>844</ele>
        <time>2025-09-08T06:53:42Z</time>
      </trkpt>
      <trkpt lat="48.08565" lon="7.11329">
        <ele>844.2</ele>
        <time>2025-09-08T06:53:43Z</time>
      </trkpt>
      <trkpt lat="48.08566" lon="7.1133">
        <ele>844.4</ele>
        <time>2025-09-08T06:53:44Z</time>
      </trkpt>
      <trkpt lat="48.08568" lon="7.11331">
        <ele>844.6</ele>
        <time>2025-09-08T06:53:45Z</time>
      </trkpt>
      <trkpt lat="48.0857" lon="7.11331">
        <ele>845</ele>
        <time>2025-09-08T06:53:46Z</time>
      </trkpt>
      <trkpt lat="48.08572" lon="7.11332">
        <ele>845.2</ele>
        <time>2025-09-08T06:53:47Z</time>
      </trkpt>
      <trkpt lat="48.08574" lon="7.11333">
        <ele>845.4</ele>
        <time>2025-09-08T06:53:48Z</time>
      </trkpt>
      <trkpt lat="48.08575" lon="7.11333">
        <ele>845.6</ele>
        <time>2025-09-08T06:53:49Z</time>
      </trkpt>
      <trkpt lat="48.08577" lon="7.11334">
        <ele>845.8</ele>
        <time>2025-09-08T06:53:50Z</time>
      </trkpt>
      <trkpt lat="48.08579" lon="7.11335">
        <ele>846</ele>
        <time>2025-09-08T06:53:51Z</time>
      </trkpt>
      <trkpt lat="48.08581" lon="7.11335">
        <ele>846.2</ele>
        <time>2025-09-08T06:53:52Z</time>
      </trkpt>
      <trkpt lat="48.08583" lon="7.11336">
        <ele>846.6</ele>
        <time>2025-09-08T06:53:53Z</time>
      </trkpt>
      <trkpt lat="48.08585" lon="7.11337">
        <ele>846.8</ele>
        <time>2025-09-08T06:53:54Z</time>
      </trkpt>
      <trkpt lat="48.08587" lon="7.11337">
        <ele>847</ele>
        <time>2025-09-08T06:53:55Z</time>
      </trkpt>
      <trkpt lat="48.08589" lon="7.11338">
        <ele>847.2</ele>
        <time>2025-09-08T06:53:56Z</time>
      </trkpt>
      <trkpt lat="48.0859" lon="7.1134">
        <ele>847.6</ele>
        <time>2025-09-08T06:53:57Z</time>
      </trkpt>
      <trkpt lat="48.08592" lon="7.11341">
        <ele>847.8</ele>
        <time>2025-09-08T06:53:58Z</time>
      </trkpt>
      <trkpt lat="48.08594" lon="7.11342">
        <ele>848</ele>
        <time>2025-09-08T06:53:59Z</time>
      </trkpt>
      <trkpt lat="48.08596" lon="7.11343">
        <ele>848.2</ele>
        <time>2025-09-08T06:54:00Z</time>
      </trkpt>
      <trkpt lat="48.08597" lon="7.11344">
        <ele>848.6</ele>
        <time>2025-09-08T06:54:01Z</time>
      </trkpt>
      <trkpt lat="48.08599" lon="7.11344">
        <ele>849</ele>
        <time>2025-09-08T06:54:02Z</time>
      </trkpt>
      <trkpt lat="48.08601" lon="7.11345">
        <ele>849.2</ele>
        <time>2025-09-08T06:54:03Z</time>
      </trkpt>
      <trkpt lat="48.08603" lon="7.11346">
        <ele>849.4</ele>
        <time>2025-09-08T06:54:04Z</time>
      </trkpt>
      <trkpt lat="48.08604" lon="7.11347">
        <ele>849.6</ele>
        <time>2025-09-08T06:54:05Z</time>
      </trkpt>
      <trkpt lat="48.08606" lon="7.11347">
        <ele>849.8</ele>
        <time>2025-09-08T06:54:06Z</time>
      </trkpt>
      <trkpt lat="48.08608" lon="7.11348">
        <ele>850.2</ele>
        <time>2025-09-08T06:54:07Z</time>
      </trkpt>
      <trkpt lat="48.0861" lon="7.11349">
        <ele>850.4</ele>
        <time>2025-09-08T06:54:08Z</time>
      </trkpt>
      <trkpt lat="48.08612" lon="7.1135">
        <ele>850.6</ele>
        <time>2025-09-08T06:54:09Z</time>
      </trkpt>
      <trkpt lat="48.08614" lon="7.1135">
        <ele>850.8</ele>
        <time>2025-09-08T06:54:10Z</time>
      </trkpt>
      <trkpt lat="48.08615" lon="7.11351">
        <ele>851</ele>
        <time>2025-09-08T06:54:11Z</time>
      </trkpt>
      <trkpt lat="48.08617" lon="7.11351">
        <ele>851</ele>
        <time>2025-09-08T06:54:12Z</time>
      </trkpt>
      <trkpt lat="48.08619" lon="7.11352">
        <ele>851.4</ele>
        <time>2025-09-08T06:54:13Z</time>
      </trkpt>
      <trkpt lat="48.08621" lon="7.11353">
        <ele>851.6</ele>
        <time>2025-09-08T06:54:14Z</time>
      </trkpt>
      <trkpt lat="48.08622" lon="7.11354">
        <ele>851.8</ele>
        <time>2025-09-08T06:54:15Z</time>
      </trkpt>
      <trkpt lat="48.08624" lon="7.11354">
        <ele>851.8</ele>
        <time>2025-09-08T06:54:16Z</time>
      </trkpt>
      <trkpt lat="48.08625" lon="7.11355">
        <ele>852.2</ele>
        <time>2025-09-08T06:54:17Z</time>
      </trkpt>
      <trkpt lat="48.08627" lon="7.11356">
        <ele>852.2</ele>
        <time>2025-09-08T06:54:18Z</time>
      </trkpt>
      <trkpt lat="48.08628" lon="7.11356">
        <ele>852.4</ele>
        <time>2025-09-08T06:54:19Z</time>
      </trkpt>
      <trkpt lat="48.08629" lon="7.11357">
        <ele>852.6</ele>
        <time>2025-09-08T06:54:20Z</time>
      </trkpt>
      <trkpt lat="48.08631" lon="7.11357">
        <ele>852.8</ele>
        <time>2025-09-08T06:54:21Z</time>
      </trkpt>
      <trkpt lat="48.08632" lon="7.11358">
        <ele>853</ele>
        <time>2025-09-08T06:54:22Z</time>
      </trkpt>
      <trkpt lat="48.08634" lon="7.11358">
        <ele>853.2</ele>
        <time>2025-09-08T06:54:23Z</time>
      </trkpt>
      <trkpt lat="48.08634" lon="7.11358">
        <ele>853.4</ele>
        <time>2025-09-08T06:54:24Z</time>
      </trkpt>
      <trkpt lat="48.08635" lon="7.11358">
        <ele>853.6</ele>
        <time>2025-09-08T06:54:25Z</time>
      </trkpt>
      <trkpt lat="48.08636" lon="7.11359">
        <ele>853.8</ele>
        <time>2025-09-08T06:54:26Z</time>
      </trkpt>
      <trkpt lat="48.08637" lon="7.11359">
        <ele>853.8</ele>
        <time>2025-09-08T06:54:27Z</time>
      </trkpt>
      <trkpt lat="48.08637" lon="7.11359">
        <ele>854</ele>
        <time>2025-09-08T06:54:28Z</time>
      </trkpt>
      <trkpt lat="48.08637" lon="7.11359">
        <ele>854</ele>
        <time>2025-09-08T06:54:29Z</time>
      </trkpt>
      <trkpt lat="48.08666" lon="7.1137">
        <ele>857.8</ele>
        <time>2025-09-08T06:55:25Z</time>
      </trkpt>
      <trkpt lat="48.08667" lon="7.11372">
        <ele>857.8</ele>
        <time>2025-09-08T06:55:26Z</time>
      </trkpt>
      <trkpt lat="48.08668" lon="7.11374">
        <ele>858</ele>
        <time>2025-09-08T06:55:27Z</time>
      </trkpt>
      <trkpt lat="48.0867" lon="7.11377">
        <ele>858</ele>
        <time>2025-09-08T06:55:28Z</time>
      </trkpt>
      <trkpt lat="48.0867" lon="7.11379">
        <ele>858</ele>
        <time>2025-09-08T06:55:29Z</time>
      </trkpt>
      <trkpt lat="48.08671" lon="7.11382">
        <ele>858.4</ele>
        <time>2025-09-08T06:55:30Z</time>
      </trkpt>
      <trkpt lat="48.08673" lon="7.11384">
        <ele>858.6</ele>
        <time>2025-09-08T06:55:31Z</time>
      </trkpt>
      <trkpt lat="48.08675" lon="7.11386">
        <ele>858.8</ele>
        <time>2025-09-08T06:55:32Z</time>
      </trkpt>
      <trkpt lat="48.08677" lon="7.11387">
        <ele>858.8</ele>
        <time>2025-09-08T06:55:33Z</time>
      </trkpt>
      <trkpt lat="48.08679" lon="7.11387">
        <ele>859.4</ele>
        <time>2025-09-08T06:55:34Z</time>
      </trkpt>
      <trkpt lat="48.08681" lon="7.11388">
        <ele>859.6</ele>
        <time>2025-09-08T06:55:35Z</time>
      </trkpt>
      <trkpt lat="48.08683" lon="7.11388">
        <ele>860</ele>
        <time>2025-09-08T06:55:36Z</time>
      </trkpt>
      <trkpt lat="48.08686" lon="7.11389">
        <ele>860.2</ele>
        <time>2025-09-08T06:55:37Z</time>
      </trkpt>
      <trkpt lat="48.08689" lon="7.1139">
        <ele>860.6</ele>
        <time>2025-09-08T06:55:38Z</time>
      </trkpt>
      <trkpt lat="48.08691" lon="7.1139">
        <ele>860.8</ele>
        <time>2025-09-08T06:55:39Z</time>
      </trkpt>
      <trkpt lat="48.08692" lon="7.11391">
        <ele>861.2</ele>
        <time>2025-09-08T06:55:40Z</time>
      </trkpt>
      <trkpt lat="48.08692" lon="7.11391">
        <ele>861.6</ele>
        <time>2025-09-08T06:55:41Z</time>
      </trkpt>
      <trkpt lat="48.08692" lon="7.11391">
        <ele>861.8</ele>
        <time>2025-09-08T06:55:42Z</time>
      </trkpt>
      <trkpt lat="48.08704" lon="7.11394">
        <ele>865</ele>
        <time>2025-09-08T06:55:58Z</time>
      </trkpt>
      <trkpt lat="48.08706" lon="7.11396">
        <ele>865</ele>
        <time>2025-09-08T06:55:59Z</time>
      </trkpt>
      <trkpt lat="48.08708" lon="7.11397">
        <ele>865</ele>
        <time>2025-09-08T06:56:00Z</time>
      </trkpt>
      <trkpt lat="48.0871" lon="7.11398">
        <ele>865.2</ele>
        <time>2025-09-08T06:56:01Z</time>
      </trkpt>
      <trkpt lat="48.08712" lon="7.11399">
        <ele>865.4</ele>
        <time>2025-09-08T06:56:02Z</time>
      </trkpt>
      <trkpt lat="48.08715" lon="7.11399">
        <ele>865.4</ele>
        <time>2025-09-08T06:56:03Z</time>
      </trkpt>
      <trkpt lat="48.08717" lon="7.11399">
        <ele>865.6</ele>
        <time>2025-09-08T06:56:04Z</time>
      </trkpt>
      <trkpt lat="48.08719" lon="7.11398">
        <ele>865.8</ele>
        <time>2025-09-08T06:56:05Z</time>
      </trkpt>
      <trkpt lat="48.08721" lon="7.11396">
        <ele>866</ele>
        <time>2025-09-08T06:56:06Z</time>
      </trkpt>
      <trkpt lat="48.08724" lon="7.11395">
        <ele>866</ele>
        <time>2025-09-08T06:56:07Z</time>
      </trkpt>
      <trkpt lat="48.08726" lon="7.11393">
        <ele>866</ele>
        <time>2025-09-08T06:56:08Z</time>
      </trkpt>
      <trkpt lat="48.08728" lon="7.11391">
        <ele>866</ele>
        <time>2025-09-08T06:56:09Z</time>
      </trkpt>
      <trkpt lat="48.0873" lon="7.11389">
        <ele>866.2</ele>
        <time>2025-09-08T06:56:10Z</time>
      </trkpt>
      <trkpt lat="48.08732" lon="7.11387">
        <ele>866.2</ele>
        <time>2025-09-08T06:56:11Z</time>
      </trkpt>
      <trkpt lat="48.08734" lon="7.11385">
        <ele>866.4</ele>
        <time>2025-09-08T06:56:12Z</time>
      </trkpt>
      <trkpt lat="48.08736" lon="7.11382">
        <ele>866.6</ele>
        <time>2025-09-08T06:56:13Z</time>
      </trkpt>
      <trkpt lat="48.08738" lon="7.11379">
        <ele>866.8</ele>
        <time>2025-09-08T06:56:14Z</time>
      </trkpt>
      <trkpt lat="48.0874" lon="7.11376">
        <ele>867</ele>
        <time>2025-09-08T06:56:15Z</time>
      </trkpt>
      <trkpt lat="48.08742" lon="7.11373">
        <ele>867.2</ele>
        <time>2025-09-08T06:56:16Z</time>
      </trkpt>
      <trkpt lat="48.08743" lon="7.1137">
        <ele>867.6</ele>
        <time>2025-09-08T06:56:17Z</time>
      </trkpt>
      <trkpt lat="48.08745" lon="7.11366">
        <ele>867.8</ele>
        <time>2025-09-08T06:56:18Z</time>
      </trkpt>
      <trkpt lat="48.08746" lon="7.11362">
        <ele>868</ele>
        <time>2025-09-08T06:56:19Z</time>
      </trkpt>
      <trkpt lat="48.08747" lon="7.11358">
        <ele>868</ele>
        <time>2025-09-08T06:56:20Z</time>
      </trkpt>
      <trkpt lat="48.08748" lon="7.11354">
        <ele>868.2</ele>
        <time>2025-09-08T06:56:21Z</time>
      </trkpt>
      <trkpt lat="48.08749" lon="7.1135">
        <ele>868.4</ele>
        <time>2025-09-08T06:56:22Z</time>
      </trkpt>
      <trkpt lat="48.0875" lon="7.11346">
        <ele>868.6</ele>
        <time>2025-09-08T06:56:23Z</time>
      </trkpt>
      <trkpt lat="48.08751" lon="7.11343">
        <ele>868.8</ele>
        <time>2025-09-08T06:56:24Z</time>
      </trkpt>
      <trkpt lat="48.08752" lon="7.11339">
        <ele>869</ele>
        <time>2025-09-08T06:56:25Z</time>
      </trkpt>
      <trkpt lat="48.08753" lon="7.11334">
        <ele>869.2</ele>
        <time>2025-09-08T06:56:26Z</time>
      </trkpt>
      <trkpt lat="48.08754" lon="7.1133">
        <ele>869.6</ele>
        <time>2025-09-08T06:56:27Z</time>
      </trkpt>
      <trkpt lat="48.08755" lon="7.11327">
        <ele>869.8</ele>
        <time>2025-09-08T06:56:28Z</time>
      </trkpt>
      <trkpt lat="48.08756" lon="7.11323">
        <ele>870</ele>
        <time>2025-09-08T06:56:29Z</time>
      </trkpt>
      <trkpt lat="48.08757" lon="7.11319">
        <ele>870.2</ele>
        <time>2025-09-08T06:56:30Z</time>
      </trkpt>
      <trkpt lat="48.08758" lon="7.11315">
        <ele>870.4</ele>
        <time>2025-09-08T06:56:31Z</time>
      </trkpt>
      <trkpt lat="48.08759" lon="7.11312">
        <ele>870.4</ele>
        <time>2025-09-08T06:56:32Z</time>
      </trkpt>
      <trkpt lat="48.08762" lon="7.11308">
        <ele>870.8</ele>
        <time>2025-09-08T06:56:33Z</time>
      </trkpt>
      <trkpt lat="48.08764" lon="7.11306">
        <ele>871</ele>
        <time>2025-09-08T06:56:34Z</time>
      </trkpt>
      <trkpt lat="48.08767" lon="7.11304">
        <ele>871.2</ele>
        <time>2025-09-08T06:56:35Z</time>
      </trkpt>
      <trkpt lat="48.08769" lon="7.11303">
        <ele>871.4</ele>
        <time>2025-09-08T06:56:36Z</time>
      </trkpt>
      <trkpt lat="48.08772" lon="7.11302">
        <ele>871.4</ele>
        <time>2025-09-08T06:56:37Z</time>
      </trkpt>
      <trkpt lat="48.08774" lon="7.11302">
        <ele>871.6</ele>
        <time>2025-09-08T06:56:38Z</time>
      </trkpt>
      <trkpt lat="48.08777" lon="7.11303">
        <ele>871.8</ele>
        <time>2025-09-08T06:56:39Z</time>
      </trkpt>
      <trkpt lat="48.08779" lon="7.11305">
        <ele>872</ele>
        <time>2025-09-08T06:56:40Z</time>
      </trkpt>
      <trkpt lat="48.08781" lon="7.11308">
        <ele>872.2</ele>
        <time>2025-09-08T06:56:41Z</time>
      </trkpt>
      <trkpt lat="48.08783" lon="7.1131">
        <ele>872.2</ele>
        <time>2025-09-08T06:56:42Z</time>
      </trkpt>
      <trkpt lat="48.08785" lon="7.11314">
        <ele>872.2</ele>
        <time>2025-09-08T06:56:43Z</time>
      </trkpt>
      <trkpt lat="48.08786" lon="7.11318">
        <ele>872.4</ele>
        <time>2025-09-08T06:56:44Z</time>
      </trkpt>
      <trkpt lat="48.08786" lon="7.11322">
        <ele>872.4</ele>
        <time>2025-09-08T06:56:45Z</time>
      </trkpt>
      <trkpt lat="48.08786" lon="7.11326">
        <ele>872.4</ele>
        <time>2025-09-08T06:56:46Z</time>
      </trkpt>
      <trkpt lat="48.08787" lon="7.1133">
        <ele>872.6</ele>
        <time>2025-09-08T06:56:47Z</time>
      </trkpt>
      <trkpt lat="48.08787" lon="7.11334">
        <ele>872.8</ele>
        <time>2025-09-08T06:56:48Z</time>
      </trkpt>
      <trkpt lat="48.08787" lon="7.11339">
        <ele>873</ele>
        <time>2025-09-08T06:56:49Z</time>
      </trkpt>
      <trkpt lat="48.08786" lon="7.11343">
        <ele>873.2</ele>
        <time>2025-09-08T06:56:50Z</time>
      </trkpt>
      <trkpt lat="48.08786" lon="7.11348">
        <ele>873.4</ele>
        <time>2025-09-08T06:56:51Z</time>
      </trkpt>
      <trkpt lat="48.08785" lon="7.11353">
        <ele>873.6</ele>
        <time>2025-09-08T06:56:52Z</time>
      </trkpt>
      <trkpt lat="48.08785" lon="7.11357">
        <ele>874</ele>
        <time>2025-09-08T06:56:53Z</time>
      </trkpt>
      <trkpt lat="48.08784" lon="7.11362">
        <ele>874</ele>
        <time>2025-09-08T06:56:54Z</time>
      </trkpt>
      <trkpt lat="48.08784" lon="7.11367">
        <ele>874.2</ele>
        <time>2025-09-08T06:56:55Z</time>
      </trkpt>
      <trkpt lat="48.08783" lon="7.11371">
        <ele>874.4</ele>
        <time>2025-09-08T06:56:56Z</time>
      </trkpt>
      <trkpt lat="48.08782" lon="7.11376">
        <ele>874.6</ele>
        <time>2025-09-08T06:56:57Z</time>
      </trkpt>
      <trkpt lat="48.08782" lon="7.11381">
        <ele>874.8</ele>
        <time>2025-09-08T06:56:58Z</time>
      </trkpt>
      <trkpt lat="48.08782" lon="7.11385">
        <ele>875</ele>
        <time>2025-09-08T06:56:59Z</time>
      </trkpt>
      <trkpt lat="48.08781" lon="7.1139">
        <ele>875.2</ele>
        <time>2025-09-08T06:57:00Z</time>
      </trkpt>
      <trkpt lat="48.0878" lon="7.11394">
        <ele>875.2</ele>
        <time>2025-09-08T06:57:01Z</time>
      </trkpt>
      <trkpt lat="48.0878" lon="7.11399">
        <ele>875.4</ele>
        <time>2025-09-08T06:57:02Z</time>
      </trkpt>
      <trkpt lat="48.08779" lon="7.11403">
        <ele>875.4</ele>
        <time>2025-09-08T06:57:03Z</time>
      </trkpt>
      <trkpt lat="48.08779" lon="7.11407">
        <ele>875.6</ele>
        <time>2025-09-08T06:57:04Z</time>
      </trkpt>
      <trkpt lat="48.08778" lon="7.11412">
        <ele>875.6</ele>
        <time>2025-09-08T06:57:05Z</time>
      </trkpt>
      <trkpt lat="48.08777" lon="7.11417">
        <ele>875.8</ele>
        <time>2025-09-08T06:57:06Z</time>
      </trkpt>
      <trkpt lat="48.08777" lon="7.11421">
        <ele>876</ele>
        <time>2025-09-08T06:57:07Z</time>
      </trkpt>
      <trkpt lat="48.08776" lon="7.11426">
        <ele>876.2</ele>
        <time>2025-09-08T06:57:08Z</time>
      </trkpt>
      <trkpt lat="48.08775" lon="7.11431">
        <ele>876.4</ele>
        <time>2025-09-08T06:57:09Z</time>
      </trkpt>
      <trkpt lat="48.08775" lon="7.11435">
        <ele>876.6</ele>
        <time>2025-09-08T06:57:10Z</time>
      </trkpt>
      <trkpt lat="48.08774" lon="7.1144">
        <ele>876.8</ele>
        <time>2025-09-08T06:57:11Z</time>
      </trkpt>
      <trkpt lat="48.08774" lon="7.11445">
        <ele>877</ele>
        <time>2025-09-08T06:57:12Z</time>
      </trkpt>
      <trkpt lat="48.08773" lon="7.11449">
        <ele>877</ele>
        <time>2025-09-08T06:57:13Z</time>
      </trkpt>
      <trkpt lat="48.08773" lon="7.11454">
        <ele>877.2</ele>
        <time>2025-09-08T06:57:14Z</time>
      </trkpt>
      <trkpt lat="48.08772" lon="7.11458">
        <ele>877.4</ele>
        <time>2025-09-08T06:57:15Z</time>
      </trkpt>
      <trkpt lat="48.08771" lon="7.11463">
        <ele>877.6</ele>
        <time>2025-09-08T06:57:16Z</time>
      </trkpt>
      <trkpt lat="48.08771" lon="7.11468">
        <ele>877.8</ele>
        <time>2025-09-08T06:57:17Z</time>
      </trkpt>
      <trkpt lat="48.08771" lon="7.11473">
        <ele>878</ele>
        <time>2025-09-08T06:57:18Z</time>
      </trkpt>
      <trkpt lat="48.08771" lon="7.11477">
        <ele>878.2</ele>
        <time>2025-09-08T06:57:19Z</time>
      </trkpt>
      <trkpt lat="48.08771" lon="7.11482">
        <ele>878.4</ele>
        <time>2025-09-08T06:57:20Z</time>
      </trkpt>
      <trkpt lat="48.08771" lon="7.11487">
        <ele>878.6</ele>
        <time>2025-09-08T06:57:21Z</time>
      </trkpt>
      <trkpt lat="48.08771" lon="7.11491">
        <ele>878.8</ele>
        <time>2025-09-08T06:57:22Z</time>
      </trkpt>
      <trkpt lat="48.08771" lon="7.11496">
        <ele>879</ele>
        <time>2025-09-08T06:57:23Z</time>
      </trkpt>
      <trkpt lat="48.08771" lon="7.115">
        <ele>879.2</ele>
        <time>2025-09-08T06:57:24Z</time>
      </trkpt>
      <trkpt lat="48.08771" lon="7.11505">
        <ele>879.4</ele>
        <time>2025-09-08T06:57:25Z</time>
      </trkpt>
      <trkpt lat="48.08772" lon="7.1151">
        <ele>879.6</ele>
        <time>2025-09-08T06:57:26Z</time>
      </trkpt>
      <trkpt lat="48.08772" lon="7.11515">
        <ele>879.6</ele>
        <time>2025-09-08T06:57:27Z</time>
      </trkpt>
      <trkpt lat="48.08773" lon="7.1152">
        <ele>879.8</ele>
        <time>2025-09-08T06:57:28Z</time>
      </trkpt>
      <trkpt lat="48.08774" lon="7.11525">
        <ele>880</ele>
        <time>2025-09-08T06:57:29Z</time>
      </trkpt>
      <trkpt lat="48.08774" lon="7.11529">
        <ele>880.2</ele>
        <time>2025-09-08T06:57:30Z</time>
      </trkpt>
      <trkpt lat="48.08775" lon="7.11534">
        <ele>880.6</ele>
        <time>2025-09-08T06:57:31Z</time>
      </trkpt>
      <trkpt lat="48.08775" lon="7.11538">
        <ele>880.8</ele>
        <time>2025-09-08T06:57:32Z</time>
      </trkpt>
      <trkpt lat="48.08776" lon="7.11543">
        <ele>881</ele>
        <time>2025-09-08T06:57:33Z</time>
      </trkpt>
      <trkpt lat="48.08777" lon="7.11547">
        <ele>881.2</ele>
        <time>2025-09-08T06:57:34Z</time>
      </trkpt>
      <trkpt lat="48.08778" lon="7.11552">
        <ele>881.4</ele>
        <time>2025-09-08T06:57:35Z</time>
      </trkpt>
      <trkpt lat="48.08779" lon="7.11557">
        <ele>881.4</ele>
        <time>2025-09-08T06:57:36Z</time>
      </trkpt>
      <trkpt lat="48.08779" lon="7.11561">
        <ele>881.6</ele>
        <time>2025-09-08T06:57:37Z</time>
      </trkpt>
      <trkpt lat="48.0878" lon="7.11566">
        <ele>881.8</ele>
        <time>2025-09-08T06:57:38Z</time>
      </trkpt>
      <trkpt lat="48.0878" lon="7.1157">
        <ele>882</ele>
        <time>2025-09-08T06:57:39Z</time>
      </trkpt>
      <trkpt lat="48.08781" lon="7.11575">
        <ele>882.2</ele>
        <time>2025-09-08T06:57:40Z</time>
      </trkpt>
      <trkpt lat="48.08782" lon="7.11579">
        <ele>882.4</ele>
        <time>2025-09-08T06:57:41Z</time>
      </trkpt>
      <trkpt lat="48.08784" lon="7.11584">
        <ele>882.6</ele>
        <time>2025-09-08T06:57:42Z</time>
      </trkpt>
      <trkpt lat="48.08786" lon="7.11588">
        <ele>882.8</ele>
        <time>2025-09-08T06:57:43Z</time>
      </trkpt>
      <trkpt lat="48.08789" lon="7.1159">
        <ele>883</ele>
        <time>2025-09-08T06:57:44Z</time>
      </trkpt>
      <trkpt lat="48.08792" lon="7.11591">
        <ele>883.2</ele>
        <time>2025-09-08T06:57:45Z</time>
      </trkpt>
      <trkpt lat="48.08795" lon="7.11591">
        <ele>883.2</ele>
        <time>2025-09-08T06:57:46Z</time>
      </trkpt>
      <trkpt lat="48.08797" lon="7.11588">
        <ele>883.4</ele>
        <time>2025-09-08T06:57:47Z</time>
      </trkpt>
      <trkpt lat="48.08799" lon="7.11585">
        <ele>883.6</ele>
        <time>2025-09-08T06:57:48Z</time>
      </trkpt>
      <trkpt lat="48.08801" lon="7.11583">
        <ele>883.8</ele>
        <time>2025-09-08T06:57:49Z</time>
      </trkpt>
      <trkpt lat="48.08803" lon="7.11579">
        <ele>883.8</ele>
        <time>2025-09-08T06:57:50Z</time>
      </trkpt>
      <trkpt lat="48.08804" lon="7.11576">
        <ele>884</ele>
        <time>2025-09-08T06:57:51Z</time>
      </trkpt>
      <trkpt lat="48.08805" lon="7.11572">
        <ele>884</ele>
        <time>2025-09-08T06:57:52Z</time>
      </trkpt>
      <trkpt lat="48.08807" lon="7.11568">
        <ele>884.2</ele>
        <time>2025-09-08T06:57:53Z</time>
      </trkpt>
      <trkpt lat="48.08808" lon="7.11565">
        <ele>884.4</ele>
        <time>2025-09-08T06:57:54Z</time>
      </trkpt>
      <trkpt lat="48.08809" lon="7.11561">
        <ele>884.6</ele>
        <time>2025-09-08T06:57:55Z</time>
      </trkpt>
      <trkpt lat="48.08811" lon="7.11557">
        <ele>884.6</ele>
        <time>2025-09-08T06:57:56Z</time>
      </trkpt>
      <trkpt lat="48.08812" lon="7.11553">
        <ele>884.8</ele>
        <time>2025-09-08T06:57:57Z</time>
      </trkpt>
      <trkpt lat="48.08814" lon="7.11549">
        <ele>885</ele>
        <time>2025-09-08T06:57:58Z</time>
      </trkpt>
      <trkpt lat="48.08815" lon="7.11545">
        <ele>885.2</ele>
        <time>2025-09-08T06:57:59Z</time>
      </trkpt>
      <trkpt lat="48.08817" lon="7.11541">
        <ele>885.4</ele>
        <time>2025-09-08T06:58:00Z</time>
      </trkpt>
      <trkpt lat="48.08819" lon="7.11538">
        <ele>885.6</ele>
        <time>2025-09-08T06:58:01Z</time>
      </trkpt>
      <trkpt lat="48.08821" lon="7.11534">
        <ele>885.8</ele>
        <time>2025-09-08T06:58:02Z</time>
      </trkpt>
      <trkpt lat="48.08822" lon="7.1153">
        <ele>886.2</ele>
        <time>2025-09-08T06:58:03Z</time>
      </trkpt>
      <trkpt lat="48.08824" lon="7.11527">
        <ele>886.4</ele>
        <time>2025-09-08T06:58:04Z</time>
      </trkpt>
      <trkpt lat="48.08826" lon="7.11524">
        <ele>886.8</ele>
        <time>2025-09-08T06:58:05Z</time>
      </trkpt>
      <trkpt lat="48.08828" lon="7.1152">
        <ele>887</ele>
        <time>2025-09-08T06:58:06Z</time>
      </trkpt>
      <trkpt lat="48.0883" lon="7.11517">
        <ele>887.2</ele>
        <time>2025-09-08T06:58:07Z</time>
      </trkpt>
      <trkpt lat="48.08832" lon="7.11513">
        <ele>887.6</ele>
        <time>2025-09-08T06:58:08Z</time>
      </trkpt>
      <trkpt lat="48.08834" lon="7.1151">
        <ele>887.8</ele>
        <time>2025-09-08T06:58:09Z</time>
      </trkpt>
      <trkpt lat="48.08836" lon="7.11507">
        <ele>888.2</ele>
        <time>2025-09-08T06:58:10Z</time>
      </trkpt>
      <trkpt lat="48.08837" lon="7.11503">
        <ele>888.4</ele>
        <time>2025-09-08T06:58:11Z</time>
      </trkpt>
      <trkpt lat="48.08839" lon="7.11499">
        <ele>888.6</ele>
        <time>2025-09-08T06:58:12Z</time>
      </trkpt>
      <trkpt lat="48.08841" lon="7.11495">
        <ele>888.8</ele>
        <time>2025-09-08T06:58:13Z</time>
      </trkpt>
      <trkpt lat="48.08843" lon="7.11492">
        <ele>889</ele>
        <time>2025-09-08T06:58:14Z</time>
      </trkpt>
      <trkpt lat="48.08845" lon="7.11489">
        <ele>889.4</ele>
        <time>2025-09-08T06:58:15Z</time>
      </trkpt>
      <trkpt lat="48.08847" lon="7.11486">
        <ele>889.6</ele>
        <time>2025-09-08T06:58:16Z</time>
      </trkpt>
      <trkpt lat="48.08849" lon="7.11482">
        <ele>890</ele>
        <time>2025-09-08T06:58:17Z</time>
      </trkpt>
      <trkpt lat="48.08851" lon="7.11479">
        <ele>890</ele>
        <time>2025-09-08T06:58:18Z</time>
      </trkpt>
      <trkpt lat="48.08853" lon="7.11476">
        <ele>890.4</ele>
        <time>2025-09-08T06:58:19Z</time>
      </trkpt>
      <trkpt lat="48.08855" lon="7.11473">
        <ele>890.6</ele>
        <time>2025-09-08T06:58:20Z</time>
      </trkpt>
      <trkpt lat="48.08857" lon="7.11469">
        <ele>890.8</ele>
        <time>2025-09-08T06:58:21Z</time>
      </trkpt>
      <trkpt lat="48.08859" lon="7.11466">
        <ele>891.2</ele>
        <time>2025-09-08T06:58:22Z</time>
      </trkpt>
      <trkpt lat="48.0886" lon="7.11463">
        <ele>891.6</ele>
        <time>2025-09-08T06:58:23Z</time>
      </trkpt>
      <trkpt lat="48.08862" lon="7.1146">
        <ele>891.8</ele>
        <time>2025-09-08T06:58:24Z</time>
      </trkpt>
      <trkpt lat="48.08864" lon="7.11456">
        <ele>892</ele>
        <time>2025-09-08T06:58:25Z</time>
      </trkpt>
      <trkpt lat="48.08866" lon="7.11453">
        <ele>892.4</ele>
        <time>2025-09-08T06:58:26Z</time>
      </trkpt>
      <trkpt lat="48.08868" lon="7.1145">
        <ele>892.6</ele>
        <time>2025-09-08T06:58:27Z</time>
      </trkpt>
      <trkpt lat="48.0887" lon="7.11447">
        <ele>893</ele>
        <time>2025-09-08T06:58:28Z</time>
      </trkpt>
      <trkpt lat="48.08871" lon="7.11444">
        <ele>893.2</ele>
        <time>2025-09-08T06:58:29Z</time>
      </trkpt>
      <trkpt lat="48.08873" lon="7.1144">
        <ele>893.6</ele>
        <time>2025-09-08T06:58:30Z</time>
      </trkpt>
      <trkpt lat="48.08874" lon="7.11437">
        <ele>893.8</ele>
        <time>2025-09-08T06:58:31Z</time>
      </trkpt>
      <trkpt lat="48.08876" lon="7.11433">
        <ele>894.2</ele>
        <time>2025-09-08T06:58:32Z</time>
      </trkpt>
      <trkpt lat="48.08877" lon="7.1143">
        <ele>894.6</ele>
        <time>2025-09-08T06:58:33Z</time>
      </trkpt>
      <trkpt lat="48.08879" lon="7.11427">
        <ele>894.8</ele>
        <time>2025-09-08T06:58:34Z</time>
      </trkpt>
      <trkpt lat="48.0888" lon="7.11423">
        <ele>895</ele>
        <time>2025-09-08T06:58:35Z</time>
      </trkpt>
      <trkpt lat="48.08882" lon="7.1142">
        <ele>895.4</ele>
        <time>2025-09-08T06:58:36Z</time>
      </trkpt>
      <trkpt lat="48.08883" lon="7.11417">
        <ele>895.8</ele>
        <time>2025-09-08T06:58:37Z</time>
      </trkpt>
      <trkpt lat="48.08884" lon="7.11414">
        <ele>896.4</ele>
        <time>2025-09-08T06:58:38Z</time>
      </trkpt>
      <trkpt lat="48.08886" lon="7.1141">
        <ele>896.8</ele>
        <time>2025-09-08T06:58:39Z</time>
      </trkpt>
      <trkpt lat="48.08888" lon="7.11406">
        <ele>897.2</ele>
        <time>2025-09-08T06:58:40Z</time>
      </trkpt>
      <trkpt lat="48.08889" lon="7.11402">
        <ele>897.6</ele>
        <time>2025-09-08T06:58:41Z</time>
      </trkpt>
      <trkpt lat="48.0889" lon="7.11398">
        <ele>898</ele>
        <time>2025-09-08T06:58:42Z</time>
      </trkpt>
      <trkpt lat="48.08892" lon="7.11394">
        <ele>898.4</ele>
        <time>2025-09-08T06:58:43Z</time>
      </trkpt>
      <trkpt lat="48.08893" lon="7.1139">
        <ele>898.6</ele>
        <time>2025-09-08T06:58:44Z</time>
      </trkpt>
      <trkpt lat="48.08895" lon="7.11387">
        <ele>899</ele>
        <time>2025-09-08T06:58:45Z</time>
      </trkpt>
      <trkpt lat="48.08897" lon="7.11383">
        <ele>899.4</ele>
        <time>2025-09-08T06:58:46Z</time>
      </trkpt>
      <trkpt lat="48.08898" lon="7.1138">
        <ele>899.8</ele>
        <time>2025-09-08T06:58:47Z</time>
      </trkpt>
      <trkpt lat="48.08899" lon="7.11376">
        <ele>900.2</ele>
        <time>2025-09-08T06:58:48Z</time>
      </trkpt>
      <trkpt lat="48.089" lon="7.11373">
        <ele>900.6</ele>
        <time>2025-09-08T06:58:49Z</time>
      </trkpt>
      <trkpt lat="48.08901" lon="7.11369">
        <ele>901</ele>
        <time>2025-09-08T06:58:50Z</time>
      </trkpt>
      <trkpt lat="48.08903" lon="7.11365">
        <ele>901.2</ele>
        <time>2025-09-08T06:58:51Z</time>
      </trkpt>
      <trkpt lat="48.08903" lon="7.11361">
        <ele>901.6</ele>
        <time>2025-09-08T06:58:52Z</time>
      </trkpt>
      <trkpt lat="48.08905" lon="7.11358">
        <ele>902</ele>
        <time>2025-09-08T06:58:53Z</time>
      </trkpt>
      <trkpt lat="48.08906" lon="7.11354">
        <ele>902.2</ele>
        <time>2025-09-08T06:58:54Z</time>
      </trkpt>
      <trkpt lat="48.08907" lon="7.1135">
        <ele>902.4</ele>
        <time>2025-09-08T06:58:55Z</time>
      </trkpt>
      <trkpt lat="48.08908" lon="7.11346">
        <ele>902.6</ele>
        <time>2025-09-08T06:58:56Z</time>
      </trkpt>
      <trkpt lat="48.08909" lon="7.11343">
        <ele>903.2</ele>
        <time>2025-09-08T06:58:57Z</time>
      </trkpt>
      <trkpt lat="48.0891" lon="7.11339">
        <ele>904.4</ele>
        <time>2025-09-08T06:58:58Z</time>
      </trkpt>
      <trkpt lat="48.08911" lon="7.11335">
        <ele>904.8</ele>
        <time>2025-09-08T06:58:59Z</time>
      </trkpt>
      <trkpt lat="48.08912" lon="7.11331">
        <ele>905</ele>
        <time>2025-09-08T06:59:00Z</time>
      </trkpt>
      <trkpt lat="48.08913" lon="7.11326">
        <ele>905.2</ele>
        <time>2025-09-08T06:59:01Z</time>
      </trkpt>
      <trkpt lat="48.08914" lon="7.11322">
        <ele>905.2</ele>
        <time>2025-09-08T06:59:02Z</time>
      </trkpt>
      <trkpt lat="48.08915" lon="7.11318">
        <ele>905.2</ele>
        <time>2025-09-08T06:59:03Z</time>
      </trkpt>
      <trkpt lat="48.08916" lon="7.11314">
        <ele>905.4</ele>
        <time>2025-09-08T06:59:04Z</time>
      </trkpt>
      <trkpt lat="48.08916" lon="7.1131">
        <ele>905.6</ele>
        <time>2025-09-08T06:59:05Z</time>
      </trkpt>
      <trkpt lat="48.08917" lon="7.11306">
        <ele>905.8</ele>
        <time>2025-09-08T06:59:06Z</time>
      </trkpt>
      <trkpt lat="48.08917" lon="7.11302">
        <ele>906</ele>
        <time>2025-09-08T06:59:07Z</time>
      </trkpt>
      <trkpt lat="48.08917" lon="7.11298">
        <ele>906.4</ele>
        <time>2025-09-08T06:59:08Z</time>
      </trkpt>
      <trkpt lat="48.08917" lon="7.11294">
        <ele>907</ele>
        <time>2025-09-08T06:59:09Z</time>
      </trkpt>
      <trkpt lat="48.08917" lon="7.1129">
        <ele>907.4</ele>
        <time>2025-09-08T06:59:10Z</time>
      </trkpt>
      <trkpt lat="48.08917" lon="7.11286">
        <ele>907.8</ele>
        <time>2025-09-08T06:59:11Z</time>
      </trkpt>
      <trkpt lat="48.08917" lon="7.11282">
        <ele>908.4</ele>
        <time>2025-09-08T06:59:12Z</time>
      </trkpt>
      <trkpt lat="48.08916" lon="7.11278">
        <ele>908.6</ele>
        <time>2025-09-08T06:59:13Z</time>
      </trkpt>
      <trkpt lat="48.08916" lon="7.11274">
        <ele>909.2</ele>
        <time>2025-09-08T06:59:14Z</time>
      </trkpt>
      <trkpt lat="48.08916" lon="7.1127">
        <ele>910</ele>
        <time>2025-09-08T06:59:15Z</time>
      </trkpt>
      <trkpt lat="48.08915" lon="7.11265">
        <ele>910.6</ele>
        <time>2025-09-08T06:59:16Z</time>
      </trkpt>
      <trkpt lat="48.08915" lon="7.11262">
        <ele>910.6</ele>
        <time>2025-09-08T06:59:17Z</time>
      </trkpt>
      <trkpt lat="48.08914" lon="7.11258">
        <ele>910.6</ele>
        <time>2025-09-08T06:59:18Z</time>
      </trkpt>
      <trkpt lat="48.08913" lon="7.11253">
        <ele>910.6</ele>
        <time>2025-09-08T06:59:19Z</time>
      </trkpt>
      <trkpt lat="48.08912" lon="7.11249">
        <ele>910.4</ele>
        <time>2025-09-08T06:59:20Z</time>
      </trkpt>
      <trkpt lat="48.0891" lon="7.11244">
        <ele>910.4</ele>
        <time>2025-09-08T06:59:21Z</time>
      </trkpt>
      <trkpt lat="48.08909" lon="7.1124">
        <ele>910.6</ele>
        <time>2025-09-08T06:59:22Z</time>
      </trkpt>
      <trkpt lat="48.08907" lon="7.11237">
        <ele>910.6</ele>
        <time>2025-09-08T06:59:23Z</time>
      </trkpt>
      <trkpt lat="48.08905" lon="7.11234">
        <ele>911</ele>
        <time>2025-09-08T06:59:24Z</time>
      </trkpt>
      <trkpt lat="48.08904" lon="7.11231">
        <ele>911.4</ele>
        <time>2025-09-08T06:59:25Z</time>
      </trkpt>
      <trkpt lat="48.08902" lon="7.11228">
        <ele>912.2</ele>
        <time>2025-09-08T06:59:26Z</time>
      </trkpt>
      <trkpt lat="48.089" lon="7.11225">
        <ele>912.4</ele>
        <time>2025-09-08T06:59:27Z</time>
      </trkpt>
      <trkpt lat="48.08897" lon="7.11222">
        <ele>912.8</ele>
        <time>2025-09-08T06:59:28Z</time>
      </trkpt>
      <trkpt lat="48.08895" lon="7.11219">
        <ele>913</ele>
        <time>2025-09-08T06:59:29Z</time>
      </trkpt>
      <trkpt lat="48.08893" lon="7.11216">
        <ele>913.2</ele>
        <time>2025-09-08T06:59:30Z</time>
      </trkpt>
      <trkpt lat="48.08891" lon="7.11213">
        <ele>913.4</ele>
        <time>2025-09-08T06:59:31Z</time>
      </trkpt>
      <trkpt lat="48.08888" lon="7.1121">
        <ele>913.6</ele>
        <time>2025-09-08T06:59:32Z</time>
      </trkpt>
      <trkpt lat="48.08886" lon="7.11207">
        <ele>914</ele>
        <time>2025-09-08T06:59:33Z</time>
      </trkpt>
      <trkpt lat="48.08884" lon="7.11205">
        <ele>914.4</ele>
        <time>2025-09-08T06:59:34Z</time>
      </trkpt>
      <trkpt lat="48.08881" lon="7.11202">
        <ele>914.6</ele>
        <time>2025-09-08T06:59:35Z</time>
      </trkpt>
      <trkpt lat="48.08879" lon="7.112">
        <ele>915</ele>
        <time>2025-09-08T06:59:36Z</time>
      </trkpt>
      <trkpt lat="48.08877" lon="7.11197">
        <ele>915.2</ele>
        <time>2025-09-08T06:59:37Z</time>
      </trkpt>
      <trkpt lat="48.08874" lon="7.11195">
        <ele>915.6</ele>
        <time>2025-09-08T06:59:38Z</time>
      </trkpt>
      <trkpt lat="48.08872" lon="7.11192">
        <ele>916</ele>
        <time>2025-09-08T06:59:39Z</time>
      </trkpt>
      <trkpt lat="48.0887" lon="7.1119">
        <ele>916.2</ele>
        <time>2025-09-08T06:59:40Z</time>
      </trkpt>
      <trkpt lat="48.08867" lon="7.11188">
        <ele>916.4</ele>
        <time>2025-09-08T06:59:41Z</time>
      </trkpt>
      <trkpt lat="48.08865" lon="7.11185">
        <ele>916.8</ele>
        <time>2025-09-08T06:59:42Z</time>
      </trkpt>
      <trkpt lat="48.08863" lon="7.11182">
        <ele>917</ele>
        <time>2025-09-08T06:59:43Z</time>
      </trkpt>
      <trkpt lat="48.08861" lon="7.11179">
        <ele>917.4</ele>
        <time>2025-09-08T06:59:44Z</time>
      </trkpt>
      <trkpt lat="48.08859" lon="7.11175">
        <ele>917.6</ele>
        <time>2025-09-08T06:59:45Z</time>
      </trkpt>
      <trkpt lat="48.08858" lon="7.11172">
        <ele>917.8</ele>
        <time>2025-09-08T06:59:46Z</time>
      </trkpt>
      <trkpt lat="48.08856" lon="7.11168">
        <ele>918</ele>
        <time>2025-09-08T06:59:47Z</time>
      </trkpt>
      <trkpt lat="48.08854" lon="7.11164">
        <ele>918.2</ele>
        <time>2025-09-08T06:59:48Z</time>
      </trkpt>
      <trkpt lat="48.08853" lon="7.1116">
        <ele>918.6</ele>
        <time>2025-09-08T06:59:49Z</time>
      </trkpt>
      <trkpt lat="48.08851" lon="7.11156">
        <ele>918.8</ele>
        <time>2025-09-08T06:59:50Z</time>
      </trkpt>
      <trkpt lat="48.0885" lon="7.11152">
        <ele>919</ele>
        <time>2025-09-08T06:59:51Z</time>
      </trkpt>
      <trkpt lat="48.08848" lon="7.11148">
        <ele>919.4</ele>
        <time>2025-09-08T06:59:52Z</time>
      </trkpt>
      <trkpt lat="48.08847" lon="7.11144">
        <ele>919.6</ele>
        <time>2025-09-08T06:59:53Z</time>
      </trkpt>
      <trkpt lat="48.08846" lon="7.1114">
        <ele>919.8</ele>
        <time>2025-09-08T06:59:54Z</time>
      </trkpt>
      <trkpt lat="48.08845" lon="7.11135">
        <ele>920.2</ele>
        <time>2025-09-08T06:59:55Z</time>
      </trkpt>
      <trkpt lat="48.08844" lon="7.11131">
        <ele>920.4</ele>
        <time>2025-09-08T06:59:56Z</time>
      </trkpt>
      <trkpt lat="48.08843" lon="7.11127">
        <ele>920.6</ele>
        <time>2025-09-08T06:59:57Z</time>
      </trkpt>
      <trkpt lat="48.08842" lon="7.11123">
        <ele>920.8</ele>
        <time>2025-09-08T06:59:58Z</time>
      </trkpt>
      <trkpt lat="48.08841" lon="7.11119">
        <ele>921</ele>
        <time>2025-09-08T06:59:59Z</time>
      </trkpt>
      <trkpt lat="48.08839" lon="7.11115">
        <ele>921.4</ele>
        <time>2025-09-08T07:00:00Z</time>
      </trkpt>
      <trkpt lat="48.08838" lon="7.11111">
        <ele>921.6</ele>
        <time>2025-09-08T07:00:01Z</time>
      </trkpt>
      <trkpt lat="48.08837" lon="7.11107">
        <ele>921.6</ele>
        <time>2025-09-08T07:00:02Z</time>
      </trkpt>
      <trkpt lat="48.08835" lon="7.11103">
        <ele>922</ele>
        <time>2025-09-08T07:00:03Z</time>
      </trkpt>
      <trkpt lat="48.08834" lon="7.111">
        <ele>922.2</ele>
        <time>2025-09-08T07:00:04Z</time>
      </trkpt>
      <trkpt lat="48.08834" lon="7.11096">
        <ele>922.4</ele>
        <time>2025-09-08T07:00:05Z</time>
      </trkpt>
      <trkpt lat="48.08833" lon="7.11091">
        <ele>922.4</ele>
        <time>2025-09-08T07:00:06Z</time>
      </trkpt>
      <trkpt lat="48.08833" lon="7.11087">
        <ele>922.6</ele>
        <time>2025-09-08T07:00:07Z</time>
      </trkpt>
      <trkpt lat="48.08834" lon="7.11083">
        <ele>922.8</ele>
        <time>2025-09-08T07:00:08Z</time>
      </trkpt>
      <trkpt lat="48.08834" lon="7.11078">
        <ele>923</ele>
        <time>2025-09-08T07:00:09Z</time>
      </trkpt>
      <trkpt lat="48.08835" lon="7.11074">
        <ele>923.2</ele>
        <time>2025-09-08T07:00:10Z</time>
      </trkpt>
      <trkpt lat="48.08836" lon="7.1107">
        <ele>923.2</ele>
        <time>2025-09-08T07:00:11Z</time>
      </trkpt>
      <trkpt lat="48.08836" lon="7.11066">
        <ele>923.6</ele>
        <time>2025-09-08T07:00:12Z</time>
      </trkpt>
      <trkpt lat="48.08837" lon="7.11062">
        <ele>923.6</ele>
        <time>2025-09-08T07:00:13Z</time>
      </trkpt>
      <trkpt lat="48.08838" lon="7.11058">
        <ele>923.8</ele>
        <time>2025-09-08T07:00:14Z</time>
      </trkpt>
      <trkpt lat="48.0884" lon="7.11055">
        <ele>924.2</ele>
        <time>2025-09-08T07:00:15Z</time>
      </trkpt>
      <trkpt lat="48.08841" lon="7.11051">
        <ele>924.4</ele>
        <time>2025-09-08T07:00:16Z</time>
      </trkpt>
      <trkpt lat="48.08843" lon="7.11048">
        <ele>924.4</ele>
        <time>2025-09-08T07:00:17Z</time>
      </trkpt>
      <trkpt lat="48.08845" lon="7.11044">
        <ele>924.8</ele>
        <time>2025-09-08T07:00:18Z</time>
      </trkpt>
      <trkpt lat="48.08847" lon="7.1104">
        <ele>925</ele>
        <time>2025-09-08T07:00:19Z</time>
      </trkpt>
      <trkpt lat="48.08848" lon="7.11036">
        <ele>925.2</ele>
        <time>2025-09-08T07:00:20Z</time>
      </trkpt>
      <trkpt lat="48.08849" lon="7.11031">
        <ele>925.4</ele>
        <time>2025-09-08T07:00:21Z</time>
      </trkpt>
      <trkpt lat="48.08849" lon="7.11026">
        <ele>925.8</ele>
        <time>2025-09-08T07:00:22Z</time>
      </trkpt>
      <trkpt lat="48.08849" lon="7.11021">
        <ele>926</ele>
        <time>2025-09-08T07:00:23Z</time>
      </trkpt>
      <trkpt lat="48.08849" lon="7.11016">
        <ele>926.4</ele>
        <time>2025-09-08T07:00:24Z</time>
      </trkpt>
      <trkpt lat="48.08848" lon="7.11012">
        <ele>926.6</ele>
        <time>2025-09-08T07:00:25Z</time>
      </trkpt>
      <trkpt lat="48.08848" lon="7.11007">
        <ele>926.8</ele>
        <time>2025-09-08T07:00:26Z</time>
      </trkpt>
      <trkpt lat="48.08847" lon="7.11002">
        <ele>926.8</ele>
        <time>2025-09-08T07:00:27Z</time>
      </trkpt>
      <trkpt lat="48.08847" lon="7.10997">
        <ele>927</ele>
        <time>2025-09-08T07:00:28Z</time>
      </trkpt>
      <trkpt lat="48.08846" lon="7.10992">
        <ele>927.2</ele>
        <time>2025-09-08T07:00:29Z</time>
      </trkpt>
      <trkpt lat="48.08846" lon="7.10987">
        <ele>927.2</ele>
        <time>2025-09-08T07:00:30Z</time>
      </trkpt>
      <trkpt lat="48.08845" lon="7.10982">
        <ele>927.4</ele>
        <time>2025-09-08T07:00:31Z</time>
      </trkpt>
      <trkpt lat="48.08845" lon="7.10977">
        <ele>927.4</ele>
        <time>2025-09-08T07:00:32Z</time>
      </trkpt>
      <trkpt lat="48.08845" lon="7.10972">
        <ele>927.6</ele>
        <time>2025-09-08T07:00:33Z</time>
      </trkpt>
      <trkpt lat="48.08845" lon="7.10967">
        <ele>927.8</ele>
        <time>2025-09-08T07:00:34Z</time>
      </trkpt>
      <trkpt lat="48.08846" lon="7.10962">
        <ele>928</ele>
        <time>2025-09-08T07:00:35Z</time>
      </trkpt>
      <trkpt lat="48.08846" lon="7.10957">
        <ele>928</ele>
        <time>2025-09-08T07:00:36Z</time>
      </trkpt>
      <trkpt lat="48.08847" lon="7.10952">
        <ele>928.2</ele>
        <time>2025-09-08T07:00:37Z</time>
      </trkpt>
      <trkpt lat="48.08848" lon="7.10947">
        <ele>928.4</ele>
        <time>2025-09-08T07:00:38Z</time>
      </trkpt>
      <trkpt lat="48.08849" lon="7.10942">
        <ele>928.6</ele>
        <time>2025-09-08T07:00:39Z</time>
      </trkpt>
      <trkpt lat="48.0885" lon="7.10937">
        <ele>928.6</ele>
        <time>2025-09-08T07:00:40Z</time>
      </trkpt>
      <trkpt lat="48.08852" lon="7.10932">
        <ele>928.6</ele>
        <time>2025-09-08T07:00:41Z</time>
      </trkpt>
      <trkpt lat="48.08853" lon="7.10928">
        <ele>928.6</ele>
        <time>2025-09-08T07:00:42Z</time>
      </trkpt>
      <trkpt lat="48.08853" lon="7.10923">
        <ele>928.8</ele>
        <time>2025-09-08T07:00:43Z</time>
      </trkpt>
      <trkpt lat="48.08853" lon="7.10918">
        <ele>928.8</ele>
        <time>2025-09-08T07:00:44Z</time>
      </trkpt>
      <trkpt lat="48.08854" lon="7.10913">
        <ele>928.8</ele>
        <time>2025-09-08T07:00:45Z</time>
      </trkpt>
      <trkpt lat="48.08856" lon="7.10909">
        <ele>928.8</ele>
        <time>2025-09-08T07:00:46Z</time>
      </trkpt>
      <trkpt lat="48.08857" lon="7.10907">
        <ele>929</ele>
        <time>2025-09-08T07:00:47Z</time>
      </trkpt>
      <trkpt lat="48.0886" lon="7.10904">
        <ele>929</ele>
        <time>2025-09-08T07:00:48Z</time>
      </trkpt>
      <trkpt lat="48.08862" lon="7.10905">
        <ele>929.2</ele>
        <time>2025-09-08T07:00:49Z</time>
      </trkpt>
      <trkpt lat="48.08864" lon="7.10906">
        <ele>929.4</ele>
        <time>2025-09-08T07:00:50Z</time>
      </trkpt>
      <trkpt lat="48.08865" lon="7.10908">
        <ele>929.8</ele>
        <time>2025-09-08T07:00:51Z</time>
      </trkpt>
      <trkpt lat="48.08867" lon="7.10911">
        <ele>930.2</ele>
        <time>2025-09-08T07:00:52Z</time>
      </trkpt>
      <trkpt lat="48.08868" lon="7.10914">
        <ele>930.4</ele>
        <time>2025-09-08T07:00:53Z</time>
      </trkpt>
      <trkpt lat="48.08869" lon="7.10918">
        <ele>930.6</ele>
        <time>2025-09-08T07:00:54Z</time>
      </trkpt>
      <trkpt lat="48.0887" lon="7.10921">
        <ele>931</ele>
        <time>2025-09-08T07:00:55Z</time>
      </trkpt>
      <trkpt lat="48.08872" lon="7.10925">
        <ele>931.4</ele>
        <time>2025-09-08T07:00:56Z</time>
      </trkpt>
      <trkpt lat="48.08873" lon="7.10928">
        <ele>931.4</ele>
        <time>2025-09-08T07:00:57Z</time>
      </trkpt>
      <trkpt lat="48.08875" lon="7.10931">
        <ele>931.8</ele>
        <time>2025-09-08T07:00:58Z</time>
      </trkpt>
      <trkpt lat="48.08877" lon="7.10934">
        <ele>932.2</ele>
        <time>2025-09-08T07:00:59Z</time>
      </trkpt>
      <trkpt lat="48.08878" lon="7.10936">
        <ele>932.4</ele>
        <time>2025-09-08T07:01:00Z</time>
      </trkpt>
      <trkpt lat="48.0888" lon="7.10939">
        <ele>933</ele>
        <time>2025-09-08T07:01:01Z</time>
      </trkpt>
      <trkpt lat="48.08882" lon="7.10942">
        <ele>933</ele>
        <time>2025-09-08T07:01:02Z</time>
      </trkpt>
      <trkpt lat="48.08883" lon="7.10945">
        <ele>933.2</ele>
        <time>2025-09-08T07:01:03Z</time>
      </trkpt>
      <trkpt lat="48.08885" lon="7.10948">
        <ele>933.6</ele>
        <time>2025-09-08T07:01:04Z</time>
      </trkpt>
      <trkpt lat="48.08886" lon="7.10951">
        <ele>933.8</ele>
        <time>2025-09-08T07:01:05Z</time>
      </trkpt>
      <trkpt lat="48.08887" lon="7.10955">
        <ele>934.2</ele>
        <time>2025-09-08T07:01:06Z</time>
      </trkpt>
      <trkpt lat="48.08888" lon="7.10958">
        <ele>934.4</ele>
        <time>2025-09-08T07:01:07Z</time>
      </trkpt>
      <trkpt lat="48.08889" lon="7.10961">
        <ele>934.6</ele>
        <time>2025-09-08T07:01:08Z</time>
      </trkpt>
      <trkpt lat="48.0889" lon="7.10964">
        <ele>934.8</ele>
        <time>2025-09-08T07:01:09Z</time>
      </trkpt>
      <trkpt lat="48.08891" lon="7.10967">
        <ele>935</ele>
        <time>2025-09-08T07:01:10Z</time>
      </trkpt>
      <trkpt lat="48.08893" lon="7.10971">
        <ele>935.4</ele>
        <time>2025-09-08T07:01:11Z</time>
      </trkpt>
      <trkpt lat="48.08894" lon="7.10973">
        <ele>935.6</ele>
        <time>2025-09-08T07:01:12Z</time>
      </trkpt>
      <trkpt lat="48.08895" lon="7.10976">
        <ele>936</ele>
        <time>2025-09-08T07:01:13Z</time>
      </trkpt>
      <trkpt lat="48.08896" lon="7.10979">
        <ele>936.2</ele>
        <time>2025-09-08T07:01:14Z</time>
      </trkpt>
      <trkpt lat="48.08898" lon="7.10982">
        <ele>936.6</ele>
        <time>2025-09-08T07:01:15Z</time>
      </trkpt>
      <trkpt lat="48.089" lon="7.10985">
        <ele>936.6</ele>
        <time>2025-09-08T07:01:16Z</time>
      </trkpt>
      <trkpt lat="48.08901" lon="7.10989">
        <ele>936.8</ele>
        <time>2025-09-08T07:01:17Z</time>
      </trkpt>
      <trkpt lat="48.08903" lon="7.10992">
        <ele>937</ele>
        <time>2025-09-08T07:01:18Z</time>
      </trkpt>
      <trkpt lat="48.08905" lon="7.10994">
        <ele>937.2</ele>
        <time>2025-09-08T07:01:19Z</time>
      </trkpt>
      <trkpt lat="48.08907" lon="7.10997">
        <ele>937.2</ele>
        <time>2025-09-08T07:01:20Z</time>
      </trkpt>
      <trkpt lat="48.08909" lon="7.11">
        <ele>937.4</ele>
        <time>2025-09-08T07:01:21Z</time>
      </trkpt>
      <trkpt lat="48.08911" lon="7.11002">
        <ele>937.4</ele>
        <time>2025-09-08T07:01:22Z</time>
      </trkpt>
      <trkpt lat="48.08913" lon="7.11004">
        <ele>937.6</ele>
        <time>2025-09-08T07:01:23Z</time>
      </trkpt>
      <trkpt lat="48.08915" lon="7.11006">
        <ele>937.8</ele>
        <time>2025-09-08T07:01:24Z</time>
      </trkpt>
      <trkpt lat="48.08917" lon="7.11007">
        <ele>938</ele>
        <time>2025-09-08T07:01:25Z</time>
      </trkpt>
      <trkpt lat="48.0892" lon="7.11009">
        <ele>938.2</ele>
        <time>2025-09-08T07:01:26Z</time>
      </trkpt>
      <trkpt lat="48.08922" lon="7.1101">
        <ele>938.2</ele>
        <time>2025-09-08T07:01:27Z</time>
      </trkpt>
      <trkpt lat="48.08924" lon="7.11011">
        <ele>938.4</ele>
        <time>2025-09-08T07:01:28Z</time>
      </trkpt>
      <trkpt lat="48.08927" lon="7.11012">
        <ele>938.4</ele>
        <time>2025-09-08T07:01:29Z</time>
      </trkpt>
      <trkpt lat="48.08929" lon="7.11014">
        <ele>938.6</ele>
        <time>2025-09-08T07:01:30Z</time>
      </trkpt>
      <trkpt lat="48.08931" lon="7.11015">
        <ele>938.6</ele>
        <time>2025-09-08T07:01:31Z</time>
      </trkpt>
      <trkpt lat="48.08933" lon="7.11017">
        <ele>939</ele>
        <time>2025-09-08T07:01:32Z</time>
      </trkpt>
      <trkpt lat="48.08936" lon="7.11018">
        <ele>939.2</ele>
        <time>2025-09-08T07:01:33Z</time>
      </trkpt>
      <trkpt lat="48.08938" lon="7.11018">
        <ele>939.4</ele>
        <time>2025-09-08T07:01:34Z</time>
      </trkpt>
      <trkpt lat="48.0894" lon="7.11021">
        <ele>939.6</ele>
        <time>2025-09-08T07:01:35Z</time>
      </trkpt>
      <trkpt lat="48.08942" lon="7.11022">
        <ele>939.8</ele>
        <time>2025-09-08T07:01:36Z</time>
      </trkpt>
      <trkpt lat="48.08944" lon="7.11024">
        <ele>940.2</ele>
        <time>2025-09-08T07:01:37Z</time>
      </trkpt>
      <trkpt lat="48.08945" lon="7.11026">
        <ele>940.6</ele>
        <time>2025-09-08T07:01:38Z</time>
      </trkpt>
      <trkpt lat="48.08947" lon="7.11028">
        <ele>940.6</ele>
        <time>2025-09-08T07:01:39Z</time>
      </trkpt>
      <trkpt lat="48.08949" lon="7.11029">
        <ele>940.8</ele>
        <time>2025-09-08T07:01:40Z</time>
      </trkpt>
      <trkpt lat="48.08951" lon="7.11032">
        <ele>941</ele>
        <time>2025-09-08T07:01:41Z</time>
      </trkpt>
      <trkpt lat="48.08953" lon="7.11035">
        <ele>941.2</ele>
        <time>2025-09-08T07:01:42Z</time>
      </trkpt>
      <trkpt lat="48.08954" lon="7.11037">
        <ele>941.4</ele>
        <time>2025-09-08T07:01:43Z</time>
      </trkpt>
      <trkpt lat="48.08957" lon="7.1104">
        <ele>941.8</ele>
        <time>2025-09-08T07:01:44Z</time>
      </trkpt>
      <trkpt lat="48.08958" lon="7.11042">
        <ele>941.8</ele>
        <time>2025-09-08T07:01:45Z</time>
      </trkpt>
      <trkpt lat="48.08961" lon="7.11044">
        <ele>942</ele>
        <time>2025-09-08T07:01:46Z</time>
      </trkpt>
      <trkpt lat="48.08963" lon="7.11045">
        <ele>942</ele>
        <time>2025-09-08T07:01:47Z</time>
      </trkpt>
      <trkpt lat="48.08965" lon="7.11047">
        <ele>942.2</ele>
        <time>2025-09-08T07:01:48Z</time>
      </trkpt>
      <trkpt lat="48.08967" lon="7.1105">
        <ele>942.6</ele>
        <time>2025-09-08T07:01:49Z</time>
      </trkpt>
      <trkpt lat="48.08968" lon="7.11052">
        <ele>942.6</ele>
        <time>2025-09-08T07:01:50Z</time>
      </trkpt>
      <trkpt lat="48.0897" lon="7.11055">
        <ele>942.8</ele>
        <time>2025-09-08T07:01:51Z</time>
      </trkpt>
      <trkpt lat="48.08972" lon="7.11057">
        <ele>943</ele>
        <time>2025-09-08T07:01:52Z</time>
      </trkpt>
      <trkpt lat="48.08973" lon="7.11059">
        <ele>943</ele>
        <time>2025-09-08T07:01:53Z</time>
      </trkpt>
      <trkpt lat="48.08974" lon="7.11062">
        <ele>943.6</ele>
        <time>2025-09-08T07:01:54Z</time>
      </trkpt>
      <trkpt lat="48.08976" lon="7.11064">
        <ele>943.6</ele>
        <time>2025-09-08T07:01:55Z</time>
      </trkpt>
      <trkpt lat="48.08978" lon="7.11066">
        <ele>944</ele>
        <time>2025-09-08T07:01:56Z</time>
      </trkpt>
      <trkpt lat="48.0898" lon="7.11068">
        <ele>944</ele>
        <time>2025-09-08T07:01:57Z</time>
      </trkpt>
      <trkpt lat="48.08982" lon="7.1107">
        <ele>944.4</ele>
        <time>2025-09-08T07:01:58Z</time>
      </trkpt>
      <trkpt lat="48.08984" lon="7.11073">
        <ele>944.4</ele>
        <time>2025-09-08T07:01:59Z</time>
      </trkpt>
      <trkpt lat="48.08985" lon="7.11076">
        <ele>944.8</ele>
        <time>2025-09-08T07:02:00Z</time>
      </trkpt>
      <trkpt lat="48.08986" lon="7.11079">
        <ele>944.8</ele>
        <time>2025-09-08T07:02:01Z</time>
      </trkpt>
      <trkpt lat="48.08988" lon="7.11082">
        <ele>945</ele>
        <time>2025-09-08T07:02:02Z</time>
      </trkpt>
      <trkpt lat="48.08989" lon="7.11084">
        <ele>945.4</ele>
        <time>2025-09-08T07:02:03Z</time>
      </trkpt>
      <trkpt lat="48.08991" lon="7.11087">
        <ele>945.6</ele>
        <time>2025-09-08T07:02:04Z</time>
      </trkpt>
      <trkpt lat="48.08992" lon="7.1109">
        <ele>945.8</ele>
        <time>2025-09-08T07:02:05Z</time>
      </trkpt>
      <trkpt lat="48.08993" lon="7.11092">
        <ele>946</ele>
        <time>2025-09-08T07:02:06Z</time>
      </trkpt>
      <trkpt lat="48.08995" lon="7.11095">
        <ele>946.2</ele>
        <time>2025-09-08T07:02:07Z</time>
      </trkpt>
      <trkpt lat="48.08996" lon="7.11097">
        <ele>946.4</ele>
        <time>2025-09-08T07:02:08Z</time>
      </trkpt>
      <trkpt lat="48.08998" lon="7.11099">
        <ele>946.6</ele>
        <time>2025-09-08T07:02:09Z</time>
      </trkpt>
      <trkpt lat="48.08999" lon="7.11102">
        <ele>946.8</ele>
        <time>2025-09-08T07:02:10Z</time>
      </trkpt>
      <trkpt lat="48.09001" lon="7.11105">
        <ele>947</ele>
        <time>2025-09-08T07:02:11Z</time>
      </trkpt>
      <trkpt lat="48.09002" lon="7.11108">
        <ele>947.2</ele>
        <time>2025-09-08T07:02:12Z</time>
      </trkpt>
      <trkpt lat="48.09004" lon="7.1111">
        <ele>947.4</ele>
        <time>2025-09-08T07:02:13Z</time>
      </trkpt>
      <trkpt lat="48.09005" lon="7.11112">
        <ele>947.6</ele>
        <time>2025-09-08T07:02:14Z</time>
      </trkpt>
      <trkpt lat="48.09007" lon="7.11115">
        <ele>947.8</ele>
        <time>2025-09-08T07:02:15Z</time>
      </trkpt>
      <trkpt lat="48.09008" lon="7.11117">
        <ele>948</ele>
        <time>2025-09-08T07:02:16Z</time>
      </trkpt>
      <trkpt lat="48.0901" lon="7.1112">
        <ele>948.2</ele>
        <time>2025-09-08T07:02:17Z</time>
      </trkpt>
      <trkpt lat="48.09011" lon="7.11122">
        <ele>948.4</ele>
        <time>2025-09-08T07:02:18Z</time>
      </trkpt>
      <trkpt lat="48.09013" lon="7.11125">
        <ele>948.6</ele>
        <time>2025-09-08T07:02:19Z</time>
      </trkpt>
      <trkpt lat="48.09014" lon="7.11128">
        <ele>949</ele>
        <time>2025-09-08T07:02:20Z</time>
      </trkpt>
      <trkpt lat="48.09016" lon="7.1113">
        <ele>949.2</ele>
        <time>2025-09-08T07:02:21Z</time>
      </trkpt>
      <trkpt lat="48.09018" lon="7.11132">
        <ele>949.6</ele>
        <time>2025-09-08T07:02:22Z</time>
      </trkpt>
      <trkpt lat="48.09019" lon="7.11134">
        <ele>949.6</ele>
        <time>2025-09-08T07:02:23Z</time>
      </trkpt>
      <trkpt lat="48.09021" lon="7.11137">
        <ele>949.8</ele>
        <time>2025-09-08T07:02:24Z</time>
      </trkpt>
      <trkpt lat="48.09023" lon="7.1114">
        <ele>950</ele>
        <time>2025-09-08T07:02:25Z</time>
      </trkpt>
      <trkpt lat="48.09024" lon="7.11142">
        <ele>950.2</ele>
        <time>2025-09-08T07:02:26Z</time>
      </trkpt>
      <trkpt lat="48.09026" lon="7.11145">
        <ele>950.2</ele>
        <time>2025-09-08T07:02:27Z</time>
      </trkpt>
      <trkpt lat="48.09027" lon="7.11147">
        <ele>950.4</ele>
        <time>2025-09-08T07:02:28Z</time>
      </trkpt>
      <trkpt lat="48.09029" lon="7.1115">
        <ele>950.6</ele>
        <time>2025-09-08T07:02:29Z</time>
      </trkpt>
      <trkpt lat="48.09031" lon="7.11153">
        <ele>950.8</ele>
        <time>2025-09-08T07:02:30Z</time>
      </trkpt>
      <trkpt lat="48.09032" lon="7.11157">
        <ele>951</ele>
        <time>2025-09-08T07:02:31Z</time>
      </trkpt>
      <trkpt lat="48.09034" lon="7.1116">
        <ele>951.2</ele>
        <time>2025-09-08T07:02:32Z</time>
      </trkpt>
      <trkpt lat="48.09036" lon="7.11164">
        <ele>951.2</ele>
        <time>2025-09-08T07:02:33Z</time>
      </trkpt>
      <trkpt lat="48.09038" lon="7.11169">
        <ele>951.2</ele>
        <time>2025-09-08T07:02:34Z</time>
      </trkpt>
      <trkpt lat="48.0904" lon="7.11172">
        <ele>951.4</ele>
        <time>2025-09-08T07:02:35Z</time>
      </trkpt>
      <trkpt lat="48.09042" lon="7.11175">
        <ele>951.4</ele>
        <time>2025-09-08T07:02:36Z</time>
      </trkpt>
      <trkpt lat="48.09044" lon="7.11179">
        <ele>951.4</ele>
        <time>2025-09-08T07:02:37Z</time>
      </trkpt>
      <trkpt lat="48.09046" lon="7.11182">
        <ele>951.4</ele>
        <time>2025-09-08T07:02:38Z</time>
      </trkpt>
      <trkpt lat="48.09047" lon="7.11185">
        <ele>951.4</ele>
        <time>2025-09-08T07:02:39Z</time>
      </trkpt>
      <trkpt lat="48.09049" lon="7.11188">
        <ele>951.4</ele>
        <time>2025-09-08T07:02:40Z</time>
      </trkpt>
      <trkpt lat="48.09051" lon="7.11191">
        <ele>951.6</ele>
        <time>2025-09-08T07:02:41Z</time>
      </trkpt>
      <trkpt lat="48.09053" lon="7.11194">
        <ele>951.8</ele>
        <time>2025-09-08T07:02:42Z</time>
      </trkpt>
      <trkpt lat="48.09055" lon="7.11198">
        <ele>951.8</ele>
        <time>2025-09-08T07:02:43Z</time>
      </trkpt>
      <trkpt lat="48.09057" lon="7.11201">
        <ele>951.8</ele>
        <time>2025-09-08T07:02:44Z</time>
      </trkpt>
      <trkpt lat="48.09059" lon="7.11205">
        <ele>951.8</ele>
        <time>2025-09-08T07:02:45Z</time>
      </trkpt>
      <trkpt lat="48.09061" lon="7.11209">
        <ele>951.8</ele>
        <time>2025-09-08T07:02:46Z</time>
      </trkpt>
      <trkpt lat="48.09063" lon="7.11212">
        <ele>951.8</ele>
        <time>2025-09-08T07:02:47Z</time>
      </trkpt>
      <trkpt lat="48.09065" lon="7.11216">
        <ele>952</ele>
        <time>2025-09-08T07:02:48Z</time>
      </trkpt>
      <trkpt lat="48.09067" lon="7.11218">
        <ele>952</ele>
        <time>2025-09-08T07:02:49Z</time>
      </trkpt>
      <trkpt lat="48.0907" lon="7.11221">
        <ele>952</ele>
        <time>2025-09-08T07:02:50Z</time>
      </trkpt>
      <trkpt lat="48.09073" lon="7.11222">
        <ele>952</ele>
        <time>2025-09-08T07:02:51Z</time>
      </trkpt>
      <trkpt lat="48.09076" lon="7.11223">
        <ele>952.2</ele>
        <time>2025-09-08T07:02:52Z</time>
      </trkpt>
      <trkpt lat="48.09078" lon="7.11223">
        <ele>952.4</ele>
        <time>2025-09-08T07:02:53Z</time>
      </trkpt>
      <trkpt lat="48.09081" lon="7.11222">
        <ele>952.6</ele>
        <time>2025-09-08T07:02:54Z</time>
      </trkpt>
      <trkpt lat="48.09084" lon="7.11222">
        <ele>952.6</ele>
        <time>2025-09-08T07:02:55Z</time>
      </trkpt>
      <trkpt lat="48.09087" lon="7.11221">
        <ele>952.6</ele>
        <time>2025-09-08T07:02:56Z</time>
      </trkpt>
      <trkpt lat="48.0909" lon="7.11221">
        <ele>952.8</ele>
        <time>2025-09-08T07:02:57Z</time>
      </trkpt>
      <trkpt lat="48.09092" lon="7.11218">
        <ele>952.8</ele>
        <time>2025-09-08T07:02:58Z</time>
      </trkpt>
      <trkpt lat="48.09094" lon="7.11216">
        <ele>952.8</ele>
        <time>2025-09-08T07:02:59Z</time>
      </trkpt>
      <trkpt lat="48.09095" lon="7.11213">
        <ele>953</ele>
        <time>2025-09-08T07:03:00Z</time>
      </trkpt>
      <trkpt lat="48.09097" lon="7.11209">
        <ele>953</ele>
        <time>2025-09-08T07:03:01Z</time>
      </trkpt>
      <trkpt lat="48.09098" lon="7.11205">
        <ele>953.6</ele>
        <time>2025-09-08T07:03:02Z</time>
      </trkpt>
      <trkpt lat="48.091" lon="7.11201">
        <ele>953.8</ele>
        <time>2025-09-08T07:03:03Z</time>
      </trkpt>
      <trkpt lat="48.09101" lon="7.11197">
        <ele>953.8</ele>
        <time>2025-09-08T07:03:04Z</time>
      </trkpt>
      <trkpt lat="48.09102" lon="7.11193">
        <ele>954</ele>
        <time>2025-09-08T07:03:05Z</time>
      </trkpt>
      <trkpt lat="48.09102" lon="7.11189">
        <ele>954.2</ele>
        <time>2025-09-08T07:03:06Z</time>
      </trkpt>
      <trkpt lat="48.09101" lon="7.11185">
        <ele>954.4</ele>
        <time>2025-09-08T07:03:07Z</time>
      </trkpt>
      <trkpt lat="48.09101" lon="7.11182">
        <ele>954.6</ele>
        <time>2025-09-08T07:03:08Z</time>
      </trkpt>
      <trkpt lat="48.091" lon="7.11177">
        <ele>954.6</ele>
        <time>2025-09-08T07:03:09Z</time>
      </trkpt>
      <trkpt lat="48.09101" lon="7.11173">
        <ele>955</ele>
        <time>2025-09-08T07:03:10Z</time>
      </trkpt>
      <trkpt lat="48.09101" lon="7.11168">
        <ele>955.2</ele>
        <time>2025-09-08T07:03:11Z</time>
      </trkpt>
      <trkpt lat="48.091" lon="7.11163">
        <ele>955.4</ele>
        <time>2025-09-08T07:03:12Z</time>
      </trkpt>
      <trkpt lat="48.091" lon="7.11159">
        <ele>955.6</ele>
        <time>2025-09-08T07:03:13Z</time>
      </trkpt>
      <trkpt lat="48.091" lon="7.11156">
        <ele>956</ele>
        <time>2025-09-08T07:03:14Z</time>
      </trkpt>
      <trkpt lat="48.09101" lon="7.11152">
        <ele>956.2</ele>
        <time>2025-09-08T07:03:15Z</time>
      </trkpt>
      <trkpt lat="48.09102" lon="7.11149">
        <ele>956.6</ele>
        <time>2025-09-08T07:03:16Z</time>
      </trkpt>
      <trkpt lat="48.09102" lon="7.11145">
        <ele>957</ele>
        <time>2025-09-08T07:03:17Z</time>
      </trkpt>
      <trkpt lat="48.09103" lon="7.11141">
        <ele>957</ele>
        <time>2025-09-08T07:03:18Z</time>
      </trkpt>
      <trkpt lat="48.09104" lon="7.11137">
        <ele>957.4</ele>
        <time>2025-09-08T07:03:19Z</time>
      </trkpt>
      <trkpt lat="48.09105" lon="7.11133">
        <ele>957.8</ele>
        <time>2025-09-08T07:03:20Z</time>
      </trkpt>
      <trkpt lat="48.09106" lon="7.11129">
        <ele>958</ele>
        <time>2025-09-08T07:03:21Z</time>
      </trkpt>
      <trkpt lat="48.09106" lon="7.11126">
        <ele>958</ele>
        <time>2025-09-08T07:03:22Z</time>
      </trkpt>
      <trkpt lat="48.09107" lon="7.11121">
        <ele>958.2</ele>
        <time>2025-09-08T07:03:23Z</time>
      </trkpt>
      <trkpt lat="48.09107" lon="7.11118">
        <ele>958.4</ele>
        <time>2025-09-08T07:03:24Z</time>
      </trkpt>
      <trkpt lat="48.09108" lon="7.11114">
        <ele>958.6</ele>
        <time>2025-09-08T07:03:25Z</time>
      </trkpt>
      <trkpt lat="48.09108" lon="7.11109">
        <ele>958.6</ele>
        <time>2025-09-08T07:03:26Z</time>
      </trkpt>
      <trkpt lat="48.09109" lon="7.11105">
        <ele>958.6</ele>
        <time>2025-09-08T07:03:27Z</time>
      </trkpt>
      <trkpt lat="48.09109" lon="7.11101">
        <ele>958.8</ele>
        <time>2025-09-08T07:03:28Z</time>
      </trkpt>
      <trkpt lat="48.09108" lon="7.11096">
        <ele>959</ele>
        <time>2025-09-08T07:03:29Z</time>
      </trkpt>
      <trkpt lat="48.09108" lon="7.11091">
        <ele>959.2</ele>
        <time>2025-09-08T07:03:30Z</time>
      </trkpt>
      <trkpt lat="48.09109" lon="7.11087">
        <ele>959.4</ele>
        <time>2025-09-08T07:03:31Z</time>
      </trkpt>
      <trkpt lat="48.0911" lon="7.11083">
        <ele>959.6</ele>
        <time>2025-09-08T07:03:32Z</time>
      </trkpt>
      <trkpt lat="48.09111" lon="7.11079">
        <ele>959.8</ele>
        <time>2025-09-08T07:03:33Z</time>
      </trkpt>
      <trkpt lat="48.09113" lon="7.11076">
        <ele>959.8</ele>
        <time>2025-09-08T07:03:34Z</time>
      </trkpt>
      <trkpt lat="48.09115" lon="7.11072">
        <ele>960.2</ele>
        <time>2025-09-08T07:03:35Z</time>
      </trkpt>
      <trkpt lat="48.09116" lon="7.11069">
        <ele>960.4</ele>
        <time>2025-09-08T07:03:36Z</time>
      </trkpt>
      <trkpt lat="48.09118" lon="7.11065">
        <ele>960.4</ele>
        <time>2025-09-08T07:03:37Z</time>
      </trkpt>
      <trkpt lat="48.09119" lon="7.11062">
        <ele>960.6</ele>
        <time>2025-09-08T07:03:38Z</time>
      </trkpt>
      <trkpt lat="48.0912" lon="7.11057">
        <ele>960.6</ele>
        <time>2025-09-08T07:03:39Z</time>
      </trkpt>
      <trkpt lat="48.09122" lon="7.11054">
        <ele>960.8</ele>
        <time>2025-09-08T07:03:40Z</time>
      </trkpt>
      <trkpt lat="48.09123" lon="7.1105">
        <ele>960.8</ele>
        <time>2025-09-08T07:03:41Z</time>
      </trkpt>
      <trkpt lat="48.09124" lon="7.11047">
        <ele>961</ele>
        <time>2025-09-08T07:03:42Z</time>
      </trkpt>
      <trkpt lat="48.09126" lon="7.11043">
        <ele>961</ele>
        <time>2025-09-08T07:03:43Z</time>
      </trkpt>
      <trkpt lat="48.09127" lon="7.11038">
        <ele>961.2</ele>
        <time>2025-09-08T07:03:44Z</time>
      </trkpt>
      <trkpt lat="48.09129" lon="7.11035">
        <ele>961.2</ele>
        <time>2025-09-08T07:03:45Z</time>
      </trkpt>
      <trkpt lat="48.09131" lon="7.11033">
        <ele>961.4</ele>
        <time>2025-09-08T07:03:46Z</time>
      </trkpt>
      <trkpt lat="48.09134" lon="7.11031">
        <ele>961.6</ele>
        <time>2025-09-08T07:03:47Z</time>
      </trkpt>
      <trkpt lat="48.09135" lon="7.11027">
        <ele>961.8</ele>
        <time>2025-09-08T07:03:48Z</time>
      </trkpt>
      <trkpt lat="48.09138" lon="7.11025">
        <ele>961.8</ele>
        <time>2025-09-08T07:03:49Z</time>
      </trkpt>
      <trkpt lat="48.0914" lon="7.11023">
        <ele>962</ele>
        <time>2025-09-08T07:03:50Z</time>
      </trkpt>
      <trkpt lat="48.09142" lon="7.11019">
        <ele>962.2</ele>
        <time>2025-09-08T07:03:51Z</time>
      </trkpt>
      <trkpt lat="48.09144" lon="7.11017">
        <ele>962.4</ele>
        <time>2025-09-08T07:03:52Z</time>
      </trkpt>
      <trkpt lat="48.09146" lon="7.11014">
        <ele>962.6</ele>
        <time>2025-09-08T07:03:53Z</time>
      </trkpt>
      <trkpt lat="48.09147" lon="7.11011">
        <ele>962.8</ele>
        <time>2025-09-08T07:03:54Z</time>
      </trkpt>
      <trkpt lat="48.09149" lon="7.11009">
        <ele>963</ele>
        <time>2025-09-08T07:03:55Z</time>
      </trkpt>
      <trkpt lat="48.09152" lon="7.11007">
        <ele>963.2</ele>
        <time>2025-09-08T07:03:56Z</time>
      </trkpt>
      <trkpt lat="48.09154" lon="7.11003">
        <ele>963.4</ele>
        <time>2025-09-08T07:03:57Z</time>
      </trkpt>
      <trkpt lat="48.09157" lon="7.11001">
        <ele>963.6</ele>
        <time>2025-09-08T07:03:58Z</time>
      </trkpt>
      <trkpt lat="48.09159" lon="7.10999">
        <ele>963.8</ele>
        <time>2025-09-08T07:03:59Z</time>
      </trkpt>
      <trkpt lat="48.09161" lon="7.10995">
        <ele>963.8</ele>
        <time>2025-09-08T07:04:00Z</time>
      </trkpt>
      <trkpt lat="48.09164" lon="7.10992">
        <ele>964</ele>
        <time>2025-09-08T07:04:01Z</time>
      </trkpt>
      <trkpt lat="48.09167" lon="7.1099">
        <ele>964.2</ele>
        <time>2025-09-08T07:04:02Z</time>
      </trkpt>
      <trkpt lat="48.0917" lon="7.10987">
        <ele>964.4</ele>
        <time>2025-09-08T07:04:03Z</time>
      </trkpt>
      <trkpt lat="48.09172" lon="7.10984">
        <ele>964.4</ele>
        <time>2025-09-08T07:04:04Z</time>
      </trkpt>
      <trkpt lat="48.09175" lon="7.10981">
        <ele>964.6</ele>
        <time>2025-09-08T07:04:05Z</time>
      </trkpt>
      <trkpt lat="48.09178" lon="7.10977">
        <ele>964.6</ele>
        <time>2025-09-08T07:04:06Z</time>
      </trkpt>
      <trkpt lat="48.0918" lon="7.10974">
        <ele>964.6</ele>
        <time>2025-09-08T07:04:07Z</time>
      </trkpt>
      <trkpt lat="48.09183" lon="7.10972">
        <ele>964.6</ele>
        <time>2025-09-08T07:04:08Z</time>
      </trkpt>
      <trkpt lat="48.09185" lon="7.10969">
        <ele>964.8</ele>
        <time>2025-09-08T07:04:09Z</time>
      </trkpt>
      <trkpt lat="48.09188" lon="7.10968">
        <ele>964.8</ele>
        <time>2025-09-08T07:04:10Z</time>
      </trkpt>
      <trkpt lat="48.09191" lon="7.10965">
        <ele>964.8</ele>
        <time>2025-09-08T07:04:11Z</time>
      </trkpt>
      <trkpt lat="48.09194" lon="7.10963">
        <ele>965</ele>
        <time>2025-09-08T07:04:12Z</time>
      </trkpt>
      <trkpt lat="48.09198" lon="7.10961">
        <ele>965</ele>
        <time>2025-09-08T07:04:13Z</time>
      </trkpt>
      <trkpt lat="48.09201" lon="7.10959">
        <ele>965</ele>
        <time>2025-09-08T07:04:14Z</time>
      </trkpt>
      <trkpt lat="48.09205" lon="7.10957">
        <ele>965</ele>
        <time>2025-09-08T07:04:15Z</time>
      </trkpt>
      <trkpt lat="48.09208" lon="7.10954">
        <ele>965</ele>
        <time>2025-09-08T07:04:16Z</time>
      </trkpt>
      <trkpt lat="48.09211" lon="7.10952">
        <ele>965</ele>
        <time>2025-09-08T07:04:17Z</time>
      </trkpt>
      <trkpt lat="48.09214" lon="7.10949">
        <ele>965</ele>
        <time>2025-09-08T07:04:18Z</time>
      </trkpt>
      <trkpt lat="48.09217" lon="7.10947">
        <ele>965</ele>
        <time>2025-09-08T07:04:19Z</time>
      </trkpt>
      <trkpt lat="48.0922" lon="7.10943">
        <ele>965</ele>
        <time>2025-09-08T07:04:20Z</time>
      </trkpt>
      <trkpt lat="48.09223" lon="7.1094">
        <ele>965</ele>
        <time>2025-09-08T07:04:21Z</time>
      </trkpt>
      <trkpt lat="48.09226" lon="7.10937">
        <ele>964.8</ele>
        <time>2025-09-08T07:04:22Z</time>
      </trkpt>
      <trkpt lat="48.09229" lon="7.10933">
        <ele>964.8</ele>
        <time>2025-09-08T07:04:23Z</time>
      </trkpt>
      <trkpt lat="48.09233" lon="7.1093">
        <ele>964.8</ele>
        <time>2025-09-08T07:04:24Z</time>
      </trkpt>
      <trkpt lat="48.09236" lon="7.10927">
        <ele>964.8</ele>
        <time>2025-09-08T07:04:25Z</time>
      </trkpt>
      <trkpt lat="48.0924" lon="7.10922">
        <ele>964.6</ele>
        <time>2025-09-08T07:04:26Z</time>
      </trkpt>
      <trkpt lat="48.09243" lon="7.10917">
        <ele>964.6</ele>
        <time>2025-09-08T07:04:27Z</time>
      </trkpt>
      <trkpt lat="48.09247" lon="7.10913">
        <ele>964.4</ele>
        <time>2025-09-08T07:04:28Z</time>
      </trkpt>
      <trkpt lat="48.0925" lon="7.1091">
        <ele>964.2</ele>
        <time>2025-09-08T07:04:29Z</time>
      </trkpt>
      <trkpt lat="48.09254" lon="7.10905">
        <ele>964</ele>
        <time>2025-09-08T07:04:30Z</time>
      </trkpt>
      <trkpt lat="48.09257" lon="7.10901">
        <ele>964</ele>
        <time>2025-09-08T07:04:31Z</time>
      </trkpt>
      <trkpt lat="48.09261" lon="7.10898">
        <ele>963.8</ele>
        <time>2025-09-08T07:04:32Z</time>
      </trkpt>
      <trkpt lat="48.09264" lon="7.10894">
        <ele>963.4</ele>
        <time>2025-09-08T07:04:33Z</time>
      </trkpt>
      <trkpt lat="48.09268" lon="7.10891">
        <ele>963.2</ele>
        <time>2025-09-08T07:04:34Z</time>
      </trkpt>
      <trkpt lat="48.09272" lon="7.10887">
        <ele>963</ele>
        <time>2025-09-08T07:04:35Z</time>
      </trkpt>
      <trkpt lat="48.09276" lon="7.10884">
        <ele>962.8</ele>
        <time>2025-09-08T07:04:36Z</time>
      </trkpt>
      <trkpt lat="48.09279" lon="7.10881">
        <ele>962.8</ele>
        <time>2025-09-08T07:04:37Z</time>
      </trkpt>
      <trkpt lat="48.09282" lon="7.10876">
        <ele>962.4</ele>
        <time>2025-09-08T07:04:38Z</time>
      </trkpt>
      <trkpt lat="48.09286" lon="7.10872">
        <ele>962.4</ele>
        <time>2025-09-08T07:04:39Z</time>
      </trkpt>
      <trkpt lat="48.09289" lon="7.10868">
        <ele>962.2</ele>
        <time>2025-09-08T07:04:40Z</time>
      </trkpt>
      <trkpt lat="48.09292" lon="7.10864">
        <ele>962</ele>
        <time>2025-09-08T07:04:41Z</time>
      </trkpt>
      <trkpt lat="48.09296" lon="7.1086">
        <ele>962</ele>
        <time>2025-09-08T07:04:42Z</time>
      </trkpt>
      <trkpt lat="48.093" lon="7.10855">
        <ele>961.8</ele>
        <time>2025-09-08T07:04:43Z</time>
      </trkpt>
      <trkpt lat="48.09304" lon="7.10851">
        <ele>961.4</ele>
        <time>2025-09-08T07:04:44Z</time>
      </trkpt>
      <trkpt lat="48.09307" lon="7.10847">
        <ele>961.4</ele>
        <time>2025-09-08T07:04:45Z</time>
      </trkpt>
      <trkpt lat="48.0931" lon="7.10841">
        <ele>961</ele>
        <time>2025-09-08T07:04:46Z</time>
      </trkpt>
      <trkpt lat="48.09313" lon="7.10837">
        <ele>960.6</ele>
        <time>2025-09-08T07:04:47Z</time>
      </trkpt>
      <trkpt lat="48.09317" lon="7.10832">
        <ele>960.6</ele>
        <time>2025-09-08T07:04:48Z</time>
      </trkpt>
      <trkpt lat="48.0932" lon="7.10827">
        <ele>960.2</ele>
        <time>2025-09-08T07:04:49Z</time>
      </trkpt>
      <trkpt lat="48.09324" lon="7.10824">
        <ele>960.2</ele>
        <time>2025-09-08T07:04:50Z</time>
      </trkpt>
      <trkpt lat="48.09328" lon="7.1082">
        <ele>960</ele>
        <time>2025-09-08T07:04:51Z</time>
      </trkpt>
      <trkpt lat="48.09331" lon="7.10817">
        <ele>959.8</ele>
        <time>2025-09-08T07:04:52Z</time>
      </trkpt>
      <trkpt lat="48.09335" lon="7.10813">
        <ele>959.8</ele>
        <time>2025-09-08T07:04:53Z</time>
      </trkpt>
      <trkpt lat="48.09339" lon="7.1081">
        <ele>959.6</ele>
        <time>2025-09-08T07:04:54Z</time>
      </trkpt>
      <trkpt lat="48.09343" lon="7.10807">
        <ele>959.6</ele>
        <time>2025-09-08T07:04:55Z</time>
      </trkpt>
      <trkpt lat="48.09346" lon="7.10805">
        <ele>959.6</ele>
        <time>2025-09-08T07:04:56Z</time>
      </trkpt>
      <trkpt lat="48.0935" lon="7.10802">
        <ele>959.6</ele>
        <time>2025-09-08T07:04:57Z</time>
      </trkpt>
      <trkpt lat="48.09353" lon="7.10798">
        <ele>959.6</ele>
        <time>2025-09-08T07:04:58Z</time>
      </trkpt>
      <trkpt lat="48.09356" lon="7.10795">
        <ele>959.4</ele>
        <time>2025-09-08T07:04:59Z</time>
      </trkpt>
      <trkpt lat="48.0936" lon="7.10792">
        <ele>959.4</ele>
        <time>2025-09-08T07:05:00Z</time>
      </trkpt>
      <trkpt lat="48.09364" lon="7.10789">
        <ele>959.4</ele>
        <time>2025-09-08T07:05:01Z</time>
      </trkpt>
      <trkpt lat="48.09368" lon="7.10787">
        <ele>959.4</ele>
        <time>2025-09-08T07:05:02Z</time>
      </trkpt>
      <trkpt lat="48.09372" lon="7.10784">
        <ele>959.4</ele>
        <time>2025-09-08T07:05:03Z</time>
      </trkpt>
      <trkpt lat="48.09375" lon="7.1078">
        <ele>959.4</ele>
        <time>2025-09-08T07:05:04Z</time>
      </trkpt>
      <trkpt lat="48.09378" lon="7.10777">
        <ele>959.4</ele>
        <time>2025-09-08T07:05:05Z</time>
      </trkpt>
      <trkpt lat="48.09381" lon="7.10775">
        <ele>959.6</ele>
        <time>2025-09-08T07:05:06Z</time>
      </trkpt>
      <trkpt lat="48.09384" lon="7.10772">
        <ele>959.6</ele>
        <time>2025-09-08T07:05:07Z</time>
      </trkpt>
      <trkpt lat="48.09387" lon="7.1077">
        <ele>960</ele>
        <time>2025-09-08T07:05:08Z</time>
      </trkpt>
      <trkpt lat="48.0939" lon="7.10768">
        <ele>960.2</ele>
        <time>2025-09-08T07:05:09Z</time>
      </trkpt>
      <trkpt lat="48.09393" lon="7.10765">
        <ele>960.2</ele>
        <time>2025-09-08T07:05:10Z</time>
      </trkpt>
      <trkpt lat="48.09396" lon="7.10762">
        <ele>960.4</ele>
        <time>2025-09-08T07:05:11Z</time>
      </trkpt>
      <trkpt lat="48.09399" lon="7.10759">
        <ele>960.8</ele>
        <time>2025-09-08T07:05:12Z</time>
      </trkpt>
      <trkpt lat="48.09403" lon="7.10756">
        <ele>960.8</ele>
        <time>2025-09-08T07:05:13Z</time>
      </trkpt>
      <trkpt lat="48.09406" lon="7.10753">
        <ele>961</ele>
        <time>2025-09-08T07:05:14Z</time>
      </trkpt>
      <trkpt lat="48.0941" lon="7.1075">
        <ele>961</ele>
        <time>2025-09-08T07:05:15Z</time>
      </trkpt>
      <trkpt lat="48.09414" lon="7.10747">
        <ele>961</ele>
        <time>2025-09-08T07:05:16Z</time>
      </trkpt>
      <trkpt lat="48.09417" lon="7.10744">
        <ele>961</ele>
        <time>2025-09-08T07:05:17Z</time>
      </trkpt>
      <trkpt lat="48.09421" lon="7.10741">
        <ele>961.2</ele>
        <time>2025-09-08T07:05:18Z</time>
      </trkpt>
      <trkpt lat="48.09425" lon="7.10738">
        <ele>961.2</ele>
        <time>2025-09-08T07:05:19Z</time>
      </trkpt>
      <trkpt lat="48.09428" lon="7.10735">
        <ele>961.2</ele>
        <time>2025-09-08T07:05:20Z</time>
      </trkpt>
      <trkpt lat="48.09432" lon="7.10731">
        <ele>961.2</ele>
        <time>2025-09-08T07:05:21Z</time>
      </trkpt>
      <trkpt lat="48.09435" lon="7.10727">
        <ele>961.2</ele>
        <time>2025-09-08T07:05:22Z</time>
      </trkpt>
      <trkpt lat="48.09438" lon="7.10723">
        <ele>961.2</ele>
        <time>2025-09-08T07:05:23Z</time>
      </trkpt>
      <trkpt lat="48.09442" lon="7.1072">
        <ele>961.2</ele>
        <time>2025-09-08T07:05:24Z</time>
      </trkpt>
      <trkpt lat="48.09445" lon="7.10716">
        <ele>961.2</ele>
        <time>2025-09-08T07:05:25Z</time>
      </trkpt>
      <trkpt lat="48.09449" lon="7.10713">
        <ele>961.2</ele>
        <time>2025-09-08T07:05:26Z</time>
      </trkpt>
      <trkpt lat="48.09452" lon="7.1071">
        <ele>961.4</ele>
        <time>2025-09-08T07:05:27Z</time>
      </trkpt>
      <trkpt lat="48.09455" lon="7.10706">
        <ele>961.4</ele>
        <time>2025-09-08T07:05:28Z</time>
      </trkpt>
      <trkpt lat="48.09458" lon="7.10704">
        <ele>961.4</ele>
        <time>2025-09-08T07:05:29Z</time>
      </trkpt>
      <trkpt lat="48.09461" lon="7.10701">
        <ele>961.6</ele>
        <time>2025-09-08T07:05:30Z</time>
      </trkpt>
      <trkpt lat="48.09465" lon="7.10697">
        <ele>961.6</ele>
        <time>2025-09-08T07:05:31Z</time>
      </trkpt>
      <trkpt lat="48.09468" lon="7.10694">
        <ele>961.8</ele>
        <time>2025-09-08T07:05:32Z</time>
      </trkpt>
      <trkpt lat="48.09471" lon="7.10691">
        <ele>962</ele>
        <time>2025-09-08T07:05:33Z</time>
      </trkpt>
      <trkpt lat="48.09474" lon="7.10688">
        <ele>962.2</ele>
        <time>2025-09-08T07:05:34Z</time>
      </trkpt>
      <trkpt lat="48.09478" lon="7.10685">
        <ele>962.4</ele>
        <time>2025-09-08T07:05:35Z</time>
      </trkpt>
      <trkpt lat="48.09481" lon="7.10682">
        <ele>962.4</ele>
        <time>2025-09-08T07:05:36Z</time>
      </trkpt>
      <trkpt lat="48.09484" lon="7.10679">
        <ele>962.6</ele>
        <time>2025-09-08T07:05:37Z</time>
      </trkpt>
      <trkpt lat="48.09488" lon="7.10676">
        <ele>962.6</ele>
        <time>2025-09-08T07:05:38Z</time>
      </trkpt>
      <trkpt lat="48.09492" lon="7.10674">
        <ele>962.8</ele>
        <time>2025-09-08T07:05:39Z</time>
      </trkpt>
      <trkpt lat="48.09496" lon="7.10671">
        <ele>962.8</ele>
        <time>2025-09-08T07:05:40Z</time>
      </trkpt>
      <trkpt lat="48.095" lon="7.10667">
        <ele>962.8</ele>
        <time>2025-09-08T07:05:41Z</time>
      </trkpt>
      <trkpt lat="48.09504" lon="7.10664">
        <ele>962.8</ele>
        <time>2025-09-08T07:05:42Z</time>
      </trkpt>
      <trkpt lat="48.09508" lon="7.1066">
        <ele>962.8</ele>
        <time>2025-09-08T07:05:43Z</time>
      </trkpt>
      <trkpt lat="48.09512" lon="7.10657">
        <ele>962.8</ele>
        <time>2025-09-08T07:05:44Z</time>
      </trkpt>
      <trkpt lat="48.09515" lon="7.10654">
        <ele>962.8</ele>
        <time>2025-09-08T07:05:45Z</time>
      </trkpt>
      <trkpt lat="48.09519" lon="7.1065">
        <ele>962.8</ele>
        <time>2025-09-08T07:05:46Z</time>
      </trkpt>
      <trkpt lat="48.09523" lon="7.10646">
        <ele>962.8</ele>
        <time>2025-09-08T07:05:47Z</time>
      </trkpt>
      <trkpt lat="48.09526" lon="7.10642">
        <ele>962.8</ele>
        <time>2025-09-08T07:05:48Z</time>
      </trkpt>
      <trkpt lat="48.0953" lon="7.10639">
        <ele>962.8</ele>
        <time>2025-09-08T07:05:49Z</time>
      </trkpt>
      <trkpt lat="48.09534" lon="7.10635">
        <ele>962.8</ele>
        <time>2025-09-08T07:05:50Z</time>
      </trkpt>
      <trkpt lat="48.09537" lon="7.10632">
        <ele>963</ele>
        <time>2025-09-08T07:05:51Z</time>
      </trkpt>
      <trkpt lat="48.0954" lon="7.10628">
        <ele>963</ele>
        <time>2025-09-08T07:05:52Z</time>
      </trkpt>
      <trkpt lat="48.09543" lon="7.10624">
        <ele>963</ele>
        <time>2025-09-08T07:05:53Z</time>
      </trkpt>
      <trkpt lat="48.09547" lon="7.10621">
        <ele>963</ele>
        <time>2025-09-08T07:05:54Z</time>
      </trkpt>
      <trkpt lat="48.0955" lon="7.10617">
        <ele>963</ele>
        <time>2025-09-08T07:05:55Z</time>
      </trkpt>
      <trkpt lat="48.09554" lon="7.10614">
        <ele>963</ele>
        <time>2025-09-08T07:05:56Z</time>
      </trkpt>
      <trkpt lat="48.09558" lon="7.1061">
        <ele>963</ele>
        <time>2025-09-08T07:05:57Z</time>
      </trkpt>
      <trkpt lat="48.09561" lon="7.10607">
        <ele>963</ele>
        <time>2025-09-08T07:05:58Z</time>
      </trkpt>
      <trkpt lat="48.09565" lon="7.10603">
        <ele>963</ele>
        <time>2025-09-08T07:05:59Z</time>
      </trkpt>
      <trkpt lat="48.09568" lon="7.106">
        <ele>963.2</ele>
        <time>2025-09-08T07:06:00Z</time>
      </trkpt>
      <trkpt lat="48.09572" lon="7.10597">
        <ele>963.2</ele>
        <time>2025-09-08T07:06:01Z</time>
      </trkpt>
      <trkpt lat="48.09576" lon="7.10593">
        <ele>963.4</ele>
        <time>2025-09-08T07:06:02Z</time>
      </trkpt>
      <trkpt lat="48.09579" lon="7.1059">
        <ele>963.4</ele>
        <time>2025-09-08T07:06:03Z</time>
      </trkpt>
      <trkpt lat="48.09583" lon="7.10587">
        <ele>963.6</ele>
        <time>2025-09-08T07:06:04Z</time>
      </trkpt>
      <trkpt lat="48.09586" lon="7.10584">
        <ele>963.6</ele>
        <time>2025-09-08T07:06:05Z</time>
      </trkpt>
      <trkpt lat="48.0959" lon="7.10581">
        <ele>963.8</ele>
        <time>2025-09-08T07:06:06Z</time>
      </trkpt>
      <trkpt lat="48.09593" lon="7.10577">
        <ele>964</ele>
        <time>2025-09-08T07:06:07Z</time>
      </trkpt>
      <trkpt lat="48.09597" lon="7.10574">
        <ele>964.2</ele>
        <time>2025-09-08T07:06:08Z</time>
      </trkpt>
      <trkpt lat="48.096" lon="7.1057">
        <ele>964.4</ele>
        <time>2025-09-08T07:06:09Z</time>
      </trkpt>
      <trkpt lat="48.09604" lon="7.10567">
        <ele>964.6</ele>
        <time>2025-09-08T07:06:10Z</time>
      </trkpt>
      <trkpt lat="48.09607" lon="7.10564">
        <ele>965</ele>
        <time>2025-09-08T07:06:11Z</time>
      </trkpt>
      <trkpt lat="48.0961" lon="7.1056">
        <ele>965.2</ele>
        <time>2025-09-08T07:06:12Z</time>
      </trkpt>
      <trkpt lat="48.09614" lon="7.10556">
        <ele>965.4</ele>
        <time>2025-09-08T07:06:13Z</time>
      </trkpt>
      <trkpt lat="48.09618" lon="7.10552">
        <ele>965.6</ele>
        <time>2025-09-08T07:06:14Z</time>
      </trkpt>
      <trkpt lat="48.09621" lon="7.10548">
        <ele>965.8</ele>
        <time>2025-09-08T07:06:15Z</time>
      </trkpt>
      <trkpt lat="48.09625" lon="7.10544">
        <ele>965.8</ele>
        <time>2025-09-08T07:06:16Z</time>
      </trkpt>
      <trkpt lat="48.09629" lon="7.1054">
        <ele>965.8</ele>
        <time>2025-09-08T07:06:17Z</time>
      </trkpt>
      <trkpt lat="48.09633" lon="7.10537">
        <ele>965.8</ele>
        <time>2025-09-08T07:06:18Z</time>
      </trkpt>
      <trkpt lat="48.09637" lon="7.10534">
        <ele>966</ele>
        <time>2025-09-08T07:06:19Z</time>
      </trkpt>
      <trkpt lat="48.09642" lon="7.10531">
        <ele>966</ele>
        <time>2025-09-08T07:06:20Z</time>
      </trkpt>
      <trkpt lat="48.09646" lon="7.10529">
        <ele>966</ele>
        <time>2025-09-08T07:06:21Z</time>
      </trkpt>
      <trkpt lat="48.09651" lon="7.10528">
        <ele>966</ele>
        <time>2025-09-08T07:06:22Z</time>
      </trkpt>
      <trkpt lat="48.09655" lon="7.10527">
        <ele>966</ele>
        <time>2025-09-08T07:06:23Z</time>
      </trkpt>
      <trkpt lat="48.0966" lon="7.10527">
        <ele>966</ele>
        <time>2025-09-08T07:06:24Z</time>
      </trkpt>
      <trkpt lat="48.09664" lon="7.10527">
        <ele>966</ele>
        <time>2025-09-08T07:06:25Z</time>
      </trkpt>
      <trkpt lat="48.09668" lon="7.10527">
        <ele>966.2</ele>
        <time>2025-09-08T07:06:26Z</time>
      </trkpt>
      <trkpt lat="48.09672" lon="7.10527">
        <ele>966.2</ele>
        <time>2025-09-08T07:06:27Z</time>
      </trkpt>
      <trkpt lat="48.09676" lon="7.10527">
        <ele>966.2</ele>
        <time>2025-09-08T07:06:28Z</time>
      </trkpt>
      <trkpt lat="48.0968" lon="7.10527">
        <ele>966.4</ele>
        <time>2025-09-08T07:06:29Z</time>
      </trkpt>
      <trkpt lat="48.09684" lon="7.10528">
        <ele>966.6</ele>
        <time>2025-09-08T07:06:30Z</time>
      </trkpt>
      <trkpt lat="48.09688" lon="7.10528">
        <ele>966.8</ele>
        <time>2025-09-08T07:06:31Z</time>
      </trkpt>
      <trkpt lat="48.09692" lon="7.10529">
        <ele>967</ele>
        <time>2025-09-08T07:06:32Z</time>
      </trkpt>
      <trkpt lat="48.09697" lon="7.1053">
        <ele>967</ele>
        <time>2025-09-08T07:06:33Z</time>
      </trkpt>
      <trkpt lat="48.09701" lon="7.10532">
        <ele>967.2</ele>
        <time>2025-09-08T07:06:34Z</time>
      </trkpt>
      <trkpt lat="48.09706" lon="7.10534">
        <ele>967.2</ele>
        <time>2025-09-08T07:06:35Z</time>
      </trkpt>
      <trkpt lat="48.09709" lon="7.10535">
        <ele>967.4</ele>
        <time>2025-09-08T07:06:36Z</time>
      </trkpt>
      <trkpt lat="48.09713" lon="7.10537">
        <ele>967.4</ele>
        <time>2025-09-08T07:06:37Z</time>
      </trkpt>
      <trkpt lat="48.09717" lon="7.10539">
        <ele>967.6</ele>
        <time>2025-09-08T07:06:38Z</time>
      </trkpt>
      <trkpt lat="48.09721" lon="7.10541">
        <ele>967.6</ele>
        <time>2025-09-08T07:06:39Z</time>
      </trkpt>
      <trkpt lat="48.09725" lon="7.10542">
        <ele>967.8</ele>
        <time>2025-09-08T07:06:40Z</time>
      </trkpt>
      <trkpt lat="48.09729" lon="7.10544">
        <ele>967.8</ele>
        <time>2025-09-08T07:06:41Z</time>
      </trkpt>
      <trkpt lat="48.09733" lon="7.10546">
        <ele>967.8</ele>
        <time>2025-09-08T07:06:42Z</time>
      </trkpt>
      <trkpt lat="48.09737" lon="7.10547">
        <ele>968</ele>
        <time>2025-09-08T07:06:43Z</time>
      </trkpt>
      <trkpt lat="48.0974" lon="7.10549">
        <ele>968</ele>
        <time>2025-09-08T07:06:44Z</time>
      </trkpt>
      <trkpt lat="48.09744" lon="7.10551">
        <ele>968</ele>
        <time>2025-09-08T07:06:45Z</time>
      </trkpt>
      <trkpt lat="48.09748" lon="7.10552">
        <ele>968.2</ele>
        <time>2025-09-08T07:06:46Z</time>
      </trkpt>
      <trkpt lat="48.09752" lon="7.10553">
        <ele>968.2</ele>
        <time>2025-09-08T07:06:47Z</time>
      </trkpt>
      <trkpt lat="48.09756" lon="7.10555">
        <ele>968.4</ele>
        <time>2025-09-08T07:06:48Z</time>
      </trkpt>
      <trkpt lat="48.0976" lon="7.10557">
        <ele>968.4</ele>
        <time>2025-09-08T07:06:49Z</time>
      </trkpt>
      <trkpt lat="48.09764" lon="7.10558">
        <ele>968.4</ele>
        <time>2025-09-08T07:06:50Z</time>
      </trkpt>
      <trkpt lat="48.09768" lon="7.1056">
        <ele>968.6</ele>
        <time>2025-09-08T07:06:51Z</time>
      </trkpt>
      <trkpt lat="48.09773" lon="7.10561">
        <ele>968.6</ele>
        <time>2025-09-08T07:06:52Z</time>
      </trkpt>
      <trkpt lat="48.09777" lon="7.10563">
        <ele>968.6</ele>
        <time>2025-09-08T07:06:53Z</time>
      </trkpt>
      <trkpt lat="48.09781" lon="7.10564">
        <ele>968.8</ele>
        <time>2025-09-08T07:06:54Z</time>
      </trkpt>
      <trkpt lat="48.09785" lon="7.10566">
        <ele>968.8</ele>
        <time>2025-09-08T07:06:55Z</time>
      </trkpt>
      <trkpt lat="48.09788" lon="7.10568">
        <ele>968.8</ele>
        <time>2025-09-08T07:06:56Z</time>
      </trkpt>
      <trkpt lat="48.09792" lon="7.10569">
        <ele>969</ele>
        <time>2025-09-08T07:06:57Z</time>
      </trkpt>
      <trkpt lat="48.09797" lon="7.1057">
        <ele>969</ele>
        <time>2025-09-08T07:06:58Z</time>
      </trkpt>
      <trkpt lat="48.09801" lon="7.10572">
        <ele>969.2</ele>
        <time>2025-09-08T07:06:59Z</time>
      </trkpt>
      <trkpt lat="48.09804" lon="7.10573">
        <ele>969.2</ele>
        <time>2025-09-08T07:07:00Z</time>
      </trkpt>
      <trkpt lat="48.09808" lon="7.10575">
        <ele>969.4</ele>
        <time>2025-09-08T07:07:01Z</time>
      </trkpt>
      <trkpt lat="48.09812" lon="7.10577">
        <ele>969.6</ele>
        <time>2025-09-08T07:07:02Z</time>
      </trkpt>
      <trkpt lat="48.09816" lon="7.10579">
        <ele>969.8</ele>
        <time>2025-09-08T07:07:03Z</time>
      </trkpt>
      <trkpt lat="48.0982" lon="7.10581">
        <ele>970</ele>
        <time>2025-09-08T07:07:04Z</time>
      </trkpt>
      <trkpt lat="48.09824" lon="7.10583">
        <ele>970</ele>
        <time>2025-09-08T07:07:05Z</time>
      </trkpt>
      <trkpt lat="48.09828" lon="7.10585">
        <ele>970.2</ele>
        <time>2025-09-08T07:07:06Z</time>
      </trkpt>
      <trkpt lat="48.09833" lon="7.10587">
        <ele>970.4</ele>
        <time>2025-09-08T07:07:07Z</time>
      </trkpt>
      <trkpt lat="48.09836" lon="7.10588">
        <ele>970.4</ele>
        <time>2025-09-08T07:07:08Z</time>
      </trkpt>
      <trkpt lat="48.0984" lon="7.1059">
        <ele>970.6</ele>
        <time>2025-09-08T07:07:09Z</time>
      </trkpt>
      <trkpt lat="48.09844" lon="7.10592">
        <ele>970.8</ele>
        <time>2025-09-08T07:07:10Z</time>
      </trkpt>
      <trkpt lat="48.09849" lon="7.10594">
        <ele>971</ele>
        <time>2025-09-08T07:07:11Z</time>
      </trkpt>
      <trkpt lat="48.09853" lon="7.10595">
        <ele>971.2</ele>
        <time>2025-09-08T07:07:12Z</time>
      </trkpt>
      <trkpt lat="48.09857" lon="7.10597">
        <ele>971.2</ele>
        <time>2025-09-08T07:07:13Z</time>
      </trkpt>
      <trkpt lat="48.09861" lon="7.10599">
        <ele>971.4</ele>
        <time>2025-09-08T07:07:14Z</time>
      </trkpt>
      <trkpt lat="48.09865" lon="7.10601">
        <ele>971.4</ele>
        <time>2025-09-08T07:07:15Z</time>
      </trkpt>
      <trkpt lat="48.09869" lon="7.10602">
        <ele>971.6</ele>
        <time>2025-09-08T07:07:16Z</time>
      </trkpt>
      <trkpt lat="48.09873" lon="7.10604">
        <ele>971.6</ele>
        <time>2025-09-08T07:07:17Z</time>
      </trkpt>
      <trkpt lat="48.09877" lon="7.10606">
        <ele>971.6</ele>
        <time>2025-09-08T07:07:18Z</time>
      </trkpt>
      <trkpt lat="48.09881" lon="7.10607">
        <ele>971.8</ele>
        <time>2025-09-08T07:07:19Z</time>
      </trkpt>
      <trkpt lat="48.09885" lon="7.10609">
        <ele>971.8</ele>
        <time>2025-09-08T07:07:20Z</time>
      </trkpt>
      <trkpt lat="48.09889" lon="7.1061">
        <ele>972</ele>
        <time>2025-09-08T07:07:21Z</time>
      </trkpt>
      <trkpt lat="48.09893" lon="7.10612">
        <ele>972</ele>
        <time>2025-09-08T07:07:22Z</time>
      </trkpt>
      <trkpt lat="48.09897" lon="7.10614">
        <ele>972.2</ele>
        <time>2025-09-08T07:07:23Z</time>
      </trkpt>
      <trkpt lat="48.09901" lon="7.10615">
        <ele>972.2</ele>
        <time>2025-09-08T07:07:24Z</time>
      </trkpt>
      <trkpt lat="48.09905" lon="7.10616">
        <ele>972.2</ele>
        <time>2025-09-08T07:07:25Z</time>
      </trkpt>
      <trkpt lat="48.09909" lon="7.10618">
        <ele>972.4</ele>
        <time>2025-09-08T07:07:26Z</time>
      </trkpt>
      <trkpt lat="48.09913" lon="7.1062">
        <ele>972.4</ele>
        <time>2025-09-08T07:07:27Z</time>
      </trkpt>
      <trkpt lat="48.09917" lon="7.10621">
        <ele>972.8</ele>
        <time>2025-09-08T07:07:28Z</time>
      </trkpt>
      <trkpt lat="48.09921" lon="7.10623">
        <ele>972.8</ele>
        <time>2025-09-08T07:07:29Z</time>
      </trkpt>
      <trkpt lat="48.09925" lon="7.10625">
        <ele>973.2</ele>
        <time>2025-09-08T07:07:30Z</time>
      </trkpt>
      <trkpt lat="48.09929" lon="7.10627">
        <ele>973.6</ele>
        <time>2025-09-08T07:07:31Z</time>
      </trkpt>
      <trkpt lat="48.09932" lon="7.10628">
        <ele>974</ele>
        <time>2025-09-08T07:07:32Z</time>
      </trkpt>
      <trkpt lat="48.09936" lon="7.1063">
        <ele>974.2</ele>
        <time>2025-09-08T07:07:33Z</time>
      </trkpt>
      <trkpt lat="48.0994" lon="7.10631">
        <ele>974.2</ele>
        <time>2025-09-08T07:07:34Z</time>
      </trkpt>
      <trkpt lat="48.09944" lon="7.10633">
        <ele>974.4</ele>
        <time>2025-09-08T07:07:35Z</time>
      </trkpt>
      <trkpt lat="48.09948" lon="7.10636">
        <ele>974.6</ele>
        <time>2025-09-08T07:07:36Z</time>
      </trkpt>
      <trkpt lat="48.09952" lon="7.10637">
        <ele>974.6</ele>
        <time>2025-09-08T07:07:37Z</time>
      </trkpt>
      <trkpt lat="48.09956" lon="7.10639">
        <ele>974.8</ele>
        <time>2025-09-08T07:07:38Z</time>
      </trkpt>
      <trkpt lat="48.0996" lon="7.10641">
        <ele>975.2</ele>
        <time>2025-09-08T07:07:39Z</time>
      </trkpt>
      <trkpt lat="48.09964" lon="7.10644">
        <ele>975.2</ele>
        <time>2025-09-08T07:07:40Z</time>
      </trkpt>
      <trkpt lat="48.09968" lon="7.10646">
        <ele>975.4</ele>
        <time>2025-09-08T07:07:41Z</time>
      </trkpt>
      <trkpt lat="48.09972" lon="7.10649">
        <ele>975.6</ele>
        <time>2025-09-08T07:07:42Z</time>
      </trkpt>
      <trkpt lat="48.09976" lon="7.10651">
        <ele>975.8</ele>
        <time>2025-09-08T07:07:43Z</time>
      </trkpt>
      <trkpt lat="48.0998" lon="7.10653">
        <ele>975.8</ele>
        <time>2025-09-08T07:07:44Z</time>
      </trkpt>
      <trkpt lat="48.09983" lon="7.10655">
        <ele>976</ele>
        <time>2025-09-08T07:07:45Z</time>
      </trkpt>
      <trkpt lat="48.09987" lon="7.10656">
        <ele>976.2</ele>
        <time>2025-09-08T07:07:46Z</time>
      </trkpt>
      <trkpt lat="48.09991" lon="7.10658">
        <ele>976.2</ele>
        <time>2025-09-08T07:07:47Z</time>
      </trkpt>
      <trkpt lat="48.09995" lon="7.10659">
        <ele>976.4</ele>
        <time>2025-09-08T07:07:48Z</time>
      </trkpt>
      <trkpt lat="48.09999" lon="7.10661">
        <ele>976.8</ele>
        <time>2025-09-08T07:07:49Z</time>
      </trkpt>
      <trkpt lat="48.10003" lon="7.10661">
        <ele>977</ele>
        <time>2025-09-08T07:07:50Z</time>
      </trkpt>
      <trkpt lat="48.10007" lon="7.10663">
        <ele>977.2</ele>
        <time>2025-09-08T07:07:51Z</time>
      </trkpt>
      <trkpt lat="48.10011" lon="7.10664">
        <ele>977.2</ele>
        <time>2025-09-08T07:07:52Z</time>
      </trkpt>
      <trkpt lat="48.10015" lon="7.10666">
        <ele>977.4</ele>
        <time>2025-09-08T07:07:53Z</time>
      </trkpt>
      <trkpt lat="48.10019" lon="7.10668">
        <ele>977.4</ele>
        <time>2025-09-08T07:07:54Z</time>
      </trkpt>
      <trkpt lat="48.10023" lon="7.10669">
        <ele>977.8</ele>
        <time>2025-09-08T07:07:55Z</time>
      </trkpt>
      <trkpt lat="48.10027" lon="7.1067">
        <ele>978</ele>
        <time>2025-09-08T07:07:56Z</time>
      </trkpt>
      <trkpt lat="48.10032" lon="7.10672">
        <ele>978</ele>
        <time>2025-09-08T07:07:57Z</time>
      </trkpt>
      <trkpt lat="48.10036" lon="7.10673">
        <ele>978.2</ele>
        <time>2025-09-08T07:07:58Z</time>
      </trkpt>
      <trkpt lat="48.1004" lon="7.10674">
        <ele>978.2</ele>
        <time>2025-09-08T07:07:59Z</time>
      </trkpt>
      <trkpt lat="48.10044" lon="7.10674">
        <ele>978.2</ele>
        <time>2025-09-08T07:08:00Z</time>
      </trkpt>
      <trkpt lat="48.10048" lon="7.10675">
        <ele>978.4</ele>
        <time>2025-09-08T07:08:01Z</time>
      </trkpt>
      <trkpt lat="48.10052" lon="7.10674">
        <ele>978.6</ele>
        <time>2025-09-08T07:08:02Z</time>
      </trkpt>
      <trkpt lat="48.10056" lon="7.10674">
        <ele>978.6</ele>
        <time>2025-09-08T07:08:03Z</time>
      </trkpt>
      <trkpt lat="48.1006" lon="7.10674">
        <ele>978.8</ele>
        <time>2025-09-08T07:08:04Z</time>
      </trkpt>
      <trkpt lat="48.10065" lon="7.10674">
        <ele>978.8</ele>
        <time>2025-09-08T07:08:05Z</time>
      </trkpt>
      <trkpt lat="48.10069" lon="7.10674">
        <ele>978.8</ele>
        <time>2025-09-08T07:08:06Z</time>
      </trkpt>
      <trkpt lat="48.10074" lon="7.10673">
        <ele>978.8</ele>
        <time>2025-09-08T07:08:07Z</time>
      </trkpt>
      <trkpt lat="48.10079" lon="7.10672">
        <ele>978.8</ele>
        <time>2025-09-08T07:08:08Z</time>
      </trkpt>
      <trkpt lat="48.10084" lon="7.1067">
        <ele>978.8</ele>
        <time>2025-09-08T07:08:09Z</time>
      </trkpt>
      <trkpt lat="48.10089" lon="7.10668">
        <ele>978.6</ele>
        <time>2025-09-08T07:08:10Z</time>
      </trkpt>
      <trkpt lat="48.10094" lon="7.10665">
        <ele>978.4</ele>
        <time>2025-09-08T07:08:11Z</time>
      </trkpt>
      <trkpt lat="48.10099" lon="7.10661">
        <ele>978.2</ele>
        <time>2025-09-08T07:08:12Z</time>
      </trkpt>
      <trkpt lat="48.10104" lon="7.10658">
        <ele>978</ele>
        <time>2025-09-08T07:08:13Z</time>
      </trkpt>
      <trkpt lat="48.1011" lon="7.10655">
        <ele>977.8</ele>
        <time>2025-09-08T07:08:14Z</time>
      </trkpt>
      <trkpt lat="48.10116" lon="7.10653">
        <ele>977.4</ele>
        <time>2025-09-08T07:08:15Z</time>
      </trkpt>
      <trkpt lat="48.10121" lon="7.1065">
        <ele>977.2</ele>
        <time>2025-09-08T07:08:16Z</time>
      </trkpt>
      <trkpt lat="48.10127" lon="7.10648">
        <ele>977.2</ele>
        <time>2025-09-08T07:08:17Z</time>
      </trkpt>
      <trkpt lat="48.10134" lon="7.10645">
        <ele>976.6</ele>
        <time>2025-09-08T07:08:18Z</time>
      </trkpt>
      <trkpt lat="48.1014" lon="7.10643">
        <ele>976.4</ele>
        <time>2025-09-08T07:08:19Z</time>
      </trkpt>
      <trkpt lat="48.10146" lon="7.1064">
        <ele>975.8</ele>
        <time>2025-09-08T07:08:20Z</time>
      </trkpt>
      <trkpt lat="48.10153" lon="7.10638">
        <ele>975.6</ele>
        <time>2025-09-08T07:08:21Z</time>
      </trkpt>
      <trkpt lat="48.10159" lon="7.10635">
        <ele>975.4</ele>
        <time>2025-09-08T07:08:22Z</time>
      </trkpt>
      <trkpt lat="48.10165" lon="7.10632">
        <ele>975.2</ele>
        <time>2025-09-08T07:08:23Z</time>
      </trkpt>
      <trkpt lat="48.10172" lon="7.10629">
        <ele>975</ele>
        <time>2025-09-08T07:08:24Z</time>
      </trkpt>
      <trkpt lat="48.10179" lon="7.10625">
        <ele>974.4</ele>
        <time>2025-09-08T07:08:25Z</time>
      </trkpt>
      <trkpt lat="48.10187" lon="7.1062">
        <ele>973.8</ele>
        <time>2025-09-08T07:08:26Z</time>
      </trkpt>
      <trkpt lat="48.10194" lon="7.10617">
        <ele>973.6</ele>
        <time>2025-09-08T07:08:27Z</time>
      </trkpt>
      <trkpt lat="48.10201" lon="7.10613">
        <ele>972.8</ele>
        <time>2025-09-08T07:08:28Z</time>
      </trkpt>
      <trkpt lat="48.10207" lon="7.1061">
        <ele>972</ele>
        <time>2025-09-08T07:08:29Z</time>
      </trkpt>
      <trkpt lat="48.10214" lon="7.10606">
        <ele>971.8</ele>
        <time>2025-09-08T07:08:30Z</time>
      </trkpt>
      <trkpt lat="48.1022" lon="7.10603">
        <ele>971.4</ele>
        <time>2025-09-08T07:08:31Z</time>
      </trkpt>
      <trkpt lat="48.10227" lon="7.10601">
        <ele>970.6</ele>
        <time>2025-09-08T07:08:32Z</time>
      </trkpt>
      <trkpt lat="48.10234" lon="7.10599">
        <ele>970.2</ele>
        <time>2025-09-08T07:08:33Z</time>
      </trkpt>
      <trkpt lat="48.10242" lon="7.10596">
        <ele>970</ele>
        <time>2025-09-08T07:08:34Z</time>
      </trkpt>
      <trkpt lat="48.10249" lon="7.10593">
        <ele>969.4</ele>
        <time>2025-09-08T07:08:35Z</time>
      </trkpt>
      <trkpt lat="48.10256" lon="7.10589">
        <ele>969</ele>
        <time>2025-09-08T07:08:36Z</time>
      </trkpt>
      <trkpt lat="48.10263" lon="7.10585">
        <ele>968.4</ele>
        <time>2025-09-08T07:08:37Z</time>
      </trkpt>
      <trkpt lat="48.1027" lon="7.10581">
        <ele>967.2</ele>
        <time>2025-09-08T07:08:38Z</time>
      </trkpt>
      <trkpt lat="48.10277" lon="7.10578">
        <ele>966.8</ele>
        <time>2025-09-08T07:08:39Z</time>
      </trkpt>
      <trkpt lat="48.10284" lon="7.10574">
        <ele>965.8</ele>
        <time>2025-09-08T07:08:40Z</time>
      </trkpt>
      <trkpt lat="48.10291" lon="7.10569">
        <ele>965.6</ele>
        <time>2025-09-08T07:08:41Z</time>
      </trkpt>
      <trkpt lat="48.10296" lon="7.10564">
        <ele>965</ele>
        <time>2025-09-08T07:08:42Z</time>
      </trkpt>
      <trkpt lat="48.10301" lon="7.10559">
        <ele>964.6</ele>
        <time>2025-09-08T07:08:43Z</time>
      </trkpt>
      <trkpt lat="48.10306" lon="7.10554">
        <ele>964.2</ele>
        <time>2025-09-08T07:08:44Z</time>
      </trkpt>
      <trkpt lat="48.1031" lon="7.1055">
        <ele>964.2</ele>
        <time>2025-09-08T07:08:45Z</time>
      </trkpt>
      <trkpt lat="48.10314" lon="7.10546">
        <ele>964.2</ele>
        <time>2025-09-08T07:08:46Z</time>
      </trkpt>
      <trkpt lat="48.10318" lon="7.10541">
        <ele>964.2</ele>
        <time>2025-09-08T07:08:47Z</time>
      </trkpt>
      <trkpt lat="48.10322" lon="7.10537">
        <ele>964.2</ele>
        <time>2025-09-08T07:08:48Z</time>
      </trkpt>
      <trkpt lat="48.10326" lon="7.10533">
        <ele>964.4</ele>
        <time>2025-09-08T07:08:49Z</time>
      </trkpt>
      <trkpt lat="48.10329" lon="7.10529">
        <ele>964.6</ele>
        <time>2025-09-08T07:08:50Z</time>
      </trkpt>
      <trkpt lat="48.10333" lon="7.10524">
        <ele>964.8</ele>
        <time>2025-09-08T07:08:51Z</time>
      </trkpt>
      <trkpt lat="48.10336" lon="7.1052">
        <ele>965.2</ele>
        <time>2025-09-08T07:08:52Z</time>
      </trkpt>
      <trkpt lat="48.10339" lon="7.10515">
        <ele>965.4</ele>
        <time>2025-09-08T07:08:53Z</time>
      </trkpt>
      <trkpt lat="48.10343" lon="7.1051">
        <ele>965.6</ele>
        <time>2025-09-08T07:08:54Z</time>
      </trkpt>
      <trkpt lat="48.10346" lon="7.10506">
        <ele>966</ele>
        <time>2025-09-08T07:08:55Z</time>
      </trkpt>
      <trkpt lat="48.10349" lon="7.10501">
        <ele>966</ele>
        <time>2025-09-08T07:08:56Z</time>
      </trkpt>
      <trkpt lat="48.10353" lon="7.10497">
        <ele>966.2</ele>
        <time>2025-09-08T07:08:57Z</time>
      </trkpt>
      <trkpt lat="48.10356" lon="7.10493">
        <ele>966.4</ele>
        <time>2025-09-08T07:08:58Z</time>
      </trkpt>
      <trkpt lat="48.10359" lon="7.10489">
        <ele>966.4</ele>
        <time>2025-09-08T07:08:59Z</time>
      </trkpt>
      <trkpt lat="48.10362" lon="7.10485">
        <ele>966.8</ele>
        <time>2025-09-08T07:09:00Z</time>
      </trkpt>
      <trkpt lat="48.10366" lon="7.10481">
        <ele>966.8</ele>
        <time>2025-09-08T07:09:01Z</time>
      </trkpt>
      <trkpt lat="48.10369" lon="7.10477">
        <ele>967</ele>
        <time>2025-09-08T07:09:02Z</time>
      </trkpt>
      <trkpt lat="48.10372" lon="7.10474">
        <ele>967.2</ele>
        <time>2025-09-08T07:09:03Z</time>
      </trkpt>
      <trkpt lat="48.10375" lon="7.1047">
        <ele>967.6</ele>
        <time>2025-09-08T07:09:04Z</time>
      </trkpt>
      <trkpt lat="48.10378" lon="7.10466">
        <ele>967.8</ele>
        <time>2025-09-08T07:09:05Z</time>
      </trkpt>
      <trkpt lat="48.10381" lon="7.10463">
        <ele>968</ele>
        <time>2025-09-08T07:09:06Z</time>
      </trkpt>
      <trkpt lat="48.10384" lon="7.1046">
        <ele>968.2</ele>
        <time>2025-09-08T07:09:07Z</time>
      </trkpt>
      <trkpt lat="48.10387" lon="7.10457">
        <ele>968.4</ele>
        <time>2025-09-08T07:09:08Z</time>
      </trkpt>
      <trkpt lat="48.1039" lon="7.10454">
        <ele>968.8</ele>
        <time>2025-09-08T07:09:09Z</time>
      </trkpt>
      <trkpt lat="48.10393" lon="7.10451">
        <ele>969</ele>
        <time>2025-09-08T07:09:10Z</time>
      </trkpt>
      <trkpt lat="48.10397" lon="7.10448">
        <ele>969.2</ele>
        <time>2025-09-08T07:09:11Z</time>
      </trkpt>
      <trkpt lat="48.104" lon="7.10446">
        <ele>969.4</ele>
        <time>2025-09-08T07:09:12Z</time>
      </trkpt>
      <trkpt lat="48.10404" lon="7.10443">
        <ele>969.6</ele>
        <time>2025-09-08T07:09:13Z</time>
      </trkpt>
      <trkpt lat="48.10407" lon="7.1044">
        <ele>969.8</ele>
        <time>2025-09-08T07:09:14Z</time>
      </trkpt>
      <trkpt lat="48.10411" lon="7.10437">
        <ele>970.2</ele>
        <time>2025-09-08T07:09:15Z</time>
      </trkpt>
      <trkpt lat="48.10414" lon="7.10433">
        <ele>970.4</ele>
        <time>2025-09-08T07:09:16Z</time>
      </trkpt>
      <trkpt lat="48.10417" lon="7.1043">
        <ele>970.4</ele>
        <time>2025-09-08T07:09:17Z</time>
      </trkpt>
      <trkpt lat="48.1042" lon="7.10426">
        <ele>970.6</ele>
        <time>2025-09-08T07:09:18Z</time>
      </trkpt>
      <trkpt lat="48.10424" lon="7.10423">
        <ele>970.8</ele>
        <time>2025-09-08T07:09:19Z</time>
      </trkpt>
      <trkpt lat="48.10427" lon="7.1042">
        <ele>971</ele>
        <time>2025-09-08T07:09:20Z</time>
      </trkpt>
      <trkpt lat="48.10431" lon="7.10417">
        <ele>971.2</ele>
        <time>2025-09-08T07:09:21Z</time>
      </trkpt>
      <trkpt lat="48.10435" lon="7.10414">
        <ele>971.6</ele>
        <time>2025-09-08T07:09:22Z</time>
      </trkpt>
      <trkpt lat="48.10438" lon="7.10412">
        <ele>971.6</ele>
        <time>2025-09-08T07:09:23Z</time>
      </trkpt>
      <trkpt lat="48.10442" lon="7.1041">
        <ele>971.8</ele>
        <time>2025-09-08T07:09:24Z</time>
      </trkpt>
      <trkpt lat="48.10445" lon="7.10408">
        <ele>972</ele>
        <time>2025-09-08T07:09:25Z</time>
      </trkpt>
      <trkpt lat="48.10449" lon="7.10406">
        <ele>972.2</ele>
        <time>2025-09-08T07:09:26Z</time>
      </trkpt>
      <trkpt lat="48.10453" lon="7.10405">
        <ele>972.4</ele>
        <time>2025-09-08T07:09:27Z</time>
      </trkpt>
      <trkpt lat="48.10456" lon="7.10403">
        <ele>972.6</ele>
        <time>2025-09-08T07:09:28Z</time>
      </trkpt>
      <trkpt lat="48.1046" lon="7.10401">
        <ele>972.8</ele>
        <time>2025-09-08T07:09:29Z</time>
      </trkpt>
      <trkpt lat="48.10464" lon="7.104">
        <ele>973</ele>
        <time>2025-09-08T07:09:30Z</time>
      </trkpt>
      <trkpt lat="48.10468" lon="7.10398">
        <ele>973.2</ele>
        <time>2025-09-08T07:09:31Z</time>
      </trkpt>
      <trkpt lat="48.10472" lon="7.10397">
        <ele>973.4</ele>
        <time>2025-09-08T07:09:32Z</time>
      </trkpt>
      <trkpt lat="48.10476" lon="7.10396">
        <ele>973.4</ele>
        <time>2025-09-08T07:09:33Z</time>
      </trkpt>
      <trkpt lat="48.1048" lon="7.10394">
        <ele>973.6</ele>
        <time>2025-09-08T07:09:34Z</time>
      </trkpt>
      <trkpt lat="48.10485" lon="7.10392">
        <ele>973.6</ele>
        <time>2025-09-08T07:09:35Z</time>
      </trkpt>
      <trkpt lat="48.10488" lon="7.1039">
        <ele>973.8</ele>
        <time>2025-09-08T07:09:36Z</time>
      </trkpt>
      <trkpt lat="48.10492" lon="7.10387">
        <ele>974</ele>
        <time>2025-09-08T07:09:37Z</time>
      </trkpt>
      <trkpt lat="48.10496" lon="7.10384">
        <ele>974</ele>
        <time>2025-09-08T07:09:38Z</time>
      </trkpt>
      <trkpt lat="48.10499" lon="7.1038">
        <ele>974.2</ele>
        <time>2025-09-08T07:09:39Z</time>
      </trkpt>
      <trkpt lat="48.10503" lon="7.10376">
        <ele>974.2</ele>
        <time>2025-09-08T07:09:40Z</time>
      </trkpt>
      <trkpt lat="48.10506" lon="7.10372">
        <ele>974.4</ele>
        <time>2025-09-08T07:09:41Z</time>
      </trkpt>
      <trkpt lat="48.10509" lon="7.10369">
        <ele>974.6</ele>
        <time>2025-09-08T07:09:42Z</time>
      </trkpt>
      <trkpt lat="48.10513" lon="7.10366">
        <ele>975</ele>
        <time>2025-09-08T07:09:43Z</time>
      </trkpt>
      <trkpt lat="48.10516" lon="7.10363">
        <ele>975.2</ele>
        <time>2025-09-08T07:09:44Z</time>
      </trkpt>
      <trkpt lat="48.1052" lon="7.1036">
        <ele>975.4</ele>
        <time>2025-09-08T07:09:45Z</time>
      </trkpt>
      <trkpt lat="48.10523" lon="7.10358">
        <ele>975.6</ele>
        <time>2025-09-08T07:09:46Z</time>
      </trkpt>
      <trkpt lat="48.10527" lon="7.10355">
        <ele>975.8</ele>
        <time>2025-09-08T07:09:47Z</time>
      </trkpt>
      <trkpt lat="48.10531" lon="7.10353">
        <ele>976</ele>
        <time>2025-09-08T07:09:48Z</time>
      </trkpt>
      <trkpt lat="48.10535" lon="7.1035">
        <ele>976.2</ele>
        <time>2025-09-08T07:09:49Z</time>
      </trkpt>
      <trkpt lat="48.10539" lon="7.10348">
        <ele>976.4</ele>
        <time>2025-09-08T07:09:50Z</time>
      </trkpt>
      <trkpt lat="48.10543" lon="7.10346">
        <ele>976.6</ele>
        <time>2025-09-08T07:09:51Z</time>
      </trkpt>
      <trkpt lat="48.10547" lon="7.10344">
        <ele>976.6</ele>
        <time>2025-09-08T07:09:52Z</time>
      </trkpt>
      <trkpt lat="48.10552" lon="7.10342">
        <ele>976.6</ele>
        <time>2025-09-08T07:09:53Z</time>
      </trkpt>
      <trkpt lat="48.10556" lon="7.10339">
        <ele>976.8</ele>
        <time>2025-09-08T07:09:54Z</time>
      </trkpt>
      <trkpt lat="48.1056" lon="7.10337">
        <ele>976.8</ele>
        <time>2025-09-08T07:09:55Z</time>
      </trkpt>
      <trkpt lat="48.10564" lon="7.10333">
        <ele>976.8</ele>
        <time>2025-09-08T07:09:56Z</time>
      </trkpt>
      <trkpt lat="48.10568" lon="7.1033">
        <ele>977</ele>
        <time>2025-09-08T07:09:57Z</time>
      </trkpt>
      <trkpt lat="48.10572" lon="7.10325">
        <ele>977.2</ele>
        <time>2025-09-08T07:09:58Z</time>
      </trkpt>
      <trkpt lat="48.10576" lon="7.10321">
        <ele>977.2</ele>
        <time>2025-09-08T07:09:59Z</time>
      </trkpt>
      <trkpt lat="48.1058" lon="7.10319">
        <ele>977.4</ele>
        <time>2025-09-08T07:10:00Z</time>
      </trkpt>
      <trkpt lat="48.10584" lon="7.10316">
        <ele>977.4</ele>
        <time>2025-09-08T07:10:01Z</time>
      </trkpt>
      <trkpt lat="48.10588" lon="7.10314">
        <ele>977.6</ele>
        <time>2025-09-08T07:10:02Z</time>
      </trkpt>
      <trkpt lat="48.10592" lon="7.10312">
        <ele>977.8</ele>
        <time>2025-09-08T07:10:03Z</time>
      </trkpt>
      <trkpt lat="48.10596" lon="7.10311">
        <ele>978</ele>
        <time>2025-09-08T07:10:04Z</time>
      </trkpt>
      <trkpt lat="48.10601" lon="7.10311">
        <ele>978.2</ele>
        <time>2025-09-08T07:10:05Z</time>
      </trkpt>
      <trkpt lat="48.10606" lon="7.10311">
        <ele>978.2</ele>
        <time>2025-09-08T07:10:06Z</time>
      </trkpt>
      <trkpt lat="48.1061" lon="7.10312">
        <ele>978.4</ele>
        <time>2025-09-08T07:10:07Z</time>
      </trkpt>
      <trkpt lat="48.10615" lon="7.10313">
        <ele>978.4</ele>
        <time>2025-09-08T07:10:08Z</time>
      </trkpt>
      <trkpt lat="48.10619" lon="7.10315">
        <ele>978.6</ele>
        <time>2025-09-08T07:10:09Z</time>
      </trkpt>
      <trkpt lat="48.10624" lon="7.10316">
        <ele>978.8</ele>
        <time>2025-09-08T07:10:10Z</time>
      </trkpt>
      <trkpt lat="48.10628" lon="7.10318">
        <ele>978.8</ele>
        <time>2025-09-08T07:10:11Z</time>
      </trkpt>
      <trkpt lat="48.10633" lon="7.1032">
        <ele>979</ele>
        <time>2025-09-08T07:10:12Z</time>
      </trkpt>
      <trkpt lat="48.10637" lon="7.10322">
        <ele>979</ele>
        <time>2025-09-08T07:10:13Z</time>
      </trkpt>
      <trkpt lat="48.10642" lon="7.10324">
        <ele>979.2</ele>
        <time>2025-09-08T07:10:14Z</time>
      </trkpt>
      <trkpt lat="48.10646" lon="7.10326">
        <ele>979.2</ele>
        <time>2025-09-08T07:10:15Z</time>
      </trkpt>
      <trkpt lat="48.10651" lon="7.10328">
        <ele>979.2</ele>
        <time>2025-09-08T07:10:16Z</time>
      </trkpt>
      <trkpt lat="48.10655" lon="7.1033">
        <ele>979.2</ele>
        <time>2025-09-08T07:10:17Z</time>
      </trkpt>
      <trkpt lat="48.1066" lon="7.10332">
        <ele>979.2</ele>
        <time>2025-09-08T07:10:18Z</time>
      </trkpt>
      <trkpt lat="48.10665" lon="7.10333">
        <ele>979.2</ele>
        <time>2025-09-08T07:10:19Z</time>
      </trkpt>
      <trkpt lat="48.10671" lon="7.10333">
        <ele>979</ele>
        <time>2025-09-08T07:10:20Z</time>
      </trkpt>
      <trkpt lat="48.10676" lon="7.10332">
        <ele>979</ele>
        <time>2025-09-08T07:10:21Z</time>
      </trkpt>
      <trkpt lat="48.10682" lon="7.10331">
        <ele>978.8</ele>
        <time>2025-09-08T07:10:22Z</time>
      </trkpt>
      <trkpt lat="48.10687" lon="7.10331">
        <ele>978.6</ele>
        <time>2025-09-08T07:10:23Z</time>
      </trkpt>
      <trkpt lat="48.10693" lon="7.1033">
        <ele>978.6</ele>
        <time>2025-09-08T07:10:24Z</time>
      </trkpt>
      <trkpt lat="48.10698" lon="7.10329">
        <ele>978.4</ele>
        <time>2025-09-08T07:10:25Z</time>
      </trkpt>
      <trkpt lat="48.10703" lon="7.10328">
        <ele>978.4</ele>
        <time>2025-09-08T07:10:26Z</time>
      </trkpt>
      <trkpt lat="48.10708" lon="7.10327">
        <ele>978.2</ele>
        <time>2025-09-08T07:10:27Z</time>
      </trkpt>
      <trkpt lat="48.10714" lon="7.10326">
        <ele>978.2</ele>
        <time>2025-09-08T07:10:28Z</time>
      </trkpt>
      <trkpt lat="48.1072" lon="7.10325">
        <ele>978</ele>
        <time>2025-09-08T07:10:29Z</time>
      </trkpt>
      <trkpt lat="48.10726" lon="7.10324">
        <ele>978</ele>
        <time>2025-09-08T07:10:30Z</time>
      </trkpt>
      <trkpt lat="48.10733" lon="7.10323">
        <ele>977.8</ele>
        <time>2025-09-08T07:10:31Z</time>
      </trkpt>
      <trkpt lat="48.10739" lon="7.10322">
        <ele>977.6</ele>
        <time>2025-09-08T07:10:32Z</time>
      </trkpt>
      <trkpt lat="48.10745" lon="7.10321">
        <ele>977.6</ele>
        <time>2025-09-08T07:10:33Z</time>
      </trkpt>
      <trkpt lat="48.10751" lon="7.10319">
        <ele>977.6</ele>
        <time>2025-09-08T07:10:34Z</time>
      </trkpt>
      <trkpt lat="48.10757" lon="7.10319">
        <ele>977.6</ele>
        <time>2025-09-08T07:10:35Z</time>
      </trkpt>
      <trkpt lat="48.10762" lon="7.1032">
        <ele>977.4</ele>
        <time>2025-09-08T07:10:36Z</time>
      </trkpt>
      <trkpt lat="48.10768" lon="7.10323">
        <ele>977.4</ele>
        <time>2025-09-08T07:10:37Z</time>
      </trkpt>
      <trkpt lat="48.10774" lon="7.10326">
        <ele>977.4</ele>
        <time>2025-09-08T07:10:38Z</time>
      </trkpt>
      <trkpt lat="48.10779" lon="7.1033">
        <ele>977.2</ele>
        <time>2025-09-08T07:10:39Z</time>
      </trkpt>
      <trkpt lat="48.10785" lon="7.10334">
        <ele>977.2</ele>
        <time>2025-09-08T07:10:40Z</time>
      </trkpt>
      <trkpt lat="48.10791" lon="7.10336">
        <ele>977.2</ele>
        <time>2025-09-08T07:10:41Z</time>
      </trkpt>
      <trkpt lat="48.10797" lon="7.10338">
        <ele>977</ele>
        <time>2025-09-08T07:10:42Z</time>
      </trkpt>
      <trkpt lat="48.10804" lon="7.1034">
        <ele>977</ele>
        <time>2025-09-08T07:10:43Z</time>
      </trkpt>
      <trkpt lat="48.1081" lon="7.1034">
        <ele>976.8</ele>
        <time>2025-09-08T07:10:44Z</time>
      </trkpt>
      <trkpt lat="48.10817" lon="7.10339">
        <ele>976.4</ele>
        <time>2025-09-08T07:10:45Z</time>
      </trkpt>
      <trkpt lat="48.10823" lon="7.10339">
        <ele>976.2</ele>
        <time>2025-09-08T07:10:46Z</time>
      </trkpt>
      <trkpt lat="48.1083" lon="7.10339">
        <ele>976</ele>
        <time>2025-09-08T07:10:47Z</time>
      </trkpt>
      <trkpt lat="48.10836" lon="7.10338">
        <ele>976</ele>
        <time>2025-09-08T07:10:48Z</time>
      </trkpt>
      <trkpt lat="48.10843" lon="7.10338">
        <ele>975.8</ele>
        <time>2025-09-08T07:10:49Z</time>
      </trkpt>
      <trkpt lat="48.10849" lon="7.10336">
        <ele>975.6</ele>
        <time>2025-09-08T07:10:50Z</time>
      </trkpt>
      <trkpt lat="48.10856" lon="7.10335">
        <ele>975.4</ele>
        <time>2025-09-08T07:10:51Z</time>
      </trkpt>
      <trkpt lat="48.10862" lon="7.10335">
        <ele>975.2</ele>
        <time>2025-09-08T07:10:52Z</time>
      </trkpt>
      <trkpt lat="48.10868" lon="7.10333">
        <ele>974.8</ele>
        <time>2025-09-08T07:10:53Z</time>
      </trkpt>
      <trkpt lat="48.10874" lon="7.10332">
        <ele>974.6</ele>
        <time>2025-09-08T07:10:54Z</time>
      </trkpt>
      <trkpt lat="48.1088" lon="7.10333">
        <ele>974.4</ele>
        <time>2025-09-08T07:10:55Z</time>
      </trkpt>
      <trkpt lat="48.10886" lon="7.10333">
        <ele>974</ele>
        <time>2025-09-08T07:10:56Z</time>
      </trkpt>
      <trkpt lat="48.10892" lon="7.10331">
        <ele>973.8</ele>
        <time>2025-09-08T07:10:57Z</time>
      </trkpt>
      <trkpt lat="48.10898" lon="7.10331">
        <ele>973.6</ele>
        <time>2025-09-08T07:10:58Z</time>
      </trkpt>
      <trkpt lat="48.10904" lon="7.1033">
        <ele>973.4</ele>
        <time>2025-09-08T07:10:59Z</time>
      </trkpt>
      <trkpt lat="48.1091" lon="7.10328">
        <ele>973.4</ele>
        <time>2025-09-08T07:11:00Z</time>
      </trkpt>
      <trkpt lat="48.10915" lon="7.10326">
        <ele>973.4</ele>
        <time>2025-09-08T07:11:01Z</time>
      </trkpt>
      <trkpt lat="48.10921" lon="7.10324">
        <ele>973.4</ele>
        <time>2025-09-08T07:11:02Z</time>
      </trkpt>
      <trkpt lat="48.10927" lon="7.10323">
        <ele>973.2</ele>
        <time>2025-09-08T07:11:03Z</time>
      </trkpt>
      <trkpt lat="48.10933" lon="7.10322">
        <ele>973.2</ele>
        <time>2025-09-08T07:11:04Z</time>
      </trkpt>
      <trkpt lat="48.10939" lon="7.10321">
        <ele>973.2</ele>
        <time>2025-09-08T07:11:05Z</time>
      </trkpt>
      <trkpt lat="48.10945" lon="7.10321">
        <ele>973.2</ele>
        <time>2025-09-08T07:11:06Z</time>
      </trkpt>
      <trkpt lat="48.10951" lon="7.1032">
        <ele>973.2</ele>
        <time>2025-09-08T07:11:07Z</time>
      </trkpt>
      <trkpt lat="48.10956" lon="7.10319">
        <ele>973.2</ele>
        <time>2025-09-08T07:11:08Z</time>
      </trkpt>
      <trkpt lat="48.10962" lon="7.10318">
        <ele>973.2</ele>
        <time>2025-09-08T07:11:09Z</time>
      </trkpt>
      <trkpt lat="48.10968" lon="7.10317">
        <ele>973.4</ele>
        <time>2025-09-08T07:11:10Z</time>
      </trkpt>
      <trkpt lat="48.10974" lon="7.10316">
        <ele>973.4</ele>
        <time>2025-09-08T07:11:11Z</time>
      </trkpt>
      <trkpt lat="48.1098" lon="7.10315">
        <ele>973.4</ele>
        <time>2025-09-08T07:11:12Z</time>
      </trkpt>
      <trkpt lat="48.10986" lon="7.10313">
        <ele>973.4</ele>
        <time>2025-09-08T07:11:13Z</time>
      </trkpt>
      <trkpt lat="48.10991" lon="7.10311">
        <ele>973.4</ele>
        <time>2025-09-08T07:11:14Z</time>
      </trkpt>
      <trkpt lat="48.10997" lon="7.1031">
        <ele>973.4</ele>
        <time>2025-09-08T07:11:15Z</time>
      </trkpt>
      <trkpt lat="48.11003" lon="7.10308">
        <ele>973.4</ele>
        <time>2025-09-08T07:11:16Z</time>
      </trkpt>
      <trkpt lat="48.11009" lon="7.10305">
        <ele>973.2</ele>
        <time>2025-09-08T07:11:17Z</time>
      </trkpt>
      <trkpt lat="48.11014" lon="7.10302">
        <ele>973.2</ele>
        <time>2025-09-08T07:11:18Z</time>
      </trkpt>
      <trkpt lat="48.1102" lon="7.103">
        <ele>973.2</ele>
        <time>2025-09-08T07:11:19Z</time>
      </trkpt>
      <trkpt lat="48.11025" lon="7.10297">
        <ele>973</ele>
        <time>2025-09-08T07:11:20Z</time>
      </trkpt>
      <trkpt lat="48.1103" lon="7.10295">
        <ele>973</ele>
        <time>2025-09-08T07:11:21Z</time>
      </trkpt>
      <trkpt lat="48.11036" lon="7.10293">
        <ele>973</ele>
        <time>2025-09-08T07:11:22Z</time>
      </trkpt>
      <trkpt lat="48.11042" lon="7.10291">
        <ele>973</ele>
        <time>2025-09-08T07:11:23Z</time>
      </trkpt>
      <trkpt lat="48.11048" lon="7.1029">
        <ele>973</ele>
        <time>2025-09-08T07:11:24Z</time>
      </trkpt>
      <trkpt lat="48.11053" lon="7.10289">
        <ele>973</ele>
        <time>2025-09-08T07:11:25Z</time>
      </trkpt>
      <trkpt lat="48.11058" lon="7.10287">
        <ele>973</ele>
        <time>2025-09-08T07:11:26Z</time>
      </trkpt>
      <trkpt lat="48.11064" lon="7.10286">
        <ele>973</ele>
        <time>2025-09-08T07:11:27Z</time>
      </trkpt>
      <trkpt lat="48.11069" lon="7.10283">
        <ele>973</ele>
        <time>2025-09-08T07:11:28Z</time>
      </trkpt>
      <trkpt lat="48.11075" lon="7.10279">
        <ele>973</ele>
        <time>2025-09-08T07:11:29Z</time>
      </trkpt>
      <trkpt lat="48.1108" lon="7.10275">
        <ele>973</ele>
        <time>2025-09-08T07:11:30Z</time>
      </trkpt>
      <trkpt lat="48.11086" lon="7.10271">
        <ele>973</ele>
        <time>2025-09-08T07:11:31Z</time>
      </trkpt>
      <trkpt lat="48.11093" lon="7.10266">
        <ele>972.8</ele>
        <time>2025-09-08T07:11:32Z</time>
      </trkpt>
      <trkpt lat="48.11099" lon="7.1026">
        <ele>972.8</ele>
        <time>2025-09-08T07:11:33Z</time>
      </trkpt>
      <trkpt lat="48.11105" lon="7.10254">
        <ele>972.4</ele>
        <time>2025-09-08T07:11:34Z</time>
      </trkpt>
      <trkpt lat="48.11112" lon="7.10249">
        <ele>972.2</ele>
        <time>2025-09-08T07:11:35Z</time>
      </trkpt>
      <trkpt lat="48.11119" lon="7.10243">
        <ele>971.8</ele>
        <time>2025-09-08T07:11:36Z</time>
      </trkpt>
      <trkpt lat="48.11126" lon="7.10237">
        <ele>971.2</ele>
        <time>2025-09-08T07:11:37Z</time>
      </trkpt>
      <trkpt lat="48.11132" lon="7.1023">
        <ele>970.6</ele>
        <time>2025-09-08T07:11:38Z</time>
      </trkpt>
      <trkpt lat="48.11139" lon="7.1022">
        <ele>970</ele>
        <time>2025-09-08T07:11:39Z</time>
      </trkpt>
      <trkpt lat="48.11146" lon="7.10212">
        <ele>969.6</ele>
        <time>2025-09-08T07:11:40Z</time>
      </trkpt>
      <trkpt lat="48.11154" lon="7.10205">
        <ele>968.8</ele>
        <time>2025-09-08T07:11:41Z</time>
      </trkpt>
      <trkpt lat="48.11162" lon="7.10198">
        <ele>968</ele>
        <time>2025-09-08T07:11:42Z</time>
      </trkpt>
      <trkpt lat="48.1117" lon="7.1019">
        <ele>967.2</ele>
        <time>2025-09-08T07:11:43Z</time>
      </trkpt>
      <trkpt lat="48.11177" lon="7.10181">
        <ele>966.4</ele>
        <time>2025-09-08T07:11:44Z</time>
      </trkpt>
      <trkpt lat="48.11185" lon="7.10171">
        <ele>965.8</ele>
        <time>2025-09-08T07:11:45Z</time>
      </trkpt>
      <trkpt lat="48.11192" lon="7.10161">
        <ele>965</ele>
        <time>2025-09-08T07:11:46Z</time>
      </trkpt>
      <trkpt lat="48.11199" lon="7.10152">
        <ele>964.4</ele>
        <time>2025-09-08T07:11:47Z</time>
      </trkpt>
      <trkpt lat="48.11205" lon="7.10143">
        <ele>963.8</ele>
        <time>2025-09-08T07:11:48Z</time>
      </trkpt>
      <trkpt lat="48.1121" lon="7.10135">
        <ele>963.2</ele>
        <time>2025-09-08T07:11:49Z</time>
      </trkpt>
      <trkpt lat="48.11214" lon="7.10127">
        <ele>962.2</ele>
        <time>2025-09-08T07:11:50Z</time>
      </trkpt>
      <trkpt lat="48.11218" lon="7.10118">
        <ele>961.6</ele>
        <time>2025-09-08T07:11:51Z</time>
      </trkpt>
      <trkpt lat="48.11221" lon="7.10109">
        <ele>961.4</ele>
        <time>2025-09-08T07:11:52Z</time>
      </trkpt>
      <trkpt lat="48.11223" lon="7.10099">
        <ele>961.2</ele>
        <time>2025-09-08T07:11:53Z</time>
      </trkpt>
      <trkpt lat="48.11224" lon="7.10088">
        <ele>960.8</ele>
        <time>2025-09-08T07:11:54Z</time>
      </trkpt>
      <trkpt lat="48.11224" lon="7.10077">
        <ele>960.4</ele>
        <time>2025-09-08T07:11:55Z</time>
      </trkpt>
      <trkpt lat="48.11224" lon="7.10066">
        <ele>959.8</ele>
        <time>2025-09-08T07:11:56Z</time>
      </trkpt>
      <trkpt lat="48.11224" lon="7.10055">
        <ele>959.6</ele>
        <time>2025-09-08T07:11:57Z</time>
      </trkpt>
      <trkpt lat="48.11223" lon="7.10045">
        <ele>959</ele>
        <time>2025-09-08T07:11:58Z</time>
      </trkpt>
      <trkpt lat="48.11222" lon="7.10035">
        <ele>958.6</ele>
        <time>2025-09-08T07:11:59Z</time>
      </trkpt>
      <trkpt lat="48.11221" lon="7.10025">
        <ele>958.2</ele>
        <time>2025-09-08T07:12:00Z</time>
      </trkpt>
      <trkpt lat="48.11221" lon="7.10016">
        <ele>957.8</ele>
        <time>2025-09-08T07:12:01Z</time>
      </trkpt>
      <trkpt lat="48.11223" lon="7.10009">
        <ele>957.6</ele>
        <time>2025-09-08T07:12:02Z</time>
      </trkpt>
      <trkpt lat="48.11226" lon="7.10004">
        <ele>957.2</ele>
        <time>2025-09-08T07:12:03Z</time>
      </trkpt>
      <trkpt lat="48.1123" lon="7.10001">
        <ele>957.2</ele>
        <time>2025-09-08T07:12:04Z</time>
      </trkpt>
      <trkpt lat="48.11235" lon="7.09999">
        <ele>957</ele>
        <time>2025-09-08T07:12:05Z</time>
      </trkpt>
      <trkpt lat="48.11239" lon="7.09996">
        <ele>957</ele>
        <time>2025-09-08T07:12:06Z</time>
      </trkpt>
      <trkpt lat="48.11243" lon="7.09993">
        <ele>957</ele>
        <time>2025-09-08T07:12:07Z</time>
      </trkpt>
      <trkpt lat="48.11246" lon="7.0999">
        <ele>957</ele>
        <time>2025-09-08T07:12:08Z</time>
      </trkpt>
      <trkpt lat="48.1125" lon="7.09988">
        <ele>957</ele>
        <time>2025-09-08T07:12:09Z</time>
      </trkpt>
      <trkpt lat="48.11252" lon="7.09986">
        <ele>957</ele>
        <time>2025-09-08T07:12:10Z</time>
      </trkpt>
      <trkpt lat="48.11255" lon="7.09985">
        <ele>957</ele>
        <time>2025-09-08T07:12:11Z</time>
      </trkpt>
      <trkpt lat="48.11256" lon="7.09984">
        <ele>957</ele>
        <time>2025-09-08T07:12:12Z</time>
      </trkpt>
      <trkpt lat="48.11256" lon="7.09984">
        <ele>957.2</ele>
        <time>2025-09-08T07:12:13Z</time>
      </trkpt>
      <trkpt lat="48.11257" lon="7.09984">
        <ele>957.2</ele>
        <time>2025-09-08T07:12:14Z</time>
      </trkpt>
      <trkpt lat="48.11257" lon="7.09988">
        <ele>957.6</ele>
        <time>2025-09-08T07:19:02Z</time>
      </trkpt>
      <trkpt lat="48.11256" lon="7.0999">
        <ele>957.6</ele>
        <time>2025-09-08T07:19:03Z</time>
      </trkpt>
      <trkpt lat="48.11254" lon="7.09991">
        <ele>957.6</ele>
        <time>2025-09-08T07:19:04Z</time>
      </trkpt>
      <trkpt lat="48.11253" lon="7.09993">
        <ele>957.6</ele>
        <time>2025-09-08T07:19:05Z</time>
      </trkpt>
      <trkpt lat="48.11251" lon="7.09995">
        <ele>957.6</ele>
        <time>2025-09-08T07:19:06Z</time>
      </trkpt>
      <trkpt lat="48.11247" lon="7.09997">
        <ele>957.4</ele>
        <time>2025-09-08T07:19:07Z</time>
      </trkpt>
      <trkpt lat="48.11244" lon="7.09997">
        <ele>957.4</ele>
        <time>2025-09-08T07:19:08Z</time>
      </trkpt>
      <trkpt lat="48.1124" lon="7.09998">
        <ele>957.4</ele>
        <time>2025-09-08T07:19:09Z</time>
      </trkpt>
      <trkpt lat="48.11237" lon="7.09999">
        <ele>957.2</ele>
        <time>2025-09-08T07:19:10Z</time>
      </trkpt>
      <trkpt lat="48.11233" lon="7.10001">
        <ele>957.2</ele>
        <time>2025-09-08T07:19:11Z</time>
      </trkpt>
      <trkpt lat="48.11229" lon="7.10002">
        <ele>957</ele>
        <time>2025-09-08T07:19:12Z</time>
      </trkpt>
      <trkpt lat="48.11226" lon="7.10005">
        <ele>956.8</ele>
        <time>2025-09-08T07:19:13Z</time>
      </trkpt>
      <trkpt lat="48.11223" lon="7.10009">
        <ele>956.8</ele>
        <time>2025-09-08T07:19:14Z</time>
      </trkpt>
      <trkpt lat="48.11222" lon="7.10014">
        <ele>956.8</ele>
        <time>2025-09-08T07:19:15Z</time>
      </trkpt>
      <trkpt lat="48.11222" lon="7.1002">
        <ele>956.8</ele>
        <time>2025-09-08T07:19:16Z</time>
      </trkpt>
      <trkpt lat="48.11223" lon="7.10026">
        <ele>957</ele>
        <time>2025-09-08T07:19:17Z</time>
      </trkpt>
      <trkpt lat="48.11223" lon="7.10032">
        <ele>957.2</ele>
        <time>2025-09-08T07:19:18Z</time>
      </trkpt>
      <trkpt lat="48.11223" lon="7.10038">
        <ele>957.2</ele>
        <time>2025-09-08T07:19:19Z</time>
      </trkpt>
      <trkpt lat="48.11223" lon="7.10044">
        <ele>957.4</ele>
        <time>2025-09-08T07:19:20Z</time>
      </trkpt>
      <trkpt lat="48.11224" lon="7.1005">
        <ele>957.6</ele>
        <time>2025-09-08T07:19:21Z</time>
      </trkpt>
      <trkpt lat="48.11224" lon="7.10056">
        <ele>957.6</ele>
        <time>2025-09-08T07:19:22Z</time>
      </trkpt>
      <trkpt lat="48.11224" lon="7.10062">
        <ele>957.8</ele>
        <time>2025-09-08T07:19:23Z</time>
      </trkpt>
      <trkpt lat="48.11225" lon="7.10068">
        <ele>958.2</ele>
        <time>2025-09-08T07:19:24Z</time>
      </trkpt>
      <trkpt lat="48.11225" lon="7.10074">
        <ele>958.4</ele>
        <time>2025-09-08T07:19:25Z</time>
      </trkpt>
      <trkpt lat="48.11225" lon="7.1008">
        <ele>958.6</ele>
        <time>2025-09-08T07:19:26Z</time>
      </trkpt>
      <trkpt lat="48.11225" lon="7.10085">
        <ele>958.8</ele>
        <time>2025-09-08T07:19:27Z</time>
      </trkpt>
      <trkpt lat="48.11225" lon="7.10091">
        <ele>959</ele>
        <time>2025-09-08T07:19:28Z</time>
      </trkpt>
      <trkpt lat="48.11225" lon="7.10097">
        <ele>959.2</ele>
        <time>2025-09-08T07:19:29Z</time>
      </trkpt>
      <trkpt lat="48.11224" lon="7.10103">
        <ele>959.4</ele>
        <time>2025-09-08T07:19:30Z</time>
      </trkpt>
      <trkpt lat="48.11223" lon="7.10109">
        <ele>959.6</ele>
        <time>2025-09-08T07:19:31Z</time>
      </trkpt>
      <trkpt lat="48.11222" lon="7.10115">
        <ele>959.8</ele>
        <time>2025-09-08T07:19:32Z</time>
      </trkpt>
      <trkpt lat="48.1122" lon="7.1012">
        <ele>960</ele>
        <time>2025-09-08T07:19:33Z</time>
      </trkpt>
      <trkpt lat="48.11218" lon="7.10125">
        <ele>960.2</ele>
        <time>2025-09-08T07:19:34Z</time>
      </trkpt>
      <trkpt lat="48.11216" lon="7.1013">
        <ele>960.4</ele>
        <time>2025-09-08T07:19:35Z</time>
      </trkpt>
      <trkpt lat="48.11213" lon="7.10135">
        <ele>960.6</ele>
        <time>2025-09-08T07:19:36Z</time>
      </trkpt>
      <trkpt lat="48.11211" lon="7.10139">
        <ele>960.8</ele>
        <time>2025-09-08T07:19:37Z</time>
      </trkpt>
      <trkpt lat="48.11208" lon="7.10144">
        <ele>961</ele>
        <time>2025-09-08T07:19:38Z</time>
      </trkpt>
      <trkpt lat="48.11205" lon="7.10148">
        <ele>961.2</ele>
        <time>2025-09-08T07:19:39Z</time>
      </trkpt>
      <trkpt lat="48.11202" lon="7.10152">
        <ele>961.4</ele>
        <time>2025-09-08T07:19:40Z</time>
      </trkpt>
      <trkpt lat="48.11199" lon="7.10156">
        <ele>961.6</ele>
        <time>2025-09-08T07:19:41Z</time>
      </trkpt>
      <trkpt lat="48.11196" lon="7.10159">
        <ele>961.8</ele>
        <time>2025-09-08T07:19:42Z</time>
      </trkpt>
      <trkpt lat="48.11193" lon="7.10163">
        <ele>962</ele>
        <time>2025-09-08T07:19:43Z</time>
      </trkpt>
      <trkpt lat="48.1119" lon="7.10167">
        <ele>962.2</ele>
        <time>2025-09-08T07:19:44Z</time>
      </trkpt>
      <trkpt lat="48.11187" lon="7.1017">
        <ele>962.4</ele>
        <time>2025-09-08T07:19:45Z</time>
      </trkpt>
      <trkpt lat="48.11184" lon="7.10174">
        <ele>962.6</ele>
        <time>2025-09-08T07:19:46Z</time>
      </trkpt>
      <trkpt lat="48.11181" lon="7.10178">
        <ele>963</ele>
        <time>2025-09-08T07:19:47Z</time>
      </trkpt>
      <trkpt lat="48.11178" lon="7.10181">
        <ele>963.4</ele>
        <time>2025-09-08T07:19:48Z</time>
      </trkpt>
      <trkpt lat="48.11175" lon="7.10184">
        <ele>963.6</ele>
        <time>2025-09-08T07:19:49Z</time>
      </trkpt>
      <trkpt lat="48.11172" lon="7.10188">
        <ele>963.8</ele>
        <time>2025-09-08T07:19:50Z</time>
      </trkpt>
      <trkpt lat="48.1117" lon="7.10191">
        <ele>964</ele>
        <time>2025-09-08T07:19:51Z</time>
      </trkpt>
      <trkpt lat="48.11167" lon="7.10193">
        <ele>964.4</ele>
        <time>2025-09-08T07:19:52Z</time>
      </trkpt>
      <trkpt lat="48.11164" lon="7.10196">
        <ele>964.6</ele>
        <time>2025-09-08T07:19:53Z</time>
      </trkpt>
      <trkpt lat="48.11161" lon="7.10199">
        <ele>965</ele>
        <time>2025-09-08T07:19:54Z</time>
      </trkpt>
      <trkpt lat="48.11158" lon="7.10201">
        <ele>965.2</ele>
        <time>2025-09-08T07:19:55Z</time>
      </trkpt>
      <trkpt lat="48.11154" lon="7.10204">
        <ele>965.4</ele>
        <time>2025-09-08T07:19:56Z</time>
      </trkpt>
      <trkpt lat="48.11151" lon="7.10207">
        <ele>965.6</ele>
        <time>2025-09-08T07:19:57Z</time>
      </trkpt>
      <trkpt lat="48.11148" lon="7.1021">
        <ele>966</ele>
        <time>2025-09-08T07:19:58Z</time>
      </trkpt>
      <trkpt lat="48.11145" lon="7.10213">
        <ele>966.2</ele>
        <time>2025-09-08T07:19:59Z</time>
      </trkpt>
      <trkpt lat="48.11142" lon="7.10217">
        <ele>966.4</ele>
        <time>2025-09-08T07:20:00Z</time>
      </trkpt>
      <trkpt lat="48.1114" lon="7.1022">
        <ele>966.6</ele>
        <time>2025-09-08T07:20:01Z</time>
      </trkpt>
      <trkpt lat="48.11137" lon="7.10223">
        <ele>967</ele>
        <time>2025-09-08T07:20:02Z</time>
      </trkpt>
      <trkpt lat="48.11134" lon="7.10227">
        <ele>967.2</ele>
        <time>2025-09-08T07:20:03Z</time>
      </trkpt>
      <trkpt lat="48.11132" lon="7.1023">
        <ele>967.6</ele>
        <time>2025-09-08T07:20:04Z</time>
      </trkpt>
      <trkpt lat="48.11129" lon="7.10233">
        <ele>967.8</ele>
        <time>2025-09-08T07:20:05Z</time>
      </trkpt>
      <trkpt lat="48.11126" lon="7.10235">
        <ele>968.2</ele>
        <time>2025-09-08T07:20:06Z</time>
      </trkpt>
      <trkpt lat="48.11123" lon="7.10238">
        <ele>968.6</ele>
        <time>2025-09-08T07:20:07Z</time>
      </trkpt>
      <trkpt lat="48.1112" lon="7.10241">
        <ele>968.8</ele>
        <time>2025-09-08T07:20:08Z</time>
      </trkpt>
      <trkpt lat="48.11117" lon="7.10243">
        <ele>969.2</ele>
        <time>2025-09-08T07:20:09Z</time>
      </trkpt>
      <trkpt lat="48.11114" lon="7.10245">
        <ele>969.6</ele>
        <time>2025-09-08T07:20:10Z</time>
      </trkpt>
      <trkpt lat="48.11112" lon="7.10248">
        <ele>970</ele>
        <time>2025-09-08T07:20:11Z</time>
      </trkpt>
      <trkpt lat="48.11109" lon="7.10251">
        <ele>970.4</ele>
        <time>2025-09-08T07:20:12Z</time>
      </trkpt>
      <trkpt lat="48.11106" lon="7.10253">
        <ele>970.8</ele>
        <time>2025-09-08T07:20:13Z</time>
      </trkpt>
      <trkpt lat="48.11103" lon="7.10256">
        <ele>971</ele>
        <time>2025-09-08T07:20:14Z</time>
      </trkpt>
      <trkpt lat="48.111" lon="7.10259">
        <ele>971.4</ele>
        <time>2025-09-08T07:20:15Z</time>
      </trkpt>
      <trkpt lat="48.11097" lon="7.10262">
        <ele>971.8</ele>
        <time>2025-09-08T07:20:16Z</time>
      </trkpt>
      <trkpt lat="48.11093" lon="7.10264">
        <ele>972</ele>
        <time>2025-09-08T07:20:17Z</time>
      </trkpt>
      <trkpt lat="48.1109" lon="7.10268">
        <ele>972.4</ele>
        <time>2025-09-08T07:20:18Z</time>
      </trkpt>
      <trkpt lat="48.11087" lon="7.10271">
        <ele>972.8</ele>
        <time>2025-09-08T07:20:19Z</time>
      </trkpt>
      <trkpt lat="48.11083" lon="7.10273">
        <ele>973</ele>
        <time>2025-09-08T07:20:20Z</time>
      </trkpt>
      <trkpt lat="48.1108" lon="7.10275">
        <ele>973.4</ele>
        <time>2025-09-08T07:20:21Z</time>
      </trkpt>
      <trkpt lat="48.11077" lon="7.10278">
        <ele>973.6</ele>
        <time>2025-09-08T07:20:22Z</time>
      </trkpt>
      <trkpt lat="48.11073" lon="7.1028">
        <ele>973.8</ele>
        <time>2025-09-08T07:20:23Z</time>
      </trkpt>
      <trkpt lat="48.1107" lon="7.10281">
        <ele>974.2</ele>
        <time>2025-09-08T07:20:24Z</time>
      </trkpt>
      <trkpt lat="48.11066" lon="7.10283">
        <ele>974.4</ele>
        <time>2025-09-08T07:20:25Z</time>
      </trkpt>
      <trkpt lat="48.11062" lon="7.10284">
        <ele>974.6</ele>
        <time>2025-09-08T07:20:26Z</time>
      </trkpt>
      <trkpt lat="48.11058" lon="7.10285">
        <ele>974.8</ele>
        <time>2025-09-08T07:20:27Z</time>
      </trkpt>
      <trkpt lat="48.11054" lon="7.10287">
        <ele>975</ele>
        <time>2025-09-08T07:20:28Z</time>
      </trkpt>
      <trkpt lat="48.11051" lon="7.10288">
        <ele>975.2</ele>
        <time>2025-09-08T07:20:29Z</time>
      </trkpt>
      <trkpt lat="48.11046" lon="7.10289">
        <ele>975.4</ele>
        <time>2025-09-08T07:20:30Z</time>
      </trkpt>
      <trkpt lat="48.11042" lon="7.1029">
        <ele>975.4</ele>
        <time>2025-09-08T07:20:31Z</time>
      </trkpt>
      <trkpt lat="48.11038" lon="7.10291">
        <ele>975.6</ele>
        <time>2025-09-08T07:20:32Z</time>
      </trkpt>
      <trkpt lat="48.11034" lon="7.10293">
        <ele>975.6</ele>
        <time>2025-09-08T07:20:33Z</time>
      </trkpt>
      <trkpt lat="48.1103" lon="7.10294">
        <ele>975.8</ele>
        <time>2025-09-08T07:20:34Z</time>
      </trkpt>
      <trkpt lat="48.11025" lon="7.10295">
        <ele>975.8</ele>
        <time>2025-09-08T07:20:35Z</time>
      </trkpt>
      <trkpt lat="48.11021" lon="7.10297">
        <ele>975.8</ele>
        <time>2025-09-08T07:20:36Z</time>
      </trkpt>
      <trkpt lat="48.11016" lon="7.10299">
        <ele>975.8</ele>
        <time>2025-09-08T07:20:37Z</time>
      </trkpt>
      <trkpt lat="48.11012" lon="7.10301">
        <ele>975.8</ele>
        <time>2025-09-08T07:20:38Z</time>
      </trkpt>
      <trkpt lat="48.11008" lon="7.10303">
        <ele>975.8</ele>
        <time>2025-09-08T07:20:39Z</time>
      </trkpt>
      <trkpt lat="48.11004" lon="7.10306">
        <ele>975.8</ele>
        <time>2025-09-08T07:20:40Z</time>
      </trkpt>
      <trkpt lat="48.11" lon="7.10308">
        <ele>975.6</ele>
        <time>2025-09-08T07:20:41Z</time>
      </trkpt>
      <trkpt lat="48.10995" lon="7.10309">
        <ele>975.6</ele>
        <time>2025-09-08T07:20:42Z</time>
      </trkpt>
      <trkpt lat="48.10991" lon="7.10311">
        <ele>975.6</ele>
        <time>2025-09-08T07:20:43Z</time>
      </trkpt>
      <trkpt lat="48.10987" lon="7.10313">
        <ele>975.6</ele>
        <time>2025-09-08T07:20:44Z</time>
      </trkpt>
      <trkpt lat="48.10982" lon="7.10314">
        <ele>975.6</ele>
        <time>2025-09-08T07:20:45Z</time>
      </trkpt>
      <trkpt lat="48.10978" lon="7.10316">
        <ele>975.6</ele>
        <time>2025-09-08T07:20:46Z</time>
      </trkpt>
      <trkpt lat="48.10973" lon="7.10317">
        <ele>975.6</ele>
        <time>2025-09-08T07:20:47Z</time>
      </trkpt>
      <trkpt lat="48.10968" lon="7.10318">
        <ele>975.8</ele>
        <time>2025-09-08T07:20:48Z</time>
      </trkpt>
      <trkpt lat="48.10963" lon="7.10318">
        <ele>975.8</ele>
        <time>2025-09-08T07:20:49Z</time>
      </trkpt>
      <trkpt lat="48.10959" lon="7.10319">
        <ele>975.8</ele>
        <time>2025-09-08T07:20:50Z</time>
      </trkpt>
      <trkpt lat="48.10954" lon="7.1032">
        <ele>975.8</ele>
        <time>2025-09-08T07:20:51Z</time>
      </trkpt>
      <trkpt lat="48.10949" lon="7.10321">
        <ele>975.8</ele>
        <time>2025-09-08T07:20:52Z</time>
      </trkpt>
      <trkpt lat="48.10945" lon="7.10322">
        <ele>975.8</ele>
        <time>2025-09-08T07:20:53Z</time>
      </trkpt>
      <trkpt lat="48.1094" lon="7.10322">
        <ele>975.8</ele>
        <time>2025-09-08T07:20:54Z</time>
      </trkpt>
      <trkpt lat="48.10935" lon="7.10323">
        <ele>975.8</ele>
        <time>2025-09-08T07:20:55Z</time>
      </trkpt>
      <trkpt lat="48.1093" lon="7.10323">
        <ele>975.8</ele>
        <time>2025-09-08T07:20:56Z</time>
      </trkpt>
      <trkpt lat="48.10925" lon="7.10323">
        <ele>975.6</ele>
        <time>2025-09-08T07:20:57Z</time>
      </trkpt>
      <trkpt lat="48.1092" lon="7.10323">
        <ele>975.6</ele>
        <time>2025-09-08T07:20:58Z</time>
      </trkpt>
      <trkpt lat="48.10915" lon="7.10323">
        <ele>975.6</ele>
        <time>2025-09-08T07:20:59Z</time>
      </trkpt>
      <trkpt lat="48.10911" lon="7.10323">
        <ele>975.4</ele>
        <time>2025-09-08T07:21:00Z</time>
      </trkpt>
      <trkpt lat="48.10906" lon="7.10321">
        <ele>975.4</ele>
        <time>2025-09-08T07:21:01Z</time>
      </trkpt>
      <trkpt lat="48.10901" lon="7.10319">
        <ele>975.4</ele>
        <time>2025-09-08T07:21:02Z</time>
      </trkpt>
      <trkpt lat="48.10898" lon="7.10316">
        <ele>975.4</ele>
        <time>2025-09-08T07:21:03Z</time>
      </trkpt>
      <trkpt lat="48.10894" lon="7.10314">
        <ele>975.4</ele>
        <time>2025-09-08T07:21:04Z</time>
      </trkpt>
      <trkpt lat="48.10891" lon="7.10312">
        <ele>975.4</ele>
        <time>2025-09-08T07:21:05Z</time>
      </trkpt>
      <trkpt lat="48.10887" lon="7.1031">
        <ele>975.6</ele>
        <time>2025-09-08T07:21:06Z</time>
      </trkpt>
      <trkpt lat="48.10884" lon="7.10307">
        <ele>975.8</ele>
        <time>2025-09-08T07:21:07Z</time>
      </trkpt>
      <trkpt lat="48.10881" lon="7.10303">
        <ele>976.2</ele>
        <time>2025-09-08T07:21:08Z</time>
      </trkpt>
      <trkpt lat="48.10879" lon="7.103">
        <ele>976.8</ele>
        <time>2025-09-08T07:21:09Z</time>
      </trkpt>
      <trkpt lat="48.10876" lon="7.10298">
        <ele>977.2</ele>
        <time>2025-09-08T07:21:10Z</time>
      </trkpt>
      <trkpt lat="48.10873" lon="7.10295">
        <ele>977.6</ele>
        <time>2025-09-08T07:21:11Z</time>
      </trkpt>
      <trkpt lat="48.1087" lon="7.10292">
        <ele>978</ele>
        <time>2025-09-08T07:21:12Z</time>
      </trkpt>
      <trkpt lat="48.10868" lon="7.10289">
        <ele>978.4</ele>
        <time>2025-09-08T07:21:13Z</time>
      </trkpt>
      <trkpt lat="48.10865" lon="7.10285">
        <ele>978.8</ele>
        <time>2025-09-08T07:21:14Z</time>
      </trkpt>
      <trkpt lat="48.10862" lon="7.10282">
        <ele>979.2</ele>
        <time>2025-09-08T07:21:15Z</time>
      </trkpt>
      <trkpt lat="48.10859" lon="7.10279">
        <ele>980</ele>
        <time>2025-09-08T07:21:16Z</time>
      </trkpt>
      <trkpt lat="48.10856" lon="7.10277">
        <ele>980.4</ele>
        <time>2025-09-08T07:21:17Z</time>
      </trkpt>
      <trkpt lat="48.10854" lon="7.10275">
        <ele>980.8</ele>
        <time>2025-09-08T07:21:18Z</time>
      </trkpt>
      <trkpt lat="48.10851" lon="7.10272">
        <ele>981.4</ele>
        <time>2025-09-08T07:21:19Z</time>
      </trkpt>
      <trkpt lat="48.10853" lon="7.10267">
        <ele>987</ele>
        <time>2025-09-08T07:22:08Z</time>
      </trkpt>
      <trkpt lat="48.10854" lon="7.10265">
        <ele>986.2</ele>
        <time>2025-09-08T07:22:09Z</time>
      </trkpt>
      <trkpt lat="48.10855" lon="7.10262">
        <ele>986</ele>
        <time>2025-09-08T07:22:10Z</time>
      </trkpt>
      <trkpt lat="48.10855" lon="7.1026">
        <ele>985.8</ele>
        <time>2025-09-08T07:22:11Z</time>
      </trkpt>
      <trkpt lat="48.10854" lon="7.10258">
        <ele>985.6</ele>
        <time>2025-09-08T07:22:12Z</time>
      </trkpt>
      <trkpt lat="48.10853" lon="7.10256">
        <ele>985.6</ele>
        <time>2025-09-08T07:22:13Z</time>
      </trkpt>
      <trkpt lat="48.10853" lon="7.10252">
        <ele>985.4</ele>
        <time>2025-09-08T07:22:14Z</time>
      </trkpt>
      <trkpt lat="48.10853" lon="7.1025">
        <ele>985.6</ele>
        <time>2025-09-08T07:22:15Z</time>
      </trkpt>
      <trkpt lat="48.10853" lon="7.10247">
        <ele>985.6</ele>
        <time>2025-09-08T07:22:16Z</time>
      </trkpt>
      <trkpt lat="48.10852" lon="7.10245">
        <ele>985.6</ele>
        <time>2025-09-08T07:22:17Z</time>
      </trkpt>
      <trkpt lat="48.10852" lon="7.10243">
        <ele>985.6</ele>
        <time>2025-09-08T07:22:18Z</time>
      </trkpt>
      <trkpt lat="48.10851" lon="7.1024">
        <ele>985.8</ele>
        <time>2025-09-08T07:22:19Z</time>
      </trkpt>
      <trkpt lat="48.1085" lon="7.10237">
        <ele>986.4</ele>
        <time>2025-09-08T07:22:20Z</time>
      </trkpt>
      <trkpt lat="48.10849" lon="7.10234">
        <ele>986.6</ele>
        <time>2025-09-08T07:22:21Z</time>
      </trkpt>
      <trkpt lat="48.10848" lon="7.10232">
        <ele>987</ele>
        <time>2025-09-08T07:22:22Z</time>
      </trkpt>
      <trkpt lat="48.10847" lon="7.1023">
        <ele>987.2</ele>
        <time>2025-09-08T07:22:23Z</time>
      </trkpt>
      <trkpt lat="48.10846" lon="7.10227">
        <ele>987.4</ele>
        <time>2025-09-08T07:22:24Z</time>
      </trkpt>
      <trkpt lat="48.10845" lon="7.10224">
        <ele>988.2</ele>
        <time>2025-09-08T07:22:25Z</time>
      </trkpt>
      <trkpt lat="48.10844" lon="7.10221">
        <ele>988.6</ele>
        <time>2025-09-08T07:22:26Z</time>
      </trkpt>
      <trkpt lat="48.10843" lon="7.10218">
        <ele>988.8</ele>
        <time>2025-09-08T07:22:27Z</time>
      </trkpt>
      <trkpt lat="48.10842" lon="7.10214">
        <ele>989.2</ele>
        <time>2025-09-08T07:22:28Z</time>
      </trkpt>
      <trkpt lat="48.1084" lon="7.10211">
        <ele>989.6</ele>
        <time>2025-09-08T07:22:29Z</time>
      </trkpt>
      <trkpt lat="48.10839" lon="7.10209">
        <ele>990.2</ele>
        <time>2025-09-08T07:22:30Z</time>
      </trkpt>
      <trkpt lat="48.10837" lon="7.10206">
        <ele>990.6</ele>
        <time>2025-09-08T07:22:31Z</time>
      </trkpt>
      <trkpt lat="48.10836" lon="7.10204">
        <ele>991.2</ele>
        <time>2025-09-08T07:22:32Z</time>
      </trkpt>
      <trkpt lat="48.10834" lon="7.10201">
        <ele>991.6</ele>
        <time>2025-09-08T07:22:33Z</time>
      </trkpt>
      <trkpt lat="48.10832" lon="7.10199">
        <ele>992.2</ele>
        <time>2025-09-08T07:22:34Z</time>
      </trkpt>
      <trkpt lat="48.1083" lon="7.10198">
        <ele>992.4</ele>
        <time>2025-09-08T07:22:35Z</time>
      </trkpt>
      <trkpt lat="48.10829" lon="7.10195">
        <ele>993</ele>
        <time>2025-09-08T07:22:36Z</time>
      </trkpt>
      <trkpt lat="48.10828" lon="7.10192">
        <ele>993.8</ele>
        <time>2025-09-08T07:22:37Z</time>
      </trkpt>
      <trkpt lat="48.10828" lon="7.1019">
        <ele>994.4</ele>
        <time>2025-09-08T07:22:38Z</time>
      </trkpt>
      <trkpt lat="48.10827" lon="7.10187">
        <ele>994.6</ele>
        <time>2025-09-08T07:22:39Z</time>
      </trkpt>
      <trkpt lat="48.10825" lon="7.10185">
        <ele>995</ele>
        <time>2025-09-08T07:22:40Z</time>
      </trkpt>
      <trkpt lat="48.10823" lon="7.10182">
        <ele>995.4</ele>
        <time>2025-09-08T07:22:41Z</time>
      </trkpt>
      <trkpt lat="48.10821" lon="7.10179">
        <ele>995.8</ele>
        <time>2025-09-08T07:22:42Z</time>
      </trkpt>
      <trkpt lat="48.10819" lon="7.10176">
        <ele>996.2</ele>
        <time>2025-09-08T07:22:43Z</time>
      </trkpt>
      <trkpt lat="48.10817" lon="7.10173">
        <ele>996.6</ele>
        <time>2025-09-08T07:22:44Z</time>
      </trkpt>
      <trkpt lat="48.10816" lon="7.1017">
        <ele>997</ele>
        <time>2025-09-08T07:22:45Z</time>
      </trkpt>
      <trkpt lat="48.10814" lon="7.10167">
        <ele>997.4</ele>
        <time>2025-09-08T07:22:46Z</time>
      </trkpt>
      <trkpt lat="48.10813" lon="7.10164">
        <ele>998</ele>
        <time>2025-09-08T07:22:47Z</time>
      </trkpt>
      <trkpt lat="48.10812" lon="7.10162">
        <ele>998.2</ele>
        <time>2025-09-08T07:22:48Z</time>
      </trkpt>
      <trkpt lat="48.10811" lon="7.10159">
        <ele>998.4</ele>
        <time>2025-09-08T07:22:49Z</time>
      </trkpt>
      <trkpt lat="48.1081" lon="7.10156">
        <ele>998.8</ele>
        <time>2025-09-08T07:22:50Z</time>
      </trkpt>
      <trkpt lat="48.1081" lon="7.10153">
        <ele>999.2</ele>
        <time>2025-09-08T07:22:51Z</time>
      </trkpt>
      <trkpt lat="48.10809" lon="7.10151">
        <ele>999.6</ele>
        <time>2025-09-08T07:22:52Z</time>
      </trkpt>
      <trkpt lat="48.10809" lon="7.10148">
        <ele>1000</ele>
        <time>2025-09-08T07:22:53Z</time>
      </trkpt>
      <trkpt lat="48.10809" lon="7.10145">
        <ele>1000.4</ele>
        <time>2025-09-08T07:22:54Z</time>
      </trkpt>
      <trkpt lat="48.10809" lon="7.10142">
        <ele>1000.8</ele>
        <time>2025-09-08T07:22:55Z</time>
      </trkpt>
      <trkpt lat="48.1081" lon="7.10139">
        <ele>1001.2</ele>
        <time>2025-09-08T07:22:56Z</time>
      </trkpt>
      <trkpt lat="48.10811" lon="7.10136">
        <ele>1001.2</ele>
        <time>2025-09-08T07:22:57Z</time>
      </trkpt>
      <trkpt lat="48.10812" lon="7.10134">
        <ele>1001.6</ele>
        <time>2025-09-08T07:22:58Z</time>
      </trkpt>
      <trkpt lat="48.10813" lon="7.10131">
        <ele>1002</ele>
        <time>2025-09-08T07:22:59Z</time>
      </trkpt>
      <trkpt lat="48.10814" lon="7.10128">
        <ele>1002.2</ele>
        <time>2025-09-08T07:23:00Z</time>
      </trkpt>
      <trkpt lat="48.10815" lon="7.10125">
        <ele>1002.4</ele>
        <time>2025-09-08T07:23:01Z</time>
      </trkpt>
      <trkpt lat="48.10817" lon="7.10122">
        <ele>1002.6</ele>
        <time>2025-09-08T07:23:02Z</time>
      </trkpt>
      <trkpt lat="48.10818" lon="7.10119">
        <ele>1002.8</ele>
        <time>2025-09-08T07:23:03Z</time>
      </trkpt>
      <trkpt lat="48.10819" lon="7.10116">
        <ele>1003</ele>
        <time>2025-09-08T07:23:04Z</time>
      </trkpt>
      <trkpt lat="48.1082" lon="7.10114">
        <ele>1003.2</ele>
        <time>2025-09-08T07:23:05Z</time>
      </trkpt>
      <trkpt lat="48.10822" lon="7.10111">
        <ele>1003.4</ele>
        <time>2025-09-08T07:23:06Z</time>
      </trkpt>
      <trkpt lat="48.10823" lon="7.10109">
        <ele>1003.6</ele>
        <time>2025-09-08T07:23:07Z</time>
      </trkpt>
      <trkpt lat="48.10824" lon="7.10106">
        <ele>1004</ele>
        <time>2025-09-08T07:23:08Z</time>
      </trkpt>
      <trkpt lat="48.10826" lon="7.10103">
        <ele>1004.2</ele>
        <time>2025-09-08T07:23:09Z</time>
      </trkpt>
      <trkpt lat="48.10827" lon="7.101">
        <ele>1004.4</ele>
        <time>2025-09-08T07:23:10Z</time>
      </trkpt>
      <trkpt lat="48.10829" lon="7.10097">
        <ele>1004.6</ele>
        <time>2025-09-08T07:23:11Z</time>
      </trkpt>
      <trkpt lat="48.1083" lon="7.10095">
        <ele>1004.8</ele>
        <time>2025-09-08T07:23:12Z</time>
      </trkpt>
      <trkpt lat="48.10832" lon="7.10092">
        <ele>1004.8</ele>
        <time>2025-09-08T07:23:13Z</time>
      </trkpt>
      <trkpt lat="48.10834" lon="7.10089">
        <ele>1005.2</ele>
        <time>2025-09-08T07:23:14Z</time>
      </trkpt>
      <trkpt lat="48.10835" lon="7.10087">
        <ele>1005.4</ele>
        <time>2025-09-08T07:23:15Z</time>
      </trkpt>
      <trkpt lat="48.10837" lon="7.10084">
        <ele>1005.6</ele>
        <time>2025-09-08T07:23:16Z</time>
      </trkpt>
      <trkpt lat="48.10839" lon="7.1008">
        <ele>1006</ele>
        <time>2025-09-08T07:23:17Z</time>
      </trkpt>
      <trkpt lat="48.10841" lon="7.10077">
        <ele>1006.2</ele>
        <time>2025-09-08T07:23:18Z</time>
      </trkpt>
      <trkpt lat="48.10842" lon="7.10074">
        <ele>1006.4</ele>
        <time>2025-09-08T07:23:19Z</time>
      </trkpt>
      <trkpt lat="48.10844" lon="7.1007">
        <ele>1006.6</ele>
        <time>2025-09-08T07:23:20Z</time>
      </trkpt>
      <trkpt lat="48.10846" lon="7.10068">
        <ele>1006.8</ele>
        <time>2025-09-08T07:23:21Z</time>
      </trkpt>
      <trkpt lat="48.10847" lon="7.10065">
        <ele>1006.8</ele>
        <time>2025-09-08T07:23:22Z</time>
      </trkpt>
      <trkpt lat="48.10849" lon="7.10062">
        <ele>1007</ele>
        <time>2025-09-08T07:23:23Z</time>
      </trkpt>
      <trkpt lat="48.1085" lon="7.10059">
        <ele>1007.2</ele>
        <time>2025-09-08T07:23:24Z</time>
      </trkpt>
      <trkpt lat="48.10851" lon="7.10057">
        <ele>1007.4</ele>
        <time>2025-09-08T07:23:25Z</time>
      </trkpt>
      <trkpt lat="48.10853" lon="7.10054">
        <ele>1007.8</ele>
        <time>2025-09-08T07:23:26Z</time>
      </trkpt>
      <trkpt lat="48.10854" lon="7.10051">
        <ele>1007.8</ele>
        <time>2025-09-08T07:23:27Z</time>
      </trkpt>
      <trkpt lat="48.10856" lon="7.10047">
        <ele>1008</ele>
        <time>2025-09-08T07:23:28Z</time>
      </trkpt>
      <trkpt lat="48.10857" lon="7.10045">
        <ele>1008.4</ele>
        <time>2025-09-08T07:23:29Z</time>
      </trkpt>
      <trkpt lat="48.10859" lon="7.10041">
        <ele>1008.6</ele>
        <time>2025-09-08T07:23:30Z</time>
      </trkpt>
      <trkpt lat="48.10861" lon="7.10038">
        <ele>1009</ele>
        <time>2025-09-08T07:23:31Z</time>
      </trkpt>
      <trkpt lat="48.10863" lon="7.10036">
        <ele>1009.2</ele>
        <time>2025-09-08T07:23:32Z</time>
      </trkpt>
      <trkpt lat="48.10864" lon="7.10034">
        <ele>1009.4</ele>
        <time>2025-09-08T07:23:33Z</time>
      </trkpt>
      <trkpt lat="48.10866" lon="7.10032">
        <ele>1009.6</ele>
        <time>2025-09-08T07:23:34Z</time>
      </trkpt>
      <trkpt lat="48.10867" lon="7.1003">
        <ele>1009.8</ele>
        <time>2025-09-08T07:23:35Z</time>
      </trkpt>
      <trkpt lat="48.10869" lon="7.10029">
        <ele>1010.2</ele>
        <time>2025-09-08T07:23:36Z</time>
      </trkpt>
      <trkpt lat="48.10871" lon="7.10027">
        <ele>1010.4</ele>
        <time>2025-09-08T07:23:37Z</time>
      </trkpt>
      <trkpt lat="48.10874" lon="7.10026">
        <ele>1010.6</ele>
        <time>2025-09-08T07:23:38Z</time>
      </trkpt>
      <trkpt lat="48.10876" lon="7.10024">
        <ele>1011</ele>
        <time>2025-09-08T07:23:39Z</time>
      </trkpt>
      <trkpt lat="48.10879" lon="7.10022">
        <ele>1011.2</ele>
        <time>2025-09-08T07:23:40Z</time>
      </trkpt>
      <trkpt lat="48.10881" lon="7.1002">
        <ele>1011.6</ele>
        <time>2025-09-08T07:23:41Z</time>
      </trkpt>
      <trkpt lat="48.10883" lon="7.10017">
        <ele>1011.8</ele>
        <time>2025-09-08T07:23:42Z</time>
      </trkpt>
      <trkpt lat="48.10885" lon="7.10015">
        <ele>1012</ele>
        <time>2025-09-08T07:23:43Z</time>
      </trkpt>
      <trkpt lat="48.10888" lon="7.10012">
        <ele>1012.4</ele>
        <time>2025-09-08T07:23:44Z</time>
      </trkpt>
      <trkpt lat="48.1089" lon="7.10008">
        <ele>1012.8</ele>
        <time>2025-09-08T07:23:45Z</time>
      </trkpt>
      <trkpt lat="48.10892" lon="7.10005">
        <ele>1013</ele>
        <time>2025-09-08T07:23:46Z</time>
      </trkpt>
      <trkpt lat="48.10893" lon="7.10001">
        <ele>1013.4</ele>
        <time>2025-09-08T07:23:47Z</time>
      </trkpt>
      <trkpt lat="48.10895" lon="7.09998">
        <ele>1013.6</ele>
        <time>2025-09-08T07:23:48Z</time>
      </trkpt>
      <trkpt lat="48.10896" lon="7.09995">
        <ele>1013.8</ele>
        <time>2025-09-08T07:23:49Z</time>
      </trkpt>
      <trkpt lat="48.10897" lon="7.09992">
        <ele>1014</ele>
        <time>2025-09-08T07:23:50Z</time>
      </trkpt>
      <trkpt lat="48.10898" lon="7.09988">
        <ele>1014.4</ele>
        <time>2025-09-08T07:23:51Z</time>
      </trkpt>
      <trkpt lat="48.10899" lon="7.09985">
        <ele>1014.8</ele>
        <time>2025-09-08T07:23:52Z</time>
      </trkpt>
      <trkpt lat="48.109" lon="7.0998">
        <ele>1015.2</ele>
        <time>2025-09-08T07:23:53Z</time>
      </trkpt>
      <trkpt lat="48.109" lon="7.09977">
        <ele>1015.4</ele>
        <time>2025-09-08T07:23:54Z</time>
      </trkpt>
      <trkpt lat="48.10901" lon="7.09974">
        <ele>1015.4</ele>
        <time>2025-09-08T07:23:55Z</time>
      </trkpt>
      <trkpt lat="48.10901" lon="7.0997">
        <ele>1016</ele>
        <time>2025-09-08T07:23:56Z</time>
      </trkpt>
      <trkpt lat="48.10902" lon="7.09966">
        <ele>1016.2</ele>
        <time>2025-09-08T07:23:57Z</time>
      </trkpt>
      <trkpt lat="48.10902" lon="7.09962">
        <ele>1016.4</ele>
        <time>2025-09-08T07:23:58Z</time>
      </trkpt>
      <trkpt lat="48.10903" lon="7.09958">
        <ele>1016.6</ele>
        <time>2025-09-08T07:23:59Z</time>
      </trkpt>
      <trkpt lat="48.10903" lon="7.09955">
        <ele>1017</ele>
        <time>2025-09-08T07:24:00Z</time>
      </trkpt>
      <trkpt lat="48.10904" lon="7.0995">
        <ele>1017.2</ele>
        <time>2025-09-08T07:24:01Z</time>
      </trkpt>
      <trkpt lat="48.10904" lon="7.09946">
        <ele>1017.4</ele>
        <time>2025-09-08T07:24:02Z</time>
      </trkpt>
      <trkpt lat="48.10904" lon="7.09942">
        <ele>1017.6</ele>
        <time>2025-09-08T07:24:03Z</time>
      </trkpt>
      <trkpt lat="48.10904" lon="7.09938">
        <ele>1017.8</ele>
        <time>2025-09-08T07:24:04Z</time>
      </trkpt>
      <trkpt lat="48.10904" lon="7.09933">
        <ele>1018</ele>
        <time>2025-09-08T07:24:05Z</time>
      </trkpt>
      <trkpt lat="48.10904" lon="7.09929">
        <ele>1018.2</ele>
        <time>2025-09-08T07:24:06Z</time>
      </trkpt>
      <trkpt lat="48.10904" lon="7.09924">
        <ele>1018.6</ele>
        <time>2025-09-08T07:24:07Z</time>
      </trkpt>
      <trkpt lat="48.10904" lon="7.0992">
        <ele>1018.8</ele>
        <time>2025-09-08T07:24:08Z</time>
      </trkpt>
      <trkpt lat="48.10904" lon="7.09915">
        <ele>1019</ele>
        <time>2025-09-08T07:24:09Z</time>
      </trkpt>
      <trkpt lat="48.10905" lon="7.0991">
        <ele>1019.2</ele>
        <time>2025-09-08T07:24:10Z</time>
      </trkpt>
      <trkpt lat="48.10906" lon="7.09906">
        <ele>1019.2</ele>
        <time>2025-09-08T07:24:11Z</time>
      </trkpt>
      <trkpt lat="48.10907" lon="7.09901">
        <ele>1019.4</ele>
        <time>2025-09-08T07:24:12Z</time>
      </trkpt>
      <trkpt lat="48.10907" lon="7.09897">
        <ele>1019.8</ele>
        <time>2025-09-08T07:24:13Z</time>
      </trkpt>
      <trkpt lat="48.10908" lon="7.09893">
        <ele>1020</ele>
        <time>2025-09-08T07:24:14Z</time>
      </trkpt>
      <trkpt lat="48.1091" lon="7.09888">
        <ele>1020.2</ele>
        <time>2025-09-08T07:24:15Z</time>
      </trkpt>
      <trkpt lat="48.10912" lon="7.09885">
        <ele>1020.6</ele>
        <time>2025-09-08T07:24:16Z</time>
      </trkpt>
      <trkpt lat="48.10913" lon="7.09881">
        <ele>1020.8</ele>
        <time>2025-09-08T07:24:17Z</time>
      </trkpt>
      <trkpt lat="48.10915" lon="7.09878">
        <ele>1021.2</ele>
        <time>2025-09-08T07:24:18Z</time>
      </trkpt>
      <trkpt lat="48.10917" lon="7.09874">
        <ele>1021.4</ele>
        <time>2025-09-08T07:24:19Z</time>
      </trkpt>
      <trkpt lat="48.10919" lon="7.09872">
        <ele>1021.6</ele>
        <time>2025-09-08T07:24:20Z</time>
      </trkpt>
      <trkpt lat="48.10921" lon="7.09869">
        <ele>1021.8</ele>
        <time>2025-09-08T07:24:21Z</time>
      </trkpt>
      <trkpt lat="48.10923" lon="7.09867">
        <ele>1022.2</ele>
        <time>2025-09-08T07:24:22Z</time>
      </trkpt>
      <trkpt lat="48.10925" lon="7.09864">
        <ele>1022.4</ele>
        <time>2025-09-08T07:24:23Z</time>
      </trkpt>
      <trkpt lat="48.10928" lon="7.09861">
        <ele>1022.8</ele>
        <time>2025-09-08T07:24:24Z</time>
      </trkpt>
      <trkpt lat="48.1093" lon="7.09858">
        <ele>1023</ele>
        <time>2025-09-08T07:24:25Z</time>
      </trkpt>
      <trkpt lat="48.10932" lon="7.09855">
        <ele>1023.2</ele>
        <time>2025-09-08T07:24:26Z</time>
      </trkpt>
      <trkpt lat="48.10934" lon="7.09851">
        <ele>1023.4</ele>
        <time>2025-09-08T07:24:27Z</time>
      </trkpt>
      <trkpt lat="48.10936" lon="7.09847">
        <ele>1023.6</ele>
        <time>2025-09-08T07:24:28Z</time>
      </trkpt>
      <trkpt lat="48.10939" lon="7.09843">
        <ele>1023.8</ele>
        <time>2025-09-08T07:24:29Z</time>
      </trkpt>
      <trkpt lat="48.1094" lon="7.09838">
        <ele>1024</ele>
        <time>2025-09-08T07:24:30Z</time>
      </trkpt>
      <trkpt lat="48.10942" lon="7.09833">
        <ele>1024.2</ele>
        <time>2025-09-08T07:24:31Z</time>
      </trkpt>
      <trkpt lat="48.10945" lon="7.09828">
        <ele>1024.4</ele>
        <time>2025-09-08T07:24:32Z</time>
      </trkpt>
      <trkpt lat="48.10947" lon="7.09823">
        <ele>1024.4</ele>
        <time>2025-09-08T07:24:33Z</time>
      </trkpt>
      <trkpt lat="48.1095" lon="7.09818">
        <ele>1024.6</ele>
        <time>2025-09-08T07:24:34Z</time>
      </trkpt>
      <trkpt lat="48.10952" lon="7.09813">
        <ele>1024.6</ele>
        <time>2025-09-08T07:24:35Z</time>
      </trkpt>
      <trkpt lat="48.10955" lon="7.09809">
        <ele>1024.6</ele>
        <time>2025-09-08T07:24:36Z</time>
      </trkpt>
      <trkpt lat="48.10957" lon="7.09804">
        <ele>1024.8</ele>
        <time>2025-09-08T07:24:37Z</time>
      </trkpt>
      <trkpt lat="48.10959" lon="7.09798">
        <ele>1024.8</ele>
        <time>2025-09-08T07:24:38Z</time>
      </trkpt>
      <trkpt lat="48.10961" lon="7.09793">
        <ele>1024.8</ele>
        <time>2025-09-08T07:24:39Z</time>
      </trkpt>
      <trkpt lat="48.10963" lon="7.09788">
        <ele>1024.8</ele>
        <time>2025-09-08T07:24:40Z</time>
      </trkpt>
      <trkpt lat="48.10965" lon="7.09783">
        <ele>1024.8</ele>
        <time>2025-09-08T07:24:41Z</time>
      </trkpt>
      <trkpt lat="48.10967" lon="7.09778">
        <ele>1024.8</ele>
        <time>2025-09-08T07:24:42Z</time>
      </trkpt>
      <trkpt lat="48.10968" lon="7.09773">
        <ele>1024.8</ele>
        <time>2025-09-08T07:24:43Z</time>
      </trkpt>
      <trkpt lat="48.1097" lon="7.09768">
        <ele>1024.8</ele>
        <time>2025-09-08T07:24:44Z</time>
      </trkpt>
      <trkpt lat="48.10972" lon="7.09762">
        <ele>1025</ele>
        <time>2025-09-08T07:24:45Z</time>
      </trkpt>
      <trkpt lat="48.10973" lon="7.09755">
        <ele>1025</ele>
        <time>2025-09-08T07:24:46Z</time>
      </trkpt>
      <trkpt lat="48.10974" lon="7.09748">
        <ele>1025</ele>
        <time>2025-09-08T07:24:47Z</time>
      </trkpt>
      <trkpt lat="48.10975" lon="7.09741">
        <ele>1025</ele>
        <time>2025-09-08T07:24:48Z</time>
      </trkpt>
      <trkpt lat="48.10975" lon="7.09734">
        <ele>1024.8</ele>
        <time>2025-09-08T07:24:49Z</time>
      </trkpt>
      <trkpt lat="48.10976" lon="7.09727">
        <ele>1024.8</ele>
        <time>2025-09-08T07:24:50Z</time>
      </trkpt>
      <trkpt lat="48.10975" lon="7.09719">
        <ele>1024.6</ele>
        <time>2025-09-08T07:24:51Z</time>
      </trkpt>
      <trkpt lat="48.10976" lon="7.09713">
        <ele>1024.6</ele>
        <time>2025-09-08T07:24:52Z</time>
      </trkpt>
      <trkpt lat="48.10976" lon="7.09705">
        <ele>1024.4</ele>
        <time>2025-09-08T07:24:53Z</time>
      </trkpt>
      <trkpt lat="48.10976" lon="7.09698">
        <ele>1024.2</ele>
        <time>2025-09-08T07:24:54Z</time>
      </trkpt>
      <trkpt lat="48.10976" lon="7.0969">
        <ele>1024.2</ele>
        <time>2025-09-08T07:24:55Z</time>
      </trkpt>
      <trkpt lat="48.10976" lon="7.09683">
        <ele>1024</ele>
        <time>2025-09-08T07:24:56Z</time>
      </trkpt>
      <trkpt lat="48.10976" lon="7.09675">
        <ele>1024</ele>
        <time>2025-09-08T07:24:57Z</time>
      </trkpt>
      <trkpt lat="48.10976" lon="7.09668">
        <ele>1024</ele>
        <time>2025-09-08T07:24:58Z</time>
      </trkpt>
      <trkpt lat="48.10976" lon="7.09661">
        <ele>1024</ele>
        <time>2025-09-08T07:24:59Z</time>
      </trkpt>
      <trkpt lat="48.10976" lon="7.09655">
        <ele>1024</ele>
        <time>2025-09-08T07:25:00Z</time>
      </trkpt>
      <trkpt lat="48.10976" lon="7.09648">
        <ele>1024</ele>
        <time>2025-09-08T07:25:01Z</time>
      </trkpt>
      <trkpt lat="48.10977" lon="7.09641">
        <ele>1024</ele>
        <time>2025-09-08T07:25:02Z</time>
      </trkpt>
      <trkpt lat="48.10976" lon="7.09634">
        <ele>1024</ele>
        <time>2025-09-08T07:25:03Z</time>
      </trkpt>
      <trkpt lat="48.10977" lon="7.09627">
        <ele>1024.2</ele>
        <time>2025-09-08T07:25:04Z</time>
      </trkpt>
      <trkpt lat="48.10977" lon="7.09621">
        <ele>1024.2</ele>
        <time>2025-09-08T07:25:05Z</time>
      </trkpt>
      <trkpt lat="48.10977" lon="7.09614">
        <ele>1024.4</ele>
        <time>2025-09-08T07:25:06Z</time>
      </trkpt>
      <trkpt lat="48.10976" lon="7.09607">
        <ele>1024.6</ele>
        <time>2025-09-08T07:25:07Z</time>
      </trkpt>
      <trkpt lat="48.10976" lon="7.096">
        <ele>1024.8</ele>
        <time>2025-09-08T07:25:08Z</time>
      </trkpt>
      <trkpt lat="48.10976" lon="7.09593">
        <ele>1024.8</ele>
        <time>2025-09-08T07:25:09Z</time>
      </trkpt>
      <trkpt lat="48.10976" lon="7.09586">
        <ele>1025</ele>
        <time>2025-09-08T07:25:10Z</time>
      </trkpt>
      <trkpt lat="48.10977" lon="7.09579">
        <ele>1025</ele>
        <time>2025-09-08T07:25:11Z</time>
      </trkpt>
      <trkpt lat="48.10978" lon="7.09573">
        <ele>1025.2</ele>
        <time>2025-09-08T07:25:12Z</time>
      </trkpt>
      <trkpt lat="48.1098" lon="7.09567">
        <ele>1025.2</ele>
        <time>2025-09-08T07:25:13Z</time>
      </trkpt>
      <trkpt lat="48.10981" lon="7.09562">
        <ele>1025.6</ele>
        <time>2025-09-08T07:25:14Z</time>
      </trkpt>
      <trkpt lat="48.10983" lon="7.09557">
        <ele>1025.8</ele>
        <time>2025-09-08T07:25:15Z</time>
      </trkpt>
      <trkpt lat="48.10985" lon="7.09552">
        <ele>1026</ele>
        <time>2025-09-08T07:25:16Z</time>
      </trkpt>
      <trkpt lat="48.10987" lon="7.09547">
        <ele>1026.2</ele>
        <time>2025-09-08T07:25:17Z</time>
      </trkpt>
      <trkpt lat="48.10988" lon="7.09542">
        <ele>1026.6</ele>
        <time>2025-09-08T07:25:18Z</time>
      </trkpt>
      <trkpt lat="48.1099" lon="7.09538">
        <ele>1026.8</ele>
        <time>2025-09-08T07:25:19Z</time>
      </trkpt>
      <trkpt lat="48.10991" lon="7.09533">
        <ele>1027.4</ele>
        <time>2025-09-08T07:25:20Z</time>
      </trkpt>
      <trkpt lat="48.10992" lon="7.09529">
        <ele>1027.8</ele>
        <time>2025-09-08T07:25:21Z</time>
      </trkpt>
      <trkpt lat="48.10993" lon="7.09525">
        <ele>1028</ele>
        <time>2025-09-08T07:25:22Z</time>
      </trkpt>
      <trkpt lat="48.10994" lon="7.0952">
        <ele>1028.2</ele>
        <time>2025-09-08T07:25:23Z</time>
      </trkpt>
      <trkpt lat="48.10995" lon="7.09516">
        <ele>1028.8</ele>
        <time>2025-09-08T07:25:24Z</time>
      </trkpt>
      <trkpt lat="48.10997" lon="7.09512">
        <ele>1029.2</ele>
        <time>2025-09-08T07:25:25Z</time>
      </trkpt>
      <trkpt lat="48.10998" lon="7.09509">
        <ele>1029.6</ele>
        <time>2025-09-08T07:25:26Z</time>
      </trkpt>
      <trkpt lat="48.10999" lon="7.09505">
        <ele>1030.2</ele>
        <time>2025-09-08T07:25:27Z</time>
      </trkpt>
      <trkpt lat="48.11" lon="7.09501">
        <ele>1030.4</ele>
        <time>2025-09-08T07:25:28Z</time>
      </trkpt>
      <trkpt lat="48.11001" lon="7.09498">
        <ele>1031</ele>
        <time>2025-09-08T07:25:29Z</time>
      </trkpt>
      <trkpt lat="48.11002" lon="7.09494">
        <ele>1031.2</ele>
        <time>2025-09-08T07:25:30Z</time>
      </trkpt>
      <trkpt lat="48.11003" lon="7.0949">
        <ele>1031.8</ele>
        <time>2025-09-08T07:25:31Z</time>
      </trkpt>
      <trkpt lat="48.11004" lon="7.09486">
        <ele>1032</ele>
        <time>2025-09-08T07:25:32Z</time>
      </trkpt>
      <trkpt lat="48.11005" lon="7.09482">
        <ele>1032.2</ele>
        <time>2025-09-08T07:25:33Z</time>
      </trkpt>
      <trkpt lat="48.11007" lon="7.09478">
        <ele>1032.6</ele>
        <time>2025-09-08T07:25:34Z</time>
      </trkpt>
      <trkpt lat="48.11008" lon="7.09474">
        <ele>1033.2</ele>
        <time>2025-09-08T07:25:35Z</time>
      </trkpt>
      <trkpt lat="48.11009" lon="7.0947">
        <ele>1033.4</ele>
        <time>2025-09-08T07:25:36Z</time>
      </trkpt>
      <trkpt lat="48.1101" lon="7.09466">
        <ele>1033.8</ele>
        <time>2025-09-08T07:25:37Z</time>
      </trkpt>
      <trkpt lat="48.11012" lon="7.09463">
        <ele>1034.2</ele>
        <time>2025-09-08T07:25:38Z</time>
      </trkpt>
      <trkpt lat="48.11014" lon="7.0946">
        <ele>1034.6</ele>
        <time>2025-09-08T07:25:39Z</time>
      </trkpt>
      <trkpt lat="48.11016" lon="7.09456">
        <ele>1034.8</ele>
        <time>2025-09-08T07:25:40Z</time>
      </trkpt>
      <trkpt lat="48.11017" lon="7.09453">
        <ele>1035.4</ele>
        <time>2025-09-08T07:25:41Z</time>
      </trkpt>
      <trkpt lat="48.11019" lon="7.09449">
        <ele>1035.8</ele>
        <time>2025-09-08T07:25:42Z</time>
      </trkpt>
      <trkpt lat="48.11021" lon="7.09445">
        <ele>1036.4</ele>
        <time>2025-09-08T07:25:43Z</time>
      </trkpt>
      <trkpt lat="48.11023" lon="7.09442">
        <ele>1036.8</ele>
        <time>2025-09-08T07:25:44Z</time>
      </trkpt>
      <trkpt lat="48.11025" lon="7.09438">
        <ele>1037.2</ele>
        <time>2025-09-08T07:25:45Z</time>
      </trkpt>
      <trkpt lat="48.11027" lon="7.09434">
        <ele>1037.4</ele>
        <time>2025-09-08T07:25:46Z</time>
      </trkpt>
      <trkpt lat="48.11028" lon="7.09431">
        <ele>1038</ele>
        <time>2025-09-08T07:25:47Z</time>
      </trkpt>
      <trkpt lat="48.1103" lon="7.09427">
        <ele>1038.4</ele>
        <time>2025-09-08T07:25:48Z</time>
      </trkpt>
      <trkpt lat="48.11031" lon="7.09423">
        <ele>1038.8</ele>
        <time>2025-09-08T07:25:49Z</time>
      </trkpt>
      <trkpt lat="48.11032" lon="7.09419">
        <ele>1038.8</ele>
        <time>2025-09-08T07:25:50Z</time>
      </trkpt>
      <trkpt lat="48.11033" lon="7.09415">
        <ele>1039.4</ele>
        <time>2025-09-08T07:25:51Z</time>
      </trkpt>
      <trkpt lat="48.11034" lon="7.09411">
        <ele>1039.8</ele>
        <time>2025-09-08T07:25:52Z</time>
      </trkpt>
      <trkpt lat="48.11035" lon="7.09407">
        <ele>1040</ele>
        <time>2025-09-08T07:25:53Z</time>
      </trkpt>
      <trkpt lat="48.11035" lon="7.09403">
        <ele>1040.2</ele>
        <time>2025-09-08T07:25:54Z</time>
      </trkpt>
      <trkpt lat="48.11035" lon="7.09398">
        <ele>1040.4</ele>
        <time>2025-09-08T07:25:55Z</time>
      </trkpt>
      <trkpt lat="48.11036" lon="7.09394">
        <ele>1041</ele>
        <time>2025-09-08T07:25:56Z</time>
      </trkpt>
      <trkpt lat="48.11036" lon="7.09389">
        <ele>1041.2</ele>
        <time>2025-09-08T07:25:57Z</time>
      </trkpt>
      <trkpt lat="48.11036" lon="7.09384">
        <ele>1041.4</ele>
        <time>2025-09-08T07:25:58Z</time>
      </trkpt>
      <trkpt lat="48.11036" lon="7.0938">
        <ele>1041.6</ele>
        <time>2025-09-08T07:25:59Z</time>
      </trkpt>
      <trkpt lat="48.11037" lon="7.09375">
        <ele>1042</ele>
        <time>2025-09-08T07:26:00Z</time>
      </trkpt>
      <trkpt lat="48.11036" lon="7.0937">
        <ele>1042.6</ele>
        <time>2025-09-08T07:26:01Z</time>
      </trkpt>
      <trkpt lat="48.11036" lon="7.09366">
        <ele>1042.8</ele>
        <time>2025-09-08T07:26:02Z</time>
      </trkpt>
      <trkpt lat="48.11036" lon="7.09361">
        <ele>1043.2</ele>
        <time>2025-09-08T07:26:03Z</time>
      </trkpt>
      <trkpt lat="48.11036" lon="7.09357">
        <ele>1043.4</ele>
        <time>2025-09-08T07:26:04Z</time>
      </trkpt>
      <trkpt lat="48.11036" lon="7.09352">
        <ele>1043.6</ele>
        <time>2025-09-08T07:26:05Z</time>
      </trkpt>
      <trkpt lat="48.11036" lon="7.09347">
        <ele>1043.8</ele>
        <time>2025-09-08T07:26:06Z</time>
      </trkpt>
      <trkpt lat="48.11036" lon="7.09342">
        <ele>1044.2</ele>
        <time>2025-09-08T07:26:07Z</time>
      </trkpt>
      <trkpt lat="48.11036" lon="7.09337">
        <ele>1044.4</ele>
        <time>2025-09-08T07:26:08Z</time>
      </trkpt>
      <trkpt lat="48.11037" lon="7.09332">
        <ele>1044.4</ele>
        <time>2025-09-08T07:26:09Z</time>
      </trkpt>
      <trkpt lat="48.11037" lon="7.09328">
        <ele>1044.4</ele>
        <time>2025-09-08T07:26:10Z</time>
      </trkpt>
      <trkpt lat="48.11038" lon="7.09323">
        <ele>1044.8</ele>
        <time>2025-09-08T07:26:11Z</time>
      </trkpt>
      <trkpt lat="48.11038" lon="7.09317">
        <ele>1044.8</ele>
        <time>2025-09-08T07:26:12Z</time>
      </trkpt>
      <trkpt lat="48.11039" lon="7.09312">
        <ele>1045</ele>
        <time>2025-09-08T07:26:13Z</time>
      </trkpt>
      <trkpt lat="48.11039" lon="7.09307">
        <ele>1045.2</ele>
        <time>2025-09-08T07:26:14Z</time>
      </trkpt>
      <trkpt lat="48.1104" lon="7.09302">
        <ele>1045.2</ele>
        <time>2025-09-08T07:26:15Z</time>
      </trkpt>
      <trkpt lat="48.1104" lon="7.09297">
        <ele>1045.2</ele>
        <time>2025-09-08T07:26:16Z</time>
      </trkpt>
      <trkpt lat="48.11041" lon="7.09291">
        <ele>1045.4</ele>
        <time>2025-09-08T07:26:17Z</time>
      </trkpt>
      <trkpt lat="48.11042" lon="7.09285">
        <ele>1045.6</ele>
        <time>2025-09-08T07:26:18Z</time>
      </trkpt>
      <trkpt lat="48.11043" lon="7.09279">
        <ele>1045.8</ele>
        <time>2025-09-08T07:26:19Z</time>
      </trkpt>
      <trkpt lat="48.11043" lon="7.09273">
        <ele>1046</ele>
        <time>2025-09-08T07:26:20Z</time>
      </trkpt>
      <trkpt lat="48.11044" lon="7.09266">
        <ele>1046.2</ele>
        <time>2025-09-08T07:26:21Z</time>
      </trkpt>
      <trkpt lat="48.11045" lon="7.0926">
        <ele>1046.2</ele>
        <time>2025-09-08T07:26:22Z</time>
      </trkpt>
      <trkpt lat="48.11045" lon="7.09254">
        <ele>1046.4</ele>
        <time>2025-09-08T07:26:23Z</time>
      </trkpt>
      <trkpt lat="48.11045" lon="7.09249">
        <ele>1046.4</ele>
        <time>2025-09-08T07:26:24Z</time>
      </trkpt>
      <trkpt lat="48.11046" lon="7.09243">
        <ele>1046.4</ele>
        <time>2025-09-08T07:26:25Z</time>
      </trkpt>
      <trkpt lat="48.11047" lon="7.09237">
        <ele>1046.4</ele>
        <time>2025-09-08T07:26:26Z</time>
      </trkpt>
      <trkpt lat="48.11048" lon="7.0923">
        <ele>1046.4</ele>
        <time>2025-09-08T07:26:27Z</time>
      </trkpt>
      <trkpt lat="48.11049" lon="7.09223">
        <ele>1046.4</ele>
        <time>2025-09-08T07:26:28Z</time>
      </trkpt>
      <trkpt lat="48.1105" lon="7.09217">
        <ele>1046.4</ele>
        <time>2025-09-08T07:26:29Z</time>
      </trkpt>
      <trkpt lat="48.11052" lon="7.0921">
        <ele>1046.4</ele>
        <time>2025-09-08T07:26:30Z</time>
      </trkpt>
      <trkpt lat="48.11054" lon="7.09204">
        <ele>1046.4</ele>
        <time>2025-09-08T07:26:31Z</time>
      </trkpt>
      <trkpt lat="48.11055" lon="7.09199">
        <ele>1046.4</ele>
        <time>2025-09-08T07:26:32Z</time>
      </trkpt>
      <trkpt lat="48.11056" lon="7.09193">
        <ele>1046.2</ele>
        <time>2025-09-08T07:26:33Z</time>
      </trkpt>
      <trkpt lat="48.11057" lon="7.09187">
        <ele>1046.2</ele>
        <time>2025-09-08T07:26:34Z</time>
      </trkpt>
      <trkpt lat="48.11057" lon="7.09181">
        <ele>1046.4</ele>
        <time>2025-09-08T07:26:35Z</time>
      </trkpt>
      <trkpt lat="48.11057" lon="7.09176">
        <ele>1046.4</ele>
        <time>2025-09-08T07:26:36Z</time>
      </trkpt>
      <trkpt lat="48.11056" lon="7.09171">
        <ele>1046.6</ele>
        <time>2025-09-08T07:26:37Z</time>
      </trkpt>
      <trkpt lat="48.11056" lon="7.09166">
        <ele>1046.6</ele>
        <time>2025-09-08T07:26:38Z</time>
      </trkpt>
      <trkpt lat="48.11055" lon="7.09161">
        <ele>1046.8</ele>
        <time>2025-09-08T07:26:39Z</time>
      </trkpt>
      <trkpt lat="48.11053" lon="7.09157">
        <ele>1047.2</ele>
        <time>2025-09-08T07:26:40Z</time>
      </trkpt>
      <trkpt lat="48.11051" lon="7.09155">
        <ele>1047.6</ele>
        <time>2025-09-08T07:26:41Z</time>
      </trkpt>
      <trkpt lat="48.11049" lon="7.09153">
        <ele>1048</ele>
        <time>2025-09-08T07:26:42Z</time>
      </trkpt>
      <trkpt lat="48.11046" lon="7.09153">
        <ele>1048.2</ele>
        <time>2025-09-08T07:26:43Z</time>
      </trkpt>
      <trkpt lat="48.11043" lon="7.09153">
        <ele>1048.6</ele>
        <time>2025-09-08T07:26:44Z</time>
      </trkpt>
      <trkpt lat="48.1104" lon="7.09155">
        <ele>1049.2</ele>
        <time>2025-09-08T07:26:45Z</time>
      </trkpt>
      <trkpt lat="48.11038" lon="7.09157">
        <ele>1049.6</ele>
        <time>2025-09-08T07:26:46Z</time>
      </trkpt>
      <trkpt lat="48.11036" lon="7.09159">
        <ele>1050</ele>
        <time>2025-09-08T07:26:47Z</time>
      </trkpt>
      <trkpt lat="48.11034" lon="7.09163">
        <ele>1050.2</ele>
        <time>2025-09-08T07:26:48Z</time>
      </trkpt>
      <trkpt lat="48.11033" lon="7.09167">
        <ele>1050.6</ele>
        <time>2025-09-08T07:26:49Z</time>
      </trkpt>
      <trkpt lat="48.11032" lon="7.09171">
        <ele>1051</ele>
        <time>2025-09-08T07:26:50Z</time>
      </trkpt>
      <trkpt lat="48.11032" lon="7.09176">
        <ele>1051.4</ele>
        <time>2025-09-08T07:26:51Z</time>
      </trkpt>
      <trkpt lat="48.11031" lon="7.0918">
        <ele>1052</ele>
        <time>2025-09-08T07:26:52Z</time>
      </trkpt>
      <trkpt lat="48.11031" lon="7.09184">
        <ele>1052.2</ele>
        <time>2025-09-08T07:26:53Z</time>
      </trkpt>
      <trkpt lat="48.11031" lon="7.09189">
        <ele>1052.6</ele>
        <time>2025-09-08T07:26:54Z</time>
      </trkpt>
      <trkpt lat="48.11031" lon="7.09194">
        <ele>1052.8</ele>
        <time>2025-09-08T07:26:55Z</time>
      </trkpt>
      <trkpt lat="48.1103" lon="7.09199">
        <ele>1053.4</ele>
        <time>2025-09-08T07:26:56Z</time>
      </trkpt>
      <trkpt lat="48.1103" lon="7.09204">
        <ele>1053.6</ele>
        <time>2025-09-08T07:26:57Z</time>
      </trkpt>
      <trkpt lat="48.1103" lon="7.0921">
        <ele>1054</ele>
        <time>2025-09-08T07:26:58Z</time>
      </trkpt>
      <trkpt lat="48.1103" lon="7.09215">
        <ele>1054.2</ele>
        <time>2025-09-08T07:26:59Z</time>
      </trkpt>
      <trkpt lat="48.11029" lon="7.0922">
        <ele>1054.4</ele>
        <time>2025-09-08T07:27:00Z</time>
      </trkpt>
      <trkpt lat="48.11029" lon="7.09225">
        <ele>1054.6</ele>
        <time>2025-09-08T07:27:01Z</time>
      </trkpt>
      <trkpt lat="48.11029" lon="7.09229">
        <ele>1055</ele>
        <time>2025-09-08T07:27:02Z</time>
      </trkpt>
      <trkpt lat="48.11028" lon="7.09233">
        <ele>1055.6</ele>
        <time>2025-09-08T07:27:03Z</time>
      </trkpt>
      <trkpt lat="48.11027" lon="7.09238">
        <ele>1055.8</ele>
        <time>2025-09-08T07:27:04Z</time>
      </trkpt>
      <trkpt lat="48.11026" lon="7.09242">
        <ele>1056.2</ele>
        <time>2025-09-08T07:27:05Z</time>
      </trkpt>
      <trkpt lat="48.11025" lon="7.09247">
        <ele>1056.4</ele>
        <time>2025-09-08T07:27:06Z</time>
      </trkpt>
      <trkpt lat="48.11024" lon="7.09251">
        <ele>1056.8</ele>
        <time>2025-09-08T07:27:07Z</time>
      </trkpt>
      <trkpt lat="48.11024" lon="7.09256">
        <ele>1057</ele>
        <time>2025-09-08T07:27:08Z</time>
      </trkpt>
      <trkpt lat="48.11023" lon="7.09261">
        <ele>1057.2</ele>
        <time>2025-09-08T07:27:09Z</time>
      </trkpt>
      <trkpt lat="48.11023" lon="7.09266">
        <ele>1057.8</ele>
        <time>2025-09-08T07:27:10Z</time>
      </trkpt>
      <trkpt lat="48.11022" lon="7.0927">
        <ele>1058.2</ele>
        <time>2025-09-08T07:27:11Z</time>
      </trkpt>
      <trkpt lat="48.11021" lon="7.09276">
        <ele>1058.6</ele>
        <time>2025-09-08T07:27:12Z</time>
      </trkpt>
      <trkpt lat="48.11021" lon="7.09281">
        <ele>1059</ele>
        <time>2025-09-08T07:27:13Z</time>
      </trkpt>
      <trkpt lat="48.1102" lon="7.09286">
        <ele>1059.4</ele>
        <time>2025-09-08T07:27:14Z</time>
      </trkpt>
      <trkpt lat="48.11019" lon="7.0929">
        <ele>1059.6</ele>
        <time>2025-09-08T07:27:15Z</time>
      </trkpt>
      <trkpt lat="48.11019" lon="7.09295">
        <ele>1060.2</ele>
        <time>2025-09-08T07:27:16Z</time>
      </trkpt>
      <trkpt lat="48.11018" lon="7.093">
        <ele>1060.8</ele>
        <time>2025-09-08T07:27:17Z</time>
      </trkpt>
      <trkpt lat="48.11017" lon="7.09304">
        <ele>1061</ele>
        <time>2025-09-08T07:27:18Z</time>
      </trkpt>
      <trkpt lat="48.11016" lon="7.09309">
        <ele>1061.4</ele>
        <time>2025-09-08T07:27:19Z</time>
      </trkpt>
      <trkpt lat="48.11015" lon="7.09313">
        <ele>1061.6</ele>
        <time>2025-09-08T07:27:20Z</time>
      </trkpt>
      <trkpt lat="48.11014" lon="7.09318">
        <ele>1062</ele>
        <time>2025-09-08T07:27:21Z</time>
      </trkpt>
      <trkpt lat="48.11012" lon="7.09322">
        <ele>1062.4</ele>
        <time>2025-09-08T07:27:22Z</time>
      </trkpt>
      <trkpt lat="48.11012" lon="7.09326">
        <ele>1063</ele>
        <time>2025-09-08T07:27:23Z</time>
      </trkpt>
      <trkpt lat="48.1101" lon="7.0933">
        <ele>1063.6</ele>
        <time>2025-09-08T07:27:24Z</time>
      </trkpt>
      <trkpt lat="48.11009" lon="7.09335">
        <ele>1063.8</ele>
        <time>2025-09-08T07:27:25Z</time>
      </trkpt>
      <trkpt lat="48.11007" lon="7.09339">
        <ele>1064.4</ele>
        <time>2025-09-08T07:27:26Z</time>
      </trkpt>
      <trkpt lat="48.11006" lon="7.09342">
        <ele>1064.6</ele>
        <time>2025-09-08T07:27:27Z</time>
      </trkpt>
      <trkpt lat="48.11005" lon="7.09347">
        <ele>1065</ele>
        <time>2025-09-08T07:27:28Z</time>
      </trkpt>
      <trkpt lat="48.11003" lon="7.09351">
        <ele>1065.4</ele>
        <time>2025-09-08T07:27:29Z</time>
      </trkpt>
      <trkpt lat="48.11002" lon="7.09355">
        <ele>1065.8</ele>
        <time>2025-09-08T07:27:30Z</time>
      </trkpt>
      <trkpt lat="48.11001" lon="7.09359">
        <ele>1066.4</ele>
        <time>2025-09-08T07:27:31Z</time>
      </trkpt>
      <trkpt lat="48.11" lon="7.09362">
        <ele>1066.8</ele>
        <time>2025-09-08T07:27:32Z</time>
      </trkpt>
      <trkpt lat="48.10998" lon="7.09366">
        <ele>1067.4</ele>
        <time>2025-09-08T07:27:33Z</time>
      </trkpt>
      <trkpt lat="48.10997" lon="7.0937">
        <ele>1067.8</ele>
        <time>2025-09-08T07:27:34Z</time>
      </trkpt>
      <trkpt lat="48.10995" lon="7.09375">
        <ele>1068</ele>
        <time>2025-09-08T07:27:35Z</time>
      </trkpt>
      <trkpt lat="48.10994" lon="7.09379">
        <ele>1068.6</ele>
        <time>2025-09-08T07:27:36Z</time>
      </trkpt>
      <trkpt lat="48.10993" lon="7.09383">
        <ele>1069</ele>
        <time>2025-09-08T07:27:37Z</time>
      </trkpt>
      <trkpt lat="48.10991" lon="7.09387">
        <ele>1069.4</ele>
        <time>2025-09-08T07:27:38Z</time>
      </trkpt>
      <trkpt lat="48.1099" lon="7.0939">
        <ele>1070</ele>
        <time>2025-09-08T07:27:39Z</time>
      </trkpt>
      <trkpt lat="48.10988" lon="7.09394">
        <ele>1070</ele>
        <time>2025-09-08T07:27:40Z</time>
      </trkpt>
      <trkpt lat="48.10987" lon="7.09398">
        <ele>1070.6</ele>
        <time>2025-09-08T07:27:41Z</time>
      </trkpt>
      <trkpt lat="48.10985" lon="7.09401">
        <ele>1070.8</ele>
        <time>2025-09-08T07:27:42Z</time>
      </trkpt>
      <trkpt lat="48.10983" lon="7.09405">
        <ele>1071.2</ele>
        <time>2025-09-08T07:27:43Z</time>
      </trkpt>
      <trkpt lat="48.10981" lon="7.09408">
        <ele>1071.4</ele>
        <time>2025-09-08T07:27:44Z</time>
      </trkpt>
      <trkpt lat="48.10979" lon="7.09411">
        <ele>1072</ele>
        <time>2025-09-08T07:27:45Z</time>
      </trkpt>
      <trkpt lat="48.10976" lon="7.09413">
        <ele>1072.2</ele>
        <time>2025-09-08T07:27:46Z</time>
      </trkpt>
      <trkpt lat="48.10974" lon="7.09417">
        <ele>1072.6</ele>
        <time>2025-09-08T07:27:47Z</time>
      </trkpt>
      <trkpt lat="48.10972" lon="7.0942">
        <ele>1073</ele>
        <time>2025-09-08T07:27:48Z</time>
      </trkpt>
      <trkpt lat="48.10969" lon="7.09423">
        <ele>1073.4</ele>
        <time>2025-09-08T07:27:49Z</time>
      </trkpt>
      <trkpt lat="48.10967" lon="7.09426">
        <ele>1073.6</ele>
        <time>2025-09-08T07:27:50Z</time>
      </trkpt>
      <trkpt lat="48.10965" lon="7.09428">
        <ele>1074</ele>
        <time>2025-09-08T07:27:51Z</time>
      </trkpt>
      <trkpt lat="48.10962" lon="7.09431">
        <ele>1074.2</ele>
        <time>2025-09-08T07:27:52Z</time>
      </trkpt>
      <trkpt lat="48.1096" lon="7.09433">
        <ele>1074.6</ele>
        <time>2025-09-08T07:27:53Z</time>
      </trkpt>
      <trkpt lat="48.10957" lon="7.09436">
        <ele>1075</ele>
        <time>2025-09-08T07:27:54Z</time>
      </trkpt>
      <trkpt lat="48.10955" lon="7.09438">
        <ele>1075.2</ele>
        <time>2025-09-08T07:27:55Z</time>
      </trkpt>
      <trkpt lat="48.10953" lon="7.09441">
        <ele>1075.6</ele>
        <time>2025-09-08T07:27:56Z</time>
      </trkpt>
      <trkpt lat="48.10951" lon="7.09443">
        <ele>1076.2</ele>
        <time>2025-09-08T07:27:57Z</time>
      </trkpt>
      <trkpt lat="48.10949" lon="7.09446">
        <ele>1076.4</ele>
        <time>2025-09-08T07:27:58Z</time>
      </trkpt>
      <trkpt lat="48.10946" lon="7.09448">
        <ele>1076.6</ele>
        <time>2025-09-08T07:27:59Z</time>
      </trkpt>
      <trkpt lat="48.10943" lon="7.09449">
        <ele>1077</ele>
        <time>2025-09-08T07:28:00Z</time>
      </trkpt>
      <trkpt lat="48.1094" lon="7.09452">
        <ele>1077.4</ele>
        <time>2025-09-08T07:28:01Z</time>
      </trkpt>
      <trkpt lat="48.10938" lon="7.09453">
        <ele>1077.8</ele>
        <time>2025-09-08T07:28:02Z</time>
      </trkpt>
      <trkpt lat="48.10935" lon="7.09455">
        <ele>1078.2</ele>
        <time>2025-09-08T07:28:03Z</time>
      </trkpt>
      <trkpt lat="48.10932" lon="7.09458">
        <ele>1078.6</ele>
        <time>2025-09-08T07:28:04Z</time>
      </trkpt>
      <trkpt lat="48.1093" lon="7.0946">
        <ele>1078.8</ele>
        <time>2025-09-08T07:28:05Z</time>
      </trkpt>
      <trkpt lat="48.10927" lon="7.09462">
        <ele>1079.4</ele>
        <time>2025-09-08T07:28:06Z</time>
      </trkpt>
      <trkpt lat="48.10924" lon="7.09465">
        <ele>1079.8</ele>
        <time>2025-09-08T07:28:07Z</time>
      </trkpt>
      <trkpt lat="48.10922" lon="7.09467">
        <ele>1080</ele>
        <time>2025-09-08T07:28:08Z</time>
      </trkpt>
      <trkpt lat="48.10919" lon="7.0947">
        <ele>1080.4</ele>
        <time>2025-09-08T07:28:09Z</time>
      </trkpt>
      <trkpt lat="48.10917" lon="7.09472">
        <ele>1080.8</ele>
        <time>2025-09-08T07:28:10Z</time>
      </trkpt>
      <trkpt lat="48.10915" lon="7.09474">
        <ele>1081.2</ele>
        <time>2025-09-08T07:28:11Z</time>
      </trkpt>
      <trkpt lat="48.10913" lon="7.09476">
        <ele>1081.6</ele>
        <time>2025-09-08T07:28:12Z</time>
      </trkpt>
      <trkpt lat="48.10911" lon="7.09479">
        <ele>1081.8</ele>
        <time>2025-09-08T07:28:13Z</time>
      </trkpt>
      <trkpt lat="48.10908" lon="7.09481">
        <ele>1082.2</ele>
        <time>2025-09-08T07:28:14Z</time>
      </trkpt>
      <trkpt lat="48.10905" lon="7.09484">
        <ele>1082.6</ele>
        <time>2025-09-08T07:28:15Z</time>
      </trkpt>
      <trkpt lat="48.10903" lon="7.09486">
        <ele>1082.8</ele>
        <time>2025-09-08T07:28:16Z</time>
      </trkpt>
      <trkpt lat="48.109" lon="7.09488">
        <ele>1083.2</ele>
        <time>2025-09-08T07:28:17Z</time>
      </trkpt>
      <trkpt lat="48.10897" lon="7.0949">
        <ele>1083.8</ele>
        <time>2025-09-08T07:28:18Z</time>
      </trkpt>
      <trkpt lat="48.10894" lon="7.09492">
        <ele>1084</ele>
        <time>2025-09-08T07:28:19Z</time>
      </trkpt>
      <trkpt lat="48.10892" lon="7.09494">
        <ele>1084.4</ele>
        <time>2025-09-08T07:28:20Z</time>
      </trkpt>
      <trkpt lat="48.10889" lon="7.09496">
        <ele>1084.8</ele>
        <time>2025-09-08T07:28:21Z</time>
      </trkpt>
      <trkpt lat="48.10886" lon="7.09498">
        <ele>1085</ele>
        <time>2025-09-08T07:28:22Z</time>
      </trkpt>
      <trkpt lat="48.10883" lon="7.09499">
        <ele>1085.2</ele>
        <time>2025-09-08T07:28:23Z</time>
      </trkpt>
      <trkpt lat="48.1088" lon="7.09501">
        <ele>1085.6</ele>
        <time>2025-09-08T07:28:24Z</time>
      </trkpt>
      <trkpt lat="48.10877" lon="7.09503">
        <ele>1086.2</ele>
        <time>2025-09-08T07:28:25Z</time>
      </trkpt>
      <trkpt lat="48.10874" lon="7.09503">
        <ele>1086.4</ele>
        <time>2025-09-08T07:28:26Z</time>
      </trkpt>
      <trkpt lat="48.1087" lon="7.09504">
        <ele>1086.6</ele>
        <time>2025-09-08T07:28:27Z</time>
      </trkpt>
      <trkpt lat="48.10867" lon="7.09505">
        <ele>1086.8</ele>
        <time>2025-09-08T07:28:28Z</time>
      </trkpt>
      <trkpt lat="48.10863" lon="7.09505">
        <ele>1087</ele>
        <time>2025-09-08T07:28:29Z</time>
      </trkpt>
      <trkpt lat="48.1086" lon="7.09505">
        <ele>1087.4</ele>
        <time>2025-09-08T07:28:30Z</time>
      </trkpt>
      <trkpt lat="48.10857" lon="7.09504">
        <ele>1087.4</ele>
        <time>2025-09-08T07:28:31Z</time>
      </trkpt>
      <trkpt lat="48.10854" lon="7.09504">
        <ele>1087.4</ele>
        <time>2025-09-08T07:28:32Z</time>
      </trkpt>
      <trkpt lat="48.10851" lon="7.09503">
        <ele>1088</ele>
        <time>2025-09-08T07:28:33Z</time>
      </trkpt>
      <trkpt lat="48.10848" lon="7.09502">
        <ele>1088.4</ele>
        <time>2025-09-08T07:28:34Z</time>
      </trkpt>
      <trkpt lat="48.10845" lon="7.09502">
        <ele>1088.4</ele>
        <time>2025-09-08T07:28:35Z</time>
      </trkpt>
      <trkpt lat="48.10842" lon="7.095">
        <ele>1088.8</ele>
        <time>2025-09-08T07:28:36Z</time>
      </trkpt>
      <trkpt lat="48.10839" lon="7.095">
        <ele>1089</ele>
        <time>2025-09-08T07:28:37Z</time>
      </trkpt>
      <trkpt lat="48.10836" lon="7.09499">
        <ele>1089.2</ele>
        <time>2025-09-08T07:28:38Z</time>
      </trkpt>
      <trkpt lat="48.10833" lon="7.09498">
        <ele>1089.6</ele>
        <time>2025-09-08T07:28:39Z</time>
      </trkpt>
      <trkpt lat="48.1083" lon="7.09496">
        <ele>1089.6</ele>
        <time>2025-09-08T07:28:40Z</time>
      </trkpt>
      <trkpt lat="48.10827" lon="7.09496">
        <ele>1089.8</ele>
        <time>2025-09-08T07:28:41Z</time>
      </trkpt>
      <trkpt lat="48.10824" lon="7.09495">
        <ele>1090.2</ele>
        <time>2025-09-08T07:28:42Z</time>
      </trkpt>
      <trkpt lat="48.10821" lon="7.09494">
        <ele>1090.4</ele>
        <time>2025-09-08T07:28:43Z</time>
      </trkpt>
      <trkpt lat="48.10818" lon="7.09493">
        <ele>1090.6</ele>
        <time>2025-09-08T07:28:44Z</time>
      </trkpt>
      <trkpt lat="48.10815" lon="7.09492">
        <ele>1090.8</ele>
        <time>2025-09-08T07:28:45Z</time>
      </trkpt>
      <trkpt lat="48.10812" lon="7.09491">
        <ele>1091</ele>
        <time>2025-09-08T07:28:46Z</time>
      </trkpt>
      <trkpt lat="48.10809" lon="7.0949">
        <ele>1091.4</ele>
        <time>2025-09-08T07:28:47Z</time>
      </trkpt>
      <trkpt lat="48.10806" lon="7.0949">
        <ele>1091.6</ele>
        <time>2025-09-08T07:28:48Z</time>
      </trkpt>
      <trkpt lat="48.10804" lon="7.09489">
        <ele>1092</ele>
        <time>2025-09-08T07:28:49Z</time>
      </trkpt>
      <trkpt lat="48.10801" lon="7.09488">
        <ele>1092.2</ele>
        <time>2025-09-08T07:28:50Z</time>
      </trkpt>
      <trkpt lat="48.10798" lon="7.09487">
        <ele>1092.6</ele>
        <time>2025-09-08T07:28:51Z</time>
      </trkpt>
      <trkpt lat="48.10795" lon="7.09487">
        <ele>1093</ele>
        <time>2025-09-08T07:28:52Z</time>
      </trkpt>
      <trkpt lat="48.10792" lon="7.09486">
        <ele>1093.2</ele>
        <time>2025-09-08T07:28:53Z</time>
      </trkpt>
      <trkpt lat="48.10789" lon="7.09486">
        <ele>1093.4</ele>
        <time>2025-09-08T07:28:54Z</time>
      </trkpt>
      <trkpt lat="48.10786" lon="7.09486">
        <ele>1093.8</ele>
        <time>2025-09-08T07:28:55Z</time>
      </trkpt>
      <trkpt lat="48.10783" lon="7.09485">
        <ele>1094.2</ele>
        <time>2025-09-08T07:28:56Z</time>
      </trkpt>
      <trkpt lat="48.1078" lon="7.09484">
        <ele>1094.4</ele>
        <time>2025-09-08T07:28:57Z</time>
      </trkpt>
      <trkpt lat="48.10777" lon="7.09483">
        <ele>1094.8</ele>
        <time>2025-09-08T07:28:58Z</time>
      </trkpt>
      <trkpt lat="48.10774" lon="7.09482">
        <ele>1095.2</ele>
        <time>2025-09-08T07:28:59Z</time>
      </trkpt>
      <trkpt lat="48.10771" lon="7.09481">
        <ele>1095.4</ele>
        <time>2025-09-08T07:29:00Z</time>
      </trkpt>
      <trkpt lat="48.10767" lon="7.09481">
        <ele>1096</ele>
        <time>2025-09-08T07:29:01Z</time>
      </trkpt>
      <trkpt lat="48.10764" lon="7.0948">
        <ele>1096.2</ele>
        <time>2025-09-08T07:29:02Z</time>
      </trkpt>
      <trkpt lat="48.10762" lon="7.09479">
        <ele>1096.6</ele>
        <time>2025-09-08T07:29:03Z</time>
      </trkpt>
      <trkpt lat="48.10759" lon="7.09478">
        <ele>1096.8</ele>
        <time>2025-09-08T07:29:04Z</time>
      </trkpt>
      <trkpt lat="48.10756" lon="7.09477">
        <ele>1097.2</ele>
        <time>2025-09-08T07:29:05Z</time>
      </trkpt>
      <trkpt lat="48.10753" lon="7.09476">
        <ele>1097.8</ele>
        <time>2025-09-08T07:29:06Z</time>
      </trkpt>
      <trkpt lat="48.10751" lon="7.09474">
        <ele>1098</ele>
        <time>2025-09-08T07:29:07Z</time>
      </trkpt>
      <trkpt lat="48.10748" lon="7.09473">
        <ele>1098.2</ele>
        <time>2025-09-08T07:29:08Z</time>
      </trkpt>
      <trkpt lat="48.10745" lon="7.09472">
        <ele>1098.6</ele>
        <time>2025-09-08T07:29:09Z</time>
      </trkpt>
      <trkpt lat="48.10742" lon="7.09471">
        <ele>1099.2</ele>
        <time>2025-09-08T07:29:10Z</time>
      </trkpt>
      <trkpt lat="48.10739" lon="7.0947">
        <ele>1099.8</ele>
        <time>2025-09-08T07:29:11Z</time>
      </trkpt>
      <trkpt lat="48.10737" lon="7.09469">
        <ele>1100</ele>
        <time>2025-09-08T07:29:12Z</time>
      </trkpt>
      <trkpt lat="48.10734" lon="7.09468">
        <ele>1100.4</ele>
        <time>2025-09-08T07:29:13Z</time>
      </trkpt>
      <trkpt lat="48.10731" lon="7.09467">
        <ele>1100.6</ele>
        <time>2025-09-08T07:29:14Z</time>
      </trkpt>
      <trkpt lat="48.10728" lon="7.09466">
        <ele>1101</ele>
        <time>2025-09-08T07:29:15Z</time>
      </trkpt>
      <trkpt lat="48.10725" lon="7.09464">
        <ele>1101.4</ele>
        <time>2025-09-08T07:29:16Z</time>
      </trkpt>
      <trkpt lat="48.10722" lon="7.09464">
        <ele>1101.8</ele>
        <time>2025-09-08T07:29:17Z</time>
      </trkpt>
      <trkpt lat="48.10719" lon="7.09462">
        <ele>1102.2</ele>
        <time>2025-09-08T07:29:18Z</time>
      </trkpt>
      <trkpt lat="48.10716" lon="7.09461">
        <ele>1102.4</ele>
        <time>2025-09-08T07:29:19Z</time>
      </trkpt>
      <trkpt lat="48.10714" lon="7.0946">
        <ele>1102.8</ele>
        <time>2025-09-08T07:29:20Z</time>
      </trkpt>
      <trkpt lat="48.10711" lon="7.09459">
        <ele>1103.2</ele>
        <time>2025-09-08T07:29:21Z</time>
      </trkpt>
      <trkpt lat="48.10708" lon="7.09458">
        <ele>1103.6</ele>
        <time>2025-09-08T07:29:22Z</time>
      </trkpt>
      <trkpt lat="48.10705" lon="7.09457">
        <ele>1104</ele>
        <time>2025-09-08T07:29:23Z</time>
      </trkpt>
      <trkpt lat="48.10703" lon="7.09456">
        <ele>1104.2</ele>
        <time>2025-09-08T07:29:24Z</time>
      </trkpt>
      <trkpt lat="48.107" lon="7.09454">
        <ele>1104.6</ele>
        <time>2025-09-08T07:29:25Z</time>
      </trkpt>
      <trkpt lat="48.10697" lon="7.09453">
        <ele>1104.8</ele>
        <time>2025-09-08T07:29:26Z</time>
      </trkpt>
      <trkpt lat="48.10694" lon="7.09452">
        <ele>1105</ele>
        <time>2025-09-08T07:29:27Z</time>
      </trkpt>
      <trkpt lat="48.10691" lon="7.0945">
        <ele>1105.2</ele>
        <time>2025-09-08T07:29:28Z</time>
      </trkpt>
      <trkpt lat="48.10688" lon="7.09449">
        <ele>1105.8</ele>
        <time>2025-09-08T07:29:29Z</time>
      </trkpt>
      <trkpt lat="48.10685" lon="7.09448">
        <ele>1106</ele>
        <time>2025-09-08T07:29:30Z</time>
      </trkpt>
      <trkpt lat="48.10681" lon="7.09447">
        <ele>1106.4</ele>
        <time>2025-09-08T07:29:31Z</time>
      </trkpt>
      <trkpt lat="48.10678" lon="7.09446">
        <ele>1106.6</ele>
        <time>2025-09-08T07:29:32Z</time>
      </trkpt>
      <trkpt lat="48.10675" lon="7.09444">
        <ele>1107</ele>
        <time>2025-09-08T07:29:33Z</time>
      </trkpt>
      <trkpt lat="48.10672" lon="7.09444">
        <ele>1107.2</ele>
        <time>2025-09-08T07:29:34Z</time>
      </trkpt>
      <trkpt lat="48.10669" lon="7.09443">
        <ele>1107.6</ele>
        <time>2025-09-08T07:29:35Z</time>
      </trkpt>
      <trkpt lat="48.10666" lon="7.09442">
        <ele>1107.8</ele>
        <time>2025-09-08T07:29:36Z</time>
      </trkpt>
      <trkpt lat="48.10663" lon="7.09441">
        <ele>1108.2</ele>
        <time>2025-09-08T07:29:37Z</time>
      </trkpt>
      <trkpt lat="48.1066" lon="7.09441">
        <ele>1108.4</ele>
        <time>2025-09-08T07:29:38Z</time>
      </trkpt>
      <trkpt lat="48.10657" lon="7.0944">
        <ele>1108.8</ele>
        <time>2025-09-08T07:29:39Z</time>
      </trkpt>
      <trkpt lat="48.10654" lon="7.0944">
        <ele>1109</ele>
        <time>2025-09-08T07:29:40Z</time>
      </trkpt>
      <trkpt lat="48.10651" lon="7.09439">
        <ele>1109.4</ele>
        <time>2025-09-08T07:29:41Z</time>
      </trkpt>
      <trkpt lat="48.10648" lon="7.09439">
        <ele>1109.6</ele>
        <time>2025-09-08T07:29:42Z</time>
      </trkpt>
      <trkpt lat="48.10646" lon="7.09439">
        <ele>1109.8</ele>
        <time>2025-09-08T07:29:43Z</time>
      </trkpt>
      <trkpt lat="48.10643" lon="7.09438">
        <ele>1110.4</ele>
        <time>2025-09-08T07:29:44Z</time>
      </trkpt>
      <trkpt lat="48.1064" lon="7.09438">
        <ele>1110.6</ele>
        <time>2025-09-08T07:29:45Z</time>
      </trkpt>
      <trkpt lat="48.10637" lon="7.09438">
        <ele>1110.8</ele>
        <time>2025-09-08T07:29:46Z</time>
      </trkpt>
      <trkpt lat="48.10633" lon="7.09438">
        <ele>1111</ele>
        <time>2025-09-08T07:29:47Z</time>
      </trkpt>
      <trkpt lat="48.1063" lon="7.09438">
        <ele>1111.4</ele>
        <time>2025-09-08T07:29:48Z</time>
      </trkpt>
      <trkpt lat="48.10627" lon="7.09438">
        <ele>1111.6</ele>
        <time>2025-09-08T07:29:49Z</time>
      </trkpt>
      <trkpt lat="48.10624" lon="7.09438">
        <ele>1112</ele>
        <time>2025-09-08T07:29:50Z</time>
      </trkpt>
      <trkpt lat="48.10621" lon="7.09438">
        <ele>1112.4</ele>
        <time>2025-09-08T07:29:51Z</time>
      </trkpt>
      <trkpt lat="48.10618" lon="7.09438">
        <ele>1112.6</ele>
        <time>2025-09-08T07:29:52Z</time>
      </trkpt>
      <trkpt lat="48.10615" lon="7.09437">
        <ele>1112.8</ele>
        <time>2025-09-08T07:29:53Z</time>
      </trkpt>
      <trkpt lat="48.10612" lon="7.09436">
        <ele>1113</ele>
        <time>2025-09-08T07:29:54Z</time>
      </trkpt>
      <trkpt lat="48.10609" lon="7.09435">
        <ele>1113.4</ele>
        <time>2025-09-08T07:29:55Z</time>
      </trkpt>
      <trkpt lat="48.10605" lon="7.09435">
        <ele>1113.8</ele>
        <time>2025-09-08T07:29:56Z</time>
      </trkpt>
      <trkpt lat="48.10603" lon="7.09434">
        <ele>1113.8</ele>
        <time>2025-09-08T07:29:57Z</time>
      </trkpt>
      <trkpt lat="48.106" lon="7.09433">
        <ele>1114.2</ele>
        <time>2025-09-08T07:29:58Z</time>
      </trkpt>
      <trkpt lat="48.10597" lon="7.09432">
        <ele>1114.4</ele>
        <time>2025-09-08T07:29:59Z</time>
      </trkpt>
      <trkpt lat="48.10594" lon="7.09431">
        <ele>1114.8</ele>
        <time>2025-09-08T07:30:00Z</time>
      </trkpt>
      <trkpt lat="48.10591" lon="7.0943">
        <ele>1115</ele>
        <time>2025-09-08T07:30:01Z</time>
      </trkpt>
      <trkpt lat="48.10589" lon="7.09429">
        <ele>1115.2</ele>
        <time>2025-09-08T07:30:02Z</time>
      </trkpt>
      <trkpt lat="48.10586" lon="7.09427">
        <ele>1115.6</ele>
        <time>2025-09-08T07:30:03Z</time>
      </trkpt>
      <trkpt lat="48.10583" lon="7.09426">
        <ele>1115.8</ele>
        <time>2025-09-08T07:30:04Z</time>
      </trkpt>
      <trkpt lat="48.1058" lon="7.09425">
        <ele>1116.4</ele>
        <time>2025-09-08T07:30:05Z</time>
      </trkpt>
      <trkpt lat="48.10577" lon="7.09424">
        <ele>1116.6</ele>
        <time>2025-09-08T07:30:06Z</time>
      </trkpt>
      <trkpt lat="48.10575" lon="7.09422">
        <ele>1116.8</ele>
        <time>2025-09-08T07:30:07Z</time>
      </trkpt>
      <trkpt lat="48.10572" lon="7.09421">
        <ele>1117.2</ele>
        <time>2025-09-08T07:30:08Z</time>
      </trkpt>
      <trkpt lat="48.10569" lon="7.09419">
        <ele>1117.4</ele>
        <time>2025-09-08T07:30:09Z</time>
      </trkpt>
      <trkpt lat="48.10565" lon="7.09417">
        <ele>1117.6</ele>
        <time>2025-09-08T07:30:10Z</time>
      </trkpt>
      <trkpt lat="48.10562" lon="7.09415">
        <ele>1117.8</ele>
        <time>2025-09-08T07:30:11Z</time>
      </trkpt>
      <trkpt lat="48.10559" lon="7.09414">
        <ele>1118</ele>
        <time>2025-09-08T07:30:12Z</time>
      </trkpt>
      <trkpt lat="48.10556" lon="7.09412">
        <ele>1118.4</ele>
        <time>2025-09-08T07:30:13Z</time>
      </trkpt>
      <trkpt lat="48.10554" lon="7.09411">
        <ele>1118.8</ele>
        <time>2025-09-08T07:30:14Z</time>
      </trkpt>
      <trkpt lat="48.10551" lon="7.0941">
        <ele>1119</ele>
        <time>2025-09-08T07:30:15Z</time>
      </trkpt>
      <trkpt lat="48.10549" lon="7.09408">
        <ele>1119.4</ele>
        <time>2025-09-08T07:30:16Z</time>
      </trkpt>
      <trkpt lat="48.10545" lon="7.09406">
        <ele>1119.6</ele>
        <time>2025-09-08T07:30:17Z</time>
      </trkpt>
      <trkpt lat="48.10542" lon="7.09405">
        <ele>1119.8</ele>
        <time>2025-09-08T07:30:18Z</time>
      </trkpt>
      <trkpt lat="48.10538" lon="7.09403">
        <ele>1120</ele>
        <time>2025-09-08T07:30:19Z</time>
      </trkpt>
      <trkpt lat="48.10535" lon="7.09401">
        <ele>1120.4</ele>
        <time>2025-09-08T07:30:20Z</time>
      </trkpt>
      <trkpt lat="48.10532" lon="7.094">
        <ele>1120.6</ele>
        <time>2025-09-08T07:30:21Z</time>
      </trkpt>
      <trkpt lat="48.10528" lon="7.09398">
        <ele>1120.8</ele>
        <time>2025-09-08T07:30:22Z</time>
      </trkpt>
      <trkpt lat="48.10525" lon="7.09397">
        <ele>1121.2</ele>
        <time>2025-09-08T07:30:23Z</time>
      </trkpt>
      <trkpt lat="48.10521" lon="7.09395">
        <ele>1121.4</ele>
        <time>2025-09-08T07:30:24Z</time>
      </trkpt>
      <trkpt lat="48.10518" lon="7.09394">
        <ele>1121.6</ele>
        <time>2025-09-08T07:30:25Z</time>
      </trkpt>
      <trkpt lat="48.10515" lon="7.09393">
        <ele>1121.6</ele>
        <time>2025-09-08T07:30:26Z</time>
      </trkpt>
      <trkpt lat="48.10511" lon="7.09392">
        <ele>1121.8</ele>
        <time>2025-09-08T07:30:27Z</time>
      </trkpt>
      <trkpt lat="48.10508" lon="7.0939">
        <ele>1122</ele>
        <time>2025-09-08T07:30:28Z</time>
      </trkpt>
      <trkpt lat="48.10504" lon="7.09389">
        <ele>1122.2</ele>
        <time>2025-09-08T07:30:29Z</time>
      </trkpt>
      <trkpt lat="48.10501" lon="7.09388">
        <ele>1122.2</ele>
        <time>2025-09-08T07:30:30Z</time>
      </trkpt>
      <trkpt lat="48.10497" lon="7.09387">
        <ele>1122.4</ele>
        <time>2025-09-08T07:30:31Z</time>
      </trkpt>
      <trkpt lat="48.10494" lon="7.09387">
        <ele>1122.6</ele>
        <time>2025-09-08T07:30:32Z</time>
      </trkpt>
      <trkpt lat="48.10491" lon="7.09386">
        <ele>1122.8</ele>
        <time>2025-09-08T07:30:33Z</time>
      </trkpt>
      <trkpt lat="48.10487" lon="7.09385">
        <ele>1123</ele>
        <time>2025-09-08T07:30:34Z</time>
      </trkpt>
      <trkpt lat="48.10484" lon="7.09384">
        <ele>1123.2</ele>
        <time>2025-09-08T07:30:35Z</time>
      </trkpt>
      <trkpt lat="48.1048" lon="7.09383">
        <ele>1123.4</ele>
        <time>2025-09-08T07:30:36Z</time>
      </trkpt>
      <trkpt lat="48.10476" lon="7.09383">
        <ele>1123.6</ele>
        <time>2025-09-08T07:30:37Z</time>
      </trkpt>
      <trkpt lat="48.10473" lon="7.09382">
        <ele>1123.8</ele>
        <time>2025-09-08T07:30:38Z</time>
      </trkpt>
      <trkpt lat="48.1047" lon="7.09381">
        <ele>1123.8</ele>
        <time>2025-09-08T07:30:39Z</time>
      </trkpt>
      <trkpt lat="48.10466" lon="7.0938">
        <ele>1124</ele>
        <time>2025-09-08T07:30:40Z</time>
      </trkpt>
      <trkpt lat="48.10463" lon="7.09379">
        <ele>1124.2</ele>
        <time>2025-09-08T07:30:41Z</time>
      </trkpt>
      <trkpt lat="48.10459" lon="7.09379">
        <ele>1124.4</ele>
        <time>2025-09-08T07:30:42Z</time>
      </trkpt>
      <trkpt lat="48.10455" lon="7.09378">
        <ele>1124.6</ele>
        <time>2025-09-08T07:30:43Z</time>
      </trkpt>
      <trkpt lat="48.10451" lon="7.09377">
        <ele>1124.6</ele>
        <time>2025-09-08T07:30:44Z</time>
      </trkpt>
      <trkpt lat="48.10447" lon="7.09376">
        <ele>1125</ele>
        <time>2025-09-08T07:30:45Z</time>
      </trkpt>
      <trkpt lat="48.10444" lon="7.09375">
        <ele>1125</ele>
        <time>2025-09-08T07:30:46Z</time>
      </trkpt>
      <trkpt lat="48.1044" lon="7.09373">
        <ele>1125.2</ele>
        <time>2025-09-08T07:30:47Z</time>
      </trkpt>
      <trkpt lat="48.10436" lon="7.09371">
        <ele>1125.4</ele>
        <time>2025-09-08T07:30:48Z</time>
      </trkpt>
      <trkpt lat="48.10432" lon="7.0937">
        <ele>1125.4</ele>
        <time>2025-09-08T07:30:49Z</time>
      </trkpt>
      <trkpt lat="48.10429" lon="7.09369">
        <ele>1125.4</ele>
        <time>2025-09-08T07:30:50Z</time>
      </trkpt>
      <trkpt lat="48.10425" lon="7.09369">
        <ele>1125.6</ele>
        <time>2025-09-08T07:30:51Z</time>
      </trkpt>
      <trkpt lat="48.10421" lon="7.09368">
        <ele>1125.6</ele>
        <time>2025-09-08T07:30:52Z</time>
      </trkpt>
      <trkpt lat="48.10417" lon="7.09369">
        <ele>1125.8</ele>
        <time>2025-09-08T07:30:53Z</time>
      </trkpt>
      <trkpt lat="48.10414" lon="7.0937">
        <ele>1125.8</ele>
        <time>2025-09-08T07:30:54Z</time>
      </trkpt>
      <trkpt lat="48.10411" lon="7.09373">
        <ele>1126</ele>
        <time>2025-09-08T07:30:55Z</time>
      </trkpt>
      <trkpt lat="48.10407" lon="7.09376">
        <ele>1126</ele>
        <time>2025-09-08T07:30:56Z</time>
      </trkpt>
      <trkpt lat="48.10404" lon="7.0938">
        <ele>1126</ele>
        <time>2025-09-08T07:30:57Z</time>
      </trkpt>
      <trkpt lat="48.104" lon="7.09383">
        <ele>1126</ele>
        <time>2025-09-08T07:30:58Z</time>
      </trkpt>
      <trkpt lat="48.10396" lon="7.09388">
        <ele>1126</ele>
        <time>2025-09-08T07:30:59Z</time>
      </trkpt>
      <trkpt lat="48.10392" lon="7.09392">
        <ele>1125.8</ele>
        <time>2025-09-08T07:31:00Z</time>
      </trkpt>
      <trkpt lat="48.10388" lon="7.09397">
        <ele>1125.6</ele>
        <time>2025-09-08T07:31:01Z</time>
      </trkpt>
      <trkpt lat="48.10384" lon="7.09399">
        <ele>1125.2</ele>
        <time>2025-09-08T07:31:02Z</time>
      </trkpt>
      <trkpt lat="48.10379" lon="7.094">
        <ele>1124.8</ele>
        <time>2025-09-08T07:31:03Z</time>
      </trkpt>
      <trkpt lat="48.10375" lon="7.094">
        <ele>1124.4</ele>
        <time>2025-09-08T07:31:04Z</time>
      </trkpt>
      <trkpt lat="48.10371" lon="7.09398">
        <ele>1124</ele>
        <time>2025-09-08T07:31:05Z</time>
      </trkpt>
      <trkpt lat="48.10368" lon="7.09396">
        <ele>1123.8</ele>
        <time>2025-09-08T07:31:06Z</time>
      </trkpt>
      <trkpt lat="48.10366" lon="7.09394">
        <ele>1123.8</ele>
        <time>2025-09-08T07:31:07Z</time>
      </trkpt>
      <trkpt lat="48.10363" lon="7.09391">
        <ele>1123.6</ele>
        <time>2025-09-08T07:31:08Z</time>
      </trkpt>
      <trkpt lat="48.10362" lon="7.09388">
        <ele>1123.6</ele>
        <time>2025-09-08T07:31:09Z</time>
      </trkpt>
      <trkpt lat="48.10359" lon="7.09386">
        <ele>1123.6</ele>
        <time>2025-09-08T07:31:10Z</time>
      </trkpt>
      <trkpt lat="48.10357" lon="7.09384">
        <ele>1123.6</ele>
        <time>2025-09-08T07:31:11Z</time>
      </trkpt>
      <trkpt lat="48.10355" lon="7.09383">
        <ele>1123.6</ele>
        <time>2025-09-08T07:31:12Z</time>
      </trkpt>
      <trkpt lat="48.10353" lon="7.09381">
        <ele>1123.6</ele>
        <time>2025-09-08T07:31:13Z</time>
      </trkpt>
      <trkpt lat="48.1035" lon="7.09378">
        <ele>1123.8</ele>
        <time>2025-09-08T07:31:14Z</time>
      </trkpt>
      <trkpt lat="48.10347" lon="7.09375">
        <ele>1123.8</ele>
        <time>2025-09-08T07:31:15Z</time>
      </trkpt>
      <trkpt lat="48.10345" lon="7.09373">
        <ele>1123.8</ele>
        <time>2025-09-08T07:31:16Z</time>
      </trkpt>
      <trkpt lat="48.10342" lon="7.0937">
        <ele>1123.8</ele>
        <time>2025-09-08T07:31:17Z</time>
      </trkpt>
      <trkpt lat="48.10339" lon="7.09367">
        <ele>1123.8</ele>
        <time>2025-09-08T07:31:18Z</time>
      </trkpt>
      <trkpt lat="48.10337" lon="7.09363">
        <ele>1123.8</ele>
        <time>2025-09-08T07:31:19Z</time>
      </trkpt>
      <trkpt lat="48.10334" lon="7.09361">
        <ele>1123.8</ele>
        <time>2025-09-08T07:31:20Z</time>
      </trkpt>
      <trkpt lat="48.10331" lon="7.09359">
        <ele>1123.6</ele>
        <time>2025-09-08T07:31:21Z</time>
      </trkpt>
      <trkpt lat="48.10329" lon="7.09356">
        <ele>1123.6</ele>
        <time>2025-09-08T07:31:22Z</time>
      </trkpt>
      <trkpt lat="48.10326" lon="7.09353">
        <ele>1123.6</ele>
        <time>2025-09-08T07:31:23Z</time>
      </trkpt>
      <trkpt lat="48.10324" lon="7.0935">
        <ele>1123.6</ele>
        <time>2025-09-08T07:31:24Z</time>
      </trkpt>
      <trkpt lat="48.10321" lon="7.09347">
        <ele>1123.6</ele>
        <time>2025-09-08T07:31:25Z</time>
      </trkpt>
      <trkpt lat="48.10319" lon="7.09344">
        <ele>1123.4</ele>
        <time>2025-09-08T07:31:26Z</time>
      </trkpt>
      <trkpt lat="48.10316" lon="7.0934">
        <ele>1123.4</ele>
        <time>2025-09-08T07:31:27Z</time>
      </trkpt>
      <trkpt lat="48.10313" lon="7.09337">
        <ele>1123.2</ele>
        <time>2025-09-08T07:31:28Z</time>
      </trkpt>
      <trkpt lat="48.10311" lon="7.09334">
        <ele>1123.2</ele>
        <time>2025-09-08T07:31:29Z</time>
      </trkpt>
      <trkpt lat="48.10309" lon="7.0933">
        <ele>1123.2</ele>
        <time>2025-09-08T07:31:30Z</time>
      </trkpt>
      <trkpt lat="48.10306" lon="7.09327">
        <ele>1123.2</ele>
        <time>2025-09-08T07:31:31Z</time>
      </trkpt>
      <trkpt lat="48.10304" lon="7.09325">
        <ele>1123</ele>
        <time>2025-09-08T07:31:32Z</time>
      </trkpt>
      <trkpt lat="48.10301" lon="7.09323">
        <ele>1122.8</ele>
        <time>2025-09-08T07:31:33Z</time>
      </trkpt>
      <trkpt lat="48.10299" lon="7.0932">
        <ele>1122.8</ele>
        <time>2025-09-08T07:31:34Z</time>
      </trkpt>
      <trkpt lat="48.10297" lon="7.09318">
        <ele>1122.8</ele>
        <time>2025-09-08T07:31:35Z</time>
      </trkpt>
      <trkpt lat="48.10295" lon="7.09314">
        <ele>1122.6</ele>
        <time>2025-09-08T07:31:36Z</time>
      </trkpt>
      <trkpt lat="48.10292" lon="7.09311">
        <ele>1122.6</ele>
        <time>2025-09-08T07:31:37Z</time>
      </trkpt>
      <trkpt lat="48.1029" lon="7.09307">
        <ele>1122.4</ele>
        <time>2025-09-08T07:31:38Z</time>
      </trkpt>
      <trkpt lat="48.10287" lon="7.09303">
        <ele>1122.4</ele>
        <time>2025-09-08T07:31:39Z</time>
      </trkpt>
      <trkpt lat="48.10285" lon="7.09299">
        <ele>1122.2</ele>
        <time>2025-09-08T07:31:40Z</time>
      </trkpt>
      <trkpt lat="48.10283" lon="7.09296">
        <ele>1122</ele>
        <time>2025-09-08T07:31:41Z</time>
      </trkpt>
      <trkpt lat="48.10281" lon="7.09293">
        <ele>1122</ele>
        <time>2025-09-08T07:31:42Z</time>
      </trkpt>
      <trkpt lat="48.1028" lon="7.0929">
        <ele>1121.8</ele>
        <time>2025-09-08T07:31:43Z</time>
      </trkpt>
      <trkpt lat="48.10278" lon="7.09288">
        <ele>1121.8</ele>
        <time>2025-09-08T07:31:44Z</time>
      </trkpt>
      <trkpt lat="48.10276" lon="7.09285">
        <ele>1121.6</ele>
        <time>2025-09-08T07:31:45Z</time>
      </trkpt>
      <trkpt lat="48.10274" lon="7.09283">
        <ele>1121.6</ele>
        <time>2025-09-08T07:31:46Z</time>
      </trkpt>
      <trkpt lat="48.10272" lon="7.0928">
        <ele>1121.6</ele>
        <time>2025-09-08T07:31:47Z</time>
      </trkpt>
      <trkpt lat="48.1027" lon="7.09276">
        <ele>1121.6</ele>
        <time>2025-09-08T07:31:48Z</time>
      </trkpt>
      <trkpt lat="48.10268" lon="7.09273">
        <ele>1121.4</ele>
        <time>2025-09-08T07:31:49Z</time>
      </trkpt>
      <trkpt lat="48.10266" lon="7.0927">
        <ele>1121.4</ele>
        <time>2025-09-08T07:31:50Z</time>
      </trkpt>
      <trkpt lat="48.10264" lon="7.09265">
        <ele>1121.2</ele>
        <time>2025-09-08T07:31:51Z</time>
      </trkpt>
      <trkpt lat="48.10262" lon="7.0926">
        <ele>1121.2</ele>
        <time>2025-09-08T07:31:52Z</time>
      </trkpt>
      <trkpt lat="48.1026" lon="7.09255">
        <ele>1121</ele>
        <time>2025-09-08T07:31:53Z</time>
      </trkpt>
      <trkpt lat="48.10257" lon="7.0925">
        <ele>1121</ele>
        <time>2025-09-08T07:31:54Z</time>
      </trkpt>
      <trkpt lat="48.10254" lon="7.09245">
        <ele>1120.8</ele>
        <time>2025-09-08T07:31:55Z</time>
      </trkpt>
      <trkpt lat="48.10252" lon="7.0924">
        <ele>1120.8</ele>
        <time>2025-09-08T07:31:56Z</time>
      </trkpt>
      <trkpt lat="48.10249" lon="7.09235">
        <ele>1120.6</ele>
        <time>2025-09-08T07:31:57Z</time>
      </trkpt>
      <trkpt lat="48.10246" lon="7.0923">
        <ele>1120.6</ele>
        <time>2025-09-08T07:31:58Z</time>
      </trkpt>
      <trkpt lat="48.10244" lon="7.09225">
        <ele>1120.4</ele>
        <time>2025-09-08T07:31:59Z</time>
      </trkpt>
      <trkpt lat="48.10242" lon="7.09221">
        <ele>1120.2</ele>
        <time>2025-09-08T07:32:00Z</time>
      </trkpt>
      <trkpt lat="48.10239" lon="7.09217">
        <ele>1120.2</ele>
        <time>2025-09-08T07:32:01Z</time>
      </trkpt>
      <trkpt lat="48.10237" lon="7.09213">
        <ele>1120</ele>
        <time>2025-09-08T07:32:02Z</time>
      </trkpt>
      <trkpt lat="48.10235" lon="7.09209">
        <ele>1120</ele>
        <time>2025-09-08T07:32:03Z</time>
      </trkpt>
      <trkpt lat="48.10233" lon="7.09204">
        <ele>1120</ele>
        <time>2025-09-08T07:32:04Z</time>
      </trkpt>
      <trkpt lat="48.10231" lon="7.092">
        <ele>1119.8</ele>
        <time>2025-09-08T07:32:05Z</time>
      </trkpt>
      <trkpt lat="48.10229" lon="7.09196">
        <ele>1119.8</ele>
        <time>2025-09-08T07:32:06Z</time>
      </trkpt>
      <trkpt lat="48.10227" lon="7.09191">
        <ele>1119.8</ele>
        <time>2025-09-08T07:32:07Z</time>
      </trkpt>
      <trkpt lat="48.10225" lon="7.09187">
        <ele>1119.6</ele>
        <time>2025-09-08T07:32:08Z</time>
      </trkpt>
      <trkpt lat="48.10224" lon="7.09183">
        <ele>1119.6</ele>
        <time>2025-09-08T07:32:09Z</time>
      </trkpt>
      <trkpt lat="48.10223" lon="7.09179">
        <ele>1119.4</ele>
        <time>2025-09-08T07:32:10Z</time>
      </trkpt>
      <trkpt lat="48.10222" lon="7.09173">
        <ele>1119.4</ele>
        <time>2025-09-08T07:32:11Z</time>
      </trkpt>
      <trkpt lat="48.10222" lon="7.09168">
        <ele>1119.2</ele>
        <time>2025-09-08T07:32:12Z</time>
      </trkpt>
      <trkpt lat="48.10223" lon="7.09162">
        <ele>1119.2</ele>
        <time>2025-09-08T07:32:13Z</time>
      </trkpt>
      <trkpt lat="48.10223" lon="7.09156">
        <ele>1119</ele>
        <time>2025-09-08T07:32:14Z</time>
      </trkpt>
      <trkpt lat="48.10222" lon="7.09149">
        <ele>1118.8</ele>
        <time>2025-09-08T07:32:15Z</time>
      </trkpt>
      <trkpt lat="48.10221" lon="7.09143">
        <ele>1118.8</ele>
        <time>2025-09-08T07:32:16Z</time>
      </trkpt>
      <trkpt lat="48.1022" lon="7.09137">
        <ele>1118.6</ele>
        <time>2025-09-08T07:32:17Z</time>
      </trkpt>
      <trkpt lat="48.10219" lon="7.09132">
        <ele>1118.6</ele>
        <time>2025-09-08T07:32:18Z</time>
      </trkpt>
      <trkpt lat="48.10218" lon="7.09127">
        <ele>1118.6</ele>
        <time>2025-09-08T07:32:19Z</time>
      </trkpt>
      <trkpt lat="48.10218" lon="7.09123">
        <ele>1118.6</ele>
        <time>2025-09-08T07:32:20Z</time>
      </trkpt>
      <trkpt lat="48.10218" lon="7.09118">
        <ele>1118.6</ele>
        <time>2025-09-08T07:32:21Z</time>
      </trkpt>
      <trkpt lat="48.10217" lon="7.09113">
        <ele>1118.6</ele>
        <time>2025-09-08T07:32:22Z</time>
      </trkpt>
      <trkpt lat="48.10217" lon="7.09109">
        <ele>1118.6</ele>
        <time>2025-09-08T07:32:23Z</time>
      </trkpt>
      <trkpt lat="48.10217" lon="7.09105">
        <ele>1118.6</ele>
        <time>2025-09-08T07:32:24Z</time>
      </trkpt>
      <trkpt lat="48.10216" lon="7.09101">
        <ele>1118.6</ele>
        <time>2025-09-08T07:32:25Z</time>
      </trkpt>
      <trkpt lat="48.10215" lon="7.09096">
        <ele>1118.6</ele>
        <time>2025-09-08T07:32:26Z</time>
      </trkpt>
      <trkpt lat="48.10215" lon="7.09091">
        <ele>1118.4</ele>
        <time>2025-09-08T07:32:27Z</time>
      </trkpt>
      <trkpt lat="48.10215" lon="7.09085">
        <ele>1118.4</ele>
        <time>2025-09-08T07:32:28Z</time>
      </trkpt>
      <trkpt lat="48.10215" lon="7.09079">
        <ele>1118.4</ele>
        <time>2025-09-08T07:32:29Z</time>
      </trkpt>
      <trkpt lat="48.10215" lon="7.09073">
        <ele>1118.4</ele>
        <time>2025-09-08T07:32:30Z</time>
      </trkpt>
      <trkpt lat="48.10215" lon="7.09068">
        <ele>1118.4</ele>
        <time>2025-09-08T07:32:31Z</time>
      </trkpt>
      <trkpt lat="48.10215" lon="7.09062">
        <ele>1118.2</ele>
        <time>2025-09-08T07:32:32Z</time>
      </trkpt>
      <trkpt lat="48.10216" lon="7.09056">
        <ele>1118.2</ele>
        <time>2025-09-08T07:32:33Z</time>
      </trkpt>
      <trkpt lat="48.10216" lon="7.0905">
        <ele>1118.2</ele>
        <time>2025-09-08T07:32:34Z</time>
      </trkpt>
      <trkpt lat="48.10216" lon="7.09044">
        <ele>1118.2</ele>
        <time>2025-09-08T07:32:35Z</time>
      </trkpt>
      <trkpt lat="48.10217" lon="7.09039">
        <ele>1118.2</ele>
        <time>2025-09-08T07:32:36Z</time>
      </trkpt>
      <trkpt lat="48.10217" lon="7.09033">
        <ele>1118.2</ele>
        <time>2025-09-08T07:32:37Z</time>
      </trkpt>
      <trkpt lat="48.10219" lon="7.09028">
        <ele>1118</ele>
        <time>2025-09-08T07:32:38Z</time>
      </trkpt>
      <trkpt lat="48.1022" lon="7.09023">
        <ele>1118</ele>
        <time>2025-09-08T07:32:39Z</time>
      </trkpt>
      <trkpt lat="48.1022" lon="7.09017">
        <ele>1118</ele>
        <time>2025-09-08T07:32:40Z</time>
      </trkpt>
      <trkpt lat="48.10221" lon="7.09012">
        <ele>1117.8</ele>
        <time>2025-09-08T07:32:41Z</time>
      </trkpt>
      <trkpt lat="48.10221" lon="7.09007">
        <ele>1117.8</ele>
        <time>2025-09-08T07:32:42Z</time>
      </trkpt>
      <trkpt lat="48.10222" lon="7.09002">
        <ele>1117.8</ele>
        <time>2025-09-08T07:32:43Z</time>
      </trkpt>
      <trkpt lat="48.10223" lon="7.08998">
        <ele>1117.8</ele>
        <time>2025-09-08T07:32:44Z</time>
      </trkpt>
      <trkpt lat="48.10223" lon="7.08994">
        <ele>1117.6</ele>
        <time>2025-09-08T07:32:45Z</time>
      </trkpt>
      <trkpt lat="48.10224" lon="7.08989">
        <ele>1117.6</ele>
        <time>2025-09-08T07:32:46Z</time>
      </trkpt>
      <trkpt lat="48.10226" lon="7.08985">
        <ele>1117.6</ele>
        <time>2025-09-08T07:32:47Z</time>
      </trkpt>
      <trkpt lat="48.10227" lon="7.0898">
        <ele>1117.4</ele>
        <time>2025-09-08T07:32:48Z</time>
      </trkpt>
      <trkpt lat="48.10227" lon="7.08975">
        <ele>1117.4</ele>
        <time>2025-09-08T07:32:49Z</time>
      </trkpt>
      <trkpt lat="48.10227" lon="7.0897">
        <ele>1117.4</ele>
        <time>2025-09-08T07:32:50Z</time>
      </trkpt>
      <trkpt lat="48.10228" lon="7.08965">
        <ele>1117.2</ele>
        <time>2025-09-08T07:32:51Z</time>
      </trkpt>
      <trkpt lat="48.10229" lon="7.08959">
        <ele>1117</ele>
        <time>2025-09-08T07:32:52Z</time>
      </trkpt>
      <trkpt lat="48.10229" lon="7.08953">
        <ele>1117</ele>
        <time>2025-09-08T07:32:53Z</time>
      </trkpt>
      <trkpt lat="48.10231" lon="7.08947">
        <ele>1116.8</ele>
        <time>2025-09-08T07:32:54Z</time>
      </trkpt>
      <trkpt lat="48.10232" lon="7.08942">
        <ele>1116.8</ele>
        <time>2025-09-08T07:32:55Z</time>
      </trkpt>
      <trkpt lat="48.10231" lon="7.08936">
        <ele>1116.6</ele>
        <time>2025-09-08T07:32:56Z</time>
      </trkpt>
      <trkpt lat="48.10231" lon="7.08931">
        <ele>1116.4</ele>
        <time>2025-09-08T07:32:57Z</time>
      </trkpt>
      <trkpt lat="48.10232" lon="7.08925">
        <ele>1116.4</ele>
        <time>2025-09-08T07:32:58Z</time>
      </trkpt>
      <trkpt lat="48.10232" lon="7.08919">
        <ele>1116.4</ele>
        <time>2025-09-08T07:32:59Z</time>
      </trkpt>
      <trkpt lat="48.10233" lon="7.08914">
        <ele>1116.4</ele>
        <time>2025-09-08T07:33:00Z</time>
      </trkpt>
      <trkpt lat="48.10233" lon="7.08909">
        <ele>1116.2</ele>
        <time>2025-09-08T07:33:01Z</time>
      </trkpt>
      <trkpt lat="48.10233" lon="7.08904">
        <ele>1116.2</ele>
        <time>2025-09-08T07:33:02Z</time>
      </trkpt>
      <trkpt lat="48.10234" lon="7.08901">
        <ele>1116.2</ele>
        <time>2025-09-08T07:33:03Z</time>
      </trkpt>
      <trkpt lat="48.10235" lon="7.08897">
        <ele>1116</ele>
        <time>2025-09-08T07:33:04Z</time>
      </trkpt>
      <trkpt lat="48.10237" lon="7.08893">
        <ele>1116.2</ele>
        <time>2025-09-08T07:33:05Z</time>
      </trkpt>
      <trkpt lat="48.10237" lon="7.08889">
        <ele>1116.2</ele>
        <time>2025-09-08T07:33:06Z</time>
      </trkpt>
      <trkpt lat="48.10237" lon="7.08885">
        <ele>1116</ele>
        <time>2025-09-08T07:33:07Z</time>
      </trkpt>
      <trkpt lat="48.10238" lon="7.08882">
        <ele>1116</ele>
        <time>2025-09-08T07:33:08Z</time>
      </trkpt>
      <trkpt lat="48.10238" lon="7.08877">
        <ele>1116</ele>
        <time>2025-09-08T07:33:09Z</time>
      </trkpt>
      <trkpt lat="48.10238" lon="7.08872">
        <ele>1116</ele>
        <time>2025-09-08T07:33:10Z</time>
      </trkpt>
      <trkpt lat="48.10238" lon="7.08867">
        <ele>1115.8</ele>
        <time>2025-09-08T07:33:11Z</time>
      </trkpt>
      <trkpt lat="48.10238" lon="7.08861">
        <ele>1115.8</ele>
        <time>2025-09-08T07:33:12Z</time>
      </trkpt>
      <trkpt lat="48.10238" lon="7.08856">
        <ele>1115.8</ele>
        <time>2025-09-08T07:33:13Z</time>
      </trkpt>
      <trkpt lat="48.10239" lon="7.0885">
        <ele>1115.8</ele>
        <time>2025-09-08T07:33:14Z</time>
      </trkpt>
      <trkpt lat="48.10239" lon="7.08845">
        <ele>1115.6</ele>
        <time>2025-09-08T07:33:15Z</time>
      </trkpt>
      <trkpt lat="48.1024" lon="7.08838">
        <ele>1115.6</ele>
        <time>2025-09-08T07:33:16Z</time>
      </trkpt>
      <trkpt lat="48.10241" lon="7.08832">
        <ele>1115.6</ele>
        <time>2025-09-08T07:33:17Z</time>
      </trkpt>
      <trkpt lat="48.10242" lon="7.08825">
        <ele>1115.6</ele>
        <time>2025-09-08T07:33:18Z</time>
      </trkpt>
      <trkpt lat="48.10243" lon="7.08819">
        <ele>1115.6</ele>
        <time>2025-09-08T07:33:19Z</time>
      </trkpt>
      <trkpt lat="48.10243" lon="7.08814">
        <ele>1115.6</ele>
        <time>2025-09-08T07:33:20Z</time>
      </trkpt>
      <trkpt lat="48.10243" lon="7.08808">
        <ele>1115.4</ele>
        <time>2025-09-08T07:33:21Z</time>
      </trkpt>
      <trkpt lat="48.10243" lon="7.08803">
        <ele>1115.2</ele>
        <time>2025-09-08T07:33:22Z</time>
      </trkpt>
      <trkpt lat="48.10244" lon="7.08798">
        <ele>1115.2</ele>
        <time>2025-09-08T07:33:23Z</time>
      </trkpt>
      <trkpt lat="48.10244" lon="7.08792">
        <ele>1115.2</ele>
        <time>2025-09-08T07:33:24Z</time>
      </trkpt>
      <trkpt lat="48.10244" lon="7.08786">
        <ele>1115</ele>
        <time>2025-09-08T07:33:25Z</time>
      </trkpt>
      <trkpt lat="48.10244" lon="7.08779">
        <ele>1114.8</ele>
        <time>2025-09-08T07:33:26Z</time>
      </trkpt>
      <trkpt lat="48.10244" lon="7.08773">
        <ele>1114.6</ele>
        <time>2025-09-08T07:33:27Z</time>
      </trkpt>
      <trkpt lat="48.10245" lon="7.08768">
        <ele>1114.6</ele>
        <time>2025-09-08T07:33:28Z</time>
      </trkpt>
      <trkpt lat="48.10245" lon="7.08762">
        <ele>1114.6</ele>
        <time>2025-09-08T07:33:29Z</time>
      </trkpt>
      <trkpt lat="48.10244" lon="7.08758">
        <ele>1114.4</ele>
        <time>2025-09-08T07:33:30Z</time>
      </trkpt>
      <trkpt lat="48.10244" lon="7.08752">
        <ele>1114.4</ele>
        <time>2025-09-08T07:33:31Z</time>
      </trkpt>
      <trkpt lat="48.10244" lon="7.08746">
        <ele>1114.2</ele>
        <time>2025-09-08T07:33:32Z</time>
      </trkpt>
      <trkpt lat="48.10243" lon="7.0874">
        <ele>1114.2</ele>
        <time>2025-09-08T07:33:33Z</time>
      </trkpt>
      <trkpt lat="48.10244" lon="7.08735">
        <ele>1114</ele>
        <time>2025-09-08T07:33:34Z</time>
      </trkpt>
      <trkpt lat="48.10244" lon="7.08729">
        <ele>1114</ele>
        <time>2025-09-08T07:33:35Z</time>
      </trkpt>
      <trkpt lat="48.10244" lon="7.08724">
        <ele>1114</ele>
        <time>2025-09-08T07:33:36Z</time>
      </trkpt>
      <trkpt lat="48.10245" lon="7.08718">
        <ele>1113.8</ele>
        <time>2025-09-08T07:33:37Z</time>
      </trkpt>
      <trkpt lat="48.10246" lon="7.08713">
        <ele>1113.8</ele>
        <time>2025-09-08T07:33:38Z</time>
      </trkpt>
      <trkpt lat="48.10247" lon="7.08708">
        <ele>1113.8</ele>
        <time>2025-09-08T07:33:39Z</time>
      </trkpt>
      <trkpt lat="48.10249" lon="7.08704">
        <ele>1113.8</ele>
        <time>2025-09-08T07:33:40Z</time>
      </trkpt>
      <trkpt lat="48.10251" lon="7.087">
        <ele>1113.8</ele>
        <time>2025-09-08T07:33:41Z</time>
      </trkpt>
      <trkpt lat="48.10252" lon="7.08695">
        <ele>1113.8</ele>
        <time>2025-09-08T07:33:42Z</time>
      </trkpt>
      <trkpt lat="48.10254" lon="7.0869">
        <ele>1113.8</ele>
        <time>2025-09-08T07:33:43Z</time>
      </trkpt>
      <trkpt lat="48.10255" lon="7.08686">
        <ele>1113.8</ele>
        <time>2025-09-08T07:33:44Z</time>
      </trkpt>
      <trkpt lat="48.10256" lon="7.08681">
        <ele>1114</ele>
        <time>2025-09-08T07:33:45Z</time>
      </trkpt>
      <trkpt lat="48.10256" lon="7.08676">
        <ele>1114</ele>
        <time>2025-09-08T07:33:46Z</time>
      </trkpt>
      <trkpt lat="48.10255" lon="7.0867">
        <ele>1114</ele>
        <time>2025-09-08T07:33:47Z</time>
      </trkpt>
      <trkpt lat="48.10254" lon="7.08665">
        <ele>1114.2</ele>
        <time>2025-09-08T07:33:48Z</time>
      </trkpt>
      <trkpt lat="48.10254" lon="7.0866">
        <ele>1114.2</ele>
        <time>2025-09-08T07:33:49Z</time>
      </trkpt>
      <trkpt lat="48.10253" lon="7.08655">
        <ele>1114.2</ele>
        <time>2025-09-08T07:33:50Z</time>
      </trkpt>
      <trkpt lat="48.10251" lon="7.08651">
        <ele>1114.2</ele>
        <time>2025-09-08T07:33:51Z</time>
      </trkpt>
      <trkpt lat="48.1025" lon="7.08646">
        <ele>1114.2</ele>
        <time>2025-09-08T07:33:52Z</time>
      </trkpt>
      <trkpt lat="48.10249" lon="7.0864">
        <ele>1114.2</ele>
        <time>2025-09-08T07:33:53Z</time>
      </trkpt>
      <trkpt lat="48.1025" lon="7.08635">
        <ele>1114</ele>
        <time>2025-09-08T07:33:54Z</time>
      </trkpt>
      <trkpt lat="48.10251" lon="7.08631">
        <ele>1114</ele>
        <time>2025-09-08T07:33:55Z</time>
      </trkpt>
      <trkpt lat="48.1025" lon="7.08627">
        <ele>1113.8</ele>
        <time>2025-09-08T07:33:56Z</time>
      </trkpt>
      <trkpt lat="48.10251" lon="7.08623">
        <ele>1113.8</ele>
        <time>2025-09-08T07:33:57Z</time>
      </trkpt>
      <trkpt lat="48.10252" lon="7.08619">
        <ele>1113.6</ele>
        <time>2025-09-08T07:33:58Z</time>
      </trkpt>
      <trkpt lat="48.10252" lon="7.08614">
        <ele>1113.6</ele>
        <time>2025-09-08T07:33:59Z</time>
      </trkpt>
      <trkpt lat="48.10252" lon="7.08608">
        <ele>1113.6</ele>
        <time>2025-09-08T07:34:00Z</time>
      </trkpt>
      <trkpt lat="48.10252" lon="7.08602">
        <ele>1113.4</ele>
        <time>2025-09-08T07:34:01Z</time>
      </trkpt>
      <trkpt lat="48.10251" lon="7.08597">
        <ele>1113.4</ele>
        <time>2025-09-08T07:34:02Z</time>
      </trkpt>
      <trkpt lat="48.10251" lon="7.0859">
        <ele>1113.4</ele>
        <time>2025-09-08T07:34:03Z</time>
      </trkpt>
      <trkpt lat="48.10251" lon="7.08584">
        <ele>1113</ele>
        <time>2025-09-08T07:34:04Z</time>
      </trkpt>
      <trkpt lat="48.10251" lon="7.08579">
        <ele>1113</ele>
        <time>2025-09-08T07:34:05Z</time>
      </trkpt>
      <trkpt lat="48.10252" lon="7.08574">
        <ele>1112.8</ele>
        <time>2025-09-08T07:34:06Z</time>
      </trkpt>
      <trkpt lat="48.10252" lon="7.08569">
        <ele>1112.8</ele>
        <time>2025-09-08T07:34:07Z</time>
      </trkpt>
      <trkpt lat="48.10252" lon="7.08563">
        <ele>1112.6</ele>
        <time>2025-09-08T07:34:08Z</time>
      </trkpt>
      <trkpt lat="48.10252" lon="7.08559">
        <ele>1112.6</ele>
        <time>2025-09-08T07:34:09Z</time>
      </trkpt>
      <trkpt lat="48.10253" lon="7.08555">
        <ele>1112.4</ele>
        <time>2025-09-08T07:34:10Z</time>
      </trkpt>
      <trkpt lat="48.10254" lon="7.08549">
        <ele>1112.2</ele>
        <time>2025-09-08T07:34:11Z</time>
      </trkpt>
      <trkpt lat="48.10255" lon="7.08544">
        <ele>1112</ele>
        <time>2025-09-08T07:34:12Z</time>
      </trkpt>
      <trkpt lat="48.10255" lon="7.08539">
        <ele>1112</ele>
        <time>2025-09-08T07:34:13Z</time>
      </trkpt>
      <trkpt lat="48.10255" lon="7.08534">
        <ele>1111.8</ele>
        <time>2025-09-08T07:34:14Z</time>
      </trkpt>
      <trkpt lat="48.10256" lon="7.08531">
        <ele>1111.8</ele>
        <time>2025-09-08T07:34:15Z</time>
      </trkpt>
      <trkpt lat="48.10256" lon="7.08526">
        <ele>1111.8</ele>
        <time>2025-09-08T07:34:16Z</time>
      </trkpt>
      <trkpt lat="48.10257" lon="7.08521">
        <ele>1111.6</ele>
        <time>2025-09-08T07:34:17Z</time>
      </trkpt>
      <trkpt lat="48.10257" lon="7.08516">
        <ele>1111.6</ele>
        <time>2025-09-08T07:34:18Z</time>
      </trkpt>
      <trkpt lat="48.10257" lon="7.08509">
        <ele>1111.4</ele>
        <time>2025-09-08T07:34:19Z</time>
      </trkpt>
      <trkpt lat="48.10259" lon="7.08502">
        <ele>1111</ele>
        <time>2025-09-08T07:34:20Z</time>
      </trkpt>
      <trkpt lat="48.1026" lon="7.08495">
        <ele>1111</ele>
        <time>2025-09-08T07:34:21Z</time>
      </trkpt>
      <trkpt lat="48.10262" lon="7.0849">
        <ele>1110.8</ele>
        <time>2025-09-08T07:34:22Z</time>
      </trkpt>
      <trkpt lat="48.10261" lon="7.08485">
        <ele>1110.6</ele>
        <time>2025-09-08T07:34:23Z</time>
      </trkpt>
      <trkpt lat="48.10262" lon="7.0848">
        <ele>1110.6</ele>
        <time>2025-09-08T07:34:24Z</time>
      </trkpt>
      <trkpt lat="48.10262" lon="7.08475">
        <ele>1110.4</ele>
        <time>2025-09-08T07:34:25Z</time>
      </trkpt>
      <trkpt lat="48.10262" lon="7.08469">
        <ele>1110.2</ele>
        <time>2025-09-08T07:34:26Z</time>
      </trkpt>
      <trkpt lat="48.10262" lon="7.08464">
        <ele>1110</ele>
        <time>2025-09-08T07:34:27Z</time>
      </trkpt>
      <trkpt lat="48.10261" lon="7.0846">
        <ele>1110</ele>
        <time>2025-09-08T07:34:28Z</time>
      </trkpt>
      <trkpt lat="48.10262" lon="7.08456">
        <ele>1109.8</ele>
        <time>2025-09-08T07:34:29Z</time>
      </trkpt>
      <trkpt lat="48.10262" lon="7.08451">
        <ele>1109.8</ele>
        <time>2025-09-08T07:34:30Z</time>
      </trkpt>
      <trkpt lat="48.10262" lon="7.08445">
        <ele>1109.6</ele>
        <time>2025-09-08T07:34:31Z</time>
      </trkpt>
      <trkpt lat="48.10263" lon="7.08439">
        <ele>1109.6</ele>
        <time>2025-09-08T07:34:32Z</time>
      </trkpt>
      <trkpt lat="48.10263" lon="7.08432">
        <ele>1109.4</ele>
        <time>2025-09-08T07:34:33Z</time>
      </trkpt>
      <trkpt lat="48.10264" lon="7.08426">
        <ele>1109.2</ele>
        <time>2025-09-08T07:34:34Z</time>
      </trkpt>
      <trkpt lat="48.10264" lon="7.08419">
        <ele>1109</ele>
        <time>2025-09-08T07:34:35Z</time>
      </trkpt>
      <trkpt lat="48.10265" lon="7.08412">
        <ele>1108.8</ele>
        <time>2025-09-08T07:34:36Z</time>
      </trkpt>
      <trkpt lat="48.10266" lon="7.08406">
        <ele>1108.8</ele>
        <time>2025-09-08T07:34:37Z</time>
      </trkpt>
      <trkpt lat="48.10266" lon="7.084">
        <ele>1108.6</ele>
        <time>2025-09-08T07:34:38Z</time>
      </trkpt>
      <trkpt lat="48.10266" lon="7.08394">
        <ele>1108.4</ele>
        <time>2025-09-08T07:34:39Z</time>
      </trkpt>
      <trkpt lat="48.10266" lon="7.08387">
        <ele>1108.4</ele>
        <time>2025-09-08T07:34:40Z</time>
      </trkpt>
      <trkpt lat="48.10266" lon="7.0838">
        <ele>1108.2</ele>
        <time>2025-09-08T07:34:41Z</time>
      </trkpt>
      <trkpt lat="48.10265" lon="7.08372">
        <ele>1108</ele>
        <time>2025-09-08T07:34:42Z</time>
      </trkpt>
      <trkpt lat="48.10265" lon="7.08367">
        <ele>1107.8</ele>
        <time>2025-09-08T07:34:43Z</time>
      </trkpt>
      <trkpt lat="48.10264" lon="7.08363">
        <ele>1107.4</ele>
        <time>2025-09-08T07:34:44Z</time>
      </trkpt>
      <trkpt lat="48.10264" lon="7.08359">
        <ele>1107</ele>
        <time>2025-09-08T07:34:45Z</time>
      </trkpt>
      <trkpt lat="48.10264" lon="7.08354">
        <ele>1106.8</ele>
        <time>2025-09-08T07:34:46Z</time>
      </trkpt>
      <trkpt lat="48.10263" lon="7.0835">
        <ele>1106.8</ele>
        <time>2025-09-08T07:34:47Z</time>
      </trkpt>
      <trkpt lat="48.10262" lon="7.08346">
        <ele>1106.6</ele>
        <time>2025-09-08T07:34:48Z</time>
      </trkpt>
      <trkpt lat="48.10261" lon="7.08342">
        <ele>1106.6</ele>
        <time>2025-09-08T07:34:49Z</time>
      </trkpt>
      <trkpt lat="48.10261" lon="7.08337">
        <ele>1106.4</ele>
        <time>2025-09-08T07:34:50Z</time>
      </trkpt>
      <trkpt lat="48.10261" lon="7.08332">
        <ele>1106.4</ele>
        <time>2025-09-08T07:34:51Z</time>
      </trkpt>
      <trkpt lat="48.10261" lon="7.08328">
        <ele>1106.4</ele>
        <time>2025-09-08T07:34:52Z</time>
      </trkpt>
      <trkpt lat="48.10262" lon="7.08323">
        <ele>1106.2</ele>
        <time>2025-09-08T07:34:53Z</time>
      </trkpt>
      <trkpt lat="48.10262" lon="7.08318">
        <ele>1106.2</ele>
        <time>2025-09-08T07:34:54Z</time>
      </trkpt>
      <trkpt lat="48.10262" lon="7.08311">
        <ele>1106.2</ele>
        <time>2025-09-08T07:34:55Z</time>
      </trkpt>
      <trkpt lat="48.10262" lon="7.08305">
        <ele>1106</ele>
        <time>2025-09-08T07:34:56Z</time>
      </trkpt>
      <trkpt lat="48.10263" lon="7.08298">
        <ele>1105.8</ele>
        <time>2025-09-08T07:34:57Z</time>
      </trkpt>
      <trkpt lat="48.10262" lon="7.08293">
        <ele>1105.6</ele>
        <time>2025-09-08T07:34:58Z</time>
      </trkpt>
      <trkpt lat="48.10262" lon="7.08286">
        <ele>1105.4</ele>
        <time>2025-09-08T07:34:59Z</time>
      </trkpt>
      <trkpt lat="48.10261" lon="7.0828">
        <ele>1105.4</ele>
        <time>2025-09-08T07:35:00Z</time>
      </trkpt>
      <trkpt lat="48.10261" lon="7.08273">
        <ele>1105</ele>
        <time>2025-09-08T07:35:01Z</time>
      </trkpt>
      <trkpt lat="48.1026" lon="7.08266">
        <ele>1105</ele>
        <time>2025-09-08T07:35:02Z</time>
      </trkpt>
      <trkpt lat="48.10261" lon="7.08259">
        <ele>1104.4</ele>
        <time>2025-09-08T07:35:03Z</time>
      </trkpt>
      <trkpt lat="48.10262" lon="7.08252">
        <ele>1104.2</ele>
        <time>2025-09-08T07:35:04Z</time>
      </trkpt>
      <trkpt lat="48.10262" lon="7.08246">
        <ele>1104.2</ele>
        <time>2025-09-08T07:35:05Z</time>
      </trkpt>
      <trkpt lat="48.10263" lon="7.08239">
        <ele>1103.8</ele>
        <time>2025-09-08T07:35:06Z</time>
      </trkpt>
      <trkpt lat="48.10262" lon="7.08231">
        <ele>1103.6</ele>
        <time>2025-09-08T07:35:07Z</time>
      </trkpt>
      <trkpt lat="48.10262" lon="7.08223">
        <ele>1103.4</ele>
        <time>2025-09-08T07:35:08Z</time>
      </trkpt>
      <trkpt lat="48.10263" lon="7.08216">
        <ele>1103</ele>
        <time>2025-09-08T07:35:09Z</time>
      </trkpt>
      <trkpt lat="48.10264" lon="7.0821">
        <ele>1102.8</ele>
        <time>2025-09-08T07:35:10Z</time>
      </trkpt>
      <trkpt lat="48.10265" lon="7.08203">
        <ele>1102.6</ele>
        <time>2025-09-08T07:35:11Z</time>
      </trkpt>
      <trkpt lat="48.10266" lon="7.08198">
        <ele>1102.2</ele>
        <time>2025-09-08T07:35:12Z</time>
      </trkpt>
      <trkpt lat="48.10267" lon="7.08194">
        <ele>1102</ele>
        <time>2025-09-08T07:35:13Z</time>
      </trkpt>
      <trkpt lat="48.10267" lon="7.08189">
        <ele>1101.4</ele>
        <time>2025-09-08T07:35:14Z</time>
      </trkpt>
      <trkpt lat="48.10269" lon="7.08185">
        <ele>1101</ele>
        <time>2025-09-08T07:35:15Z</time>
      </trkpt>
      <trkpt lat="48.10269" lon="7.0818">
        <ele>1100.8</ele>
        <time>2025-09-08T07:35:16Z</time>
      </trkpt>
      <trkpt lat="48.1027" lon="7.08176">
        <ele>1100.2</ele>
        <time>2025-09-08T07:35:17Z</time>
      </trkpt>
      <trkpt lat="48.1027" lon="7.08173">
        <ele>1099.6</ele>
        <time>2025-09-08T07:35:18Z</time>
      </trkpt>
      <trkpt lat="48.1027" lon="7.08169">
        <ele>1099.4</ele>
        <time>2025-09-08T07:35:19Z</time>
      </trkpt>
      <trkpt lat="48.1027" lon="7.08165">
        <ele>1099</ele>
        <time>2025-09-08T07:35:20Z</time>
      </trkpt>
      <trkpt lat="48.10271" lon="7.0816">
        <ele>1098.6</ele>
        <time>2025-09-08T07:35:21Z</time>
      </trkpt>
      <trkpt lat="48.10272" lon="7.08156">
        <ele>1098.4</ele>
        <time>2025-09-08T07:35:22Z</time>
      </trkpt>
      <trkpt lat="48.10272" lon="7.08151">
        <ele>1098.2</ele>
        <time>2025-09-08T07:35:23Z</time>
      </trkpt>
      <trkpt lat="48.10273" lon="7.08147">
        <ele>1098</ele>
        <time>2025-09-08T07:35:24Z</time>
      </trkpt>
      <trkpt lat="48.10274" lon="7.08142">
        <ele>1097.4</ele>
        <time>2025-09-08T07:35:25Z</time>
      </trkpt>
      <trkpt lat="48.10274" lon="7.08137">
        <ele>1096.8</ele>
        <time>2025-09-08T07:35:26Z</time>
      </trkpt>
      <trkpt lat="48.10274" lon="7.08132">
        <ele>1096.2</ele>
        <time>2025-09-08T07:35:27Z</time>
      </trkpt>
      <trkpt lat="48.10275" lon="7.08128">
        <ele>1095.8</ele>
        <time>2025-09-08T07:35:28Z</time>
      </trkpt>
      <trkpt lat="48.10275" lon="7.08124">
        <ele>1095.4</ele>
        <time>2025-09-08T07:35:29Z</time>
      </trkpt>
      <trkpt lat="48.10276" lon="7.08119">
        <ele>1094.8</ele>
        <time>2025-09-08T07:35:30Z</time>
      </trkpt>
      <trkpt lat="48.10277" lon="7.08115">
        <ele>1094.6</ele>
        <time>2025-09-08T07:35:31Z</time>
      </trkpt>
      <trkpt lat="48.10277" lon="7.0811">
        <ele>1094</ele>
        <time>2025-09-08T07:35:32Z</time>
      </trkpt>
      <trkpt lat="48.10277" lon="7.08106">
        <ele>1093.8</ele>
        <time>2025-09-08T07:35:33Z</time>
      </trkpt>
      <trkpt lat="48.10277" lon="7.08102">
        <ele>1093.6</ele>
        <time>2025-09-08T07:35:34Z</time>
      </trkpt>
      <trkpt lat="48.10278" lon="7.08098">
        <ele>1093.2</ele>
        <time>2025-09-08T07:35:35Z</time>
      </trkpt>
      <trkpt lat="48.10278" lon="7.08094">
        <ele>1093</ele>
        <time>2025-09-08T07:35:36Z</time>
      </trkpt>
      <trkpt lat="48.10278" lon="7.0809">
        <ele>1092.6</ele>
        <time>2025-09-08T07:35:37Z</time>
      </trkpt>
      <trkpt lat="48.10279" lon="7.08088">
        <ele>1092.4</ele>
        <time>2025-09-08T07:35:38Z</time>
      </trkpt>
      <trkpt lat="48.10279" lon="7.08085">
        <ele>1091.6</ele>
        <time>2025-09-08T07:35:39Z</time>
      </trkpt>
      <trkpt lat="48.1028" lon="7.08082">
        <ele>1091.2</ele>
        <time>2025-09-08T07:35:40Z</time>
      </trkpt>
      <trkpt lat="48.1028" lon="7.08078">
        <ele>1091</ele>
        <time>2025-09-08T07:35:41Z</time>
      </trkpt>
      <trkpt lat="48.1028" lon="7.08074">
        <ele>1090.6</ele>
        <time>2025-09-08T07:35:42Z</time>
      </trkpt>
      <trkpt lat="48.1028" lon="7.0807">
        <ele>1090</ele>
        <time>2025-09-08T07:35:43Z</time>
      </trkpt>
      <trkpt lat="48.1028" lon="7.08067">
        <ele>1089.6</ele>
        <time>2025-09-08T07:35:44Z</time>
      </trkpt>
      <trkpt lat="48.1028" lon="7.08063">
        <ele>1089.2</ele>
        <time>2025-09-08T07:35:45Z</time>
      </trkpt>
      <trkpt lat="48.10279" lon="7.0806">
        <ele>1088.4</ele>
        <time>2025-09-08T07:35:46Z</time>
      </trkpt>
      <trkpt lat="48.1028" lon="7.08058">
        <ele>1087.8</ele>
        <time>2025-09-08T07:35:47Z</time>
      </trkpt>
      <trkpt lat="48.1028" lon="7.08055">
        <ele>1087.6</ele>
        <time>2025-09-08T07:35:48Z</time>
      </trkpt>
      <trkpt lat="48.1028" lon="7.08051">
        <ele>1087.2</ele>
        <time>2025-09-08T07:35:49Z</time>
      </trkpt>
      <trkpt lat="48.10281" lon="7.08046">
        <ele>1086.6</ele>
        <time>2025-09-08T07:35:50Z</time>
      </trkpt>
      <trkpt lat="48.1028" lon="7.08041">
        <ele>1086.4</ele>
        <time>2025-09-08T07:35:51Z</time>
      </trkpt>
      <trkpt lat="48.10281" lon="7.08036">
        <ele>1085.4</ele>
        <time>2025-09-08T07:35:52Z</time>
      </trkpt>
      <trkpt lat="48.10279" lon="7.08033">
        <ele>1084.6</ele>
        <time>2025-09-08T07:35:53Z</time>
      </trkpt>
      <trkpt lat="48.10278" lon="7.08029">
        <ele>1084.2</ele>
        <time>2025-09-08T07:35:54Z</time>
      </trkpt>
      <trkpt lat="48.10276" lon="7.08025">
        <ele>1083.4</ele>
        <time>2025-09-08T07:35:55Z</time>
      </trkpt>
      <trkpt lat="48.10274" lon="7.08023">
        <ele>1082.8</ele>
        <time>2025-09-08T07:35:56Z</time>
      </trkpt>
      <trkpt lat="48.10271" lon="7.08019">
        <ele>1082.2</ele>
        <time>2025-09-08T07:35:57Z</time>
      </trkpt>
      <trkpt lat="48.10269" lon="7.08016">
        <ele>1081.8</ele>
        <time>2025-09-08T07:35:58Z</time>
      </trkpt>
      <trkpt lat="48.10268" lon="7.08012">
        <ele>1081</ele>
        <time>2025-09-08T07:35:59Z</time>
      </trkpt>
      <trkpt lat="48.10268" lon="7.08008">
        <ele>1080.4</ele>
        <time>2025-09-08T07:36:00Z</time>
      </trkpt>
      <trkpt lat="48.10268" lon="7.08004">
        <ele>1079.8</ele>
        <time>2025-09-08T07:36:01Z</time>
      </trkpt>
      <trkpt lat="48.10268" lon="7.08">
        <ele>1079.2</ele>
        <time>2025-09-08T07:36:02Z</time>
      </trkpt>
      <trkpt lat="48.10268" lon="7.07997">
        <ele>1078.4</ele>
        <time>2025-09-08T07:36:03Z</time>
      </trkpt>
      <trkpt lat="48.10268" lon="7.07992">
        <ele>1078</ele>
        <time>2025-09-08T07:36:04Z</time>
      </trkpt>
      <trkpt lat="48.10268" lon="7.07988">
        <ele>1077.8</ele>
        <time>2025-09-08T07:36:05Z</time>
      </trkpt>
      <trkpt lat="48.10267" lon="7.07984">
        <ele>1077.2</ele>
        <time>2025-09-08T07:36:06Z</time>
      </trkpt>
      <trkpt lat="48.10268" lon="7.07979">
        <ele>1076.6</ele>
        <time>2025-09-08T07:36:07Z</time>
      </trkpt>
      <trkpt lat="48.10268" lon="7.07976">
        <ele>1075.8</ele>
        <time>2025-09-08T07:36:08Z</time>
      </trkpt>
      <trkpt lat="48.10268" lon="7.07972">
        <ele>1075.4</ele>
        <time>2025-09-08T07:36:09Z</time>
      </trkpt>
      <trkpt lat="48.10269" lon="7.07967">
        <ele>1074.6</ele>
        <time>2025-09-08T07:36:10Z</time>
      </trkpt>
      <trkpt lat="48.1027" lon="7.07962">
        <ele>1074.6</ele>
        <time>2025-09-08T07:36:11Z</time>
      </trkpt>
      <trkpt lat="48.10271" lon="7.07956">
        <ele>1074.4</ele>
        <time>2025-09-08T07:36:12Z</time>
      </trkpt>
      <trkpt lat="48.10273" lon="7.07951">
        <ele>1073.6</ele>
        <time>2025-09-08T07:36:13Z</time>
      </trkpt>
      <trkpt lat="48.10274" lon="7.07944">
        <ele>1073</ele>
        <time>2025-09-08T07:36:14Z</time>
      </trkpt>
      <trkpt lat="48.10274" lon="7.07936">
        <ele>1072.6</ele>
        <time>2025-09-08T07:36:15Z</time>
      </trkpt>
      <trkpt lat="48.10273" lon="7.07929">
        <ele>1072.2</ele>
        <time>2025-09-08T07:36:16Z</time>
      </trkpt>
      <trkpt lat="48.10271" lon="7.07923">
        <ele>1071.8</ele>
        <time>2025-09-08T07:36:17Z</time>
      </trkpt>
      <trkpt lat="48.10269" lon="7.07919">
        <ele>1071.6</ele>
        <time>2025-09-08T07:36:18Z</time>
      </trkpt>
      <trkpt lat="48.10269" lon="7.07916">
        <ele>1071</ele>
        <time>2025-09-08T07:36:19Z</time>
      </trkpt>
      <trkpt lat="48.10269" lon="7.07913">
        <ele>1070.8</ele>
        <time>2025-09-08T07:36:20Z</time>
      </trkpt>
      <trkpt lat="48.10269" lon="7.07913">
        <ele>1070.8</ele>
        <time>2025-09-08T07:36:21Z</time>
      </trkpt>
      <trkpt lat="48.10269" lon="7.07912">
        <ele>1070.8</ele>
        <time>2025-09-08T07:36:22Z</time>
      </trkpt>
      <trkpt lat="48.10259" lon="7.07903">
        <ele>1071.2</ele>
        <time>2025-09-08T07:39:22Z</time>
      </trkpt>
      <trkpt lat="48.10257" lon="7.079">
        <ele>1071.2</ele>
        <time>2025-09-08T07:39:23Z</time>
      </trkpt>
      <trkpt lat="48.10255" lon="7.07897">
        <ele>1071.2</ele>
        <time>2025-09-08T07:39:24Z</time>
      </trkpt>
      <trkpt lat="48.10253" lon="7.07894">
        <ele>1071</ele>
        <time>2025-09-08T07:39:25Z</time>
      </trkpt>
      <trkpt lat="48.1025" lon="7.07891">
        <ele>1071</ele>
        <time>2025-09-08T07:39:26Z</time>
      </trkpt>
      <trkpt lat="48.10248" lon="7.07888">
        <ele>1071</ele>
        <time>2025-09-08T07:39:27Z</time>
      </trkpt>
      <trkpt lat="48.10244" lon="7.07885">
        <ele>1071</ele>
        <time>2025-09-08T07:39:28Z</time>
      </trkpt>
      <trkpt lat="48.10241" lon="7.07883">
        <ele>1070.8</ele>
        <time>2025-09-08T07:39:29Z</time>
      </trkpt>
      <trkpt lat="48.10237" lon="7.0788">
        <ele>1070.8</ele>
        <time>2025-09-08T07:39:30Z</time>
      </trkpt>
      <trkpt lat="48.10234" lon="7.07879">
        <ele>1070.8</ele>
        <time>2025-09-08T07:39:31Z</time>
      </trkpt>
      <trkpt lat="48.1023" lon="7.07877">
        <ele>1070.8</ele>
        <time>2025-09-08T07:39:32Z</time>
      </trkpt>
      <trkpt lat="48.10226" lon="7.07876">
        <ele>1070.8</ele>
        <time>2025-09-08T07:39:33Z</time>
      </trkpt>
      <trkpt lat="48.10222" lon="7.07874">
        <ele>1070.8</ele>
        <time>2025-09-08T07:39:34Z</time>
      </trkpt>
      <trkpt lat="48.10218" lon="7.07873">
        <ele>1070.6</ele>
        <time>2025-09-08T07:39:35Z</time>
      </trkpt>
      <trkpt lat="48.10214" lon="7.07871">
        <ele>1070.6</ele>
        <time>2025-09-08T07:39:36Z</time>
      </trkpt>
      <trkpt lat="48.10211" lon="7.07868">
        <ele>1070.6</ele>
        <time>2025-09-08T07:39:37Z</time>
      </trkpt>
      <trkpt lat="48.10208" lon="7.07866">
        <ele>1070.6</ele>
        <time>2025-09-08T07:39:38Z</time>
      </trkpt>
      <trkpt lat="48.10205" lon="7.07863">
        <ele>1070.6</ele>
        <time>2025-09-08T07:39:39Z</time>
      </trkpt>
      <trkpt lat="48.10202" lon="7.0786">
        <ele>1070.6</ele>
        <time>2025-09-08T07:39:40Z</time>
      </trkpt>
      <trkpt lat="48.10199" lon="7.07858">
        <ele>1070.6</ele>
        <time>2025-09-08T07:39:41Z</time>
      </trkpt>
      <trkpt lat="48.10197" lon="7.07855">
        <ele>1070.8</ele>
        <time>2025-09-08T07:39:42Z</time>
      </trkpt>
      <trkpt lat="48.10194" lon="7.07853">
        <ele>1070.8</ele>
        <time>2025-09-08T07:39:43Z</time>
      </trkpt>
      <trkpt lat="48.10191" lon="7.07849">
        <ele>1070.8</ele>
        <time>2025-09-08T07:39:44Z</time>
      </trkpt>
      <trkpt lat="48.10189" lon="7.07846">
        <ele>1070.8</ele>
        <time>2025-09-08T07:39:45Z</time>
      </trkpt>
      <trkpt lat="48.10186" lon="7.07844">
        <ele>1070.8</ele>
        <time>2025-09-08T07:39:46Z</time>
      </trkpt>
      <trkpt lat="48.10184" lon="7.07842">
        <ele>1070.8</ele>
        <time>2025-09-08T07:39:47Z</time>
      </trkpt>
      <trkpt lat="48.10182" lon="7.07848">
        <ele>1063.9</ele>
        <time>2025-09-08T07:40:42Z</time>
      </trkpt>
      <trkpt lat="48.10181" lon="7.07853">
        <ele>1063.3</ele>
        <time>2025-09-08T07:40:43Z</time>
      </trkpt>
      <trkpt lat="48.10181" lon="7.0786">
        <ele>1062.6</ele>
        <time>2025-09-08T07:40:44Z</time>
      </trkpt>
      <trkpt lat="48.10182" lon="7.07865">
        <ele>1061.5</ele>
        <time>2025-09-08T07:41:15Z</time>
      </trkpt>
      <trkpt lat="48.10185" lon="7.07869">
        <ele>1060.7</ele>
        <time>2025-09-08T07:41:24Z</time>
      </trkpt>
      <trkpt lat="48.10185" lon="7.07873">
        <ele>1059.8</ele>
        <time>2025-09-08T07:41:25Z</time>
      </trkpt>
      <trkpt lat="48.10186" lon="7.07875">
        <ele>1059.3</ele>
        <time>2025-09-08T07:41:44Z</time>
      </trkpt>
      <trkpt lat="48.10188" lon="7.07881">
        <ele>1058</ele>
        <time>2025-09-08T07:41:45Z</time>
      </trkpt>
      <trkpt lat="48.1019" lon="7.07885">
        <ele>1056.9</ele>
        <time>2025-09-08T07:41:46Z</time>
      </trkpt>
      <trkpt lat="48.10192" lon="7.07891">
        <ele>1055.6</ele>
        <time>2025-09-08T07:41:47Z</time>
      </trkpt>
      <trkpt lat="48.10194" lon="7.07895">
        <ele>1054.9</ele>
      </trkpt>
      <trkpt lat="48.10196" lon="7.07903">
        <ele>1062.2</ele>
        <time>2025-09-08T07:42:22Z</time>
      </trkpt>
      <trkpt lat="48.10197" lon="7.07905">
        <ele>1062.2</ele>
        <time>2025-09-08T07:42:23Z</time>
      </trkpt>
      <trkpt lat="48.10198" lon="7.07907">
        <ele>1062.2</ele>
        <time>2025-09-08T07:42:24Z</time>
      </trkpt>
      <trkpt lat="48.10198" lon="7.07908">
        <ele>1062</ele>
        <time>2025-09-08T07:42:25Z</time>
      </trkpt>
      <trkpt lat="48.10199" lon="7.07908">
        <ele>1061.8</ele>
        <time>2025-09-08T07:42:26Z</time>
      </trkpt>
      <trkpt lat="48.10199" lon="7.07909">
        <ele>1061.4</ele>
        <time>2025-09-08T07:42:27Z</time>
      </trkpt>
      <trkpt lat="48.10199" lon="7.0791">
        <ele>1061.2</ele>
        <time>2025-09-08T07:42:28Z</time>
      </trkpt>
      <trkpt lat="48.10199" lon="7.07911">
        <ele>1061</ele>
        <time>2025-09-08T07:42:29Z</time>
      </trkpt>
      <trkpt lat="48.10199" lon="7.07912">
        <ele>1061</ele>
        <time>2025-09-08T07:42:30Z</time>
      </trkpt>
      <trkpt lat="48.102" lon="7.07914">
        <ele>1060.6</ele>
        <time>2025-09-08T07:42:31Z</time>
      </trkpt>
      <trkpt lat="48.10201" lon="7.07915">
        <ele>1060.6</ele>
        <time>2025-09-08T07:42:32Z</time>
      </trkpt>
      <trkpt lat="48.10202" lon="7.07916">
        <ele>1060.4</ele>
        <time>2025-09-08T07:42:33Z</time>
      </trkpt>
      <trkpt lat="48.10202" lon="7.07917">
        <ele>1060.2</ele>
        <time>2025-09-08T07:42:34Z</time>
      </trkpt>
      <trkpt lat="48.10202" lon="7.07919">
        <ele>1059.8</ele>
        <time>2025-09-08T07:42:35Z</time>
      </trkpt>
      <trkpt lat="48.10203" lon="7.0792">
        <ele>1059.6</ele>
        <time>2025-09-08T07:42:36Z</time>
      </trkpt>
      <trkpt lat="48.10203" lon="7.07921">
        <ele>1059.6</ele>
        <time>2025-09-08T07:42:37Z</time>
      </trkpt>
      <trkpt lat="48.10203" lon="7.07922">
        <ele>1059.4</ele>
        <time>2025-09-08T07:42:38Z</time>
      </trkpt>
      <trkpt lat="48.10204" lon="7.07925">
        <ele>1059.4</ele>
        <time>2025-09-08T07:42:39Z</time>
      </trkpt>
      <trkpt lat="48.10206" lon="7.07928">
        <ele>1059.2</ele>
        <time>2025-09-08T07:42:40Z</time>
      </trkpt>
      <trkpt lat="48.10207" lon="7.07932">
        <ele>1058.8</ele>
        <time>2025-09-08T07:42:41Z</time>
      </trkpt>
      <trkpt lat="48.10208" lon="7.07934">
        <ele>1058.8</ele>
        <time>2025-09-08T07:42:42Z</time>
      </trkpt>
      <trkpt lat="48.10208" lon="7.07935">
        <ele>1058.6</ele>
        <time>2025-09-08T07:42:43Z</time>
      </trkpt>
      <trkpt lat="48.10208" lon="7.07936">
        <ele>1058.4</ele>
        <time>2025-09-08T07:42:44Z</time>
      </trkpt>
      <trkpt lat="48.10208" lon="7.07936">
        <ele>1058.2</ele>
        <time>2025-09-08T07:42:45Z</time>
      </trkpt>
      <trkpt lat="48.10208" lon="7.07937">
        <ele>1058.2</ele>
        <time>2025-09-08T07:42:46Z</time>
      </trkpt>
      <trkpt lat="48.10209" lon="7.07938">
        <ele>1058</ele>
        <time>2025-09-08T07:42:47Z</time>
      </trkpt>
      <trkpt lat="48.10209" lon="7.07939">
        <ele>1058</ele>
        <time>2025-09-08T07:42:48Z</time>
      </trkpt>
      <trkpt lat="48.10211" lon="7.0794">
        <ele>1058</ele>
        <time>2025-09-08T07:42:49Z</time>
      </trkpt>
      <trkpt lat="48.10211" lon="7.0794">
        <ele>1058</ele>
        <time>2025-09-08T07:42:50Z</time>
      </trkpt>
      <trkpt lat="48.10212" lon="7.07941">
        <ele>1058</ele>
        <time>2025-09-08T07:42:51Z</time>
      </trkpt>
      <trkpt lat="48.10212" lon="7.07942">
        <ele>1057.8</ele>
        <time>2025-09-08T07:42:52Z</time>
      </trkpt>
      <trkpt lat="48.10212" lon="7.07942">
        <ele>1057.8</ele>
        <time>2025-09-08T07:42:53Z</time>
      </trkpt>
      <trkpt lat="48.10212" lon="7.07944">
        <ele>1057.6</ele>
        <time>2025-09-08T07:42:54Z</time>
      </trkpt>
      <trkpt lat="48.10211" lon="7.07945">
        <ele>1057.6</ele>
        <time>2025-09-08T07:42:55Z</time>
      </trkpt>
      <trkpt lat="48.10211" lon="7.07946">
        <ele>1057.4</ele>
        <time>2025-09-08T07:42:56Z</time>
      </trkpt>
      <trkpt lat="48.1021" lon="7.07947">
        <ele>1057.4</ele>
        <time>2025-09-08T07:42:57Z</time>
      </trkpt>
      <trkpt lat="48.10209" lon="7.07949">
        <ele>1057.2</ele>
        <time>2025-09-08T07:42:58Z</time>
      </trkpt>
      <trkpt lat="48.10209" lon="7.07949">
        <ele>1057</ele>
        <time>2025-09-08T07:42:59Z</time>
      </trkpt>
      <trkpt lat="48.10209" lon="7.07951">
        <ele>1056.8</ele>
        <time>2025-09-08T07:43:00Z</time>
      </trkpt>
      <trkpt lat="48.10209" lon="7.07951">
        <ele>1056.8</ele>
        <time>2025-09-08T07:43:01Z</time>
      </trkpt>
      <trkpt lat="48.10209" lon="7.07951">
        <ele>1056.6</ele>
        <time>2025-09-08T07:43:02Z</time>
      </trkpt>
      <trkpt lat="48.10208" lon="7.07954">
        <ele>1056.4</ele>
        <time>2025-09-08T07:43:03Z</time>
      </trkpt>
      <trkpt lat="48.10208" lon="7.07954">
        <ele>1056.4</ele>
        <time>2025-09-08T07:43:04Z</time>
      </trkpt>
      <trkpt lat="48.10208" lon="7.07954">
        <ele>1056.4</ele>
        <time>2025-09-08T07:43:05Z</time>
      </trkpt>
      <trkpt lat="48.10208" lon="7.07955">
        <ele>1056.2</ele>
        <time>2025-09-08T07:43:06Z</time>
      </trkpt>
      <trkpt lat="48.10207" lon="7.07956">
        <ele>1056.2</ele>
        <time>2025-09-08T07:43:07Z</time>
      </trkpt>
      <trkpt lat="48.10206" lon="7.07957">
        <ele>1056.2</ele>
        <time>2025-09-08T07:43:08Z</time>
      </trkpt>
      <trkpt lat="48.10206" lon="7.07959">
        <ele>1056.2</ele>
        <time>2025-09-08T07:43:09Z</time>
      </trkpt>
      <trkpt lat="48.10205" lon="7.07959">
        <ele>1056.2</ele>
        <time>2025-09-08T07:43:10Z</time>
      </trkpt>
      <trkpt lat="48.10205" lon="7.0796">
        <ele>1056.2</ele>
        <time>2025-09-08T07:43:11Z</time>
      </trkpt>
      <trkpt lat="48.10205" lon="7.07959">
        <ele>1056.2</ele>
        <time>2025-09-08T07:43:12Z</time>
      </trkpt>
      <trkpt lat="48.10199" lon="7.07966">
        <ele>1055.6</ele>
        <time>2025-09-08T07:43:23Z</time>
      </trkpt>
      <trkpt lat="48.10197" lon="7.07967">
        <ele>1055.6</ele>
        <time>2025-09-08T07:43:24Z</time>
      </trkpt>
      <trkpt lat="48.10195" lon="7.07967">
        <ele>1055.4</ele>
        <time>2025-09-08T07:43:25Z</time>
      </trkpt>
      <trkpt lat="48.10193" lon="7.07967">
        <ele>1055</ele>
        <time>2025-09-08T07:43:26Z</time>
      </trkpt>
      <trkpt lat="48.10192" lon="7.07967">
        <ele>1055</ele>
        <time>2025-09-08T07:43:27Z</time>
      </trkpt>
      <trkpt lat="48.1019" lon="7.07967">
        <ele>1054.8</ele>
        <time>2025-09-08T07:43:28Z</time>
      </trkpt>
      <trkpt lat="48.10189" lon="7.07969">
        <ele>1054.4</ele>
        <time>2025-09-08T07:43:29Z</time>
      </trkpt>
      <trkpt lat="48.10188" lon="7.07972">
        <ele>1054.2</ele>
        <time>2025-09-08T07:43:30Z</time>
      </trkpt>
      <trkpt lat="48.10187" lon="7.07974">
        <ele>1054</ele>
        <time>2025-09-08T07:43:31Z</time>
      </trkpt>
      <trkpt lat="48.10186" lon="7.07976">
        <ele>1053.8</ele>
        <time>2025-09-08T07:43:32Z</time>
      </trkpt>
      <trkpt lat="48.10186" lon="7.07979">
        <ele>1053.6</ele>
        <time>2025-09-08T07:43:33Z</time>
      </trkpt>
      <trkpt lat="48.10185" lon="7.07981">
        <ele>1053.6</ele>
        <time>2025-09-08T07:43:34Z</time>
      </trkpt>
      <trkpt lat="48.10183" lon="7.07982">
        <ele>1053.2</ele>
        <time>2025-09-08T07:43:35Z</time>
      </trkpt>
      <trkpt lat="48.10181" lon="7.07983">
        <ele>1053</ele>
        <time>2025-09-08T07:43:36Z</time>
      </trkpt>
      <trkpt lat="48.10179" lon="7.07984">
        <ele>1052.6</ele>
        <time>2025-09-08T07:43:37Z</time>
      </trkpt>
      <trkpt lat="48.10178" lon="7.07984">
        <ele>1052.4</ele>
        <time>2025-09-08T07:43:38Z</time>
      </trkpt>
      <trkpt lat="48.10177" lon="7.07986">
        <ele>1052.4</ele>
        <time>2025-09-08T07:43:39Z</time>
      </trkpt>
      <trkpt lat="48.10176" lon="7.07987">
        <ele>1052</ele>
        <time>2025-09-08T07:43:40Z</time>
      </trkpt>
      <trkpt lat="48.10176" lon="7.07988">
        <ele>1051.8</ele>
        <time>2025-09-08T07:43:41Z</time>
      </trkpt>
      <trkpt lat="48.10176" lon="7.07988">
        <ele>1051.4</ele>
        <time>2025-09-08T07:43:42Z</time>
      </trkpt>
      <trkpt lat="48.10176" lon="7.07989">
        <ele>1051.2</ele>
        <time>2025-09-08T07:43:43Z</time>
      </trkpt>
      <trkpt lat="48.10175" lon="7.0799">
        <ele>1051.2</ele>
        <time>2025-09-08T07:43:44Z</time>
      </trkpt>
      <trkpt lat="48.10175" lon="7.07992">
        <ele>1051.2</ele>
        <time>2025-09-08T07:43:45Z</time>
      </trkpt>
      <trkpt lat="48.10174" lon="7.07994">
        <ele>1050.8</ele>
        <time>2025-09-08T07:43:46Z</time>
      </trkpt>
      <trkpt lat="48.10174" lon="7.07996">
        <ele>1050.8</ele>
        <time>2025-09-08T07:43:47Z</time>
      </trkpt>
      <trkpt lat="48.10172" lon="7.07998">
        <ele>1050.6</ele>
        <time>2025-09-08T07:43:48Z</time>
      </trkpt>
      <trkpt lat="48.10171" lon="7.07999">
        <ele>1050.4</ele>
        <time>2025-09-08T07:43:49Z</time>
      </trkpt>
      <trkpt lat="48.10169" lon="7.08">
        <ele>1050.4</ele>
        <time>2025-09-08T07:43:50Z</time>
      </trkpt>
      <trkpt lat="48.10167" lon="7.08002">
        <ele>1050</ele>
        <time>2025-09-08T07:43:51Z</time>
      </trkpt>
      <trkpt lat="48.10165" lon="7.08003">
        <ele>1049.8</ele>
        <time>2025-09-08T07:43:52Z</time>
      </trkpt>
      <trkpt lat="48.10164" lon="7.08005">
        <ele>1049.6</ele>
        <time>2025-09-08T07:43:53Z</time>
      </trkpt>
      <trkpt lat="48.10162" lon="7.08008">
        <ele>1049.2</ele>
        <time>2025-09-08T07:43:54Z</time>
      </trkpt>
      <trkpt lat="48.1016" lon="7.08009">
        <ele>1049</ele>
        <time>2025-09-08T07:43:55Z</time>
      </trkpt>
      <trkpt lat="48.10158" lon="7.0801">
        <ele>1049</ele>
        <time>2025-09-08T07:43:56Z</time>
      </trkpt>
      <trkpt lat="48.10156" lon="7.08012">
        <ele>1048.8</ele>
        <time>2025-09-08T07:43:57Z</time>
      </trkpt>
      <trkpt lat="48.10154" lon="7.08014">
        <ele>1048.6</ele>
        <time>2025-09-08T07:43:58Z</time>
      </trkpt>
      <trkpt lat="48.10152" lon="7.08015">
        <ele>1048.4</ele>
        <time>2025-09-08T07:43:59Z</time>
      </trkpt>
      <trkpt lat="48.1015" lon="7.08016">
        <ele>1048.2</ele>
        <time>2025-09-08T07:44:00Z</time>
      </trkpt>
      <trkpt lat="48.10148" lon="7.08017">
        <ele>1048</ele>
        <time>2025-09-08T07:44:01Z</time>
      </trkpt>
      <trkpt lat="48.10147" lon="7.08019">
        <ele>1047.8</ele>
        <time>2025-09-08T07:44:02Z</time>
      </trkpt>
      <trkpt lat="48.10145" lon="7.08021">
        <ele>1047.6</ele>
        <time>2025-09-08T07:44:03Z</time>
      </trkpt>
      <trkpt lat="48.10143" lon="7.08025">
        <ele>1047.4</ele>
        <time>2025-09-08T07:44:04Z</time>
      </trkpt>
      <trkpt lat="48.10141" lon="7.08027">
        <ele>1047.2</ele>
        <time>2025-09-08T07:44:05Z</time>
      </trkpt>
      <trkpt lat="48.1014" lon="7.08031">
        <ele>1047</ele>
        <time>2025-09-08T07:44:06Z</time>
      </trkpt>
      <trkpt lat="48.10139" lon="7.08034">
        <ele>1046.6</ele>
        <time>2025-09-08T07:44:07Z</time>
      </trkpt>
      <trkpt lat="48.10137" lon="7.08037">
        <ele>1046.2</ele>
        <time>2025-09-08T07:44:08Z</time>
      </trkpt>
      <trkpt lat="48.10136" lon="7.0804">
        <ele>1045.8</ele>
        <time>2025-09-08T07:44:09Z</time>
      </trkpt>
      <trkpt lat="48.10134" lon="7.08043">
        <ele>1045.4</ele>
        <time>2025-09-08T07:44:10Z</time>
      </trkpt>
      <trkpt lat="48.10132" lon="7.08045">
        <ele>1044.8</ele>
        <time>2025-09-08T07:44:11Z</time>
      </trkpt>
      <trkpt lat="48.10132" lon="7.08045">
        <ele>1044.6</ele>
        <time>2025-09-08T07:44:12Z</time>
      </trkpt>
      <trkpt lat="48.10132" lon="7.08045">
        <ele>1044.2</ele>
        <time>2025-09-08T07:44:13Z</time>
      </trkpt>
      <trkpt lat="48.10132" lon="7.08059">
        <ele>1043</ele>
        <time>2025-09-08T07:44:24Z</time>
      </trkpt>
      <trkpt lat="48.10132" lon="7.08062">
        <ele>1043</ele>
        <time>2025-09-08T07:44:25Z</time>
      </trkpt>
      <trkpt lat="48.10133" lon="7.08064">
        <ele>1043</ele>
        <time>2025-09-08T07:44:26Z</time>
      </trkpt>
      <trkpt lat="48.10134" lon="7.08066">
        <ele>1042.8</ele>
        <time>2025-09-08T07:44:27Z</time>
      </trkpt>
      <trkpt lat="48.10135" lon="7.08066">
        <ele>1042.6</ele>
        <time>2025-09-08T07:44:28Z</time>
      </trkpt>
      <trkpt lat="48.10135" lon="7.08067">
        <ele>1042.4</ele>
        <time>2025-09-08T07:44:29Z</time>
      </trkpt>
      <trkpt lat="48.10135" lon="7.08068">
        <ele>1042.2</ele>
        <time>2025-09-08T07:44:30Z</time>
      </trkpt>
      <trkpt lat="48.10135" lon="7.08069">
        <ele>1042</ele>
        <time>2025-09-08T07:44:31Z</time>
      </trkpt>
      <trkpt lat="48.10135" lon="7.0807">
        <ele>1042</ele>
        <time>2025-09-08T07:44:32Z</time>
      </trkpt>
      <trkpt lat="48.10135" lon="7.0807">
        <ele>1041.8</ele>
        <time>2025-09-08T07:44:33Z</time>
      </trkpt>
      <trkpt lat="48.10135" lon="7.08071">
        <ele>1041.8</ele>
        <time>2025-09-08T07:44:34Z</time>
      </trkpt>
      <trkpt lat="48.10135" lon="7.08072">
        <ele>1041.8</ele>
        <time>2025-09-08T07:44:35Z</time>
      </trkpt>
      <trkpt lat="48.10134" lon="7.08073">
        <ele>1041.8</ele>
        <time>2025-09-08T07:44:36Z</time>
      </trkpt>
      <trkpt lat="48.10125" lon="7.08089">
        <ele>1041</ele>
        <time>2025-09-08T07:44:46Z</time>
      </trkpt>
      <trkpt lat="48.10124" lon="7.08089">
        <ele>1041</ele>
        <time>2025-09-08T07:44:47Z</time>
      </trkpt>
      <trkpt lat="48.10123" lon="7.08091">
        <ele>1040.8</ele>
        <time>2025-09-08T07:44:48Z</time>
      </trkpt>
      <trkpt lat="48.10122" lon="7.08093">
        <ele>1040.6</ele>
        <time>2025-09-08T07:44:49Z</time>
      </trkpt>
      <trkpt lat="48.10121" lon="7.08096">
        <ele>1040.2</ele>
        <time>2025-09-08T07:44:50Z</time>
      </trkpt>
      <trkpt lat="48.10121" lon="7.08098">
        <ele>1040</ele>
        <time>2025-09-08T07:44:51Z</time>
      </trkpt>
      <trkpt lat="48.1012" lon="7.08099">
        <ele>1039.8</ele>
        <time>2025-09-08T07:44:52Z</time>
      </trkpt>
      <trkpt lat="48.10119" lon="7.08101">
        <ele>1039.6</ele>
        <time>2025-09-08T07:44:53Z</time>
      </trkpt>
      <trkpt lat="48.10119" lon="7.08102">
        <ele>1039.4</ele>
        <time>2025-09-08T07:44:54Z</time>
      </trkpt>
      <trkpt lat="48.1012" lon="7.08102">
        <ele>1039.2</ele>
        <time>2025-09-08T07:44:55Z</time>
      </trkpt>
      <trkpt lat="48.10113" lon="7.0811">
        <ele>1039</ele>
        <time>2025-09-08T07:45:51Z</time>
      </trkpt>
      <trkpt lat="48.1011" lon="7.08113">
        <ele>1039</ele>
        <time>2025-09-08T07:45:52Z</time>
      </trkpt>
      <trkpt lat="48.10106" lon="7.08115">
        <ele>1039</ele>
        <time>2025-09-08T07:45:53Z</time>
      </trkpt>
      <trkpt lat="48.10102" lon="7.08118">
        <ele>1038.8</ele>
        <time>2025-09-08T07:45:54Z</time>
      </trkpt>
      <trkpt lat="48.10099" lon="7.08122">
        <ele>1038</ele>
        <time>2025-09-08T07:45:55Z</time>
      </trkpt>
      <trkpt lat="48.10096" lon="7.08127">
        <ele>1037.6</ele>
        <time>2025-09-08T07:45:56Z</time>
      </trkpt>
      <trkpt lat="48.10094" lon="7.08133">
        <ele>1037.4</ele>
        <time>2025-09-08T07:45:57Z</time>
      </trkpt>
      <trkpt lat="48.10091" lon="7.08137">
        <ele>1036.6</ele>
        <time>2025-09-08T07:45:58Z</time>
      </trkpt>
      <trkpt lat="48.10087" lon="7.08142">
        <ele>1035.8</ele>
        <time>2025-09-08T07:45:59Z</time>
      </trkpt>
      <trkpt lat="48.10083" lon="7.08145">
        <ele>1035.2</ele>
        <time>2025-09-08T07:46:00Z</time>
      </trkpt>
      <trkpt lat="48.10081" lon="7.0815">
        <ele>1034.8</ele>
        <time>2025-09-08T07:46:01Z</time>
      </trkpt>
      <trkpt lat="48.10078" lon="7.08154">
        <ele>1033.8</ele>
        <time>2025-09-08T07:46:02Z</time>
      </trkpt>
      <trkpt lat="48.10077" lon="7.08159">
        <ele>1032.8</ele>
        <time>2025-09-08T07:46:03Z</time>
      </trkpt>
      <trkpt lat="48.10077" lon="7.08165">
        <ele>1032.4</ele>
        <time>2025-09-08T07:46:04Z</time>
      </trkpt>
      <trkpt lat="48.10078" lon="7.08171">
        <ele>1032</ele>
        <time>2025-09-08T07:46:05Z</time>
      </trkpt>
      <trkpt lat="48.10078" lon="7.08177">
        <ele>1031.8</ele>
        <time>2025-09-08T07:46:06Z</time>
      </trkpt>
      <trkpt lat="48.10076" lon="7.08184">
        <ele>1031.2</ele>
        <time>2025-09-08T07:46:07Z</time>
      </trkpt>
      <trkpt lat="48.10073" lon="7.08189">
        <ele>1030.6</ele>
        <time>2025-09-08T07:46:08Z</time>
      </trkpt>
      <trkpt lat="48.10066" lon="7.08204">
        <ele>1025.2</ele>
        <time>2025-09-08T07:46:25Z</time>
      </trkpt>
      <trkpt lat="48.10067" lon="7.08207">
        <ele>1025.2</ele>
        <time>2025-09-08T07:46:26Z</time>
      </trkpt>
      <trkpt lat="48.10067" lon="7.08212">
        <ele>1025</ele>
        <time>2025-09-08T07:46:27Z</time>
      </trkpt>
      <trkpt lat="48.10067" lon="7.08217">
        <ele>1025</ele>
        <time>2025-09-08T07:46:28Z</time>
      </trkpt>
      <trkpt lat="48.10066" lon="7.08222">
        <ele>1025</ele>
        <time>2025-09-08T07:46:29Z</time>
      </trkpt>
      <trkpt lat="48.10064" lon="7.08227">
        <ele>1025</ele>
        <time>2025-09-08T07:46:30Z</time>
      </trkpt>
      <trkpt lat="48.10062" lon="7.08231">
        <ele>1024.8</ele>
        <time>2025-09-08T07:46:31Z</time>
      </trkpt>
      <trkpt lat="48.10059" lon="7.08233">
        <ele>1024.6</ele>
        <time>2025-09-08T07:46:32Z</time>
      </trkpt>
      <trkpt lat="48.10056" lon="7.08233">
        <ele>1023.8</ele>
        <time>2025-09-08T07:46:33Z</time>
      </trkpt>
      <trkpt lat="48.10053" lon="7.0823">
        <ele>1023.6</ele>
        <time>2025-09-08T07:46:34Z</time>
      </trkpt>
      <trkpt lat="48.10051" lon="7.08227">
        <ele>1023.4</ele>
        <time>2025-09-08T07:46:35Z</time>
      </trkpt>
      <trkpt lat="48.10048" lon="7.08223">
        <ele>1023</ele>
        <time>2025-09-08T07:46:36Z</time>
      </trkpt>
      <trkpt lat="48.10045" lon="7.08219">
        <ele>1022.6</ele>
        <time>2025-09-08T07:46:37Z</time>
      </trkpt>
      <trkpt lat="48.10042" lon="7.08217">
        <ele>1022</ele>
        <time>2025-09-08T07:46:38Z</time>
      </trkpt>
      <trkpt lat="48.10039" lon="7.08215">
        <ele>1021.4</ele>
        <time>2025-09-08T07:46:39Z</time>
      </trkpt>
      <trkpt lat="48.10037" lon="7.08216">
        <ele>1020.4</ele>
        <time>2025-09-08T07:46:40Z</time>
      </trkpt>
      <trkpt lat="48.10036" lon="7.08218">
        <ele>1019.8</ele>
        <time>2025-09-08T07:46:41Z</time>
      </trkpt>
      <trkpt lat="48.10037" lon="7.08221">
        <ele>1019</ele>
        <time>2025-09-08T07:46:42Z</time>
      </trkpt>
      <trkpt lat="48.10038" lon="7.08223">
        <ele>1018.8</ele>
        <time>2025-09-08T07:46:43Z</time>
      </trkpt>
      <trkpt lat="48.10037" lon="7.08225">
        <ele>1018.8</ele>
        <time>2025-09-08T07:46:44Z</time>
      </trkpt>
      <trkpt lat="48.10037" lon="7.08226">
        <ele>1018.6</ele>
        <time>2025-09-08T07:46:45Z</time>
      </trkpt>
      <trkpt lat="48.10037" lon="7.08227">
        <ele>1018.4</ele>
        <time>2025-09-08T07:46:46Z</time>
      </trkpt>
      <trkpt lat="48.10036" lon="7.08228">
        <ele>1017.8</ele>
        <time>2025-09-08T07:46:47Z</time>
      </trkpt>
      <trkpt lat="48.10036" lon="7.0823">
        <ele>1017.6</ele>
        <time>2025-09-08T07:46:48Z</time>
      </trkpt>
      <trkpt lat="48.10036" lon="7.08232">
        <ele>1017.4</ele>
        <time>2025-09-08T07:46:49Z</time>
      </trkpt>
      <trkpt lat="48.10036" lon="7.08234">
        <ele>1017.2</ele>
        <time>2025-09-08T07:46:50Z</time>
      </trkpt>
      <trkpt lat="48.10036" lon="7.08234">
        <ele>1017</ele>
        <time>2025-09-08T07:46:51Z</time>
      </trkpt>
      <trkpt lat="48.10035" lon="7.08235">
        <ele>1016.8</ele>
        <time>2025-09-08T07:46:52Z</time>
      </trkpt>
      <trkpt lat="48.10034" lon="7.08236">
        <ele>1016.4</ele>
        <time>2025-09-08T07:46:53Z</time>
      </trkpt>
      <trkpt lat="48.10032" lon="7.08237">
        <ele>1016.2</ele>
        <time>2025-09-08T07:46:54Z</time>
      </trkpt>
      <trkpt lat="48.1003" lon="7.08237">
        <ele>1016</ele>
        <time>2025-09-08T07:46:55Z</time>
      </trkpt>
      <trkpt lat="48.10029" lon="7.08238">
        <ele>1015.6</ele>
        <time>2025-09-08T07:46:56Z</time>
      </trkpt>
      <trkpt lat="48.10028" lon="7.08239">
        <ele>1015.4</ele>
        <time>2025-09-08T07:46:57Z</time>
      </trkpt>
      <trkpt lat="48.10026" lon="7.0824">
        <ele>1015.2</ele>
        <time>2025-09-08T07:46:58Z</time>
      </trkpt>
      <trkpt lat="48.10023" lon="7.08241">
        <ele>1014.8</ele>
        <time>2025-09-08T07:46:59Z</time>
      </trkpt>
      <trkpt lat="48.10022" lon="7.08241">
        <ele>1014.2</ele>
        <time>2025-09-08T07:47:00Z</time>
      </trkpt>
      <trkpt lat="48.10021" lon="7.08241">
        <ele>1013.6</ele>
        <time>2025-09-08T07:47:01Z</time>
      </trkpt>
      <trkpt lat="48.1002" lon="7.08242">
        <ele>1013</ele>
        <time>2025-09-08T07:47:02Z</time>
      </trkpt>
      <trkpt lat="48.10021" lon="7.08245">
        <ele>1012.6</ele>
        <time>2025-09-08T07:47:03Z</time>
      </trkpt>
      <trkpt lat="48.1002" lon="7.08247">
        <ele>1012.2</ele>
        <time>2025-09-08T07:47:04Z</time>
      </trkpt>
      <trkpt lat="48.1002" lon="7.08248">
        <ele>1012</ele>
        <time>2025-09-08T07:47:05Z</time>
      </trkpt>
      <trkpt lat="48.10019" lon="7.0825">
        <ele>1012</ele>
        <time>2025-09-08T07:47:06Z</time>
      </trkpt>
      <trkpt lat="48.10017" lon="7.08251">
        <ele>1011.6</ele>
        <time>2025-09-08T07:47:07Z</time>
      </trkpt>
      <trkpt lat="48.10015" lon="7.08253">
        <ele>1011.6</ele>
        <time>2025-09-08T07:47:08Z</time>
      </trkpt>
      <trkpt lat="48.10012" lon="7.08254">
        <ele>1011.4</ele>
        <time>2025-09-08T07:47:09Z</time>
      </trkpt>
      <trkpt lat="48.10011" lon="7.08253">
        <ele>1010.8</ele>
        <time>2025-09-08T07:47:10Z</time>
      </trkpt>
      <trkpt lat="48.1001" lon="7.08253">
        <ele>1010.6</ele>
        <time>2025-09-08T07:47:11Z</time>
      </trkpt>
      <trkpt lat="48.10009" lon="7.08251">
        <ele>1010</ele>
        <time>2025-09-08T07:47:12Z</time>
      </trkpt>
      <trkpt lat="48.10008" lon="7.08249">
        <ele>1009.6</ele>
        <time>2025-09-08T07:47:13Z</time>
      </trkpt>
      <trkpt lat="48.10008" lon="7.08246">
        <ele>1009.4</ele>
        <time>2025-09-08T07:47:14Z</time>
      </trkpt>
      <trkpt lat="48.10006" lon="7.08245">
        <ele>1009</ele>
        <time>2025-09-08T07:47:15Z</time>
      </trkpt>
      <trkpt lat="48.10004" lon="7.08244">
        <ele>1008.6</ele>
        <time>2025-09-08T07:47:16Z</time>
      </trkpt>
      <trkpt lat="48.10002" lon="7.08244">
        <ele>1008.2</ele>
        <time>2025-09-08T07:47:17Z</time>
      </trkpt>
      <trkpt lat="48.10002" lon="7.08243">
        <ele>1008.2</ele>
        <time>2025-09-08T07:47:18Z</time>
      </trkpt>
      <trkpt lat="48.10002" lon="7.08243">
        <ele>1008</ele>
        <time>2025-09-08T07:47:19Z</time>
      </trkpt>
      <trkpt lat="48.1" lon="7.08243">
        <ele>1005</ele>
        <time>2025-09-08T07:47:25Z</time>
      </trkpt>
      <trkpt lat="48.09997" lon="7.08243">
        <ele>1005</ele>
        <time>2025-09-08T07:47:26Z</time>
      </trkpt>
      <trkpt lat="48.09995" lon="7.08245">
        <ele>1005</ele>
        <time>2025-09-08T07:47:27Z</time>
      </trkpt>
      <trkpt lat="48.09992" lon="7.08247">
        <ele>1005.2</ele>
        <time>2025-09-08T07:47:28Z</time>
      </trkpt>
      <trkpt lat="48.09989" lon="7.08249">
        <ele>1005.4</ele>
        <time>2025-09-08T07:47:29Z</time>
      </trkpt>
      <trkpt lat="48.09986" lon="7.08251">
        <ele>1005.4</ele>
        <time>2025-09-08T07:47:30Z</time>
      </trkpt>
      <trkpt lat="48.09983" lon="7.08252">
        <ele>1005.4</ele>
        <time>2025-09-08T07:47:31Z</time>
      </trkpt>
      <trkpt lat="48.09979" lon="7.08254">
        <ele>1004.4</ele>
        <time>2025-09-08T07:47:32Z</time>
      </trkpt>
      <trkpt lat="48.09976" lon="7.08256">
        <ele>1004</ele>
        <time>2025-09-08T07:47:33Z</time>
      </trkpt>
      <trkpt lat="48.09973" lon="7.08258">
        <ele>1003</ele>
        <time>2025-09-08T07:47:34Z</time>
      </trkpt>
      <trkpt lat="48.0997" lon="7.0826">
        <ele>1002.2</ele>
        <time>2025-09-08T07:47:35Z</time>
      </trkpt>
      <trkpt lat="48.09968" lon="7.08263">
        <ele>1001.8</ele>
        <time>2025-09-08T07:47:36Z</time>
      </trkpt>
      <trkpt lat="48.09966" lon="7.08264">
        <ele>1001.2</ele>
        <time>2025-09-08T07:47:37Z</time>
      </trkpt>
      <trkpt lat="48.09964" lon="7.08267">
        <ele>1000.2</ele>
        <time>2025-09-08T07:47:38Z</time>
      </trkpt>
      <trkpt lat="48.09962" lon="7.08268">
        <ele>999.8</ele>
        <time>2025-09-08T07:47:39Z</time>
      </trkpt>
      <trkpt lat="48.0996" lon="7.08269">
        <ele>999.2</ele>
        <time>2025-09-08T07:47:40Z</time>
      </trkpt>
      <trkpt lat="48.09958" lon="7.0827">
        <ele>998.8</ele>
        <time>2025-09-08T07:47:41Z</time>
      </trkpt>
      <trkpt lat="48.09957" lon="7.08271">
        <ele>998.2</ele>
        <time>2025-09-08T07:47:42Z</time>
      </trkpt>
      <trkpt lat="48.09955" lon="7.08272">
        <ele>997.4</ele>
        <time>2025-09-08T07:47:43Z</time>
      </trkpt>
      <trkpt lat="48.09952" lon="7.08273">
        <ele>996.8</ele>
        <time>2025-09-08T07:47:44Z</time>
      </trkpt>
      <trkpt lat="48.0995" lon="7.08274">
        <ele>996.4</ele>
        <time>2025-09-08T07:47:45Z</time>
      </trkpt>
      <trkpt lat="48.09948" lon="7.08276">
        <ele>995.6</ele>
        <time>2025-09-08T07:47:46Z</time>
      </trkpt>
      <trkpt lat="48.09946" lon="7.08276">
        <ele>994.6</ele>
        <time>2025-09-08T07:47:47Z</time>
      </trkpt>
      <trkpt lat="48.09944" lon="7.08277">
        <ele>993.6</ele>
        <time>2025-09-08T07:47:48Z</time>
      </trkpt>
      <trkpt lat="48.09942" lon="7.08279">
        <ele>993</ele>
        <time>2025-09-08T07:47:49Z</time>
      </trkpt>
      <trkpt lat="48.0994" lon="7.08281">
        <ele>992</ele>
        <time>2025-09-08T07:47:50Z</time>
      </trkpt>
      <trkpt lat="48.09938" lon="7.08282">
        <ele>991.2</ele>
        <time>2025-09-08T07:47:51Z</time>
      </trkpt>
      <trkpt lat="48.09936" lon="7.08285">
        <ele>990.4</ele>
        <time>2025-09-08T07:47:52Z</time>
      </trkpt>
      <trkpt lat="48.09934" lon="7.08287">
        <ele>989.8</ele>
        <time>2025-09-08T07:47:53Z</time>
      </trkpt>
      <trkpt lat="48.09931" lon="7.08288">
        <ele>989</ele>
        <time>2025-09-08T07:47:54Z</time>
      </trkpt>
      <trkpt lat="48.0993" lon="7.08288">
        <ele>988.2</ele>
        <time>2025-09-08T07:47:55Z</time>
      </trkpt>
      <trkpt lat="48.09928" lon="7.08288">
        <ele>987.8</ele>
        <time>2025-09-08T07:47:56Z</time>
      </trkpt>
      <trkpt lat="48.09928" lon="7.08288">
        <ele>987</ele>
        <time>2025-09-08T07:47:57Z</time>
      </trkpt>
      <trkpt lat="48.09919" lon="7.08287">
        <ele>972.3</ele>
        <time>2025-09-08T07:47:59Z</time>
      </trkpt>
      <trkpt lat="48.09915" lon="7.08279">
        <ele>971.7</ele>
        <time>2025-09-08T07:48:00Z</time>
      </trkpt>
      <trkpt lat="48.09908" lon="7.08281">
        <ele>970.3</ele>
        <time>2025-09-08T07:48:01Z</time>
      </trkpt>
      <trkpt lat="48.09894" lon="7.08284">
        <ele>967.7</ele>
        <time>2025-09-08T07:49:45Z</time>
      </trkpt>
      <trkpt lat="48.09879" lon="7.08281">
        <ele>980.2</ele>
        <time>2025-09-08T07:49:46Z</time>
      </trkpt>
      <trkpt lat="48.09878" lon="7.0828">
        <ele>980.2</ele>
        <time>2025-09-08T07:49:47Z</time>
      </trkpt>
      <trkpt lat="48.09876" lon="7.08282">
        <ele>980</ele>
        <time>2025-09-08T07:49:48Z</time>
      </trkpt>
      <trkpt lat="48.09875" lon="7.08282">
        <ele>979.8</ele>
        <time>2025-09-08T07:49:49Z</time>
      </trkpt>
      <trkpt lat="48.09874" lon="7.08282">
        <ele>979.8</ele>
        <time>2025-09-08T07:49:50Z</time>
      </trkpt>
      <trkpt lat="48.09872" lon="7.08282">
        <ele>979.6</ele>
        <time>2025-09-08T07:49:51Z</time>
      </trkpt>
      <trkpt lat="48.09872" lon="7.08283">
        <ele>979.4</ele>
        <time>2025-09-08T07:49:52Z</time>
      </trkpt>
      <trkpt lat="48.09871" lon="7.08285">
        <ele>979.4</ele>
        <time>2025-09-08T07:49:53Z</time>
      </trkpt>
      <trkpt lat="48.09871" lon="7.08286">
        <ele>979.4</ele>
        <time>2025-09-08T07:49:54Z</time>
      </trkpt>
      <trkpt lat="48.0987" lon="7.08288">
        <ele>979.2</ele>
        <time>2025-09-08T07:49:55Z</time>
      </trkpt>
      <trkpt lat="48.09868" lon="7.08289">
        <ele>979.2</ele>
        <time>2025-09-08T07:49:56Z</time>
      </trkpt>
      <trkpt lat="48.09867" lon="7.08291">
        <ele>979.2</ele>
        <time>2025-09-08T07:49:57Z</time>
      </trkpt>
      <trkpt lat="48.09866" lon="7.08293">
        <ele>978.8</ele>
        <time>2025-09-08T07:49:58Z</time>
      </trkpt>
      <trkpt lat="48.09865" lon="7.08295">
        <ele>978.8</ele>
        <time>2025-09-08T07:49:59Z</time>
      </trkpt>
      <trkpt lat="48.09863" lon="7.08297">
        <ele>978.4</ele>
        <time>2025-09-08T07:50:00Z</time>
      </trkpt>
      <trkpt lat="48.09861" lon="7.08299">
        <ele>978</ele>
        <time>2025-09-08T07:50:01Z</time>
      </trkpt>
      <trkpt lat="48.09859" lon="7.08301">
        <ele>977.6</ele>
        <time>2025-09-08T07:50:02Z</time>
      </trkpt>
      <trkpt lat="48.09856" lon="7.08303">
        <ele>977.2</ele>
        <time>2025-09-08T07:50:03Z</time>
      </trkpt>
      <trkpt lat="48.09854" lon="7.08304">
        <ele>977</ele>
        <time>2025-09-08T07:50:04Z</time>
      </trkpt>
      <trkpt lat="48.09852" lon="7.08305">
        <ele>976.4</ele>
        <time>2025-09-08T07:50:05Z</time>
      </trkpt>
      <trkpt lat="48.09851" lon="7.08306">
        <ele>976.2</ele>
        <time>2025-09-08T07:50:06Z</time>
      </trkpt>
      <trkpt lat="48.09849" lon="7.08309">
        <ele>975.8</ele>
        <time>2025-09-08T07:50:07Z</time>
      </trkpt>
      <trkpt lat="48.09847" lon="7.08311">
        <ele>975.4</ele>
        <time>2025-09-08T07:50:08Z</time>
      </trkpt>
      <trkpt lat="48.09845" lon="7.08314">
        <ele>975.2</ele>
        <time>2025-09-08T07:50:09Z</time>
      </trkpt>
      <trkpt lat="48.09842" lon="7.08318">
        <ele>975</ele>
        <time>2025-09-08T07:50:10Z</time>
      </trkpt>
      <trkpt lat="48.0984" lon="7.08321">
        <ele>974.6</ele>
        <time>2025-09-08T07:50:11Z</time>
      </trkpt>
      <trkpt lat="48.09839" lon="7.08323">
        <ele>974.2</ele>
        <time>2025-09-08T07:50:12Z</time>
      </trkpt>
      <trkpt lat="48.09837" lon="7.08323">
        <ele>973.8</ele>
        <time>2025-09-08T07:50:13Z</time>
      </trkpt>
      <trkpt lat="48.09834" lon="7.08324">
        <ele>973</ele>
        <time>2025-09-08T07:50:14Z</time>
      </trkpt>
      <trkpt lat="48.09833" lon="7.08323">
        <ele>972.8</ele>
        <time>2025-09-08T07:50:15Z</time>
      </trkpt>
      <trkpt lat="48.09832" lon="7.08322">
        <ele>972.6</ele>
        <time>2025-09-08T07:50:16Z</time>
      </trkpt>
      <trkpt lat="48.09831" lon="7.08322">
        <ele>972.4</ele>
        <time>2025-09-08T07:50:17Z</time>
      </trkpt>
      <trkpt lat="48.0983" lon="7.08322">
        <ele>972</ele>
        <time>2025-09-08T07:50:18Z</time>
      </trkpt>
      <trkpt lat="48.09829" lon="7.08321">
        <ele>972</ele>
        <time>2025-09-08T07:50:19Z</time>
      </trkpt>
      <trkpt lat="48.09829" lon="7.08321">
        <ele>971.8</ele>
        <time>2025-09-08T07:50:20Z</time>
      </trkpt>
      <trkpt lat="48.09829" lon="7.08322">
        <ele>971.8</ele>
        <time>2025-09-08T07:50:21Z</time>
      </trkpt>
      <trkpt lat="48.09829" lon="7.08322">
        <ele>971.8</ele>
        <time>2025-09-08T07:50:22Z</time>
      </trkpt>
      <trkpt lat="48.09812" lon="7.08332">
        <ele>970.6</ele>
        <time>2025-09-08T07:50:49Z</time>
      </trkpt>
      <trkpt lat="48.09811" lon="7.08333">
        <ele>970.6</ele>
        <time>2025-09-08T07:50:50Z</time>
      </trkpt>
      <trkpt lat="48.0981" lon="7.08335">
        <ele>970.4</ele>
        <time>2025-09-08T07:50:51Z</time>
      </trkpt>
      <trkpt lat="48.09808" lon="7.08337">
        <ele>970.2</ele>
        <time>2025-09-08T07:50:52Z</time>
      </trkpt>
      <trkpt lat="48.09805" lon="7.08337">
        <ele>970.2</ele>
        <time>2025-09-08T07:50:53Z</time>
      </trkpt>
      <trkpt lat="48.09802" lon="7.08337">
        <ele>970</ele>
        <time>2025-09-08T07:50:54Z</time>
      </trkpt>
      <trkpt lat="48.09799" lon="7.08337">
        <ele>970</ele>
        <time>2025-09-08T07:50:55Z</time>
      </trkpt>
      <trkpt lat="48.09796" lon="7.08337">
        <ele>969.6</ele>
        <time>2025-09-08T07:50:56Z</time>
      </trkpt>
      <trkpt lat="48.09793" lon="7.08337">
        <ele>969</ele>
        <time>2025-09-08T07:50:57Z</time>
      </trkpt>
      <trkpt lat="48.0979" lon="7.08338">
        <ele>968.8</ele>
        <time>2025-09-08T07:50:58Z</time>
      </trkpt>
      <trkpt lat="48.09788" lon="7.08338">
        <ele>968.8</ele>
        <time>2025-09-08T07:50:59Z</time>
      </trkpt>
      <trkpt lat="48.09786" lon="7.08338">
        <ele>968.6</ele>
        <time>2025-09-08T07:51:00Z</time>
      </trkpt>
      <trkpt lat="48.09784" lon="7.08338">
        <ele>968.6</ele>
        <time>2025-09-08T07:51:01Z</time>
      </trkpt>
      <trkpt lat="48.09781" lon="7.0834">
        <ele>968.6</ele>
        <time>2025-09-08T07:51:02Z</time>
      </trkpt>
      <trkpt lat="48.09779" lon="7.0834">
        <ele>968.6</ele>
        <time>2025-09-08T07:51:03Z</time>
      </trkpt>
      <trkpt lat="48.09775" lon="7.08341">
        <ele>968.4</ele>
        <time>2025-09-08T07:51:04Z</time>
      </trkpt>
      <trkpt lat="48.09773" lon="7.08341">
        <ele>968.6</ele>
        <time>2025-09-08T07:51:05Z</time>
      </trkpt>
      <trkpt lat="48.0977" lon="7.08342">
        <ele>968.6</ele>
        <time>2025-09-08T07:51:06Z</time>
      </trkpt>
      <trkpt lat="48.09768" lon="7.08342">
        <ele>968.4</ele>
        <time>2025-09-08T07:51:07Z</time>
      </trkpt>
      <trkpt lat="48.09765" lon="7.08343">
        <ele>968.4</ele>
        <time>2025-09-08T07:51:08Z</time>
      </trkpt>
      <trkpt lat="48.09762" lon="7.08345">
        <ele>968.4</ele>
        <time>2025-09-08T07:51:09Z</time>
      </trkpt>
      <trkpt lat="48.0976" lon="7.08346">
        <ele>968.2</ele>
        <time>2025-09-08T07:51:10Z</time>
      </trkpt>
      <trkpt lat="48.09756" lon="7.08346">
        <ele>968.2</ele>
        <time>2025-09-08T07:51:11Z</time>
      </trkpt>
      <trkpt lat="48.09753" lon="7.08349">
        <ele>968.2</ele>
        <time>2025-09-08T07:51:12Z</time>
      </trkpt>
      <trkpt lat="48.0975" lon="7.0835">
        <ele>968.2</ele>
        <time>2025-09-08T07:51:13Z</time>
      </trkpt>
      <trkpt lat="48.09748" lon="7.08351">
        <ele>968.2</ele>
        <time>2025-09-08T07:51:14Z</time>
      </trkpt>
      <trkpt lat="48.09745" lon="7.08352">
        <ele>968.2</ele>
        <time>2025-09-08T07:51:15Z</time>
      </trkpt>
      <trkpt lat="48.09743" lon="7.08353">
        <ele>968.4</ele>
        <time>2025-09-08T07:51:16Z</time>
      </trkpt>
      <trkpt lat="48.0974" lon="7.08354">
        <ele>968.4</ele>
        <time>2025-09-08T07:51:17Z</time>
      </trkpt>
      <trkpt lat="48.09737" lon="7.08355">
        <ele>968.6</ele>
        <time>2025-09-08T07:51:18Z</time>
      </trkpt>
      <trkpt lat="48.09735" lon="7.08355">
        <ele>968.8</ele>
        <time>2025-09-08T07:51:19Z</time>
      </trkpt>
      <trkpt lat="48.09733" lon="7.08356">
        <ele>969.2</ele>
        <time>2025-09-08T07:51:20Z</time>
      </trkpt>
      <trkpt lat="48.09731" lon="7.08356">
        <ele>969.4</ele>
        <time>2025-09-08T07:51:21Z</time>
      </trkpt>
      <trkpt lat="48.09729" lon="7.08357">
        <ele>969.6</ele>
        <time>2025-09-08T07:51:22Z</time>
      </trkpt>
      <trkpt lat="48.09727" lon="7.08358">
        <ele>969.8</ele>
        <time>2025-09-08T07:51:23Z</time>
      </trkpt>
      <trkpt lat="48.09725" lon="7.08358">
        <ele>970</ele>
        <time>2025-09-08T07:51:24Z</time>
      </trkpt>
      <trkpt lat="48.09722" lon="7.08359">
        <ele>970.2</ele>
        <time>2025-09-08T07:51:25Z</time>
      </trkpt>
      <trkpt lat="48.0972" lon="7.0836">
        <ele>970.4</ele>
        <time>2025-09-08T07:51:26Z</time>
      </trkpt>
      <trkpt lat="48.09717" lon="7.08362">
        <ele>970.6</ele>
        <time>2025-09-08T07:51:27Z</time>
      </trkpt>
      <trkpt lat="48.09715" lon="7.08364">
        <ele>970.6</ele>
        <time>2025-09-08T07:51:28Z</time>
      </trkpt>
      <trkpt lat="48.09712" lon="7.08366">
        <ele>970.6</ele>
        <time>2025-09-08T07:51:29Z</time>
      </trkpt>
      <trkpt lat="48.09709" lon="7.08368">
        <ele>970.6</ele>
        <time>2025-09-08T07:51:30Z</time>
      </trkpt>
      <trkpt lat="48.09706" lon="7.08369">
        <ele>970.6</ele>
        <time>2025-09-08T07:51:31Z</time>
      </trkpt>
      <trkpt lat="48.09702" lon="7.08372">
        <ele>970.6</ele>
        <time>2025-09-08T07:51:32Z</time>
      </trkpt>
      <trkpt lat="48.09698" lon="7.08375">
        <ele>970.6</ele>
        <time>2025-09-08T07:51:33Z</time>
      </trkpt>
      <trkpt lat="48.09694" lon="7.08377">
        <ele>970.2</ele>
        <time>2025-09-08T07:51:34Z</time>
      </trkpt>
      <trkpt lat="48.0969" lon="7.08379">
        <ele>970</ele>
        <time>2025-09-08T07:51:35Z</time>
      </trkpt>
      <trkpt lat="48.09686" lon="7.08382">
        <ele>969.8</ele>
        <time>2025-09-08T07:51:36Z</time>
      </trkpt>
      <trkpt lat="48.09683" lon="7.08384">
        <ele>969.2</ele>
        <time>2025-09-08T07:51:37Z</time>
      </trkpt>
      <trkpt lat="48.09679" lon="7.08387">
        <ele>969</ele>
        <time>2025-09-08T07:51:38Z</time>
      </trkpt>
      <trkpt lat="48.09676" lon="7.0839">
        <ele>968.8</ele>
        <time>2025-09-08T07:51:39Z</time>
      </trkpt>
      <trkpt lat="48.09672" lon="7.08395">
        <ele>968.8</ele>
        <time>2025-09-08T07:51:40Z</time>
      </trkpt>
      <trkpt lat="48.09668" lon="7.08399">
        <ele>968.6</ele>
        <time>2025-09-08T07:51:41Z</time>
      </trkpt>
      <trkpt lat="48.09662" lon="7.08402">
        <ele>968.6</ele>
        <time>2025-09-08T07:51:42Z</time>
      </trkpt>
      <trkpt lat="48.09658" lon="7.08407">
        <ele>968.6</ele>
        <time>2025-09-08T07:51:43Z</time>
      </trkpt>
      <trkpt lat="48.09653" lon="7.08411">
        <ele>968.2</ele>
        <time>2025-09-08T07:51:44Z</time>
      </trkpt>
      <trkpt lat="48.09649" lon="7.08413">
        <ele>967.6</ele>
        <time>2025-09-08T07:51:45Z</time>
      </trkpt>
      <trkpt lat="48.09645" lon="7.08415">
        <ele>967.2</ele>
        <time>2025-09-08T07:51:46Z</time>
      </trkpt>
      <trkpt lat="48.09644" lon="7.08415">
        <ele>967</ele>
        <time>2025-09-08T07:51:47Z</time>
      </trkpt>
      <trkpt lat="48.09644" lon="7.08413">
        <ele>966.4</ele>
        <time>2025-09-08T07:51:48Z</time>
      </trkpt>
      <trkpt lat="48.0964" lon="7.08417">
        <ele>966.2</ele>
        <time>2025-09-08T07:51:53Z</time>
      </trkpt>
      <trkpt lat="48.09637" lon="7.08418">
        <ele>966.2</ele>
        <time>2025-09-08T07:51:54Z</time>
      </trkpt>
      <trkpt lat="48.09634" lon="7.08418">
        <ele>966</ele>
        <time>2025-09-08T07:51:55Z</time>
      </trkpt>
      <trkpt lat="48.0963" lon="7.08419">
        <ele>966</ele>
        <time>2025-09-08T07:51:56Z</time>
      </trkpt>
      <trkpt lat="48.09626" lon="7.0842">
        <ele>965.8</ele>
        <time>2025-09-08T07:51:57Z</time>
      </trkpt>
      <trkpt lat="48.09621" lon="7.08424">
        <ele>965.4</ele>
        <time>2025-09-08T07:51:58Z</time>
      </trkpt>
      <trkpt lat="48.09617" lon="7.08427">
        <ele>965.2</ele>
        <time>2025-09-08T07:51:59Z</time>
      </trkpt>
      <trkpt lat="48.09613" lon="7.08429">
        <ele>965</ele>
        <time>2025-09-08T07:52:00Z</time>
      </trkpt>
      <trkpt lat="48.09608" lon="7.0843">
        <ele>964.6</ele>
        <time>2025-09-08T07:52:01Z</time>
      </trkpt>
      <trkpt lat="48.09604" lon="7.08432">
        <ele>964</ele>
        <time>2025-09-08T07:52:02Z</time>
      </trkpt>
      <trkpt lat="48.09599" lon="7.08434">
        <ele>963.8</ele>
        <time>2025-09-08T07:52:03Z</time>
      </trkpt>
      <trkpt lat="48.09594" lon="7.08437">
        <ele>963.4</ele>
        <time>2025-09-08T07:52:04Z</time>
      </trkpt>
      <trkpt lat="48.09589" lon="7.0844">
        <ele>963.2</ele>
        <time>2025-09-08T07:52:05Z</time>
      </trkpt>
      <trkpt lat="48.09584" lon="7.08443">
        <ele>962.4</ele>
        <time>2025-09-08T07:52:06Z</time>
      </trkpt>
      <trkpt lat="48.09579" lon="7.08447">
        <ele>961.8</ele>
        <time>2025-09-08T07:52:07Z</time>
      </trkpt>
      <trkpt lat="48.09574" lon="7.0845">
        <ele>961.4</ele>
        <time>2025-09-08T07:52:08Z</time>
      </trkpt>
      <trkpt lat="48.09568" lon="7.08453">
        <ele>961</ele>
        <time>2025-09-08T07:52:09Z</time>
      </trkpt>
      <trkpt lat="48.09562" lon="7.08456">
        <ele>960.6</ele>
        <time>2025-09-08T07:52:10Z</time>
      </trkpt>
      <trkpt lat="48.09556" lon="7.0846">
        <ele>960.2</ele>
        <time>2025-09-08T07:52:11Z</time>
      </trkpt>
      <trkpt lat="48.09549" lon="7.08461">
        <ele>959.6</ele>
        <time>2025-09-08T07:52:12Z</time>
      </trkpt>
      <trkpt lat="48.09544" lon="7.08464">
        <ele>959</ele>
        <time>2025-09-08T07:52:13Z</time>
      </trkpt>
      <trkpt lat="48.0954" lon="7.08468">
        <ele>958.6</ele>
        <time>2025-09-08T07:52:14Z</time>
      </trkpt>
      <trkpt lat="48.09534" lon="7.08471">
        <ele>958.2</ele>
        <time>2025-09-08T07:52:15Z</time>
      </trkpt>
      <trkpt lat="48.09529" lon="7.08475">
        <ele>957.6</ele>
        <time>2025-09-08T07:52:16Z</time>
      </trkpt>
      <trkpt lat="48.09523" lon="7.08478">
        <ele>957.4</ele>
        <time>2025-09-08T07:52:17Z</time>
      </trkpt>
      <trkpt lat="48.09518" lon="7.08483">
        <ele>957</ele>
        <time>2025-09-08T07:52:18Z</time>
      </trkpt>
      <trkpt lat="48.09512" lon="7.08488">
        <ele>956.4</ele>
        <time>2025-09-08T07:52:19Z</time>
      </trkpt>
      <trkpt lat="48.09507" lon="7.08494">
        <ele>956</ele>
        <time>2025-09-08T07:52:20Z</time>
      </trkpt>
      <trkpt lat="48.09502" lon="7.08497">
        <ele>955.8</ele>
        <time>2025-09-08T07:52:21Z</time>
      </trkpt>
      <trkpt lat="48.09497" lon="7.08501">
        <ele>955.4</ele>
        <time>2025-09-08T07:52:22Z</time>
      </trkpt>
      <trkpt lat="48.09491" lon="7.08505">
        <ele>954.8</ele>
        <time>2025-09-08T07:52:23Z</time>
      </trkpt>
      <trkpt lat="48.09486" lon="7.0851">
        <ele>954.2</ele>
        <time>2025-09-08T07:52:24Z</time>
      </trkpt>
      <trkpt lat="48.09482" lon="7.08512">
        <ele>954</ele>
        <time>2025-09-08T07:52:25Z</time>
      </trkpt>
      <trkpt lat="48.09478" lon="7.08514">
        <ele>953.6</ele>
        <time>2025-09-08T07:52:26Z</time>
      </trkpt>
      <trkpt lat="48.09475" lon="7.08515">
        <ele>953.4</ele>
        <time>2025-09-08T07:52:27Z</time>
      </trkpt>
      <trkpt lat="48.09471" lon="7.08515">
        <ele>953.2</ele>
        <time>2025-09-08T07:52:28Z</time>
      </trkpt>
      <trkpt lat="48.09467" lon="7.08515">
        <ele>953.2</ele>
        <time>2025-09-08T07:52:29Z</time>
      </trkpt>
      <trkpt lat="48.09463" lon="7.08514">
        <ele>953</ele>
        <time>2025-09-08T07:52:30Z</time>
      </trkpt>
      <trkpt lat="48.09459" lon="7.08514">
        <ele>952.8</ele>
        <time>2025-09-08T07:52:31Z</time>
      </trkpt>
      <trkpt lat="48.09456" lon="7.08516">
        <ele>952.4</ele>
        <time>2025-09-08T07:52:32Z</time>
      </trkpt>
      <trkpt lat="48.09452" lon="7.08516">
        <ele>952</ele>
        <time>2025-09-08T07:52:33Z</time>
      </trkpt>
      <trkpt lat="48.09449" lon="7.08517">
        <ele>951.2</ele>
        <time>2025-09-08T07:52:34Z</time>
      </trkpt>
      <trkpt lat="48.09446" lon="7.08518">
        <ele>950.4</ele>
        <time>2025-09-08T07:52:35Z</time>
      </trkpt>
      <trkpt lat="48.09444" lon="7.08518">
        <ele>950</ele>
        <time>2025-09-08T07:52:36Z</time>
      </trkpt>
      <trkpt lat="48.09441" lon="7.0852">
        <ele>949.4</ele>
        <time>2025-09-08T07:52:37Z</time>
      </trkpt>
      <trkpt lat="48.09438" lon="7.08521">
        <ele>948.6</ele>
        <time>2025-09-08T07:52:38Z</time>
      </trkpt>
      <trkpt lat="48.09435" lon="7.08522">
        <ele>947.8</ele>
        <time>2025-09-08T07:52:39Z</time>
      </trkpt>
      <trkpt lat="48.09432" lon="7.08523">
        <ele>946.8</ele>
        <time>2025-09-08T07:52:40Z</time>
      </trkpt>
      <trkpt lat="48.09428" lon="7.08524">
        <ele>945.6</ele>
        <time>2025-09-08T07:52:41Z</time>
      </trkpt>
      <trkpt lat="48.09423" lon="7.08524">
        <ele>944.6</ele>
        <time>2025-09-08T07:52:42Z</time>
      </trkpt>
      <trkpt lat="48.09419" lon="7.08524">
        <ele>943.8</ele>
        <time>2025-09-08T07:52:43Z</time>
      </trkpt>
      <trkpt lat="48.09414" lon="7.08524">
        <ele>943.2</ele>
        <time>2025-09-08T07:52:44Z</time>
      </trkpt>
      <trkpt lat="48.0941" lon="7.08524">
        <ele>941.8</ele>
        <time>2025-09-08T07:52:45Z</time>
      </trkpt>
      <trkpt lat="48.09406" lon="7.08525">
        <ele>940.4</ele>
        <time>2025-09-08T07:52:46Z</time>
      </trkpt>
      <trkpt lat="48.09401" lon="7.08525">
        <ele>939.8</ele>
        <time>2025-09-08T07:52:47Z</time>
      </trkpt>
      <trkpt lat="48.09397" lon="7.08525">
        <ele>938.8</ele>
        <time>2025-09-08T07:52:48Z</time>
      </trkpt>
      <trkpt lat="48.09392" lon="7.08524">
        <ele>937.6</ele>
        <time>2025-09-08T07:52:49Z</time>
      </trkpt>
      <trkpt lat="48.09388" lon="7.08522">
        <ele>936.4</ele>
        <time>2025-09-08T07:52:50Z</time>
      </trkpt>
      <trkpt lat="48.09383" lon="7.0852">
        <ele>935.2</ele>
        <time>2025-09-08T07:52:51Z</time>
      </trkpt>
      <trkpt lat="48.0938" lon="7.08515">
        <ele>934</ele>
        <time>2025-09-08T07:52:52Z</time>
      </trkpt>
      <trkpt lat="48.09378" lon="7.08509">
        <ele>932.8</ele>
        <time>2025-09-08T07:52:53Z</time>
      </trkpt>
      <trkpt lat="48.09376" lon="7.08504">
        <ele>932.2</ele>
        <time>2025-09-08T07:52:54Z</time>
      </trkpt>
      <trkpt lat="48.09375" lon="7.08498">
        <ele>931</ele>
        <time>2025-09-08T07:52:55Z</time>
      </trkpt>
      <trkpt lat="48.09374" lon="7.08492">
        <ele>930.6</ele>
        <time>2025-09-08T07:52:56Z</time>
      </trkpt>
      <trkpt lat="48.09373" lon="7.08487">
        <ele>930</ele>
        <time>2025-09-08T07:52:57Z</time>
      </trkpt>
      <trkpt lat="48.09372" lon="7.0848">
        <ele>929.6</ele>
        <time>2025-09-08T07:52:58Z</time>
      </trkpt>
      <trkpt lat="48.09372" lon="7.08474">
        <ele>929.4</ele>
        <time>2025-09-08T07:52:59Z</time>
      </trkpt>
      <trkpt lat="48.09372" lon="7.08468">
        <ele>929.4</ele>
        <time>2025-09-08T07:53:00Z</time>
      </trkpt>
      <trkpt lat="48.09371" lon="7.08462">
        <ele>929.2</ele>
        <time>2025-09-08T07:53:01Z</time>
      </trkpt>
      <trkpt lat="48.09371" lon="7.08456">
        <ele>929.2</ele>
        <time>2025-09-08T07:53:02Z</time>
      </trkpt>
      <trkpt lat="48.09371" lon="7.08448">
        <ele>929.2</ele>
        <time>2025-09-08T07:53:03Z</time>
      </trkpt>
      <trkpt lat="48.0937" lon="7.08442">
        <ele>929</ele>
        <time>2025-09-08T07:53:04Z</time>
      </trkpt>
      <trkpt lat="48.09369" lon="7.08435">
        <ele>929</ele>
        <time>2025-09-08T07:53:05Z</time>
      </trkpt>
      <trkpt lat="48.09369" lon="7.08427">
        <ele>929</ele>
        <time>2025-09-08T07:53:06Z</time>
      </trkpt>
      <trkpt lat="48.09368" lon="7.08421">
        <ele>929</ele>
        <time>2025-09-08T07:53:07Z</time>
      </trkpt>
      <trkpt lat="48.09367" lon="7.08416">
        <ele>929.2</ele>
        <time>2025-09-08T07:53:08Z</time>
      </trkpt>
      <trkpt lat="48.09366" lon="7.08409">
        <ele>929.2</ele>
        <time>2025-09-08T07:53:09Z</time>
      </trkpt>
      <trkpt lat="48.09365" lon="7.08403">
        <ele>929.2</ele>
        <time>2025-09-08T07:53:10Z</time>
      </trkpt>
      <trkpt lat="48.09364" lon="7.08396">
        <ele>929.2</ele>
        <time>2025-09-08T07:53:11Z</time>
      </trkpt>
      <trkpt lat="48.09363" lon="7.0839">
        <ele>929.2</ele>
        <time>2025-09-08T07:53:12Z</time>
      </trkpt>
      <trkpt lat="48.09361" lon="7.08385">
        <ele>929.2</ele>
        <time>2025-09-08T07:53:13Z</time>
      </trkpt>
      <trkpt lat="48.0936" lon="7.08378">
        <ele>929.2</ele>
        <time>2025-09-08T07:53:14Z</time>
      </trkpt>
      <trkpt lat="48.09359" lon="7.08371">
        <ele>929.4</ele>
        <time>2025-09-08T07:53:15Z</time>
      </trkpt>
      <trkpt lat="48.09358" lon="7.08364">
        <ele>929.4</ele>
        <time>2025-09-08T07:53:16Z</time>
      </trkpt>
      <trkpt lat="48.09357" lon="7.08357">
        <ele>929.4</ele>
        <time>2025-09-08T07:53:17Z</time>
      </trkpt>
      <trkpt lat="48.09355" lon="7.08352">
        <ele>929.4</ele>
        <time>2025-09-08T07:53:18Z</time>
      </trkpt>
      <trkpt lat="48.09352" lon="7.08346">
        <ele>929.4</ele>
        <time>2025-09-08T07:53:19Z</time>
      </trkpt>
      <trkpt lat="48.0935" lon="7.08341">
        <ele>929.6</ele>
        <time>2025-09-08T07:53:20Z</time>
      </trkpt>
      <trkpt lat="48.09347" lon="7.08336">
        <ele>929.6</ele>
        <time>2025-09-08T07:53:21Z</time>
      </trkpt>
      <trkpt lat="48.09344" lon="7.08332">
        <ele>929.6</ele>
        <time>2025-09-08T07:53:22Z</time>
      </trkpt>
      <trkpt lat="48.0934" lon="7.08328">
        <ele>929.6</ele>
        <time>2025-09-08T07:53:23Z</time>
      </trkpt>
      <trkpt lat="48.09337" lon="7.08324">
        <ele>929.6</ele>
        <time>2025-09-08T07:53:24Z</time>
      </trkpt>
      <trkpt lat="48.09333" lon="7.08321">
        <ele>929.6</ele>
        <time>2025-09-08T07:53:25Z</time>
      </trkpt>
      <trkpt lat="48.09329" lon="7.08318">
        <ele>929.8</ele>
        <time>2025-09-08T07:53:26Z</time>
      </trkpt>
      <trkpt lat="48.09324" lon="7.08315">
        <ele>929.6</ele>
        <time>2025-09-08T07:53:27Z</time>
      </trkpt>
      <trkpt lat="48.0932" lon="7.08314">
        <ele>929.6</ele>
        <time>2025-09-08T07:53:28Z</time>
      </trkpt>
      <trkpt lat="48.09316" lon="7.08312">
        <ele>929.8</ele>
        <time>2025-09-08T07:53:29Z</time>
      </trkpt>
      <trkpt lat="48.09312" lon="7.08311">
        <ele>929.8</ele>
        <time>2025-09-08T07:53:30Z</time>
      </trkpt>
      <trkpt lat="48.09308" lon="7.08311">
        <ele>930</ele>
        <time>2025-09-08T07:53:31Z</time>
      </trkpt>
      <trkpt lat="48.09303" lon="7.08311">
        <ele>930</ele>
        <time>2025-09-08T07:53:32Z</time>
      </trkpt>
      <trkpt lat="48.09299" lon="7.08311">
        <ele>930.2</ele>
        <time>2025-09-08T07:53:33Z</time>
      </trkpt>
      <trkpt lat="48.09295" lon="7.08311">
        <ele>930.2</ele>
        <time>2025-09-08T07:53:34Z</time>
      </trkpt>
      <trkpt lat="48.09291" lon="7.08312">
        <ele>930.2</ele>
        <time>2025-09-08T07:53:35Z</time>
      </trkpt>
      <trkpt lat="48.09287" lon="7.08313">
        <ele>930.2</ele>
        <time>2025-09-08T07:53:36Z</time>
      </trkpt>
      <trkpt lat="48.09282" lon="7.08316">
        <ele>930.4</ele>
        <time>2025-09-08T07:53:37Z</time>
      </trkpt>
      <trkpt lat="48.09278" lon="7.08318">
        <ele>930.4</ele>
        <time>2025-09-08T07:53:38Z</time>
      </trkpt>
      <trkpt lat="48.09275" lon="7.08321">
        <ele>930.6</ele>
        <time>2025-09-08T07:53:39Z</time>
      </trkpt>
      <trkpt lat="48.09271" lon="7.08324">
        <ele>930.6</ele>
        <time>2025-09-08T07:53:40Z</time>
      </trkpt>
      <trkpt lat="48.09267" lon="7.08327">
        <ele>930.6</ele>
        <time>2025-09-08T07:53:41Z</time>
      </trkpt>
      <trkpt lat="48.09264" lon="7.08329">
        <ele>930.8</ele>
        <time>2025-09-08T07:53:42Z</time>
      </trkpt>
      <trkpt lat="48.09261" lon="7.08332">
        <ele>931</ele>
        <time>2025-09-08T07:53:43Z</time>
      </trkpt>
      <trkpt lat="48.09258" lon="7.08335">
        <ele>931.2</ele>
        <time>2025-09-08T07:53:44Z</time>
      </trkpt>
      <trkpt lat="48.09255" lon="7.08338">
        <ele>931.2</ele>
        <time>2025-09-08T07:53:45Z</time>
      </trkpt>
      <trkpt lat="48.09252" lon="7.08341">
        <ele>931.2</ele>
        <time>2025-09-08T07:53:46Z</time>
      </trkpt>
      <trkpt lat="48.09249" lon="7.08343">
        <ele>931.4</ele>
        <time>2025-09-08T07:53:47Z</time>
      </trkpt>
      <trkpt lat="48.09246" lon="7.08346">
        <ele>931.8</ele>
        <time>2025-09-08T07:53:48Z</time>
      </trkpt>
      <trkpt lat="48.09243" lon="7.0835">
        <ele>932.2</ele>
        <time>2025-09-08T07:53:49Z</time>
      </trkpt>
      <trkpt lat="48.0924" lon="7.08353">
        <ele>932.2</ele>
        <time>2025-09-08T07:53:50Z</time>
      </trkpt>
      <trkpt lat="48.09236" lon="7.08355">
        <ele>932.4</ele>
        <time>2025-09-08T07:53:51Z</time>
      </trkpt>
      <trkpt lat="48.09233" lon="7.08359">
        <ele>932.8</ele>
        <time>2025-09-08T07:53:52Z</time>
      </trkpt>
      <trkpt lat="48.09229" lon="7.08362">
        <ele>933.2</ele>
        <time>2025-09-08T07:53:53Z</time>
      </trkpt>
      <trkpt lat="48.09225" lon="7.08366">
        <ele>933.4</ele>
        <time>2025-09-08T07:53:54Z</time>
      </trkpt>
      <trkpt lat="48.09222" lon="7.08369">
        <ele>933.6</ele>
        <time>2025-09-08T07:53:55Z</time>
      </trkpt>
      <trkpt lat="48.09219" lon="7.08372">
        <ele>933.8</ele>
        <time>2025-09-08T07:53:56Z</time>
      </trkpt>
      <trkpt lat="48.09216" lon="7.08375">
        <ele>933.8</ele>
        <time>2025-09-08T07:53:57Z</time>
      </trkpt>
      <trkpt lat="48.09212" lon="7.08377">
        <ele>934</ele>
        <time>2025-09-08T07:53:58Z</time>
      </trkpt>
      <trkpt lat="48.09209" lon="7.0838">
        <ele>934.2</ele>
        <time>2025-09-08T07:53:59Z</time>
      </trkpt>
      <trkpt lat="48.09205" lon="7.08382">
        <ele>934.6</ele>
        <time>2025-09-08T07:54:00Z</time>
      </trkpt>
      <trkpt lat="48.09202" lon="7.08386">
        <ele>934.6</ele>
        <time>2025-09-08T07:54:01Z</time>
      </trkpt>
      <trkpt lat="48.09199" lon="7.08389">
        <ele>935</ele>
        <time>2025-09-08T07:54:02Z</time>
      </trkpt>
      <trkpt lat="48.09196" lon="7.08392">
        <ele>935.2</ele>
        <time>2025-09-08T07:54:03Z</time>
      </trkpt>
      <trkpt lat="48.09192" lon="7.08395">
        <ele>935.4</ele>
        <time>2025-09-08T07:54:04Z</time>
      </trkpt>
      <trkpt lat="48.09189" lon="7.08397">
        <ele>935.6</ele>
        <time>2025-09-08T07:54:05Z</time>
      </trkpt>
      <trkpt lat="48.09185" lon="7.08399">
        <ele>935.8</ele>
        <time>2025-09-08T07:54:06Z</time>
      </trkpt>
      <trkpt lat="48.09181" lon="7.08402">
        <ele>935.8</ele>
        <time>2025-09-08T07:54:07Z</time>
      </trkpt>
      <trkpt lat="48.09178" lon="7.08404">
        <ele>936</ele>
        <time>2025-09-08T07:54:08Z</time>
      </trkpt>
      <trkpt lat="48.09175" lon="7.08406">
        <ele>936</ele>
        <time>2025-09-08T07:54:09Z</time>
      </trkpt>
      <trkpt lat="48.09171" lon="7.08409">
        <ele>936.2</ele>
        <time>2025-09-08T07:54:10Z</time>
      </trkpt>
      <trkpt lat="48.09167" lon="7.08411">
        <ele>936.4</ele>
        <time>2025-09-08T07:54:11Z</time>
      </trkpt>
      <trkpt lat="48.09163" lon="7.08413">
        <ele>936.6</ele>
        <time>2025-09-08T07:54:12Z</time>
      </trkpt>
      <trkpt lat="48.0916" lon="7.08416">
        <ele>937</ele>
        <time>2025-09-08T07:54:13Z</time>
      </trkpt>
      <trkpt lat="48.09156" lon="7.08418">
        <ele>937.4</ele>
        <time>2025-09-08T07:54:14Z</time>
      </trkpt>
      <trkpt lat="48.09152" lon="7.08421">
        <ele>937.8</ele>
        <time>2025-09-08T07:54:15Z</time>
      </trkpt>
      <trkpt lat="48.09148" lon="7.08423">
        <ele>938</ele>
        <time>2025-09-08T07:54:16Z</time>
      </trkpt>
      <trkpt lat="48.09144" lon="7.08423">
        <ele>938</ele>
        <time>2025-09-08T07:54:17Z</time>
      </trkpt>
      <trkpt lat="48.09141" lon="7.08425">
        <ele>938.2</ele>
        <time>2025-09-08T07:54:18Z</time>
      </trkpt>
      <trkpt lat="48.09137" lon="7.08425">
        <ele>938.4</ele>
        <time>2025-09-08T07:54:19Z</time>
      </trkpt>
      <trkpt lat="48.09133" lon="7.08426">
        <ele>938.6</ele>
        <time>2025-09-08T07:54:20Z</time>
      </trkpt>
      <trkpt lat="48.09129" lon="7.08426">
        <ele>938.8</ele>
        <time>2025-09-08T07:54:21Z</time>
      </trkpt>
      <trkpt lat="48.09125" lon="7.08426">
        <ele>939.2</ele>
        <time>2025-09-08T07:54:22Z</time>
      </trkpt>
      <trkpt lat="48.09121" lon="7.08426">
        <ele>939.4</ele>
        <time>2025-09-08T07:54:23Z</time>
      </trkpt>
      <trkpt lat="48.09116" lon="7.08427">
        <ele>939.4</ele>
        <time>2025-09-08T07:54:24Z</time>
      </trkpt>
      <trkpt lat="48.09112" lon="7.08428">
        <ele>939.8</ele>
        <time>2025-09-08T07:54:25Z</time>
      </trkpt>
      <trkpt lat="48.09109" lon="7.08428">
        <ele>940</ele>
        <time>2025-09-08T07:54:26Z</time>
      </trkpt>
      <trkpt lat="48.09105" lon="7.08428">
        <ele>940.2</ele>
        <time>2025-09-08T07:54:27Z</time>
      </trkpt>
      <trkpt lat="48.09101" lon="7.08429">
        <ele>940.4</ele>
        <time>2025-09-08T07:54:28Z</time>
      </trkpt>
      <trkpt lat="48.09097" lon="7.08429">
        <ele>940.6</ele>
        <time>2025-09-08T07:54:29Z</time>
      </trkpt>
      <trkpt lat="48.09093" lon="7.08429">
        <ele>940.8</ele>
        <time>2025-09-08T07:54:30Z</time>
      </trkpt>
      <trkpt lat="48.09089" lon="7.0843">
        <ele>941</ele>
        <time>2025-09-08T07:54:31Z</time>
      </trkpt>
      <trkpt lat="48.09085" lon="7.08431">
        <ele>941.4</ele>
        <time>2025-09-08T07:54:32Z</time>
      </trkpt>
      <trkpt lat="48.09081" lon="7.08432">
        <ele>941.6</ele>
        <time>2025-09-08T07:54:33Z</time>
      </trkpt>
      <trkpt lat="48.09078" lon="7.08432">
        <ele>941.8</ele>
        <time>2025-09-08T07:54:34Z</time>
      </trkpt>
      <trkpt lat="48.09074" lon="7.08434">
        <ele>942</ele>
        <time>2025-09-08T07:54:35Z</time>
      </trkpt>
      <trkpt lat="48.0907" lon="7.08434">
        <ele>942</ele>
        <time>2025-09-08T07:54:36Z</time>
      </trkpt>
      <trkpt lat="48.09066" lon="7.08435">
        <ele>942.2</ele>
        <time>2025-09-08T07:54:37Z</time>
      </trkpt>
      <trkpt lat="48.09062" lon="7.08436">
        <ele>942.6</ele>
        <time>2025-09-08T07:54:38Z</time>
      </trkpt>
      <trkpt lat="48.09058" lon="7.08438">
        <ele>942.8</ele>
        <time>2025-09-08T07:54:39Z</time>
      </trkpt>
      <trkpt lat="48.09054" lon="7.08439">
        <ele>943</ele>
        <time>2025-09-08T07:54:40Z</time>
      </trkpt>
      <trkpt lat="48.09049" lon="7.08441">
        <ele>943.4</ele>
        <time>2025-09-08T07:54:41Z</time>
      </trkpt>
      <trkpt lat="48.09046" lon="7.08443">
        <ele>943.6</ele>
        <time>2025-09-08T07:54:42Z</time>
      </trkpt>
      <trkpt lat="48.09042" lon="7.08445">
        <ele>943.8</ele>
        <time>2025-09-08T07:54:43Z</time>
      </trkpt>
      <trkpt lat="48.09039" lon="7.08447">
        <ele>944</ele>
        <time>2025-09-08T07:54:44Z</time>
      </trkpt>
      <trkpt lat="48.09035" lon="7.08449">
        <ele>944.2</ele>
        <time>2025-09-08T07:54:45Z</time>
      </trkpt>
      <trkpt lat="48.09032" lon="7.08451">
        <ele>944.4</ele>
        <time>2025-09-08T07:54:46Z</time>
      </trkpt>
      <trkpt lat="48.09028" lon="7.08455">
        <ele>944.6</ele>
        <time>2025-09-08T07:54:47Z</time>
      </trkpt>
      <trkpt lat="48.09025" lon="7.08458">
        <ele>944.8</ele>
        <time>2025-09-08T07:54:48Z</time>
      </trkpt>
      <trkpt lat="48.09021" lon="7.08461">
        <ele>945</ele>
        <time>2025-09-08T07:54:49Z</time>
      </trkpt>
      <trkpt lat="48.09017" lon="7.08463">
        <ele>945.6</ele>
        <time>2025-09-08T07:54:50Z</time>
      </trkpt>
      <trkpt lat="48.09014" lon="7.08465">
        <ele>945.8</ele>
        <time>2025-09-08T07:54:51Z</time>
      </trkpt>
      <trkpt lat="48.0901" lon="7.08468">
        <ele>946</ele>
        <time>2025-09-08T07:54:52Z</time>
      </trkpt>
      <trkpt lat="48.09006" lon="7.0847">
        <ele>946</ele>
        <time>2025-09-08T07:54:53Z</time>
      </trkpt>
      <trkpt lat="48.09003" lon="7.08472">
        <ele>946.2</ele>
        <time>2025-09-08T07:54:54Z</time>
      </trkpt>
      <trkpt lat="48.08999" lon="7.08475">
        <ele>946.6</ele>
        <time>2025-09-08T07:54:55Z</time>
      </trkpt>
      <trkpt lat="48.08995" lon="7.08477">
        <ele>946.6</ele>
        <time>2025-09-08T07:54:56Z</time>
      </trkpt>
      <trkpt lat="48.08991" lon="7.0848">
        <ele>947.2</ele>
        <time>2025-09-08T07:54:57Z</time>
      </trkpt>
      <trkpt lat="48.08988" lon="7.08482">
        <ele>947.6</ele>
        <time>2025-09-08T07:54:58Z</time>
      </trkpt>
      <trkpt lat="48.08984" lon="7.08482">
        <ele>947.8</ele>
        <time>2025-09-08T07:54:59Z</time>
      </trkpt>
      <trkpt lat="48.0898" lon="7.08483">
        <ele>948</ele>
        <time>2025-09-08T07:55:00Z</time>
      </trkpt>
      <trkpt lat="48.08976" lon="7.08483">
        <ele>948.2</ele>
        <time>2025-09-08T07:55:01Z</time>
      </trkpt>
      <trkpt lat="48.08972" lon="7.08482">
        <ele>948.4</ele>
        <time>2025-09-08T07:55:02Z</time>
      </trkpt>
      <trkpt lat="48.08968" lon="7.08482">
        <ele>948.6</ele>
        <time>2025-09-08T07:55:03Z</time>
      </trkpt>
      <trkpt lat="48.08964" lon="7.08479">
        <ele>948.8</ele>
        <time>2025-09-08T07:55:04Z</time>
      </trkpt>
      <trkpt lat="48.08961" lon="7.08477">
        <ele>949</ele>
        <time>2025-09-08T07:55:05Z</time>
      </trkpt>
      <trkpt lat="48.08958" lon="7.08473">
        <ele>949</ele>
        <time>2025-09-08T07:55:06Z</time>
      </trkpt>
      <trkpt lat="48.08955" lon="7.0847">
        <ele>949.2</ele>
        <time>2025-09-08T07:55:07Z</time>
      </trkpt>
      <trkpt lat="48.08952" lon="7.08465">
        <ele>949.2</ele>
        <time>2025-09-08T07:55:08Z</time>
      </trkpt>
      <trkpt lat="48.0895" lon="7.0846">
        <ele>949.6</ele>
        <time>2025-09-08T07:55:09Z</time>
      </trkpt>
      <trkpt lat="48.08947" lon="7.08456">
        <ele>949.8</ele>
        <time>2025-09-08T07:55:10Z</time>
      </trkpt>
      <trkpt lat="48.08944" lon="7.08452">
        <ele>949.8</ele>
        <time>2025-09-08T07:55:11Z</time>
      </trkpt>
      <trkpt lat="48.08942" lon="7.08449">
        <ele>950</ele>
        <time>2025-09-08T07:55:12Z</time>
      </trkpt>
      <trkpt lat="48.08942" lon="7.0844">
        <ele>950</ele>
        <time>2025-09-08T07:55:13Z</time>
      </trkpt>
      <trkpt lat="48.08941" lon="7.08433">
        <ele>950.4</ele>
        <time>2025-09-08T07:55:14Z</time>
      </trkpt>
      <trkpt lat="48.08938" lon="7.08428">
        <ele>950.4</ele>
        <time>2025-09-08T07:55:15Z</time>
      </trkpt>
      <trkpt lat="48.08935" lon="7.08424">
        <ele>950.6</ele>
        <time>2025-09-08T07:55:16Z</time>
      </trkpt>
      <trkpt lat="48.08933" lon="7.08421">
        <ele>950.6</ele>
        <time>2025-09-08T07:55:17Z</time>
      </trkpt>
      <trkpt lat="48.0893" lon="7.08417">
        <ele>951</ele>
        <time>2025-09-08T07:55:18Z</time>
      </trkpt>
      <trkpt lat="48.08928" lon="7.08414">
        <ele>951.2</ele>
        <time>2025-09-08T07:55:19Z</time>
      </trkpt>
      <trkpt lat="48.08926" lon="7.08409">
        <ele>952</ele>
        <time>2025-09-08T07:55:20Z</time>
      </trkpt>
      <trkpt lat="48.08924" lon="7.08405">
        <ele>952</ele>
        <time>2025-09-08T07:55:21Z</time>
      </trkpt>
      <trkpt lat="48.08921" lon="7.084">
        <ele>952</ele>
        <time>2025-09-08T07:55:22Z</time>
      </trkpt>
      <trkpt lat="48.08918" lon="7.08395">
        <ele>952.2</ele>
        <time>2025-09-08T07:55:23Z</time>
      </trkpt>
      <trkpt lat="48.08916" lon="7.08391">
        <ele>952.6</ele>
        <time>2025-09-08T07:55:24Z</time>
      </trkpt>
      <trkpt lat="48.08914" lon="7.08386">
        <ele>953</ele>
        <time>2025-09-08T07:55:25Z</time>
      </trkpt>
      <trkpt lat="48.08912" lon="7.08381">
        <ele>953.4</ele>
        <time>2025-09-08T07:55:26Z</time>
      </trkpt>
      <trkpt lat="48.08909" lon="7.08376">
        <ele>953.6</ele>
        <time>2025-09-08T07:55:27Z</time>
      </trkpt>
      <trkpt lat="48.08907" lon="7.08371">
        <ele>954</ele>
        <time>2025-09-08T07:55:28Z</time>
      </trkpt>
      <trkpt lat="48.08904" lon="7.08368">
        <ele>954.2</ele>
        <time>2025-09-08T07:55:29Z</time>
      </trkpt>
      <trkpt lat="48.08902" lon="7.08364">
        <ele>954.8</ele>
        <time>2025-09-08T07:55:30Z</time>
      </trkpt>
      <trkpt lat="48.08899" lon="7.0836">
        <ele>954.8</ele>
        <time>2025-09-08T07:55:31Z</time>
      </trkpt>
      <trkpt lat="48.08897" lon="7.08355">
        <ele>955.4</ele>
        <time>2025-09-08T07:55:32Z</time>
      </trkpt>
      <trkpt lat="48.08895" lon="7.0835">
        <ele>955.6</ele>
        <time>2025-09-08T07:55:33Z</time>
      </trkpt>
      <trkpt lat="48.08893" lon="7.08345">
        <ele>956</ele>
        <time>2025-09-08T07:55:34Z</time>
      </trkpt>
      <trkpt lat="48.08891" lon="7.0834">
        <ele>956.2</ele>
        <time>2025-09-08T07:55:35Z</time>
      </trkpt>
      <trkpt lat="48.08888" lon="7.08337">
        <ele>956.6</ele>
        <time>2025-09-08T07:55:36Z</time>
      </trkpt>
      <trkpt lat="48.08885" lon="7.08332">
        <ele>956.6</ele>
        <time>2025-09-08T07:55:37Z</time>
      </trkpt>
      <trkpt lat="48.08883" lon="7.08328">
        <ele>957</ele>
        <time>2025-09-08T07:55:38Z</time>
      </trkpt>
      <trkpt lat="48.08881" lon="7.08323">
        <ele>957.2</ele>
        <time>2025-09-08T07:55:39Z</time>
      </trkpt>
      <trkpt lat="48.08879" lon="7.08318">
        <ele>957.4</ele>
        <time>2025-09-08T07:55:40Z</time>
      </trkpt>
      <trkpt lat="48.08877" lon="7.08313">
        <ele>957.6</ele>
        <time>2025-09-08T07:55:41Z</time>
      </trkpt>
      <trkpt lat="48.08875" lon="7.08309">
        <ele>957.8</ele>
        <time>2025-09-08T07:55:42Z</time>
      </trkpt>
      <trkpt lat="48.08872" lon="7.08304">
        <ele>958.2</ele>
        <time>2025-09-08T07:55:43Z</time>
      </trkpt>
      <trkpt lat="48.08869" lon="7.08299">
        <ele>958.4</ele>
        <time>2025-09-08T07:55:44Z</time>
      </trkpt>
      <trkpt lat="48.08866" lon="7.08295">
        <ele>958.6</ele>
        <time>2025-09-08T07:55:45Z</time>
      </trkpt>
      <trkpt lat="48.08863" lon="7.0829">
        <ele>958.8</ele>
        <time>2025-09-08T07:55:46Z</time>
      </trkpt>
      <trkpt lat="48.08861" lon="7.08286">
        <ele>959.4</ele>
        <time>2025-09-08T07:55:47Z</time>
      </trkpt>
      <trkpt lat="48.08859" lon="7.08281">
        <ele>959.6</ele>
        <time>2025-09-08T07:55:48Z</time>
      </trkpt>
      <trkpt lat="48.08856" lon="7.08276">
        <ele>959.6</ele>
        <time>2025-09-08T07:55:49Z</time>
      </trkpt>
      <trkpt lat="48.08854" lon="7.08271">
        <ele>960</ele>
        <time>2025-09-08T07:55:50Z</time>
      </trkpt>
      <trkpt lat="48.08852" lon="7.08267">
        <ele>960.2</ele>
        <time>2025-09-08T07:55:51Z</time>
      </trkpt>
      <trkpt lat="48.0885" lon="7.08262">
        <ele>960.6</ele>
        <time>2025-09-08T07:55:52Z</time>
      </trkpt>
      <trkpt lat="48.08848" lon="7.08258">
        <ele>960.8</ele>
        <time>2025-09-08T07:55:53Z</time>
      </trkpt>
      <trkpt lat="48.08845" lon="7.08254">
        <ele>961</ele>
        <time>2025-09-08T07:55:54Z</time>
      </trkpt>
      <trkpt lat="48.08842" lon="7.0825">
        <ele>961.2</ele>
        <time>2025-09-08T07:55:55Z</time>
      </trkpt>
      <trkpt lat="48.0884" lon="7.08245">
        <ele>961.6</ele>
        <time>2025-09-08T07:55:56Z</time>
      </trkpt>
      <trkpt lat="48.08838" lon="7.0824">
        <ele>961.8</ele>
        <time>2025-09-08T07:55:57Z</time>
      </trkpt>
      <trkpt lat="48.08835" lon="7.08236">
        <ele>961.8</ele>
        <time>2025-09-08T07:55:58Z</time>
      </trkpt>
      <trkpt lat="48.08832" lon="7.08231">
        <ele>961.8</ele>
        <time>2025-09-08T07:55:59Z</time>
      </trkpt>
      <trkpt lat="48.08829" lon="7.08227">
        <ele>962.2</ele>
        <time>2025-09-08T07:56:00Z</time>
      </trkpt>
      <trkpt lat="48.08826" lon="7.08223">
        <ele>962.4</ele>
        <time>2025-09-08T07:56:01Z</time>
      </trkpt>
      <trkpt lat="48.08823" lon="7.08219">
        <ele>962.4</ele>
        <time>2025-09-08T07:56:02Z</time>
      </trkpt>
      <trkpt lat="48.08819" lon="7.08215">
        <ele>962.8</ele>
        <time>2025-09-08T07:56:03Z</time>
      </trkpt>
      <trkpt lat="48.08817" lon="7.08211">
        <ele>963</ele>
        <time>2025-09-08T07:56:04Z</time>
      </trkpt>
      <trkpt lat="48.08814" lon="7.08207">
        <ele>963.2</ele>
        <time>2025-09-08T07:56:05Z</time>
      </trkpt>
      <trkpt lat="48.08811" lon="7.08204">
        <ele>963.4</ele>
        <time>2025-09-08T07:56:06Z</time>
      </trkpt>
      <trkpt lat="48.08808" lon="7.082">
        <ele>963.8</ele>
        <time>2025-09-08T07:56:07Z</time>
      </trkpt>
      <trkpt lat="48.08806" lon="7.08196">
        <ele>964</ele>
        <time>2025-09-08T07:56:08Z</time>
      </trkpt>
      <trkpt lat="48.08803" lon="7.08192">
        <ele>964.2</ele>
        <time>2025-09-08T07:56:09Z</time>
      </trkpt>
      <trkpt lat="48.08801" lon="7.08188">
        <ele>964.6</ele>
        <time>2025-09-08T07:56:10Z</time>
      </trkpt>
      <trkpt lat="48.08799" lon="7.08184">
        <ele>964.8</ele>
        <time>2025-09-08T07:56:11Z</time>
      </trkpt>
      <trkpt lat="48.08797" lon="7.08179">
        <ele>964.8</ele>
        <time>2025-09-08T07:56:12Z</time>
      </trkpt>
      <trkpt lat="48.08794" lon="7.08175">
        <ele>965.2</ele>
        <time>2025-09-08T07:56:13Z</time>
      </trkpt>
      <trkpt lat="48.08792" lon="7.0817">
        <ele>965.4</ele>
        <time>2025-09-08T07:56:14Z</time>
      </trkpt>
      <trkpt lat="48.0879" lon="7.08165">
        <ele>965.6</ele>
        <time>2025-09-08T07:56:15Z</time>
      </trkpt>
      <trkpt lat="48.08787" lon="7.08161">
        <ele>965.8</ele>
        <time>2025-09-08T07:56:16Z</time>
      </trkpt>
      <trkpt lat="48.08785" lon="7.08157">
        <ele>965.8</ele>
        <time>2025-09-08T07:56:17Z</time>
      </trkpt>
      <trkpt lat="48.08782" lon="7.08153">
        <ele>966.2</ele>
        <time>2025-09-08T07:56:18Z</time>
      </trkpt>
      <trkpt lat="48.08781" lon="7.08148">
        <ele>966.4</ele>
        <time>2025-09-08T07:56:19Z</time>
      </trkpt>
      <trkpt lat="48.08779" lon="7.08144">
        <ele>966.4</ele>
        <time>2025-09-08T07:56:20Z</time>
      </trkpt>
      <trkpt lat="48.08777" lon="7.08139">
        <ele>966.6</ele>
        <time>2025-09-08T07:56:21Z</time>
      </trkpt>
      <trkpt lat="48.08776" lon="7.08134">
        <ele>966.8</ele>
        <time>2025-09-08T07:56:22Z</time>
      </trkpt>
      <trkpt lat="48.08775" lon="7.08128">
        <ele>967.2</ele>
        <time>2025-09-08T07:56:23Z</time>
      </trkpt>
      <trkpt lat="48.08774" lon="7.08123">
        <ele>967.4</ele>
        <time>2025-09-08T07:56:24Z</time>
      </trkpt>
      <trkpt lat="48.08773" lon="7.08116">
        <ele>967.6</ele>
        <time>2025-09-08T07:56:25Z</time>
      </trkpt>
      <trkpt lat="48.08773" lon="7.0811">
        <ele>968</ele>
        <time>2025-09-08T07:56:26Z</time>
      </trkpt>
      <trkpt lat="48.08773" lon="7.08103">
        <ele>968.4</ele>
        <time>2025-09-08T07:56:27Z</time>
      </trkpt>
      <trkpt lat="48.08774" lon="7.08097">
        <ele>968.8</ele>
        <time>2025-09-08T07:56:28Z</time>
      </trkpt>
      <trkpt lat="48.08774" lon="7.0809">
        <ele>969.2</ele>
        <time>2025-09-08T07:56:29Z</time>
      </trkpt>
      <trkpt lat="48.08774" lon="7.08083">
        <ele>969.4</ele>
        <time>2025-09-08T07:56:30Z</time>
      </trkpt>
      <trkpt lat="48.08775" lon="7.08077">
        <ele>969.8</ele>
        <time>2025-09-08T07:56:31Z</time>
      </trkpt>
      <trkpt lat="48.08776" lon="7.08071">
        <ele>970.4</ele>
        <time>2025-09-08T07:56:32Z</time>
      </trkpt>
      <trkpt lat="48.08776" lon="7.08066">
        <ele>970.6</ele>
        <time>2025-09-08T07:56:33Z</time>
      </trkpt>
      <trkpt lat="48.08777" lon="7.08062">
        <ele>971</ele>
        <time>2025-09-08T07:56:34Z</time>
      </trkpt>
      <trkpt lat="48.08779" lon="7.0806">
        <ele>971.2</ele>
        <time>2025-09-08T07:56:35Z</time>
      </trkpt>
      <trkpt lat="48.08779" lon="7.0806">
        <ele>971.4</ele>
        <time>2025-09-08T07:56:36Z</time>
      </trkpt>
      <trkpt lat="48.08779" lon="7.08057">
        <ele>971.6</ele>
        <time>2025-09-08T07:56:37Z</time>
      </trkpt>
      <trkpt lat="48.08779" lon="7.08057">
        <ele>971.8</ele>
        <time>2025-09-08T07:56:38Z</time>
      </trkpt>
      <trkpt lat="48.0878" lon="7.08052">
        <ele>972.8</ele>
        <time>2025-09-08T07:56:59Z</time>
      </trkpt>
      <trkpt lat="48.0878" lon="7.08049">
        <ele>972.8</ele>
        <time>2025-09-08T07:57:00Z</time>
      </trkpt>
      <trkpt lat="48.08781" lon="7.08045">
        <ele>972.8</ele>
        <time>2025-09-08T07:57:01Z</time>
      </trkpt>
      <trkpt lat="48.08782" lon="7.08042">
        <ele>972.8</ele>
        <time>2025-09-08T07:57:02Z</time>
      </trkpt>
      <trkpt lat="48.08784" lon="7.08038">
        <ele>972.8</ele>
        <time>2025-09-08T07:57:03Z</time>
      </trkpt>
      <trkpt lat="48.08786" lon="7.08034">
        <ele>972.8</ele>
        <time>2025-09-08T07:57:04Z</time>
      </trkpt>
      <trkpt lat="48.08787" lon="7.0803">
        <ele>972.8</ele>
        <time>2025-09-08T07:57:05Z</time>
      </trkpt>
      <trkpt lat="48.08788" lon="7.08026">
        <ele>973</ele>
        <time>2025-09-08T07:57:06Z</time>
      </trkpt>
      <trkpt lat="48.0879" lon="7.08022">
        <ele>973</ele>
        <time>2025-09-08T07:57:07Z</time>
      </trkpt>
      <trkpt lat="48.08791" lon="7.08017">
        <ele>973.2</ele>
        <time>2025-09-08T07:57:08Z</time>
      </trkpt>
      <trkpt lat="48.08791" lon="7.08012">
        <ele>973.4</ele>
        <time>2025-09-08T07:57:09Z</time>
      </trkpt>
      <trkpt lat="48.08792" lon="7.08007">
        <ele>973.4</ele>
        <time>2025-09-08T07:57:10Z</time>
      </trkpt>
      <trkpt lat="48.08794" lon="7.08003">
        <ele>973.6</ele>
        <time>2025-09-08T07:57:11Z</time>
      </trkpt>
      <trkpt lat="48.08795" lon="7.07998">
        <ele>973.6</ele>
        <time>2025-09-08T07:57:12Z</time>
      </trkpt>
      <trkpt lat="48.08797" lon="7.07993">
        <ele>973.8</ele>
        <time>2025-09-08T07:57:13Z</time>
      </trkpt>
      <trkpt lat="48.08799" lon="7.07987">
        <ele>974</ele>
        <time>2025-09-08T07:57:14Z</time>
      </trkpt>
      <trkpt lat="48.088" lon="7.07982">
        <ele>974.2</ele>
        <time>2025-09-08T07:57:15Z</time>
      </trkpt>
      <trkpt lat="48.08801" lon="7.07977">
        <ele>974.4</ele>
        <time>2025-09-08T07:57:16Z</time>
      </trkpt>
      <trkpt lat="48.08803" lon="7.07972">
        <ele>974.6</ele>
        <time>2025-09-08T07:57:17Z</time>
      </trkpt>
      <trkpt lat="48.08805" lon="7.07967">
        <ele>974.8</ele>
        <time>2025-09-08T07:57:18Z</time>
      </trkpt>
      <trkpt lat="48.08806" lon="7.07963">
        <ele>975.2</ele>
        <time>2025-09-08T07:57:19Z</time>
      </trkpt>
      <trkpt lat="48.08807" lon="7.07958">
        <ele>975.4</ele>
        <time>2025-09-08T07:57:20Z</time>
      </trkpt>
      <trkpt lat="48.08808" lon="7.07952">
        <ele>975.6</ele>
        <time>2025-09-08T07:57:21Z</time>
      </trkpt>
      <trkpt lat="48.08809" lon="7.07947">
        <ele>976</ele>
        <time>2025-09-08T07:57:22Z</time>
      </trkpt>
      <trkpt lat="48.0881" lon="7.07942">
        <ele>976.2</ele>
        <time>2025-09-08T07:57:23Z</time>
      </trkpt>
      <trkpt lat="48.0881" lon="7.07936">
        <ele>976.2</ele>
        <time>2025-09-08T07:57:24Z</time>
      </trkpt>
      <trkpt lat="48.0881" lon="7.07932">
        <ele>976.8</ele>
        <time>2025-09-08T07:57:25Z</time>
      </trkpt>
      <trkpt lat="48.08811" lon="7.07927">
        <ele>977</ele>
        <time>2025-09-08T07:57:26Z</time>
      </trkpt>
      <trkpt lat="48.08811" lon="7.07922">
        <ele>977.2</ele>
        <time>2025-09-08T07:57:27Z</time>
      </trkpt>
      <trkpt lat="48.08812" lon="7.07917">
        <ele>977.2</ele>
        <time>2025-09-08T07:57:28Z</time>
      </trkpt>
      <trkpt lat="48.08813" lon="7.07911">
        <ele>977.6</ele>
        <time>2025-09-08T07:57:29Z</time>
      </trkpt>
      <trkpt lat="48.08815" lon="7.07906">
        <ele>977.8</ele>
        <time>2025-09-08T07:57:30Z</time>
      </trkpt>
      <trkpt lat="48.08816" lon="7.07901">
        <ele>978</ele>
        <time>2025-09-08T07:57:31Z</time>
      </trkpt>
      <trkpt lat="48.08818" lon="7.07896">
        <ele>978.4</ele>
        <time>2025-09-08T07:57:32Z</time>
      </trkpt>
      <trkpt lat="48.0882" lon="7.07891">
        <ele>978.4</ele>
        <time>2025-09-08T07:57:33Z</time>
      </trkpt>
      <trkpt lat="48.08822" lon="7.07887">
        <ele>978.6</ele>
        <time>2025-09-08T07:57:34Z</time>
      </trkpt>
      <trkpt lat="48.08823" lon="7.07882">
        <ele>978.8</ele>
        <time>2025-09-08T07:57:35Z</time>
      </trkpt>
      <trkpt lat="48.08824" lon="7.07877">
        <ele>979</ele>
        <time>2025-09-08T07:57:36Z</time>
      </trkpt>
      <trkpt lat="48.08826" lon="7.07872">
        <ele>979.4</ele>
        <time>2025-09-08T07:57:37Z</time>
      </trkpt>
      <trkpt lat="48.08828" lon="7.07868">
        <ele>979.4</ele>
        <time>2025-09-08T07:57:38Z</time>
      </trkpt>
      <trkpt lat="48.08831" lon="7.07863">
        <ele>979.6</ele>
        <time>2025-09-08T07:57:39Z</time>
      </trkpt>
      <trkpt lat="48.08833" lon="7.07859">
        <ele>979.8</ele>
        <time>2025-09-08T07:57:40Z</time>
      </trkpt>
      <trkpt lat="48.08835" lon="7.07855">
        <ele>980</ele>
        <time>2025-09-08T07:57:41Z</time>
      </trkpt>
      <trkpt lat="48.08837" lon="7.0785">
        <ele>980.2</ele>
        <time>2025-09-08T07:57:42Z</time>
      </trkpt>
      <trkpt lat="48.08839" lon="7.07846">
        <ele>980.4</ele>
        <time>2025-09-08T07:57:43Z</time>
      </trkpt>
      <trkpt lat="48.08841" lon="7.07842">
        <ele>980.6</ele>
        <time>2025-09-08T07:57:44Z</time>
      </trkpt>
      <trkpt lat="48.08843" lon="7.07837">
        <ele>981</ele>
        <time>2025-09-08T07:57:45Z</time>
      </trkpt>
      <trkpt lat="48.08845" lon="7.07833">
        <ele>981.2</ele>
        <time>2025-09-08T07:57:46Z</time>
      </trkpt>
      <trkpt lat="48.08847" lon="7.07828">
        <ele>981.4</ele>
        <time>2025-09-08T07:57:47Z</time>
      </trkpt>
      <trkpt lat="48.0885" lon="7.07824">
        <ele>981.6</ele>
        <time>2025-09-08T07:57:48Z</time>
      </trkpt>
      <trkpt lat="48.08851" lon="7.0782">
        <ele>982</ele>
        <time>2025-09-08T07:57:49Z</time>
      </trkpt>
      <trkpt lat="48.08854" lon="7.07816">
        <ele>982.2</ele>
        <time>2025-09-08T07:57:50Z</time>
      </trkpt>
      <trkpt lat="48.08856" lon="7.07811">
        <ele>982.4</ele>
        <time>2025-09-08T07:57:51Z</time>
      </trkpt>
      <trkpt lat="48.08858" lon="7.07807">
        <ele>982.4</ele>
        <time>2025-09-08T07:57:52Z</time>
      </trkpt>
      <trkpt lat="48.0886" lon="7.07803">
        <ele>982.8</ele>
        <time>2025-09-08T07:57:53Z</time>
      </trkpt>
      <trkpt lat="48.08862" lon="7.07798">
        <ele>983</ele>
        <time>2025-09-08T07:57:54Z</time>
      </trkpt>
      <trkpt lat="48.08864" lon="7.07795">
        <ele>983</ele>
        <time>2025-09-08T07:57:55Z</time>
      </trkpt>
      <trkpt lat="48.08865" lon="7.07791">
        <ele>983.2</ele>
        <time>2025-09-08T07:57:56Z</time>
      </trkpt>
      <trkpt lat="48.08868" lon="7.07788">
        <ele>983.8</ele>
        <time>2025-09-08T07:57:57Z</time>
      </trkpt>
      <trkpt lat="48.0887" lon="7.07784">
        <ele>984</ele>
        <time>2025-09-08T07:57:58Z</time>
      </trkpt>
      <trkpt lat="48.08873" lon="7.07781">
        <ele>984.4</ele>
        <time>2025-09-08T07:57:59Z</time>
      </trkpt>
      <trkpt lat="48.08875" lon="7.07778">
        <ele>984.6</ele>
        <time>2025-09-08T07:58:00Z</time>
      </trkpt>
      <trkpt lat="48.08878" lon="7.07774">
        <ele>984.6</ele>
        <time>2025-09-08T07:58:01Z</time>
      </trkpt>
      <trkpt lat="48.08881" lon="7.07771">
        <ele>985</ele>
        <time>2025-09-08T07:58:02Z</time>
      </trkpt>
      <trkpt lat="48.08884" lon="7.07767">
        <ele>985.2</ele>
        <time>2025-09-08T07:58:03Z</time>
      </trkpt>
      <trkpt lat="48.08886" lon="7.07764">
        <ele>985.4</ele>
        <time>2025-09-08T07:58:04Z</time>
      </trkpt>
      <trkpt lat="48.08889" lon="7.07761">
        <ele>985.6</ele>
        <time>2025-09-08T07:58:05Z</time>
      </trkpt>
      <trkpt lat="48.08892" lon="7.07759">
        <ele>985.8</ele>
        <time>2025-09-08T07:58:06Z</time>
      </trkpt>
      <trkpt lat="48.08895" lon="7.07757">
        <ele>985.8</ele>
        <time>2025-09-08T07:58:07Z</time>
      </trkpt>
      <trkpt lat="48.08898" lon="7.07755">
        <ele>986</ele>
        <time>2025-09-08T07:58:08Z</time>
      </trkpt>
      <trkpt lat="48.08901" lon="7.07754">
        <ele>986.4</ele>
        <time>2025-09-08T07:58:09Z</time>
      </trkpt>
      <trkpt lat="48.08905" lon="7.07753">
        <ele>986.6</ele>
        <time>2025-09-08T07:58:10Z</time>
      </trkpt>
      <trkpt lat="48.08908" lon="7.07752">
        <ele>986.6</ele>
        <time>2025-09-08T07:58:11Z</time>
      </trkpt>
      <trkpt lat="48.08911" lon="7.07751">
        <ele>986.6</ele>
        <time>2025-09-08T07:58:12Z</time>
      </trkpt>
      <trkpt lat="48.08914" lon="7.0775">
        <ele>987</ele>
        <time>2025-09-08T07:58:13Z</time>
      </trkpt>
      <trkpt lat="48.08917" lon="7.0775">
        <ele>987.4</ele>
        <time>2025-09-08T07:58:14Z</time>
      </trkpt>
      <trkpt lat="48.0892" lon="7.07749">
        <ele>987.4</ele>
        <time>2025-09-08T07:58:15Z</time>
      </trkpt>
      <trkpt lat="48.08923" lon="7.07748">
        <ele>987.6</ele>
        <time>2025-09-08T07:58:16Z</time>
      </trkpt>
      <trkpt lat="48.08926" lon="7.07746">
        <ele>987.8</ele>
        <time>2025-09-08T07:58:17Z</time>
      </trkpt>
      <trkpt lat="48.0893" lon="7.07745">
        <ele>988.2</ele>
        <time>2025-09-08T07:58:18Z</time>
      </trkpt>
      <trkpt lat="48.08933" lon="7.07743">
        <ele>988.4</ele>
        <time>2025-09-08T07:58:19Z</time>
      </trkpt>
      <trkpt lat="48.08936" lon="7.07741">
        <ele>988.8</ele>
        <time>2025-09-08T07:58:20Z</time>
      </trkpt>
      <trkpt lat="48.08938" lon="7.07739">
        <ele>989.4</ele>
        <time>2025-09-08T07:58:21Z</time>
      </trkpt>
      <trkpt lat="48.08941" lon="7.07736">
        <ele>989.6</ele>
        <time>2025-09-08T07:58:22Z</time>
      </trkpt>
      <trkpt lat="48.08944" lon="7.07733">
        <ele>990</ele>
        <time>2025-09-08T07:58:23Z</time>
      </trkpt>
      <trkpt lat="48.08947" lon="7.0773">
        <ele>990.2</ele>
        <time>2025-09-08T07:58:24Z</time>
      </trkpt>
      <trkpt lat="48.08949" lon="7.07727">
        <ele>990.4</ele>
        <time>2025-09-08T07:58:25Z</time>
      </trkpt>
      <trkpt lat="48.08952" lon="7.07725">
        <ele>990.8</ele>
        <time>2025-09-08T07:58:26Z</time>
      </trkpt>
      <trkpt lat="48.08955" lon="7.07722">
        <ele>991</ele>
        <time>2025-09-08T07:58:27Z</time>
      </trkpt>
      <trkpt lat="48.08957" lon="7.07717">
        <ele>991.4</ele>
        <time>2025-09-08T07:58:28Z</time>
      </trkpt>
      <trkpt lat="48.08959" lon="7.07713">
        <ele>991.8</ele>
        <time>2025-09-08T07:58:29Z</time>
      </trkpt>
      <trkpt lat="48.08961" lon="7.07708">
        <ele>991.8</ele>
        <time>2025-09-08T07:58:30Z</time>
      </trkpt>
      <trkpt lat="48.08963" lon="7.07703">
        <ele>992.2</ele>
        <time>2025-09-08T07:58:31Z</time>
      </trkpt>
      <trkpt lat="48.08965" lon="7.07698">
        <ele>992.6</ele>
        <time>2025-09-08T07:58:32Z</time>
      </trkpt>
      <trkpt lat="48.08967" lon="7.07693">
        <ele>992.6</ele>
        <time>2025-09-08T07:58:33Z</time>
      </trkpt>
      <trkpt lat="48.08968" lon="7.07687">
        <ele>992.6</ele>
        <time>2025-09-08T07:58:34Z</time>
      </trkpt>
      <trkpt lat="48.08968" lon="7.07681">
        <ele>992.6</ele>
        <time>2025-09-08T07:58:35Z</time>
      </trkpt>
      <trkpt lat="48.08969" lon="7.07674">
        <ele>992.6</ele>
        <time>2025-09-08T07:58:36Z</time>
      </trkpt>
      <trkpt lat="48.08969" lon="7.07667">
        <ele>992.4</ele>
        <time>2025-09-08T07:58:37Z</time>
      </trkpt>
      <trkpt lat="48.08969" lon="7.07659">
        <ele>992.4</ele>
        <time>2025-09-08T07:58:38Z</time>
      </trkpt>
      <trkpt lat="48.08968" lon="7.07652">
        <ele>992.2</ele>
        <time>2025-09-08T07:58:39Z</time>
      </trkpt>
      <trkpt lat="48.08966" lon="7.07644">
        <ele>991.8</ele>
        <time>2025-09-08T07:58:40Z</time>
      </trkpt>
      <trkpt lat="48.08965" lon="7.07637">
        <ele>991.8</ele>
        <time>2025-09-08T07:58:41Z</time>
      </trkpt>
      <trkpt lat="48.08964" lon="7.07629">
        <ele>991.6</ele>
        <time>2025-09-08T07:58:42Z</time>
      </trkpt>
      <trkpt lat="48.08964" lon="7.0762">
        <ele>991.2</ele>
        <time>2025-09-08T07:58:43Z</time>
      </trkpt>
      <trkpt lat="48.08967" lon="7.07611">
        <ele>991</ele>
        <time>2025-09-08T07:58:44Z</time>
      </trkpt>
      <trkpt lat="48.08972" lon="7.07604">
        <ele>990.6</ele>
        <time>2025-09-08T07:58:45Z</time>
      </trkpt>
      <trkpt lat="48.08977" lon="7.07598">
        <ele>990</ele>
        <time>2025-09-08T07:58:46Z</time>
      </trkpt>
      <trkpt lat="48.08983" lon="7.07592">
        <ele>989.6</ele>
        <time>2025-09-08T07:58:47Z</time>
      </trkpt>
      <trkpt lat="48.08989" lon="7.07587">
        <ele>989.2</ele>
        <time>2025-09-08T07:58:48Z</time>
      </trkpt>
      <trkpt lat="48.08995" lon="7.07582">
        <ele>988.8</ele>
        <time>2025-09-08T07:58:49Z</time>
      </trkpt>
      <trkpt lat="48.09002" lon="7.07577">
        <ele>988.4</ele>
        <time>2025-09-08T07:58:50Z</time>
      </trkpt>
      <trkpt lat="48.09008" lon="7.07572">
        <ele>988</ele>
        <time>2025-09-08T07:58:51Z</time>
      </trkpt>
      <trkpt lat="48.09016" lon="7.07567">
        <ele>987.6</ele>
        <time>2025-09-08T07:58:52Z</time>
      </trkpt>
      <trkpt lat="48.09023" lon="7.07561">
        <ele>987.4</ele>
        <time>2025-09-08T07:58:53Z</time>
      </trkpt>
      <trkpt lat="48.0903" lon="7.07554">
        <ele>986.8</ele>
        <time>2025-09-08T07:58:54Z</time>
      </trkpt>
      <trkpt lat="48.09037" lon="7.07546">
        <ele>986.4</ele>
        <time>2025-09-08T07:58:55Z</time>
      </trkpt>
      <trkpt lat="48.09043" lon="7.07537">
        <ele>985.8</ele>
        <time>2025-09-08T07:58:56Z</time>
      </trkpt>
      <trkpt lat="48.09048" lon="7.07527">
        <ele>984.8</ele>
        <time>2025-09-08T07:58:57Z</time>
      </trkpt>
      <trkpt lat="48.09052" lon="7.07516">
        <ele>984.4</ele>
        <time>2025-09-08T07:58:58Z</time>
      </trkpt>
      <trkpt lat="48.09058" lon="7.07505">
        <ele>984</ele>
        <time>2025-09-08T07:58:59Z</time>
      </trkpt>
      <trkpt lat="48.09063" lon="7.07494">
        <ele>983.2</ele>
        <time>2025-09-08T07:59:00Z</time>
      </trkpt>
      <trkpt lat="48.09069" lon="7.07485">
        <ele>982.6</ele>
        <time>2025-09-08T07:59:01Z</time>
      </trkpt>
      <trkpt lat="48.09075" lon="7.07474">
        <ele>982</ele>
        <time>2025-09-08T07:59:02Z</time>
      </trkpt>
      <trkpt lat="48.09079" lon="7.07463">
        <ele>981.2</ele>
        <time>2025-09-08T07:59:03Z</time>
      </trkpt>
      <trkpt lat="48.09083" lon="7.07452">
        <ele>980.6</ele>
        <time>2025-09-08T07:59:04Z</time>
      </trkpt>
      <trkpt lat="48.09084" lon="7.07439">
        <ele>979.6</ele>
        <time>2025-09-08T07:59:05Z</time>
      </trkpt>
      <trkpt lat="48.09085" lon="7.07426">
        <ele>978.8</ele>
        <time>2025-09-08T07:59:06Z</time>
      </trkpt>
      <trkpt lat="48.09084" lon="7.07415">
        <ele>978.2</ele>
        <time>2025-09-08T07:59:07Z</time>
      </trkpt>
      <trkpt lat="48.0908" lon="7.07406">
        <ele>977.8</ele>
        <time>2025-09-08T07:59:08Z</time>
      </trkpt>
      <trkpt lat="48.09075" lon="7.07398">
        <ele>977.6</ele>
        <time>2025-09-08T07:59:09Z</time>
      </trkpt>
      <trkpt lat="48.09069" lon="7.07391">
        <ele>976.6</ele>
        <time>2025-09-08T07:59:10Z</time>
      </trkpt>
      <trkpt lat="48.09062" lon="7.07386">
        <ele>976</ele>
        <time>2025-09-08T07:59:11Z</time>
      </trkpt>
      <trkpt lat="48.09056" lon="7.07381">
        <ele>975.6</ele>
        <time>2025-09-08T07:59:12Z</time>
      </trkpt>
      <trkpt lat="48.0905" lon="7.07378">
        <ele>975.2</ele>
        <time>2025-09-08T07:59:13Z</time>
      </trkpt>
      <trkpt lat="48.09045" lon="7.07375">
        <ele>975</ele>
        <time>2025-09-08T07:59:14Z</time>
      </trkpt>
      <trkpt lat="48.0904" lon="7.07373">
        <ele>975</ele>
        <time>2025-09-08T07:59:15Z</time>
      </trkpt>
      <trkpt lat="48.09036" lon="7.07372">
        <ele>975</ele>
        <time>2025-09-08T07:59:16Z</time>
      </trkpt>
      <trkpt lat="48.09031" lon="7.07371">
        <ele>975</ele>
        <time>2025-09-08T07:59:17Z</time>
      </trkpt>
      <trkpt lat="48.09027" lon="7.0737">
        <ele>975.2</ele>
        <time>2025-09-08T07:59:18Z</time>
      </trkpt>
      <trkpt lat="48.09023" lon="7.07369">
        <ele>975.4</ele>
        <time>2025-09-08T07:59:19Z</time>
      </trkpt>
      <trkpt lat="48.09018" lon="7.07368">
        <ele>975.6</ele>
        <time>2025-09-08T07:59:20Z</time>
      </trkpt>
      <trkpt lat="48.09014" lon="7.07367">
        <ele>975.8</ele>
        <time>2025-09-08T07:59:21Z</time>
      </trkpt>
      <trkpt lat="48.0901" lon="7.07365">
        <ele>976.4</ele>
        <time>2025-09-08T07:59:22Z</time>
      </trkpt>
      <trkpt lat="48.09006" lon="7.07364">
        <ele>976.6</ele>
        <time>2025-09-08T07:59:23Z</time>
      </trkpt>
      <trkpt lat="48.09001" lon="7.07364">
        <ele>976.8</ele>
        <time>2025-09-08T07:59:24Z</time>
      </trkpt>
      <trkpt lat="48.08997" lon="7.07364">
        <ele>977.2</ele>
        <time>2025-09-08T07:59:25Z</time>
      </trkpt>
      <trkpt lat="48.08993" lon="7.07364">
        <ele>977.4</ele>
        <time>2025-09-08T07:59:26Z</time>
      </trkpt>
      <trkpt lat="48.08989" lon="7.07364">
        <ele>977.8</ele>
        <time>2025-09-08T07:59:27Z</time>
      </trkpt>
      <trkpt lat="48.08985" lon="7.07364">
        <ele>978</ele>
        <time>2025-09-08T07:59:28Z</time>
      </trkpt>
      <trkpt lat="48.08981" lon="7.07364">
        <ele>978.4</ele>
        <time>2025-09-08T07:59:29Z</time>
      </trkpt>
      <trkpt lat="48.08977" lon="7.07364">
        <ele>978.6</ele>
        <time>2025-09-08T07:59:30Z</time>
      </trkpt>
      <trkpt lat="48.08972" lon="7.07364">
        <ele>978.8</ele>
        <time>2025-09-08T07:59:31Z</time>
      </trkpt>
      <trkpt lat="48.08968" lon="7.07363">
        <ele>979</ele>
        <time>2025-09-08T07:59:32Z</time>
      </trkpt>
      <trkpt lat="48.08964" lon="7.07362">
        <ele>979.4</ele>
        <time>2025-09-08T07:59:33Z</time>
      </trkpt>
      <trkpt lat="48.0896" lon="7.07362">
        <ele>979.6</ele>
        <time>2025-09-08T07:59:34Z</time>
      </trkpt>
      <trkpt lat="48.08956" lon="7.0736">
        <ele>980</ele>
        <time>2025-09-08T07:59:35Z</time>
      </trkpt>
      <trkpt lat="48.08952" lon="7.07358">
        <ele>980.4</ele>
        <time>2025-09-08T07:59:36Z</time>
      </trkpt>
      <trkpt lat="48.08948" lon="7.07356">
        <ele>980.6</ele>
        <time>2025-09-08T07:59:37Z</time>
      </trkpt>
      <trkpt lat="48.08944" lon="7.07354">
        <ele>980.8</ele>
        <time>2025-09-08T07:59:38Z</time>
      </trkpt>
      <trkpt lat="48.0894" lon="7.07353">
        <ele>981.2</ele>
        <time>2025-09-08T07:59:39Z</time>
      </trkpt>
      <trkpt lat="48.08936" lon="7.07351">
        <ele>981.4</ele>
        <time>2025-09-08T07:59:40Z</time>
      </trkpt>
      <trkpt lat="48.08933" lon="7.07349">
        <ele>981.4</ele>
        <time>2025-09-08T07:59:41Z</time>
      </trkpt>
      <trkpt lat="48.08929" lon="7.07348">
        <ele>981.8</ele>
        <time>2025-09-08T07:59:42Z</time>
      </trkpt>
      <trkpt lat="48.08924" lon="7.07347">
        <ele>982.2</ele>
        <time>2025-09-08T07:59:43Z</time>
      </trkpt>
      <trkpt lat="48.0892" lon="7.07345">
        <ele>982.6</ele>
        <time>2025-09-08T07:59:44Z</time>
      </trkpt>
      <trkpt lat="48.08916" lon="7.07344">
        <ele>982.6</ele>
        <time>2025-09-08T07:59:45Z</time>
      </trkpt>
      <trkpt lat="48.08912" lon="7.07343">
        <ele>982.8</ele>
        <time>2025-09-08T07:59:46Z</time>
      </trkpt>
      <trkpt lat="48.08908" lon="7.07343">
        <ele>983.2</ele>
        <time>2025-09-08T07:59:47Z</time>
      </trkpt>
      <trkpt lat="48.08904" lon="7.07342">
        <ele>983.4</ele>
        <time>2025-09-08T07:59:48Z</time>
      </trkpt>
      <trkpt lat="48.08901" lon="7.07342">
        <ele>983.6</ele>
        <time>2025-09-08T07:59:49Z</time>
      </trkpt>
      <trkpt lat="48.08897" lon="7.07342">
        <ele>984.4</ele>
        <time>2025-09-08T07:59:50Z</time>
      </trkpt>
      <trkpt lat="48.08894" lon="7.07341">
        <ele>984.6</ele>
        <time>2025-09-08T07:59:51Z</time>
      </trkpt>
      <trkpt lat="48.0889" lon="7.07342">
        <ele>985</ele>
        <time>2025-09-08T07:59:52Z</time>
      </trkpt>
      <trkpt lat="48.08886" lon="7.07342">
        <ele>985.4</ele>
        <time>2025-09-08T07:59:53Z</time>
      </trkpt>
      <trkpt lat="48.08882" lon="7.07343">
        <ele>985.8</ele>
        <time>2025-09-08T07:59:54Z</time>
      </trkpt>
      <trkpt lat="48.08877" lon="7.07344">
        <ele>986</ele>
        <time>2025-09-08T07:59:55Z</time>
      </trkpt>
      <trkpt lat="48.08873" lon="7.07345">
        <ele>986.2</ele>
        <time>2025-09-08T07:59:56Z</time>
      </trkpt>
      <trkpt lat="48.08869" lon="7.07346">
        <ele>986.6</ele>
        <time>2025-09-08T07:59:57Z</time>
      </trkpt>
      <trkpt lat="48.08864" lon="7.07348">
        <ele>986.8</ele>
        <time>2025-09-08T07:59:58Z</time>
      </trkpt>
      <trkpt lat="48.0886" lon="7.0735">
        <ele>987</ele>
        <time>2025-09-08T07:59:59Z</time>
      </trkpt>
      <trkpt lat="48.08857" lon="7.07351">
        <ele>987.2</ele>
        <time>2025-09-08T08:00:00Z</time>
      </trkpt>
      <trkpt lat="48.08853" lon="7.07352">
        <ele>987.4</ele>
        <time>2025-09-08T08:00:01Z</time>
      </trkpt>
      <trkpt lat="48.08849" lon="7.07353">
        <ele>987.6</ele>
        <time>2025-09-08T08:00:02Z</time>
      </trkpt>
      <trkpt lat="48.08846" lon="7.07354">
        <ele>987.8</ele>
        <time>2025-09-08T08:00:03Z</time>
      </trkpt>
      <trkpt lat="48.08842" lon="7.07355">
        <ele>988.2</ele>
        <time>2025-09-08T08:00:04Z</time>
      </trkpt>
      <trkpt lat="48.08838" lon="7.07356">
        <ele>988.4</ele>
        <time>2025-09-08T08:00:05Z</time>
      </trkpt>
      <trkpt lat="48.08834" lon="7.07356">
        <ele>989</ele>
        <time>2025-09-08T08:00:06Z</time>
      </trkpt>
      <trkpt lat="48.0883" lon="7.07357">
        <ele>989.2</ele>
        <time>2025-09-08T08:00:07Z</time>
      </trkpt>
      <trkpt lat="48.08826" lon="7.07357">
        <ele>989.4</ele>
        <time>2025-09-08T08:00:08Z</time>
      </trkpt>
      <trkpt lat="48.08822" lon="7.07358">
        <ele>989.8</ele>
        <time>2025-09-08T08:00:09Z</time>
      </trkpt>
      <trkpt lat="48.08818" lon="7.07359">
        <ele>990.2</ele>
        <time>2025-09-08T08:00:10Z</time>
      </trkpt>
      <trkpt lat="48.08814" lon="7.0736">
        <ele>990.4</ele>
        <time>2025-09-08T08:00:11Z</time>
      </trkpt>
      <trkpt lat="48.0881" lon="7.0736">
        <ele>990.6</ele>
        <time>2025-09-08T08:00:12Z</time>
      </trkpt>
      <trkpt lat="48.08806" lon="7.0736">
        <ele>990.8</ele>
        <time>2025-09-08T08:00:13Z</time>
      </trkpt>
      <trkpt lat="48.08802" lon="7.07361">
        <ele>991</ele>
        <time>2025-09-08T08:00:14Z</time>
      </trkpt>
      <trkpt lat="48.08798" lon="7.07361">
        <ele>991.4</ele>
        <time>2025-09-08T08:00:15Z</time>
      </trkpt>
      <trkpt lat="48.08794" lon="7.07362">
        <ele>991.6</ele>
        <time>2025-09-08T08:00:16Z</time>
      </trkpt>
      <trkpt lat="48.08791" lon="7.07362">
        <ele>991.8</ele>
        <time>2025-09-08T08:00:17Z</time>
      </trkpt>
      <trkpt lat="48.08787" lon="7.07362">
        <ele>992.2</ele>
        <time>2025-09-08T08:00:18Z</time>
      </trkpt>
      <trkpt lat="48.08783" lon="7.07362">
        <ele>992.4</ele>
        <time>2025-09-08T08:00:19Z</time>
      </trkpt>
      <trkpt lat="48.08779" lon="7.07361">
        <ele>992.6</ele>
        <time>2025-09-08T08:00:20Z</time>
      </trkpt>
      <trkpt lat="48.08775" lon="7.0736">
        <ele>992.8</ele>
        <time>2025-09-08T08:00:21Z</time>
      </trkpt>
      <trkpt lat="48.08772" lon="7.07359">
        <ele>993.2</ele>
        <time>2025-09-08T08:00:22Z</time>
      </trkpt>
      <trkpt lat="48.08768" lon="7.07359">
        <ele>993.4</ele>
        <time>2025-09-08T08:00:23Z</time>
      </trkpt>
      <trkpt lat="48.08764" lon="7.07359">
        <ele>993.6</ele>
        <time>2025-09-08T08:00:24Z</time>
      </trkpt>
      <trkpt lat="48.0876" lon="7.07358">
        <ele>994</ele>
        <time>2025-09-08T08:00:25Z</time>
      </trkpt>
      <trkpt lat="48.08756" lon="7.07358">
        <ele>994.2</ele>
        <time>2025-09-08T08:00:26Z</time>
      </trkpt>
      <trkpt lat="48.08753" lon="7.07359">
        <ele>994.2</ele>
        <time>2025-09-08T08:00:27Z</time>
      </trkpt>
      <trkpt lat="48.08749" lon="7.0736">
        <ele>994.6</ele>
        <time>2025-09-08T08:00:28Z</time>
      </trkpt>
      <trkpt lat="48.08745" lon="7.0736">
        <ele>995</ele>
        <time>2025-09-08T08:00:29Z</time>
      </trkpt>
      <trkpt lat="48.08741" lon="7.0736">
        <ele>995.4</ele>
        <time>2025-09-08T08:00:30Z</time>
      </trkpt>
      <trkpt lat="48.08737" lon="7.07361">
        <ele>995.4</ele>
        <time>2025-09-08T08:00:31Z</time>
      </trkpt>
      <trkpt lat="48.08734" lon="7.07361">
        <ele>995.8</ele>
        <time>2025-09-08T08:00:32Z</time>
      </trkpt>
      <trkpt lat="48.0873" lon="7.07361">
        <ele>996</ele>
        <time>2025-09-08T08:00:33Z</time>
      </trkpt>
      <trkpt lat="48.08727" lon="7.07362">
        <ele>996.2</ele>
        <time>2025-09-08T08:00:34Z</time>
      </trkpt>
      <trkpt lat="48.08723" lon="7.07362">
        <ele>996.4</ele>
        <time>2025-09-08T08:00:35Z</time>
      </trkpt>
      <trkpt lat="48.08719" lon="7.07363">
        <ele>997</ele>
        <time>2025-09-08T08:00:36Z</time>
      </trkpt>
      <trkpt lat="48.08716" lon="7.07361">
        <ele>997.2</ele>
        <time>2025-09-08T08:00:37Z</time>
      </trkpt>
      <trkpt lat="48.08712" lon="7.07361">
        <ele>997.4</ele>
        <time>2025-09-08T08:00:38Z</time>
      </trkpt>
      <trkpt lat="48.08709" lon="7.07361">
        <ele>997.8</ele>
        <time>2025-09-08T08:00:39Z</time>
      </trkpt>
      <trkpt lat="48.08705" lon="7.07361">
        <ele>998.2</ele>
        <time>2025-09-08T08:00:40Z</time>
      </trkpt>
      <trkpt lat="48.08701" lon="7.07361">
        <ele>998.6</ele>
        <time>2025-09-08T08:00:41Z</time>
      </trkpt>
      <trkpt lat="48.08698" lon="7.0736">
        <ele>998.8</ele>
        <time>2025-09-08T08:00:42Z</time>
      </trkpt>
      <trkpt lat="48.08694" lon="7.07359">
        <ele>999.2</ele>
        <time>2025-09-08T08:00:43Z</time>
      </trkpt>
      <trkpt lat="48.0869" lon="7.07358">
        <ele>999.4</ele>
        <time>2025-09-08T08:00:44Z</time>
      </trkpt>
      <trkpt lat="48.08686" lon="7.07356">
        <ele>999.6</ele>
        <time>2025-09-08T08:00:45Z</time>
      </trkpt>
      <trkpt lat="48.08682" lon="7.07355">
        <ele>1000</ele>
        <time>2025-09-08T08:00:46Z</time>
      </trkpt>
      <trkpt lat="48.08678" lon="7.07354">
        <ele>1000.4</ele>
        <time>2025-09-08T08:00:47Z</time>
      </trkpt>
      <trkpt lat="48.08675" lon="7.07353">
        <ele>1000.6</ele>
        <time>2025-09-08T08:00:48Z</time>
      </trkpt>
      <trkpt lat="48.08671" lon="7.0735">
        <ele>1000.8</ele>
        <time>2025-09-08T08:00:49Z</time>
      </trkpt>
      <trkpt lat="48.08668" lon="7.07348">
        <ele>1001</ele>
        <time>2025-09-08T08:00:50Z</time>
      </trkpt>
      <trkpt lat="48.08665" lon="7.07346">
        <ele>1001.4</ele>
        <time>2025-09-08T08:00:51Z</time>
      </trkpt>
      <trkpt lat="48.08662" lon="7.07344">
        <ele>1002</ele>
        <time>2025-09-08T08:00:52Z</time>
      </trkpt>
      <trkpt lat="48.08659" lon="7.07341">
        <ele>1002</ele>
        <time>2025-09-08T08:00:53Z</time>
      </trkpt>
      <trkpt lat="48.08657" lon="7.07338">
        <ele>1002.2</ele>
        <time>2025-09-08T08:00:54Z</time>
      </trkpt>
      <trkpt lat="48.08656" lon="7.07336">
        <ele>1002.4</ele>
        <time>2025-09-08T08:00:55Z</time>
      </trkpt>
      <trkpt lat="48.08654" lon="7.07334">
        <ele>1002.6</ele>
        <time>2025-09-08T08:00:56Z</time>
      </trkpt>
      <trkpt lat="48.08654" lon="7.07334">
        <ele>1002.8</ele>
        <time>2025-09-08T08:00:57Z</time>
      </trkpt>
      <trkpt lat="48.08653" lon="7.07333">
        <ele>1003.2</ele>
        <time>2025-09-08T08:00:58Z</time>
      </trkpt>
      <trkpt lat="48.08653" lon="7.07332">
        <ele>1003.4</ele>
        <time>2025-09-08T08:00:59Z</time>
      </trkpt>
      <trkpt lat="48.08653" lon="7.07332">
        <ele>1003.6</ele>
        <time>2025-09-08T08:01:00Z</time>
      </trkpt>
      <trkpt lat="48.08649" lon="7.07325">
        <ele>1003.2</ele>
        <time>2025-09-08T08:02:24Z</time>
      </trkpt>
      <trkpt lat="48.08648" lon="7.07322">
        <ele>1003.2</ele>
        <time>2025-09-08T08:02:25Z</time>
      </trkpt>
      <trkpt lat="48.08648" lon="7.07319">
        <ele>1003.2</ele>
        <time>2025-09-08T08:02:26Z</time>
      </trkpt>
      <trkpt lat="48.08647" lon="7.07316">
        <ele>1003.2</ele>
        <time>2025-09-08T08:02:27Z</time>
      </trkpt>
      <trkpt lat="48.08647" lon="7.07312">
        <ele>1003.2</ele>
        <time>2025-09-08T08:02:28Z</time>
      </trkpt>
      <trkpt lat="48.08646" lon="7.07309">
        <ele>1003.2</ele>
        <time>2025-09-08T08:02:29Z</time>
      </trkpt>
      <trkpt lat="48.08645" lon="7.07306">
        <ele>1003.2</ele>
        <time>2025-09-08T08:02:30Z</time>
      </trkpt>
      <trkpt lat="48.08645" lon="7.07302">
        <ele>1003.4</ele>
        <time>2025-09-08T08:02:31Z</time>
      </trkpt>
      <trkpt lat="48.08644" lon="7.07299">
        <ele>1003.4</ele>
        <time>2025-09-08T08:02:32Z</time>
      </trkpt>
      <trkpt lat="48.08644" lon="7.07295">
        <ele>1003.6</ele>
        <time>2025-09-08T08:02:33Z</time>
      </trkpt>
      <trkpt lat="48.08643" lon="7.07291">
        <ele>1003.8</ele>
        <time>2025-09-08T08:02:34Z</time>
      </trkpt>
      <trkpt lat="48.08643" lon="7.07287">
        <ele>1004</ele>
        <time>2025-09-08T08:02:35Z</time>
      </trkpt>
      <trkpt lat="48.08642" lon="7.07284">
        <ele>1004.2</ele>
        <time>2025-09-08T08:02:36Z</time>
      </trkpt>
      <trkpt lat="48.08641" lon="7.07279">
        <ele>1004.4</ele>
        <time>2025-09-08T08:02:37Z</time>
      </trkpt>
      <trkpt lat="48.0864" lon="7.07275">
        <ele>1004.6</ele>
        <time>2025-09-08T08:02:38Z</time>
      </trkpt>
      <trkpt lat="48.08639" lon="7.07271">
        <ele>1004.6</ele>
        <time>2025-09-08T08:02:39Z</time>
      </trkpt>
      <trkpt lat="48.08639" lon="7.07267">
        <ele>1004.8</ele>
        <time>2025-09-08T08:02:40Z</time>
      </trkpt>
      <trkpt lat="48.08638" lon="7.07262">
        <ele>1005</ele>
        <time>2025-09-08T08:02:41Z</time>
      </trkpt>
      <trkpt lat="48.08637" lon="7.07258">
        <ele>1005.4</ele>
        <time>2025-09-08T08:02:42Z</time>
      </trkpt>
      <trkpt lat="48.08637" lon="7.07254">
        <ele>1005.4</ele>
        <time>2025-09-08T08:02:43Z</time>
      </trkpt>
      <trkpt lat="48.08636" lon="7.0725">
        <ele>1005.6</ele>
        <time>2025-09-08T08:02:44Z</time>
      </trkpt>
      <trkpt lat="48.08636" lon="7.07247">
        <ele>1005.8</ele>
        <time>2025-09-08T08:02:45Z</time>
      </trkpt>
      <trkpt lat="48.08635" lon="7.07242">
        <ele>1006</ele>
        <time>2025-09-08T08:02:46Z</time>
      </trkpt>
      <trkpt lat="48.08635" lon="7.07239">
        <ele>1006.2</ele>
        <time>2025-09-08T08:02:47Z</time>
      </trkpt>
      <trkpt lat="48.08634" lon="7.07235">
        <ele>1006.6</ele>
        <time>2025-09-08T08:02:48Z</time>
      </trkpt>
      <trkpt lat="48.08634" lon="7.07231">
        <ele>1006.6</ele>
        <time>2025-09-08T08:02:49Z</time>
      </trkpt>
      <trkpt lat="48.08633" lon="7.07227">
        <ele>1006.8</ele>
        <time>2025-09-08T08:02:50Z</time>
      </trkpt>
      <trkpt lat="48.08632" lon="7.07222">
        <ele>1007</ele>
        <time>2025-09-08T08:02:51Z</time>
      </trkpt>
      <trkpt lat="48.08632" lon="7.07217">
        <ele>1007.2</ele>
        <time>2025-09-08T08:02:52Z</time>
      </trkpt>
      <trkpt lat="48.08631" lon="7.07211">
        <ele>1007.6</ele>
        <time>2025-09-08T08:02:53Z</time>
      </trkpt>
      <trkpt lat="48.0863" lon="7.07207">
        <ele>1008</ele>
        <time>2025-09-08T08:02:54Z</time>
      </trkpt>
      <trkpt lat="48.08629" lon="7.07201">
        <ele>1008.2</ele>
        <time>2025-09-08T08:02:55Z</time>
      </trkpt>
      <trkpt lat="48.08629" lon="7.07195">
        <ele>1008.4</ele>
        <time>2025-09-08T08:02:56Z</time>
      </trkpt>
      <trkpt lat="48.08628" lon="7.0719">
        <ele>1008.6</ele>
        <time>2025-09-08T08:02:57Z</time>
      </trkpt>
      <trkpt lat="48.08628" lon="7.07186">
        <ele>1009</ele>
        <time>2025-09-08T08:02:58Z</time>
      </trkpt>
      <trkpt lat="48.08627" lon="7.07181">
        <ele>1009.2</ele>
        <time>2025-09-08T08:02:59Z</time>
      </trkpt>
      <trkpt lat="48.08626" lon="7.07176">
        <ele>1009.4</ele>
        <time>2025-09-08T08:03:00Z</time>
      </trkpt>
      <trkpt lat="48.08626" lon="7.07172">
        <ele>1009.6</ele>
        <time>2025-09-08T08:03:01Z</time>
      </trkpt>
      <trkpt lat="48.08625" lon="7.07168">
        <ele>1009.8</ele>
        <time>2025-09-08T08:03:02Z</time>
      </trkpt>
      <trkpt lat="48.08625" lon="7.07164">
        <ele>1010.2</ele>
        <time>2025-09-08T08:03:03Z</time>
      </trkpt>
      <trkpt lat="48.08624" lon="7.07159">
        <ele>1010.4</ele>
        <time>2025-09-08T08:03:04Z</time>
      </trkpt>
      <trkpt lat="48.08624" lon="7.07154">
        <ele>1010.6</ele>
        <time>2025-09-08T08:03:05Z</time>
      </trkpt>
      <trkpt lat="48.08624" lon="7.0715">
        <ele>1010.8</ele>
        <time>2025-09-08T08:03:06Z</time>
      </trkpt>
      <trkpt lat="48.08623" lon="7.07146">
        <ele>1011</ele>
        <time>2025-09-08T08:03:07Z</time>
      </trkpt>
      <trkpt lat="48.08623" lon="7.07142">
        <ele>1011.2</ele>
        <time>2025-09-08T08:03:08Z</time>
      </trkpt>
      <trkpt lat="48.08622" lon="7.07138">
        <ele>1011.6</ele>
        <time>2025-09-08T08:03:09Z</time>
      </trkpt>
      <trkpt lat="48.08621" lon="7.07133">
        <ele>1011.8</ele>
        <time>2025-09-08T08:03:10Z</time>
      </trkpt>
      <trkpt lat="48.08621" lon="7.07128">
        <ele>1012</ele>
        <time>2025-09-08T08:03:11Z</time>
      </trkpt>
      <trkpt lat="48.0862" lon="7.07123">
        <ele>1012.2</ele>
        <time>2025-09-08T08:03:12Z</time>
      </trkpt>
      <trkpt lat="48.0862" lon="7.07118">
        <ele>1012.6</ele>
        <time>2025-09-08T08:03:13Z</time>
      </trkpt>
      <trkpt lat="48.0862" lon="7.07114">
        <ele>1012.8</ele>
        <time>2025-09-08T08:03:14Z</time>
      </trkpt>
      <trkpt lat="48.0862" lon="7.07109">
        <ele>1013.4</ele>
        <time>2025-09-08T08:03:15Z</time>
      </trkpt>
      <trkpt lat="48.0862" lon="7.07105">
        <ele>1013.8</ele>
        <time>2025-09-08T08:03:16Z</time>
      </trkpt>
      <trkpt lat="48.08619" lon="7.07102">
        <ele>1014</ele>
        <time>2025-09-08T08:03:17Z</time>
      </trkpt>
      <trkpt lat="48.08619" lon="7.07098">
        <ele>1014.2</ele>
        <time>2025-09-08T08:03:18Z</time>
      </trkpt>
      <trkpt lat="48.08618" lon="7.07093">
        <ele>1014.4</ele>
        <time>2025-09-08T08:03:19Z</time>
      </trkpt>
      <trkpt lat="48.08618" lon="7.0709">
        <ele>1015</ele>
        <time>2025-09-08T08:03:20Z</time>
      </trkpt>
      <trkpt lat="48.08617" lon="7.07085">
        <ele>1015.2</ele>
        <time>2025-09-08T08:03:21Z</time>
      </trkpt>
      <trkpt lat="48.08617" lon="7.07081">
        <ele>1015.4</ele>
        <time>2025-09-08T08:03:22Z</time>
      </trkpt>
      <trkpt lat="48.08616" lon="7.07077">
        <ele>1015.6</ele>
        <time>2025-09-08T08:03:23Z</time>
      </trkpt>
      <trkpt lat="48.08616" lon="7.07073">
        <ele>1015.8</ele>
        <time>2025-09-08T08:03:24Z</time>
      </trkpt>
      <trkpt lat="48.08616" lon="7.07068">
        <ele>1016.2</ele>
        <time>2025-09-08T08:03:25Z</time>
      </trkpt>
      <trkpt lat="48.08616" lon="7.07063">
        <ele>1016.2</ele>
        <time>2025-09-08T08:03:26Z</time>
      </trkpt>
      <trkpt lat="48.08616" lon="7.07059">
        <ele>1016.4</ele>
        <time>2025-09-08T08:03:27Z</time>
      </trkpt>
      <trkpt lat="48.08615" lon="7.07054">
        <ele>1016.6</ele>
        <time>2025-09-08T08:03:28Z</time>
      </trkpt>
      <trkpt lat="48.08615" lon="7.07048">
        <ele>1016.8</ele>
        <time>2025-09-08T08:03:29Z</time>
      </trkpt>
      <trkpt lat="48.08615" lon="7.07044">
        <ele>1017</ele>
        <time>2025-09-08T08:03:30Z</time>
      </trkpt>
      <trkpt lat="48.08614" lon="7.07038">
        <ele>1017.2</ele>
        <time>2025-09-08T08:03:31Z</time>
      </trkpt>
      <trkpt lat="48.08613" lon="7.07033">
        <ele>1017.6</ele>
        <time>2025-09-08T08:03:32Z</time>
      </trkpt>
      <trkpt lat="48.08613" lon="7.07029">
        <ele>1017.8</ele>
        <time>2025-09-08T08:03:33Z</time>
      </trkpt>
      <trkpt lat="48.08613" lon="7.07025">
        <ele>1018</ele>
        <time>2025-09-08T08:03:34Z</time>
      </trkpt>
      <trkpt lat="48.08613" lon="7.0702">
        <ele>1018.2</ele>
        <time>2025-09-08T08:03:35Z</time>
      </trkpt>
      <trkpt lat="48.08613" lon="7.07016">
        <ele>1018.6</ele>
        <time>2025-09-08T08:03:36Z</time>
      </trkpt>
      <trkpt lat="48.08613" lon="7.07011">
        <ele>1019</ele>
        <time>2025-09-08T08:03:37Z</time>
      </trkpt>
      <trkpt lat="48.08612" lon="7.07007">
        <ele>1019.2</ele>
        <time>2025-09-08T08:03:38Z</time>
      </trkpt>
      <trkpt lat="48.08612" lon="7.07002">
        <ele>1019.4</ele>
        <time>2025-09-08T08:03:39Z</time>
      </trkpt>
      <trkpt lat="48.08612" lon="7.06997">
        <ele>1019.6</ele>
        <time>2025-09-08T08:03:40Z</time>
      </trkpt>
      <trkpt lat="48.08612" lon="7.06993">
        <ele>1019.8</ele>
        <time>2025-09-08T08:03:41Z</time>
      </trkpt>
      <trkpt lat="48.08612" lon="7.06988">
        <ele>1020</ele>
        <time>2025-09-08T08:03:42Z</time>
      </trkpt>
      <trkpt lat="48.08612" lon="7.06982">
        <ele>1020.2</ele>
        <time>2025-09-08T08:03:43Z</time>
      </trkpt>
      <trkpt lat="48.08612" lon="7.06978">
        <ele>1020.6</ele>
        <time>2025-09-08T08:03:44Z</time>
      </trkpt>
      <trkpt lat="48.08612" lon="7.06974">
        <ele>1020.6</ele>
        <time>2025-09-08T08:03:45Z</time>
      </trkpt>
      <trkpt lat="48.08612" lon="7.06969">
        <ele>1021</ele>
        <time>2025-09-08T08:03:46Z</time>
      </trkpt>
      <trkpt lat="48.08612" lon="7.06964">
        <ele>1021.4</ele>
        <time>2025-09-08T08:03:47Z</time>
      </trkpt>
      <trkpt lat="48.08612" lon="7.06959">
        <ele>1021.6</ele>
        <time>2025-09-08T08:03:48Z</time>
      </trkpt>
      <trkpt lat="48.08612" lon="7.06954">
        <ele>1022</ele>
        <time>2025-09-08T08:03:49Z</time>
      </trkpt>
      <trkpt lat="48.08613" lon="7.0695">
        <ele>1022.2</ele>
        <time>2025-09-08T08:03:50Z</time>
      </trkpt>
      <trkpt lat="48.08613" lon="7.06945">
        <ele>1022.4</ele>
        <time>2025-09-08T08:03:51Z</time>
      </trkpt>
      <trkpt lat="48.08613" lon="7.0694">
        <ele>1022.6</ele>
        <time>2025-09-08T08:03:52Z</time>
      </trkpt>
      <trkpt lat="48.08612" lon="7.06934">
        <ele>1022.8</ele>
        <time>2025-09-08T08:03:53Z</time>
      </trkpt>
      <trkpt lat="48.08612" lon="7.06929">
        <ele>1023</ele>
        <time>2025-09-08T08:03:54Z</time>
      </trkpt>
      <trkpt lat="48.08612" lon="7.06924">
        <ele>1023.2</ele>
        <time>2025-09-08T08:03:55Z</time>
      </trkpt>
      <trkpt lat="48.08612" lon="7.06918">
        <ele>1023.6</ele>
        <time>2025-09-08T08:03:56Z</time>
      </trkpt>
      <trkpt lat="48.08612" lon="7.06913">
        <ele>1023.8</ele>
        <time>2025-09-08T08:03:57Z</time>
      </trkpt>
      <trkpt lat="48.08612" lon="7.06909">
        <ele>1024.2</ele>
        <time>2025-09-08T08:03:58Z</time>
      </trkpt>
      <trkpt lat="48.08611" lon="7.06904">
        <ele>1024.4</ele>
        <time>2025-09-08T08:03:59Z</time>
      </trkpt>
      <trkpt lat="48.08611" lon="7.069">
        <ele>1024.6</ele>
        <time>2025-09-08T08:04:00Z</time>
      </trkpt>
      <trkpt lat="48.08612" lon="7.06895">
        <ele>1025</ele>
        <time>2025-09-08T08:04:01Z</time>
      </trkpt>
      <trkpt lat="48.08612" lon="7.06889">
        <ele>1025.2</ele>
        <time>2025-09-08T08:04:02Z</time>
      </trkpt>
      <trkpt lat="48.08613" lon="7.06883">
        <ele>1025.4</ele>
        <time>2025-09-08T08:04:03Z</time>
      </trkpt>
      <trkpt lat="48.08613" lon="7.06878">
        <ele>1025.8</ele>
        <time>2025-09-08T08:04:04Z</time>
      </trkpt>
      <trkpt lat="48.08613" lon="7.06872">
        <ele>1026.2</ele>
        <time>2025-09-08T08:04:05Z</time>
      </trkpt>
      <trkpt lat="48.08613" lon="7.06867">
        <ele>1026.4</ele>
        <time>2025-09-08T08:04:06Z</time>
      </trkpt>
      <trkpt lat="48.08613" lon="7.06862">
        <ele>1026.6</ele>
        <time>2025-09-08T08:04:07Z</time>
      </trkpt>
      <trkpt lat="48.08614" lon="7.06858">
        <ele>1026.8</ele>
        <time>2025-09-08T08:04:08Z</time>
      </trkpt>
      <trkpt lat="48.08613" lon="7.06853">
        <ele>1027</ele>
        <time>2025-09-08T08:04:09Z</time>
      </trkpt>
      <trkpt lat="48.08614" lon="7.06848">
        <ele>1027.4</ele>
        <time>2025-09-08T08:04:10Z</time>
      </trkpt>
      <trkpt lat="48.08614" lon="7.06843">
        <ele>1027.6</ele>
        <time>2025-09-08T08:04:11Z</time>
      </trkpt>
      <trkpt lat="48.08614" lon="7.06838">
        <ele>1027.8</ele>
        <time>2025-09-08T08:04:12Z</time>
      </trkpt>
      <trkpt lat="48.08614" lon="7.06834">
        <ele>1028</ele>
        <time>2025-09-08T08:04:13Z</time>
      </trkpt>
      <trkpt lat="48.08614" lon="7.06829">
        <ele>1028.4</ele>
        <time>2025-09-08T08:04:14Z</time>
      </trkpt>
      <trkpt lat="48.08615" lon="7.06825">
        <ele>1029</ele>
        <time>2025-09-08T08:04:15Z</time>
      </trkpt>
      <trkpt lat="48.08616" lon="7.0682">
        <ele>1029.4</ele>
        <time>2025-09-08T08:04:16Z</time>
      </trkpt>
      <trkpt lat="48.08615" lon="7.06815">
        <ele>1029.6</ele>
        <time>2025-09-08T08:04:17Z</time>
      </trkpt>
      <trkpt lat="48.08616" lon="7.0681">
        <ele>1030.2</ele>
        <time>2025-09-08T08:04:18Z</time>
      </trkpt>
      <trkpt lat="48.08616" lon="7.06804">
        <ele>1030.4</ele>
        <time>2025-09-08T08:04:19Z</time>
      </trkpt>
      <trkpt lat="48.08616" lon="7.06799">
        <ele>1030.6</ele>
        <time>2025-09-08T08:04:20Z</time>
      </trkpt>
      <trkpt lat="48.08617" lon="7.06795">
        <ele>1030.8</ele>
        <time>2025-09-08T08:04:21Z</time>
      </trkpt>
      <trkpt lat="48.08618" lon="7.0679">
        <ele>1031</ele>
        <time>2025-09-08T08:04:22Z</time>
      </trkpt>
      <trkpt lat="48.08618" lon="7.06785">
        <ele>1031</ele>
        <time>2025-09-08T08:04:23Z</time>
      </trkpt>
      <trkpt lat="48.08618" lon="7.06779">
        <ele>1031</ele>
        <time>2025-09-08T08:04:24Z</time>
      </trkpt>
      <trkpt lat="48.08619" lon="7.06774">
        <ele>1031.2</ele>
        <time>2025-09-08T08:04:25Z</time>
      </trkpt>
      <trkpt lat="48.08619" lon="7.0677">
        <ele>1031.4</ele>
        <time>2025-09-08T08:04:26Z</time>
      </trkpt>
      <trkpt lat="48.08619" lon="7.06765">
        <ele>1031.4</ele>
        <time>2025-09-08T08:04:27Z</time>
      </trkpt>
      <trkpt lat="48.08619" lon="7.06761">
        <ele>1031.6</ele>
        <time>2025-09-08T08:04:28Z</time>
      </trkpt>
      <trkpt lat="48.08619" lon="7.06756">
        <ele>1031.8</ele>
        <time>2025-09-08T08:04:29Z</time>
      </trkpt>
      <trkpt lat="48.08619" lon="7.06751">
        <ele>1032.2</ele>
        <time>2025-09-08T08:04:30Z</time>
      </trkpt>
      <trkpt lat="48.0862" lon="7.06746">
        <ele>1032.8</ele>
        <time>2025-09-08T08:04:31Z</time>
      </trkpt>
      <trkpt lat="48.0862" lon="7.06741">
        <ele>1033.2</ele>
        <time>2025-09-08T08:04:32Z</time>
      </trkpt>
      <trkpt lat="48.08621" lon="7.06736">
        <ele>1033.6</ele>
        <time>2025-09-08T08:04:33Z</time>
      </trkpt>
      <trkpt lat="48.08621" lon="7.06731">
        <ele>1033.8</ele>
        <time>2025-09-08T08:04:34Z</time>
      </trkpt>
      <trkpt lat="48.08622" lon="7.06727">
        <ele>1034</ele>
        <time>2025-09-08T08:04:35Z</time>
      </trkpt>
      <trkpt lat="48.08623" lon="7.06723">
        <ele>1034</ele>
        <time>2025-09-08T08:04:36Z</time>
      </trkpt>
      <trkpt lat="48.08624" lon="7.06719">
        <ele>1034.2</ele>
        <time>2025-09-08T08:04:37Z</time>
      </trkpt>
      <trkpt lat="48.08625" lon="7.06715">
        <ele>1034.4</ele>
        <time>2025-09-08T08:04:38Z</time>
      </trkpt>
      <trkpt lat="48.08626" lon="7.0671">
        <ele>1034.6</ele>
        <time>2025-09-08T08:04:39Z</time>
      </trkpt>
      <trkpt lat="48.08626" lon="7.06705">
        <ele>1035</ele>
        <time>2025-09-08T08:04:40Z</time>
      </trkpt>
      <trkpt lat="48.08626" lon="7.06699">
        <ele>1035.2</ele>
        <time>2025-09-08T08:04:41Z</time>
      </trkpt>
      <trkpt lat="48.08627" lon="7.06694">
        <ele>1035.4</ele>
        <time>2025-09-08T08:04:42Z</time>
      </trkpt>
      <trkpt lat="48.08627" lon="7.06688">
        <ele>1035.8</ele>
        <time>2025-09-08T08:04:43Z</time>
      </trkpt>
      <trkpt lat="48.08626" lon="7.06683">
        <ele>1035.8</ele>
        <time>2025-09-08T08:04:44Z</time>
      </trkpt>
      <trkpt lat="48.08626" lon="7.06678">
        <ele>1036</ele>
        <time>2025-09-08T08:04:45Z</time>
      </trkpt>
      <trkpt lat="48.08625" lon="7.06673">
        <ele>1036.4</ele>
        <time>2025-09-08T08:04:46Z</time>
      </trkpt>
      <trkpt lat="48.08624" lon="7.06668">
        <ele>1036.6</ele>
        <time>2025-09-08T08:04:47Z</time>
      </trkpt>
      <trkpt lat="48.08623" lon="7.06664">
        <ele>1036.8</ele>
        <time>2025-09-08T08:04:48Z</time>
      </trkpt>
      <trkpt lat="48.08622" lon="7.06659">
        <ele>1037</ele>
        <time>2025-09-08T08:04:49Z</time>
      </trkpt>
      <trkpt lat="48.08621" lon="7.06654">
        <ele>1037.4</ele>
        <time>2025-09-08T08:04:50Z</time>
      </trkpt>
      <trkpt lat="48.0862" lon="7.06649">
        <ele>1037.6</ele>
        <time>2025-09-08T08:04:51Z</time>
      </trkpt>
      <trkpt lat="48.0862" lon="7.06644">
        <ele>1037.8</ele>
        <time>2025-09-08T08:04:52Z</time>
      </trkpt>
      <trkpt lat="48.0862" lon="7.0664">
        <ele>1038.2</ele>
        <time>2025-09-08T08:04:53Z</time>
      </trkpt>
      <trkpt lat="48.0862" lon="7.06635">
        <ele>1038.6</ele>
        <time>2025-09-08T08:04:54Z</time>
      </trkpt>
      <trkpt lat="48.0862" lon="7.0663">
        <ele>1038.8</ele>
        <time>2025-09-08T08:04:55Z</time>
      </trkpt>
      <trkpt lat="48.0862" lon="7.06625">
        <ele>1039</ele>
        <time>2025-09-08T08:04:56Z</time>
      </trkpt>
      <trkpt lat="48.08621" lon="7.0662">
        <ele>1039.2</ele>
        <time>2025-09-08T08:04:57Z</time>
      </trkpt>
      <trkpt lat="48.08622" lon="7.06616">
        <ele>1039.4</ele>
        <time>2025-09-08T08:04:58Z</time>
      </trkpt>
      <trkpt lat="48.08623" lon="7.06611">
        <ele>1039.8</ele>
        <time>2025-09-08T08:04:59Z</time>
      </trkpt>
      <trkpt lat="48.08625" lon="7.06606">
        <ele>1040.2</ele>
        <time>2025-09-08T08:05:00Z</time>
      </trkpt>
      <trkpt lat="48.08627" lon="7.06602">
        <ele>1040.4</ele>
        <time>2025-09-08T08:05:01Z</time>
      </trkpt>
      <trkpt lat="48.08628" lon="7.06598">
        <ele>1040.6</ele>
        <time>2025-09-08T08:05:02Z</time>
      </trkpt>
      <trkpt lat="48.0863" lon="7.06594">
        <ele>1040.8</ele>
        <time>2025-09-08T08:05:03Z</time>
      </trkpt>
      <trkpt lat="48.08632" lon="7.0659">
        <ele>1041</ele>
        <time>2025-09-08T08:05:04Z</time>
      </trkpt>
      <trkpt lat="48.08634" lon="7.06586">
        <ele>1041.4</ele>
        <time>2025-09-08T08:05:05Z</time>
      </trkpt>
      <trkpt lat="48.08636" lon="7.06582">
        <ele>1041.6</ele>
        <time>2025-09-08T08:05:06Z</time>
      </trkpt>
      <trkpt lat="48.08637" lon="7.06578">
        <ele>1042</ele>
        <time>2025-09-08T08:05:07Z</time>
      </trkpt>
      <trkpt lat="48.08639" lon="7.06574">
        <ele>1042.2</ele>
        <time>2025-09-08T08:05:08Z</time>
      </trkpt>
      <trkpt lat="48.08641" lon="7.0657">
        <ele>1042.8</ele>
        <time>2025-09-08T08:05:09Z</time>
      </trkpt>
      <trkpt lat="48.08642" lon="7.06565">
        <ele>1042.8</ele>
        <time>2025-09-08T08:05:10Z</time>
      </trkpt>
      <trkpt lat="48.0864" lon="7.06551">
        <ele>1037.7</ele>
      </trkpt>
      <trkpt lat="48.08636" lon="7.06541">
        <ele>1039.8</ele>
      </trkpt>
      <trkpt lat="48.08623" lon="7.0654">
        <ele>1038.9</ele>
      </trkpt>
      <trkpt lat="48.08605" lon="7.06533">
        <ele>1039.6</ele>
        <time>2025-09-08T08:05:33Z</time>
      </trkpt>
      <trkpt lat="48.08613" lon="7.06536">
        <ele>1039.6</ele>
        <time>2025-09-08T08:05:34Z</time>
      </trkpt>
      <trkpt lat="48.086" lon="7.06528">
        <ele>1048.8</ele>
        <time>2025-09-08T08:06:30Z</time>
      </trkpt>
      <trkpt lat="48.08598" lon="7.06526">
        <ele>1048.8</ele>
        <time>2025-09-08T08:06:31Z</time>
      </trkpt>
      <trkpt lat="48.08596" lon="7.06524">
        <ele>1049.2</ele>
        <time>2025-09-08T08:06:32Z</time>
      </trkpt>
      <trkpt lat="48.08594" lon="7.06521">
        <ele>1049.4</ele>
        <time>2025-09-08T08:06:33Z</time>
      </trkpt>
      <trkpt lat="48.08593" lon="7.06518">
        <ele>1049.8</ele>
        <time>2025-09-08T08:06:34Z</time>
      </trkpt>
      <trkpt lat="48.08592" lon="7.06515">
        <ele>1050</ele>
        <time>2025-09-08T08:06:35Z</time>
      </trkpt>
      <trkpt lat="48.08591" lon="7.06511">
        <ele>1050.2</ele>
        <time>2025-09-08T08:06:36Z</time>
      </trkpt>
      <trkpt lat="48.08591" lon="7.06508">
        <ele>1050.4</ele>
        <time>2025-09-08T08:06:37Z</time>
      </trkpt>
      <trkpt lat="48.08591" lon="7.06505">
        <ele>1050.6</ele>
        <time>2025-09-08T08:06:38Z</time>
      </trkpt>
      <trkpt lat="48.08591" lon="7.06501">
        <ele>1050.8</ele>
        <time>2025-09-08T08:06:39Z</time>
      </trkpt>
      <trkpt lat="48.08591" lon="7.06497">
        <ele>1051</ele>
        <time>2025-09-08T08:06:40Z</time>
      </trkpt>
      <trkpt lat="48.08591" lon="7.06493">
        <ele>1051.2</ele>
        <time>2025-09-08T08:06:41Z</time>
      </trkpt>
      <trkpt lat="48.08591" lon="7.06488">
        <ele>1051.6</ele>
        <time>2025-09-08T08:06:42Z</time>
      </trkpt>
      <trkpt lat="48.08591" lon="7.06484">
        <ele>1051.8</ele>
        <time>2025-09-08T08:06:43Z</time>
      </trkpt>
      <trkpt lat="48.0859" lon="7.06481">
        <ele>1052</ele>
        <time>2025-09-08T08:06:44Z</time>
      </trkpt>
      <trkpt lat="48.08588" lon="7.0647">
        <ele>1052.4</ele>
        <time>2025-09-08T08:06:48Z</time>
      </trkpt>
      <trkpt lat="48.08589" lon="7.06469">
        <ele>1053.4</ele>
        <time>2025-09-08T08:16:01Z</time>
      </trkpt>
      <trkpt lat="48.0859" lon="7.06468">
        <ele>1053.6</ele>
        <time>2025-09-08T08:16:02Z</time>
      </trkpt>
      <trkpt lat="48.08594" lon="7.06471">
        <ele>1044.2</ele>
        <time>2025-09-08T08:16:03Z</time>
      </trkpt>
      <trkpt lat="48.08602" lon="7.0648">
        <ele>1044</ele>
        <time>2025-09-08T08:16:04Z</time>
      </trkpt>
      <trkpt lat="48.08616" lon="7.06494">
        <ele>1053.8</ele>
        <time>2025-09-08T08:16:15Z</time>
      </trkpt>
      <trkpt lat="48.0862" lon="7.06497">
        <ele>1054</ele>
        <time>2025-09-08T08:16:17Z</time>
      </trkpt>
      <trkpt lat="48.08623" lon="7.06498">
        <ele>1054</ele>
        <time>2025-09-08T08:16:18Z</time>
      </trkpt>
      <trkpt lat="48.0864" lon="7.06505">
        <ele>1044.9</ele>
      </trkpt>
      <trkpt lat="48.08655" lon="7.06511">
        <ele>1055.8</ele>
        <time>2025-09-08T08:16:31Z</time>
      </trkpt>
      <trkpt lat="48.08662" lon="7.06507">
        <ele>1056.4</ele>
        <time>2025-09-08T08:16:34Z</time>
      </trkpt>
      <trkpt lat="48.08664" lon="7.06505">
        <ele>1056.6</ele>
        <time>2025-09-08T08:16:35Z</time>
      </trkpt>
      <trkpt lat="48.08676" lon="7.06499">
        <ele>1048</ele>
      </trkpt>
      <trkpt lat="48.08682" lon="7.06491">
        <ele>1057.6</ele>
        <time>2025-09-08T08:16:42Z</time>
      </trkpt>
      <trkpt lat="48.08689" lon="7.06486">
        <ele>1050.1</ele>
      </trkpt>
      <trkpt lat="48.08695" lon="7.06481">
        <ele>1051.6</ele>
        <time>2025-09-08T08:16:46Z</time>
      </trkpt>
      <trkpt lat="48.08704" lon="7.06478">
        <ele>1052.8</ele>
      </trkpt>
      <trkpt lat="48.08709" lon="7.06474">
        <ele>1053.4</ele>
      </trkpt>
      <trkpt lat="48.08712" lon="7.06467">
        <ele>1053.6</ele>
        <time>2025-09-08T08:16:55Z</time>
      </trkpt>
      <trkpt lat="48.08713" lon="7.06462">
        <ele>1061.6</ele>
        <time>2025-09-08T08:16:56Z</time>
      </trkpt>
      <trkpt lat="48.08715" lon="7.06459">
        <ele>1061.8</ele>
        <time>2025-09-08T08:16:57Z</time>
      </trkpt>
      <trkpt lat="48.08716" lon="7.06457">
        <ele>1062.2</ele>
        <time>2025-09-08T08:16:58Z</time>
      </trkpt>
      <trkpt lat="48.08717" lon="7.06454">
        <ele>1062.8</ele>
        <time>2025-09-08T08:16:59Z</time>
      </trkpt>
      <trkpt lat="48.08717" lon="7.0645">
        <ele>1062.8</ele>
        <time>2025-09-08T08:17:00Z</time>
      </trkpt>
      <trkpt lat="48.08718" lon="7.06447">
        <ele>1063.2</ele>
        <time>2025-09-08T08:17:01Z</time>
      </trkpt>
      <trkpt lat="48.08717" lon="7.06443">
        <ele>1063.4</ele>
        <time>2025-09-08T08:17:02Z</time>
      </trkpt>
      <trkpt lat="48.08716" lon="7.06439">
        <ele>1063.6</ele>
        <time>2025-09-08T08:17:03Z</time>
      </trkpt>
      <trkpt lat="48.08716" lon="7.06436">
        <ele>1063.8</ele>
        <time>2025-09-08T08:17:04Z</time>
      </trkpt>
      <trkpt lat="48.08715" lon="7.06432">
        <ele>1064</ele>
        <time>2025-09-08T08:17:05Z</time>
      </trkpt>
      <trkpt lat="48.08714" lon="7.06423">
        <ele>1064.2</ele>
        <time>2025-09-08T08:17:07Z</time>
      </trkpt>
      <trkpt lat="48.08713" lon="7.06418">
        <ele>1064.2</ele>
        <time>2025-09-08T08:17:08Z</time>
      </trkpt>
      <trkpt lat="48.08713" lon="7.06413">
        <ele>1064.2</ele>
        <time>2025-09-08T08:17:09Z</time>
      </trkpt>
      <trkpt lat="48.08713" lon="7.06408">
        <ele>1064.2</ele>
        <time>2025-09-08T08:17:10Z</time>
      </trkpt>
      <trkpt lat="48.08713" lon="7.06404">
        <ele>1064.2</ele>
        <time>2025-09-08T08:17:11Z</time>
      </trkpt>
      <trkpt lat="48.08713" lon="7.06399">
        <ele>1064.2</ele>
        <time>2025-09-08T08:17:12Z</time>
      </trkpt>
      <trkpt lat="48.08713" lon="7.06394">
        <ele>1064.4</ele>
        <time>2025-09-08T08:17:13Z</time>
      </trkpt>
      <trkpt lat="48.08712" lon="7.06389">
        <ele>1064.4</ele>
        <time>2025-09-08T08:17:14Z</time>
      </trkpt>
      <trkpt lat="48.08706" lon="7.06363">
        <ele>1064.4</ele>
        <time>2025-09-08T08:17:19Z</time>
      </trkpt>
      <trkpt lat="48.08701" lon="7.0635">
        <ele>1051.6</ele>
      </trkpt>
      <trkpt lat="48.08695" lon="7.06332">
        <ele>1053.9</ele>
      </trkpt>
      <trkpt lat="48.08691" lon="7.0632">
        <ele>1053.4</ele>
      </trkpt>
      <trkpt lat="48.08686" lon="7.06309">
        <ele>1053.3</ele>
      </trkpt>
      <trkpt lat="48.08679" lon="7.06309">
        <ele>1053.5</ele>
      </trkpt>
      <trkpt lat="48.08673" lon="7.06311">
        <ele>1053.5</ele>
        <time>2025-09-08T08:17:34Z</time>
      </trkpt>
      <trkpt lat="48.08663" lon="7.06314">
        <ele>1053.7</ele>
        <time>2025-09-08T08:18:56Z</time>
      </trkpt>
      <trkpt lat="48.0866" lon="7.06315">
        <ele>1061.8</ele>
        <time>2025-09-08T08:18:57Z</time>
      </trkpt>
      <trkpt lat="48.08657" lon="7.06317">
        <ele>1062</ele>
        <time>2025-09-08T08:18:58Z</time>
      </trkpt>
      <trkpt lat="48.08654" lon="7.0632">
        <ele>1062.4</ele>
        <time>2025-09-08T08:18:59Z</time>
      </trkpt>
      <trkpt lat="48.08651" lon="7.06323">
        <ele>1062.8</ele>
        <time>2025-09-08T08:19:00Z</time>
      </trkpt>
      <trkpt lat="48.08648" lon="7.06327">
        <ele>1062.8</ele>
        <time>2025-09-08T08:19:01Z</time>
      </trkpt>
      <trkpt lat="48.08645" lon="7.0633">
        <ele>1063</ele>
        <time>2025-09-08T08:19:02Z</time>
      </trkpt>
      <trkpt lat="48.08643" lon="7.06333">
        <ele>1063</ele>
        <time>2025-09-08T08:19:03Z</time>
      </trkpt>
      <trkpt lat="48.0864" lon="7.06337">
        <ele>1063.2</ele>
        <time>2025-09-08T08:19:04Z</time>
      </trkpt>
      <trkpt lat="48.08636" lon="7.06341">
        <ele>1063.2</ele>
        <time>2025-09-08T08:19:05Z</time>
      </trkpt>
      <trkpt lat="48.08633" lon="7.06346">
        <ele>1063.4</ele>
        <time>2025-09-08T08:19:06Z</time>
      </trkpt>
      <trkpt lat="48.0863" lon="7.0635">
        <ele>1063.4</ele>
        <time>2025-09-08T08:19:07Z</time>
      </trkpt>
      <trkpt lat="48.08627" lon="7.06354">
        <ele>1063.4</ele>
        <time>2025-09-08T08:19:08Z</time>
      </trkpt>
      <trkpt lat="48.08624" lon="7.06358">
        <ele>1063.6</ele>
        <time>2025-09-08T08:19:09Z</time>
      </trkpt>
      <trkpt lat="48.0862" lon="7.06362">
        <ele>1053.6</ele>
        <time>2025-09-08T08:19:10Z</time>
      </trkpt>
      <trkpt lat="48.08616" lon="7.06365">
        <ele>1053.7</ele>
        <time>2025-09-08T08:19:11Z</time>
      </trkpt>
      <trkpt lat="48.08614" lon="7.06368">
        <ele>1063.6</ele>
        <time>2025-09-08T08:19:12Z</time>
      </trkpt>
      <trkpt lat="48.08613" lon="7.06366">
        <ele>1053.9</ele>
      </trkpt>
      <trkpt lat="48.0861" lon="7.06367">
        <ele>1053.8</ele>
        <time>2025-09-08T08:19:13Z</time>
      </trkpt>
      <trkpt lat="48.08606" lon="7.06366">
        <ele>1063.6</ele>
        <time>2025-09-08T08:19:14Z</time>
      </trkpt>
      <trkpt lat="48.08602" lon="7.06363">
        <ele>1063.6</ele>
        <time>2025-09-08T08:19:15Z</time>
      </trkpt>
      <trkpt lat="48.086" lon="7.06359">
        <ele>1063.6</ele>
        <time>2025-09-08T08:19:16Z</time>
      </trkpt>
      <trkpt lat="48.08599" lon="7.06354">
        <ele>1063.8</ele>
        <time>2025-09-08T08:19:17Z</time>
      </trkpt>
      <trkpt lat="48.08598" lon="7.06348">
        <ele>1063.8</ele>
        <time>2025-09-08T08:19:18Z</time>
      </trkpt>
      <trkpt lat="48.08597" lon="7.06341">
        <ele>1063.8</ele>
        <time>2025-09-08T08:19:19Z</time>
      </trkpt>
      <trkpt lat="48.08596" lon="7.06335">
        <ele>1063.8</ele>
        <time>2025-09-08T08:19:20Z</time>
      </trkpt>
      <trkpt lat="48.08596" lon="7.06328">
        <ele>1064</ele>
        <time>2025-09-08T08:19:21Z</time>
      </trkpt>
      <trkpt lat="48.08595" lon="7.06321">
        <ele>1064.2</ele>
        <time>2025-09-08T08:19:22Z</time>
      </trkpt>
      <trkpt lat="48.08595" lon="7.06315">
        <ele>1064.2</ele>
        <time>2025-09-08T08:19:23Z</time>
      </trkpt>
      <trkpt lat="48.08595" lon="7.06308">
        <ele>1064.2</ele>
        <time>2025-09-08T08:19:24Z</time>
      </trkpt>
      <trkpt lat="48.08595" lon="7.06301">
        <ele>1064.4</ele>
        <time>2025-09-08T08:19:25Z</time>
      </trkpt>
      <trkpt lat="48.08594" lon="7.06294">
        <ele>1064.4</ele>
        <time>2025-09-08T08:19:26Z</time>
      </trkpt>
      <trkpt lat="48.08594" lon="7.06287">
        <ele>1064.6</ele>
        <time>2025-09-08T08:19:27Z</time>
      </trkpt>
      <trkpt lat="48.08593" lon="7.0628">
        <ele>1064.8</ele>
        <time>2025-09-08T08:19:28Z</time>
      </trkpt>
      <trkpt lat="48.08593" lon="7.06274">
        <ele>1064.8</ele>
        <time>2025-09-08T08:19:29Z</time>
      </trkpt>
      <trkpt lat="48.08593" lon="7.06267">
        <ele>1064.8</ele>
        <time>2025-09-08T08:19:30Z</time>
      </trkpt>
      <trkpt lat="48.08593" lon="7.0626">
        <ele>1065</ele>
        <time>2025-09-08T08:19:31Z</time>
      </trkpt>
      <trkpt lat="48.08593" lon="7.06253">
        <ele>1065</ele>
        <time>2025-09-08T08:19:32Z</time>
      </trkpt>
      <trkpt lat="48.08593" lon="7.06247">
        <ele>1065.4</ele>
        <time>2025-09-08T08:19:33Z</time>
      </trkpt>
      <trkpt lat="48.08593" lon="7.0624">
        <ele>1065.4</ele>
        <time>2025-09-08T08:19:34Z</time>
      </trkpt>
      <trkpt lat="48.08592" lon="7.06234">
        <ele>1065.6</ele>
        <time>2025-09-08T08:19:35Z</time>
      </trkpt>
      <trkpt lat="48.08591" lon="7.06227">
        <ele>1065.8</ele>
        <time>2025-09-08T08:19:36Z</time>
      </trkpt>
      <trkpt lat="48.0859" lon="7.0622">
        <ele>1066</ele>
        <time>2025-09-08T08:19:37Z</time>
      </trkpt>
      <trkpt lat="48.08588" lon="7.06214">
        <ele>1066.2</ele>
        <time>2025-09-08T08:19:38Z</time>
      </trkpt>
      <trkpt lat="48.08586" lon="7.06208">
        <ele>1066.2</ele>
        <time>2025-09-08T08:19:39Z</time>
      </trkpt>
      <trkpt lat="48.08583" lon="7.06202">
        <ele>1066.4</ele>
        <time>2025-09-08T08:19:40Z</time>
      </trkpt>
      <trkpt lat="48.08581" lon="7.06196">
        <ele>1066.4</ele>
        <time>2025-09-08T08:19:41Z</time>
      </trkpt>
      <trkpt lat="48.08578" lon="7.0619">
        <ele>1066.4</ele>
        <time>2025-09-08T08:19:42Z</time>
      </trkpt>
      <trkpt lat="48.08575" lon="7.06185">
        <ele>1066.6</ele>
        <time>2025-09-08T08:19:43Z</time>
      </trkpt>
      <trkpt lat="48.08572" lon="7.06179">
        <ele>1066.8</ele>
        <time>2025-09-08T08:19:44Z</time>
      </trkpt>
      <trkpt lat="48.0857" lon="7.06174">
        <ele>1067</ele>
        <time>2025-09-08T08:19:45Z</time>
      </trkpt>
      <trkpt lat="48.08567" lon="7.0617">
        <ele>1067</ele>
        <time>2025-09-08T08:19:46Z</time>
      </trkpt>
      <trkpt lat="48.08565" lon="7.06165">
        <ele>1067.2</ele>
        <time>2025-09-08T08:19:47Z</time>
      </trkpt>
      <trkpt lat="48.08561" lon="7.0616">
        <ele>1067.4</ele>
        <time>2025-09-08T08:19:48Z</time>
      </trkpt>
      <trkpt lat="48.08558" lon="7.06155">
        <ele>1067.4</ele>
        <time>2025-09-08T08:19:49Z</time>
      </trkpt>
      <trkpt lat="48.08554" lon="7.06149">
        <ele>1067.6</ele>
        <time>2025-09-08T08:19:50Z</time>
      </trkpt>
      <trkpt lat="48.08551" lon="7.06144">
        <ele>1067.6</ele>
        <time>2025-09-08T08:19:51Z</time>
      </trkpt>
      <trkpt lat="48.08548" lon="7.06139">
        <ele>1067.8</ele>
        <time>2025-09-08T08:19:52Z</time>
      </trkpt>
      <trkpt lat="48.08545" lon="7.06133">
        <ele>1067.8</ele>
        <time>2025-09-08T08:19:53Z</time>
      </trkpt>
      <trkpt lat="48.08542" lon="7.06128">
        <ele>1068</ele>
        <time>2025-09-08T08:19:54Z</time>
      </trkpt>
      <trkpt lat="48.08539" lon="7.06123">
        <ele>1068</ele>
        <time>2025-09-08T08:19:55Z</time>
      </trkpt>
      <trkpt lat="48.08537" lon="7.06117">
        <ele>1068.2</ele>
        <time>2025-09-08T08:19:56Z</time>
      </trkpt>
      <trkpt lat="48.08535" lon="7.0611">
        <ele>1068.2</ele>
        <time>2025-09-08T08:19:57Z</time>
      </trkpt>
      <trkpt lat="48.08534" lon="7.06103">
        <ele>1068.2</ele>
        <time>2025-09-08T08:19:58Z</time>
      </trkpt>
      <trkpt lat="48.08533" lon="7.06096">
        <ele>1068.4</ele>
        <time>2025-09-08T08:19:59Z</time>
      </trkpt>
      <trkpt lat="48.08533" lon="7.06088">
        <ele>1068.4</ele>
        <time>2025-09-08T08:20:00Z</time>
      </trkpt>
      <trkpt lat="48.08532" lon="7.06081">
        <ele>1068.6</ele>
        <time>2025-09-08T08:20:01Z</time>
      </trkpt>
      <trkpt lat="48.08532" lon="7.06074">
        <ele>1068.8</ele>
        <time>2025-09-08T08:20:02Z</time>
      </trkpt>
      <trkpt lat="48.08532" lon="7.06066">
        <ele>1068.8</ele>
        <time>2025-09-08T08:20:03Z</time>
      </trkpt>
      <trkpt lat="48.08532" lon="7.06059">
        <ele>1069</ele>
        <time>2025-09-08T08:20:04Z</time>
      </trkpt>
      <trkpt lat="48.08532" lon="7.06052">
        <ele>1069</ele>
        <time>2025-09-08T08:20:05Z</time>
      </trkpt>
      <trkpt lat="48.08532" lon="7.06045">
        <ele>1069.2</ele>
        <time>2025-09-08T08:20:06Z</time>
      </trkpt>
      <trkpt lat="48.08531" lon="7.06038">
        <ele>1069.6</ele>
        <time>2025-09-08T08:20:07Z</time>
      </trkpt>
      <trkpt lat="48.08531" lon="7.06032">
        <ele>1069.6</ele>
        <time>2025-09-08T08:20:08Z</time>
      </trkpt>
      <trkpt lat="48.0853" lon="7.06025">
        <ele>1069.8</ele>
        <time>2025-09-08T08:20:09Z</time>
      </trkpt>
      <trkpt lat="48.08528" lon="7.06019">
        <ele>1070</ele>
        <time>2025-09-08T08:20:10Z</time>
      </trkpt>
      <trkpt lat="48.08524" lon="7.06015">
        <ele>1070</ele>
        <time>2025-09-08T08:20:11Z</time>
      </trkpt>
      <trkpt lat="48.0852" lon="7.06012">
        <ele>1070</ele>
        <time>2025-09-08T08:20:12Z</time>
      </trkpt>
      <trkpt lat="48.08516" lon="7.06009">
        <ele>1070.2</ele>
        <time>2025-09-08T08:20:13Z</time>
      </trkpt>
      <trkpt lat="48.08512" lon="7.06008">
        <ele>1070.2</ele>
        <time>2025-09-08T08:20:14Z</time>
      </trkpt>
      <trkpt lat="48.08507" lon="7.06007">
        <ele>1070.2</ele>
        <time>2025-09-08T08:20:15Z</time>
      </trkpt>
      <trkpt lat="48.08503" lon="7.06006">
        <ele>1070.4</ele>
        <time>2025-09-08T08:20:16Z</time>
      </trkpt>
      <trkpt lat="48.08498" lon="7.06007">
        <ele>1070.6</ele>
        <time>2025-09-08T08:20:17Z</time>
      </trkpt>
      <trkpt lat="48.08494" lon="7.06008">
        <ele>1070.8</ele>
        <time>2025-09-08T08:20:18Z</time>
      </trkpt>
      <trkpt lat="48.08489" lon="7.0601">
        <ele>1071</ele>
        <time>2025-09-08T08:20:19Z</time>
      </trkpt>
      <trkpt lat="48.08484" lon="7.06011">
        <ele>1071.2</ele>
        <time>2025-09-08T08:20:20Z</time>
      </trkpt>
      <trkpt lat="48.08479" lon="7.06012">
        <ele>1071.4</ele>
        <time>2025-09-08T08:20:21Z</time>
      </trkpt>
      <trkpt lat="48.08475" lon="7.06013">
        <ele>1071.6</ele>
        <time>2025-09-08T08:20:22Z</time>
      </trkpt>
      <trkpt lat="48.0847" lon="7.06013">
        <ele>1072</ele>
        <time>2025-09-08T08:20:23Z</time>
      </trkpt>
      <trkpt lat="48.08466" lon="7.06015">
        <ele>1072</ele>
        <time>2025-09-08T08:20:24Z</time>
      </trkpt>
      <trkpt lat="48.08461" lon="7.06016">
        <ele>1072.4</ele>
        <time>2025-09-08T08:20:25Z</time>
      </trkpt>
      <trkpt lat="48.08456" lon="7.06016">
        <ele>1072.4</ele>
        <time>2025-09-08T08:20:26Z</time>
      </trkpt>
      <trkpt lat="48.08452" lon="7.06017">
        <ele>1072.6</ele>
        <time>2025-09-08T08:20:27Z</time>
      </trkpt>
      <trkpt lat="48.08447" lon="7.06018">
        <ele>1072.8</ele>
        <time>2025-09-08T08:20:28Z</time>
      </trkpt>
      <trkpt lat="48.08441" lon="7.06019">
        <ele>1073</ele>
        <time>2025-09-08T08:20:29Z</time>
      </trkpt>
      <trkpt lat="48.08437" lon="7.06019">
        <ele>1073.2</ele>
        <time>2025-09-08T08:20:30Z</time>
      </trkpt>
      <trkpt lat="48.08432" lon="7.06019">
        <ele>1073.4</ele>
        <time>2025-09-08T08:20:31Z</time>
      </trkpt>
      <trkpt lat="48.08427" lon="7.06019">
        <ele>1073.4</ele>
        <time>2025-09-08T08:20:32Z</time>
      </trkpt>
      <trkpt lat="48.08422" lon="7.06018">
        <ele>1073.6</ele>
        <time>2025-09-08T08:20:33Z</time>
      </trkpt>
      <trkpt lat="48.08417" lon="7.06016">
        <ele>1073.6</ele>
        <time>2025-09-08T08:20:34Z</time>
      </trkpt>
      <trkpt lat="48.08413" lon="7.06014">
        <ele>1073.8</ele>
        <time>2025-09-08T08:20:35Z</time>
      </trkpt>
      <trkpt lat="48.08408" lon="7.06011">
        <ele>1073.8</ele>
        <time>2025-09-08T08:20:36Z</time>
      </trkpt>
      <trkpt lat="48.08404" lon="7.06008">
        <ele>1074</ele>
        <time>2025-09-08T08:20:37Z</time>
      </trkpt>
      <trkpt lat="48.084" lon="7.06006">
        <ele>1074</ele>
        <time>2025-09-08T08:20:38Z</time>
      </trkpt>
      <trkpt lat="48.08395" lon="7.06004">
        <ele>1074.2</ele>
        <time>2025-09-08T08:20:39Z</time>
      </trkpt>
      <trkpt lat="48.08391" lon="7.06002">
        <ele>1074.2</ele>
        <time>2025-09-08T08:20:40Z</time>
      </trkpt>
      <trkpt lat="48.08386" lon="7.05999">
        <ele>1074.4</ele>
        <time>2025-09-08T08:20:41Z</time>
      </trkpt>
      <trkpt lat="48.08382" lon="7.05996">
        <ele>1074.6</ele>
        <time>2025-09-08T08:20:42Z</time>
      </trkpt>
      <trkpt lat="48.08378" lon="7.05992">
        <ele>1074.6</ele>
        <time>2025-09-08T08:20:43Z</time>
      </trkpt>
      <trkpt lat="48.08375" lon="7.05987">
        <ele>1074.6</ele>
        <time>2025-09-08T08:20:44Z</time>
      </trkpt>
      <trkpt lat="48.08373" lon="7.05982">
        <ele>1074.8</ele>
        <time>2025-09-08T08:20:45Z</time>
      </trkpt>
      <trkpt lat="48.08371" lon="7.05977">
        <ele>1074.8</ele>
        <time>2025-09-08T08:20:46Z</time>
      </trkpt>
      <trkpt lat="48.0837" lon="7.05971">
        <ele>1075</ele>
        <time>2025-09-08T08:20:47Z</time>
      </trkpt>
      <trkpt lat="48.0837" lon="7.05964">
        <ele>1075</ele>
        <time>2025-09-08T08:20:48Z</time>
      </trkpt>
      <trkpt lat="48.0837" lon="7.05958">
        <ele>1075.2</ele>
        <time>2025-09-08T08:20:49Z</time>
      </trkpt>
      <trkpt lat="48.08371" lon="7.05951">
        <ele>1075.2</ele>
        <time>2025-09-08T08:20:50Z</time>
      </trkpt>
      <trkpt lat="48.08372" lon="7.05945">
        <ele>1075.2</ele>
        <time>2025-09-08T08:20:51Z</time>
      </trkpt>
      <trkpt lat="48.08374" lon="7.05938">
        <ele>1075.4</ele>
        <time>2025-09-08T08:20:52Z</time>
      </trkpt>
      <trkpt lat="48.08375" lon="7.05931">
        <ele>1075.4</ele>
        <time>2025-09-08T08:20:53Z</time>
      </trkpt>
      <trkpt lat="48.08376" lon="7.05925">
        <ele>1075.6</ele>
        <time>2025-09-08T08:20:54Z</time>
      </trkpt>
      <trkpt lat="48.08376" lon="7.05918">
        <ele>1075.6</ele>
        <time>2025-09-08T08:20:55Z</time>
      </trkpt>
      <trkpt lat="48.08377" lon="7.05911">
        <ele>1075.8</ele>
        <time>2025-09-08T08:20:56Z</time>
      </trkpt>
      <trkpt lat="48.08376" lon="7.05905">
        <ele>1075.8</ele>
        <time>2025-09-08T08:20:57Z</time>
      </trkpt>
      <trkpt lat="48.08376" lon="7.05898">
        <ele>1075.8</ele>
        <time>2025-09-08T08:20:58Z</time>
      </trkpt>
      <trkpt lat="48.08375" lon="7.05892">
        <ele>1075.8</ele>
        <time>2025-09-08T08:20:59Z</time>
      </trkpt>
      <trkpt lat="48.08374" lon="7.05886">
        <ele>1076</ele>
        <time>2025-09-08T08:21:00Z</time>
      </trkpt>
      <trkpt lat="48.08373" lon="7.05881">
        <ele>1076</ele>
        <time>2025-09-08T08:21:01Z</time>
      </trkpt>
      <trkpt lat="48.0837" lon="7.05875">
        <ele>1076.2</ele>
        <time>2025-09-08T08:21:02Z</time>
      </trkpt>
      <trkpt lat="48.08367" lon="7.0587">
        <ele>1076.4</ele>
        <time>2025-09-08T08:21:03Z</time>
      </trkpt>
      <trkpt lat="48.08363" lon="7.05865">
        <ele>1076.4</ele>
        <time>2025-09-08T08:21:04Z</time>
      </trkpt>
      <trkpt lat="48.08359" lon="7.05861">
        <ele>1076.6</ele>
        <time>2025-09-08T08:21:05Z</time>
      </trkpt>
      <trkpt lat="48.08356" lon="7.05857">
        <ele>1076.6</ele>
        <time>2025-09-08T08:21:06Z</time>
      </trkpt>
      <trkpt lat="48.08352" lon="7.05853">
        <ele>1076.8</ele>
        <time>2025-09-08T08:21:07Z</time>
      </trkpt>
      <trkpt lat="48.08349" lon="7.05849">
        <ele>1077</ele>
        <time>2025-09-08T08:21:08Z</time>
      </trkpt>
      <trkpt lat="48.08345" lon="7.05845">
        <ele>1077.2</ele>
        <time>2025-09-08T08:21:09Z</time>
      </trkpt>
      <trkpt lat="48.08341" lon="7.05841">
        <ele>1077.6</ele>
        <time>2025-09-08T08:21:10Z</time>
      </trkpt>
      <trkpt lat="48.08337" lon="7.05838">
        <ele>1077.6</ele>
        <time>2025-09-08T08:21:11Z</time>
      </trkpt>
      <trkpt lat="48.08333" lon="7.05836">
        <ele>1078</ele>
        <time>2025-09-08T08:21:12Z</time>
      </trkpt>
      <trkpt lat="48.0833" lon="7.05834">
        <ele>1078.2</ele>
        <time>2025-09-08T08:21:13Z</time>
      </trkpt>
      <trkpt lat="48.08326" lon="7.05832">
        <ele>1078.4</ele>
        <time>2025-09-08T08:21:14Z</time>
      </trkpt>
      <trkpt lat="48.08322" lon="7.05831">
        <ele>1079</ele>
        <time>2025-09-08T08:21:15Z</time>
      </trkpt>
      <trkpt lat="48.08319" lon="7.0583">
        <ele>1079.4</ele>
        <time>2025-09-08T08:21:16Z</time>
      </trkpt>
      <trkpt lat="48.08315" lon="7.05829">
        <ele>1079.6</ele>
        <time>2025-09-08T08:21:17Z</time>
      </trkpt>
      <trkpt lat="48.08312" lon="7.05828">
        <ele>1080.2</ele>
        <time>2025-09-08T08:21:18Z</time>
      </trkpt>
      <trkpt lat="48.08309" lon="7.05827">
        <ele>1080.2</ele>
        <time>2025-09-08T08:21:19Z</time>
      </trkpt>
      <trkpt lat="48.08307" lon="7.05828">
        <ele>1080.4</ele>
        <time>2025-09-08T08:21:20Z</time>
      </trkpt>
      <trkpt lat="48.08306" lon="7.05828">
        <ele>1080.6</ele>
        <time>2025-09-08T08:21:21Z</time>
      </trkpt>
      <trkpt lat="48.08306" lon="7.05828">
        <ele>1080.8</ele>
        <time>2025-09-08T08:21:22Z</time>
      </trkpt>
      <trkpt lat="48.08306" lon="7.05829">
        <ele>1081</ele>
        <time>2025-09-08T08:21:23Z</time>
      </trkpt>
      <trkpt lat="48.08298" lon="7.05837">
        <ele>1080.4</ele>
        <time>2025-09-08T08:21:40Z</time>
      </trkpt>
      <trkpt lat="48.08295" lon="7.05839">
        <ele>1080.2</ele>
        <time>2025-09-08T08:21:41Z</time>
      </trkpt>
      <trkpt lat="48.08292" lon="7.0584">
        <ele>1080</ele>
        <time>2025-09-08T08:21:42Z</time>
      </trkpt>
      <trkpt lat="48.0829" lon="7.05841">
        <ele>1079.6</ele>
        <time>2025-09-08T08:21:43Z</time>
      </trkpt>
      <trkpt lat="48.08287" lon="7.05843">
        <ele>1079</ele>
        <time>2025-09-08T08:21:44Z</time>
      </trkpt>
      <trkpt lat="48.08283" lon="7.05843">
        <ele>1078.8</ele>
        <time>2025-09-08T08:21:45Z</time>
      </trkpt>
      <trkpt lat="48.08279" lon="7.05844">
        <ele>1078.4</ele>
        <time>2025-09-08T08:21:46Z</time>
      </trkpt>
      <trkpt lat="48.08276" lon="7.05844">
        <ele>1078.2</ele>
        <time>2025-09-08T08:21:47Z</time>
      </trkpt>
      <trkpt lat="48.08272" lon="7.05845">
        <ele>1078</ele>
        <time>2025-09-08T08:21:48Z</time>
      </trkpt>
      <trkpt lat="48.08268" lon="7.05847">
        <ele>1077.6</ele>
        <time>2025-09-08T08:21:49Z</time>
      </trkpt>
      <trkpt lat="48.08264" lon="7.05849">
        <ele>1077.4</ele>
        <time>2025-09-08T08:21:50Z</time>
      </trkpt>
      <trkpt lat="48.0826" lon="7.05851">
        <ele>1077</ele>
        <time>2025-09-08T08:21:51Z</time>
      </trkpt>
      <trkpt lat="48.08256" lon="7.05853">
        <ele>1076.6</ele>
        <time>2025-09-08T08:21:52Z</time>
      </trkpt>
      <trkpt lat="48.08253" lon="7.05855">
        <ele>1076.2</ele>
        <time>2025-09-08T08:21:53Z</time>
      </trkpt>
      <trkpt lat="48.0825" lon="7.05857">
        <ele>1076</ele>
        <time>2025-09-08T08:21:54Z</time>
      </trkpt>
      <trkpt lat="48.08248" lon="7.05859">
        <ele>1075.6</ele>
        <time>2025-09-08T08:21:55Z</time>
      </trkpt>
      <trkpt lat="48.08246" lon="7.05861">
        <ele>1075.2</ele>
        <time>2025-09-08T08:21:56Z</time>
      </trkpt>
      <trkpt lat="48.08243" lon="7.05863">
        <ele>1075</ele>
        <time>2025-09-08T08:21:57Z</time>
      </trkpt>
      <trkpt lat="48.0824" lon="7.05866">
        <ele>1075</ele>
        <time>2025-09-08T08:21:58Z</time>
      </trkpt>
      <trkpt lat="48.08237" lon="7.05869">
        <ele>1074.8</ele>
        <time>2025-09-08T08:21:59Z</time>
      </trkpt>
      <trkpt lat="48.08235" lon="7.05872">
        <ele>1074.8</ele>
        <time>2025-09-08T08:22:00Z</time>
      </trkpt>
      <trkpt lat="48.08232" lon="7.05875">
        <ele>1074.6</ele>
        <time>2025-09-08T08:22:01Z</time>
      </trkpt>
      <trkpt lat="48.08229" lon="7.05878">
        <ele>1074.4</ele>
        <time>2025-09-08T08:22:02Z</time>
      </trkpt>
      <trkpt lat="48.08226" lon="7.05882">
        <ele>1074.4</ele>
        <time>2025-09-08T08:22:03Z</time>
      </trkpt>
      <trkpt lat="48.08224" lon="7.05885">
        <ele>1074.2</ele>
        <time>2025-09-08T08:22:04Z</time>
      </trkpt>
      <trkpt lat="48.08222" lon="7.05888">
        <ele>1074</ele>
        <time>2025-09-08T08:22:05Z</time>
      </trkpt>
      <trkpt lat="48.08218" lon="7.05892">
        <ele>1073.6</ele>
        <time>2025-09-08T08:22:06Z</time>
      </trkpt>
      <trkpt lat="48.08215" lon="7.05896">
        <ele>1072.8</ele>
        <time>2025-09-08T08:22:07Z</time>
      </trkpt>
      <trkpt lat="48.08213" lon="7.05901">
        <ele>1072.4</ele>
        <time>2025-09-08T08:22:08Z</time>
      </trkpt>
      <trkpt lat="48.0821" lon="7.05906">
        <ele>1072</ele>
        <time>2025-09-08T08:22:09Z</time>
      </trkpt>
      <trkpt lat="48.08208" lon="7.05911">
        <ele>1071.4</ele>
        <time>2025-09-08T08:22:10Z</time>
      </trkpt>
      <trkpt lat="48.08205" lon="7.05915">
        <ele>1071</ele>
        <time>2025-09-08T08:22:11Z</time>
      </trkpt>
      <trkpt lat="48.08204" lon="7.05918">
        <ele>1070.8</ele>
        <time>2025-09-08T08:22:12Z</time>
      </trkpt>
      <trkpt lat="48.08202" lon="7.0592">
        <ele>1070.4</ele>
        <time>2025-09-08T08:22:13Z</time>
      </trkpt>
      <trkpt lat="48.08201" lon="7.05922">
        <ele>1070.4</ele>
        <time>2025-09-08T08:22:14Z</time>
      </trkpt>
      <trkpt lat="48.08201" lon="7.05923">
        <ele>1070.4</ele>
        <time>2025-09-08T08:22:15Z</time>
      </trkpt>
      <trkpt lat="48.082" lon="7.05926">
        <ele>1070.4</ele>
        <time>2025-09-08T08:22:16Z</time>
      </trkpt>
      <trkpt lat="48.08199" lon="7.05929">
        <ele>1070.4</ele>
        <time>2025-09-08T08:22:17Z</time>
      </trkpt>
      <trkpt lat="48.08197" lon="7.05931">
        <ele>1070.4</ele>
        <time>2025-09-08T08:22:18Z</time>
      </trkpt>
      <trkpt lat="48.08196" lon="7.05934">
        <ele>1070.4</ele>
        <time>2025-09-08T08:22:19Z</time>
      </trkpt>
      <trkpt lat="48.08195" lon="7.05937">
        <ele>1070.4</ele>
        <time>2025-09-08T08:22:20Z</time>
      </trkpt>
      <trkpt lat="48.08194" lon="7.0594">
        <ele>1070.2</ele>
        <time>2025-09-08T08:22:21Z</time>
      </trkpt>
      <trkpt lat="48.08193" lon="7.05943">
        <ele>1070.2</ele>
        <time>2025-09-08T08:22:22Z</time>
      </trkpt>
      <trkpt lat="48.08192" lon="7.05946">
        <ele>1070.2</ele>
        <time>2025-09-08T08:22:23Z</time>
      </trkpt>
      <trkpt lat="48.0819" lon="7.05948">
        <ele>1069.8</ele>
        <time>2025-09-08T08:22:24Z</time>
      </trkpt>
      <trkpt lat="48.08188" lon="7.05951">
        <ele>1069.6</ele>
        <time>2025-09-08T08:22:25Z</time>
      </trkpt>
      <trkpt lat="48.08185" lon="7.05953">
        <ele>1069.6</ele>
        <time>2025-09-08T08:22:26Z</time>
      </trkpt>
      <trkpt lat="48.08183" lon="7.05955">
        <ele>1069.4</ele>
        <time>2025-09-08T08:22:27Z</time>
      </trkpt>
      <trkpt lat="48.08181" lon="7.05958">
        <ele>1069.2</ele>
        <time>2025-09-08T08:22:28Z</time>
      </trkpt>
      <trkpt lat="48.08178" lon="7.05959">
        <ele>1068.8</ele>
        <time>2025-09-08T08:22:29Z</time>
      </trkpt>
      <trkpt lat="48.08174" lon="7.05961">
        <ele>1068.6</ele>
        <time>2025-09-08T08:22:30Z</time>
      </trkpt>
      <trkpt lat="48.0817" lon="7.05964">
        <ele>1068.4</ele>
        <time>2025-09-08T08:22:31Z</time>
      </trkpt>
      <trkpt lat="48.08166" lon="7.05966">
        <ele>1068.2</ele>
        <time>2025-09-08T08:22:32Z</time>
      </trkpt>
      <trkpt lat="48.08163" lon="7.05967">
        <ele>1067.8</ele>
        <time>2025-09-08T08:22:33Z</time>
      </trkpt>
      <trkpt lat="48.0816" lon="7.0597">
        <ele>1067.6</ele>
        <time>2025-09-08T08:22:34Z</time>
      </trkpt>
      <trkpt lat="48.08157" lon="7.05973">
        <ele>1067.2</ele>
        <time>2025-09-08T08:22:35Z</time>
      </trkpt>
      <trkpt lat="48.08153" lon="7.05976">
        <ele>1067.2</ele>
        <time>2025-09-08T08:22:36Z</time>
      </trkpt>
      <trkpt lat="48.0815" lon="7.05978">
        <ele>1066.8</ele>
        <time>2025-09-08T08:22:37Z</time>
      </trkpt>
      <trkpt lat="48.08146" lon="7.0598">
        <ele>1066.8</ele>
        <time>2025-09-08T08:22:38Z</time>
      </trkpt>
      <trkpt lat="48.08143" lon="7.05984">
        <ele>1066.6</ele>
        <time>2025-09-08T08:22:39Z</time>
      </trkpt>
      <trkpt lat="48.08139" lon="7.05985">
        <ele>1066.2</ele>
        <time>2025-09-08T08:22:40Z</time>
      </trkpt>
      <trkpt lat="48.08137" lon="7.05986">
        <ele>1066</ele>
        <time>2025-09-08T08:22:41Z</time>
      </trkpt>
      <trkpt lat="48.08136" lon="7.05988">
        <ele>1065.8</ele>
        <time>2025-09-08T08:22:42Z</time>
      </trkpt>
      <trkpt lat="48.08135" lon="7.05989">
        <ele>1065.4</ele>
        <time>2025-09-08T08:22:43Z</time>
      </trkpt>
      <trkpt lat="48.08134" lon="7.05991">
        <ele>1065.4</ele>
        <time>2025-09-08T08:22:44Z</time>
      </trkpt>
      <trkpt lat="48.08132" lon="7.05993">
        <ele>1065.4</ele>
        <time>2025-09-08T08:22:45Z</time>
      </trkpt>
      <trkpt lat="48.08129" lon="7.05996">
        <ele>1065.2</ele>
        <time>2025-09-08T08:22:46Z</time>
      </trkpt>
      <trkpt lat="48.08127" lon="7.06">
        <ele>1065.2</ele>
        <time>2025-09-08T08:22:47Z</time>
      </trkpt>
      <trkpt lat="48.08125" lon="7.06005">
        <ele>1065.2</ele>
        <time>2025-09-08T08:22:48Z</time>
      </trkpt>
      <trkpt lat="48.08122" lon="7.06009">
        <ele>1065</ele>
        <time>2025-09-08T08:22:49Z</time>
      </trkpt>
      <trkpt lat="48.08118" lon="7.06013">
        <ele>1064.8</ele>
        <time>2025-09-08T08:22:50Z</time>
      </trkpt>
      <trkpt lat="48.08115" lon="7.06016">
        <ele>1064.6</ele>
        <time>2025-09-08T08:22:51Z</time>
      </trkpt>
      <trkpt lat="48.08112" lon="7.06019">
        <ele>1064.4</ele>
        <time>2025-09-08T08:22:52Z</time>
      </trkpt>
      <trkpt lat="48.0811" lon="7.06024">
        <ele>1064.2</ele>
        <time>2025-09-08T08:22:53Z</time>
      </trkpt>
      <trkpt lat="48.08108" lon="7.06028">
        <ele>1064.2</ele>
        <time>2025-09-08T08:22:54Z</time>
      </trkpt>
      <trkpt lat="48.08107" lon="7.06033">
        <ele>1064</ele>
        <time>2025-09-08T08:22:55Z</time>
      </trkpt>
      <trkpt lat="48.08106" lon="7.06037">
        <ele>1064</ele>
        <time>2025-09-08T08:22:56Z</time>
      </trkpt>
      <trkpt lat="48.08106" lon="7.0604">
        <ele>1063.8</ele>
        <time>2025-09-08T08:22:57Z</time>
      </trkpt>
      <trkpt lat="48.08105" lon="7.06044">
        <ele>1063.8</ele>
        <time>2025-09-08T08:22:58Z</time>
      </trkpt>
      <trkpt lat="48.08106" lon="7.06049">
        <ele>1063.6</ele>
        <time>2025-09-08T08:22:59Z</time>
      </trkpt>
      <trkpt lat="48.08106" lon="7.06056">
        <ele>1063.6</ele>
        <time>2025-09-08T08:23:00Z</time>
      </trkpt>
      <trkpt lat="48.08106" lon="7.06063">
        <ele>1063.2</ele>
        <time>2025-09-08T08:23:01Z</time>
      </trkpt>
      <trkpt lat="48.08106" lon="7.06071">
        <ele>1063</ele>
        <time>2025-09-08T08:23:02Z</time>
      </trkpt>
      <trkpt lat="48.08106" lon="7.06079">
        <ele>1062.4</ele>
        <time>2025-09-08T08:23:03Z</time>
      </trkpt>
      <trkpt lat="48.08107" lon="7.06087">
        <ele>1062</ele>
        <time>2025-09-08T08:23:04Z</time>
      </trkpt>
      <trkpt lat="48.08108" lon="7.06096">
        <ele>1061.4</ele>
        <time>2025-09-08T08:23:05Z</time>
      </trkpt>
      <trkpt lat="48.08109" lon="7.06105">
        <ele>1060.8</ele>
        <time>2025-09-08T08:23:06Z</time>
      </trkpt>
      <trkpt lat="48.0811" lon="7.06114">
        <ele>1060</ele>
        <time>2025-09-08T08:23:07Z</time>
      </trkpt>
      <trkpt lat="48.08112" lon="7.06123">
        <ele>1060</ele>
        <time>2025-09-08T08:23:08Z</time>
      </trkpt>
      <trkpt lat="48.08114" lon="7.06131">
        <ele>1059.6</ele>
        <time>2025-09-08T08:23:09Z</time>
      </trkpt>
      <trkpt lat="48.08115" lon="7.0614">
        <ele>1059</ele>
        <time>2025-09-08T08:23:10Z</time>
      </trkpt>
      <trkpt lat="48.08118" lon="7.06149">
        <ele>1058.6</ele>
        <time>2025-09-08T08:23:11Z</time>
      </trkpt>
      <trkpt lat="48.0812" lon="7.06158">
        <ele>1058</ele>
        <time>2025-09-08T08:23:12Z</time>
      </trkpt>
      <trkpt lat="48.08123" lon="7.06167">
        <ele>1057.6</ele>
        <time>2025-09-08T08:23:13Z</time>
      </trkpt>
      <trkpt lat="48.08125" lon="7.06177">
        <ele>1057.2</ele>
        <time>2025-09-08T08:23:14Z</time>
      </trkpt>
      <trkpt lat="48.08128" lon="7.06188">
        <ele>1057</ele>
        <time>2025-09-08T08:23:15Z</time>
      </trkpt>
      <trkpt lat="48.0813" lon="7.06198">
        <ele>1056.4</ele>
        <time>2025-09-08T08:23:16Z</time>
      </trkpt>
      <trkpt lat="48.08131" lon="7.06207">
        <ele>1056</ele>
        <time>2025-09-08T08:23:17Z</time>
      </trkpt>
      <trkpt lat="48.08132" lon="7.06216">
        <ele>1055.2</ele>
        <time>2025-09-08T08:23:18Z</time>
      </trkpt>
      <trkpt lat="48.08133" lon="7.06224">
        <ele>1054.8</ele>
        <time>2025-09-08T08:23:19Z</time>
      </trkpt>
      <trkpt lat="48.08134" lon="7.06231">
        <ele>1054.4</ele>
        <time>2025-09-08T08:23:20Z</time>
      </trkpt>
      <trkpt lat="48.08136" lon="7.06238">
        <ele>1054.2</ele>
        <time>2025-09-08T08:23:21Z</time>
      </trkpt>
      <trkpt lat="48.08137" lon="7.06246">
        <ele>1053.8</ele>
        <time>2025-09-08T08:23:22Z</time>
      </trkpt>
      <trkpt lat="48.0814" lon="7.06255">
        <ele>1053.6</ele>
        <time>2025-09-08T08:23:23Z</time>
      </trkpt>
      <trkpt lat="48.08142" lon="7.06264">
        <ele>1053.4</ele>
        <time>2025-09-08T08:23:24Z</time>
      </trkpt>
      <trkpt lat="48.08144" lon="7.06273">
        <ele>1053</ele>
        <time>2025-09-08T08:23:25Z</time>
      </trkpt>
      <trkpt lat="48.08147" lon="7.06283">
        <ele>1052.2</ele>
        <time>2025-09-08T08:23:26Z</time>
      </trkpt>
      <trkpt lat="48.08149" lon="7.06293">
        <ele>1052</ele>
        <time>2025-09-08T08:23:27Z</time>
      </trkpt>
      <trkpt lat="48.08152" lon="7.06304">
        <ele>1051.6</ele>
        <time>2025-09-08T08:23:28Z</time>
      </trkpt>
      <trkpt lat="48.08154" lon="7.06314">
        <ele>1051</ele>
        <time>2025-09-08T08:23:29Z</time>
      </trkpt>
      <trkpt lat="48.08156" lon="7.06325">
        <ele>1050.4</ele>
        <time>2025-09-08T08:23:30Z</time>
      </trkpt>
      <trkpt lat="48.08158" lon="7.06337">
        <ele>1050</ele>
        <time>2025-09-08T08:23:31Z</time>
      </trkpt>
      <trkpt lat="48.0816" lon="7.06349">
        <ele>1049.6</ele>
        <time>2025-09-08T08:23:32Z</time>
      </trkpt>
      <trkpt lat="48.08161" lon="7.06361">
        <ele>1048.8</ele>
        <time>2025-09-08T08:23:33Z</time>
      </trkpt>
      <trkpt lat="48.08161" lon="7.06374">
        <ele>1048.2</ele>
        <time>2025-09-08T08:23:34Z</time>
      </trkpt>
      <trkpt lat="48.08161" lon="7.06386">
        <ele>1047.4</ele>
        <time>2025-09-08T08:23:35Z</time>
      </trkpt>
      <trkpt lat="48.08161" lon="7.06398">
        <ele>1046.6</ele>
        <time>2025-09-08T08:23:36Z</time>
      </trkpt>
      <trkpt lat="48.08161" lon="7.06411">
        <ele>1045.8</ele>
        <time>2025-09-08T08:23:37Z</time>
      </trkpt>
      <trkpt lat="48.0816" lon="7.06423">
        <ele>1045.2</ele>
        <time>2025-09-08T08:23:38Z</time>
      </trkpt>
      <trkpt lat="48.08158" lon="7.06436">
        <ele>1044.4</ele>
        <time>2025-09-08T08:23:39Z</time>
      </trkpt>
      <trkpt lat="48.08157" lon="7.06448">
        <ele>1043.8</ele>
        <time>2025-09-08T08:23:40Z</time>
      </trkpt>
      <trkpt lat="48.08154" lon="7.06461">
        <ele>1043.2</ele>
        <time>2025-09-08T08:23:41Z</time>
      </trkpt>
      <trkpt lat="48.08151" lon="7.06474">
        <ele>1042.6</ele>
        <time>2025-09-08T08:23:42Z</time>
      </trkpt>
      <trkpt lat="48.08148" lon="7.06486">
        <ele>1042</ele>
        <time>2025-09-08T08:23:43Z</time>
      </trkpt>
      <trkpt lat="48.08145" lon="7.06499">
        <ele>1041.2</ele>
        <time>2025-09-08T08:23:44Z</time>
      </trkpt>
      <trkpt lat="48.0814" lon="7.06513">
        <ele>1040.2</ele>
        <time>2025-09-08T08:23:45Z</time>
      </trkpt>
      <trkpt lat="48.08136" lon="7.06525">
        <ele>1039.2</ele>
        <time>2025-09-08T08:23:46Z</time>
      </trkpt>
      <trkpt lat="48.08132" lon="7.06538">
        <ele>1038.4</ele>
        <time>2025-09-08T08:23:47Z</time>
      </trkpt>
      <trkpt lat="48.08127" lon="7.06552">
        <ele>1037.6</ele>
        <time>2025-09-08T08:23:48Z</time>
      </trkpt>
      <trkpt lat="48.08122" lon="7.06565">
        <ele>1036.6</ele>
        <time>2025-09-08T08:23:49Z</time>
      </trkpt>
      <trkpt lat="48.08118" lon="7.06578">
        <ele>1036</ele>
        <time>2025-09-08T08:23:50Z</time>
      </trkpt>
      <trkpt lat="48.08114" lon="7.06592">
        <ele>1034.8</ele>
        <time>2025-09-08T08:23:51Z</time>
      </trkpt>
      <trkpt lat="48.08111" lon="7.06605">
        <ele>1034.2</ele>
        <time>2025-09-08T08:23:52Z</time>
      </trkpt>
      <trkpt lat="48.08107" lon="7.06619">
        <ele>1033.2</ele>
        <time>2025-09-08T08:23:53Z</time>
      </trkpt>
      <trkpt lat="48.08104" lon="7.06633">
        <ele>1032.6</ele>
        <time>2025-09-08T08:23:54Z</time>
      </trkpt>
      <trkpt lat="48.08101" lon="7.06646">
        <ele>1031.8</ele>
        <time>2025-09-08T08:23:55Z</time>
      </trkpt>
      <trkpt lat="48.08098" lon="7.06658">
        <ele>1031</ele>
        <time>2025-09-08T08:23:56Z</time>
      </trkpt>
      <trkpt lat="48.08096" lon="7.06669">
        <ele>1030.6</ele>
        <time>2025-09-08T08:23:57Z</time>
      </trkpt>
      <trkpt lat="48.08093" lon="7.0668">
        <ele>1030</ele>
        <time>2025-09-08T08:23:58Z</time>
      </trkpt>
      <trkpt lat="48.08091" lon="7.06691">
        <ele>1029.4</ele>
        <time>2025-09-08T08:23:59Z</time>
      </trkpt>
      <trkpt lat="48.08089" lon="7.06702">
        <ele>1028.8</ele>
        <time>2025-09-08T08:24:00Z</time>
      </trkpt>
      <trkpt lat="48.08087" lon="7.06711">
        <ele>1028.2</ele>
        <time>2025-09-08T08:24:01Z</time>
      </trkpt>
      <trkpt lat="48.08086" lon="7.06717">
        <ele>1027.4</ele>
        <time>2025-09-08T08:24:02Z</time>
      </trkpt>
      <trkpt lat="48.08086" lon="7.06721">
        <ele>1026.6</ele>
        <time>2025-09-08T08:24:03Z</time>
      </trkpt>
      <trkpt lat="48.08088" lon="7.06723">
        <ele>1026.2</ele>
        <time>2025-09-08T08:24:04Z</time>
      </trkpt>
      <trkpt lat="48.08088" lon="7.06724">
        <ele>1025.8</ele>
        <time>2025-09-08T08:24:05Z</time>
      </trkpt>
      <trkpt lat="48.08088" lon="7.06724">
        <ele>1025.6</ele>
        <time>2025-09-08T08:24:06Z</time>
      </trkpt>
      <trkpt lat="48.08088" lon="7.06724">
        <ele>1025.6</ele>
        <time>2025-09-08T08:24:07Z</time>
      </trkpt>
      <trkpt lat="48.08089" lon="7.06728">
        <ele>1025</ele>
        <time>2025-09-08T08:24:18Z</time>
      </trkpt>
      <trkpt lat="48.0809" lon="7.06731">
        <ele>1025</ele>
        <time>2025-09-08T08:24:19Z</time>
      </trkpt>
      <trkpt lat="48.0809" lon="7.06735">
        <ele>1024.8</ele>
        <time>2025-09-08T08:24:20Z</time>
      </trkpt>
      <trkpt lat="48.0809" lon="7.06738">
        <ele>1024.6</ele>
        <time>2025-09-08T08:24:21Z</time>
      </trkpt>
      <trkpt lat="48.0809" lon="7.06743">
        <ele>1024.4</ele>
        <time>2025-09-08T08:24:22Z</time>
      </trkpt>
      <trkpt lat="48.08091" lon="7.06748">
        <ele>1023.8</ele>
        <time>2025-09-08T08:24:23Z</time>
      </trkpt>
      <trkpt lat="48.08091" lon="7.06754">
        <ele>1023.4</ele>
        <time>2025-09-08T08:24:24Z</time>
      </trkpt>
      <trkpt lat="48.08089" lon="7.06761">
        <ele>1022.4</ele>
        <time>2025-09-08T08:24:25Z</time>
      </trkpt>
      <trkpt lat="48.08089" lon="7.06766">
        <ele>1021.8</ele>
        <time>2025-09-08T08:24:26Z</time>
      </trkpt>
      <trkpt lat="48.08087" lon="7.06773">
        <ele>1021.2</ele>
        <time>2025-09-08T08:24:27Z</time>
      </trkpt>
      <trkpt lat="48.08086" lon="7.0678">
        <ele>1020.2</ele>
        <time>2025-09-08T08:24:28Z</time>
      </trkpt>
      <trkpt lat="48.08085" lon="7.06787">
        <ele>1019.6</ele>
        <time>2025-09-08T08:24:29Z</time>
      </trkpt>
      <trkpt lat="48.08084" lon="7.06792">
        <ele>1018.8</ele>
        <time>2025-09-08T08:24:30Z</time>
      </trkpt>
      <trkpt lat="48.08084" lon="7.06798">
        <ele>1018.6</ele>
        <time>2025-09-08T08:24:31Z</time>
      </trkpt>
      <trkpt lat="48.08082" lon="7.06804">
        <ele>1018.2</ele>
        <time>2025-09-08T08:24:32Z</time>
      </trkpt>
      <trkpt lat="48.08082" lon="7.0681">
        <ele>1017.8</ele>
        <time>2025-09-08T08:24:33Z</time>
      </trkpt>
      <trkpt lat="48.08082" lon="7.06815">
        <ele>1017.4</ele>
        <time>2025-09-08T08:24:34Z</time>
      </trkpt>
      <trkpt lat="48.0808" lon="7.06823">
        <ele>1017.2</ele>
        <time>2025-09-08T08:24:35Z</time>
      </trkpt>
      <trkpt lat="48.0808" lon="7.06831">
        <ele>1017</ele>
        <time>2025-09-08T08:24:36Z</time>
      </trkpt>
      <trkpt lat="48.08078" lon="7.0684">
        <ele>1016.4</ele>
        <time>2025-09-08T08:24:37Z</time>
      </trkpt>
      <trkpt lat="48.08075" lon="7.06848">
        <ele>1016</ele>
        <time>2025-09-08T08:24:38Z</time>
      </trkpt>
      <trkpt lat="48.08075" lon="7.06855">
        <ele>1015.4</ele>
        <time>2025-09-08T08:24:39Z</time>
      </trkpt>
      <trkpt lat="48.08074" lon="7.06863">
        <ele>1015</ele>
        <time>2025-09-08T08:24:40Z</time>
      </trkpt>
      <trkpt lat="48.08072" lon="7.0687">
        <ele>1014.6</ele>
        <time>2025-09-08T08:24:41Z</time>
      </trkpt>
      <trkpt lat="48.08072" lon="7.06877">
        <ele>1014</ele>
        <time>2025-09-08T08:24:42Z</time>
      </trkpt>
      <trkpt lat="48.08071" lon="7.06884">
        <ele>1013.8</ele>
        <time>2025-09-08T08:24:43Z</time>
      </trkpt>
      <trkpt lat="48.08071" lon="7.06893">
        <ele>1013.4</ele>
        <time>2025-09-08T08:24:44Z</time>
      </trkpt>
      <trkpt lat="48.0807" lon="7.06901">
        <ele>1012.8</ele>
        <time>2025-09-08T08:24:45Z</time>
      </trkpt>
      <trkpt lat="48.08069" lon="7.06909">
        <ele>1012.2</ele>
        <time>2025-09-08T08:24:46Z</time>
      </trkpt>
      <trkpt lat="48.08068" lon="7.06916">
        <ele>1011.8</ele>
        <time>2025-09-08T08:24:47Z</time>
      </trkpt>
      <trkpt lat="48.08069" lon="7.06922">
        <ele>1011.2</ele>
        <time>2025-09-08T08:24:48Z</time>
      </trkpt>
      <trkpt lat="48.08068" lon="7.0693">
        <ele>1010.8</ele>
        <time>2025-09-08T08:24:49Z</time>
      </trkpt>
      <trkpt lat="48.08068" lon="7.06937">
        <ele>1010.4</ele>
        <time>2025-09-08T08:24:50Z</time>
      </trkpt>
      <trkpt lat="48.08068" lon="7.06944">
        <ele>1010.2</ele>
        <time>2025-09-08T08:24:51Z</time>
      </trkpt>
      <trkpt lat="48.08068" lon="7.06951">
        <ele>1009.8</ele>
        <time>2025-09-08T08:24:52Z</time>
      </trkpt>
      <trkpt lat="48.08069" lon="7.06958">
        <ele>1009</ele>
        <time>2025-09-08T08:24:53Z</time>
      </trkpt>
      <trkpt lat="48.08068" lon="7.06965">
        <ele>1008.4</ele>
        <time>2025-09-08T08:24:54Z</time>
      </trkpt>
      <trkpt lat="48.08067" lon="7.06971">
        <ele>1008</ele>
        <time>2025-09-08T08:24:55Z</time>
      </trkpt>
      <trkpt lat="48.08066" lon="7.06977">
        <ele>1007.2</ele>
        <time>2025-09-08T08:24:56Z</time>
      </trkpt>
      <trkpt lat="48.08066" lon="7.06984">
        <ele>1006.6</ele>
        <time>2025-09-08T08:24:57Z</time>
      </trkpt>
      <trkpt lat="48.08065" lon="7.06991">
        <ele>1006.4</ele>
        <time>2025-09-08T08:24:58Z</time>
      </trkpt>
      <trkpt lat="48.08064" lon="7.06997">
        <ele>1006.4</ele>
        <time>2025-09-08T08:24:59Z</time>
      </trkpt>
      <trkpt lat="48.08063" lon="7.07003">
        <ele>1006</ele>
        <time>2025-09-08T08:25:00Z</time>
      </trkpt>
      <trkpt lat="48.08062" lon="7.0701">
        <ele>1005.6</ele>
        <time>2025-09-08T08:25:01Z</time>
      </trkpt>
      <trkpt lat="48.08061" lon="7.07016">
        <ele>1005.6</ele>
        <time>2025-09-08T08:25:02Z</time>
      </trkpt>
      <trkpt lat="48.0806" lon="7.07023">
        <ele>1005.4</ele>
        <time>2025-09-08T08:25:03Z</time>
      </trkpt>
      <trkpt lat="48.08059" lon="7.07029">
        <ele>1005.2</ele>
        <time>2025-09-08T08:25:04Z</time>
      </trkpt>
      <trkpt lat="48.08059" lon="7.07035">
        <ele>1005</ele>
        <time>2025-09-08T08:25:05Z</time>
      </trkpt>
      <trkpt lat="48.08059" lon="7.07041">
        <ele>1004.8</ele>
        <time>2025-09-08T08:25:06Z</time>
      </trkpt>
      <trkpt lat="48.08059" lon="7.07048">
        <ele>1004.6</ele>
        <time>2025-09-08T08:25:07Z</time>
      </trkpt>
      <trkpt lat="48.08057" lon="7.07055">
        <ele>1004.4</ele>
        <time>2025-09-08T08:25:08Z</time>
      </trkpt>
      <trkpt lat="48.08055" lon="7.0706">
        <ele>1004.2</ele>
        <time>2025-09-08T08:25:09Z</time>
      </trkpt>
      <trkpt lat="48.08054" lon="7.07064">
        <ele>1004</ele>
        <time>2025-09-08T08:25:10Z</time>
      </trkpt>
      <trkpt lat="48.08053" lon="7.0707">
        <ele>1004</ele>
        <time>2025-09-08T08:25:11Z</time>
      </trkpt>
      <trkpt lat="48.08051" lon="7.07076">
        <ele>1003.8</ele>
        <time>2025-09-08T08:25:12Z</time>
      </trkpt>
      <trkpt lat="48.08049" lon="7.07083">
        <ele>1003.8</ele>
        <time>2025-09-08T08:25:13Z</time>
      </trkpt>
      <trkpt lat="48.08048" lon="7.07089">
        <ele>1003.6</ele>
        <time>2025-09-08T08:25:14Z</time>
      </trkpt>
      <trkpt lat="48.08048" lon="7.07097">
        <ele>1003.6</ele>
        <time>2025-09-08T08:25:15Z</time>
      </trkpt>
      <trkpt lat="48.08046" lon="7.07104">
        <ele>1003.6</ele>
        <time>2025-09-08T08:25:16Z</time>
      </trkpt>
      <trkpt lat="48.08044" lon="7.07112">
        <ele>1003.2</ele>
        <time>2025-09-08T08:25:17Z</time>
      </trkpt>
      <trkpt lat="48.0804" lon="7.07119">
        <ele>1003</ele>
        <time>2025-09-08T08:25:18Z</time>
      </trkpt>
      <trkpt lat="48.08039" lon="7.07126">
        <ele>1002.4</ele>
        <time>2025-09-08T08:25:19Z</time>
      </trkpt>
      <trkpt lat="48.08038" lon="7.07133">
        <ele>1002.2</ele>
        <time>2025-09-08T08:25:20Z</time>
      </trkpt>
      <trkpt lat="48.08037" lon="7.07141">
        <ele>1002</ele>
        <time>2025-09-08T08:25:21Z</time>
      </trkpt>
      <trkpt lat="48.08037" lon="7.07149">
        <ele>1001.6</ele>
        <time>2025-09-08T08:25:22Z</time>
      </trkpt>
      <trkpt lat="48.08036" lon="7.07155">
        <ele>1001</ele>
        <time>2025-09-08T08:25:23Z</time>
      </trkpt>
      <trkpt lat="48.08033" lon="7.07162">
        <ele>1000.6</ele>
        <time>2025-09-08T08:25:24Z</time>
      </trkpt>
      <trkpt lat="48.08031" lon="7.07168">
        <ele>1000.6</ele>
        <time>2025-09-08T08:25:25Z</time>
      </trkpt>
      <trkpt lat="48.0803" lon="7.07173">
        <ele>1000</ele>
        <time>2025-09-08T08:25:26Z</time>
      </trkpt>
      <trkpt lat="48.0803" lon="7.07178">
        <ele>999.4</ele>
        <time>2025-09-08T08:25:27Z</time>
      </trkpt>
      <trkpt lat="48.0803" lon="7.07183">
        <ele>998.8</ele>
        <time>2025-09-08T08:25:28Z</time>
      </trkpt>
      <trkpt lat="48.0803" lon="7.07189">
        <ele>998</ele>
        <time>2025-09-08T08:25:29Z</time>
      </trkpt>
      <trkpt lat="48.0803" lon="7.07194">
        <ele>997.8</ele>
        <time>2025-09-08T08:25:30Z</time>
      </trkpt>
      <trkpt lat="48.08031" lon="7.07201">
        <ele>997.2</ele>
        <time>2025-09-08T08:25:31Z</time>
      </trkpt>
      <trkpt lat="48.08031" lon="7.07208">
        <ele>996.8</ele>
        <time>2025-09-08T08:25:32Z</time>
      </trkpt>
      <trkpt lat="48.0803" lon="7.07216">
        <ele>996.2</ele>
        <time>2025-09-08T08:25:33Z</time>
      </trkpt>
      <trkpt lat="48.08028" lon="7.07223">
        <ele>995.4</ele>
        <time>2025-09-08T08:25:34Z</time>
      </trkpt>
      <trkpt lat="48.08027" lon="7.07229">
        <ele>994.8</ele>
        <time>2025-09-08T08:25:35Z</time>
      </trkpt>
      <trkpt lat="48.08025" lon="7.07234">
        <ele>993.4</ele>
        <time>2025-09-08T08:25:36Z</time>
      </trkpt>
      <trkpt lat="48.08027" lon="7.07239">
        <ele>992.6</ele>
        <time>2025-09-08T08:25:37Z</time>
      </trkpt>
      <trkpt lat="48.08029" lon="7.07244">
        <ele>992.2</ele>
        <time>2025-09-08T08:25:38Z</time>
      </trkpt>
      <trkpt lat="48.08031" lon="7.0725">
        <ele>991.2</ele>
        <time>2025-09-08T08:25:39Z</time>
      </trkpt>
      <trkpt lat="48.08033" lon="7.07256">
        <ele>990.8</ele>
        <time>2025-09-08T08:25:40Z</time>
      </trkpt>
      <trkpt lat="48.08032" lon="7.07262">
        <ele>990</ele>
        <time>2025-09-08T08:25:41Z</time>
      </trkpt>
      <trkpt lat="48.0803" lon="7.07268">
        <ele>989.4</ele>
        <time>2025-09-08T08:25:42Z</time>
      </trkpt>
      <trkpt lat="48.08027" lon="7.07273">
        <ele>988.6</ele>
        <time>2025-09-08T08:25:43Z</time>
      </trkpt>
      <trkpt lat="48.08023" lon="7.07278">
        <ele>988</ele>
        <time>2025-09-08T08:25:44Z</time>
      </trkpt>
      <trkpt lat="48.0802" lon="7.07284">
        <ele>987.4</ele>
        <time>2025-09-08T08:25:45Z</time>
      </trkpt>
      <trkpt lat="48.0802" lon="7.0729">
        <ele>986.6</ele>
        <time>2025-09-08T08:25:46Z</time>
      </trkpt>
      <trkpt lat="48.08022" lon="7.07293">
        <ele>986</ele>
        <time>2025-09-08T08:25:47Z</time>
      </trkpt>
      <trkpt lat="48.08025" lon="7.07296">
        <ele>985.6</ele>
        <time>2025-09-08T08:25:48Z</time>
      </trkpt>
      <trkpt lat="48.08027" lon="7.07301">
        <ele>984.8</ele>
        <time>2025-09-08T08:25:49Z</time>
      </trkpt>
      <trkpt lat="48.0803" lon="7.07306">
        <ele>984.4</ele>
        <time>2025-09-08T08:25:50Z</time>
      </trkpt>
      <trkpt lat="48.08033" lon="7.07311">
        <ele>984.2</ele>
        <time>2025-09-08T08:25:51Z</time>
      </trkpt>
      <trkpt lat="48.08036" lon="7.07316">
        <ele>983.6</ele>
        <time>2025-09-08T08:25:52Z</time>
      </trkpt>
      <trkpt lat="48.08039" lon="7.07322">
        <ele>983.2</ele>
        <time>2025-09-08T08:25:53Z</time>
      </trkpt>
      <trkpt lat="48.08042" lon="7.07327">
        <ele>982.2</ele>
        <time>2025-09-08T08:25:54Z</time>
      </trkpt>
      <trkpt lat="48.08043" lon="7.07332">
        <ele>980.8</ele>
        <time>2025-09-08T08:25:55Z</time>
      </trkpt>
      <trkpt lat="48.08042" lon="7.07337">
        <ele>980</ele>
        <time>2025-09-08T08:25:56Z</time>
      </trkpt>
      <trkpt lat="48.08041" lon="7.07342">
        <ele>979.4</ele>
        <time>2025-09-08T08:25:57Z</time>
      </trkpt>
      <trkpt lat="48.08041" lon="7.07346">
        <ele>978.8</ele>
        <time>2025-09-08T08:25:58Z</time>
      </trkpt>
      <trkpt lat="48.08041" lon="7.07351">
        <ele>978</ele>
        <time>2025-09-08T08:25:59Z</time>
      </trkpt>
      <trkpt lat="48.08042" lon="7.07357">
        <ele>977.4</ele>
        <time>2025-09-08T08:26:00Z</time>
      </trkpt>
      <trkpt lat="48.08045" lon="7.07359">
        <ele>976.6</ele>
        <time>2025-09-08T08:26:01Z</time>
      </trkpt>
      <trkpt lat="48.08048" lon="7.07361">
        <ele>976</ele>
        <time>2025-09-08T08:26:02Z</time>
      </trkpt>
      <trkpt lat="48.0805" lon="7.07365">
        <ele>975.2</ele>
        <time>2025-09-08T08:26:03Z</time>
      </trkpt>
      <trkpt lat="48.0805" lon="7.0737">
        <ele>974.6</ele>
        <time>2025-09-08T08:26:04Z</time>
      </trkpt>
      <trkpt lat="48.08051" lon="7.07374">
        <ele>974</ele>
        <time>2025-09-08T08:26:05Z</time>
      </trkpt>
      <trkpt lat="48.08053" lon="7.07377">
        <ele>972.6</ele>
        <time>2025-09-08T08:26:06Z</time>
      </trkpt>
      <trkpt lat="48.08054" lon="7.07381">
        <ele>972.2</ele>
        <time>2025-09-08T08:26:07Z</time>
      </trkpt>
      <trkpt lat="48.08054" lon="7.07384">
        <ele>971.2</ele>
        <time>2025-09-08T08:26:08Z</time>
      </trkpt>
      <trkpt lat="48.08055" lon="7.07388">
        <ele>970</ele>
        <time>2025-09-08T08:26:09Z</time>
      </trkpt>
      <trkpt lat="48.08055" lon="7.07391">
        <ele>969.6</ele>
        <time>2025-09-08T08:26:10Z</time>
      </trkpt>
      <trkpt lat="48.08053" lon="7.07394">
        <ele>969.4</ele>
        <time>2025-09-08T08:26:11Z</time>
      </trkpt>
      <trkpt lat="48.08051" lon="7.07396">
        <ele>968.6</ele>
        <time>2025-09-08T08:26:12Z</time>
      </trkpt>
      <trkpt lat="48.08049" lon="7.07398">
        <ele>967.2</ele>
        <time>2025-09-08T08:26:13Z</time>
      </trkpt>
      <trkpt lat="48.08046" lon="7.074">
        <ele>967.2</ele>
        <time>2025-09-08T08:26:14Z</time>
      </trkpt>
      <trkpt lat="48.08043" lon="7.07403">
        <ele>966.4</ele>
        <time>2025-09-08T08:26:15Z</time>
      </trkpt>
      <trkpt lat="48.0804" lon="7.07406">
        <ele>966.2</ele>
        <time>2025-09-08T08:26:16Z</time>
      </trkpt>
      <trkpt lat="48.08036" lon="7.07408">
        <ele>966.2</ele>
        <time>2025-09-08T08:26:17Z</time>
      </trkpt>
      <trkpt lat="48.08033" lon="7.07409">
        <ele>966</ele>
        <time>2025-09-08T08:26:18Z</time>
      </trkpt>
      <trkpt lat="48.08029" lon="7.0741">
        <ele>965.8</ele>
        <time>2025-09-08T08:26:19Z</time>
      </trkpt>
      <trkpt lat="48.08026" lon="7.07412">
        <ele>965.6</ele>
        <time>2025-09-08T08:26:20Z</time>
      </trkpt>
      <trkpt lat="48.08024" lon="7.07415">
        <ele>965.2</ele>
        <time>2025-09-08T08:26:21Z</time>
      </trkpt>
      <trkpt lat="48.08023" lon="7.07418">
        <ele>965</ele>
        <time>2025-09-08T08:26:22Z</time>
      </trkpt>
      <trkpt lat="48.08022" lon="7.07421">
        <ele>965</ele>
        <time>2025-09-08T08:26:23Z</time>
      </trkpt>
      <trkpt lat="48.08023" lon="7.07425">
        <ele>964.8</ele>
        <time>2025-09-08T08:26:24Z</time>
      </trkpt>
      <trkpt lat="48.08024" lon="7.07428">
        <ele>964.4</ele>
        <time>2025-09-08T08:26:25Z</time>
      </trkpt>
      <trkpt lat="48.08025" lon="7.07432">
        <ele>964</ele>
        <time>2025-09-08T08:26:26Z</time>
      </trkpt>
      <trkpt lat="48.08024" lon="7.07436">
        <ele>963.8</ele>
        <time>2025-09-08T08:26:27Z</time>
      </trkpt>
      <trkpt lat="48.08023" lon="7.0744">
        <ele>963.2</ele>
        <time>2025-09-08T08:26:28Z</time>
      </trkpt>
      <trkpt lat="48.08024" lon="7.07445">
        <ele>962.6</ele>
        <time>2025-09-08T08:26:29Z</time>
      </trkpt>
      <trkpt lat="48.08025" lon="7.07448">
        <ele>961.8</ele>
        <time>2025-09-08T08:26:30Z</time>
      </trkpt>
      <trkpt lat="48.08027" lon="7.07452">
        <ele>961</ele>
        <time>2025-09-08T08:26:31Z</time>
      </trkpt>
      <trkpt lat="48.08029" lon="7.07455">
        <ele>960.2</ele>
        <time>2025-09-08T08:26:32Z</time>
      </trkpt>
      <trkpt lat="48.08032" lon="7.07459">
        <ele>959.8</ele>
        <time>2025-09-08T08:26:33Z</time>
      </trkpt>
      <trkpt lat="48.08035" lon="7.07463">
        <ele>958.8</ele>
        <time>2025-09-08T08:26:34Z</time>
      </trkpt>
      <trkpt lat="48.08036" lon="7.07466">
        <ele>958.2</ele>
        <time>2025-09-08T08:26:35Z</time>
      </trkpt>
      <trkpt lat="48.08037" lon="7.07469">
        <ele>957.2</ele>
        <time>2025-09-08T08:26:36Z</time>
      </trkpt>
      <trkpt lat="48.08039" lon="7.07472">
        <ele>956.4</ele>
        <time>2025-09-08T08:26:37Z</time>
      </trkpt>
      <trkpt lat="48.08039" lon="7.07476">
        <ele>955.8</ele>
        <time>2025-09-08T08:26:38Z</time>
      </trkpt>
      <trkpt lat="48.08038" lon="7.07479">
        <ele>955.4</ele>
        <time>2025-09-08T08:26:39Z</time>
      </trkpt>
      <trkpt lat="48.08036" lon="7.07482">
        <ele>954.8</ele>
        <time>2025-09-08T08:26:40Z</time>
      </trkpt>
      <trkpt lat="48.08036" lon="7.07487">
        <ele>953.8</ele>
        <time>2025-09-08T08:26:41Z</time>
      </trkpt>
      <trkpt lat="48.08036" lon="7.07492">
        <ele>953.2</ele>
        <time>2025-09-08T08:26:42Z</time>
      </trkpt>
      <trkpt lat="48.08036" lon="7.07495">
        <ele>952.4</ele>
        <time>2025-09-08T08:26:43Z</time>
      </trkpt>
      <trkpt lat="48.08036" lon="7.07499">
        <ele>951.4</ele>
        <time>2025-09-08T08:26:44Z</time>
      </trkpt>
      <trkpt lat="48.08037" lon="7.07503">
        <ele>950.6</ele>
        <time>2025-09-08T08:26:45Z</time>
      </trkpt>
      <trkpt lat="48.08038" lon="7.07507">
        <ele>950</ele>
        <time>2025-09-08T08:26:46Z</time>
      </trkpt>
      <trkpt lat="48.08039" lon="7.0751">
        <ele>949.8</ele>
        <time>2025-09-08T08:26:47Z</time>
      </trkpt>
      <trkpt lat="48.08039" lon="7.07514">
        <ele>948.2</ele>
        <time>2025-09-08T08:26:48Z</time>
      </trkpt>
      <trkpt lat="48.08038" lon="7.07518">
        <ele>947.4</ele>
        <time>2025-09-08T08:26:49Z</time>
      </trkpt>
      <trkpt lat="48.08036" lon="7.07524">
        <ele>946.6</ele>
        <time>2025-09-08T08:26:50Z</time>
      </trkpt>
      <trkpt lat="48.08034" lon="7.07529">
        <ele>946</ele>
        <time>2025-09-08T08:26:51Z</time>
      </trkpt>
      <trkpt lat="48.08034" lon="7.07535">
        <ele>945.2</ele>
        <time>2025-09-08T08:26:52Z</time>
      </trkpt>
      <trkpt lat="48.08035" lon="7.07541">
        <ele>944.6</ele>
        <time>2025-09-08T08:26:53Z</time>
      </trkpt>
      <trkpt lat="48.08037" lon="7.07545">
        <ele>943</ele>
        <time>2025-09-08T08:26:54Z</time>
      </trkpt>
      <trkpt lat="48.08039" lon="7.07548">
        <ele>942.4</ele>
        <time>2025-09-08T08:26:55Z</time>
      </trkpt>
      <trkpt lat="48.08041" lon="7.0755">
        <ele>941.8</ele>
        <time>2025-09-08T08:26:56Z</time>
      </trkpt>
      <trkpt lat="48.08043" lon="7.07552">
        <ele>940.8</ele>
        <time>2025-09-08T08:26:57Z</time>
      </trkpt>
      <trkpt lat="48.08045" lon="7.07555">
        <ele>940</ele>
        <time>2025-09-08T08:26:58Z</time>
      </trkpt>
      <trkpt lat="48.08046" lon="7.0756">
        <ele>939.6</ele>
        <time>2025-09-08T08:26:59Z</time>
      </trkpt>
      <trkpt lat="48.08046" lon="7.07566">
        <ele>939</ele>
        <time>2025-09-08T08:27:00Z</time>
      </trkpt>
      <trkpt lat="48.08047" lon="7.07572">
        <ele>937.8</ele>
        <time>2025-09-08T08:27:01Z</time>
      </trkpt>
      <trkpt lat="48.08049" lon="7.07575">
        <ele>937.2</ele>
        <time>2025-09-08T08:27:02Z</time>
      </trkpt>
      <trkpt lat="48.08051" lon="7.07579">
        <ele>935.8</ele>
        <time>2025-09-08T08:27:03Z</time>
      </trkpt>
      <trkpt lat="48.08053" lon="7.07582">
        <ele>935</ele>
        <time>2025-09-08T08:27:04Z</time>
      </trkpt>
      <trkpt lat="48.08055" lon="7.07586">
        <ele>934.8</ele>
        <time>2025-09-08T08:27:05Z</time>
      </trkpt>
      <trkpt lat="48.08056" lon="7.07588">
        <ele>933.4</ele>
        <time>2025-09-08T08:27:06Z</time>
      </trkpt>
      <trkpt lat="48.08058" lon="7.07591">
        <ele>932.6</ele>
        <time>2025-09-08T08:27:07Z</time>
      </trkpt>
      <trkpt lat="48.08059" lon="7.07594">
        <ele>932.2</ele>
        <time>2025-09-08T08:27:08Z</time>
      </trkpt>
      <trkpt lat="48.0806" lon="7.07596">
        <ele>931.4</ele>
        <time>2025-09-08T08:27:09Z</time>
      </trkpt>
      <trkpt lat="48.08061" lon="7.07599">
        <ele>930.8</ele>
        <time>2025-09-08T08:27:10Z</time>
      </trkpt>
      <trkpt lat="48.08064" lon="7.07602">
        <ele>929.6</ele>
        <time>2025-09-08T08:27:11Z</time>
      </trkpt>
      <trkpt lat="48.08064" lon="7.07605">
        <ele>929.2</ele>
        <time>2025-09-08T08:27:12Z</time>
      </trkpt>
      <trkpt lat="48.08065" lon="7.07609">
        <ele>928.4</ele>
        <time>2025-09-08T08:27:13Z</time>
      </trkpt>
      <trkpt lat="48.08064" lon="7.07613">
        <ele>927.6</ele>
        <time>2025-09-08T08:27:14Z</time>
      </trkpt>
      <trkpt lat="48.08062" lon="7.07618">
        <ele>926.8</ele>
        <time>2025-09-08T08:27:15Z</time>
      </trkpt>
      <trkpt lat="48.08061" lon="7.07622">
        <ele>926.2</ele>
        <time>2025-09-08T08:27:16Z</time>
      </trkpt>
      <trkpt lat="48.08061" lon="7.07627">
        <ele>925.6</ele>
        <time>2025-09-08T08:27:17Z</time>
      </trkpt>
      <trkpt lat="48.08063" lon="7.0763">
        <ele>924.4</ele>
        <time>2025-09-08T08:27:18Z</time>
      </trkpt>
      <trkpt lat="48.08065" lon="7.07634">
        <ele>924</ele>
        <time>2025-09-08T08:27:19Z</time>
      </trkpt>
      <trkpt lat="48.08068" lon="7.07637">
        <ele>923.4</ele>
        <time>2025-09-08T08:27:20Z</time>
      </trkpt>
      <trkpt lat="48.0807" lon="7.07639">
        <ele>922.8</ele>
        <time>2025-09-08T08:27:21Z</time>
      </trkpt>
      <trkpt lat="48.08072" lon="7.07643">
        <ele>922</ele>
        <time>2025-09-08T08:27:22Z</time>
      </trkpt>
      <trkpt lat="48.08074" lon="7.07646">
        <ele>921.4</ele>
        <time>2025-09-08T08:27:23Z</time>
      </trkpt>
      <trkpt lat="48.08076" lon="7.07649">
        <ele>921</ele>
        <time>2025-09-08T08:27:24Z</time>
      </trkpt>
      <trkpt lat="48.08078" lon="7.0765">
        <ele>920.2</ele>
        <time>2025-09-08T08:27:25Z</time>
      </trkpt>
      <trkpt lat="48.08079" lon="7.07653">
        <ele>919.6</ele>
        <time>2025-09-08T08:27:26Z</time>
      </trkpt>
      <trkpt lat="48.0808" lon="7.07657">
        <ele>919</ele>
        <time>2025-09-08T08:27:27Z</time>
      </trkpt>
      <trkpt lat="48.08081" lon="7.07662">
        <ele>918.4</ele>
        <time>2025-09-08T08:27:28Z</time>
      </trkpt>
      <trkpt lat="48.08081" lon="7.07666">
        <ele>917.6</ele>
        <time>2025-09-08T08:27:29Z</time>
      </trkpt>
      <trkpt lat="48.08079" lon="7.07671">
        <ele>917.2</ele>
        <time>2025-09-08T08:27:30Z</time>
      </trkpt>
      <trkpt lat="48.08078" lon="7.07675">
        <ele>916.2</ele>
        <time>2025-09-08T08:27:31Z</time>
      </trkpt>
      <trkpt lat="48.08076" lon="7.07679">
        <ele>915.6</ele>
        <time>2025-09-08T08:27:32Z</time>
      </trkpt>
      <trkpt lat="48.08074" lon="7.07685">
        <ele>915</ele>
        <time>2025-09-08T08:27:33Z</time>
      </trkpt>
      <trkpt lat="48.08072" lon="7.07689">
        <ele>914.6</ele>
        <time>2025-09-08T08:27:34Z</time>
      </trkpt>
      <trkpt lat="48.08069" lon="7.07695">
        <ele>914.2</ele>
        <time>2025-09-08T08:27:35Z</time>
      </trkpt>
      <trkpt lat="48.08066" lon="7.077">
        <ele>914</ele>
        <time>2025-09-08T08:27:36Z</time>
      </trkpt>
      <trkpt lat="48.08064" lon="7.07705">
        <ele>913.8</ele>
        <time>2025-09-08T08:27:37Z</time>
      </trkpt>
      <trkpt lat="48.08062" lon="7.07709">
        <ele>913.6</ele>
        <time>2025-09-08T08:27:38Z</time>
      </trkpt>
      <trkpt lat="48.0806" lon="7.07714">
        <ele>913.4</ele>
        <time>2025-09-08T08:27:39Z</time>
      </trkpt>
      <trkpt lat="48.08058" lon="7.0772">
        <ele>913.4</ele>
        <time>2025-09-08T08:27:40Z</time>
      </trkpt>
      <trkpt lat="48.08059" lon="7.07724">
        <ele>913</ele>
        <time>2025-09-08T08:27:41Z</time>
      </trkpt>
      <trkpt lat="48.08059" lon="7.07728">
        <ele>912.8</ele>
        <time>2025-09-08T08:27:42Z</time>
      </trkpt>
      <trkpt lat="48.08059" lon="7.07732">
        <ele>912.4</ele>
        <time>2025-09-08T08:27:43Z</time>
      </trkpt>
      <trkpt lat="48.0806" lon="7.07737">
        <ele>912.2</ele>
        <time>2025-09-08T08:27:44Z</time>
      </trkpt>
      <trkpt lat="48.08061" lon="7.07742">
        <ele>912.2</ele>
        <time>2025-09-08T08:27:45Z</time>
      </trkpt>
      <trkpt lat="48.08061" lon="7.0775">
        <ele>911.8</ele>
        <time>2025-09-08T08:27:46Z</time>
      </trkpt>
      <trkpt lat="48.08061" lon="7.07756">
        <ele>911.6</ele>
        <time>2025-09-08T08:27:47Z</time>
      </trkpt>
      <trkpt lat="48.08061" lon="7.07762">
        <ele>911</ele>
        <time>2025-09-08T08:27:48Z</time>
      </trkpt>
      <trkpt lat="48.08061" lon="7.07769">
        <ele>910.2</ele>
        <time>2025-09-08T08:27:49Z</time>
      </trkpt>
      <trkpt lat="48.08062" lon="7.07775">
        <ele>909.8</ele>
        <time>2025-09-08T08:27:50Z</time>
      </trkpt>
      <trkpt lat="48.08062" lon="7.07783">
        <ele>909.4</ele>
        <time>2025-09-08T08:27:51Z</time>
      </trkpt>
      <trkpt lat="48.08063" lon="7.07791">
        <ele>908.8</ele>
        <time>2025-09-08T08:27:52Z</time>
      </trkpt>
      <trkpt lat="48.08063" lon="7.07799">
        <ele>908.4</ele>
        <time>2025-09-08T08:27:53Z</time>
      </trkpt>
      <trkpt lat="48.08063" lon="7.07804">
        <ele>907.4</ele>
        <time>2025-09-08T08:27:54Z</time>
      </trkpt>
      <trkpt lat="48.08063" lon="7.07809">
        <ele>906.4</ele>
        <time>2025-09-08T08:27:55Z</time>
      </trkpt>
      <trkpt lat="48.08062" lon="7.07814">
        <ele>906</ele>
        <time>2025-09-08T08:27:56Z</time>
      </trkpt>
      <trkpt lat="48.08061" lon="7.07818">
        <ele>905.6</ele>
        <time>2025-09-08T08:27:57Z</time>
      </trkpt>
      <trkpt lat="48.08061" lon="7.07822">
        <ele>905.2</ele>
        <time>2025-09-08T08:27:58Z</time>
      </trkpt>
      <trkpt lat="48.08062" lon="7.07825">
        <ele>905</ele>
        <time>2025-09-08T08:27:59Z</time>
      </trkpt>
      <trkpt lat="48.08064" lon="7.07828">
        <ele>904.4</ele>
        <time>2025-09-08T08:28:00Z</time>
      </trkpt>
      <trkpt lat="48.08067" lon="7.0783">
        <ele>903.8</ele>
        <time>2025-09-08T08:28:01Z</time>
      </trkpt>
      <trkpt lat="48.08071" lon="7.0783">
        <ele>903.6</ele>
        <time>2025-09-08T08:28:02Z</time>
      </trkpt>
      <trkpt lat="48.08074" lon="7.07833">
        <ele>903.4</ele>
        <time>2025-09-08T08:28:03Z</time>
      </trkpt>
      <trkpt lat="48.08076" lon="7.07836">
        <ele>903.2</ele>
        <time>2025-09-08T08:28:04Z</time>
      </trkpt>
      <trkpt lat="48.08076" lon="7.07841">
        <ele>902.2</ele>
        <time>2025-09-08T08:28:05Z</time>
      </trkpt>
      <trkpt lat="48.08075" lon="7.07846">
        <ele>901.6</ele>
        <time>2025-09-08T08:28:06Z</time>
      </trkpt>
      <trkpt lat="48.08075" lon="7.07851">
        <ele>901.4</ele>
        <time>2025-09-08T08:28:07Z</time>
      </trkpt>
      <trkpt lat="48.08074" lon="7.07855">
        <ele>900.8</ele>
        <time>2025-09-08T08:28:08Z</time>
      </trkpt>
      <trkpt lat="48.08074" lon="7.07859">
        <ele>900.4</ele>
        <time>2025-09-08T08:28:09Z</time>
      </trkpt>
      <trkpt lat="48.08074" lon="7.07866">
        <ele>900</ele>
        <time>2025-09-08T08:28:10Z</time>
      </trkpt>
      <trkpt lat="48.08075" lon="7.07872">
        <ele>899.4</ele>
        <time>2025-09-08T08:28:11Z</time>
      </trkpt>
      <trkpt lat="48.08076" lon="7.07878">
        <ele>899</ele>
        <time>2025-09-08T08:28:12Z</time>
      </trkpt>
      <trkpt lat="48.08075" lon="7.07884">
        <ele>898.6</ele>
        <time>2025-09-08T08:28:13Z</time>
      </trkpt>
      <trkpt lat="48.08076" lon="7.07888">
        <ele>898.2</ele>
        <time>2025-09-08T08:28:14Z</time>
      </trkpt>
      <trkpt lat="48.08075" lon="7.0789">
        <ele>897.6</ele>
        <time>2025-09-08T08:28:15Z</time>
      </trkpt>
      <trkpt lat="48.08075" lon="7.07892">
        <ele>897</ele>
        <time>2025-09-08T08:28:16Z</time>
      </trkpt>
      <trkpt lat="48.08078" lon="7.079">
        <ele>896.2</ele>
        <time>2025-09-08T08:28:20Z</time>
      </trkpt>
      <trkpt lat="48.08079" lon="7.07903">
        <ele>896</ele>
        <time>2025-09-08T08:28:21Z</time>
      </trkpt>
      <trkpt lat="48.08079" lon="7.07908">
        <ele>895.6</ele>
        <time>2025-09-08T08:28:22Z</time>
      </trkpt>
      <trkpt lat="48.08082" lon="7.07912">
        <ele>895.2</ele>
        <time>2025-09-08T08:28:23Z</time>
      </trkpt>
      <trkpt lat="48.08084" lon="7.07918">
        <ele>894.6</ele>
        <time>2025-09-08T08:28:24Z</time>
      </trkpt>
      <trkpt lat="48.08088" lon="7.07922">
        <ele>894</ele>
        <time>2025-09-08T08:28:25Z</time>
      </trkpt>
      <trkpt lat="48.08091" lon="7.07926">
        <ele>893.6</ele>
        <time>2025-09-08T08:28:26Z</time>
      </trkpt>
      <trkpt lat="48.08095" lon="7.0793">
        <ele>892</ele>
        <time>2025-09-08T08:28:27Z</time>
      </trkpt>
      <trkpt lat="48.08097" lon="7.07933">
        <ele>891.2</ele>
        <time>2025-09-08T08:28:28Z</time>
      </trkpt>
      <trkpt lat="48.08098" lon="7.07936">
        <ele>890</ele>
        <time>2025-09-08T08:28:29Z</time>
      </trkpt>
      <trkpt lat="48.08099" lon="7.07941">
        <ele>889.2</ele>
        <time>2025-09-08T08:28:30Z</time>
      </trkpt>
      <trkpt lat="48.081" lon="7.07945">
        <ele>888</ele>
        <time>2025-09-08T08:28:31Z</time>
      </trkpt>
      <trkpt lat="48.08102" lon="7.0795">
        <ele>887.6</ele>
        <time>2025-09-08T08:28:32Z</time>
      </trkpt>
      <trkpt lat="48.08103" lon="7.07955">
        <ele>886.8</ele>
        <time>2025-09-08T08:28:33Z</time>
      </trkpt>
      <trkpt lat="48.08105" lon="7.07958">
        <ele>886.2</ele>
        <time>2025-09-08T08:28:34Z</time>
      </trkpt>
      <trkpt lat="48.08109" lon="7.07961">
        <ele>885.6</ele>
        <time>2025-09-08T08:28:35Z</time>
      </trkpt>
      <trkpt lat="48.08112" lon="7.07963">
        <ele>884.6</ele>
        <time>2025-09-08T08:28:36Z</time>
      </trkpt>
      <trkpt lat="48.08114" lon="7.07965">
        <ele>883.8</ele>
        <time>2025-09-08T08:28:37Z</time>
      </trkpt>
      <trkpt lat="48.08117" lon="7.07967">
        <ele>882.8</ele>
        <time>2025-09-08T08:28:38Z</time>
      </trkpt>
      <trkpt lat="48.0812" lon="7.07971">
        <ele>882.4</ele>
        <time>2025-09-08T08:28:39Z</time>
      </trkpt>
      <trkpt lat="48.08124" lon="7.07975">
        <ele>881.8</ele>
        <time>2025-09-08T08:28:40Z</time>
      </trkpt>
      <trkpt lat="48.08127" lon="7.07982">
        <ele>881.4</ele>
        <time>2025-09-08T08:28:41Z</time>
      </trkpt>
      <trkpt lat="48.08131" lon="7.07987">
        <ele>880.8</ele>
        <time>2025-09-08T08:28:42Z</time>
      </trkpt>
      <trkpt lat="48.08135" lon="7.07991">
        <ele>879.6</ele>
        <time>2025-09-08T08:28:43Z</time>
      </trkpt>
      <trkpt lat="48.08138" lon="7.07997">
        <ele>878.6</ele>
        <time>2025-09-08T08:28:44Z</time>
      </trkpt>
      <trkpt lat="48.08139" lon="7.08002">
        <ele>877.6</ele>
        <time>2025-09-08T08:28:45Z</time>
      </trkpt>
      <trkpt lat="48.0814" lon="7.08008">
        <ele>876.6</ele>
        <time>2025-09-08T08:28:46Z</time>
      </trkpt>
      <trkpt lat="48.08142" lon="7.08015">
        <ele>875.8</ele>
        <time>2025-09-08T08:28:47Z</time>
      </trkpt>
      <trkpt lat="48.08142" lon="7.08022">
        <ele>875.4</ele>
        <time>2025-09-08T08:28:48Z</time>
      </trkpt>
      <trkpt lat="48.08143" lon="7.08027">
        <ele>874.6</ele>
        <time>2025-09-08T08:28:49Z</time>
      </trkpt>
      <trkpt lat="48.08145" lon="7.08032">
        <ele>873.4</ele>
        <time>2025-09-08T08:28:50Z</time>
      </trkpt>
      <trkpt lat="48.08147" lon="7.08036">
        <ele>872.6</ele>
        <time>2025-09-08T08:28:51Z</time>
      </trkpt>
      <trkpt lat="48.0815" lon="7.0804">
        <ele>871.8</ele>
        <time>2025-09-08T08:28:52Z</time>
      </trkpt>
      <trkpt lat="48.08154" lon="7.08043">
        <ele>871.2</ele>
        <time>2025-09-08T08:28:53Z</time>
      </trkpt>
      <trkpt lat="48.08158" lon="7.08044">
        <ele>871</ele>
        <time>2025-09-08T08:28:54Z</time>
      </trkpt>
      <trkpt lat="48.08161" lon="7.08042">
        <ele>869.8</ele>
        <time>2025-09-08T08:28:55Z</time>
      </trkpt>
      <trkpt lat="48.08165" lon="7.0804">
        <ele>869.2</ele>
        <time>2025-09-08T08:28:56Z</time>
      </trkpt>
      <trkpt lat="48.08167" lon="7.0804">
        <ele>868.6</ele>
        <time>2025-09-08T08:28:57Z</time>
      </trkpt>
      <trkpt lat="48.08169" lon="7.0804">
        <ele>868.2</ele>
        <time>2025-09-08T08:28:58Z</time>
      </trkpt>
      <trkpt lat="48.08171" lon="7.08042">
        <ele>867.2</ele>
        <time>2025-09-08T08:28:59Z</time>
      </trkpt>
      <trkpt lat="48.08173" lon="7.08045">
        <ele>866.8</ele>
        <time>2025-09-08T08:29:00Z</time>
      </trkpt>
      <trkpt lat="48.08174" lon="7.08048">
        <ele>866.6</ele>
        <time>2025-09-08T08:29:01Z</time>
      </trkpt>
      <trkpt lat="48.08175" lon="7.08051">
        <ele>866.4</ele>
        <time>2025-09-08T08:29:02Z</time>
      </trkpt>
      <trkpt lat="48.08177" lon="7.08055">
        <ele>865.6</ele>
        <time>2025-09-08T08:29:03Z</time>
      </trkpt>
      <trkpt lat="48.08178" lon="7.08058">
        <ele>865</ele>
        <time>2025-09-08T08:29:04Z</time>
      </trkpt>
      <trkpt lat="48.08178" lon="7.08058">
        <ele>864.4</ele>
        <time>2025-09-08T08:29:05Z</time>
      </trkpt>
      <trkpt lat="48.08179" lon="7.08061">
        <ele>863.2</ele>
        <time>2025-09-08T08:29:06Z</time>
      </trkpt>
      <trkpt lat="48.0818" lon="7.0806">
        <ele>857.4</ele>
        <time>2025-09-08T08:31:04Z</time>
      </trkpt>
      <trkpt lat="48.08181" lon="7.08057">
        <ele>857.6</ele>
        <time>2025-09-08T08:31:05Z</time>
      </trkpt>
      <trkpt lat="48.08182" lon="7.08054">
        <ele>858</ele>
        <time>2025-09-08T08:31:06Z</time>
      </trkpt>
      <trkpt lat="48.08183" lon="7.08052">
        <ele>858.4</ele>
        <time>2025-09-08T08:31:07Z</time>
      </trkpt>
      <trkpt lat="48.08184" lon="7.08052">
        <ele>858.6</ele>
        <time>2025-09-08T08:31:08Z</time>
      </trkpt>
      <trkpt lat="48.08184" lon="7.08052">
        <ele>859</ele>
        <time>2025-09-08T08:31:09Z</time>
      </trkpt>
      <trkpt lat="48.08185" lon="7.08052">
        <ele>859.2</ele>
        <time>2025-09-08T08:31:10Z</time>
      </trkpt>
      <trkpt lat="48.08187" lon="7.08054">
        <ele>860.2</ele>
        <time>2025-09-08T08:31:37Z</time>
      </trkpt>
      <trkpt lat="48.08188" lon="7.08057">
        <ele>860.2</ele>
        <time>2025-09-08T08:31:38Z</time>
      </trkpt>
      <trkpt lat="48.08187" lon="7.08061">
        <ele>860</ele>
        <time>2025-09-08T08:31:39Z</time>
      </trkpt>
      <trkpt lat="48.08186" lon="7.08065">
        <ele>859.8</ele>
        <time>2025-09-08T08:31:40Z</time>
      </trkpt>
      <trkpt lat="48.08184" lon="7.0807">
        <ele>859.4</ele>
        <time>2025-09-08T08:31:41Z</time>
      </trkpt>
      <trkpt lat="48.08183" lon="7.08076">
        <ele>858.8</ele>
        <time>2025-09-08T08:31:42Z</time>
      </trkpt>
      <trkpt lat="48.0818" lon="7.08081">
        <ele>858.4</ele>
        <time>2025-09-08T08:31:43Z</time>
      </trkpt>
      <trkpt lat="48.08177" lon="7.08087">
        <ele>857.4</ele>
        <time>2025-09-08T08:31:44Z</time>
      </trkpt>
      <trkpt lat="48.08174" lon="7.08093">
        <ele>856.8</ele>
        <time>2025-09-08T08:31:45Z</time>
      </trkpt>
      <trkpt lat="48.08173" lon="7.08099">
        <ele>856.2</ele>
        <time>2025-09-08T08:31:46Z</time>
      </trkpt>
      <trkpt lat="48.08172" lon="7.08104">
        <ele>855.4</ele>
        <time>2025-09-08T08:31:47Z</time>
      </trkpt>
      <trkpt lat="48.08171" lon="7.0811">
        <ele>854.8</ele>
        <time>2025-09-08T08:31:48Z</time>
      </trkpt>
      <trkpt lat="48.0817" lon="7.08117">
        <ele>853.2</ele>
        <time>2025-09-08T08:31:49Z</time>
      </trkpt>
      <trkpt lat="48.08171" lon="7.08123">
        <ele>852.8</ele>
        <time>2025-09-08T08:31:50Z</time>
      </trkpt>
      <trkpt lat="48.08172" lon="7.08129">
        <ele>852.2</ele>
        <time>2025-09-08T08:31:51Z</time>
      </trkpt>
      <trkpt lat="48.08172" lon="7.08135">
        <ele>851.6</ele>
        <time>2025-09-08T08:31:52Z</time>
      </trkpt>
      <trkpt lat="48.08172" lon="7.08141">
        <ele>851</ele>
        <time>2025-09-08T08:31:53Z</time>
      </trkpt>
      <trkpt lat="48.08171" lon="7.08147">
        <ele>850.6</ele>
        <time>2025-09-08T08:31:54Z</time>
      </trkpt>
      <trkpt lat="48.0817" lon="7.08152">
        <ele>849.6</ele>
        <time>2025-09-08T08:31:55Z</time>
      </trkpt>
      <trkpt lat="48.0817" lon="7.08158">
        <ele>849.2</ele>
        <time>2025-09-08T08:31:56Z</time>
      </trkpt>
      <trkpt lat="48.08169" lon="7.08164">
        <ele>848.8</ele>
        <time>2025-09-08T08:31:57Z</time>
      </trkpt>
      <trkpt lat="48.08169" lon="7.08171">
        <ele>848</ele>
        <time>2025-09-08T08:31:58Z</time>
      </trkpt>
      <trkpt lat="48.08168" lon="7.08178">
        <ele>847.4</ele>
        <time>2025-09-08T08:31:59Z</time>
      </trkpt>
      <trkpt lat="48.08168" lon="7.08184">
        <ele>846.8</ele>
        <time>2025-09-08T08:32:00Z</time>
      </trkpt>
      <trkpt lat="48.08167" lon="7.0819">
        <ele>845.6</ele>
        <time>2025-09-08T08:32:01Z</time>
      </trkpt>
      <trkpt lat="48.08167" lon="7.08196">
        <ele>844.6</ele>
        <time>2025-09-08T08:32:02Z</time>
      </trkpt>
      <trkpt lat="48.08166" lon="7.08201">
        <ele>844.2</ele>
        <time>2025-09-08T08:32:03Z</time>
      </trkpt>
      <trkpt lat="48.08166" lon="7.08208">
        <ele>843.6</ele>
        <time>2025-09-08T08:32:04Z</time>
      </trkpt>
      <trkpt lat="48.08165" lon="7.08213">
        <ele>843.2</ele>
        <time>2025-09-08T08:32:05Z</time>
      </trkpt>
      <trkpt lat="48.08166" lon="7.08219">
        <ele>842</ele>
        <time>2025-09-08T08:32:06Z</time>
      </trkpt>
      <trkpt lat="48.08165" lon="7.08225">
        <ele>841</ele>
        <time>2025-09-08T08:32:07Z</time>
      </trkpt>
      <trkpt lat="48.08165" lon="7.0823">
        <ele>840.4</ele>
        <time>2025-09-08T08:32:08Z</time>
      </trkpt>
      <trkpt lat="48.08166" lon="7.08235">
        <ele>840.2</ele>
        <time>2025-09-08T08:32:09Z</time>
      </trkpt>
      <trkpt lat="48.08166" lon="7.08238">
        <ele>839.4</ele>
        <time>2025-09-08T08:32:10Z</time>
      </trkpt>
      <trkpt lat="48.08166" lon="7.0824">
        <ele>838.6</ele>
        <time>2025-09-08T08:32:11Z</time>
      </trkpt>
      <trkpt lat="48.08166" lon="7.08242">
        <ele>838.2</ele>
        <time>2025-09-08T08:32:12Z</time>
      </trkpt>
      <trkpt lat="48.08167" lon="7.08242">
        <ele>837.6</ele>
        <time>2025-09-08T08:32:13Z</time>
      </trkpt>
      <trkpt lat="48.08168" lon="7.08241">
        <ele>837.4</ele>
        <time>2025-09-08T08:32:14Z</time>
      </trkpt>
      <trkpt lat="48.0817" lon="7.0824">
        <ele>837</ele>
        <time>2025-09-08T08:32:15Z</time>
      </trkpt>
      <trkpt lat="48.08172" lon="7.08238">
        <ele>836.8</ele>
        <time>2025-09-08T08:32:16Z</time>
      </trkpt>
      <trkpt lat="48.08173" lon="7.08236">
        <ele>836.4</ele>
        <time>2025-09-08T08:32:17Z</time>
      </trkpt>
      <trkpt lat="48.08175" lon="7.08235">
        <ele>835.8</ele>
        <time>2025-09-08T08:32:18Z</time>
      </trkpt>
      <trkpt lat="48.08177" lon="7.08237">
        <ele>835.4</ele>
        <time>2025-09-08T08:32:19Z</time>
      </trkpt>
      <trkpt lat="48.08178" lon="7.08241">
        <ele>835</ele>
        <time>2025-09-08T08:32:20Z</time>
      </trkpt>
      <trkpt lat="48.08177" lon="7.08245">
        <ele>834.6</ele>
        <time>2025-09-08T08:32:21Z</time>
      </trkpt>
      <trkpt lat="48.08178" lon="7.08249">
        <ele>834.2</ele>
        <time>2025-09-08T08:32:22Z</time>
      </trkpt>
      <trkpt lat="48.08179" lon="7.08254">
        <ele>833.4</ele>
        <time>2025-09-08T08:32:23Z</time>
      </trkpt>
      <trkpt lat="48.08179" lon="7.08259">
        <ele>833</ele>
        <time>2025-09-08T08:32:24Z</time>
      </trkpt>
      <trkpt lat="48.08178" lon="7.08267">
        <ele>832.6</ele>
        <time>2025-09-08T08:32:25Z</time>
      </trkpt>
      <trkpt lat="48.08178" lon="7.08273">
        <ele>832</ele>
        <time>2025-09-08T08:32:26Z</time>
      </trkpt>
      <trkpt lat="48.08178" lon="7.08279">
        <ele>831.2</ele>
        <time>2025-09-08T08:32:27Z</time>
      </trkpt>
      <trkpt lat="48.08177" lon="7.08286">
        <ele>830.2</ele>
        <time>2025-09-08T08:32:28Z</time>
      </trkpt>
      <trkpt lat="48.08177" lon="7.08291">
        <ele>829.2</ele>
        <time>2025-09-08T08:32:29Z</time>
      </trkpt>
      <trkpt lat="48.08176" lon="7.08297">
        <ele>828</ele>
        <time>2025-09-08T08:32:30Z</time>
      </trkpt>
      <trkpt lat="48.08175" lon="7.08303">
        <ele>827</ele>
        <time>2025-09-08T08:32:31Z</time>
      </trkpt>
      <trkpt lat="48.08174" lon="7.08308">
        <ele>826.6</ele>
        <time>2025-09-08T08:32:32Z</time>
      </trkpt>
      <trkpt lat="48.08173" lon="7.08311">
        <ele>825.8</ele>
        <time>2025-09-08T08:32:33Z</time>
      </trkpt>
      <trkpt lat="48.08172" lon="7.08314">
        <ele>825</ele>
        <time>2025-09-08T08:32:34Z</time>
      </trkpt>
      <trkpt lat="48.08172" lon="7.08318">
        <ele>824.6</ele>
        <time>2025-09-08T08:32:35Z</time>
      </trkpt>
      <trkpt lat="48.08174" lon="7.08319">
        <ele>824.2</ele>
        <time>2025-09-08T08:32:36Z</time>
      </trkpt>
      <trkpt lat="48.08175" lon="7.08318">
        <ele>823.8</ele>
        <time>2025-09-08T08:32:37Z</time>
      </trkpt>
      <trkpt lat="48.08177" lon="7.08317">
        <ele>823.4</ele>
        <time>2025-09-08T08:32:38Z</time>
      </trkpt>
      <trkpt lat="48.08178" lon="7.08314">
        <ele>822.8</ele>
        <time>2025-09-08T08:32:39Z</time>
      </trkpt>
      <trkpt lat="48.0818" lon="7.08312">
        <ele>822.4</ele>
        <time>2025-09-08T08:32:40Z</time>
      </trkpt>
      <trkpt lat="48.08181" lon="7.08309">
        <ele>821.8</ele>
        <time>2025-09-08T08:32:41Z</time>
      </trkpt>
      <trkpt lat="48.08182" lon="7.08308">
        <ele>821.2</ele>
        <time>2025-09-08T08:32:42Z</time>
      </trkpt>
      <trkpt lat="48.08183" lon="7.08307">
        <ele>820.8</ele>
        <time>2025-09-08T08:32:43Z</time>
      </trkpt>
      <trkpt lat="48.08184" lon="7.08306">
        <ele>820.6</ele>
        <time>2025-09-08T08:32:44Z</time>
      </trkpt>
      <trkpt lat="48.08186" lon="7.08303">
        <ele>820.4</ele>
        <time>2025-09-08T08:32:45Z</time>
      </trkpt>
      <trkpt lat="48.08188" lon="7.083">
        <ele>820.4</ele>
        <time>2025-09-08T08:32:46Z</time>
      </trkpt>
      <trkpt lat="48.08189" lon="7.08296">
        <ele>820</ele>
        <time>2025-09-08T08:32:47Z</time>
      </trkpt>
      <trkpt lat="48.08191" lon="7.08293">
        <ele>819.8</ele>
        <time>2025-09-08T08:32:48Z</time>
      </trkpt>
      <trkpt lat="48.08193" lon="7.08289">
        <ele>819.6</ele>
        <time>2025-09-08T08:32:49Z</time>
      </trkpt>
      <trkpt lat="48.08195" lon="7.08285">
        <ele>819.2</ele>
        <time>2025-09-08T08:32:50Z</time>
      </trkpt>
      <trkpt lat="48.08196" lon="7.08282">
        <ele>818.6</ele>
        <time>2025-09-08T08:32:51Z</time>
      </trkpt>
      <trkpt lat="48.08198" lon="7.0828">
        <ele>818.2</ele>
        <time>2025-09-08T08:32:52Z</time>
      </trkpt>
      <trkpt lat="48.082" lon="7.0828">
        <ele>817.6</ele>
        <time>2025-09-08T08:32:53Z</time>
      </trkpt>
      <trkpt lat="48.08202" lon="7.08279">
        <ele>817.2</ele>
        <time>2025-09-08T08:32:54Z</time>
      </trkpt>
      <trkpt lat="48.08202" lon="7.08281">
        <ele>817.2</ele>
        <time>2025-09-08T08:32:55Z</time>
      </trkpt>
      <trkpt lat="48.08203" lon="7.08283">
        <ele>817</ele>
        <time>2025-09-08T08:32:56Z</time>
      </trkpt>
      <trkpt lat="48.08203" lon="7.08286">
        <ele>817</ele>
        <time>2025-09-08T08:32:57Z</time>
      </trkpt>
      <trkpt lat="48.08204" lon="7.08289">
        <ele>816.8</ele>
        <time>2025-09-08T08:32:58Z</time>
      </trkpt>
      <trkpt lat="48.08205" lon="7.08292">
        <ele>816.8</ele>
        <time>2025-09-08T08:32:59Z</time>
      </trkpt>
      <trkpt lat="48.08206" lon="7.08294">
        <ele>816.8</ele>
        <time>2025-09-08T08:33:00Z</time>
      </trkpt>
      <trkpt lat="48.08206" lon="7.08294">
        <ele>817</ele>
        <time>2025-09-08T08:33:01Z</time>
      </trkpt>
      <trkpt lat="48.08207" lon="7.08295">
        <ele>817</ele>
        <time>2025-09-08T08:33:02Z</time>
      </trkpt>
      <trkpt lat="48.08208" lon="7.08305">
        <ele>817.2</ele>
        <time>2025-09-08T08:34:17Z</time>
      </trkpt>
      <trkpt lat="48.08208" lon="7.0831">
        <ele>817.4</ele>
        <time>2025-09-08T08:34:18Z</time>
      </trkpt>
      <trkpt lat="48.08207" lon="7.08316">
        <ele>817.4</ele>
        <time>2025-09-08T08:34:19Z</time>
      </trkpt>
      <trkpt lat="48.08207" lon="7.08323">
        <ele>817.2</ele>
        <time>2025-09-08T08:34:20Z</time>
      </trkpt>
      <trkpt lat="48.08207" lon="7.0833">
        <ele>816.8</ele>
        <time>2025-09-08T08:34:21Z</time>
      </trkpt>
      <trkpt lat="48.08207" lon="7.08339">
        <ele>816.6</ele>
        <time>2025-09-08T08:34:22Z</time>
      </trkpt>
      <trkpt lat="48.08207" lon="7.08349">
        <ele>816.2</ele>
        <time>2025-09-08T08:34:23Z</time>
      </trkpt>
      <trkpt lat="48.08208" lon="7.08359">
        <ele>815.8</ele>
        <time>2025-09-08T08:34:24Z</time>
      </trkpt>
      <trkpt lat="48.08208" lon="7.08369">
        <ele>815</ele>
        <time>2025-09-08T08:34:25Z</time>
      </trkpt>
      <trkpt lat="48.08209" lon="7.08379">
        <ele>814</ele>
        <time>2025-09-08T08:34:26Z</time>
      </trkpt>
      <trkpt lat="48.08209" lon="7.08388">
        <ele>813.6</ele>
        <time>2025-09-08T08:34:27Z</time>
      </trkpt>
      <trkpt lat="48.0821" lon="7.08398">
        <ele>813</ele>
        <time>2025-09-08T08:34:28Z</time>
      </trkpt>
      <trkpt lat="48.0821" lon="7.08407">
        <ele>812</ele>
        <time>2025-09-08T08:34:29Z</time>
      </trkpt>
      <trkpt lat="48.08211" lon="7.08416">
        <ele>811.2</ele>
        <time>2025-09-08T08:34:30Z</time>
      </trkpt>
      <trkpt lat="48.08211" lon="7.08425">
        <ele>810.4</ele>
        <time>2025-09-08T08:34:31Z</time>
      </trkpt>
      <trkpt lat="48.08212" lon="7.08434">
        <ele>810.4</ele>
        <time>2025-09-08T08:34:32Z</time>
      </trkpt>
      <trkpt lat="48.08213" lon="7.08442">
        <ele>809.4</ele>
        <time>2025-09-08T08:34:33Z</time>
      </trkpt>
      <trkpt lat="48.08214" lon="7.08451">
        <ele>808.4</ele>
        <time>2025-09-08T08:34:34Z</time>
      </trkpt>
      <trkpt lat="48.08215" lon="7.08459">
        <ele>808</ele>
        <time>2025-09-08T08:34:35Z</time>
      </trkpt>
      <trkpt lat="48.08217" lon="7.08468">
        <ele>807.2</ele>
        <time>2025-09-08T08:34:36Z</time>
      </trkpt>
      <trkpt lat="48.08218" lon="7.08478">
        <ele>806.8</ele>
        <time>2025-09-08T08:34:37Z</time>
      </trkpt>
      <trkpt lat="48.08218" lon="7.08489">
        <ele>806.2</ele>
        <time>2025-09-08T08:34:38Z</time>
      </trkpt>
      <trkpt lat="48.08219" lon="7.085">
        <ele>805.4</ele>
        <time>2025-09-08T08:34:39Z</time>
      </trkpt>
      <trkpt lat="48.08219" lon="7.08512">
        <ele>804.6</ele>
        <time>2025-09-08T08:34:40Z</time>
      </trkpt>
      <trkpt lat="48.08219" lon="7.08524">
        <ele>803.8</ele>
        <time>2025-09-08T08:34:41Z</time>
      </trkpt>
      <trkpt lat="48.08219" lon="7.08535">
        <ele>802.4</ele>
        <time>2025-09-08T08:34:42Z</time>
      </trkpt>
      <trkpt lat="48.08219" lon="7.08546">
        <ele>801.8</ele>
        <time>2025-09-08T08:34:43Z</time>
      </trkpt>
      <trkpt lat="48.08218" lon="7.08554">
        <ele>801</ele>
        <time>2025-09-08T08:34:44Z</time>
      </trkpt>
      <trkpt lat="48.08217" lon="7.0856">
        <ele>800.2</ele>
        <time>2025-09-08T08:34:45Z</time>
      </trkpt>
      <trkpt lat="48.08215" lon="7.08564">
        <ele>799</ele>
        <time>2025-09-08T08:34:46Z</time>
      </trkpt>
      <trkpt lat="48.08213" lon="7.08566">
        <ele>798.8</ele>
        <time>2025-09-08T08:34:47Z</time>
      </trkpt>
      <trkpt lat="48.08211" lon="7.08566">
        <ele>798.6</ele>
        <time>2025-09-08T08:34:48Z</time>
      </trkpt>
      <trkpt lat="48.08209" lon="7.08566">
        <ele>798.4</ele>
        <time>2025-09-08T08:34:49Z</time>
      </trkpt>
      <trkpt lat="48.08206" lon="7.08568">
        <ele>798.2</ele>
        <time>2025-09-08T08:34:50Z</time>
      </trkpt>
      <trkpt lat="48.08204" lon="7.08571">
        <ele>798.2</ele>
        <time>2025-09-08T08:34:51Z</time>
      </trkpt>
      <trkpt lat="48.08204" lon="7.08576">
        <ele>797.8</ele>
        <time>2025-09-08T08:34:52Z</time>
      </trkpt>
      <trkpt lat="48.08203" lon="7.08581">
        <ele>797.2</ele>
        <time>2025-09-08T08:34:53Z</time>
      </trkpt>
      <trkpt lat="48.08202" lon="7.08586">
        <ele>796.2</ele>
        <time>2025-09-08T08:34:54Z</time>
      </trkpt>
      <trkpt lat="48.08201" lon="7.08592">
        <ele>796</ele>
        <time>2025-09-08T08:34:55Z</time>
      </trkpt>
      <trkpt lat="48.08201" lon="7.08598">
        <ele>795.6</ele>
        <time>2025-09-08T08:34:56Z</time>
      </trkpt>
      <trkpt lat="48.082" lon="7.08605">
        <ele>794.6</ele>
        <time>2025-09-08T08:34:57Z</time>
      </trkpt>
      <trkpt lat="48.08198" lon="7.08611">
        <ele>794</ele>
        <time>2025-09-08T08:34:58Z</time>
      </trkpt>
      <trkpt lat="48.08197" lon="7.08618">
        <ele>793.6</ele>
        <time>2025-09-08T08:34:59Z</time>
      </trkpt>
      <trkpt lat="48.08196" lon="7.08626">
        <ele>792.8</ele>
        <time>2025-09-08T08:35:00Z</time>
      </trkpt>
      <trkpt lat="48.08194" lon="7.08632">
        <ele>792.2</ele>
        <time>2025-09-08T08:35:01Z</time>
      </trkpt>
      <trkpt lat="48.08192" lon="7.08637">
        <ele>791.8</ele>
        <time>2025-09-08T08:35:02Z</time>
      </trkpt>
      <trkpt lat="48.0819" lon="7.08644">
        <ele>791.2</ele>
        <time>2025-09-08T08:35:03Z</time>
      </trkpt>
      <trkpt lat="48.08189" lon="7.0865">
        <ele>790.6</ele>
        <time>2025-09-08T08:35:04Z</time>
      </trkpt>
      <trkpt lat="48.0819" lon="7.08656">
        <ele>790</ele>
        <time>2025-09-08T08:35:05Z</time>
      </trkpt>
      <trkpt lat="48.08189" lon="7.08662">
        <ele>789.6</ele>
        <time>2025-09-08T08:35:06Z</time>
      </trkpt>
      <trkpt lat="48.08189" lon="7.08668">
        <ele>789.2</ele>
        <time>2025-09-08T08:35:07Z</time>
      </trkpt>
      <trkpt lat="48.08188" lon="7.08674">
        <ele>788.4</ele>
        <time>2025-09-08T08:35:08Z</time>
      </trkpt>
      <trkpt lat="48.08188" lon="7.0868">
        <ele>787.6</ele>
        <time>2025-09-08T08:35:09Z</time>
      </trkpt>
      <trkpt lat="48.08188" lon="7.08684">
        <ele>787.2</ele>
        <time>2025-09-08T08:35:10Z</time>
      </trkpt>
      <trkpt lat="48.08187" lon="7.0869">
        <ele>786.8</ele>
        <time>2025-09-08T08:35:11Z</time>
      </trkpt>
      <trkpt lat="48.08187" lon="7.08694">
        <ele>786.4</ele>
        <time>2025-09-08T08:35:12Z</time>
      </trkpt>
      <trkpt lat="48.08186" lon="7.08699">
        <ele>786</ele>
        <time>2025-09-08T08:35:13Z</time>
      </trkpt>
      <trkpt lat="48.08185" lon="7.08703">
        <ele>785.6</ele>
        <time>2025-09-08T08:35:14Z</time>
      </trkpt>
      <trkpt lat="48.08183" lon="7.08707">
        <ele>784.8</ele>
        <time>2025-09-08T08:35:15Z</time>
      </trkpt>
      <trkpt lat="48.08182" lon="7.08713">
        <ele>784.6</ele>
        <time>2025-09-08T08:35:16Z</time>
      </trkpt>
      <trkpt lat="48.08182" lon="7.08718">
        <ele>784</ele>
        <time>2025-09-08T08:35:17Z</time>
      </trkpt>
      <trkpt lat="48.08181" lon="7.08723">
        <ele>783.4</ele>
        <time>2025-09-08T08:35:18Z</time>
      </trkpt>
      <trkpt lat="48.08182" lon="7.08728">
        <ele>782.8</ele>
        <time>2025-09-08T08:35:19Z</time>
      </trkpt>
      <trkpt lat="48.08182" lon="7.08734">
        <ele>782</ele>
        <time>2025-09-08T08:35:20Z</time>
      </trkpt>
      <trkpt lat="48.08181" lon="7.08738">
        <ele>781.4</ele>
        <time>2025-09-08T08:35:21Z</time>
      </trkpt>
      <trkpt lat="48.0818" lon="7.08743">
        <ele>781</ele>
        <time>2025-09-08T08:35:22Z</time>
      </trkpt>
      <trkpt lat="48.08179" lon="7.08748">
        <ele>780.6</ele>
        <time>2025-09-08T08:35:23Z</time>
      </trkpt>
      <trkpt lat="48.0818" lon="7.08752">
        <ele>779.8</ele>
        <time>2025-09-08T08:35:24Z</time>
      </trkpt>
      <trkpt lat="48.08181" lon="7.08757">
        <ele>779.2</ele>
        <time>2025-09-08T08:35:25Z</time>
      </trkpt>
      <trkpt lat="48.08181" lon="7.08759">
        <ele>778.6</ele>
        <time>2025-09-08T08:35:26Z</time>
      </trkpt>
      <trkpt lat="48.08181" lon="7.08763">
        <ele>778.4</ele>
        <time>2025-09-08T08:35:27Z</time>
      </trkpt>
      <trkpt lat="48.08181" lon="7.08768">
        <ele>777.8</ele>
        <time>2025-09-08T08:35:28Z</time>
      </trkpt>
      <trkpt lat="48.08182" lon="7.08773">
        <ele>777.4</ele>
        <time>2025-09-08T08:35:29Z</time>
      </trkpt>
      <trkpt lat="48.08183" lon="7.0878">
        <ele>777.2</ele>
        <time>2025-09-08T08:35:30Z</time>
      </trkpt>
      <trkpt lat="48.08184" lon="7.08786">
        <ele>776.6</ele>
        <time>2025-09-08T08:35:31Z</time>
      </trkpt>
      <trkpt lat="48.08184" lon="7.08792">
        <ele>775.8</ele>
        <time>2025-09-08T08:35:32Z</time>
      </trkpt>
      <trkpt lat="48.08186" lon="7.08798">
        <ele>775.6</ele>
        <time>2025-09-08T08:35:33Z</time>
      </trkpt>
      <trkpt lat="48.08186" lon="7.08803">
        <ele>775</ele>
        <time>2025-09-08T08:35:34Z</time>
      </trkpt>
      <trkpt lat="48.08186" lon="7.08808">
        <ele>774.4</ele>
        <time>2025-09-08T08:35:35Z</time>
      </trkpt>
      <trkpt lat="48.08185" lon="7.08812">
        <ele>773.6</ele>
        <time>2025-09-08T08:35:36Z</time>
      </trkpt>
      <trkpt lat="48.08186" lon="7.08816">
        <ele>773.2</ele>
        <time>2025-09-08T08:35:37Z</time>
      </trkpt>
      <trkpt lat="48.08187" lon="7.08822">
        <ele>773</ele>
        <time>2025-09-08T08:35:38Z</time>
      </trkpt>
      <trkpt lat="48.08188" lon="7.08828">
        <ele>772.4</ele>
        <time>2025-09-08T08:35:39Z</time>
      </trkpt>
      <trkpt lat="48.0819" lon="7.08834">
        <ele>772</ele>
        <time>2025-09-08T08:35:40Z</time>
      </trkpt>
      <trkpt lat="48.08191" lon="7.08839">
        <ele>771.2</ele>
        <time>2025-09-08T08:35:41Z</time>
      </trkpt>
      <trkpt lat="48.08191" lon="7.08843">
        <ele>770.6</ele>
        <time>2025-09-08T08:35:42Z</time>
      </trkpt>
      <trkpt lat="48.0819" lon="7.08846">
        <ele>769.4</ele>
        <time>2025-09-08T08:35:43Z</time>
      </trkpt>
      <trkpt lat="48.08189" lon="7.08849">
        <ele>769</ele>
        <time>2025-09-08T08:35:44Z</time>
      </trkpt>
      <trkpt lat="48.0819" lon="7.08853">
        <ele>768.6</ele>
        <time>2025-09-08T08:35:45Z</time>
      </trkpt>
      <trkpt lat="48.08191" lon="7.08857">
        <ele>768.2</ele>
        <time>2025-09-08T08:35:46Z</time>
      </trkpt>
      <trkpt lat="48.08193" lon="7.0886">
        <ele>767.8</ele>
        <time>2025-09-08T08:35:47Z</time>
      </trkpt>
      <trkpt lat="48.08195" lon="7.08865">
        <ele>767.2</ele>
        <time>2025-09-08T08:35:48Z</time>
      </trkpt>
      <trkpt lat="48.08197" lon="7.08869">
        <ele>767</ele>
        <time>2025-09-08T08:35:49Z</time>
      </trkpt>
      <trkpt lat="48.08199" lon="7.08872">
        <ele>766</ele>
        <time>2025-09-08T08:35:50Z</time>
      </trkpt>
      <trkpt lat="48.082" lon="7.08875">
        <ele>765.4</ele>
        <time>2025-09-08T08:35:51Z</time>
      </trkpt>
      <trkpt lat="48.08201" lon="7.0888">
        <ele>764.8</ele>
        <time>2025-09-08T08:35:52Z</time>
      </trkpt>
      <trkpt lat="48.08201" lon="7.08883">
        <ele>764.6</ele>
        <time>2025-09-08T08:35:53Z</time>
      </trkpt>
      <trkpt lat="48.08202" lon="7.08886">
        <ele>764.2</ele>
        <time>2025-09-08T08:35:54Z</time>
      </trkpt>
      <trkpt lat="48.08202" lon="7.0889">
        <ele>763.6</ele>
        <time>2025-09-08T08:35:55Z</time>
      </trkpt>
      <trkpt lat="48.08202" lon="7.08892">
        <ele>763.2</ele>
        <time>2025-09-08T08:35:56Z</time>
      </trkpt>
      <trkpt lat="48.08201" lon="7.08894">
        <ele>762.8</ele>
        <time>2025-09-08T08:35:57Z</time>
      </trkpt>
      <trkpt lat="48.08201" lon="7.08897">
        <ele>762.2</ele>
        <time>2025-09-08T08:35:58Z</time>
      </trkpt>
      <trkpt lat="48.08201" lon="7.089">
        <ele>762</ele>
        <time>2025-09-08T08:35:59Z</time>
      </trkpt>
      <trkpt lat="48.08203" lon="7.08902">
        <ele>761.2</ele>
        <time>2025-09-08T08:36:00Z</time>
      </trkpt>
      <trkpt lat="48.08203" lon="7.08904">
        <ele>760.8</ele>
        <time>2025-09-08T08:36:01Z</time>
      </trkpt>
      <trkpt lat="48.08203" lon="7.08907">
        <ele>760.4</ele>
        <time>2025-09-08T08:36:02Z</time>
      </trkpt>
      <trkpt lat="48.08202" lon="7.08911">
        <ele>760</ele>
        <time>2025-09-08T08:36:03Z</time>
      </trkpt>
      <trkpt lat="48.08202" lon="7.08917">
        <ele>759.6</ele>
        <time>2025-09-08T08:36:04Z</time>
      </trkpt>
      <trkpt lat="48.08201" lon="7.08922">
        <ele>759.2</ele>
        <time>2025-09-08T08:36:05Z</time>
      </trkpt>
      <trkpt lat="48.08199" lon="7.0893">
        <ele>758.8</ele>
        <time>2025-09-08T08:36:06Z</time>
      </trkpt>
      <trkpt lat="48.08198" lon="7.08933">
        <ele>758.2</ele>
        <time>2025-09-08T08:36:07Z</time>
      </trkpt>
      <trkpt lat="48.08198" lon="7.08937">
        <ele>757</ele>
        <time>2025-09-08T08:36:08Z</time>
      </trkpt>
      <trkpt lat="48.08199" lon="7.08941">
        <ele>756</ele>
        <time>2025-09-08T08:36:09Z</time>
      </trkpt>
      <trkpt lat="48.08201" lon="7.08945">
        <ele>755.6</ele>
        <time>2025-09-08T08:36:10Z</time>
      </trkpt>
      <trkpt lat="48.08202" lon="7.0895">
        <ele>755.2</ele>
        <time>2025-09-08T08:36:11Z</time>
      </trkpt>
      <trkpt lat="48.08204" lon="7.08954">
        <ele>754.8</ele>
        <time>2025-09-08T08:36:12Z</time>
      </trkpt>
      <trkpt lat="48.08207" lon="7.08959">
        <ele>754</ele>
        <time>2025-09-08T08:36:13Z</time>
      </trkpt>
      <trkpt lat="48.08211" lon="7.08964">
        <ele>753.6</ele>
        <time>2025-09-08T08:36:14Z</time>
      </trkpt>
      <trkpt lat="48.08214" lon="7.08969">
        <ele>753.2</ele>
        <time>2025-09-08T08:36:15Z</time>
      </trkpt>
      <trkpt lat="48.08217" lon="7.08973">
        <ele>752.6</ele>
        <time>2025-09-08T08:36:16Z</time>
      </trkpt>
      <trkpt lat="48.0822" lon="7.08977">
        <ele>751.8</ele>
        <time>2025-09-08T08:36:17Z</time>
      </trkpt>
      <trkpt lat="48.08223" lon="7.08982">
        <ele>751.4</ele>
        <time>2025-09-08T08:36:18Z</time>
      </trkpt>
      <trkpt lat="48.08227" lon="7.08987">
        <ele>751</ele>
        <time>2025-09-08T08:36:19Z</time>
      </trkpt>
      <trkpt lat="48.08231" lon="7.08993">
        <ele>750.6</ele>
        <time>2025-09-08T08:36:20Z</time>
      </trkpt>
      <trkpt lat="48.08235" lon="7.08999">
        <ele>750</ele>
        <time>2025-09-08T08:36:21Z</time>
      </trkpt>
      <trkpt lat="48.08239" lon="7.09004">
        <ele>749.6</ele>
        <time>2025-09-08T08:36:22Z</time>
      </trkpt>
      <trkpt lat="48.08243" lon="7.09011">
        <ele>749</ele>
        <time>2025-09-08T08:36:23Z</time>
      </trkpt>
      <trkpt lat="48.08246" lon="7.09017">
        <ele>748.4</ele>
        <time>2025-09-08T08:36:24Z</time>
      </trkpt>
      <trkpt lat="48.0825" lon="7.09023">
        <ele>747.8</ele>
        <time>2025-09-08T08:36:25Z</time>
      </trkpt>
      <trkpt lat="48.08254" lon="7.09028">
        <ele>747</ele>
        <time>2025-09-08T08:36:26Z</time>
      </trkpt>
      <trkpt lat="48.08259" lon="7.09032">
        <ele>746.2</ele>
        <time>2025-09-08T08:36:27Z</time>
      </trkpt>
      <trkpt lat="48.08264" lon="7.09033">
        <ele>746</ele>
        <time>2025-09-08T08:36:28Z</time>
      </trkpt>
      <trkpt lat="48.0827" lon="7.09032">
        <ele>745.4</ele>
        <time>2025-09-08T08:36:29Z</time>
      </trkpt>
      <trkpt lat="48.08276" lon="7.09029">
        <ele>744.8</ele>
        <time>2025-09-08T08:36:30Z</time>
      </trkpt>
      <trkpt lat="48.08282" lon="7.09027">
        <ele>744.2</ele>
        <time>2025-09-08T08:36:31Z</time>
      </trkpt>
      <trkpt lat="48.08289" lon="7.09024">
        <ele>743.4</ele>
        <time>2025-09-08T08:36:32Z</time>
      </trkpt>
      <trkpt lat="48.08296" lon="7.09021">
        <ele>742.4</ele>
        <time>2025-09-08T08:36:33Z</time>
      </trkpt>
      <trkpt lat="48.08302" lon="7.09019">
        <ele>741.8</ele>
        <time>2025-09-08T08:36:34Z</time>
      </trkpt>
      <trkpt lat="48.08308" lon="7.09016">
        <ele>741</ele>
        <time>2025-09-08T08:36:35Z</time>
      </trkpt>
      <trkpt lat="48.08313" lon="7.09014">
        <ele>740.2</ele>
        <time>2025-09-08T08:36:36Z</time>
      </trkpt>
      <trkpt lat="48.08318" lon="7.09011">
        <ele>739.4</ele>
        <time>2025-09-08T08:36:37Z</time>
      </trkpt>
      <trkpt lat="48.08322" lon="7.09008">
        <ele>739</ele>
        <time>2025-09-08T08:36:38Z</time>
      </trkpt>
      <trkpt lat="48.08324" lon="7.09002">
        <ele>738.6</ele>
        <time>2025-09-08T08:36:39Z</time>
      </trkpt>
      <trkpt lat="48.08325" lon="7.08997">
        <ele>738.2</ele>
        <time>2025-09-08T08:36:40Z</time>
      </trkpt>
      <trkpt lat="48.08327" lon="7.08993">
        <ele>738.2</ele>
        <time>2025-09-08T08:36:41Z</time>
      </trkpt>
      <trkpt lat="48.0833" lon="7.08988">
        <ele>738.2</ele>
        <time>2025-09-08T08:36:42Z</time>
      </trkpt>
      <trkpt lat="48.08332" lon="7.08984">
        <ele>738.2</ele>
        <time>2025-09-08T08:36:43Z</time>
      </trkpt>
      <trkpt lat="48.08333" lon="7.08981">
        <ele>738.2</ele>
        <time>2025-09-08T08:36:44Z</time>
      </trkpt>
      <trkpt lat="48.08335" lon="7.08977">
        <ele>738.4</ele>
        <time>2025-09-08T08:36:45Z</time>
      </trkpt>
      <trkpt lat="48.08336" lon="7.08973">
        <ele>738.8</ele>
        <time>2025-09-08T08:36:46Z</time>
      </trkpt>
      <trkpt lat="48.08339" lon="7.08969">
        <ele>739</ele>
        <time>2025-09-08T08:36:47Z</time>
      </trkpt>
      <trkpt lat="48.0834" lon="7.08965">
        <ele>739.4</ele>
        <time>2025-09-08T08:36:48Z</time>
      </trkpt>
      <trkpt lat="48.08342" lon="7.08961">
        <ele>739.8</ele>
        <time>2025-09-08T08:36:49Z</time>
      </trkpt>
      <trkpt lat="48.08343" lon="7.08957">
        <ele>740.4</ele>
        <time>2025-09-08T08:36:50Z</time>
      </trkpt>
      <trkpt lat="48.08344" lon="7.08952">
        <ele>740.6</ele>
        <time>2025-09-08T08:36:51Z</time>
      </trkpt>
      <trkpt lat="48.08346" lon="7.08948">
        <ele>741</ele>
        <time>2025-09-08T08:36:52Z</time>
      </trkpt>
      <trkpt lat="48.08348" lon="7.08944">
        <ele>741.2</ele>
        <time>2025-09-08T08:36:53Z</time>
      </trkpt>
      <trkpt lat="48.08349" lon="7.08941">
        <ele>741.8</ele>
        <time>2025-09-08T08:36:54Z</time>
      </trkpt>
      <trkpt lat="48.08351" lon="7.08937">
        <ele>742.2</ele>
        <time>2025-09-08T08:36:55Z</time>
      </trkpt>
      <trkpt lat="48.08353" lon="7.08933">
        <ele>742.4</ele>
        <time>2025-09-08T08:36:56Z</time>
      </trkpt>
      <trkpt lat="48.08354" lon="7.08929">
        <ele>742.8</ele>
        <time>2025-09-08T08:36:57Z</time>
      </trkpt>
      <trkpt lat="48.08356" lon="7.08925">
        <ele>743.2</ele>
        <time>2025-09-08T08:36:58Z</time>
      </trkpt>
      <trkpt lat="48.08358" lon="7.08921">
        <ele>743.6</ele>
        <time>2025-09-08T08:36:59Z</time>
      </trkpt>
      <trkpt lat="48.0836" lon="7.08917">
        <ele>744</ele>
        <time>2025-09-08T08:37:00Z</time>
      </trkpt>
      <trkpt lat="48.08361" lon="7.08913">
        <ele>744.4</ele>
        <time>2025-09-08T08:37:01Z</time>
      </trkpt>
      <trkpt lat="48.08363" lon="7.08908">
        <ele>744.6</ele>
        <time>2025-09-08T08:37:02Z</time>
      </trkpt>
      <trkpt lat="48.08365" lon="7.08904">
        <ele>745</ele>
        <time>2025-09-08T08:37:03Z</time>
      </trkpt>
      <trkpt lat="48.08367" lon="7.08901">
        <ele>745.4</ele>
        <time>2025-09-08T08:37:04Z</time>
      </trkpt>
      <trkpt lat="48.08368" lon="7.08898">
        <ele>745.6</ele>
        <time>2025-09-08T08:37:05Z</time>
      </trkpt>
      <trkpt lat="48.0837" lon="7.08894">
        <ele>746</ele>
        <time>2025-09-08T08:37:06Z</time>
      </trkpt>
      <trkpt lat="48.08371" lon="7.08891">
        <ele>746.4</ele>
        <time>2025-09-08T08:37:07Z</time>
      </trkpt>
      <trkpt lat="48.08373" lon="7.08887">
        <ele>746.8</ele>
        <time>2025-09-08T08:37:08Z</time>
      </trkpt>
      <trkpt lat="48.08375" lon="7.08884">
        <ele>747.2</ele>
        <time>2025-09-08T08:37:09Z</time>
      </trkpt>
      <trkpt lat="48.08376" lon="7.0888">
        <ele>747.4</ele>
        <time>2025-09-08T08:37:10Z</time>
      </trkpt>
      <trkpt lat="48.08377" lon="7.08876">
        <ele>748</ele>
        <time>2025-09-08T08:37:11Z</time>
      </trkpt>
      <trkpt lat="48.08379" lon="7.08872">
        <ele>748.2</ele>
        <time>2025-09-08T08:37:12Z</time>
      </trkpt>
      <trkpt lat="48.0838" lon="7.08869">
        <ele>748.6</ele>
        <time>2025-09-08T08:37:13Z</time>
      </trkpt>
      <trkpt lat="48.08381" lon="7.08864">
        <ele>748.8</ele>
        <time>2025-09-08T08:37:14Z</time>
      </trkpt>
      <trkpt lat="48.08383" lon="7.0886">
        <ele>749.2</ele>
        <time>2025-09-08T08:37:15Z</time>
      </trkpt>
      <trkpt lat="48.08384" lon="7.08856">
        <ele>749.6</ele>
        <time>2025-09-08T08:37:16Z</time>
      </trkpt>
      <trkpt lat="48.08386" lon="7.08852">
        <ele>750</ele>
        <time>2025-09-08T08:37:17Z</time>
      </trkpt>
      <trkpt lat="48.08387" lon="7.08848">
        <ele>750.4</ele>
        <time>2025-09-08T08:37:18Z</time>
      </trkpt>
      <trkpt lat="48.08388" lon="7.08843">
        <ele>750.6</ele>
        <time>2025-09-08T08:37:19Z</time>
      </trkpt>
      <trkpt lat="48.0839" lon="7.08839">
        <ele>750.8</ele>
        <time>2025-09-08T08:37:20Z</time>
      </trkpt>
      <trkpt lat="48.08391" lon="7.08835">
        <ele>751.2</ele>
        <time>2025-09-08T08:37:21Z</time>
      </trkpt>
      <trkpt lat="48.08393" lon="7.0883">
        <ele>751.4</ele>
        <time>2025-09-08T08:37:22Z</time>
      </trkpt>
      <trkpt lat="48.08394" lon="7.08826">
        <ele>751.8</ele>
        <time>2025-09-08T08:37:23Z</time>
      </trkpt>
      <trkpt lat="48.08396" lon="7.08822">
        <ele>752</ele>
        <time>2025-09-08T08:37:24Z</time>
      </trkpt>
      <trkpt lat="48.08398" lon="7.08818">
        <ele>752.2</ele>
        <time>2025-09-08T08:37:25Z</time>
      </trkpt>
      <trkpt lat="48.08399" lon="7.08814">
        <ele>752.4</ele>
        <time>2025-09-08T08:37:26Z</time>
      </trkpt>
      <trkpt lat="48.084" lon="7.0881">
        <ele>752.8</ele>
        <time>2025-09-08T08:37:27Z</time>
      </trkpt>
      <trkpt lat="48.08402" lon="7.08806">
        <ele>753</ele>
        <time>2025-09-08T08:37:28Z</time>
      </trkpt>
      <trkpt lat="48.08404" lon="7.08802">
        <ele>753.2</ele>
        <time>2025-09-08T08:37:29Z</time>
      </trkpt>
      <trkpt lat="48.08406" lon="7.08798">
        <ele>753.6</ele>
        <time>2025-09-08T08:37:30Z</time>
      </trkpt>
      <trkpt lat="48.08407" lon="7.08794">
        <ele>753.6</ele>
        <time>2025-09-08T08:37:31Z</time>
      </trkpt>
      <trkpt lat="48.08409" lon="7.0879">
        <ele>753.8</ele>
        <time>2025-09-08T08:37:32Z</time>
      </trkpt>
      <trkpt lat="48.08411" lon="7.08786">
        <ele>754.2</ele>
        <time>2025-09-08T08:37:33Z</time>
      </trkpt>
      <trkpt lat="48.08412" lon="7.08782">
        <ele>754.4</ele>
        <time>2025-09-08T08:37:34Z</time>
      </trkpt>
      <trkpt lat="48.08414" lon="7.08778">
        <ele>754.6</ele>
        <time>2025-09-08T08:37:35Z</time>
      </trkpt>
      <trkpt lat="48.08415" lon="7.08774">
        <ele>754.8</ele>
        <time>2025-09-08T08:37:36Z</time>
      </trkpt>
      <trkpt lat="48.08417" lon="7.0877">
        <ele>755</ele>
        <time>2025-09-08T08:37:37Z</time>
      </trkpt>
      <trkpt lat="48.08419" lon="7.08767">
        <ele>755.2</ele>
        <time>2025-09-08T08:37:38Z</time>
      </trkpt>
      <trkpt lat="48.08421" lon="7.08763">
        <ele>755.4</ele>
        <time>2025-09-08T08:37:39Z</time>
      </trkpt>
      <trkpt lat="48.08423" lon="7.0876">
        <ele>755.8</ele>
        <time>2025-09-08T08:37:40Z</time>
      </trkpt>
      <trkpt lat="48.08425" lon="7.08757">
        <ele>756</ele>
        <time>2025-09-08T08:37:41Z</time>
      </trkpt>
      <trkpt lat="48.08427" lon="7.08753">
        <ele>756.2</ele>
        <time>2025-09-08T08:37:42Z</time>
      </trkpt>
      <trkpt lat="48.0843" lon="7.08751">
        <ele>756.4</ele>
        <time>2025-09-08T08:37:43Z</time>
      </trkpt>
      <trkpt lat="48.08432" lon="7.08749">
        <ele>756.6</ele>
        <time>2025-09-08T08:37:44Z</time>
      </trkpt>
      <trkpt lat="48.08435" lon="7.08746">
        <ele>757</ele>
        <time>2025-09-08T08:37:45Z</time>
      </trkpt>
      <trkpt lat="48.08437" lon="7.08744">
        <ele>757.2</ele>
        <time>2025-09-08T08:37:46Z</time>
      </trkpt>
      <trkpt lat="48.0844" lon="7.08742">
        <ele>757.4</ele>
        <time>2025-09-08T08:37:47Z</time>
      </trkpt>
      <trkpt lat="48.08442" lon="7.08739">
        <ele>757.8</ele>
        <time>2025-09-08T08:37:48Z</time>
      </trkpt>
      <trkpt lat="48.08445" lon="7.08737">
        <ele>758</ele>
        <time>2025-09-08T08:37:49Z</time>
      </trkpt>
      <trkpt lat="48.08447" lon="7.08734">
        <ele>758.4</ele>
        <time>2025-09-08T08:37:50Z</time>
      </trkpt>
      <trkpt lat="48.0845" lon="7.08732">
        <ele>758.6</ele>
        <time>2025-09-08T08:37:51Z</time>
      </trkpt>
      <trkpt lat="48.08453" lon="7.08729">
        <ele>759</ele>
        <time>2025-09-08T08:37:52Z</time>
      </trkpt>
      <trkpt lat="48.08456" lon="7.08727">
        <ele>759.2</ele>
        <time>2025-09-08T08:37:53Z</time>
      </trkpt>
      <trkpt lat="48.08458" lon="7.08724">
        <ele>759.4</ele>
        <time>2025-09-08T08:37:54Z</time>
      </trkpt>
      <trkpt lat="48.08461" lon="7.08721">
        <ele>759.6</ele>
        <time>2025-09-08T08:37:55Z</time>
      </trkpt>
      <trkpt lat="48.08463" lon="7.08719">
        <ele>760</ele>
        <time>2025-09-08T08:37:56Z</time>
      </trkpt>
      <trkpt lat="48.08466" lon="7.08716">
        <ele>760.2</ele>
        <time>2025-09-08T08:37:57Z</time>
      </trkpt>
      <trkpt lat="48.08468" lon="7.08713">
        <ele>760.6</ele>
        <time>2025-09-08T08:37:58Z</time>
      </trkpt>
      <trkpt lat="48.0847" lon="7.08711">
        <ele>760.8</ele>
        <time>2025-09-08T08:37:59Z</time>
      </trkpt>
      <trkpt lat="48.08473" lon="7.08709">
        <ele>761.2</ele>
        <time>2025-09-08T08:38:00Z</time>
      </trkpt>
      <trkpt lat="48.08476" lon="7.08707">
        <ele>761.6</ele>
        <time>2025-09-08T08:38:01Z</time>
      </trkpt>
      <trkpt lat="48.08479" lon="7.08705">
        <ele>761.8</ele>
        <time>2025-09-08T08:38:02Z</time>
      </trkpt>
      <trkpt lat="48.08482" lon="7.08703">
        <ele>762.2</ele>
        <time>2025-09-08T08:38:03Z</time>
      </trkpt>
      <trkpt lat="48.08485" lon="7.087">
        <ele>762.4</ele>
        <time>2025-09-08T08:38:04Z</time>
      </trkpt>
      <trkpt lat="48.08488" lon="7.08698">
        <ele>762.8</ele>
        <time>2025-09-08T08:38:05Z</time>
      </trkpt>
      <trkpt lat="48.0849" lon="7.08695">
        <ele>763</ele>
        <time>2025-09-08T08:38:06Z</time>
      </trkpt>
      <trkpt lat="48.08493" lon="7.08693">
        <ele>763.6</ele>
        <time>2025-09-08T08:38:07Z</time>
      </trkpt>
      <trkpt lat="48.08495" lon="7.0869">
        <ele>763.6</ele>
        <time>2025-09-08T08:38:08Z</time>
      </trkpt>
      <trkpt lat="48.08498" lon="7.08687">
        <ele>764</ele>
        <time>2025-09-08T08:38:09Z</time>
      </trkpt>
      <trkpt lat="48.085" lon="7.08685">
        <ele>764.4</ele>
        <time>2025-09-08T08:38:10Z</time>
      </trkpt>
      <trkpt lat="48.08502" lon="7.08682">
        <ele>764.6</ele>
        <time>2025-09-08T08:38:11Z</time>
      </trkpt>
      <trkpt lat="48.08504" lon="7.0868">
        <ele>764.8</ele>
        <time>2025-09-08T08:38:12Z</time>
      </trkpt>
      <trkpt lat="48.08506" lon="7.08678">
        <ele>765.2</ele>
        <time>2025-09-08T08:38:13Z</time>
      </trkpt>
      <trkpt lat="48.08509" lon="7.08675">
        <ele>765.4</ele>
        <time>2025-09-08T08:38:14Z</time>
      </trkpt>
      <trkpt lat="48.08511" lon="7.08673">
        <ele>765.6</ele>
        <time>2025-09-08T08:38:15Z</time>
      </trkpt>
      <trkpt lat="48.08513" lon="7.08671">
        <ele>766</ele>
        <time>2025-09-08T08:38:16Z</time>
      </trkpt>
      <trkpt lat="48.08516" lon="7.08669">
        <ele>766.2</ele>
        <time>2025-09-08T08:38:17Z</time>
      </trkpt>
      <trkpt lat="48.08518" lon="7.08667">
        <ele>766.8</ele>
        <time>2025-09-08T08:38:18Z</time>
      </trkpt>
      <trkpt lat="48.08521" lon="7.08665">
        <ele>767</ele>
        <time>2025-09-08T08:38:19Z</time>
      </trkpt>
      <trkpt lat="48.08524" lon="7.08664">
        <ele>767.2</ele>
        <time>2025-09-08T08:38:20Z</time>
      </trkpt>
      <trkpt lat="48.08526" lon="7.08662">
        <ele>767.6</ele>
        <time>2025-09-08T08:38:21Z</time>
      </trkpt>
      <trkpt lat="48.08529" lon="7.08661">
        <ele>767.8</ele>
        <time>2025-09-08T08:38:22Z</time>
      </trkpt>
      <trkpt lat="48.08532" lon="7.08659">
        <ele>768</ele>
        <time>2025-09-08T08:38:23Z</time>
      </trkpt>
      <trkpt lat="48.08534" lon="7.08658">
        <ele>768.6</ele>
        <time>2025-09-08T08:38:24Z</time>
      </trkpt>
      <trkpt lat="48.08537" lon="7.08656">
        <ele>768.8</ele>
        <time>2025-09-08T08:38:25Z</time>
      </trkpt>
      <trkpt lat="48.0854" lon="7.08656">
        <ele>769.2</ele>
        <time>2025-09-08T08:38:26Z</time>
      </trkpt>
      <trkpt lat="48.08543" lon="7.08656">
        <ele>769.4</ele>
        <time>2025-09-08T08:38:27Z</time>
      </trkpt>
      <trkpt lat="48.08546" lon="7.08655">
        <ele>769.6</ele>
        <time>2025-09-08T08:38:28Z</time>
      </trkpt>
      <trkpt lat="48.08549" lon="7.08655">
        <ele>769.8</ele>
        <time>2025-09-08T08:38:29Z</time>
      </trkpt>
      <trkpt lat="48.08552" lon="7.08654">
        <ele>770</ele>
        <time>2025-09-08T08:38:30Z</time>
      </trkpt>
      <trkpt lat="48.08556" lon="7.08653">
        <ele>770.4</ele>
        <time>2025-09-08T08:38:31Z</time>
      </trkpt>
      <trkpt lat="48.08559" lon="7.08652">
        <ele>770.6</ele>
        <time>2025-09-08T08:38:32Z</time>
      </trkpt>
      <trkpt lat="48.08562" lon="7.08651">
        <ele>770.8</ele>
        <time>2025-09-08T08:38:33Z</time>
      </trkpt>
      <trkpt lat="48.08565" lon="7.08651">
        <ele>771.2</ele>
        <time>2025-09-08T08:38:34Z</time>
      </trkpt>
      <trkpt lat="48.08568" lon="7.0865">
        <ele>771.4</ele>
        <time>2025-09-08T08:38:35Z</time>
      </trkpt>
      <trkpt lat="48.08571" lon="7.0865">
        <ele>771.6</ele>
        <time>2025-09-08T08:38:36Z</time>
      </trkpt>
      <trkpt lat="48.08574" lon="7.0865">
        <ele>771.8</ele>
        <time>2025-09-08T08:38:37Z</time>
      </trkpt>
      <trkpt lat="48.08577" lon="7.08651">
        <ele>772</ele>
        <time>2025-09-08T08:38:38Z</time>
      </trkpt>
      <trkpt lat="48.0858" lon="7.08652">
        <ele>772.2</ele>
        <time>2025-09-08T08:38:39Z</time>
      </trkpt>
      <trkpt lat="48.08582" lon="7.08653">
        <ele>772.6</ele>
        <time>2025-09-08T08:38:40Z</time>
      </trkpt>
      <trkpt lat="48.08586" lon="7.08654">
        <ele>772.8</ele>
        <time>2025-09-08T08:38:41Z</time>
      </trkpt>
      <trkpt lat="48.08589" lon="7.08654">
        <ele>773.2</ele>
        <time>2025-09-08T08:38:42Z</time>
      </trkpt>
      <trkpt lat="48.08592" lon="7.08655">
        <ele>773.4</ele>
        <time>2025-09-08T08:38:43Z</time>
      </trkpt>
      <trkpt lat="48.08595" lon="7.08657">
        <ele>773.6</ele>
        <time>2025-09-08T08:38:44Z</time>
      </trkpt>
      <trkpt lat="48.08599" lon="7.08659">
        <ele>773.8</ele>
        <time>2025-09-08T08:38:45Z</time>
      </trkpt>
      <trkpt lat="48.08602" lon="7.08661">
        <ele>774.2</ele>
        <time>2025-09-08T08:38:46Z</time>
      </trkpt>
      <trkpt lat="48.08605" lon="7.08662">
        <ele>774.4</ele>
        <time>2025-09-08T08:38:47Z</time>
      </trkpt>
      <trkpt lat="48.08609" lon="7.08664">
        <ele>774.8</ele>
        <time>2025-09-08T08:38:48Z</time>
      </trkpt>
      <trkpt lat="48.08612" lon="7.08666">
        <ele>775</ele>
        <time>2025-09-08T08:38:49Z</time>
      </trkpt>
      <trkpt lat="48.08615" lon="7.08668">
        <ele>775.2</ele>
        <time>2025-09-08T08:38:50Z</time>
      </trkpt>
      <trkpt lat="48.08618" lon="7.08669">
        <ele>775.6</ele>
        <time>2025-09-08T08:38:51Z</time>
      </trkpt>
      <trkpt lat="48.08621" lon="7.0867">
        <ele>775.8</ele>
        <time>2025-09-08T08:38:52Z</time>
      </trkpt>
      <trkpt lat="48.08624" lon="7.08672">
        <ele>776</ele>
        <time>2025-09-08T08:38:53Z</time>
      </trkpt>
      <trkpt lat="48.08627" lon="7.08673">
        <ele>776.4</ele>
        <time>2025-09-08T08:38:54Z</time>
      </trkpt>
      <trkpt lat="48.08629" lon="7.08674">
        <ele>776.6</ele>
        <time>2025-09-08T08:38:55Z</time>
      </trkpt>
      <trkpt lat="48.08632" lon="7.08675">
        <ele>776.8</ele>
        <time>2025-09-08T08:38:56Z</time>
      </trkpt>
      <trkpt lat="48.08635" lon="7.08676">
        <ele>777.2</ele>
        <time>2025-09-08T08:38:57Z</time>
      </trkpt>
      <trkpt lat="48.08638" lon="7.08676">
        <ele>777.4</ele>
        <time>2025-09-08T08:38:58Z</time>
      </trkpt>
      <trkpt lat="48.08641" lon="7.08676">
        <ele>777.8</ele>
        <time>2025-09-08T08:38:59Z</time>
      </trkpt>
      <trkpt lat="48.08644" lon="7.08677">
        <ele>778</ele>
        <time>2025-09-08T08:39:00Z</time>
      </trkpt>
      <trkpt lat="48.08647" lon="7.08679">
        <ele>778.4</ele>
        <time>2025-09-08T08:39:01Z</time>
      </trkpt>
      <trkpt lat="48.0865" lon="7.08681">
        <ele>778.6</ele>
        <time>2025-09-08T08:39:02Z</time>
      </trkpt>
      <trkpt lat="48.08654" lon="7.08684">
        <ele>779</ele>
        <time>2025-09-08T08:39:03Z</time>
      </trkpt>
      <trkpt lat="48.08657" lon="7.08686">
        <ele>779.2</ele>
        <time>2025-09-08T08:39:04Z</time>
      </trkpt>
      <trkpt lat="48.08661" lon="7.08689">
        <ele>779.2</ele>
        <time>2025-09-08T08:39:05Z</time>
      </trkpt>
      <trkpt lat="48.08664" lon="7.08693">
        <ele>779.6</ele>
        <time>2025-09-08T08:39:06Z</time>
      </trkpt>
      <trkpt lat="48.08667" lon="7.08697">
        <ele>779.8</ele>
        <time>2025-09-08T08:39:07Z</time>
      </trkpt>
      <trkpt lat="48.0867" lon="7.087">
        <ele>780.2</ele>
        <time>2025-09-08T08:39:08Z</time>
      </trkpt>
      <trkpt lat="48.08672" lon="7.08703">
        <ele>780.4</ele>
        <time>2025-09-08T08:39:09Z</time>
      </trkpt>
      <trkpt lat="48.08674" lon="7.08706">
        <ele>780.8</ele>
        <time>2025-09-08T08:39:10Z</time>
      </trkpt>
      <trkpt lat="48.08676" lon="7.0871">
        <ele>781</ele>
        <time>2025-09-08T08:39:11Z</time>
      </trkpt>
      <trkpt lat="48.08678" lon="7.08714">
        <ele>781.2</ele>
        <time>2025-09-08T08:39:12Z</time>
      </trkpt>
      <trkpt lat="48.0868" lon="7.08718">
        <ele>781.6</ele>
        <time>2025-09-08T08:39:13Z</time>
      </trkpt>
      <trkpt lat="48.08682" lon="7.08722">
        <ele>782</ele>
        <time>2025-09-08T08:39:14Z</time>
      </trkpt>
      <trkpt lat="48.08684" lon="7.08725">
        <ele>782.2</ele>
        <time>2025-09-08T08:39:15Z</time>
      </trkpt>
      <trkpt lat="48.08687" lon="7.08729">
        <ele>782.6</ele>
        <time>2025-09-08T08:39:16Z</time>
      </trkpt>
      <trkpt lat="48.08689" lon="7.08733">
        <ele>782.8</ele>
        <time>2025-09-08T08:39:17Z</time>
      </trkpt>
      <trkpt lat="48.08692" lon="7.08736">
        <ele>783.2</ele>
        <time>2025-09-08T08:39:18Z</time>
      </trkpt>
      <trkpt lat="48.08694" lon="7.08739">
        <ele>783.4</ele>
        <time>2025-09-08T08:39:19Z</time>
      </trkpt>
      <trkpt lat="48.08696" lon="7.08743">
        <ele>783.6</ele>
        <time>2025-09-08T08:39:20Z</time>
      </trkpt>
      <trkpt lat="48.08699" lon="7.08746">
        <ele>784</ele>
        <time>2025-09-08T08:39:21Z</time>
      </trkpt>
      <trkpt lat="48.08702" lon="7.08749">
        <ele>784.2</ele>
        <time>2025-09-08T08:39:22Z</time>
      </trkpt>
      <trkpt lat="48.08704" lon="7.08752">
        <ele>784.4</ele>
        <time>2025-09-08T08:39:23Z</time>
      </trkpt>
      <trkpt lat="48.08707" lon="7.08755">
        <ele>784.6</ele>
        <time>2025-09-08T08:39:24Z</time>
      </trkpt>
      <trkpt lat="48.0871" lon="7.08757">
        <ele>785</ele>
        <time>2025-09-08T08:39:25Z</time>
      </trkpt>
      <trkpt lat="48.08712" lon="7.08761">
        <ele>785.2</ele>
        <time>2025-09-08T08:39:26Z</time>
      </trkpt>
      <trkpt lat="48.08715" lon="7.08764">
        <ele>785.4</ele>
        <time>2025-09-08T08:39:27Z</time>
      </trkpt>
      <trkpt lat="48.08717" lon="7.08767">
        <ele>785.6</ele>
        <time>2025-09-08T08:39:28Z</time>
      </trkpt>
      <trkpt lat="48.0872" lon="7.08771">
        <ele>785.8</ele>
        <time>2025-09-08T08:39:29Z</time>
      </trkpt>
      <trkpt lat="48.08722" lon="7.08774">
        <ele>786</ele>
        <time>2025-09-08T08:39:30Z</time>
      </trkpt>
      <trkpt lat="48.08724" lon="7.08777">
        <ele>786.2</ele>
        <time>2025-09-08T08:39:31Z</time>
      </trkpt>
      <trkpt lat="48.08727" lon="7.08781">
        <ele>786.6</ele>
        <time>2025-09-08T08:39:32Z</time>
      </trkpt>
      <trkpt lat="48.08729" lon="7.08785">
        <ele>786.8</ele>
        <time>2025-09-08T08:39:33Z</time>
      </trkpt>
      <trkpt lat="48.08731" lon="7.08789">
        <ele>786.8</ele>
        <time>2025-09-08T08:39:34Z</time>
      </trkpt>
      <trkpt lat="48.08734" lon="7.08792">
        <ele>787.2</ele>
        <time>2025-09-08T08:39:35Z</time>
      </trkpt>
      <trkpt lat="48.08736" lon="7.08796">
        <ele>787.4</ele>
        <time>2025-09-08T08:39:36Z</time>
      </trkpt>
      <trkpt lat="48.08738" lon="7.08799">
        <ele>787.6</ele>
        <time>2025-09-08T08:39:37Z</time>
      </trkpt>
      <trkpt lat="48.0874" lon="7.08802">
        <ele>788</ele>
        <time>2025-09-08T08:39:38Z</time>
      </trkpt>
      <trkpt lat="48.08742" lon="7.08806">
        <ele>788.2</ele>
        <time>2025-09-08T08:39:39Z</time>
      </trkpt>
      <trkpt lat="48.08744" lon="7.0881">
        <ele>788.4</ele>
        <time>2025-09-08T08:39:40Z</time>
      </trkpt>
      <trkpt lat="48.08747" lon="7.08813">
        <ele>788.8</ele>
        <time>2025-09-08T08:39:41Z</time>
      </trkpt>
      <trkpt lat="48.08749" lon="7.08817">
        <ele>789</ele>
        <time>2025-09-08T08:39:42Z</time>
      </trkpt>
      <trkpt lat="48.08751" lon="7.08821">
        <ele>789.4</ele>
        <time>2025-09-08T08:39:43Z</time>
      </trkpt>
      <trkpt lat="48.08753" lon="7.08824">
        <ele>789.4</ele>
        <time>2025-09-08T08:39:44Z</time>
      </trkpt>
      <trkpt lat="48.08755" lon="7.08828">
        <ele>789.6</ele>
        <time>2025-09-08T08:39:45Z</time>
      </trkpt>
      <trkpt lat="48.08758" lon="7.08832">
        <ele>790</ele>
        <time>2025-09-08T08:39:46Z</time>
      </trkpt>
      <trkpt lat="48.0876" lon="7.08835">
        <ele>790.4</ele>
        <time>2025-09-08T08:39:47Z</time>
      </trkpt>
      <trkpt lat="48.08762" lon="7.08837">
        <ele>790.4</ele>
        <time>2025-09-08T08:39:48Z</time>
      </trkpt>
      <trkpt lat="48.08765" lon="7.08838">
        <ele>790.8</ele>
        <time>2025-09-08T08:39:49Z</time>
      </trkpt>
      <trkpt lat="48.08768" lon="7.08839">
        <ele>791</ele>
        <time>2025-09-08T08:39:50Z</time>
      </trkpt>
      <trkpt lat="48.08771" lon="7.08839">
        <ele>791.2</ele>
        <time>2025-09-08T08:39:51Z</time>
      </trkpt>
      <trkpt lat="48.08773" lon="7.08838">
        <ele>791.6</ele>
        <time>2025-09-08T08:39:52Z</time>
      </trkpt>
      <trkpt lat="48.08776" lon="7.08837">
        <ele>791.8</ele>
        <time>2025-09-08T08:39:53Z</time>
      </trkpt>
      <trkpt lat="48.08779" lon="7.08836">
        <ele>792.2</ele>
        <time>2025-09-08T08:39:54Z</time>
      </trkpt>
      <trkpt lat="48.08782" lon="7.08834">
        <ele>792.6</ele>
        <time>2025-09-08T08:39:55Z</time>
      </trkpt>
      <trkpt lat="48.08785" lon="7.08832">
        <ele>792.8</ele>
        <time>2025-09-08T08:39:56Z</time>
      </trkpt>
      <trkpt lat="48.08788" lon="7.08831">
        <ele>793.2</ele>
        <time>2025-09-08T08:39:57Z</time>
      </trkpt>
      <trkpt lat="48.08792" lon="7.0883">
        <ele>793.6</ele>
        <time>2025-09-08T08:39:58Z</time>
      </trkpt>
      <trkpt lat="48.08795" lon="7.0883">
        <ele>794</ele>
        <time>2025-09-08T08:39:59Z</time>
      </trkpt>
      <trkpt lat="48.08799" lon="7.08831">
        <ele>794.4</ele>
        <time>2025-09-08T08:40:00Z</time>
      </trkpt>
      <trkpt lat="48.08802" lon="7.08835">
        <ele>794.8</ele>
        <time>2025-09-08T08:40:01Z</time>
      </trkpt>
      <trkpt lat="48.08804" lon="7.08839">
        <ele>795.2</ele>
        <time>2025-09-08T08:40:02Z</time>
      </trkpt>
      <trkpt lat="48.08806" lon="7.08844">
        <ele>795.4</ele>
        <time>2025-09-08T08:40:03Z</time>
      </trkpt>
      <trkpt lat="48.08807" lon="7.08849">
        <ele>795.6</ele>
        <time>2025-09-08T08:40:04Z</time>
      </trkpt>
      <trkpt lat="48.08807" lon="7.08854">
        <ele>795.8</ele>
        <time>2025-09-08T08:40:05Z</time>
      </trkpt>
      <trkpt lat="48.08808" lon="7.08859">
        <ele>796</ele>
        <time>2025-09-08T08:40:06Z</time>
      </trkpt>
      <trkpt lat="48.08808" lon="7.08864">
        <ele>796.4</ele>
        <time>2025-09-08T08:40:07Z</time>
      </trkpt>
      <trkpt lat="48.08808" lon="7.08869">
        <ele>796.6</ele>
        <time>2025-09-08T08:40:08Z</time>
      </trkpt>
      <trkpt lat="48.08809" lon="7.08874">
        <ele>797</ele>
        <time>2025-09-08T08:40:09Z</time>
      </trkpt>
      <trkpt lat="48.08809" lon="7.08879">
        <ele>797.2</ele>
        <time>2025-09-08T08:40:10Z</time>
      </trkpt>
      <trkpt lat="48.08809" lon="7.08884">
        <ele>797.6</ele>
        <time>2025-09-08T08:40:11Z</time>
      </trkpt>
      <trkpt lat="48.08809" lon="7.08889">
        <ele>797.8</ele>
        <time>2025-09-08T08:40:12Z</time>
      </trkpt>
      <trkpt lat="48.08809" lon="7.08894">
        <ele>798.2</ele>
        <time>2025-09-08T08:40:13Z</time>
      </trkpt>
      <trkpt lat="48.08809" lon="7.08899">
        <ele>798.4</ele>
        <time>2025-09-08T08:40:14Z</time>
      </trkpt>
      <trkpt lat="48.08808" lon="7.08904">
        <ele>798.6</ele>
        <time>2025-09-08T08:40:15Z</time>
      </trkpt>
      <trkpt lat="48.08808" lon="7.08909">
        <ele>798.8</ele>
        <time>2025-09-08T08:40:16Z</time>
      </trkpt>
      <trkpt lat="48.08807" lon="7.08913">
        <ele>799</ele>
        <time>2025-09-08T08:40:17Z</time>
      </trkpt>
      <trkpt lat="48.08806" lon="7.08917">
        <ele>799.2</ele>
        <time>2025-09-08T08:40:18Z</time>
      </trkpt>
      <trkpt lat="48.08805" lon="7.08922">
        <ele>799.6</ele>
        <time>2025-09-08T08:40:19Z</time>
      </trkpt>
      <trkpt lat="48.08803" lon="7.08926">
        <ele>799.8</ele>
        <time>2025-09-08T08:40:20Z</time>
      </trkpt>
      <trkpt lat="48.08802" lon="7.08931">
        <ele>800</ele>
        <time>2025-09-08T08:40:21Z</time>
      </trkpt>
      <trkpt lat="48.08801" lon="7.08935">
        <ele>800.4</ele>
        <time>2025-09-08T08:40:22Z</time>
      </trkpt>
      <trkpt lat="48.08799" lon="7.0894">
        <ele>800.6</ele>
        <time>2025-09-08T08:40:23Z</time>
      </trkpt>
      <trkpt lat="48.08797" lon="7.08944">
        <ele>800.8</ele>
        <time>2025-09-08T08:40:24Z</time>
      </trkpt>
      <trkpt lat="48.08795" lon="7.08947">
        <ele>801</ele>
        <time>2025-09-08T08:40:25Z</time>
      </trkpt>
      <trkpt lat="48.08793" lon="7.08951">
        <ele>801.4</ele>
        <time>2025-09-08T08:40:26Z</time>
      </trkpt>
      <trkpt lat="48.08791" lon="7.08955">
        <ele>801.8</ele>
        <time>2025-09-08T08:40:27Z</time>
      </trkpt>
      <trkpt lat="48.08789" lon="7.08959">
        <ele>801.8</ele>
        <time>2025-09-08T08:40:28Z</time>
      </trkpt>
      <trkpt lat="48.08787" lon="7.08963">
        <ele>802.2</ele>
        <time>2025-09-08T08:40:29Z</time>
      </trkpt>
      <trkpt lat="48.08784" lon="7.08967">
        <ele>802.4</ele>
        <time>2025-09-08T08:40:30Z</time>
      </trkpt>
      <trkpt lat="48.08782" lon="7.0897">
        <ele>802.6</ele>
        <time>2025-09-08T08:40:31Z</time>
      </trkpt>
      <trkpt lat="48.0878" lon="7.08974">
        <ele>802.8</ele>
        <time>2025-09-08T08:40:32Z</time>
      </trkpt>
      <trkpt lat="48.08777" lon="7.08977">
        <ele>803.2</ele>
        <time>2025-09-08T08:40:33Z</time>
      </trkpt>
      <trkpt lat="48.08775" lon="7.08981">
        <ele>803.2</ele>
        <time>2025-09-08T08:40:34Z</time>
      </trkpt>
      <trkpt lat="48.08773" lon="7.08984">
        <ele>803.6</ele>
        <time>2025-09-08T08:40:35Z</time>
      </trkpt>
      <trkpt lat="48.0877" lon="7.08987">
        <ele>803.8</ele>
        <time>2025-09-08T08:40:36Z</time>
      </trkpt>
      <trkpt lat="48.08768" lon="7.08991">
        <ele>805.2</ele>
        <time>2025-09-08T08:40:37Z</time>
      </trkpt>
      <trkpt lat="48.08766" lon="7.08995">
        <ele>805.2</ele>
        <time>2025-09-08T08:40:38Z</time>
      </trkpt>
      <trkpt lat="48.08764" lon="7.08998">
        <ele>805.4</ele>
        <time>2025-09-08T08:40:39Z</time>
      </trkpt>
      <trkpt lat="48.08762" lon="7.09002">
        <ele>805.6</ele>
        <time>2025-09-08T08:40:40Z</time>
      </trkpt>
      <trkpt lat="48.0876" lon="7.09005">
        <ele>805.6</ele>
        <time>2025-09-08T08:40:41Z</time>
      </trkpt>
      <trkpt lat="48.08758" lon="7.09009">
        <ele>805.6</ele>
        <time>2025-09-08T08:40:42Z</time>
      </trkpt>
      <trkpt lat="48.08756" lon="7.09013">
        <ele>806.6</ele>
        <time>2025-09-08T08:40:43Z</time>
      </trkpt>
      <trkpt lat="48.08754" lon="7.09016">
        <ele>806.8</ele>
        <time>2025-09-08T08:40:44Z</time>
      </trkpt>
      <trkpt lat="48.08751" lon="7.0902">
        <ele>807</ele>
        <time>2025-09-08T08:40:45Z</time>
      </trkpt>
      <trkpt lat="48.08749" lon="7.09023">
        <ele>807.4</ele>
        <time>2025-09-08T08:40:46Z</time>
      </trkpt>
      <trkpt lat="48.08747" lon="7.09027">
        <ele>807.4</ele>
        <time>2025-09-08T08:40:47Z</time>
      </trkpt>
      <trkpt lat="48.08745" lon="7.09031">
        <ele>807.4</ele>
        <time>2025-09-08T08:40:48Z</time>
      </trkpt>
      <trkpt lat="48.08743" lon="7.09035">
        <ele>807.4</ele>
        <time>2025-09-08T08:40:49Z</time>
      </trkpt>
      <trkpt lat="48.08741" lon="7.09038">
        <ele>807.6</ele>
        <time>2025-09-08T08:40:50Z</time>
      </trkpt>
      <trkpt lat="48.08739" lon="7.09042">
        <ele>807.8</ele>
        <time>2025-09-08T08:40:51Z</time>
      </trkpt>
      <trkpt lat="48.08737" lon="7.09046">
        <ele>808.4</ele>
        <time>2025-09-08T08:40:52Z</time>
      </trkpt>
      <trkpt lat="48.08736" lon="7.0905">
        <ele>808.8</ele>
        <time>2025-09-08T08:40:53Z</time>
      </trkpt>
      <trkpt lat="48.08734" lon="7.09053">
        <ele>809.4</ele>
        <time>2025-09-08T08:40:54Z</time>
      </trkpt>
      <trkpt lat="48.08732" lon="7.09057">
        <ele>809.8</ele>
        <time>2025-09-08T08:40:55Z</time>
      </trkpt>
      <trkpt lat="48.08731" lon="7.09061">
        <ele>809.8</ele>
        <time>2025-09-08T08:40:56Z</time>
      </trkpt>
      <trkpt lat="48.08729" lon="7.09066">
        <ele>810.2</ele>
        <time>2025-09-08T08:40:57Z</time>
      </trkpt>
      <trkpt lat="48.08727" lon="7.0907">
        <ele>810.6</ele>
        <time>2025-09-08T08:40:58Z</time>
      </trkpt>
      <trkpt lat="48.08725" lon="7.09074">
        <ele>811</ele>
        <time>2025-09-08T08:40:59Z</time>
      </trkpt>
      <trkpt lat="48.08723" lon="7.09077">
        <ele>811.2</ele>
        <time>2025-09-08T08:41:00Z</time>
      </trkpt>
      <trkpt lat="48.08722" lon="7.09082">
        <ele>811.8</ele>
        <time>2025-09-08T08:41:01Z</time>
      </trkpt>
      <trkpt lat="48.08719" lon="7.09086">
        <ele>812</ele>
        <time>2025-09-08T08:41:02Z</time>
      </trkpt>
      <trkpt lat="48.08718" lon="7.0909">
        <ele>812.2</ele>
        <time>2025-09-08T08:41:03Z</time>
      </trkpt>
      <trkpt lat="48.08717" lon="7.09095">
        <ele>812.4</ele>
        <time>2025-09-08T08:41:04Z</time>
      </trkpt>
      <trkpt lat="48.08715" lon="7.09099">
        <ele>813</ele>
        <time>2025-09-08T08:41:05Z</time>
      </trkpt>
      <trkpt lat="48.08713" lon="7.09103">
        <ele>813.4</ele>
        <time>2025-09-08T08:41:06Z</time>
      </trkpt>
      <trkpt lat="48.08712" lon="7.09107">
        <ele>813.4</ele>
        <time>2025-09-08T08:41:07Z</time>
      </trkpt>
      <trkpt lat="48.08711" lon="7.09112">
        <ele>813.8</ele>
        <time>2025-09-08T08:41:08Z</time>
      </trkpt>
      <trkpt lat="48.0871" lon="7.09116">
        <ele>814</ele>
        <time>2025-09-08T08:41:09Z</time>
      </trkpt>
      <trkpt lat="48.08708" lon="7.0912">
        <ele>814.6</ele>
        <time>2025-09-08T08:41:10Z</time>
      </trkpt>
      <trkpt lat="48.08707" lon="7.09125">
        <ele>814.8</ele>
        <time>2025-09-08T08:41:11Z</time>
      </trkpt>
      <trkpt lat="48.08706" lon="7.09129">
        <ele>815.2</ele>
        <time>2025-09-08T08:41:12Z</time>
      </trkpt>
      <trkpt lat="48.08705" lon="7.09133">
        <ele>815.6</ele>
        <time>2025-09-08T08:41:13Z</time>
      </trkpt>
      <trkpt lat="48.08703" lon="7.09137">
        <ele>815.8</ele>
        <time>2025-09-08T08:41:14Z</time>
      </trkpt>
      <trkpt lat="48.08702" lon="7.09142">
        <ele>815.8</ele>
        <time>2025-09-08T08:41:15Z</time>
      </trkpt>
      <trkpt lat="48.08701" lon="7.09146">
        <ele>816.2</ele>
        <time>2025-09-08T08:41:16Z</time>
      </trkpt>
      <trkpt lat="48.087" lon="7.09151">
        <ele>816.2</ele>
        <time>2025-09-08T08:41:17Z</time>
      </trkpt>
      <trkpt lat="48.08699" lon="7.09156">
        <ele>816.4</ele>
        <time>2025-09-08T08:41:18Z</time>
      </trkpt>
      <trkpt lat="48.08699" lon="7.09161">
        <ele>817</ele>
        <time>2025-09-08T08:41:19Z</time>
      </trkpt>
      <trkpt lat="48.08698" lon="7.09165">
        <ele>817.2</ele>
        <time>2025-09-08T08:41:20Z</time>
      </trkpt>
      <trkpt lat="48.08698" lon="7.0917">
        <ele>817.4</ele>
        <time>2025-09-08T08:41:21Z</time>
      </trkpt>
      <trkpt lat="48.08697" lon="7.09174">
        <ele>817.6</ele>
        <time>2025-09-08T08:41:22Z</time>
      </trkpt>
      <trkpt lat="48.08696" lon="7.09179">
        <ele>817.8</ele>
        <time>2025-09-08T08:41:23Z</time>
      </trkpt>
      <trkpt lat="48.08696" lon="7.09183">
        <ele>818</ele>
        <time>2025-09-08T08:41:24Z</time>
      </trkpt>
      <trkpt lat="48.08695" lon="7.09188">
        <ele>818.4</ele>
        <time>2025-09-08T08:41:25Z</time>
      </trkpt>
      <trkpt lat="48.08695" lon="7.09192">
        <ele>819.2</ele>
        <time>2025-09-08T08:41:26Z</time>
      </trkpt>
      <trkpt lat="48.08694" lon="7.09197">
        <ele>819.4</ele>
        <time>2025-09-08T08:41:27Z</time>
      </trkpt>
      <trkpt lat="48.08694" lon="7.09201">
        <ele>819.6</ele>
        <time>2025-09-08T08:41:28Z</time>
      </trkpt>
      <trkpt lat="48.08693" lon="7.09205">
        <ele>820</ele>
        <time>2025-09-08T08:41:29Z</time>
      </trkpt>
      <trkpt lat="48.08693" lon="7.0921">
        <ele>820</ele>
        <time>2025-09-08T08:41:30Z</time>
      </trkpt>
      <trkpt lat="48.08692" lon="7.09215">
        <ele>820.2</ele>
        <time>2025-09-08T08:41:31Z</time>
      </trkpt>
      <trkpt lat="48.08692" lon="7.0922">
        <ele>820.6</ele>
        <time>2025-09-08T08:41:32Z</time>
      </trkpt>
      <trkpt lat="48.08691" lon="7.09225">
        <ele>820.8</ele>
        <time>2025-09-08T08:41:33Z</time>
      </trkpt>
      <trkpt lat="48.0869" lon="7.0923">
        <ele>821.2</ele>
        <time>2025-09-08T08:41:34Z</time>
      </trkpt>
      <trkpt lat="48.08689" lon="7.09235">
        <ele>821.4</ele>
        <time>2025-09-08T08:41:35Z</time>
      </trkpt>
      <trkpt lat="48.08688" lon="7.0924">
        <ele>821.6</ele>
        <time>2025-09-08T08:41:36Z</time>
      </trkpt>
      <trkpt lat="48.08688" lon="7.09245">
        <ele>821.8</ele>
        <time>2025-09-08T08:41:37Z</time>
      </trkpt>
      <trkpt lat="48.08687" lon="7.0925">
        <ele>822.2</ele>
        <time>2025-09-08T08:41:38Z</time>
      </trkpt>
      <trkpt lat="48.08686" lon="7.09255">
        <ele>822.2</ele>
        <time>2025-09-08T08:41:39Z</time>
      </trkpt>
      <trkpt lat="48.08685" lon="7.09259">
        <ele>822.6</ele>
        <time>2025-09-08T08:41:40Z</time>
      </trkpt>
      <trkpt lat="48.08684" lon="7.09264">
        <ele>823</ele>
        <time>2025-09-08T08:41:41Z</time>
      </trkpt>
      <trkpt lat="48.08683" lon="7.09269">
        <ele>823.6</ele>
        <time>2025-09-08T08:41:42Z</time>
      </trkpt>
      <trkpt lat="48.08683" lon="7.09274">
        <ele>824.2</ele>
        <time>2025-09-08T08:41:43Z</time>
      </trkpt>
      <trkpt lat="48.08683" lon="7.09278">
        <ele>824.4</ele>
        <time>2025-09-08T08:41:44Z</time>
      </trkpt>
      <trkpt lat="48.08682" lon="7.09282">
        <ele>824.4</ele>
        <time>2025-09-08T08:41:45Z</time>
      </trkpt>
      <trkpt lat="48.08681" lon="7.09287">
        <ele>824.6</ele>
        <time>2025-09-08T08:41:46Z</time>
      </trkpt>
      <trkpt lat="48.08679" lon="7.09292">
        <ele>824.8</ele>
        <time>2025-09-08T08:41:47Z</time>
      </trkpt>
      <trkpt lat="48.08678" lon="7.09296">
        <ele>825.2</ele>
        <time>2025-09-08T08:41:48Z</time>
      </trkpt>
      <trkpt lat="48.08677" lon="7.09301">
        <ele>825.4</ele>
        <time>2025-09-08T08:41:49Z</time>
      </trkpt>
      <trkpt lat="48.08675" lon="7.09306">
        <ele>825.6</ele>
        <time>2025-09-08T08:41:50Z</time>
      </trkpt>
      <trkpt lat="48.08673" lon="7.0931">
        <ele>826</ele>
        <time>2025-09-08T08:41:51Z</time>
      </trkpt>
      <trkpt lat="48.08672" lon="7.09315">
        <ele>826.2</ele>
        <time>2025-09-08T08:41:52Z</time>
      </trkpt>
      <trkpt lat="48.0867" lon="7.0932">
        <ele>826.8</ele>
        <time>2025-09-08T08:41:53Z</time>
      </trkpt>
      <trkpt lat="48.08669" lon="7.09325">
        <ele>827</ele>
        <time>2025-09-08T08:41:54Z</time>
      </trkpt>
      <trkpt lat="48.08668" lon="7.09329">
        <ele>827.2</ele>
        <time>2025-09-08T08:41:55Z</time>
      </trkpt>
      <trkpt lat="48.08666" lon="7.09333">
        <ele>827.4</ele>
        <time>2025-09-08T08:41:56Z</time>
      </trkpt>
      <trkpt lat="48.08665" lon="7.09337">
        <ele>827.4</ele>
        <time>2025-09-08T08:41:57Z</time>
      </trkpt>
      <trkpt lat="48.08663" lon="7.09341">
        <ele>827.8</ele>
        <time>2025-09-08T08:41:58Z</time>
      </trkpt>
      <trkpt lat="48.08661" lon="7.09345">
        <ele>828.2</ele>
        <time>2025-09-08T08:41:59Z</time>
      </trkpt>
      <trkpt lat="48.08659" lon="7.09349">
        <ele>828.8</ele>
        <time>2025-09-08T08:42:00Z</time>
      </trkpt>
      <trkpt lat="48.08657" lon="7.09352">
        <ele>828.8</ele>
        <time>2025-09-08T08:42:01Z</time>
      </trkpt>
      <trkpt lat="48.08655" lon="7.09356">
        <ele>829</ele>
        <time>2025-09-08T08:42:02Z</time>
      </trkpt>
      <trkpt lat="48.08653" lon="7.0936">
        <ele>829.4</ele>
        <time>2025-09-08T08:42:03Z</time>
      </trkpt>
      <trkpt lat="48.08651" lon="7.09365">
        <ele>829.4</ele>
        <time>2025-09-08T08:42:04Z</time>
      </trkpt>
      <trkpt lat="48.0865" lon="7.0937">
        <ele>829.6</ele>
        <time>2025-09-08T08:42:05Z</time>
      </trkpt>
      <trkpt lat="48.08648" lon="7.09374">
        <ele>829.8</ele>
        <time>2025-09-08T08:42:06Z</time>
      </trkpt>
      <trkpt lat="48.08647" lon="7.09379">
        <ele>830</ele>
        <time>2025-09-08T08:42:07Z</time>
      </trkpt>
      <trkpt lat="48.08644" lon="7.09383">
        <ele>830.4</ele>
        <time>2025-09-08T08:42:08Z</time>
      </trkpt>
      <trkpt lat="48.08642" lon="7.09387">
        <ele>830.8</ele>
        <time>2025-09-08T08:42:09Z</time>
      </trkpt>
      <trkpt lat="48.0864" lon="7.09391">
        <ele>831</ele>
        <time>2025-09-08T08:42:10Z</time>
      </trkpt>
      <trkpt lat="48.08639" lon="7.09395">
        <ele>831.6</ele>
        <time>2025-09-08T08:42:11Z</time>
      </trkpt>
      <trkpt lat="48.08637" lon="7.09399">
        <ele>831.8</ele>
        <time>2025-09-08T08:42:12Z</time>
      </trkpt>
      <trkpt lat="48.08636" lon="7.09403">
        <ele>832.2</ele>
        <time>2025-09-08T08:42:13Z</time>
      </trkpt>
      <trkpt lat="48.08634" lon="7.09407">
        <ele>832.6</ele>
        <time>2025-09-08T08:42:14Z</time>
      </trkpt>
      <trkpt lat="48.08632" lon="7.09411">
        <ele>832.8</ele>
        <time>2025-09-08T08:42:15Z</time>
      </trkpt>
      <trkpt lat="48.08631" lon="7.09415">
        <ele>833.4</ele>
        <time>2025-09-08T08:42:16Z</time>
      </trkpt>
      <trkpt lat="48.08629" lon="7.09419">
        <ele>833.6</ele>
        <time>2025-09-08T08:42:17Z</time>
      </trkpt>
      <trkpt lat="48.08628" lon="7.09424">
        <ele>834</ele>
        <time>2025-09-08T08:42:18Z</time>
      </trkpt>
      <trkpt lat="48.08627" lon="7.09428">
        <ele>834.4</ele>
        <time>2025-09-08T08:42:19Z</time>
      </trkpt>
      <trkpt lat="48.08626" lon="7.09433">
        <ele>834.6</ele>
        <time>2025-09-08T08:42:20Z</time>
      </trkpt>
      <trkpt lat="48.08625" lon="7.09437">
        <ele>834.8</ele>
        <time>2025-09-08T08:42:21Z</time>
      </trkpt>
      <trkpt lat="48.08625" lon="7.09443">
        <ele>835.4</ele>
        <time>2025-09-08T08:42:22Z</time>
      </trkpt>
      <trkpt lat="48.08625" lon="7.09448">
        <ele>835.6</ele>
        <time>2025-09-08T08:42:23Z</time>
      </trkpt>
      <trkpt lat="48.08625" lon="7.09453">
        <ele>835.8</ele>
        <time>2025-09-08T08:42:24Z</time>
      </trkpt>
      <trkpt lat="48.08625" lon="7.09459">
        <ele>836.2</ele>
        <time>2025-09-08T08:42:25Z</time>
      </trkpt>
      <trkpt lat="48.08626" lon="7.09464">
        <ele>836.4</ele>
        <time>2025-09-08T08:42:26Z</time>
      </trkpt>
      <trkpt lat="48.08627" lon="7.09468">
        <ele>836.6</ele>
        <time>2025-09-08T08:42:27Z</time>
      </trkpt>
      <trkpt lat="48.08628" lon="7.09473">
        <ele>837</ele>
        <time>2025-09-08T08:42:28Z</time>
      </trkpt>
      <trkpt lat="48.0863" lon="7.09477">
        <ele>837.4</ele>
        <time>2025-09-08T08:42:29Z</time>
      </trkpt>
      <trkpt lat="48.08632" lon="7.09481">
        <ele>837.6</ele>
        <time>2025-09-08T08:42:30Z</time>
      </trkpt>
      <trkpt lat="48.08634" lon="7.09485">
        <ele>837.8</ele>
        <time>2025-09-08T08:42:31Z</time>
      </trkpt>
      <trkpt lat="48.08636" lon="7.09488">
        <ele>838</ele>
        <time>2025-09-08T08:42:32Z</time>
      </trkpt>
      <trkpt lat="48.08639" lon="7.09491">
        <ele>838.2</ele>
        <time>2025-09-08T08:42:33Z</time>
      </trkpt>
      <trkpt lat="48.08641" lon="7.09495">
        <ele>838.4</ele>
        <time>2025-09-08T08:42:34Z</time>
      </trkpt>
      <trkpt lat="48.08643" lon="7.095">
        <ele>838.8</ele>
        <time>2025-09-08T08:42:35Z</time>
      </trkpt>
      <trkpt lat="48.08645" lon="7.09505">
        <ele>839</ele>
        <time>2025-09-08T08:42:36Z</time>
      </trkpt>
      <trkpt lat="48.08647" lon="7.0951">
        <ele>839.2</ele>
        <time>2025-09-08T08:42:37Z</time>
      </trkpt>
      <trkpt lat="48.08648" lon="7.09514">
        <ele>839.4</ele>
        <time>2025-09-08T08:42:38Z</time>
      </trkpt>
      <trkpt lat="48.0865" lon="7.09518">
        <ele>839.4</ele>
        <time>2025-09-08T08:42:39Z</time>
      </trkpt>
      <trkpt lat="48.08652" lon="7.09522">
        <ele>839.6</ele>
        <time>2025-09-08T08:42:40Z</time>
      </trkpt>
      <trkpt lat="48.08654" lon="7.09527">
        <ele>839.8</ele>
        <time>2025-09-08T08:42:41Z</time>
      </trkpt>
      <trkpt lat="48.08657" lon="7.09531">
        <ele>840</ele>
        <time>2025-09-08T08:42:42Z</time>
      </trkpt>
      <trkpt lat="48.08659" lon="7.09534">
        <ele>840.2</ele>
        <time>2025-09-08T08:42:43Z</time>
      </trkpt>
      <trkpt lat="48.08661" lon="7.09538">
        <ele>840.4</ele>
        <time>2025-09-08T08:42:44Z</time>
      </trkpt>
      <trkpt lat="48.08664" lon="7.09542">
        <ele>840.8</ele>
        <time>2025-09-08T08:42:45Z</time>
      </trkpt>
      <trkpt lat="48.08667" lon="7.09545">
        <ele>841.2</ele>
        <time>2025-09-08T08:42:46Z</time>
      </trkpt>
      <trkpt lat="48.08669" lon="7.09549">
        <ele>841.4</ele>
        <time>2025-09-08T08:42:47Z</time>
      </trkpt>
      <trkpt lat="48.08672" lon="7.09552">
        <ele>841.6</ele>
        <time>2025-09-08T08:42:48Z</time>
      </trkpt>
      <trkpt lat="48.08675" lon="7.09556">
        <ele>841.8</ele>
        <time>2025-09-08T08:42:49Z</time>
      </trkpt>
      <trkpt lat="48.08677" lon="7.0956">
        <ele>842.2</ele>
        <time>2025-09-08T08:42:50Z</time>
      </trkpt>
      <trkpt lat="48.0868" lon="7.09564">
        <ele>842.2</ele>
        <time>2025-09-08T08:42:51Z</time>
      </trkpt>
      <trkpt lat="48.08682" lon="7.09567">
        <ele>842.4</ele>
        <time>2025-09-08T08:42:52Z</time>
      </trkpt>
      <trkpt lat="48.08685" lon="7.09572">
        <ele>842.8</ele>
        <time>2025-09-08T08:42:53Z</time>
      </trkpt>
      <trkpt lat="48.08688" lon="7.09575">
        <ele>842.8</ele>
        <time>2025-09-08T08:42:54Z</time>
      </trkpt>
      <trkpt lat="48.08691" lon="7.09579">
        <ele>843.4</ele>
        <time>2025-09-08T08:42:55Z</time>
      </trkpt>
      <trkpt lat="48.08693" lon="7.09582">
        <ele>843.4</ele>
        <time>2025-09-08T08:42:56Z</time>
      </trkpt>
      <trkpt lat="48.08696" lon="7.09586">
        <ele>843.6</ele>
        <time>2025-09-08T08:42:57Z</time>
      </trkpt>
      <trkpt lat="48.08698" lon="7.09589">
        <ele>843.8</ele>
        <time>2025-09-08T08:42:58Z</time>
      </trkpt>
      <trkpt lat="48.08701" lon="7.09593">
        <ele>844</ele>
        <time>2025-09-08T08:42:59Z</time>
      </trkpt>
      <trkpt lat="48.08703" lon="7.09596">
        <ele>844.4</ele>
        <time>2025-09-08T08:43:00Z</time>
      </trkpt>
      <trkpt lat="48.08706" lon="7.09599">
        <ele>844.6</ele>
        <time>2025-09-08T08:43:01Z</time>
      </trkpt>
      <trkpt lat="48.08709" lon="7.09602">
        <ele>845</ele>
        <time>2025-09-08T08:43:02Z</time>
      </trkpt>
      <trkpt lat="48.08712" lon="7.09605">
        <ele>845.2</ele>
        <time>2025-09-08T08:43:03Z</time>
      </trkpt>
      <trkpt lat="48.08715" lon="7.09609">
        <ele>845.6</ele>
        <time>2025-09-08T08:43:04Z</time>
      </trkpt>
      <trkpt lat="48.08718" lon="7.09613">
        <ele>845.8</ele>
        <time>2025-09-08T08:43:05Z</time>
      </trkpt>
      <trkpt lat="48.08721" lon="7.09616">
        <ele>846.2</ele>
        <time>2025-09-08T08:43:06Z</time>
      </trkpt>
      <trkpt lat="48.08724" lon="7.09619">
        <ele>846.4</ele>
        <time>2025-09-08T08:43:07Z</time>
      </trkpt>
      <trkpt lat="48.08726" lon="7.09621">
        <ele>846.6</ele>
        <time>2025-09-08T08:43:08Z</time>
      </trkpt>
      <trkpt lat="48.08729" lon="7.09624">
        <ele>846.8</ele>
        <time>2025-09-08T08:43:09Z</time>
      </trkpt>
      <trkpt lat="48.08732" lon="7.09627">
        <ele>847</ele>
        <time>2025-09-08T08:43:10Z</time>
      </trkpt>
      <trkpt lat="48.08735" lon="7.0963">
        <ele>847.2</ele>
        <time>2025-09-08T08:43:11Z</time>
      </trkpt>
      <trkpt lat="48.08738" lon="7.09633">
        <ele>847.6</ele>
        <time>2025-09-08T08:43:12Z</time>
      </trkpt>
      <trkpt lat="48.08741" lon="7.09636">
        <ele>847.8</ele>
        <time>2025-09-08T08:43:13Z</time>
      </trkpt>
      <trkpt lat="48.08744" lon="7.09639">
        <ele>848</ele>
        <time>2025-09-08T08:43:14Z</time>
      </trkpt>
      <trkpt lat="48.08747" lon="7.09641">
        <ele>848.2</ele>
        <time>2025-09-08T08:43:15Z</time>
      </trkpt>
      <trkpt lat="48.08751" lon="7.09644">
        <ele>848.4</ele>
        <time>2025-09-08T08:43:16Z</time>
      </trkpt>
      <trkpt lat="48.08754" lon="7.09646">
        <ele>848.6</ele>
        <time>2025-09-08T08:43:17Z</time>
      </trkpt>
      <trkpt lat="48.08758" lon="7.09648">
        <ele>849</ele>
        <time>2025-09-08T08:43:18Z</time>
      </trkpt>
      <trkpt lat="48.08761" lon="7.0965">
        <ele>849.2</ele>
        <time>2025-09-08T08:43:19Z</time>
      </trkpt>
      <trkpt lat="48.08765" lon="7.09651">
        <ele>849.4</ele>
        <time>2025-09-08T08:43:20Z</time>
      </trkpt>
      <trkpt lat="48.08768" lon="7.09653">
        <ele>849.8</ele>
        <time>2025-09-08T08:43:21Z</time>
      </trkpt>
      <trkpt lat="48.08772" lon="7.09655">
        <ele>850</ele>
        <time>2025-09-08T08:43:22Z</time>
      </trkpt>
      <trkpt lat="48.08776" lon="7.09658">
        <ele>850.2</ele>
        <time>2025-09-08T08:43:23Z</time>
      </trkpt>
      <trkpt lat="48.08779" lon="7.09661">
        <ele>850.4</ele>
        <time>2025-09-08T08:43:24Z</time>
      </trkpt>
      <trkpt lat="48.08783" lon="7.09663">
        <ele>850.6</ele>
        <time>2025-09-08T08:43:25Z</time>
      </trkpt>
      <trkpt lat="48.08786" lon="7.09666">
        <ele>850.8</ele>
        <time>2025-09-08T08:43:26Z</time>
      </trkpt>
      <trkpt lat="48.0879" lon="7.09669">
        <ele>851</ele>
        <time>2025-09-08T08:43:27Z</time>
      </trkpt>
      <trkpt lat="48.08793" lon="7.09672">
        <ele>851</ele>
        <time>2025-09-08T08:43:28Z</time>
      </trkpt>
      <trkpt lat="48.08797" lon="7.09675">
        <ele>851.2</ele>
        <time>2025-09-08T08:43:29Z</time>
      </trkpt>
      <trkpt lat="48.08801" lon="7.09678">
        <ele>851.2</ele>
        <time>2025-09-08T08:43:30Z</time>
      </trkpt>
      <trkpt lat="48.08805" lon="7.09681">
        <ele>851.2</ele>
        <time>2025-09-08T08:43:31Z</time>
      </trkpt>
      <trkpt lat="48.08808" lon="7.09684">
        <ele>851.2</ele>
        <time>2025-09-08T08:43:32Z</time>
      </trkpt>
      <trkpt lat="48.08811" lon="7.09687">
        <ele>851.4</ele>
        <time>2025-09-08T08:43:33Z</time>
      </trkpt>
      <trkpt lat="48.08815" lon="7.09691">
        <ele>851.4</ele>
        <time>2025-09-08T08:43:34Z</time>
      </trkpt>
      <trkpt lat="48.08819" lon="7.09693">
        <ele>851.4</ele>
        <time>2025-09-08T08:43:35Z</time>
      </trkpt>
      <trkpt lat="48.08823" lon="7.09696">
        <ele>851.4</ele>
        <time>2025-09-08T08:43:36Z</time>
      </trkpt>
      <trkpt lat="48.08828" lon="7.09699">
        <ele>851.4</ele>
        <time>2025-09-08T08:43:37Z</time>
      </trkpt>
      <trkpt lat="48.08832" lon="7.09701">
        <ele>851.4</ele>
        <time>2025-09-08T08:43:38Z</time>
      </trkpt>
      <trkpt lat="48.08837" lon="7.09702">
        <ele>851.4</ele>
        <time>2025-09-08T08:43:39Z</time>
      </trkpt>
      <trkpt lat="48.08841" lon="7.09704">
        <ele>851.6</ele>
        <time>2025-09-08T08:43:40Z</time>
      </trkpt>
      <trkpt lat="48.08846" lon="7.09706">
        <ele>851.6</ele>
        <time>2025-09-08T08:43:41Z</time>
      </trkpt>
      <trkpt lat="48.0885" lon="7.09707">
        <ele>851.6</ele>
        <time>2025-09-08T08:43:42Z</time>
      </trkpt>
      <trkpt lat="48.08855" lon="7.0971">
        <ele>851.6</ele>
        <time>2025-09-08T08:43:43Z</time>
      </trkpt>
      <trkpt lat="48.08859" lon="7.09713">
        <ele>851.6</ele>
        <time>2025-09-08T08:43:44Z</time>
      </trkpt>
      <trkpt lat="48.08864" lon="7.09715">
        <ele>851.6</ele>
        <time>2025-09-08T08:43:45Z</time>
      </trkpt>
      <trkpt lat="48.08868" lon="7.09718">
        <ele>851.8</ele>
        <time>2025-09-08T08:43:46Z</time>
      </trkpt>
      <trkpt lat="48.08873" lon="7.0972">
        <ele>851.8</ele>
        <time>2025-09-08T08:43:47Z</time>
      </trkpt>
      <trkpt lat="48.08877" lon="7.09723">
        <ele>851.8</ele>
        <time>2025-09-08T08:43:48Z</time>
      </trkpt>
      <trkpt lat="48.08881" lon="7.09725">
        <ele>851.8</ele>
        <time>2025-09-08T08:43:49Z</time>
      </trkpt>
      <trkpt lat="48.08886" lon="7.09728">
        <ele>852</ele>
        <time>2025-09-08T08:43:50Z</time>
      </trkpt>
      <trkpt lat="48.0889" lon="7.0973">
        <ele>852</ele>
        <time>2025-09-08T08:43:51Z</time>
      </trkpt>
      <trkpt lat="48.08895" lon="7.09733">
        <ele>852</ele>
        <time>2025-09-08T08:43:52Z</time>
      </trkpt>
      <trkpt lat="48.08899" lon="7.09736">
        <ele>852</ele>
        <time>2025-09-08T08:43:53Z</time>
      </trkpt>
      <trkpt lat="48.08904" lon="7.09738">
        <ele>852</ele>
        <time>2025-09-08T08:43:54Z</time>
      </trkpt>
      <trkpt lat="48.08909" lon="7.09739">
        <ele>852</ele>
        <time>2025-09-08T08:43:55Z</time>
      </trkpt>
      <trkpt lat="48.08914" lon="7.0974">
        <ele>852</ele>
        <time>2025-09-08T08:43:56Z</time>
      </trkpt>
      <trkpt lat="48.08919" lon="7.09741">
        <ele>852</ele>
        <time>2025-09-08T08:43:57Z</time>
      </trkpt>
      <trkpt lat="48.08924" lon="7.09743">
        <ele>852.2</ele>
        <time>2025-09-08T08:43:58Z</time>
      </trkpt>
      <trkpt lat="48.08929" lon="7.09744">
        <ele>852.2</ele>
        <time>2025-09-08T08:43:59Z</time>
      </trkpt>
      <trkpt lat="48.08934" lon="7.09745">
        <ele>852.2</ele>
        <time>2025-09-08T08:44:00Z</time>
      </trkpt>
      <trkpt lat="48.08939" lon="7.09746">
        <ele>852.2</ele>
        <time>2025-09-08T08:44:01Z</time>
      </trkpt>
      <trkpt lat="48.08945" lon="7.09747">
        <ele>852.2</ele>
        <time>2025-09-08T08:44:02Z</time>
      </trkpt>
      <trkpt lat="48.0895" lon="7.09748">
        <ele>852.2</ele>
        <time>2025-09-08T08:44:03Z</time>
      </trkpt>
      <trkpt lat="48.08955" lon="7.09748">
        <ele>852.2</ele>
        <time>2025-09-08T08:44:04Z</time>
      </trkpt>
      <trkpt lat="48.08961" lon="7.09748">
        <ele>852.4</ele>
        <time>2025-09-08T08:44:05Z</time>
      </trkpt>
      <trkpt lat="48.08966" lon="7.09749">
        <ele>852.4</ele>
        <time>2025-09-08T08:44:06Z</time>
      </trkpt>
      <trkpt lat="48.08971" lon="7.09749">
        <ele>852.4</ele>
        <time>2025-09-08T08:44:07Z</time>
      </trkpt>
      <trkpt lat="48.08977" lon="7.09749">
        <ele>852.4</ele>
        <time>2025-09-08T08:44:08Z</time>
      </trkpt>
      <trkpt lat="48.08982" lon="7.0975">
        <ele>852.4</ele>
        <time>2025-09-08T08:44:09Z</time>
      </trkpt>
      <trkpt lat="48.08987" lon="7.0975">
        <ele>852.4</ele>
        <time>2025-09-08T08:44:10Z</time>
      </trkpt>
      <trkpt lat="48.08992" lon="7.09751">
        <ele>852.4</ele>
        <time>2025-09-08T08:44:11Z</time>
      </trkpt>
      <trkpt lat="48.08998" lon="7.09751">
        <ele>852.4</ele>
        <time>2025-09-08T08:44:12Z</time>
      </trkpt>
      <trkpt lat="48.09002" lon="7.09751">
        <ele>852.4</ele>
        <time>2025-09-08T08:44:13Z</time>
      </trkpt>
      <trkpt lat="48.09008" lon="7.09752">
        <ele>852.4</ele>
        <time>2025-09-08T08:44:14Z</time>
      </trkpt>
      <trkpt lat="48.09013" lon="7.09752">
        <ele>852.4</ele>
        <time>2025-09-08T08:44:15Z</time>
      </trkpt>
      <trkpt lat="48.09018" lon="7.09753">
        <ele>852.6</ele>
        <time>2025-09-08T08:44:16Z</time>
      </trkpt>
      <trkpt lat="48.09023" lon="7.09753">
        <ele>852.6</ele>
        <time>2025-09-08T08:44:17Z</time>
      </trkpt>
      <trkpt lat="48.09028" lon="7.09753">
        <ele>852.8</ele>
        <time>2025-09-08T08:44:18Z</time>
      </trkpt>
      <trkpt lat="48.09033" lon="7.09753">
        <ele>852.8</ele>
        <time>2025-09-08T08:44:19Z</time>
      </trkpt>
      <trkpt lat="48.09038" lon="7.09752">
        <ele>853</ele>
        <time>2025-09-08T08:44:20Z</time>
      </trkpt>
      <trkpt lat="48.09042" lon="7.0975">
        <ele>853</ele>
        <time>2025-09-08T08:44:21Z</time>
      </trkpt>
      <trkpt lat="48.09047" lon="7.09746">
        <ele>853.2</ele>
        <time>2025-09-08T08:44:22Z</time>
      </trkpt>
      <trkpt lat="48.09051" lon="7.09741">
        <ele>853.4</ele>
        <time>2025-09-08T08:44:23Z</time>
      </trkpt>
      <trkpt lat="48.09055" lon="7.09735">
        <ele>853.4</ele>
        <time>2025-09-08T08:44:24Z</time>
      </trkpt>
      <trkpt lat="48.09059" lon="7.0973">
        <ele>853.6</ele>
        <time>2025-09-08T08:44:25Z</time>
      </trkpt>
      <trkpt lat="48.09064" lon="7.09728">
        <ele>853.8</ele>
        <time>2025-09-08T08:44:26Z</time>
      </trkpt>
      <trkpt lat="48.09068" lon="7.09727">
        <ele>854</ele>
        <time>2025-09-08T08:44:27Z</time>
      </trkpt>
      <trkpt lat="48.09073" lon="7.09728">
        <ele>854.2</ele>
        <time>2025-09-08T08:44:28Z</time>
      </trkpt>
      <trkpt lat="48.09077" lon="7.0973">
        <ele>854.4</ele>
        <time>2025-09-08T08:44:29Z</time>
      </trkpt>
      <trkpt lat="48.09081" lon="7.09733">
        <ele>854.6</ele>
        <time>2025-09-08T08:44:30Z</time>
      </trkpt>
      <trkpt lat="48.09085" lon="7.09737">
        <ele>854.8</ele>
        <time>2025-09-08T08:44:31Z</time>
      </trkpt>
      <trkpt lat="48.09089" lon="7.09741">
        <ele>855</ele>
        <time>2025-09-08T08:44:32Z</time>
      </trkpt>
      <trkpt lat="48.09093" lon="7.09743">
        <ele>855.2</ele>
        <time>2025-09-08T08:44:33Z</time>
      </trkpt>
      <trkpt lat="48.09098" lon="7.09745">
        <ele>855.4</ele>
        <time>2025-09-08T08:44:34Z</time>
      </trkpt>
      <trkpt lat="48.09102" lon="7.09748">
        <ele>855.8</ele>
        <time>2025-09-08T08:44:35Z</time>
      </trkpt>
      <trkpt lat="48.09107" lon="7.0975">
        <ele>856.2</ele>
        <time>2025-09-08T08:44:36Z</time>
      </trkpt>
      <trkpt lat="48.09111" lon="7.09752">
        <ele>856.2</ele>
        <time>2025-09-08T08:44:37Z</time>
      </trkpt>
      <trkpt lat="48.09115" lon="7.09754">
        <ele>856.4</ele>
        <time>2025-09-08T08:44:38Z</time>
      </trkpt>
      <trkpt lat="48.0912" lon="7.09756">
        <ele>856.6</ele>
        <time>2025-09-08T08:44:39Z</time>
      </trkpt>
      <trkpt lat="48.09124" lon="7.09758">
        <ele>856.8</ele>
        <time>2025-09-08T08:44:40Z</time>
      </trkpt>
      <trkpt lat="48.09128" lon="7.09759">
        <ele>857</ele>
        <time>2025-09-08T08:44:41Z</time>
      </trkpt>
      <trkpt lat="48.09133" lon="7.09759">
        <ele>857.2</ele>
        <time>2025-09-08T08:44:42Z</time>
      </trkpt>
      <trkpt lat="48.09137" lon="7.09759">
        <ele>857.4</ele>
        <time>2025-09-08T08:44:43Z</time>
      </trkpt>
      <trkpt lat="48.09141" lon="7.09758">
        <ele>857.6</ele>
        <time>2025-09-08T08:44:44Z</time>
      </trkpt>
      <trkpt lat="48.09146" lon="7.09758">
        <ele>858</ele>
        <time>2025-09-08T08:44:45Z</time>
      </trkpt>
      <trkpt lat="48.0915" lon="7.09757">
        <ele>858</ele>
        <time>2025-09-08T08:44:46Z</time>
      </trkpt>
      <trkpt lat="48.09156" lon="7.09756">
        <ele>858.4</ele>
        <time>2025-09-08T08:44:47Z</time>
      </trkpt>
      <trkpt lat="48.09161" lon="7.09755">
        <ele>858.4</ele>
        <time>2025-09-08T08:44:48Z</time>
      </trkpt>
      <trkpt lat="48.09166" lon="7.09753">
        <ele>858.8</ele>
        <time>2025-09-08T08:44:49Z</time>
      </trkpt>
      <trkpt lat="48.09171" lon="7.09752">
        <ele>858.8</ele>
        <time>2025-09-08T08:44:50Z</time>
      </trkpt>
      <trkpt lat="48.09176" lon="7.09753">
        <ele>859</ele>
        <time>2025-09-08T08:44:51Z</time>
      </trkpt>
      <trkpt lat="48.09181" lon="7.09753">
        <ele>859.2</ele>
        <time>2025-09-08T08:44:52Z</time>
      </trkpt>
      <trkpt lat="48.09185" lon="7.09754">
        <ele>859.6</ele>
        <time>2025-09-08T08:44:53Z</time>
      </trkpt>
      <trkpt lat="48.09189" lon="7.09756">
        <ele>859.8</ele>
        <time>2025-09-08T08:44:54Z</time>
      </trkpt>
      <trkpt lat="48.09193" lon="7.0976">
        <ele>860</ele>
        <time>2025-09-08T08:44:55Z</time>
      </trkpt>
      <trkpt lat="48.09197" lon="7.09765">
        <ele>860.2</ele>
        <time>2025-09-08T08:44:56Z</time>
      </trkpt>
      <trkpt lat="48.092" lon="7.09769">
        <ele>860.4</ele>
        <time>2025-09-08T08:44:57Z</time>
      </trkpt>
      <trkpt lat="48.09204" lon="7.09773">
        <ele>860.4</ele>
        <time>2025-09-08T08:44:58Z</time>
      </trkpt>
      <trkpt lat="48.09208" lon="7.09777">
        <ele>860.6</ele>
        <time>2025-09-08T08:44:59Z</time>
      </trkpt>
      <trkpt lat="48.09211" lon="7.0978">
        <ele>861</ele>
        <time>2025-09-08T08:45:00Z</time>
      </trkpt>
      <trkpt lat="48.09214" lon="7.09784">
        <ele>861.4</ele>
        <time>2025-09-08T08:45:01Z</time>
      </trkpt>
      <trkpt lat="48.09218" lon="7.09787">
        <ele>861.6</ele>
        <time>2025-09-08T08:45:02Z</time>
      </trkpt>
      <trkpt lat="48.09221" lon="7.09791">
        <ele>862</ele>
        <time>2025-09-08T08:45:03Z</time>
      </trkpt>
      <trkpt lat="48.09225" lon="7.09794">
        <ele>862.2</ele>
        <time>2025-09-08T08:45:04Z</time>
      </trkpt>
      <trkpt lat="48.09228" lon="7.09798">
        <ele>862.6</ele>
        <time>2025-09-08T08:45:05Z</time>
      </trkpt>
      <trkpt lat="48.09232" lon="7.09801">
        <ele>862.8</ele>
        <time>2025-09-08T08:45:06Z</time>
      </trkpt>
      <trkpt lat="48.09235" lon="7.09804">
        <ele>863</ele>
        <time>2025-09-08T08:45:07Z</time>
      </trkpt>
      <trkpt lat="48.09239" lon="7.09807">
        <ele>863.2</ele>
        <time>2025-09-08T08:45:08Z</time>
      </trkpt>
      <trkpt lat="48.09242" lon="7.09811">
        <ele>863.6</ele>
        <time>2025-09-08T08:45:09Z</time>
      </trkpt>
      <trkpt lat="48.09245" lon="7.09814">
        <ele>863.8</ele>
        <time>2025-09-08T08:45:10Z</time>
      </trkpt>
      <trkpt lat="48.09248" lon="7.09817">
        <ele>864</ele>
        <time>2025-09-08T08:45:11Z</time>
      </trkpt>
      <trkpt lat="48.09252" lon="7.09821">
        <ele>864.2</ele>
        <time>2025-09-08T08:45:12Z</time>
      </trkpt>
      <trkpt lat="48.09256" lon="7.09825">
        <ele>864.4</ele>
        <time>2025-09-08T08:45:13Z</time>
      </trkpt>
      <trkpt lat="48.09259" lon="7.09828">
        <ele>864.8</ele>
        <time>2025-09-08T08:45:14Z</time>
      </trkpt>
      <trkpt lat="48.09262" lon="7.09832">
        <ele>865</ele>
        <time>2025-09-08T08:45:15Z</time>
      </trkpt>
      <trkpt lat="48.09265" lon="7.09837">
        <ele>865.4</ele>
        <time>2025-09-08T08:45:16Z</time>
      </trkpt>
      <trkpt lat="48.09268" lon="7.09842">
        <ele>865.6</ele>
        <time>2025-09-08T08:45:17Z</time>
      </trkpt>
      <trkpt lat="48.0927" lon="7.09849">
        <ele>865.8</ele>
        <time>2025-09-08T08:45:18Z</time>
      </trkpt>
      <trkpt lat="48.09271" lon="7.09855">
        <ele>866</ele>
        <time>2025-09-08T08:45:19Z</time>
      </trkpt>
      <trkpt lat="48.09272" lon="7.09861">
        <ele>866.2</ele>
        <time>2025-09-08T08:45:20Z</time>
      </trkpt>
      <trkpt lat="48.09272" lon="7.09868">
        <ele>866.2</ele>
        <time>2025-09-08T08:45:21Z</time>
      </trkpt>
      <trkpt lat="48.09272" lon="7.09874">
        <ele>866.2</ele>
        <time>2025-09-08T08:45:22Z</time>
      </trkpt>
      <trkpt lat="48.09273" lon="7.09881">
        <ele>866.2</ele>
        <time>2025-09-08T08:45:23Z</time>
      </trkpt>
      <trkpt lat="48.09274" lon="7.09888">
        <ele>866.4</ele>
        <time>2025-09-08T08:45:24Z</time>
      </trkpt>
      <trkpt lat="48.09275" lon="7.09894">
        <ele>866.4</ele>
        <time>2025-09-08T08:45:25Z</time>
      </trkpt>
      <trkpt lat="48.09276" lon="7.099">
        <ele>866.4</ele>
        <time>2025-09-08T08:45:26Z</time>
      </trkpt>
      <trkpt lat="48.09277" lon="7.09906">
        <ele>866.6</ele>
        <time>2025-09-08T08:45:27Z</time>
      </trkpt>
      <trkpt lat="48.09279" lon="7.09913">
        <ele>866.8</ele>
        <time>2025-09-08T08:45:28Z</time>
      </trkpt>
      <trkpt lat="48.0928" lon="7.09919">
        <ele>866.8</ele>
        <time>2025-09-08T08:45:29Z</time>
      </trkpt>
      <trkpt lat="48.09281" lon="7.09925">
        <ele>867</ele>
        <time>2025-09-08T08:45:30Z</time>
      </trkpt>
      <trkpt lat="48.09282" lon="7.09931">
        <ele>867.2</ele>
        <time>2025-09-08T08:45:31Z</time>
      </trkpt>
      <trkpt lat="48.09283" lon="7.09937">
        <ele>867.4</ele>
        <time>2025-09-08T08:45:32Z</time>
      </trkpt>
      <trkpt lat="48.09284" lon="7.09944">
        <ele>867.4</ele>
        <time>2025-09-08T08:45:33Z</time>
      </trkpt>
      <trkpt lat="48.09285" lon="7.09951">
        <ele>867.4</ele>
        <time>2025-09-08T08:45:34Z</time>
      </trkpt>
      <trkpt lat="48.09285" lon="7.09959">
        <ele>867.4</ele>
        <time>2025-09-08T08:45:35Z</time>
      </trkpt>
      <trkpt lat="48.09286" lon="7.09967">
        <ele>867.4</ele>
        <time>2025-09-08T08:45:36Z</time>
      </trkpt>
      <trkpt lat="48.09286" lon="7.09974">
        <ele>867.4</ele>
        <time>2025-09-08T08:45:37Z</time>
      </trkpt>
      <trkpt lat="48.09286" lon="7.09982">
        <ele>867.4</ele>
        <time>2025-09-08T08:45:38Z</time>
      </trkpt>
      <trkpt lat="48.09287" lon="7.0999">
        <ele>867.2</ele>
        <time>2025-09-08T08:45:39Z</time>
      </trkpt>
      <trkpt lat="48.09288" lon="7.09998">
        <ele>867.2</ele>
        <time>2025-09-08T08:45:40Z</time>
      </trkpt>
      <trkpt lat="48.09289" lon="7.10006">
        <ele>867.2</ele>
        <time>2025-09-08T08:45:41Z</time>
      </trkpt>
      <trkpt lat="48.09291" lon="7.10013">
        <ele>867.2</ele>
        <time>2025-09-08T08:45:42Z</time>
      </trkpt>
      <trkpt lat="48.09292" lon="7.1002">
        <ele>867.2</ele>
        <time>2025-09-08T08:45:43Z</time>
      </trkpt>
      <trkpt lat="48.09293" lon="7.10028">
        <ele>867.4</ele>
        <time>2025-09-08T08:45:44Z</time>
      </trkpt>
      <trkpt lat="48.09294" lon="7.10035">
        <ele>867.4</ele>
        <time>2025-09-08T08:45:45Z</time>
      </trkpt>
      <trkpt lat="48.09295" lon="7.10042">
        <ele>867.4</ele>
        <time>2025-09-08T08:45:46Z</time>
      </trkpt>
      <trkpt lat="48.09296" lon="7.10049">
        <ele>867.4</ele>
        <time>2025-09-08T08:45:47Z</time>
      </trkpt>
      <trkpt lat="48.09297" lon="7.10056">
        <ele>867.6</ele>
        <time>2025-09-08T08:45:48Z</time>
      </trkpt>
      <trkpt lat="48.09298" lon="7.10063">
        <ele>867.8</ele>
        <time>2025-09-08T08:45:49Z</time>
      </trkpt>
      <trkpt lat="48.09299" lon="7.1007">
        <ele>867.8</ele>
        <time>2025-09-08T08:45:50Z</time>
      </trkpt>
      <trkpt lat="48.093" lon="7.10076">
        <ele>868</ele>
        <time>2025-09-08T08:45:51Z</time>
      </trkpt>
      <trkpt lat="48.09302" lon="7.10083">
        <ele>868.2</ele>
        <time>2025-09-08T08:45:52Z</time>
      </trkpt>
      <trkpt lat="48.09303" lon="7.1009">
        <ele>868.4</ele>
        <time>2025-09-08T08:45:53Z</time>
      </trkpt>
      <trkpt lat="48.09305" lon="7.10096">
        <ele>868.4</ele>
        <time>2025-09-08T08:45:54Z</time>
      </trkpt>
      <trkpt lat="48.09308" lon="7.10103">
        <ele>868.6</ele>
        <time>2025-09-08T08:45:55Z</time>
      </trkpt>
      <trkpt lat="48.0931" lon="7.10108">
        <ele>868.8</ele>
        <time>2025-09-08T08:45:56Z</time>
      </trkpt>
      <trkpt lat="48.09312" lon="7.10114">
        <ele>869</ele>
        <time>2025-09-08T08:45:57Z</time>
      </trkpt>
      <trkpt lat="48.09314" lon="7.1012">
        <ele>869</ele>
        <time>2025-09-08T08:45:58Z</time>
      </trkpt>
      <trkpt lat="48.09315" lon="7.10126">
        <ele>869.2</ele>
        <time>2025-09-08T08:45:59Z</time>
      </trkpt>
      <trkpt lat="48.09315" lon="7.10132">
        <ele>869.6</ele>
        <time>2025-09-08T08:46:00Z</time>
      </trkpt>
      <trkpt lat="48.09313" lon="7.10138">
        <ele>869.8</ele>
        <time>2025-09-08T08:46:01Z</time>
      </trkpt>
      <trkpt lat="48.09311" lon="7.10142">
        <ele>870.2</ele>
        <time>2025-09-08T08:46:02Z</time>
      </trkpt>
      <trkpt lat="48.09308" lon="7.10147">
        <ele>870.2</ele>
        <time>2025-09-08T08:46:03Z</time>
      </trkpt>
      <trkpt lat="48.09306" lon="7.1015">
        <ele>870.6</ele>
        <time>2025-09-08T08:46:04Z</time>
      </trkpt>
      <trkpt lat="48.09302" lon="7.10154">
        <ele>871</ele>
        <time>2025-09-08T08:46:05Z</time>
      </trkpt>
      <trkpt lat="48.09299" lon="7.10158">
        <ele>871.2</ele>
        <time>2025-09-08T08:46:06Z</time>
      </trkpt>
      <trkpt lat="48.09296" lon="7.10162">
        <ele>871.4</ele>
        <time>2025-09-08T08:46:07Z</time>
      </trkpt>
      <trkpt lat="48.09293" lon="7.10167">
        <ele>871.6</ele>
        <time>2025-09-08T08:46:08Z</time>
      </trkpt>
      <trkpt lat="48.0929" lon="7.10171">
        <ele>871.8</ele>
        <time>2025-09-08T08:46:09Z</time>
      </trkpt>
      <trkpt lat="48.09286" lon="7.10177">
        <ele>872</ele>
        <time>2025-09-08T08:46:10Z</time>
      </trkpt>
      <trkpt lat="48.09283" lon="7.10181">
        <ele>872.2</ele>
        <time>2025-09-08T08:46:11Z</time>
      </trkpt>
      <trkpt lat="48.0928" lon="7.10186">
        <ele>872.4</ele>
        <time>2025-09-08T08:46:12Z</time>
      </trkpt>
      <trkpt lat="48.09277" lon="7.1019">
        <ele>872.6</ele>
        <time>2025-09-08T08:46:13Z</time>
      </trkpt>
      <trkpt lat="48.09274" lon="7.10195">
        <ele>872.6</ele>
        <time>2025-09-08T08:46:14Z</time>
      </trkpt>
      <trkpt lat="48.09271" lon="7.10199">
        <ele>872.8</ele>
        <time>2025-09-08T08:46:15Z</time>
      </trkpt>
      <trkpt lat="48.09268" lon="7.10204">
        <ele>873</ele>
        <time>2025-09-08T08:46:16Z</time>
      </trkpt>
      <trkpt lat="48.09265" lon="7.10208">
        <ele>873.2</ele>
        <time>2025-09-08T08:46:17Z</time>
      </trkpt>
      <trkpt lat="48.09262" lon="7.10212">
        <ele>873.2</ele>
        <time>2025-09-08T08:46:18Z</time>
      </trkpt>
      <trkpt lat="48.09258" lon="7.10217">
        <ele>873.4</ele>
        <time>2025-09-08T08:46:19Z</time>
      </trkpt>
      <trkpt lat="48.09255" lon="7.10221">
        <ele>873.6</ele>
        <time>2025-09-08T08:46:20Z</time>
      </trkpt>
      <trkpt lat="48.09252" lon="7.10226">
        <ele>873.8</ele>
        <time>2025-09-08T08:46:21Z</time>
      </trkpt>
      <trkpt lat="48.09249" lon="7.1023">
        <ele>873.8</ele>
        <time>2025-09-08T08:46:22Z</time>
      </trkpt>
      <trkpt lat="48.09246" lon="7.10234">
        <ele>874.4</ele>
        <time>2025-09-08T08:46:23Z</time>
      </trkpt>
      <trkpt lat="48.09243" lon="7.10237">
        <ele>874.6</ele>
        <time>2025-09-08T08:46:24Z</time>
      </trkpt>
      <trkpt lat="48.0924" lon="7.10241">
        <ele>874.8</ele>
        <time>2025-09-08T08:46:25Z</time>
      </trkpt>
      <trkpt lat="48.09237" lon="7.10245">
        <ele>875.4</ele>
        <time>2025-09-08T08:46:26Z</time>
      </trkpt>
      <trkpt lat="48.09234" lon="7.10249">
        <ele>875.6</ele>
        <time>2025-09-08T08:46:27Z</time>
      </trkpt>
      <trkpt lat="48.09231" lon="7.10253">
        <ele>875.8</ele>
        <time>2025-09-08T08:46:28Z</time>
      </trkpt>
      <trkpt lat="48.09228" lon="7.10258">
        <ele>876</ele>
        <time>2025-09-08T08:46:29Z</time>
      </trkpt>
      <trkpt lat="48.09225" lon="7.10262">
        <ele>876.4</ele>
        <time>2025-09-08T08:46:30Z</time>
      </trkpt>
      <trkpt lat="48.09222" lon="7.10266">
        <ele>876.6</ele>
        <time>2025-09-08T08:46:31Z</time>
      </trkpt>
      <trkpt lat="48.09219" lon="7.10271">
        <ele>877</ele>
        <time>2025-09-08T08:46:32Z</time>
      </trkpt>
      <trkpt lat="48.09216" lon="7.10274">
        <ele>877.2</ele>
        <time>2025-09-08T08:46:33Z</time>
      </trkpt>
      <trkpt lat="48.09213" lon="7.10277">
        <ele>877.4</ele>
        <time>2025-09-08T08:46:34Z</time>
      </trkpt>
      <trkpt lat="48.0921" lon="7.10281">
        <ele>877.6</ele>
        <time>2025-09-08T08:46:35Z</time>
      </trkpt>
      <trkpt lat="48.09207" lon="7.10285">
        <ele>877.8</ele>
        <time>2025-09-08T08:46:36Z</time>
      </trkpt>
      <trkpt lat="48.09204" lon="7.10288">
        <ele>878.2</ele>
        <time>2025-09-08T08:46:37Z</time>
      </trkpt>
      <trkpt lat="48.09201" lon="7.10292">
        <ele>878.4</ele>
        <time>2025-09-08T08:46:38Z</time>
      </trkpt>
      <trkpt lat="48.09198" lon="7.10295">
        <ele>878.8</ele>
        <time>2025-09-08T08:46:39Z</time>
      </trkpt>
      <trkpt lat="48.09194" lon="7.10297">
        <ele>879</ele>
        <time>2025-09-08T08:46:40Z</time>
      </trkpt>
      <trkpt lat="48.09191" lon="7.103">
        <ele>879.2</ele>
        <time>2025-09-08T08:46:41Z</time>
      </trkpt>
      <trkpt lat="48.09187" lon="7.10303">
        <ele>879.4</ele>
        <time>2025-09-08T08:46:42Z</time>
      </trkpt>
      <trkpt lat="48.09184" lon="7.10307">
        <ele>879.8</ele>
        <time>2025-09-08T08:46:43Z</time>
      </trkpt>
      <trkpt lat="48.0918" lon="7.1031">
        <ele>880</ele>
        <time>2025-09-08T08:46:44Z</time>
      </trkpt>
      <trkpt lat="48.09177" lon="7.10313">
        <ele>880.2</ele>
        <time>2025-09-08T08:46:45Z</time>
      </trkpt>
      <trkpt lat="48.09173" lon="7.10318">
        <ele>880.4</ele>
        <time>2025-09-08T08:46:46Z</time>
      </trkpt>
      <trkpt lat="48.0917" lon="7.10321">
        <ele>880.8</ele>
        <time>2025-09-08T08:46:47Z</time>
      </trkpt>
      <trkpt lat="48.09167" lon="7.10325">
        <ele>881</ele>
        <time>2025-09-08T08:46:48Z</time>
      </trkpt>
      <trkpt lat="48.09164" lon="7.10329">
        <ele>881.2</ele>
        <time>2025-09-08T08:46:49Z</time>
      </trkpt>
      <trkpt lat="48.09161" lon="7.10332">
        <ele>881.6</ele>
        <time>2025-09-08T08:46:50Z</time>
      </trkpt>
      <trkpt lat="48.09157" lon="7.10334">
        <ele>881.8</ele>
        <time>2025-09-08T08:46:51Z</time>
      </trkpt>
      <trkpt lat="48.09154" lon="7.10337">
        <ele>882</ele>
        <time>2025-09-08T08:46:52Z</time>
      </trkpt>
      <trkpt lat="48.0915" lon="7.1034">
        <ele>882.4</ele>
        <time>2025-09-08T08:46:53Z</time>
      </trkpt>
      <trkpt lat="48.09146" lon="7.10343">
        <ele>882.6</ele>
        <time>2025-09-08T08:46:54Z</time>
      </trkpt>
      <trkpt lat="48.09142" lon="7.10345">
        <ele>883</ele>
        <time>2025-09-08T08:46:55Z</time>
      </trkpt>
      <trkpt lat="48.09139" lon="7.10348">
        <ele>883.2</ele>
        <time>2025-09-08T08:46:56Z</time>
      </trkpt>
      <trkpt lat="48.09135" lon="7.10351">
        <ele>883.2</ele>
        <time>2025-09-08T08:46:57Z</time>
      </trkpt>
      <trkpt lat="48.09131" lon="7.10354">
        <ele>883.2</ele>
        <time>2025-09-08T08:46:58Z</time>
      </trkpt>
      <trkpt lat="48.09128" lon="7.10358">
        <ele>883.4</ele>
        <time>2025-09-08T08:46:59Z</time>
      </trkpt>
      <trkpt lat="48.09124" lon="7.1036">
        <ele>883.6</ele>
        <time>2025-09-08T08:47:00Z</time>
      </trkpt>
      <trkpt lat="48.09121" lon="7.10364">
        <ele>883.8</ele>
        <time>2025-09-08T08:47:01Z</time>
      </trkpt>
      <trkpt lat="48.09117" lon="7.10367">
        <ele>884</ele>
        <time>2025-09-08T08:47:02Z</time>
      </trkpt>
      <trkpt lat="48.09114" lon="7.10371">
        <ele>884.4</ele>
        <time>2025-09-08T08:47:03Z</time>
      </trkpt>
      <trkpt lat="48.0911" lon="7.10373">
        <ele>884.6</ele>
        <time>2025-09-08T08:47:04Z</time>
      </trkpt>
      <trkpt lat="48.09107" lon="7.10376">
        <ele>885</ele>
        <time>2025-09-08T08:47:05Z</time>
      </trkpt>
      <trkpt lat="48.09103" lon="7.10379">
        <ele>885.2</ele>
        <time>2025-09-08T08:47:06Z</time>
      </trkpt>
      <trkpt lat="48.091" lon="7.10382">
        <ele>885.8</ele>
        <time>2025-09-08T08:47:07Z</time>
      </trkpt>
      <trkpt lat="48.09096" lon="7.10385">
        <ele>886</ele>
        <time>2025-09-08T08:47:08Z</time>
      </trkpt>
      <trkpt lat="48.09093" lon="7.10388">
        <ele>886.2</ele>
        <time>2025-09-08T08:47:09Z</time>
      </trkpt>
      <trkpt lat="48.09089" lon="7.10391">
        <ele>886.6</ele>
        <time>2025-09-08T08:47:10Z</time>
      </trkpt>
      <trkpt lat="48.09085" lon="7.10394">
        <ele>887</ele>
        <time>2025-09-08T08:47:11Z</time>
      </trkpt>
      <trkpt lat="48.09082" lon="7.10397">
        <ele>887.2</ele>
        <time>2025-09-08T08:47:12Z</time>
      </trkpt>
      <trkpt lat="48.09078" lon="7.104">
        <ele>887.2</ele>
        <time>2025-09-08T08:47:13Z</time>
      </trkpt>
      <trkpt lat="48.09074" lon="7.10403">
        <ele>887.4</ele>
        <time>2025-09-08T08:47:14Z</time>
      </trkpt>
      <trkpt lat="48.0907" lon="7.10405">
        <ele>887.8</ele>
        <time>2025-09-08T08:47:15Z</time>
      </trkpt>
      <trkpt lat="48.09066" lon="7.10408">
        <ele>887.8</ele>
        <time>2025-09-08T08:47:16Z</time>
      </trkpt>
      <trkpt lat="48.09062" lon="7.1041">
        <ele>888</ele>
        <time>2025-09-08T08:47:17Z</time>
      </trkpt>
      <trkpt lat="48.09058" lon="7.10413">
        <ele>888</ele>
        <time>2025-09-08T08:47:18Z</time>
      </trkpt>
      <trkpt lat="48.09054" lon="7.10416">
        <ele>888.2</ele>
        <time>2025-09-08T08:47:19Z</time>
      </trkpt>
      <trkpt lat="48.0905" lon="7.10419">
        <ele>888.4</ele>
        <time>2025-09-08T08:47:20Z</time>
      </trkpt>
      <trkpt lat="48.09046" lon="7.10421">
        <ele>888.4</ele>
        <time>2025-09-08T08:47:21Z</time>
      </trkpt>
      <trkpt lat="48.09042" lon="7.10423">
        <ele>888.6</ele>
        <time>2025-09-08T08:47:22Z</time>
      </trkpt>
      <trkpt lat="48.09039" lon="7.10426">
        <ele>888.8</ele>
        <time>2025-09-08T08:47:23Z</time>
      </trkpt>
      <trkpt lat="48.09035" lon="7.10427">
        <ele>889</ele>
        <time>2025-09-08T08:47:24Z</time>
      </trkpt>
      <trkpt lat="48.09031" lon="7.1043">
        <ele>889.2</ele>
        <time>2025-09-08T08:47:25Z</time>
      </trkpt>
      <trkpt lat="48.09027" lon="7.10432">
        <ele>889.2</ele>
        <time>2025-09-08T08:47:26Z</time>
      </trkpt>
      <trkpt lat="48.09023" lon="7.10434">
        <ele>889.6</ele>
        <time>2025-09-08T08:47:27Z</time>
      </trkpt>
      <trkpt lat="48.0902" lon="7.10437">
        <ele>889.6</ele>
        <time>2025-09-08T08:47:28Z</time>
      </trkpt>
      <trkpt lat="48.09016" lon="7.10439">
        <ele>889.8</ele>
        <time>2025-09-08T08:47:29Z</time>
      </trkpt>
      <trkpt lat="48.09012" lon="7.10442">
        <ele>890.2</ele>
        <time>2025-09-08T08:47:30Z</time>
      </trkpt>
      <trkpt lat="48.09008" lon="7.10444">
        <ele>890.4</ele>
        <time>2025-09-08T08:47:31Z</time>
      </trkpt>
      <trkpt lat="48.09005" lon="7.10446">
        <ele>890.8</ele>
        <time>2025-09-08T08:47:32Z</time>
      </trkpt>
      <trkpt lat="48.09001" lon="7.10448">
        <ele>891</ele>
        <time>2025-09-08T08:47:33Z</time>
      </trkpt>
      <trkpt lat="48.08997" lon="7.1045">
        <ele>891.2</ele>
        <time>2025-09-08T08:47:34Z</time>
      </trkpt>
      <trkpt lat="48.08993" lon="7.10452">
        <ele>891.6</ele>
        <time>2025-09-08T08:47:35Z</time>
      </trkpt>
      <trkpt lat="48.08989" lon="7.10453">
        <ele>891.8</ele>
        <time>2025-09-08T08:47:36Z</time>
      </trkpt>
      <trkpt lat="48.08985" lon="7.10455">
        <ele>892</ele>
        <time>2025-09-08T08:47:37Z</time>
      </trkpt>
      <trkpt lat="48.0898" lon="7.10457">
        <ele>892.2</ele>
        <time>2025-09-08T08:47:38Z</time>
      </trkpt>
      <trkpt lat="48.08977" lon="7.10459">
        <ele>892.4</ele>
        <time>2025-09-08T08:47:39Z</time>
      </trkpt>
      <trkpt lat="48.08973" lon="7.10461">
        <ele>892.6</ele>
        <time>2025-09-08T08:47:40Z</time>
      </trkpt>
      <trkpt lat="48.08968" lon="7.10462">
        <ele>892.8</ele>
        <time>2025-09-08T08:47:41Z</time>
      </trkpt>
      <trkpt lat="48.08964" lon="7.10463">
        <ele>893.2</ele>
        <time>2025-09-08T08:47:42Z</time>
      </trkpt>
      <trkpt lat="48.0896" lon="7.10464">
        <ele>893.6</ele>
        <time>2025-09-08T08:47:43Z</time>
      </trkpt>
      <trkpt lat="48.08955" lon="7.10465">
        <ele>893.8</ele>
        <time>2025-09-08T08:47:44Z</time>
      </trkpt>
      <trkpt lat="48.08951" lon="7.10465">
        <ele>894.2</ele>
        <time>2025-09-08T08:47:45Z</time>
      </trkpt>
      <trkpt lat="48.08947" lon="7.10467">
        <ele>894.2</ele>
        <time>2025-09-08T08:47:46Z</time>
      </trkpt>
      <trkpt lat="48.08943" lon="7.10467">
        <ele>894.4</ele>
        <time>2025-09-08T08:47:47Z</time>
      </trkpt>
      <trkpt lat="48.08939" lon="7.10468">
        <ele>894.8</ele>
        <time>2025-09-08T08:47:48Z</time>
      </trkpt>
      <trkpt lat="48.08935" lon="7.10469">
        <ele>895</ele>
        <time>2025-09-08T08:47:49Z</time>
      </trkpt>
      <trkpt lat="48.08931" lon="7.10471">
        <ele>895.2</ele>
        <time>2025-09-08T08:47:50Z</time>
      </trkpt>
      <trkpt lat="48.08926" lon="7.10473">
        <ele>895.2</ele>
        <time>2025-09-08T08:47:51Z</time>
      </trkpt>
      <trkpt lat="48.08923" lon="7.10475">
        <ele>895.2</ele>
        <time>2025-09-08T08:47:52Z</time>
      </trkpt>
      <trkpt lat="48.08918" lon="7.10478">
        <ele>895.4</ele>
        <time>2025-09-08T08:47:53Z</time>
      </trkpt>
      <trkpt lat="48.08914" lon="7.1048">
        <ele>895.4</ele>
        <time>2025-09-08T08:47:54Z</time>
      </trkpt>
      <trkpt lat="48.0891" lon="7.10483">
        <ele>895.6</ele>
        <time>2025-09-08T08:47:55Z</time>
      </trkpt>
      <trkpt lat="48.08907" lon="7.10486">
        <ele>895.6</ele>
        <time>2025-09-08T08:47:56Z</time>
      </trkpt>
      <trkpt lat="48.08902" lon="7.10488">
        <ele>895.8</ele>
        <time>2025-09-08T08:47:57Z</time>
      </trkpt>
      <trkpt lat="48.08898" lon="7.10491">
        <ele>895.8</ele>
        <time>2025-09-08T08:47:58Z</time>
      </trkpt>
      <trkpt lat="48.08895" lon="7.10492">
        <ele>895.8</ele>
        <time>2025-09-08T08:47:59Z</time>
      </trkpt>
      <trkpt lat="48.0889" lon="7.10494">
        <ele>896</ele>
        <time>2025-09-08T08:48:00Z</time>
      </trkpt>
      <trkpt lat="48.08886" lon="7.10496">
        <ele>896.2</ele>
        <time>2025-09-08T08:48:01Z</time>
      </trkpt>
      <trkpt lat="48.08882" lon="7.10498">
        <ele>896.4</ele>
        <time>2025-09-08T08:48:02Z</time>
      </trkpt>
      <trkpt lat="48.08878" lon="7.10501">
        <ele>896.4</ele>
        <time>2025-09-08T08:48:03Z</time>
      </trkpt>
      <trkpt lat="48.08873" lon="7.10504">
        <ele>896.6</ele>
        <time>2025-09-08T08:48:04Z</time>
      </trkpt>
      <trkpt lat="48.08869" lon="7.10505">
        <ele>896.6</ele>
        <time>2025-09-08T08:48:05Z</time>
      </trkpt>
      <trkpt lat="48.08865" lon="7.10508">
        <ele>896.8</ele>
        <time>2025-09-08T08:48:06Z</time>
      </trkpt>
      <trkpt lat="48.08861" lon="7.10511">
        <ele>897</ele>
        <time>2025-09-08T08:48:07Z</time>
      </trkpt>
      <trkpt lat="48.08857" lon="7.10513">
        <ele>897</ele>
        <time>2025-09-08T08:48:08Z</time>
      </trkpt>
      <trkpt lat="48.08854" lon="7.10515">
        <ele>897.2</ele>
        <time>2025-09-08T08:48:09Z</time>
      </trkpt>
      <trkpt lat="48.08851" lon="7.10517">
        <ele>897.6</ele>
        <time>2025-09-08T08:48:10Z</time>
      </trkpt>
      <trkpt lat="48.08847" lon="7.10518">
        <ele>897.8</ele>
        <time>2025-09-08T08:48:11Z</time>
      </trkpt>
      <trkpt lat="48.08843" lon="7.1052">
        <ele>898.2</ele>
        <time>2025-09-08T08:48:12Z</time>
      </trkpt>
      <trkpt lat="48.0884" lon="7.10522">
        <ele>898.4</ele>
        <time>2025-09-08T08:48:13Z</time>
      </trkpt>
      <trkpt lat="48.08836" lon="7.10525">
        <ele>898.8</ele>
        <time>2025-09-08T08:48:14Z</time>
      </trkpt>
      <trkpt lat="48.08834" lon="7.10529">
        <ele>899.2</ele>
        <time>2025-09-08T08:48:15Z</time>
      </trkpt>
      <trkpt lat="48.08833" lon="7.10534">
        <ele>899.6</ele>
        <time>2025-09-08T08:48:16Z</time>
      </trkpt>
      <trkpt lat="48.08834" lon="7.1054">
        <ele>899.8</ele>
        <time>2025-09-08T08:48:17Z</time>
      </trkpt>
      <trkpt lat="48.08836" lon="7.10543">
        <ele>900.2</ele>
        <time>2025-09-08T08:48:18Z</time>
      </trkpt>
      <trkpt lat="48.08839" lon="7.10545">
        <ele>900.4</ele>
        <time>2025-09-08T08:48:19Z</time>
      </trkpt>
      <trkpt lat="48.08842" lon="7.10547">
        <ele>901</ele>
        <time>2025-09-08T08:48:20Z</time>
      </trkpt>
      <trkpt lat="48.08844" lon="7.10548">
        <ele>901.6</ele>
        <time>2025-09-08T08:48:21Z</time>
      </trkpt>
      <trkpt lat="48.08847" lon="7.10548">
        <ele>901.8</ele>
        <time>2025-09-08T08:48:22Z</time>
      </trkpt>
      <trkpt lat="48.0885" lon="7.10548">
        <ele>902.2</ele>
        <time>2025-09-08T08:48:23Z</time>
      </trkpt>
      <trkpt lat="48.08854" lon="7.10548">
        <ele>902.6</ele>
        <time>2025-09-08T08:48:24Z</time>
      </trkpt>
      <trkpt lat="48.08857" lon="7.10549">
        <ele>903</ele>
        <time>2025-09-08T08:48:25Z</time>
      </trkpt>
      <trkpt lat="48.08861" lon="7.10548">
        <ele>903.4</ele>
        <time>2025-09-08T08:48:26Z</time>
      </trkpt>
      <trkpt lat="48.08864" lon="7.10549">
        <ele>903.6</ele>
        <time>2025-09-08T08:48:27Z</time>
      </trkpt>
      <trkpt lat="48.08868" lon="7.10548">
        <ele>904</ele>
        <time>2025-09-08T08:48:28Z</time>
      </trkpt>
      <trkpt lat="48.08871" lon="7.10548">
        <ele>904.2</ele>
        <time>2025-09-08T08:48:29Z</time>
      </trkpt>
      <trkpt lat="48.08875" lon="7.10549">
        <ele>904.4</ele>
        <time>2025-09-08T08:48:30Z</time>
      </trkpt>
      <trkpt lat="48.08878" lon="7.1055">
        <ele>904.6</ele>
        <time>2025-09-08T08:48:31Z</time>
      </trkpt>
      <trkpt lat="48.08881" lon="7.1055">
        <ele>905</ele>
        <time>2025-09-08T08:48:32Z</time>
      </trkpt>
      <trkpt lat="48.08885" lon="7.10552">
        <ele>905.2</ele>
        <time>2025-09-08T08:48:33Z</time>
      </trkpt>
      <trkpt lat="48.08888" lon="7.10553">
        <ele>905.4</ele>
        <time>2025-09-08T08:48:34Z</time>
      </trkpt>
      <trkpt lat="48.08891" lon="7.10554">
        <ele>905.8</ele>
        <time>2025-09-08T08:48:35Z</time>
      </trkpt>
      <trkpt lat="48.08894" lon="7.10554">
        <ele>906.2</ele>
        <time>2025-09-08T08:48:36Z</time>
      </trkpt>
      <trkpt lat="48.08898" lon="7.10555">
        <ele>906.4</ele>
        <time>2025-09-08T08:48:37Z</time>
      </trkpt>
      <trkpt lat="48.08901" lon="7.10556">
        <ele>907</ele>
        <time>2025-09-08T08:48:38Z</time>
      </trkpt>
      <trkpt lat="48.08905" lon="7.10557">
        <ele>907.4</ele>
        <time>2025-09-08T08:48:39Z</time>
      </trkpt>
      <trkpt lat="48.08908" lon="7.10559">
        <ele>907.6</ele>
        <time>2025-09-08T08:48:40Z</time>
      </trkpt>
      <trkpt lat="48.08912" lon="7.1056">
        <ele>908</ele>
        <time>2025-09-08T08:48:41Z</time>
      </trkpt>
      <trkpt lat="48.08915" lon="7.10561">
        <ele>908.4</ele>
        <time>2025-09-08T08:48:42Z</time>
      </trkpt>
      <trkpt lat="48.08918" lon="7.10561">
        <ele>908.8</ele>
        <time>2025-09-08T08:48:43Z</time>
      </trkpt>
      <trkpt lat="48.08921" lon="7.10563">
        <ele>909.2</ele>
        <time>2025-09-08T08:48:44Z</time>
      </trkpt>
      <trkpt lat="48.08925" lon="7.10564">
        <ele>909.6</ele>
        <time>2025-09-08T08:48:45Z</time>
      </trkpt>
      <trkpt lat="48.08928" lon="7.10565">
        <ele>909.8</ele>
        <time>2025-09-08T08:48:46Z</time>
      </trkpt>
      <trkpt lat="48.08932" lon="7.10565">
        <ele>910</ele>
        <time>2025-09-08T08:48:47Z</time>
      </trkpt>
      <trkpt lat="48.08935" lon="7.10566">
        <ele>910.6</ele>
        <time>2025-09-08T08:48:48Z</time>
      </trkpt>
      <trkpt lat="48.08939" lon="7.10566">
        <ele>911</ele>
        <time>2025-09-08T08:48:49Z</time>
      </trkpt>
      <trkpt lat="48.08943" lon="7.10567">
        <ele>911.2</ele>
        <time>2025-09-08T08:48:50Z</time>
      </trkpt>
      <trkpt lat="48.08946" lon="7.10568">
        <ele>911.4</ele>
        <time>2025-09-08T08:48:51Z</time>
      </trkpt>
      <trkpt lat="48.08949" lon="7.10569">
        <ele>911.6</ele>
        <time>2025-09-08T08:48:52Z</time>
      </trkpt>
      <trkpt lat="48.08952" lon="7.10569">
        <ele>911.8</ele>
        <time>2025-09-08T08:48:53Z</time>
      </trkpt>
      <trkpt lat="48.08956" lon="7.10569">
        <ele>912.4</ele>
        <time>2025-09-08T08:48:54Z</time>
      </trkpt>
      <trkpt lat="48.08959" lon="7.10569">
        <ele>912.4</ele>
        <time>2025-09-08T08:48:55Z</time>
      </trkpt>
      <trkpt lat="48.08962" lon="7.10569">
        <ele>912.8</ele>
        <time>2025-09-08T08:48:56Z</time>
      </trkpt>
      <trkpt lat="48.08966" lon="7.1057">
        <ele>913.2</ele>
        <time>2025-09-08T08:48:57Z</time>
      </trkpt>
      <trkpt lat="48.08969" lon="7.1057">
        <ele>913.4</ele>
        <time>2025-09-08T08:48:58Z</time>
      </trkpt>
      <trkpt lat="48.08973" lon="7.10569">
        <ele>913.8</ele>
        <time>2025-09-08T08:48:59Z</time>
      </trkpt>
      <trkpt lat="48.08977" lon="7.10569">
        <ele>914</ele>
        <time>2025-09-08T08:49:00Z</time>
      </trkpt>
      <trkpt lat="48.0898" lon="7.10569">
        <ele>914.2</ele>
        <time>2025-09-08T08:49:01Z</time>
      </trkpt>
      <trkpt lat="48.08984" lon="7.10569">
        <ele>914.6</ele>
        <time>2025-09-08T08:49:02Z</time>
      </trkpt>
      <trkpt lat="48.08988" lon="7.10569">
        <ele>914.6</ele>
        <time>2025-09-08T08:49:03Z</time>
      </trkpt>
      <trkpt lat="48.08992" lon="7.10571">
        <ele>915</ele>
        <time>2025-09-08T08:49:04Z</time>
      </trkpt>
      <trkpt lat="48.08994" lon="7.10576">
        <ele>915.2</ele>
        <time>2025-09-08T08:49:05Z</time>
      </trkpt>
      <trkpt lat="48.08994" lon="7.1058">
        <ele>915.2</ele>
        <time>2025-09-08T08:49:06Z</time>
      </trkpt>
      <trkpt lat="48.08993" lon="7.10584">
        <ele>915.4</ele>
        <time>2025-09-08T08:49:07Z</time>
      </trkpt>
      <trkpt lat="48.0899" lon="7.10586">
        <ele>915.6</ele>
        <time>2025-09-08T08:49:08Z</time>
      </trkpt>
      <trkpt lat="48.08986" lon="7.10587">
        <ele>916</ele>
        <time>2025-09-08T08:49:09Z</time>
      </trkpt>
      <trkpt lat="48.08983" lon="7.10588">
        <ele>916.4</ele>
        <time>2025-09-08T08:49:10Z</time>
      </trkpt>
      <trkpt lat="48.0898" lon="7.10589">
        <ele>916.6</ele>
        <time>2025-09-08T08:49:11Z</time>
      </trkpt>
      <trkpt lat="48.08976" lon="7.1059">
        <ele>916.8</ele>
        <time>2025-09-08T08:49:12Z</time>
      </trkpt>
      <trkpt lat="48.08973" lon="7.10592">
        <ele>917</ele>
        <time>2025-09-08T08:49:13Z</time>
      </trkpt>
      <trkpt lat="48.0897" lon="7.10595">
        <ele>917.2</ele>
        <time>2025-09-08T08:49:14Z</time>
      </trkpt>
      <trkpt lat="48.08967" lon="7.10597">
        <ele>917.4</ele>
        <time>2025-09-08T08:49:15Z</time>
      </trkpt>
      <trkpt lat="48.08964" lon="7.106">
        <ele>917.6</ele>
        <time>2025-09-08T08:49:16Z</time>
      </trkpt>
      <trkpt lat="48.08961" lon="7.10602">
        <ele>917.8</ele>
        <time>2025-09-08T08:49:17Z</time>
      </trkpt>
      <trkpt lat="48.08958" lon="7.10605">
        <ele>918.2</ele>
        <time>2025-09-08T08:49:18Z</time>
      </trkpt>
      <trkpt lat="48.08954" lon="7.10607">
        <ele>918.4</ele>
        <time>2025-09-08T08:49:19Z</time>
      </trkpt>
      <trkpt lat="48.08951" lon="7.10609">
        <ele>918.4</ele>
        <time>2025-09-08T08:49:20Z</time>
      </trkpt>
      <trkpt lat="48.08948" lon="7.10612">
        <ele>918.6</ele>
        <time>2025-09-08T08:49:21Z</time>
      </trkpt>
      <trkpt lat="48.08945" lon="7.10613">
        <ele>918.8</ele>
        <time>2025-09-08T08:49:22Z</time>
      </trkpt>
      <trkpt lat="48.08943" lon="7.10616">
        <ele>919</ele>
        <time>2025-09-08T08:49:23Z</time>
      </trkpt>
      <trkpt lat="48.0894" lon="7.10619">
        <ele>919.4</ele>
        <time>2025-09-08T08:49:24Z</time>
      </trkpt>
      <trkpt lat="48.08937" lon="7.10622">
        <ele>919.4</ele>
        <time>2025-09-08T08:49:25Z</time>
      </trkpt>
      <trkpt lat="48.08934" lon="7.10625">
        <ele>919.8</ele>
        <time>2025-09-08T08:49:26Z</time>
      </trkpt>
      <trkpt lat="48.08931" lon="7.10628">
        <ele>920</ele>
        <time>2025-09-08T08:49:27Z</time>
      </trkpt>
      <trkpt lat="48.08928" lon="7.10631">
        <ele>920.2</ele>
        <time>2025-09-08T08:49:28Z</time>
      </trkpt>
      <trkpt lat="48.08925" lon="7.10634">
        <ele>920.4</ele>
        <time>2025-09-08T08:49:29Z</time>
      </trkpt>
      <trkpt lat="48.08922" lon="7.10636">
        <ele>920.6</ele>
        <time>2025-09-08T08:49:30Z</time>
      </trkpt>
      <trkpt lat="48.08919" lon="7.10638">
        <ele>920.8</ele>
        <time>2025-09-08T08:49:31Z</time>
      </trkpt>
      <trkpt lat="48.08915" lon="7.10641">
        <ele>921</ele>
        <time>2025-09-08T08:49:32Z</time>
      </trkpt>
      <trkpt lat="48.08912" lon="7.10643">
        <ele>921.2</ele>
        <time>2025-09-08T08:49:33Z</time>
      </trkpt>
      <trkpt lat="48.08909" lon="7.10646">
        <ele>921.6</ele>
        <time>2025-09-08T08:49:34Z</time>
      </trkpt>
      <trkpt lat="48.08906" lon="7.10649">
        <ele>921.8</ele>
        <time>2025-09-08T08:49:35Z</time>
      </trkpt>
      <trkpt lat="48.08904" lon="7.10653">
        <ele>922</ele>
        <time>2025-09-08T08:49:36Z</time>
      </trkpt>
      <trkpt lat="48.08901" lon="7.10656">
        <ele>922.2</ele>
        <time>2025-09-08T08:49:37Z</time>
      </trkpt>
      <trkpt lat="48.08898" lon="7.10659">
        <ele>922.4</ele>
        <time>2025-09-08T08:49:38Z</time>
      </trkpt>
      <trkpt lat="48.08896" lon="7.10662">
        <ele>922.6</ele>
        <time>2025-09-08T08:49:39Z</time>
      </trkpt>
      <trkpt lat="48.08893" lon="7.10666">
        <ele>922.8</ele>
        <time>2025-09-08T08:49:40Z</time>
      </trkpt>
      <trkpt lat="48.08891" lon="7.10669">
        <ele>923.2</ele>
        <time>2025-09-08T08:49:41Z</time>
      </trkpt>
      <trkpt lat="48.08888" lon="7.10672">
        <ele>923.6</ele>
        <time>2025-09-08T08:49:42Z</time>
      </trkpt>
      <trkpt lat="48.08886" lon="7.10676">
        <ele>924</ele>
        <time>2025-09-08T08:49:43Z</time>
      </trkpt>
      <trkpt lat="48.08884" lon="7.10679">
        <ele>924.2</ele>
        <time>2025-09-08T08:49:44Z</time>
      </trkpt>
      <trkpt lat="48.08881" lon="7.10683">
        <ele>924.4</ele>
        <time>2025-09-08T08:49:45Z</time>
      </trkpt>
      <trkpt lat="48.08879" lon="7.10687">
        <ele>924.6</ele>
        <time>2025-09-08T08:49:46Z</time>
      </trkpt>
      <trkpt lat="48.08877" lon="7.10691">
        <ele>925.2</ele>
        <time>2025-09-08T08:49:47Z</time>
      </trkpt>
      <trkpt lat="48.08875" lon="7.10695">
        <ele>925.6</ele>
        <time>2025-09-08T08:49:48Z</time>
      </trkpt>
      <trkpt lat="48.08872" lon="7.10698">
        <ele>925.8</ele>
        <time>2025-09-08T08:49:49Z</time>
      </trkpt>
      <trkpt lat="48.0887" lon="7.10701">
        <ele>926.2</ele>
        <time>2025-09-08T08:49:50Z</time>
      </trkpt>
      <trkpt lat="48.08868" lon="7.10705">
        <ele>926.4</ele>
        <time>2025-09-08T08:49:51Z</time>
      </trkpt>
      <trkpt lat="48.08865" lon="7.10708">
        <ele>926.8</ele>
        <time>2025-09-08T08:49:52Z</time>
      </trkpt>
      <trkpt lat="48.08862" lon="7.10711">
        <ele>927</ele>
        <time>2025-09-08T08:49:53Z</time>
      </trkpt>
      <trkpt lat="48.08859" lon="7.10714">
        <ele>927.4</ele>
        <time>2025-09-08T08:49:54Z</time>
      </trkpt>
      <trkpt lat="48.08857" lon="7.10717">
        <ele>927.6</ele>
        <time>2025-09-08T08:49:55Z</time>
      </trkpt>
      <trkpt lat="48.08854" lon="7.10721">
        <ele>927.8</ele>
        <time>2025-09-08T08:49:56Z</time>
      </trkpt>
      <trkpt lat="48.08852" lon="7.10725">
        <ele>928</ele>
        <time>2025-09-08T08:49:57Z</time>
      </trkpt>
      <trkpt lat="48.08851" lon="7.10729">
        <ele>928.2</ele>
        <time>2025-09-08T08:49:58Z</time>
      </trkpt>
      <trkpt lat="48.08849" lon="7.10734">
        <ele>928.6</ele>
        <time>2025-09-08T08:49:59Z</time>
      </trkpt>
      <trkpt lat="48.08847" lon="7.10738">
        <ele>929</ele>
        <time>2025-09-08T08:50:00Z</time>
      </trkpt>
      <trkpt lat="48.08846" lon="7.10742">
        <ele>929.2</ele>
        <time>2025-09-08T08:50:01Z</time>
      </trkpt>
      <trkpt lat="48.08845" lon="7.10746">
        <ele>929.4</ele>
        <time>2025-09-08T08:50:02Z</time>
      </trkpt>
      <trkpt lat="48.08844" lon="7.1075">
        <ele>929.8</ele>
        <time>2025-09-08T08:50:03Z</time>
      </trkpt>
      <trkpt lat="48.08843" lon="7.10755">
        <ele>929.8</ele>
        <time>2025-09-08T08:50:04Z</time>
      </trkpt>
      <trkpt lat="48.08842" lon="7.1076">
        <ele>930</ele>
        <time>2025-09-08T08:50:05Z</time>
      </trkpt>
      <trkpt lat="48.08841" lon="7.10765">
        <ele>930.4</ele>
        <time>2025-09-08T08:50:06Z</time>
      </trkpt>
      <trkpt lat="48.0884" lon="7.1077">
        <ele>930.6</ele>
        <time>2025-09-08T08:50:07Z</time>
      </trkpt>
      <trkpt lat="48.0884" lon="7.10775">
        <ele>930.8</ele>
        <time>2025-09-08T08:50:08Z</time>
      </trkpt>
      <trkpt lat="48.0884" lon="7.1078">
        <ele>931</ele>
        <time>2025-09-08T08:50:09Z</time>
      </trkpt>
      <trkpt lat="48.0884" lon="7.10785">
        <ele>931.2</ele>
        <time>2025-09-08T08:50:10Z</time>
      </trkpt>
      <trkpt lat="48.08841" lon="7.1079">
        <ele>931.6</ele>
        <time>2025-09-08T08:50:11Z</time>
      </trkpt>
      <trkpt lat="48.08841" lon="7.10795">
        <ele>931.6</ele>
        <time>2025-09-08T08:50:12Z</time>
      </trkpt>
      <trkpt lat="48.08842" lon="7.108">
        <ele>931.8</ele>
        <time>2025-09-08T08:50:13Z</time>
      </trkpt>
      <trkpt lat="48.08842" lon="7.10805">
        <ele>931.8</ele>
        <time>2025-09-08T08:50:14Z</time>
      </trkpt>
      <trkpt lat="48.08843" lon="7.1081">
        <ele>932</ele>
        <time>2025-09-08T08:50:15Z</time>
      </trkpt>
      <trkpt lat="48.08844" lon="7.10815">
        <ele>932.4</ele>
        <time>2025-09-08T08:50:16Z</time>
      </trkpt>
      <trkpt lat="48.08845" lon="7.10819">
        <ele>932.6</ele>
        <time>2025-09-08T08:50:17Z</time>
      </trkpt>
      <trkpt lat="48.08845" lon="7.10824">
        <ele>932.8</ele>
        <time>2025-09-08T08:50:18Z</time>
      </trkpt>
      <trkpt lat="48.08846" lon="7.10828">
        <ele>933</ele>
        <time>2025-09-08T08:50:19Z</time>
      </trkpt>
      <trkpt lat="48.08847" lon="7.10833">
        <ele>933.2</ele>
        <time>2025-09-08T08:50:20Z</time>
      </trkpt>
      <trkpt lat="48.08847" lon="7.10838">
        <ele>933.8</ele>
        <time>2025-09-08T08:50:21Z</time>
      </trkpt>
      <trkpt lat="48.08848" lon="7.10843">
        <ele>934</ele>
        <time>2025-09-08T08:50:22Z</time>
      </trkpt>
      <trkpt lat="48.08849" lon="7.10847">
        <ele>934</ele>
        <time>2025-09-08T08:50:23Z</time>
      </trkpt>
      <trkpt lat="48.08849" lon="7.10852">
        <ele>934.2</ele>
        <time>2025-09-08T08:50:24Z</time>
      </trkpt>
      <trkpt lat="48.0885" lon="7.10857">
        <ele>934.4</ele>
        <time>2025-09-08T08:50:25Z</time>
      </trkpt>
      <trkpt lat="48.08851" lon="7.10861">
        <ele>934.8</ele>
        <time>2025-09-08T08:50:26Z</time>
      </trkpt>
      <trkpt lat="48.08851" lon="7.10866">
        <ele>935</ele>
        <time>2025-09-08T08:50:27Z</time>
      </trkpt>
      <trkpt lat="48.08852" lon="7.10871">
        <ele>935</ele>
        <time>2025-09-08T08:50:28Z</time>
      </trkpt>
      <trkpt lat="48.08853" lon="7.10876">
        <ele>935.4</ele>
        <time>2025-09-08T08:50:29Z</time>
      </trkpt>
      <trkpt lat="48.08853" lon="7.1088">
        <ele>935.6</ele>
        <time>2025-09-08T08:50:30Z</time>
      </trkpt>
      <trkpt lat="48.08853" lon="7.10886">
        <ele>935.8</ele>
        <time>2025-09-08T08:50:31Z</time>
      </trkpt>
      <trkpt lat="48.08853" lon="7.10891">
        <ele>936</ele>
        <time>2025-09-08T08:50:32Z</time>
      </trkpt>
      <trkpt lat="48.08852" lon="7.10896">
        <ele>936.2</ele>
        <time>2025-09-08T08:50:33Z</time>
      </trkpt>
      <trkpt lat="48.08852" lon="7.10901">
        <ele>936.2</ele>
        <time>2025-09-08T08:50:34Z</time>
      </trkpt>
      <trkpt lat="48.08854" lon="7.10905">
        <ele>936.2</ele>
        <time>2025-09-08T08:50:35Z</time>
      </trkpt>
      <trkpt lat="48.08856" lon="7.10906">
        <ele>936.2</ele>
        <time>2025-09-08T08:50:36Z</time>
      </trkpt>
      <trkpt lat="48.08858" lon="7.10907">
        <ele>936.2</ele>
        <time>2025-09-08T08:50:37Z</time>
      </trkpt>
      <trkpt lat="48.08861" lon="7.10907">
        <ele>936.2</ele>
        <time>2025-09-08T08:50:38Z</time>
      </trkpt>
      <trkpt lat="48.08864" lon="7.10909">
        <ele>936.6</ele>
        <time>2025-09-08T08:50:39Z</time>
      </trkpt>
      <trkpt lat="48.08866" lon="7.10911">
        <ele>936.8</ele>
        <time>2025-09-08T08:50:40Z</time>
      </trkpt>
      <trkpt lat="48.08867" lon="7.10915">
        <ele>937</ele>
        <time>2025-09-08T08:50:41Z</time>
      </trkpt>
      <trkpt lat="48.08869" lon="7.10919">
        <ele>937.2</ele>
        <time>2025-09-08T08:50:42Z</time>
      </trkpt>
      <trkpt lat="48.08871" lon="7.10923">
        <ele>937.6</ele>
        <time>2025-09-08T08:50:43Z</time>
      </trkpt>
      <trkpt lat="48.08872" lon="7.10927">
        <ele>937.8</ele>
        <time>2025-09-08T08:50:44Z</time>
      </trkpt>
      <trkpt lat="48.08874" lon="7.1093">
        <ele>938.2</ele>
        <time>2025-09-08T08:50:45Z</time>
      </trkpt>
      <trkpt lat="48.08877" lon="7.10934">
        <ele>938.4</ele>
        <time>2025-09-08T08:50:46Z</time>
      </trkpt>
      <trkpt lat="48.08879" lon="7.10937">
        <ele>938.8</ele>
        <time>2025-09-08T08:50:47Z</time>
      </trkpt>
      <trkpt lat="48.08881" lon="7.1094">
        <ele>939.4</ele>
        <time>2025-09-08T08:50:48Z</time>
      </trkpt>
      <trkpt lat="48.08883" lon="7.10944">
        <ele>939.6</ele>
        <time>2025-09-08T08:50:49Z</time>
      </trkpt>
      <trkpt lat="48.08884" lon="7.10947">
        <ele>939.8</ele>
        <time>2025-09-08T08:50:50Z</time>
      </trkpt>
      <trkpt lat="48.08886" lon="7.1095">
        <ele>940.2</ele>
        <time>2025-09-08T08:50:51Z</time>
      </trkpt>
      <trkpt lat="48.08887" lon="7.10954">
        <ele>940.4</ele>
        <time>2025-09-08T08:50:52Z</time>
      </trkpt>
      <trkpt lat="48.08888" lon="7.10958">
        <ele>940.8</ele>
        <time>2025-09-08T08:50:53Z</time>
      </trkpt>
      <trkpt lat="48.08889" lon="7.10962">
        <ele>941</ele>
        <time>2025-09-08T08:50:54Z</time>
      </trkpt>
      <trkpt lat="48.0889" lon="7.10964">
        <ele>941.2</ele>
        <time>2025-09-08T08:50:55Z</time>
      </trkpt>
      <trkpt lat="48.08891" lon="7.10967">
        <ele>941.6</ele>
        <time>2025-09-08T08:50:56Z</time>
      </trkpt>
      <trkpt lat="48.08892" lon="7.1097">
        <ele>941.8</ele>
        <time>2025-09-08T08:50:57Z</time>
      </trkpt>
      <trkpt lat="48.08894" lon="7.10972">
        <ele>942</ele>
        <time>2025-09-08T08:50:58Z</time>
      </trkpt>
      <trkpt lat="48.08895" lon="7.10976">
        <ele>942.6</ele>
        <time>2025-09-08T08:50:59Z</time>
      </trkpt>
      <trkpt lat="48.08896" lon="7.1098">
        <ele>943</ele>
        <time>2025-09-08T08:51:00Z</time>
      </trkpt>
      <trkpt lat="48.08898" lon="7.10983">
        <ele>943.4</ele>
        <time>2025-09-08T08:51:01Z</time>
      </trkpt>
      <trkpt lat="48.089" lon="7.10987">
        <ele>943.4</ele>
        <time>2025-09-08T08:51:02Z</time>
      </trkpt>
      <trkpt lat="48.08902" lon="7.1099">
        <ele>943.6</ele>
        <time>2025-09-08T08:51:03Z</time>
      </trkpt>
      <trkpt lat="48.08904" lon="7.10994">
        <ele>943.8</ele>
        <time>2025-09-08T08:51:04Z</time>
      </trkpt>
      <trkpt lat="48.08906" lon="7.10997">
        <ele>943.8</ele>
        <time>2025-09-08T08:51:05Z</time>
      </trkpt>
      <trkpt lat="48.08909" lon="7.11">
        <ele>944</ele>
        <time>2025-09-08T08:51:06Z</time>
      </trkpt>
      <trkpt lat="48.08911" lon="7.11003">
        <ele>944</ele>
        <time>2025-09-08T08:51:07Z</time>
      </trkpt>
      <trkpt lat="48.08913" lon="7.11005">
        <ele>944.2</ele>
        <time>2025-09-08T08:51:08Z</time>
      </trkpt>
      <trkpt lat="48.08916" lon="7.11007">
        <ele>944.2</ele>
        <time>2025-09-08T08:51:09Z</time>
      </trkpt>
      <trkpt lat="48.08919" lon="7.11009">
        <ele>944.8</ele>
        <time>2025-09-08T08:51:10Z</time>
      </trkpt>
      <trkpt lat="48.08922" lon="7.1101">
        <ele>945</ele>
        <time>2025-09-08T08:51:11Z</time>
      </trkpt>
      <trkpt lat="48.08924" lon="7.11011">
        <ele>945</ele>
        <time>2025-09-08T08:51:12Z</time>
      </trkpt>
      <trkpt lat="48.08927" lon="7.11013">
        <ele>945.2</ele>
        <time>2025-09-08T08:51:13Z</time>
      </trkpt>
      <trkpt lat="48.0893" lon="7.11015">
        <ele>945.2</ele>
        <time>2025-09-08T08:51:14Z</time>
      </trkpt>
      <trkpt lat="48.08932" lon="7.11017">
        <ele>945.4</ele>
        <time>2025-09-08T08:51:15Z</time>
      </trkpt>
      <trkpt lat="48.08934" lon="7.11018">
        <ele>945.8</ele>
        <time>2025-09-08T08:51:16Z</time>
      </trkpt>
      <trkpt lat="48.08937" lon="7.11019">
        <ele>946</ele>
        <time>2025-09-08T08:51:17Z</time>
      </trkpt>
      <trkpt lat="48.08939" lon="7.11021">
        <ele>946.2</ele>
        <time>2025-09-08T08:51:18Z</time>
      </trkpt>
      <trkpt lat="48.08941" lon="7.11023">
        <ele>946.2</ele>
        <time>2025-09-08T08:51:19Z</time>
      </trkpt>
      <trkpt lat="48.08944" lon="7.11025">
        <ele>946.4</ele>
        <time>2025-09-08T08:51:20Z</time>
      </trkpt>
      <trkpt lat="48.08946" lon="7.11028">
        <ele>947</ele>
        <time>2025-09-08T08:51:21Z</time>
      </trkpt>
      <trkpt lat="48.08949" lon="7.1103">
        <ele>947.2</ele>
        <time>2025-09-08T08:51:22Z</time>
      </trkpt>
      <trkpt lat="48.08951" lon="7.11033">
        <ele>947.2</ele>
        <time>2025-09-08T08:51:23Z</time>
      </trkpt>
      <trkpt lat="48.08954" lon="7.11037">
        <ele>947.4</ele>
        <time>2025-09-08T08:51:24Z</time>
      </trkpt>
      <trkpt lat="48.08956" lon="7.1104">
        <ele>947.8</ele>
        <time>2025-09-08T08:51:25Z</time>
      </trkpt>
      <trkpt lat="48.08959" lon="7.11042">
        <ele>948</ele>
        <time>2025-09-08T08:51:26Z</time>
      </trkpt>
      <trkpt lat="48.08962" lon="7.11045">
        <ele>948</ele>
        <time>2025-09-08T08:51:27Z</time>
      </trkpt>
      <trkpt lat="48.08965" lon="7.11047">
        <ele>948.2</ele>
        <time>2025-09-08T08:51:28Z</time>
      </trkpt>
      <trkpt lat="48.08967" lon="7.1105">
        <ele>948.4</ele>
        <time>2025-09-08T08:51:29Z</time>
      </trkpt>
      <trkpt lat="48.08969" lon="7.11053">
        <ele>948.6</ele>
        <time>2025-09-08T08:51:30Z</time>
      </trkpt>
      <trkpt lat="48.08971" lon="7.11056">
        <ele>948.6</ele>
        <time>2025-09-08T08:51:31Z</time>
      </trkpt>
      <trkpt lat="48.08973" lon="7.11059">
        <ele>949</ele>
        <time>2025-09-08T08:51:32Z</time>
      </trkpt>
      <trkpt lat="48.08975" lon="7.11062">
        <ele>949.2</ele>
        <time>2025-09-08T08:51:33Z</time>
      </trkpt>
      <trkpt lat="48.08977" lon="7.11065">
        <ele>949.6</ele>
        <time>2025-09-08T08:51:34Z</time>
      </trkpt>
      <trkpt lat="48.0898" lon="7.11068">
        <ele>949.6</ele>
        <time>2025-09-08T08:51:35Z</time>
      </trkpt>
      <trkpt lat="48.08982" lon="7.11071">
        <ele>950</ele>
        <time>2025-09-08T08:51:36Z</time>
      </trkpt>
      <trkpt lat="48.08983" lon="7.11075">
        <ele>950.4</ele>
        <time>2025-09-08T08:51:37Z</time>
      </trkpt>
      <trkpt lat="48.08985" lon="7.11079">
        <ele>950.6</ele>
        <time>2025-09-08T08:51:38Z</time>
      </trkpt>
      <trkpt lat="48.08987" lon="7.11082">
        <ele>950.6</ele>
        <time>2025-09-08T08:51:39Z</time>
      </trkpt>
      <trkpt lat="48.08988" lon="7.11085">
        <ele>951</ele>
        <time>2025-09-08T08:51:40Z</time>
      </trkpt>
      <trkpt lat="48.0899" lon="7.11088">
        <ele>951.2</ele>
        <time>2025-09-08T08:51:41Z</time>
      </trkpt>
      <trkpt lat="48.08991" lon="7.11091">
        <ele>951.4</ele>
        <time>2025-09-08T08:51:42Z</time>
      </trkpt>
      <trkpt lat="48.08994" lon="7.11094">
        <ele>951.6</ele>
        <time>2025-09-08T08:51:43Z</time>
      </trkpt>
      <trkpt lat="48.08996" lon="7.11097">
        <ele>952</ele>
        <time>2025-09-08T08:51:44Z</time>
      </trkpt>
      <trkpt lat="48.08998" lon="7.111">
        <ele>952.2</ele>
        <time>2025-09-08T08:51:45Z</time>
      </trkpt>
      <trkpt lat="48.08999" lon="7.11104">
        <ele>952.6</ele>
        <time>2025-09-08T08:51:46Z</time>
      </trkpt>
      <trkpt lat="48.09001" lon="7.11107">
        <ele>952.8</ele>
        <time>2025-09-08T08:51:47Z</time>
      </trkpt>
      <trkpt lat="48.09003" lon="7.11109">
        <ele>953</ele>
        <time>2025-09-08T08:51:48Z</time>
      </trkpt>
      <trkpt lat="48.09005" lon="7.11112">
        <ele>953.2</ele>
        <time>2025-09-08T08:51:49Z</time>
      </trkpt>
      <trkpt lat="48.09007" lon="7.11115">
        <ele>953.6</ele>
        <time>2025-09-08T08:51:50Z</time>
      </trkpt>
      <trkpt lat="48.09008" lon="7.11119">
        <ele>954</ele>
        <time>2025-09-08T08:51:51Z</time>
      </trkpt>
      <trkpt lat="48.0901" lon="7.11123">
        <ele>954.2</ele>
        <time>2025-09-08T08:51:52Z</time>
      </trkpt>
      <trkpt lat="48.09012" lon="7.11126">
        <ele>954.4</ele>
        <time>2025-09-08T08:51:53Z</time>
      </trkpt>
      <trkpt lat="48.09014" lon="7.11128">
        <ele>954.6</ele>
        <time>2025-09-08T08:51:54Z</time>
      </trkpt>
      <trkpt lat="48.09016" lon="7.11132">
        <ele>954.6</ele>
        <time>2025-09-08T08:51:55Z</time>
      </trkpt>
      <trkpt lat="48.09018" lon="7.11134">
        <ele>954.8</ele>
        <time>2025-09-08T08:51:56Z</time>
      </trkpt>
      <trkpt lat="48.09021" lon="7.11138">
        <ele>955</ele>
        <time>2025-09-08T08:51:57Z</time>
      </trkpt>
      <trkpt lat="48.09023" lon="7.11141">
        <ele>955.2</ele>
        <time>2025-09-08T08:51:58Z</time>
      </trkpt>
      <trkpt lat="48.09026" lon="7.11144">
        <ele>955.6</ele>
        <time>2025-09-08T08:51:59Z</time>
      </trkpt>
      <trkpt lat="48.09027" lon="7.11147">
        <ele>955.8</ele>
        <time>2025-09-08T08:52:00Z</time>
      </trkpt>
      <trkpt lat="48.09029" lon="7.11151">
        <ele>955.8</ele>
        <time>2025-09-08T08:52:01Z</time>
      </trkpt>
      <trkpt lat="48.09031" lon="7.11155">
        <ele>956.2</ele>
        <time>2025-09-08T08:52:02Z</time>
      </trkpt>
      <trkpt lat="48.09032" lon="7.11158">
        <ele>956.2</ele>
        <time>2025-09-08T08:52:03Z</time>
      </trkpt>
      <trkpt lat="48.09034" lon="7.11162">
        <ele>956.4</ele>
        <time>2025-09-08T08:52:04Z</time>
      </trkpt>
      <trkpt lat="48.09036" lon="7.11166">
        <ele>956.6</ele>
        <time>2025-09-08T08:52:05Z</time>
      </trkpt>
      <trkpt lat="48.09037" lon="7.1117">
        <ele>956.6</ele>
        <time>2025-09-08T08:52:06Z</time>
      </trkpt>
      <trkpt lat="48.09039" lon="7.11173">
        <ele>956.6</ele>
        <time>2025-09-08T08:52:07Z</time>
      </trkpt>
      <trkpt lat="48.09042" lon="7.11176">
        <ele>956.8</ele>
        <time>2025-09-08T08:52:08Z</time>
      </trkpt>
      <trkpt lat="48.09044" lon="7.1118">
        <ele>956.8</ele>
        <time>2025-09-08T08:52:09Z</time>
      </trkpt>
      <trkpt lat="48.09046" lon="7.11183">
        <ele>956.8</ele>
        <time>2025-09-08T08:52:10Z</time>
      </trkpt>
      <trkpt lat="48.09047" lon="7.11185">
        <ele>957</ele>
        <time>2025-09-08T08:52:11Z</time>
      </trkpt>
      <trkpt lat="48.09049" lon="7.11187">
        <ele>957</ele>
        <time>2025-09-08T08:52:12Z</time>
      </trkpt>
      <trkpt lat="48.0905" lon="7.11189">
        <ele>957</ele>
        <time>2025-09-08T08:52:13Z</time>
      </trkpt>
      <trkpt lat="48.09051" lon="7.1119">
        <ele>957.2</ele>
        <time>2025-09-08T08:52:14Z</time>
      </trkpt>
      <trkpt lat="48.09051" lon="7.1119">
        <ele>957.2</ele>
        <time>2025-09-08T08:52:15Z</time>
      </trkpt>
      <trkpt lat="48.09051" lon="7.11192">
        <ele>957.2</ele>
        <time>2025-09-08T08:52:16Z</time>
      </trkpt>
      <trkpt lat="48.09052" lon="7.11194">
        <ele>957.4</ele>
        <time>2025-09-08T08:52:17Z</time>
      </trkpt>
      <trkpt lat="48.09052" lon="7.11194">
        <ele>957.4</ele>
        <time>2025-09-08T08:52:18Z</time>
      </trkpt>
      <trkpt lat="48.09051" lon="7.11196">
        <ele>957.4</ele>
        <time>2025-09-08T08:52:19Z</time>
      </trkpt>
      <trkpt lat="48.09051" lon="7.11197">
        <ele>957.4</ele>
        <time>2025-09-08T08:52:20Z</time>
      </trkpt>
      <trkpt lat="48.09051" lon="7.11197">
        <ele>957.4</ele>
        <time>2025-09-08T08:52:21Z</time>
      </trkpt>
      <trkpt lat="48.0905" lon="7.112">
        <ele>957.4</ele>
        <time>2025-09-08T08:52:22Z</time>
      </trkpt>
      <trkpt lat="48.0905" lon="7.112">
        <ele>957.4</ele>
        <time>2025-09-08T08:52:23Z</time>
      </trkpt>
      <trkpt lat="48.0905" lon="7.112">
        <ele>957.2</ele>
        <time>2025-09-08T08:52:24Z</time>
      </trkpt>
      <trkpt lat="48.09047" lon="7.11203">
        <ele>956.8</ele>
        <time>2025-09-08T08:52:46Z</time>
      </trkpt>
      <trkpt lat="48.09045" lon="7.11207">
        <ele>956.8</ele>
        <time>2025-09-08T08:52:47Z</time>
      </trkpt>
      <trkpt lat="48.09042" lon="7.1121">
        <ele>956.6</ele>
        <time>2025-09-08T08:52:48Z</time>
      </trkpt>
      <trkpt lat="48.09039" lon="7.11213">
        <ele>956.4</ele>
        <time>2025-09-08T08:52:49Z</time>
      </trkpt>
      <trkpt lat="48.09036" lon="7.11217">
        <ele>956.2</ele>
        <time>2025-09-08T08:52:50Z</time>
      </trkpt>
      <trkpt lat="48.09032" lon="7.11222">
        <ele>955.8</ele>
        <time>2025-09-08T08:52:51Z</time>
      </trkpt>
      <trkpt lat="48.09029" lon="7.11227">
        <ele>955.2</ele>
        <time>2025-09-08T08:52:52Z</time>
      </trkpt>
      <trkpt lat="48.09025" lon="7.11232">
        <ele>955</ele>
        <time>2025-09-08T08:52:53Z</time>
      </trkpt>
      <trkpt lat="48.0902" lon="7.11236">
        <ele>954.4</ele>
        <time>2025-09-08T08:52:54Z</time>
      </trkpt>
      <trkpt lat="48.09016" lon="7.11239">
        <ele>954.2</ele>
        <time>2025-09-08T08:52:55Z</time>
      </trkpt>
      <trkpt lat="48.09011" lon="7.11243">
        <ele>953.4</ele>
        <time>2025-09-08T08:52:56Z</time>
      </trkpt>
      <trkpt lat="48.09007" lon="7.1125">
        <ele>952.8</ele>
        <time>2025-09-08T08:52:57Z</time>
      </trkpt>
      <trkpt lat="48.09004" lon="7.11254">
        <ele>952.2</ele>
        <time>2025-09-08T08:52:58Z</time>
      </trkpt>
      <trkpt lat="48.09002" lon="7.11259">
        <ele>951.4</ele>
        <time>2025-09-08T08:52:59Z</time>
      </trkpt>
      <trkpt lat="48.09" lon="7.11261">
        <ele>950.6</ele>
        <time>2025-09-08T08:53:00Z</time>
      </trkpt>
      <trkpt lat="48.08999" lon="7.11263">
        <ele>949.6</ele>
        <time>2025-09-08T08:53:01Z</time>
      </trkpt>
      <trkpt lat="48.08997" lon="7.11264">
        <ele>949.2</ele>
        <time>2025-09-08T08:53:02Z</time>
      </trkpt>
      <trkpt lat="48.08995" lon="7.11265">
        <ele>949</ele>
        <time>2025-09-08T08:53:03Z</time>
      </trkpt>
      <trkpt lat="48.08994" lon="7.11267">
        <ele>948.6</ele>
        <time>2025-09-08T08:53:04Z</time>
      </trkpt>
      <trkpt lat="48.08993" lon="7.1127">
        <ele>948.4</ele>
        <time>2025-09-08T08:53:05Z</time>
      </trkpt>
      <trkpt lat="48.08992" lon="7.11274">
        <ele>947.6</ele>
        <time>2025-09-08T08:53:06Z</time>
      </trkpt>
      <trkpt lat="48.08992" lon="7.11274">
        <ele>947.2</ele>
        <time>2025-09-08T08:53:07Z</time>
      </trkpt>
      <trkpt lat="48.08991" lon="7.11277">
        <ele>946.6</ele>
        <time>2025-09-08T08:53:08Z</time>
      </trkpt>
      <trkpt lat="48.08991" lon="7.11277">
        <ele>946.2</ele>
        <time>2025-09-08T08:53:09Z</time>
      </trkpt>
      <trkpt lat="48.08989" lon="7.1129">
        <ele>945</ele>
        <time>2025-09-08T08:53:33Z</time>
      </trkpt>
      <trkpt lat="48.08988" lon="7.11293">
        <ele>945</ele>
        <time>2025-09-08T08:53:34Z</time>
      </trkpt>
      <trkpt lat="48.08987" lon="7.11298">
        <ele>944.8</ele>
        <time>2025-09-08T08:53:35Z</time>
      </trkpt>
      <trkpt lat="48.08987" lon="7.11302">
        <ele>944.8</ele>
        <time>2025-09-08T08:53:36Z</time>
      </trkpt>
      <trkpt lat="48.08985" lon="7.11306">
        <ele>944.4</ele>
        <time>2025-09-08T08:53:37Z</time>
      </trkpt>
      <trkpt lat="48.08984" lon="7.1131">
        <ele>943.4</ele>
        <time>2025-09-08T08:53:38Z</time>
      </trkpt>
      <trkpt lat="48.08984" lon="7.11313">
        <ele>942.8</ele>
        <time>2025-09-08T08:53:39Z</time>
      </trkpt>
      <trkpt lat="48.08983" lon="7.11317">
        <ele>942.6</ele>
        <time>2025-09-08T08:53:40Z</time>
      </trkpt>
      <trkpt lat="48.08983" lon="7.11321">
        <ele>942</ele>
        <time>2025-09-08T08:53:41Z</time>
      </trkpt>
      <trkpt lat="48.08983" lon="7.11324">
        <ele>941.4</ele>
        <time>2025-09-08T08:53:42Z</time>
      </trkpt>
      <trkpt lat="48.08982" lon="7.11327">
        <ele>941.2</ele>
        <time>2025-09-08T08:53:43Z</time>
      </trkpt>
      <trkpt lat="48.08982" lon="7.1133">
        <ele>940.6</ele>
        <time>2025-09-08T08:53:44Z</time>
      </trkpt>
      <trkpt lat="48.08982" lon="7.11335">
        <ele>940</ele>
        <time>2025-09-08T08:53:45Z</time>
      </trkpt>
      <trkpt lat="48.08982" lon="7.1134">
        <ele>939.8</ele>
        <time>2025-09-08T08:53:46Z</time>
      </trkpt>
      <trkpt lat="48.0898" lon="7.11346">
        <ele>939.2</ele>
        <time>2025-09-08T08:53:47Z</time>
      </trkpt>
      <trkpt lat="48.08979" lon="7.11353">
        <ele>938.6</ele>
        <time>2025-09-08T08:53:48Z</time>
      </trkpt>
      <trkpt lat="48.08978" lon="7.1136">
        <ele>937.6</ele>
        <time>2025-09-08T08:53:49Z</time>
      </trkpt>
      <trkpt lat="48.08975" lon="7.11368">
        <ele>937.4</ele>
        <time>2025-09-08T08:53:50Z</time>
      </trkpt>
      <trkpt lat="48.08972" lon="7.11373">
        <ele>937</ele>
        <time>2025-09-08T08:53:51Z</time>
      </trkpt>
      <trkpt lat="48.08969" lon="7.11379">
        <ele>935.2</ele>
        <time>2025-09-08T08:53:52Z</time>
      </trkpt>
      <trkpt lat="48.08966" lon="7.11384">
        <ele>934.2</ele>
        <time>2025-09-08T08:53:53Z</time>
      </trkpt>
      <trkpt lat="48.08964" lon="7.11389">
        <ele>933.2</ele>
        <time>2025-09-08T08:53:54Z</time>
      </trkpt>
      <trkpt lat="48.08962" lon="7.11393">
        <ele>932.8</ele>
        <time>2025-09-08T08:53:55Z</time>
      </trkpt>
      <trkpt lat="48.0896" lon="7.11396">
        <ele>932</ele>
        <time>2025-09-08T08:53:56Z</time>
      </trkpt>
      <trkpt lat="48.08958" lon="7.11399">
        <ele>931</ele>
        <time>2025-09-08T08:53:57Z</time>
      </trkpt>
      <trkpt lat="48.08956" lon="7.11403">
        <ele>930.2</ele>
        <time>2025-09-08T08:53:58Z</time>
      </trkpt>
      <trkpt lat="48.08954" lon="7.11407">
        <ele>929.4</ele>
        <time>2025-09-08T08:53:59Z</time>
      </trkpt>
      <trkpt lat="48.08953" lon="7.1141">
        <ele>929</ele>
        <time>2025-09-08T08:54:00Z</time>
      </trkpt>
      <trkpt lat="48.08951" lon="7.11414">
        <ele>928.2</ele>
        <time>2025-09-08T08:54:01Z</time>
      </trkpt>
      <trkpt lat="48.08949" lon="7.11418">
        <ele>927.4</ele>
        <time>2025-09-08T08:54:02Z</time>
      </trkpt>
      <trkpt lat="48.08947" lon="7.11422">
        <ele>927</ele>
        <time>2025-09-08T08:54:03Z</time>
      </trkpt>
      <trkpt lat="48.08945" lon="7.11426">
        <ele>926.4</ele>
        <time>2025-09-08T08:54:04Z</time>
      </trkpt>
      <trkpt lat="48.08943" lon="7.11429">
        <ele>925.8</ele>
        <time>2025-09-08T08:54:05Z</time>
      </trkpt>
      <trkpt lat="48.08941" lon="7.11434">
        <ele>924.8</ele>
        <time>2025-09-08T08:54:06Z</time>
      </trkpt>
      <trkpt lat="48.08938" lon="7.11438">
        <ele>924.2</ele>
        <time>2025-09-08T08:54:07Z</time>
      </trkpt>
      <trkpt lat="48.08936" lon="7.11443">
        <ele>923.2</ele>
        <time>2025-09-08T08:54:08Z</time>
      </trkpt>
      <trkpt lat="48.08934" lon="7.11448">
        <ele>922.4</ele>
        <time>2025-09-08T08:54:09Z</time>
      </trkpt>
      <trkpt lat="48.08932" lon="7.11454">
        <ele>921.8</ele>
        <time>2025-09-08T08:54:10Z</time>
      </trkpt>
      <trkpt lat="48.0893" lon="7.11459">
        <ele>920.8</ele>
        <time>2025-09-08T08:54:11Z</time>
      </trkpt>
      <trkpt lat="48.08927" lon="7.11465">
        <ele>920</ele>
        <time>2025-09-08T08:54:12Z</time>
      </trkpt>
      <trkpt lat="48.08923" lon="7.11469">
        <ele>919.4</ele>
        <time>2025-09-08T08:54:13Z</time>
      </trkpt>
      <trkpt lat="48.08919" lon="7.11474">
        <ele>918.6</ele>
        <time>2025-09-08T08:54:14Z</time>
      </trkpt>
      <trkpt lat="48.08915" lon="7.11479">
        <ele>918.2</ele>
        <time>2025-09-08T08:54:15Z</time>
      </trkpt>
      <trkpt lat="48.08911" lon="7.11485">
        <ele>916.2</ele>
        <time>2025-09-08T08:54:16Z</time>
      </trkpt>
      <trkpt lat="48.08908" lon="7.1149">
        <ele>915.4</ele>
        <time>2025-09-08T08:54:17Z</time>
      </trkpt>
      <trkpt lat="48.08904" lon="7.11494">
        <ele>914.4</ele>
        <time>2025-09-08T08:54:18Z</time>
      </trkpt>
      <trkpt lat="48.089" lon="7.11498">
        <ele>913.4</ele>
        <time>2025-09-08T08:54:19Z</time>
      </trkpt>
      <trkpt lat="48.08897" lon="7.11502">
        <ele>912.2</ele>
        <time>2025-09-08T08:54:20Z</time>
      </trkpt>
      <trkpt lat="48.08892" lon="7.11506">
        <ele>911.8</ele>
        <time>2025-09-08T08:54:21Z</time>
      </trkpt>
      <trkpt lat="48.08888" lon="7.11511">
        <ele>910.8</ele>
        <time>2025-09-08T08:54:22Z</time>
      </trkpt>
      <trkpt lat="48.08884" lon="7.11517">
        <ele>909.8</ele>
        <time>2025-09-08T08:54:23Z</time>
      </trkpt>
      <trkpt lat="48.0888" lon="7.11523">
        <ele>909.4</ele>
        <time>2025-09-08T08:54:24Z</time>
      </trkpt>
      <trkpt lat="48.08875" lon="7.11528">
        <ele>908.4</ele>
        <time>2025-09-08T08:54:25Z</time>
      </trkpt>
      <trkpt lat="48.08871" lon="7.11533">
        <ele>907.6</ele>
        <time>2025-09-08T08:54:26Z</time>
      </trkpt>
      <trkpt lat="48.08866" lon="7.11538">
        <ele>906.6</ele>
        <time>2025-09-08T08:54:27Z</time>
      </trkpt>
      <trkpt lat="48.0886" lon="7.11544">
        <ele>906</ele>
        <time>2025-09-08T08:54:28Z</time>
      </trkpt>
      <trkpt lat="48.08854" lon="7.11548">
        <ele>904.4</ele>
        <time>2025-09-08T08:54:29Z</time>
      </trkpt>
      <trkpt lat="48.08849" lon="7.11553">
        <ele>903</ele>
        <time>2025-09-08T08:54:30Z</time>
      </trkpt>
      <trkpt lat="48.08845" lon="7.11558">
        <ele>902.6</ele>
        <time>2025-09-08T08:54:31Z</time>
      </trkpt>
      <trkpt lat="48.08841" lon="7.11564">
        <ele>901.6</ele>
        <time>2025-09-08T08:54:32Z</time>
      </trkpt>
      <trkpt lat="48.08836" lon="7.11569">
        <ele>900.8</ele>
        <time>2025-09-08T08:54:33Z</time>
      </trkpt>
      <trkpt lat="48.08832" lon="7.11573">
        <ele>900</ele>
        <time>2025-09-08T08:54:34Z</time>
      </trkpt>
      <trkpt lat="48.08826" lon="7.11577">
        <ele>899</ele>
        <time>2025-09-08T08:54:35Z</time>
      </trkpt>
      <trkpt lat="48.0882" lon="7.11579">
        <ele>898</ele>
        <time>2025-09-08T08:54:36Z</time>
      </trkpt>
      <trkpt lat="48.08815" lon="7.11583">
        <ele>897.6</ele>
        <time>2025-09-08T08:54:37Z</time>
      </trkpt>
      <trkpt lat="48.08809" lon="7.11586">
        <ele>896.2</ele>
        <time>2025-09-08T08:54:38Z</time>
      </trkpt>
      <trkpt lat="48.08804" lon="7.1159">
        <ele>895.4</ele>
        <time>2025-09-08T08:54:39Z</time>
      </trkpt>
      <trkpt lat="48.08801" lon="7.11594">
        <ele>894.8</ele>
        <time>2025-09-08T08:54:40Z</time>
      </trkpt>
      <trkpt lat="48.08798" lon="7.11599">
        <ele>893.6</ele>
        <time>2025-09-08T08:54:41Z</time>
      </trkpt>
      <trkpt lat="48.08795" lon="7.11603">
        <ele>893.4</ele>
        <time>2025-09-08T08:54:42Z</time>
      </trkpt>
      <trkpt lat="48.08792" lon="7.11608">
        <ele>892.8</ele>
        <time>2025-09-08T08:54:43Z</time>
      </trkpt>
      <trkpt lat="48.08789" lon="7.11612">
        <ele>892.6</ele>
        <time>2025-09-08T08:54:44Z</time>
      </trkpt>
      <trkpt lat="48.08786" lon="7.11616">
        <ele>892.2</ele>
        <time>2025-09-08T08:54:45Z</time>
      </trkpt>
      <trkpt lat="48.08783" lon="7.1162">
        <ele>892.2</ele>
        <time>2025-09-08T08:54:46Z</time>
      </trkpt>
      <trkpt lat="48.08781" lon="7.11624">
        <ele>892</ele>
        <time>2025-09-08T08:54:47Z</time>
      </trkpt>
      <trkpt lat="48.08779" lon="7.11627">
        <ele>892</ele>
        <time>2025-09-08T08:54:48Z</time>
      </trkpt>
      <trkpt lat="48.08776" lon="7.11629">
        <ele>892</ele>
        <time>2025-09-08T08:54:49Z</time>
      </trkpt>
      <trkpt lat="48.08773" lon="7.11633">
        <ele>891.8</ele>
        <time>2025-09-08T08:54:50Z</time>
      </trkpt>
      <trkpt lat="48.0877" lon="7.11636">
        <ele>891.8</ele>
        <time>2025-09-08T08:54:51Z</time>
      </trkpt>
      <trkpt lat="48.08767" lon="7.11638">
        <ele>891.8</ele>
        <time>2025-09-08T08:54:52Z</time>
      </trkpt>
      <trkpt lat="48.08764" lon="7.11641">
        <ele>892</ele>
        <time>2025-09-08T08:54:53Z</time>
      </trkpt>
      <trkpt lat="48.08761" lon="7.11643">
        <ele>892</ele>
        <time>2025-09-08T08:54:54Z</time>
      </trkpt>
      <trkpt lat="48.08757" lon="7.11646">
        <ele>892</ele>
        <time>2025-09-08T08:54:55Z</time>
      </trkpt>
      <trkpt lat="48.08754" lon="7.11649">
        <ele>892</ele>
        <time>2025-09-08T08:54:56Z</time>
      </trkpt>
      <trkpt lat="48.08751" lon="7.11652">
        <ele>892</ele>
        <time>2025-09-08T08:54:57Z</time>
      </trkpt>
      <trkpt lat="48.08748" lon="7.11656">
        <ele>892</ele>
        <time>2025-09-08T08:54:58Z</time>
      </trkpt>
      <trkpt lat="48.08745" lon="7.1166">
        <ele>892.2</ele>
        <time>2025-09-08T08:54:59Z</time>
      </trkpt>
      <trkpt lat="48.08741" lon="7.11663">
        <ele>892.2</ele>
        <time>2025-09-08T08:55:00Z</time>
      </trkpt>
      <trkpt lat="48.08739" lon="7.11666">
        <ele>892.2</ele>
        <time>2025-09-08T08:55:01Z</time>
      </trkpt>
      <trkpt lat="48.08736" lon="7.1167">
        <ele>892.2</ele>
        <time>2025-09-08T08:55:02Z</time>
      </trkpt>
      <trkpt lat="48.08733" lon="7.11674">
        <ele>892.4</ele>
        <time>2025-09-08T08:55:03Z</time>
      </trkpt>
      <trkpt lat="48.0873" lon="7.11677">
        <ele>892.6</ele>
        <time>2025-09-08T08:55:04Z</time>
      </trkpt>
      <trkpt lat="48.08727" lon="7.1168">
        <ele>892.6</ele>
        <time>2025-09-08T08:55:05Z</time>
      </trkpt>
      <trkpt lat="48.08724" lon="7.11684">
        <ele>892.6</ele>
        <time>2025-09-08T08:55:06Z</time>
      </trkpt>
      <trkpt lat="48.08722" lon="7.11688">
        <ele>892.8</ele>
        <time>2025-09-08T08:55:07Z</time>
      </trkpt>
      <trkpt lat="48.08719" lon="7.11691">
        <ele>893.2</ele>
        <time>2025-09-08T08:55:08Z</time>
      </trkpt>
      <trkpt lat="48.08716" lon="7.11695">
        <ele>893</ele>
        <time>2025-09-08T08:55:09Z</time>
      </trkpt>
      <trkpt lat="48.08714" lon="7.11699">
        <ele>893</ele>
        <time>2025-09-08T08:55:10Z</time>
      </trkpt>
      <trkpt lat="48.08712" lon="7.11703">
        <ele>893</ele>
        <time>2025-09-08T08:55:11Z</time>
      </trkpt>
      <trkpt lat="48.08709" lon="7.11707">
        <ele>892.8</ele>
        <time>2025-09-08T08:55:12Z</time>
      </trkpt>
      <trkpt lat="48.08706" lon="7.11711">
        <ele>893.2</ele>
        <time>2025-09-08T08:55:13Z</time>
      </trkpt>
      <trkpt lat="48.08703" lon="7.11714">
        <ele>893.8</ele>
        <time>2025-09-08T08:55:14Z</time>
      </trkpt>
      <trkpt lat="48.087" lon="7.11716">
        <ele>894.2</ele>
        <time>2025-09-08T08:55:15Z</time>
      </trkpt>
      <trkpt lat="48.08697" lon="7.11719">
        <ele>894.2</ele>
        <time>2025-09-08T08:55:16Z</time>
      </trkpt>
      <trkpt lat="48.08694" lon="7.11721">
        <ele>894.4</ele>
        <time>2025-09-08T08:55:17Z</time>
      </trkpt>
      <trkpt lat="48.08691" lon="7.11722">
        <ele>894.4</ele>
        <time>2025-09-08T08:55:18Z</time>
      </trkpt>
      <trkpt lat="48.08688" lon="7.11724">
        <ele>894.6</ele>
        <time>2025-09-08T08:55:19Z</time>
      </trkpt>
      <trkpt lat="48.08684" lon="7.11725">
        <ele>894.8</ele>
        <time>2025-09-08T08:55:20Z</time>
      </trkpt>
      <trkpt lat="48.08681" lon="7.11726">
        <ele>895</ele>
        <time>2025-09-08T08:55:21Z</time>
      </trkpt>
      <trkpt lat="48.08677" lon="7.11727">
        <ele>895.2</ele>
        <time>2025-09-08T08:55:22Z</time>
      </trkpt>
      <trkpt lat="48.08674" lon="7.11727">
        <ele>895.6</ele>
        <time>2025-09-08T08:55:23Z</time>
      </trkpt>
      <trkpt lat="48.08671" lon="7.11728">
        <ele>895.6</ele>
        <time>2025-09-08T08:55:24Z</time>
      </trkpt>
      <trkpt lat="48.08667" lon="7.11728">
        <ele>896.4</ele>
        <time>2025-09-08T08:55:25Z</time>
      </trkpt>
      <trkpt lat="48.08664" lon="7.11729">
        <ele>896.6</ele>
        <time>2025-09-08T08:55:26Z</time>
      </trkpt>
      <trkpt lat="48.08661" lon="7.11729">
        <ele>896.8</ele>
        <time>2025-09-08T08:55:27Z</time>
      </trkpt>
      <trkpt lat="48.08658" lon="7.11729">
        <ele>897.2</ele>
        <time>2025-09-08T08:55:28Z</time>
      </trkpt>
      <trkpt lat="48.08655" lon="7.1173">
        <ele>897.4</ele>
        <time>2025-09-08T08:55:29Z</time>
      </trkpt>
      <trkpt lat="48.08652" lon="7.1173">
        <ele>897.8</ele>
        <time>2025-09-08T08:55:30Z</time>
      </trkpt>
      <trkpt lat="48.08649" lon="7.11732">
        <ele>898.2</ele>
        <time>2025-09-08T08:55:31Z</time>
      </trkpt>
      <trkpt lat="48.08646" lon="7.11733">
        <ele>898.6</ele>
        <time>2025-09-08T08:55:32Z</time>
      </trkpt>
      <trkpt lat="48.08644" lon="7.11735">
        <ele>899</ele>
        <time>2025-09-08T08:55:33Z</time>
      </trkpt>
      <trkpt lat="48.08641" lon="7.11736">
        <ele>899.2</ele>
        <time>2025-09-08T08:55:34Z</time>
      </trkpt>
      <trkpt lat="48.08638" lon="7.11738">
        <ele>899.8</ele>
        <time>2025-09-08T08:55:35Z</time>
      </trkpt>
      <trkpt lat="48.08635" lon="7.1174">
        <ele>900</ele>
        <time>2025-09-08T08:55:36Z</time>
      </trkpt>
      <trkpt lat="48.08633" lon="7.11743">
        <ele>900.2</ele>
        <time>2025-09-08T08:55:37Z</time>
      </trkpt>
      <trkpt lat="48.0863" lon="7.11746">
        <ele>900.6</ele>
        <time>2025-09-08T08:55:38Z</time>
      </trkpt>
      <trkpt lat="48.08627" lon="7.11748">
        <ele>900.8</ele>
        <time>2025-09-08T08:55:39Z</time>
      </trkpt>
      <trkpt lat="48.08625" lon="7.11751">
        <ele>901.2</ele>
        <time>2025-09-08T08:55:40Z</time>
      </trkpt>
      <trkpt lat="48.08623" lon="7.11754">
        <ele>901.4</ele>
        <time>2025-09-08T08:55:41Z</time>
      </trkpt>
      <trkpt lat="48.08621" lon="7.11757">
        <ele>901.8</ele>
        <time>2025-09-08T08:55:42Z</time>
      </trkpt>
      <trkpt lat="48.08619" lon="7.1176">
        <ele>902.2</ele>
        <time>2025-09-08T08:55:43Z</time>
      </trkpt>
      <trkpt lat="48.08617" lon="7.11763">
        <ele>902.4</ele>
        <time>2025-09-08T08:55:44Z</time>
      </trkpt>
      <trkpt lat="48.08615" lon="7.11766">
        <ele>902.6</ele>
        <time>2025-09-08T08:55:45Z</time>
      </trkpt>
      <trkpt lat="48.08612" lon="7.11769">
        <ele>903</ele>
        <time>2025-09-08T08:55:46Z</time>
      </trkpt>
      <trkpt lat="48.08611" lon="7.11773">
        <ele>903.2</ele>
        <time>2025-09-08T08:55:47Z</time>
      </trkpt>
      <trkpt lat="48.08608" lon="7.11776">
        <ele>903.6</ele>
        <time>2025-09-08T08:55:48Z</time>
      </trkpt>
      <trkpt lat="48.08606" lon="7.11779">
        <ele>903.8</ele>
        <time>2025-09-08T08:55:49Z</time>
      </trkpt>
      <trkpt lat="48.08603" lon="7.11782">
        <ele>904.2</ele>
        <time>2025-09-08T08:55:50Z</time>
      </trkpt>
      <trkpt lat="48.08602" lon="7.11784">
        <ele>904.4</ele>
        <time>2025-09-08T08:55:51Z</time>
      </trkpt>
      <trkpt lat="48.086" lon="7.11786">
        <ele>904.8</ele>
        <time>2025-09-08T08:55:52Z</time>
      </trkpt>
      <trkpt lat="48.08598" lon="7.11788">
        <ele>905</ele>
        <time>2025-09-08T08:55:53Z</time>
      </trkpt>
      <trkpt lat="48.08595" lon="7.1179">
        <ele>905.2</ele>
        <time>2025-09-08T08:55:54Z</time>
      </trkpt>
      <trkpt lat="48.08593" lon="7.11792">
        <ele>905.6</ele>
        <time>2025-09-08T08:55:55Z</time>
      </trkpt>
      <trkpt lat="48.08591" lon="7.11794">
        <ele>905.8</ele>
        <time>2025-09-08T08:55:56Z</time>
      </trkpt>
      <trkpt lat="48.08588" lon="7.11796">
        <ele>906.2</ele>
        <time>2025-09-08T08:55:57Z</time>
      </trkpt>
      <trkpt lat="48.08586" lon="7.11799">
        <ele>906.4</ele>
        <time>2025-09-08T08:55:58Z</time>
      </trkpt>
      <trkpt lat="48.08584" lon="7.118">
        <ele>906.8</ele>
        <time>2025-09-08T08:55:59Z</time>
      </trkpt>
      <trkpt lat="48.08582" lon="7.11802">
        <ele>907.2</ele>
        <time>2025-09-08T08:56:00Z</time>
      </trkpt>
      <trkpt lat="48.08579" lon="7.11804">
        <ele>907.6</ele>
        <time>2025-09-08T08:56:01Z</time>
      </trkpt>
      <trkpt lat="48.08577" lon="7.11806">
        <ele>908.2</ele>
        <time>2025-09-08T08:56:02Z</time>
      </trkpt>
      <trkpt lat="48.08574" lon="7.11808">
        <ele>908.6</ele>
        <time>2025-09-08T08:56:03Z</time>
      </trkpt>
      <trkpt lat="48.08572" lon="7.1181">
        <ele>908.8</ele>
        <time>2025-09-08T08:56:04Z</time>
      </trkpt>
      <trkpt lat="48.08569" lon="7.11811">
        <ele>909.2</ele>
        <time>2025-09-08T08:56:05Z</time>
      </trkpt>
      <trkpt lat="48.08567" lon="7.11812">
        <ele>909.8</ele>
        <time>2025-09-08T08:56:06Z</time>
      </trkpt>
      <trkpt lat="48.08565" lon="7.11814">
        <ele>910</ele>
        <time>2025-09-08T08:56:07Z</time>
      </trkpt>
      <trkpt lat="48.08562" lon="7.11815">
        <ele>910.6</ele>
        <time>2025-09-08T08:56:08Z</time>
      </trkpt>
      <trkpt lat="48.0856" lon="7.11815">
        <ele>911.2</ele>
        <time>2025-09-08T08:56:09Z</time>
      </trkpt>
      <trkpt lat="48.08557" lon="7.11816">
        <ele>911.6</ele>
        <time>2025-09-08T08:56:10Z</time>
      </trkpt>
      <trkpt lat="48.08555" lon="7.11818">
        <ele>912</ele>
        <time>2025-09-08T08:56:11Z</time>
      </trkpt>
      <trkpt lat="48.08553" lon="7.11821">
        <ele>912.6</ele>
        <time>2025-09-08T08:56:12Z</time>
      </trkpt>
      <trkpt lat="48.08551" lon="7.11823">
        <ele>913</ele>
        <time>2025-09-08T08:56:13Z</time>
      </trkpt>
      <trkpt lat="48.08548" lon="7.11826">
        <ele>913.4</ele>
        <time>2025-09-08T08:56:14Z</time>
      </trkpt>
      <trkpt lat="48.08546" lon="7.11827">
        <ele>913.8</ele>
        <time>2025-09-08T08:56:15Z</time>
      </trkpt>
      <trkpt lat="48.08543" lon="7.11829">
        <ele>914.4</ele>
        <time>2025-09-08T08:56:16Z</time>
      </trkpt>
      <trkpt lat="48.08541" lon="7.1183">
        <ele>914.8</ele>
        <time>2025-09-08T08:56:17Z</time>
      </trkpt>
      <trkpt lat="48.08538" lon="7.11831">
        <ele>915.2</ele>
        <time>2025-09-08T08:56:18Z</time>
      </trkpt>
      <trkpt lat="48.08536" lon="7.11832">
        <ele>915.6</ele>
        <time>2025-09-08T08:56:19Z</time>
      </trkpt>
      <trkpt lat="48.08533" lon="7.11833">
        <ele>916.2</ele>
        <time>2025-09-08T08:56:20Z</time>
      </trkpt>
      <trkpt lat="48.08531" lon="7.11834">
        <ele>916.6</ele>
        <time>2025-09-08T08:56:21Z</time>
      </trkpt>
      <trkpt lat="48.08528" lon="7.11836">
        <ele>917</ele>
        <time>2025-09-08T08:56:22Z</time>
      </trkpt>
      <trkpt lat="48.08526" lon="7.11838">
        <ele>917.4</ele>
        <time>2025-09-08T08:56:23Z</time>
      </trkpt>
      <trkpt lat="48.08524" lon="7.11839">
        <ele>917.8</ele>
        <time>2025-09-08T08:56:24Z</time>
      </trkpt>
      <trkpt lat="48.08521" lon="7.1184">
        <ele>918.2</ele>
        <time>2025-09-08T08:56:25Z</time>
      </trkpt>
      <trkpt lat="48.08519" lon="7.11841">
        <ele>918.6</ele>
        <time>2025-09-08T08:56:26Z</time>
      </trkpt>
      <trkpt lat="48.08517" lon="7.11843">
        <ele>919</ele>
        <time>2025-09-08T08:56:27Z</time>
      </trkpt>
      <trkpt lat="48.08514" lon="7.11843">
        <ele>919</ele>
        <time>2025-09-08T08:56:28Z</time>
      </trkpt>
      <trkpt lat="48.08512" lon="7.11844">
        <ele>919.4</ele>
        <time>2025-09-08T08:56:29Z</time>
      </trkpt>
      <trkpt lat="48.0851" lon="7.11845">
        <ele>920.2</ele>
        <time>2025-09-08T08:56:30Z</time>
      </trkpt>
      <trkpt lat="48.08507" lon="7.11846">
        <ele>920.4</ele>
        <time>2025-09-08T08:56:31Z</time>
      </trkpt>
      <trkpt lat="48.08505" lon="7.11847">
        <ele>920.8</ele>
        <time>2025-09-08T08:56:32Z</time>
      </trkpt>
      <trkpt lat="48.08503" lon="7.11848">
        <ele>921</ele>
        <time>2025-09-08T08:56:33Z</time>
      </trkpt>
      <trkpt lat="48.085" lon="7.1185">
        <ele>921.6</ele>
        <time>2025-09-08T08:56:34Z</time>
      </trkpt>
      <trkpt lat="48.08498" lon="7.11851">
        <ele>922</ele>
        <time>2025-09-08T08:56:35Z</time>
      </trkpt>
      <trkpt lat="48.08495" lon="7.11852">
        <ele>922.6</ele>
        <time>2025-09-08T08:56:36Z</time>
      </trkpt>
      <trkpt lat="48.08492" lon="7.11853">
        <ele>922.8</ele>
        <time>2025-09-08T08:56:37Z</time>
      </trkpt>
      <trkpt lat="48.0849" lon="7.11854">
        <ele>923.4</ele>
        <time>2025-09-08T08:56:38Z</time>
      </trkpt>
      <trkpt lat="48.08487" lon="7.11855">
        <ele>923.8</ele>
        <time>2025-09-08T08:56:39Z</time>
      </trkpt>
      <trkpt lat="48.08485" lon="7.11857">
        <ele>924.2</ele>
        <time>2025-09-08T08:56:40Z</time>
      </trkpt>
      <trkpt lat="48.08483" lon="7.11858">
        <ele>924.6</ele>
        <time>2025-09-08T08:56:41Z</time>
      </trkpt>
      <trkpt lat="48.0848" lon="7.11859">
        <ele>925</ele>
        <time>2025-09-08T08:56:42Z</time>
      </trkpt>
      <trkpt lat="48.08478" lon="7.1186">
        <ele>925.4</ele>
        <time>2025-09-08T08:56:43Z</time>
      </trkpt>
      <trkpt lat="48.08475" lon="7.11861">
        <ele>925.8</ele>
        <time>2025-09-08T08:56:44Z</time>
      </trkpt>
      <trkpt lat="48.08473" lon="7.11862">
        <ele>926.4</ele>
        <time>2025-09-08T08:56:45Z</time>
      </trkpt>
      <trkpt lat="48.08471" lon="7.11863">
        <ele>926.8</ele>
        <time>2025-09-08T08:56:46Z</time>
      </trkpt>
      <trkpt lat="48.08468" lon="7.11865">
        <ele>927</ele>
        <time>2025-09-08T08:56:47Z</time>
      </trkpt>
      <trkpt lat="48.08465" lon="7.11867">
        <ele>927.2</ele>
        <time>2025-09-08T08:56:48Z</time>
      </trkpt>
      <trkpt lat="48.08463" lon="7.1187">
        <ele>927.6</ele>
        <time>2025-09-08T08:56:49Z</time>
      </trkpt>
      <trkpt lat="48.0846" lon="7.11872">
        <ele>927.8</ele>
        <time>2025-09-08T08:56:50Z</time>
      </trkpt>
      <trkpt lat="48.08457" lon="7.11875">
        <ele>928.2</ele>
        <time>2025-09-08T08:56:51Z</time>
      </trkpt>
      <trkpt lat="48.08454" lon="7.11876">
        <ele>928.4</ele>
        <time>2025-09-08T08:56:52Z</time>
      </trkpt>
      <trkpt lat="48.08452" lon="7.11879">
        <ele>928.4</ele>
        <time>2025-09-08T08:56:53Z</time>
      </trkpt>
      <trkpt lat="48.0845" lon="7.11882">
        <ele>928.6</ele>
        <time>2025-09-08T08:56:54Z</time>
      </trkpt>
      <trkpt lat="48.08449" lon="7.11885">
        <ele>929</ele>
        <time>2025-09-08T08:56:55Z</time>
      </trkpt>
      <trkpt lat="48.08446" lon="7.11889">
        <ele>929.4</ele>
        <time>2025-09-08T08:56:56Z</time>
      </trkpt>
      <trkpt lat="48.08444" lon="7.11892">
        <ele>929.6</ele>
        <time>2025-09-08T08:56:57Z</time>
      </trkpt>
      <trkpt lat="48.08442" lon="7.11895">
        <ele>930</ele>
        <time>2025-09-08T08:56:58Z</time>
      </trkpt>
      <trkpt lat="48.0844" lon="7.11898">
        <ele>930.2</ele>
        <time>2025-09-08T08:56:59Z</time>
      </trkpt>
      <trkpt lat="48.08438" lon="7.11901">
        <ele>930.8</ele>
        <time>2025-09-08T08:57:00Z</time>
      </trkpt>
      <trkpt lat="48.08436" lon="7.11904">
        <ele>931</ele>
        <time>2025-09-08T08:57:01Z</time>
      </trkpt>
      <trkpt lat="48.08435" lon="7.11907">
        <ele>930.8</ele>
        <time>2025-09-08T08:57:02Z</time>
      </trkpt>
      <trkpt lat="48.08433" lon="7.1191">
        <ele>931</ele>
        <time>2025-09-08T08:57:03Z</time>
      </trkpt>
      <trkpt lat="48.08431" lon="7.11914">
        <ele>931.2</ele>
        <time>2025-09-08T08:57:04Z</time>
      </trkpt>
      <trkpt lat="48.08429" lon="7.11916">
        <ele>931.2</ele>
        <time>2025-09-08T08:57:05Z</time>
      </trkpt>
      <trkpt lat="48.08427" lon="7.1192">
        <ele>931.2</ele>
        <time>2025-09-08T08:57:06Z</time>
      </trkpt>
      <trkpt lat="48.08425" lon="7.11923">
        <ele>931.2</ele>
        <time>2025-09-08T08:57:07Z</time>
      </trkpt>
      <trkpt lat="48.08424" lon="7.11925">
        <ele>931.4</ele>
        <time>2025-09-08T08:57:08Z</time>
      </trkpt>
      <trkpt lat="48.08422" lon="7.11928">
        <ele>931.8</ele>
        <time>2025-09-08T08:57:09Z</time>
      </trkpt>
      <trkpt lat="48.0842" lon="7.11931">
        <ele>932</ele>
        <time>2025-09-08T08:57:10Z</time>
      </trkpt>
      <trkpt lat="48.08418" lon="7.11934">
        <ele>932.2</ele>
        <time>2025-09-08T08:57:11Z</time>
      </trkpt>
      <trkpt lat="48.08416" lon="7.11937">
        <ele>932.4</ele>
        <time>2025-09-08T08:57:12Z</time>
      </trkpt>
      <trkpt lat="48.08414" lon="7.1194">
        <ele>932.4</ele>
        <time>2025-09-08T08:57:13Z</time>
      </trkpt>
      <trkpt lat="48.08412" lon="7.11943">
        <ele>932.8</ele>
        <time>2025-09-08T08:57:14Z</time>
      </trkpt>
      <trkpt lat="48.0841" lon="7.11946">
        <ele>933.2</ele>
        <time>2025-09-08T08:57:15Z</time>
      </trkpt>
      <trkpt lat="48.08408" lon="7.1195">
        <ele>933.6</ele>
        <time>2025-09-08T08:57:16Z</time>
      </trkpt>
      <trkpt lat="48.08406" lon="7.11952">
        <ele>933.8</ele>
        <time>2025-09-08T08:57:17Z</time>
      </trkpt>
      <trkpt lat="48.08403" lon="7.11954">
        <ele>934.4</ele>
        <time>2025-09-08T08:57:18Z</time>
      </trkpt>
      <trkpt lat="48.08402" lon="7.11957">
        <ele>934.8</ele>
        <time>2025-09-08T08:57:19Z</time>
      </trkpt>
      <trkpt lat="48.084" lon="7.1196">
        <ele>935</ele>
        <time>2025-09-08T08:57:20Z</time>
      </trkpt>
      <trkpt lat="48.08398" lon="7.11964">
        <ele>935.4</ele>
        <time>2025-09-08T08:57:21Z</time>
      </trkpt>
      <trkpt lat="48.08396" lon="7.11967">
        <ele>935.6</ele>
        <time>2025-09-08T08:57:22Z</time>
      </trkpt>
      <trkpt lat="48.08395" lon="7.1197">
        <ele>936</ele>
        <time>2025-09-08T08:57:23Z</time>
      </trkpt>
      <trkpt lat="48.08393" lon="7.11973">
        <ele>936.4</ele>
        <time>2025-09-08T08:57:24Z</time>
      </trkpt>
      <trkpt lat="48.08391" lon="7.11976">
        <ele>936.6</ele>
        <time>2025-09-08T08:57:25Z</time>
      </trkpt>
      <trkpt lat="48.08389" lon="7.11979">
        <ele>937.2</ele>
        <time>2025-09-08T08:57:26Z</time>
      </trkpt>
      <trkpt lat="48.08387" lon="7.11981">
        <ele>937.4</ele>
        <time>2025-09-08T08:57:27Z</time>
      </trkpt>
      <trkpt lat="48.08385" lon="7.11984">
        <ele>937.8</ele>
        <time>2025-09-08T08:57:28Z</time>
      </trkpt>
      <trkpt lat="48.08383" lon="7.11987">
        <ele>938</ele>
        <time>2025-09-08T08:57:29Z</time>
      </trkpt>
      <trkpt lat="48.08381" lon="7.1199">
        <ele>938.6</ele>
        <time>2025-09-08T08:57:30Z</time>
      </trkpt>
      <trkpt lat="48.08379" lon="7.11992">
        <ele>939</ele>
        <time>2025-09-08T08:57:31Z</time>
      </trkpt>
      <trkpt lat="48.08377" lon="7.11996">
        <ele>939.4</ele>
        <time>2025-09-08T08:57:32Z</time>
      </trkpt>
      <trkpt lat="48.08376" lon="7.11999">
        <ele>939.6</ele>
        <time>2025-09-08T08:57:33Z</time>
      </trkpt>
      <trkpt lat="48.08374" lon="7.12002">
        <ele>940</ele>
        <time>2025-09-08T08:57:34Z</time>
      </trkpt>
      <trkpt lat="48.08371" lon="7.12005">
        <ele>940.2</ele>
        <time>2025-09-08T08:57:35Z</time>
      </trkpt>
      <trkpt lat="48.08369" lon="7.12008">
        <ele>940.8</ele>
        <time>2025-09-08T08:57:36Z</time>
      </trkpt>
      <trkpt lat="48.08368" lon="7.1201">
        <ele>941.2</ele>
        <time>2025-09-08T08:57:37Z</time>
      </trkpt>
      <trkpt lat="48.08365" lon="7.12012">
        <ele>941.4</ele>
        <time>2025-09-08T08:57:38Z</time>
      </trkpt>
      <trkpt lat="48.08363" lon="7.12014">
        <ele>942</ele>
        <time>2025-09-08T08:57:39Z</time>
      </trkpt>
      <trkpt lat="48.08362" lon="7.12016">
        <ele>942.4</ele>
        <time>2025-09-08T08:57:40Z</time>
      </trkpt>
      <trkpt lat="48.0836" lon="7.1202">
        <ele>942.8</ele>
        <time>2025-09-08T08:57:41Z</time>
      </trkpt>
      <trkpt lat="48.08358" lon="7.12023">
        <ele>943.2</ele>
        <time>2025-09-08T08:57:42Z</time>
      </trkpt>
      <trkpt lat="48.08356" lon="7.12027">
        <ele>943.6</ele>
        <time>2025-09-08T08:57:43Z</time>
      </trkpt>
      <trkpt lat="48.08354" lon="7.12029">
        <ele>944</ele>
        <time>2025-09-08T08:57:44Z</time>
      </trkpt>
      <trkpt lat="48.08351" lon="7.12031">
        <ele>944.4</ele>
        <time>2025-09-08T08:57:45Z</time>
      </trkpt>
      <trkpt lat="48.08349" lon="7.12034">
        <ele>944.4</ele>
        <time>2025-09-08T08:57:46Z</time>
      </trkpt>
      <trkpt lat="48.08347" lon="7.12037">
        <ele>945</ele>
        <time>2025-09-08T08:57:47Z</time>
      </trkpt>
      <trkpt lat="48.08345" lon="7.12039">
        <ele>945.4</ele>
        <time>2025-09-08T08:57:48Z</time>
      </trkpt>
      <trkpt lat="48.08342" lon="7.12041">
        <ele>945.6</ele>
        <time>2025-09-08T08:57:49Z</time>
      </trkpt>
      <trkpt lat="48.08339" lon="7.12043">
        <ele>946</ele>
        <time>2025-09-08T08:57:50Z</time>
      </trkpt>
      <trkpt lat="48.08336" lon="7.12044">
        <ele>946.2</ele>
        <time>2025-09-08T08:57:51Z</time>
      </trkpt>
      <trkpt lat="48.08334" lon="7.12046">
        <ele>946.8</ele>
        <time>2025-09-08T08:57:52Z</time>
      </trkpt>
      <trkpt lat="48.08332" lon="7.12048">
        <ele>947.2</ele>
        <time>2025-09-08T08:57:53Z</time>
      </trkpt>
      <trkpt lat="48.0833" lon="7.1205">
        <ele>947.4</ele>
        <time>2025-09-08T08:57:54Z</time>
      </trkpt>
      <trkpt lat="48.08328" lon="7.12052">
        <ele>947.8</ele>
        <time>2025-09-08T08:57:55Z</time>
      </trkpt>
      <trkpt lat="48.08325" lon="7.12054">
        <ele>948.2</ele>
        <time>2025-09-08T08:57:56Z</time>
      </trkpt>
      <trkpt lat="48.08323" lon="7.12054">
        <ele>949</ele>
        <time>2025-09-08T08:57:57Z</time>
      </trkpt>
      <trkpt lat="48.0832" lon="7.12055">
        <ele>949.2</ele>
        <time>2025-09-08T08:57:58Z</time>
      </trkpt>
      <trkpt lat="48.08317" lon="7.12057">
        <ele>949.4</ele>
        <time>2025-09-08T08:57:59Z</time>
      </trkpt>
      <trkpt lat="48.08315" lon="7.12058">
        <ele>950</ele>
        <time>2025-09-08T08:58:00Z</time>
      </trkpt>
      <trkpt lat="48.08312" lon="7.1206">
        <ele>950.4</ele>
        <time>2025-09-08T08:58:01Z</time>
      </trkpt>
      <trkpt lat="48.08309" lon="7.12061">
        <ele>950.8</ele>
        <time>2025-09-08T08:58:02Z</time>
      </trkpt>
      <trkpt lat="48.08306" lon="7.12061">
        <ele>951</ele>
        <time>2025-09-08T08:58:03Z</time>
      </trkpt>
      <trkpt lat="48.08304" lon="7.12062">
        <ele>951.2</ele>
        <time>2025-09-08T08:58:04Z</time>
      </trkpt>
      <trkpt lat="48.08301" lon="7.12063">
        <ele>951.4</ele>
        <time>2025-09-08T08:58:05Z</time>
      </trkpt>
      <trkpt lat="48.08298" lon="7.12064">
        <ele>951.6</ele>
        <time>2025-09-08T08:58:06Z</time>
      </trkpt>
      <trkpt lat="48.08296" lon="7.12065">
        <ele>951.8</ele>
        <time>2025-09-08T08:58:07Z</time>
      </trkpt>
      <trkpt lat="48.08293" lon="7.12066">
        <ele>952.2</ele>
        <time>2025-09-08T08:58:08Z</time>
      </trkpt>
      <trkpt lat="48.0829" lon="7.12067">
        <ele>952.4</ele>
        <time>2025-09-08T08:58:09Z</time>
      </trkpt>
      <trkpt lat="48.08287" lon="7.12068">
        <ele>952.6</ele>
        <time>2025-09-08T08:58:10Z</time>
      </trkpt>
      <trkpt lat="48.08284" lon="7.12069">
        <ele>952.8</ele>
        <time>2025-09-08T08:58:11Z</time>
      </trkpt>
      <trkpt lat="48.0828" lon="7.12069">
        <ele>952.8</ele>
        <time>2025-09-08T08:58:12Z</time>
      </trkpt>
      <trkpt lat="48.08277" lon="7.1207">
        <ele>952.8</ele>
        <time>2025-09-08T08:58:13Z</time>
      </trkpt>
      <trkpt lat="48.08273" lon="7.12071">
        <ele>953</ele>
        <time>2025-09-08T08:58:14Z</time>
      </trkpt>
      <trkpt lat="48.0827" lon="7.12072">
        <ele>953</ele>
        <time>2025-09-08T08:58:15Z</time>
      </trkpt>
      <trkpt lat="48.08267" lon="7.12073">
        <ele>953</ele>
        <time>2025-09-08T08:58:16Z</time>
      </trkpt>
      <trkpt lat="48.08263" lon="7.12074">
        <ele>953</ele>
        <time>2025-09-08T08:58:17Z</time>
      </trkpt>
      <trkpt lat="48.08259" lon="7.12076">
        <ele>953</ele>
        <time>2025-09-08T08:58:18Z</time>
      </trkpt>
      <trkpt lat="48.08256" lon="7.12076">
        <ele>952.8</ele>
        <time>2025-09-08T08:58:19Z</time>
      </trkpt>
      <trkpt lat="48.08252" lon="7.12078">
        <ele>952.8</ele>
        <time>2025-09-08T08:58:20Z</time>
      </trkpt>
      <trkpt lat="48.08249" lon="7.12079">
        <ele>952.8</ele>
        <time>2025-09-08T08:58:21Z</time>
      </trkpt>
      <trkpt lat="48.08247" lon="7.12081">
        <ele>952.8</ele>
        <time>2025-09-08T08:58:22Z</time>
      </trkpt>
      <trkpt lat="48.08244" lon="7.12083">
        <ele>952.8</ele>
        <time>2025-09-08T08:58:23Z</time>
      </trkpt>
      <trkpt lat="48.0824" lon="7.12085">
        <ele>952.8</ele>
        <time>2025-09-08T08:58:24Z</time>
      </trkpt>
      <trkpt lat="48.08236" lon="7.12086">
        <ele>952.8</ele>
        <time>2025-09-08T08:58:25Z</time>
      </trkpt>
      <trkpt lat="48.08232" lon="7.12088">
        <ele>952.8</ele>
        <time>2025-09-08T08:58:26Z</time>
      </trkpt>
      <trkpt lat="48.08228" lon="7.1209">
        <ele>952.8</ele>
        <time>2025-09-08T08:58:27Z</time>
      </trkpt>
      <trkpt lat="48.08225" lon="7.12092">
        <ele>953</ele>
        <time>2025-09-08T08:58:28Z</time>
      </trkpt>
      <trkpt lat="48.08222" lon="7.12095">
        <ele>953</ele>
        <time>2025-09-08T08:58:29Z</time>
      </trkpt>
      <trkpt lat="48.08219" lon="7.12097">
        <ele>953</ele>
        <time>2025-09-08T08:58:30Z</time>
      </trkpt>
      <trkpt lat="48.08217" lon="7.12099">
        <ele>953</ele>
        <time>2025-09-08T08:58:31Z</time>
      </trkpt>
      <trkpt lat="48.08214" lon="7.12102">
        <ele>953.2</ele>
        <time>2025-09-08T08:58:32Z</time>
      </trkpt>
      <trkpt lat="48.08211" lon="7.12105">
        <ele>953.4</ele>
        <time>2025-09-08T08:58:33Z</time>
      </trkpt>
      <trkpt lat="48.08209" lon="7.12108">
        <ele>953.6</ele>
        <time>2025-09-08T08:58:34Z</time>
      </trkpt>
      <trkpt lat="48.08206" lon="7.1211">
        <ele>953.8</ele>
        <time>2025-09-08T08:58:35Z</time>
      </trkpt>
      <trkpt lat="48.08203" lon="7.12112">
        <ele>954</ele>
        <time>2025-09-08T08:58:36Z</time>
      </trkpt>
      <trkpt lat="48.08199" lon="7.12114">
        <ele>954.4</ele>
        <time>2025-09-08T08:58:37Z</time>
      </trkpt>
      <trkpt lat="48.08196" lon="7.12117">
        <ele>954.6</ele>
        <time>2025-09-08T08:58:38Z</time>
      </trkpt>
      <trkpt lat="48.08192" lon="7.1212">
        <ele>954.8</ele>
        <time>2025-09-08T08:58:39Z</time>
      </trkpt>
      <trkpt lat="48.08189" lon="7.12122">
        <ele>955</ele>
        <time>2025-09-08T08:58:40Z</time>
      </trkpt>
      <trkpt lat="48.08186" lon="7.12125">
        <ele>955.2</ele>
        <time>2025-09-08T08:58:41Z</time>
      </trkpt>
      <trkpt lat="48.08183" lon="7.12128">
        <ele>955.4</ele>
        <time>2025-09-08T08:58:42Z</time>
      </trkpt>
      <trkpt lat="48.08179" lon="7.12131">
        <ele>955.6</ele>
        <time>2025-09-08T08:58:43Z</time>
      </trkpt>
      <trkpt lat="48.08176" lon="7.12133">
        <ele>955.6</ele>
        <time>2025-09-08T08:58:44Z</time>
      </trkpt>
      <trkpt lat="48.08174" lon="7.12136">
        <ele>955.8</ele>
        <time>2025-09-08T08:58:45Z</time>
      </trkpt>
      <trkpt lat="48.08171" lon="7.12139">
        <ele>956</ele>
        <time>2025-09-08T08:58:46Z</time>
      </trkpt>
      <trkpt lat="48.08167" lon="7.12141">
        <ele>956.2</ele>
        <time>2025-09-08T08:58:47Z</time>
      </trkpt>
      <trkpt lat="48.08164" lon="7.12144">
        <ele>956.2</ele>
        <time>2025-09-08T08:58:48Z</time>
      </trkpt>
      <trkpt lat="48.0816" lon="7.12148">
        <ele>956.2</ele>
        <time>2025-09-08T08:58:49Z</time>
      </trkpt>
      <trkpt lat="48.08157" lon="7.12151">
        <ele>956.2</ele>
        <time>2025-09-08T08:58:50Z</time>
      </trkpt>
      <trkpt lat="48.08153" lon="7.12155">
        <ele>956.2</ele>
        <time>2025-09-08T08:58:51Z</time>
      </trkpt>
      <trkpt lat="48.0815" lon="7.12159">
        <ele>956.2</ele>
        <time>2025-09-08T08:58:52Z</time>
      </trkpt>
      <trkpt lat="48.08146" lon="7.12162">
        <ele>956.2</ele>
        <time>2025-09-08T08:58:53Z</time>
      </trkpt>
      <trkpt lat="48.08142" lon="7.12166">
        <ele>956.2</ele>
        <time>2025-09-08T08:58:54Z</time>
      </trkpt>
      <trkpt lat="48.08139" lon="7.12169">
        <ele>956.2</ele>
        <time>2025-09-08T08:58:55Z</time>
      </trkpt>
      <trkpt lat="48.08135" lon="7.12173">
        <ele>956</ele>
        <time>2025-09-08T08:58:56Z</time>
      </trkpt>
      <trkpt lat="48.08132" lon="7.12177">
        <ele>956</ele>
        <time>2025-09-08T08:58:57Z</time>
      </trkpt>
      <trkpt lat="48.08129" lon="7.1218">
        <ele>956</ele>
        <time>2025-09-08T08:58:58Z</time>
      </trkpt>
      <trkpt lat="48.08126" lon="7.12183">
        <ele>955.8</ele>
        <time>2025-09-08T08:58:59Z</time>
      </trkpt>
      <trkpt lat="48.08122" lon="7.12185">
        <ele>955.6</ele>
        <time>2025-09-08T08:59:00Z</time>
      </trkpt>
      <trkpt lat="48.08119" lon="7.12187">
        <ele>955.6</ele>
        <time>2025-09-08T08:59:01Z</time>
      </trkpt>
      <trkpt lat="48.08115" lon="7.12191">
        <ele>955.4</ele>
        <time>2025-09-08T08:59:02Z</time>
      </trkpt>
      <trkpt lat="48.08112" lon="7.12195">
        <ele>955.4</ele>
        <time>2025-09-08T08:59:03Z</time>
      </trkpt>
      <trkpt lat="48.08109" lon="7.12198">
        <ele>955.2</ele>
        <time>2025-09-08T08:59:04Z</time>
      </trkpt>
      <trkpt lat="48.08107" lon="7.122">
        <ele>955.2</ele>
        <time>2025-09-08T08:59:05Z</time>
      </trkpt>
      <trkpt lat="48.08105" lon="7.12202">
        <ele>955</ele>
        <time>2025-09-08T08:59:06Z</time>
      </trkpt>
      <trkpt lat="48.08103" lon="7.12203">
        <ele>955</ele>
        <time>2025-09-08T08:59:07Z</time>
      </trkpt>
      <trkpt lat="48.08102" lon="7.12205">
        <ele>954.8</ele>
        <time>2025-09-08T08:59:08Z</time>
      </trkpt>
      <trkpt lat="48.08101" lon="7.12206">
        <ele>954.8</ele>
        <time>2025-09-08T08:59:09Z</time>
      </trkpt>
      <trkpt lat="48.081" lon="7.12207">
        <ele>954.8</ele>
        <time>2025-09-08T08:59:10Z</time>
      </trkpt>
      <trkpt lat="48.081" lon="7.12208">
        <ele>954.8</ele>
        <time>2025-09-08T08:59:11Z</time>
      </trkpt>
      <trkpt lat="48.081" lon="7.12209">
        <ele>954.8</ele>
        <time>2025-09-08T08:59:12Z</time>
      </trkpt>
      <trkpt lat="48.081" lon="7.1221">
        <ele>954.8</ele>
        <time>2025-09-08T08:59:13Z</time>
      </trkpt>
      <trkpt lat="48.08099" lon="7.12211">
        <ele>954.8</ele>
        <time>2025-09-08T08:59:14Z</time>
      </trkpt>
      <trkpt lat="48.08098" lon="7.12212">
        <ele>954.8</ele>
        <time>2025-09-08T08:59:15Z</time>
      </trkpt>
      <trkpt lat="48.08096" lon="7.12214">
        <ele>954.8</ele>
        <time>2025-09-08T08:59:16Z</time>
      </trkpt>
      <trkpt lat="48.08095" lon="7.12216">
        <ele>954.8</ele>
        <time>2025-09-08T08:59:17Z</time>
      </trkpt>
      <trkpt lat="48.08093" lon="7.12218">
        <ele>954.6</ele>
        <time>2025-09-08T08:59:18Z</time>
      </trkpt>
      <trkpt lat="48.0809" lon="7.12221">
        <ele>954.6</ele>
        <time>2025-09-08T08:59:19Z</time>
      </trkpt>
      <trkpt lat="48.08088" lon="7.12224">
        <ele>954.6</ele>
        <time>2025-09-08T08:59:20Z</time>
      </trkpt>
      <trkpt lat="48.08085" lon="7.12227">
        <ele>954.6</ele>
        <time>2025-09-08T08:59:21Z</time>
      </trkpt>
      <trkpt lat="48.08082" lon="7.12231">
        <ele>954.4</ele>
        <time>2025-09-08T08:59:22Z</time>
      </trkpt>
      <trkpt lat="48.08079" lon="7.12234">
        <ele>954.4</ele>
        <time>2025-09-08T08:59:23Z</time>
      </trkpt>
      <trkpt lat="48.08076" lon="7.12237">
        <ele>954.2</ele>
        <time>2025-09-08T08:59:24Z</time>
      </trkpt>
      <trkpt lat="48.08073" lon="7.1224">
        <ele>954.2</ele>
        <time>2025-09-08T08:59:25Z</time>
      </trkpt>
      <trkpt lat="48.0807" lon="7.12244">
        <ele>954.2</ele>
        <time>2025-09-08T08:59:26Z</time>
      </trkpt>
      <trkpt lat="48.08068" lon="7.12248">
        <ele>954.2</ele>
        <time>2025-09-08T08:59:27Z</time>
      </trkpt>
      <trkpt lat="48.08065" lon="7.12252">
        <ele>954.2</ele>
        <time>2025-09-08T08:59:28Z</time>
      </trkpt>
      <trkpt lat="48.08063" lon="7.12256">
        <ele>954.4</ele>
        <time>2025-09-08T08:59:29Z</time>
      </trkpt>
      <trkpt lat="48.0806" lon="7.1226">
        <ele>954.4</ele>
        <time>2025-09-08T08:59:30Z</time>
      </trkpt>
      <trkpt lat="48.08057" lon="7.12264">
        <ele>954.4</ele>
        <time>2025-09-08T08:59:31Z</time>
      </trkpt>
      <trkpt lat="48.08054" lon="7.12268">
        <ele>954.4</ele>
        <time>2025-09-08T08:59:32Z</time>
      </trkpt>
      <trkpt lat="48.08052" lon="7.12271">
        <ele>954.6</ele>
        <time>2025-09-08T08:59:33Z</time>
      </trkpt>
      <trkpt lat="48.08049" lon="7.12275">
        <ele>954.6</ele>
        <time>2025-09-08T08:59:34Z</time>
      </trkpt>
      <trkpt lat="48.08047" lon="7.12279">
        <ele>954.6</ele>
        <time>2025-09-08T08:59:35Z</time>
      </trkpt>
      <trkpt lat="48.08044" lon="7.12284">
        <ele>954.6</ele>
        <time>2025-09-08T08:59:36Z</time>
      </trkpt>
      <trkpt lat="48.08042" lon="7.12288">
        <ele>954.8</ele>
        <time>2025-09-08T08:59:37Z</time>
      </trkpt>
      <trkpt lat="48.08039" lon="7.12292">
        <ele>954.8</ele>
        <time>2025-09-08T08:59:38Z</time>
      </trkpt>
      <trkpt lat="48.08038" lon="7.12297">
        <ele>954.8</ele>
        <time>2025-09-08T08:59:39Z</time>
      </trkpt>
      <trkpt lat="48.08036" lon="7.12301">
        <ele>955</ele>
        <time>2025-09-08T08:59:40Z</time>
      </trkpt>
      <trkpt lat="48.08036" lon="7.12303">
        <ele>955</ele>
        <time>2025-09-08T08:59:41Z</time>
      </trkpt>
      <trkpt lat="48.08035" lon="7.12304">
        <ele>955</ele>
        <time>2025-09-08T08:59:42Z</time>
      </trkpt>
      <trkpt lat="48.08035" lon="7.12304">
        <ele>955.2</ele>
        <time>2025-09-08T08:59:43Z</time>
      </trkpt>
      <trkpt lat="48.08034" lon="7.12308">
        <ele>955.8</ele>
        <time>2025-09-08T08:59:52Z</time>
      </trkpt>
      <trkpt lat="48.08033" lon="7.12312">
        <ele>955.8</ele>
        <time>2025-09-08T08:59:53Z</time>
      </trkpt>
      <trkpt lat="48.08032" lon="7.12318">
        <ele>955.8</ele>
        <time>2025-09-08T08:59:54Z</time>
      </trkpt>
      <trkpt lat="48.08032" lon="7.12325">
        <ele>955.8</ele>
        <time>2025-09-08T08:59:55Z</time>
      </trkpt>
      <trkpt lat="48.08033" lon="7.12331">
        <ele>955.8</ele>
        <time>2025-09-08T08:59:56Z</time>
      </trkpt>
      <trkpt lat="48.08034" lon="7.12339">
        <ele>955.8</ele>
        <time>2025-09-08T08:59:57Z</time>
      </trkpt>
      <trkpt lat="48.08034" lon="7.12346">
        <ele>955.6</ele>
        <time>2025-09-08T08:59:58Z</time>
      </trkpt>
      <trkpt lat="48.08034" lon="7.12354">
        <ele>955.4</ele>
        <time>2025-09-08T08:59:59Z</time>
      </trkpt>
      <trkpt lat="48.08035" lon="7.12363">
        <ele>955.2</ele>
        <time>2025-09-08T09:00:00Z</time>
      </trkpt>
      <trkpt lat="48.08036" lon="7.12371">
        <ele>955.2</ele>
        <time>2025-09-08T09:00:01Z</time>
      </trkpt>
      <trkpt lat="48.08037" lon="7.1238">
        <ele>954.4</ele>
        <time>2025-09-08T09:00:02Z</time>
      </trkpt>
      <trkpt lat="48.08038" lon="7.12389">
        <ele>954.2</ele>
        <time>2025-09-08T09:00:03Z</time>
      </trkpt>
      <trkpt lat="48.08039" lon="7.12397">
        <ele>954.2</ele>
        <time>2025-09-08T09:00:04Z</time>
      </trkpt>
      <trkpt lat="48.0804" lon="7.12406">
        <ele>953.8</ele>
        <time>2025-09-08T09:00:05Z</time>
      </trkpt>
      <trkpt lat="48.0804" lon="7.12415">
        <ele>953.6</ele>
        <time>2025-09-08T09:00:06Z</time>
      </trkpt>
      <trkpt lat="48.08042" lon="7.12423">
        <ele>953.2</ele>
        <time>2025-09-08T09:00:07Z</time>
      </trkpt>
      <trkpt lat="48.08043" lon="7.12432">
        <ele>953.2</ele>
        <time>2025-09-08T09:00:08Z</time>
      </trkpt>
      <trkpt lat="48.08044" lon="7.12442">
        <ele>953</ele>
        <time>2025-09-08T09:00:09Z</time>
      </trkpt>
      <trkpt lat="48.08045" lon="7.12451">
        <ele>952.8</ele>
        <time>2025-09-08T09:00:10Z</time>
      </trkpt>
      <trkpt lat="48.08047" lon="7.12458">
        <ele>952.6</ele>
        <time>2025-09-08T09:00:11Z</time>
      </trkpt>
      <trkpt lat="48.08049" lon="7.12466">
        <ele>952.2</ele>
        <time>2025-09-08T09:00:12Z</time>
      </trkpt>
      <trkpt lat="48.08049" lon="7.12476">
        <ele>951.8</ele>
        <time>2025-09-08T09:00:13Z</time>
      </trkpt>
      <trkpt lat="48.08048" lon="7.12486">
        <ele>951.4</ele>
        <time>2025-09-08T09:00:14Z</time>
      </trkpt>
      <trkpt lat="48.08045" lon="7.12497">
        <ele>951</ele>
        <time>2025-09-08T09:00:15Z</time>
      </trkpt>
      <trkpt lat="48.08041" lon="7.12505">
        <ele>950.4</ele>
        <time>2025-09-08T09:00:16Z</time>
      </trkpt>
      <trkpt lat="48.08037" lon="7.12513">
        <ele>949.8</ele>
        <time>2025-09-08T09:00:17Z</time>
      </trkpt>
      <trkpt lat="48.08033" lon="7.12519">
        <ele>949.2</ele>
        <time>2025-09-08T09:00:18Z</time>
      </trkpt>
      <trkpt lat="48.08029" lon="7.12526">
        <ele>948</ele>
        <time>2025-09-08T09:00:19Z</time>
      </trkpt>
      <trkpt lat="48.08026" lon="7.12532">
        <ele>947.6</ele>
        <time>2025-09-08T09:00:20Z</time>
      </trkpt>
      <trkpt lat="48.08022" lon="7.12538">
        <ele>947.4</ele>
        <time>2025-09-08T09:00:21Z</time>
      </trkpt>
      <trkpt lat="48.08018" lon="7.12544">
        <ele>947.2</ele>
        <time>2025-09-08T09:00:22Z</time>
      </trkpt>
      <trkpt lat="48.08015" lon="7.12549">
        <ele>947.2</ele>
        <time>2025-09-08T09:00:23Z</time>
      </trkpt>
      <trkpt lat="48.08011" lon="7.12555">
        <ele>947</ele>
        <time>2025-09-08T09:00:24Z</time>
      </trkpt>
      <trkpt lat="48.08008" lon="7.12561">
        <ele>947</ele>
        <time>2025-09-08T09:00:25Z</time>
      </trkpt>
      <trkpt lat="48.08006" lon="7.12567">
        <ele>947</ele>
        <time>2025-09-08T09:00:26Z</time>
      </trkpt>
      <trkpt lat="48.08002" lon="7.12573">
        <ele>947</ele>
        <time>2025-09-08T09:00:27Z</time>
      </trkpt>
      <trkpt lat="48.07999" lon="7.12579">
        <ele>947</ele>
        <time>2025-09-08T09:00:28Z</time>
      </trkpt>
      <trkpt lat="48.07996" lon="7.12584">
        <ele>947</ele>
        <time>2025-09-08T09:00:29Z</time>
      </trkpt>
      <trkpt lat="48.07993" lon="7.12587">
        <ele>947.2</ele>
        <time>2025-09-08T09:00:30Z</time>
      </trkpt>
      <trkpt lat="48.07991" lon="7.12591">
        <ele>947.2</ele>
        <time>2025-09-08T09:00:31Z</time>
      </trkpt>
      <trkpt lat="48.0799" lon="7.12594">
        <ele>947.6</ele>
        <time>2025-09-08T09:00:32Z</time>
      </trkpt>
      <trkpt lat="48.07988" lon="7.12597">
        <ele>948.2</ele>
        <time>2025-09-08T09:00:33Z</time>
      </trkpt>
      <trkpt lat="48.07986" lon="7.12599">
        <ele>948.6</ele>
        <time>2025-09-08T09:00:34Z</time>
      </trkpt>
      <trkpt lat="48.07984" lon="7.12601">
        <ele>949.2</ele>
        <time>2025-09-08T09:00:35Z</time>
      </trkpt>
      <trkpt lat="48.07982" lon="7.12602">
        <ele>950</ele>
        <time>2025-09-08T09:00:36Z</time>
      </trkpt>
      <trkpt lat="48.07979" lon="7.12603">
        <ele>950.6</ele>
        <time>2025-09-08T09:00:37Z</time>
      </trkpt>
      <trkpt lat="48.07977" lon="7.12603">
        <ele>951</ele>
        <time>2025-09-08T09:00:38Z</time>
      </trkpt>
      <trkpt lat="48.07974" lon="7.12603">
        <ele>951.8</ele>
        <time>2025-09-08T09:00:39Z</time>
      </trkpt>
      <trkpt lat="48.07972" lon="7.12604">
        <ele>952.2</ele>
        <time>2025-09-08T09:00:40Z</time>
      </trkpt>
      <trkpt lat="48.0797" lon="7.12606">
        <ele>952.6</ele>
        <time>2025-09-08T09:00:41Z</time>
      </trkpt>
      <trkpt lat="48.07968" lon="7.12608">
        <ele>952.8</ele>
        <time>2025-09-08T09:00:42Z</time>
      </trkpt>
      <trkpt lat="48.07967" lon="7.12611">
        <ele>953.2</ele>
        <time>2025-09-08T09:00:43Z</time>
      </trkpt>
      <trkpt lat="48.07965" lon="7.12613">
        <ele>953.4</ele>
        <time>2025-09-08T09:00:44Z</time>
      </trkpt>
      <trkpt lat="48.07964" lon="7.12616">
        <ele>953.8</ele>
        <time>2025-09-08T09:00:45Z</time>
      </trkpt>
      <trkpt lat="48.07963" lon="7.12618">
        <ele>954.2</ele>
        <time>2025-09-08T09:00:46Z</time>
      </trkpt>
      <trkpt lat="48.07961" lon="7.1262">
        <ele>954.4</ele>
        <time>2025-09-08T09:00:47Z</time>
      </trkpt>
      <trkpt lat="48.07959" lon="7.12621">
        <ele>954.6</ele>
        <time>2025-09-08T09:00:48Z</time>
      </trkpt>
      <trkpt lat="48.07958" lon="7.12621">
        <ele>955</ele>
        <time>2025-09-08T09:00:49Z</time>
      </trkpt>
      <trkpt lat="48.07957" lon="7.12621">
        <ele>955.4</ele>
        <time>2025-09-08T09:00:50Z</time>
      </trkpt>
      <trkpt lat="48.07955" lon="7.12622">
        <ele>955.8</ele>
        <time>2025-09-08T09:00:51Z</time>
      </trkpt>
      <trkpt lat="48.07953" lon="7.12622">
        <ele>955.8</ele>
        <time>2025-09-08T09:00:52Z</time>
      </trkpt>
      <trkpt lat="48.07951" lon="7.12622">
        <ele>956.2</ele>
        <time>2025-09-08T09:00:53Z</time>
      </trkpt>
      <trkpt lat="48.07949" lon="7.12623">
        <ele>956.4</ele>
        <time>2025-09-08T09:00:54Z</time>
      </trkpt>
      <trkpt lat="48.07947" lon="7.12622">
        <ele>956.6</ele>
        <time>2025-09-08T09:00:55Z</time>
      </trkpt>
      <trkpt lat="48.07945" lon="7.12622">
        <ele>956.8</ele>
        <time>2025-09-08T09:00:56Z</time>
      </trkpt>
      <trkpt lat="48.07943" lon="7.12621">
        <ele>957</ele>
        <time>2025-09-08T09:00:57Z</time>
      </trkpt>
      <trkpt lat="48.07941" lon="7.12621">
        <ele>957</ele>
        <time>2025-09-08T09:00:58Z</time>
      </trkpt>
      <trkpt lat="48.07939" lon="7.12621">
        <ele>957.4</ele>
        <time>2025-09-08T09:00:59Z</time>
      </trkpt>
      <trkpt lat="48.07938" lon="7.1262">
        <ele>957.6</ele>
        <time>2025-09-08T09:01:00Z</time>
      </trkpt>
      <trkpt lat="48.07935" lon="7.1262">
        <ele>958</ele>
        <time>2025-09-08T09:01:01Z</time>
      </trkpt>
      <trkpt lat="48.07933" lon="7.1262">
        <ele>958.2</ele>
        <time>2025-09-08T09:01:02Z</time>
      </trkpt>
      <trkpt lat="48.07932" lon="7.12621">
        <ele>958.6</ele>
        <time>2025-09-08T09:01:03Z</time>
      </trkpt>
      <trkpt lat="48.07929" lon="7.12622">
        <ele>958.8</ele>
        <time>2025-09-08T09:01:04Z</time>
      </trkpt>
      <trkpt lat="48.07927" lon="7.12622">
        <ele>958.8</ele>
        <time>2025-09-08T09:01:05Z</time>
      </trkpt>
      <trkpt lat="48.07925" lon="7.12622">
        <ele>959.2</ele>
        <time>2025-09-08T09:01:06Z</time>
      </trkpt>
      <trkpt lat="48.07923" lon="7.12623">
        <ele>959.4</ele>
        <time>2025-09-08T09:01:07Z</time>
      </trkpt>
      <trkpt lat="48.07921" lon="7.12624">
        <ele>959.6</ele>
        <time>2025-09-08T09:01:08Z</time>
      </trkpt>
      <trkpt lat="48.07919" lon="7.12624">
        <ele>959.8</ele>
        <time>2025-09-08T09:01:09Z</time>
      </trkpt>
      <trkpt lat="48.07917" lon="7.12624">
        <ele>960</ele>
        <time>2025-09-08T09:01:10Z</time>
      </trkpt>
      <trkpt lat="48.07915" lon="7.12625">
        <ele>960.2</ele>
        <time>2025-09-08T09:01:11Z</time>
      </trkpt>
      <trkpt lat="48.07913" lon="7.12626">
        <ele>960.6</ele>
        <time>2025-09-08T09:01:12Z</time>
      </trkpt>
      <trkpt lat="48.0791" lon="7.12628">
        <ele>961</ele>
        <time>2025-09-08T09:01:13Z</time>
      </trkpt>
      <trkpt lat="48.07908" lon="7.12629">
        <ele>961.4</ele>
        <time>2025-09-08T09:01:14Z</time>
      </trkpt>
      <trkpt lat="48.07906" lon="7.1263">
        <ele>961.6</ele>
        <time>2025-09-08T09:01:15Z</time>
      </trkpt>
      <trkpt lat="48.07903" lon="7.12631">
        <ele>961.8</ele>
        <time>2025-09-08T09:01:16Z</time>
      </trkpt>
      <trkpt lat="48.07901" lon="7.12632">
        <ele>962</ele>
        <time>2025-09-08T09:01:17Z</time>
      </trkpt>
      <trkpt lat="48.07898" lon="7.12633">
        <ele>962.2</ele>
        <time>2025-09-08T09:01:18Z</time>
      </trkpt>
      <trkpt lat="48.07896" lon="7.12635">
        <ele>962.6</ele>
        <time>2025-09-08T09:01:19Z</time>
      </trkpt>
      <trkpt lat="48.07894" lon="7.12638">
        <ele>962.8</ele>
        <time>2025-09-08T09:01:20Z</time>
      </trkpt>
      <trkpt lat="48.07892" lon="7.12641">
        <ele>962.8</ele>
        <time>2025-09-08T09:01:21Z</time>
      </trkpt>
      <trkpt lat="48.0789" lon="7.12644">
        <ele>963</ele>
        <time>2025-09-08T09:01:22Z</time>
      </trkpt>
      <trkpt lat="48.07889" lon="7.12647">
        <ele>963.2</ele>
        <time>2025-09-08T09:01:23Z</time>
      </trkpt>
      <trkpt lat="48.07887" lon="7.12651">
        <ele>963.4</ele>
        <time>2025-09-08T09:01:24Z</time>
      </trkpt>
      <trkpt lat="48.07884" lon="7.12656">
        <ele>963.6</ele>
        <time>2025-09-08T09:01:25Z</time>
      </trkpt>
      <trkpt lat="48.07882" lon="7.12661">
        <ele>963.6</ele>
        <time>2025-09-08T09:01:26Z</time>
      </trkpt>
      <trkpt lat="48.0788" lon="7.12666">
        <ele>963.6</ele>
        <time>2025-09-08T09:01:27Z</time>
      </trkpt>
      <trkpt lat="48.07879" lon="7.12673">
        <ele>963.6</ele>
        <time>2025-09-08T09:01:28Z</time>
      </trkpt>
      <trkpt lat="48.07877" lon="7.1268">
        <ele>963.4</ele>
        <time>2025-09-08T09:01:29Z</time>
      </trkpt>
      <trkpt lat="48.07875" lon="7.12686">
        <ele>963.4</ele>
        <time>2025-09-08T09:01:30Z</time>
      </trkpt>
      <trkpt lat="48.07872" lon="7.12691">
        <ele>963.2</ele>
        <time>2025-09-08T09:01:31Z</time>
      </trkpt>
      <trkpt lat="48.07869" lon="7.12696">
        <ele>963</ele>
        <time>2025-09-08T09:01:32Z</time>
      </trkpt>
      <trkpt lat="48.07867" lon="7.12702">
        <ele>963</ele>
        <time>2025-09-08T09:01:33Z</time>
      </trkpt>
      <trkpt lat="48.07865" lon="7.12709">
        <ele>963</ele>
        <time>2025-09-08T09:01:34Z</time>
      </trkpt>
      <trkpt lat="48.07862" lon="7.12716">
        <ele>962.8</ele>
        <time>2025-09-08T09:01:35Z</time>
      </trkpt>
      <trkpt lat="48.0786" lon="7.12725">
        <ele>962.8</ele>
        <time>2025-09-08T09:01:36Z</time>
      </trkpt>
      <trkpt lat="48.07856" lon="7.12732">
        <ele>962.6</ele>
        <time>2025-09-08T09:01:37Z</time>
      </trkpt>
      <trkpt lat="48.07854" lon="7.12741">
        <ele>962</ele>
        <time>2025-09-08T09:01:38Z</time>
      </trkpt>
      <trkpt lat="48.07853" lon="7.12751">
        <ele>961.8</ele>
        <time>2025-09-08T09:01:39Z</time>
      </trkpt>
      <trkpt lat="48.07853" lon="7.12762">
        <ele>961</ele>
        <time>2025-09-08T09:01:40Z</time>
      </trkpt>
      <trkpt lat="48.07854" lon="7.12774">
        <ele>960.4</ele>
        <time>2025-09-08T09:01:41Z</time>
      </trkpt>
      <trkpt lat="48.07854" lon="7.12783">
        <ele>960</ele>
        <time>2025-09-08T09:01:42Z</time>
      </trkpt>
      <trkpt lat="48.07854" lon="7.1279">
        <ele>959</ele>
        <time>2025-09-08T09:01:43Z</time>
      </trkpt>
      <trkpt lat="48.07853" lon="7.12795">
        <ele>958</ele>
        <time>2025-09-08T09:01:44Z</time>
      </trkpt>
      <trkpt lat="48.07853" lon="7.12798">
        <ele>957</ele>
        <time>2025-09-08T09:01:45Z</time>
      </trkpt>
      <trkpt lat="48.07853" lon="7.12799">
        <ele>956.6</ele>
        <time>2025-09-08T09:01:46Z</time>
      </trkpt>
      <trkpt lat="48.07854" lon="7.12801">
        <ele>956.4</ele>
        <time>2025-09-08T09:01:47Z</time>
      </trkpt>
      <trkpt lat="48.07854" lon="7.12804">
        <ele>956.2</ele>
        <time>2025-09-08T09:01:48Z</time>
      </trkpt>
      <trkpt lat="48.07854" lon="7.12805">
        <ele>956.2</ele>
        <time>2025-09-08T09:01:49Z</time>
      </trkpt>
      <trkpt lat="48.07854" lon="7.12806">
        <ele>956.2</ele>
        <time>2025-09-08T09:01:50Z</time>
      </trkpt>
      <trkpt lat="48.07853" lon="7.12808">
        <ele>956</ele>
        <time>2025-09-08T09:01:51Z</time>
      </trkpt>
      <trkpt lat="48.07852" lon="7.12811">
        <ele>956</ele>
        <time>2025-09-08T09:01:52Z</time>
      </trkpt>
      <trkpt lat="48.07851" lon="7.12815">
        <ele>955.8</ele>
        <time>2025-09-08T09:01:53Z</time>
      </trkpt>
      <trkpt lat="48.07849" lon="7.1282">
        <ele>955.6</ele>
        <time>2025-09-08T09:01:54Z</time>
      </trkpt>
      <trkpt lat="48.07848" lon="7.12825">
        <ele>955.4</ele>
        <time>2025-09-08T09:01:55Z</time>
      </trkpt>
      <trkpt lat="48.07848" lon="7.1283">
        <ele>955</ele>
        <time>2025-09-08T09:01:56Z</time>
      </trkpt>
      <trkpt lat="48.07848" lon="7.12836">
        <ele>954.8</ele>
        <time>2025-09-08T09:01:57Z</time>
      </trkpt>
      <trkpt lat="48.07847" lon="7.12843">
        <ele>954.6</ele>
        <time>2025-09-08T09:01:58Z</time>
      </trkpt>
      <trkpt lat="48.07844" lon="7.12849">
        <ele>954.4</ele>
        <time>2025-09-08T09:01:59Z</time>
      </trkpt>
      <trkpt lat="48.07841" lon="7.12855">
        <ele>954.2</ele>
        <time>2025-09-08T09:02:00Z</time>
      </trkpt>
      <trkpt lat="48.07838" lon="7.12861">
        <ele>953.8</ele>
        <time>2025-09-08T09:02:01Z</time>
      </trkpt>
      <trkpt lat="48.07834" lon="7.12866">
        <ele>953.4</ele>
        <time>2025-09-08T09:02:02Z</time>
      </trkpt>
      <trkpt lat="48.07829" lon="7.12871">
        <ele>953</ele>
        <time>2025-09-08T09:02:03Z</time>
      </trkpt>
      <trkpt lat="48.07825" lon="7.12875">
        <ele>952.8</ele>
        <time>2025-09-08T09:02:04Z</time>
      </trkpt>
      <trkpt lat="48.07821" lon="7.12877">
        <ele>952.4</ele>
        <time>2025-09-08T09:02:05Z</time>
      </trkpt>
      <trkpt lat="48.07818" lon="7.12881">
        <ele>952</ele>
        <time>2025-09-08T09:02:06Z</time>
      </trkpt>
      <trkpt lat="48.07815" lon="7.12885">
        <ele>951.8</ele>
        <time>2025-09-08T09:02:07Z</time>
      </trkpt>
      <trkpt lat="48.07814" lon="7.1289">
        <ele>951.6</ele>
        <time>2025-09-08T09:02:08Z</time>
      </trkpt>
      <trkpt lat="48.07813" lon="7.12897">
        <ele>951.4</ele>
        <time>2025-09-08T09:02:09Z</time>
      </trkpt>
      <trkpt lat="48.07814" lon="7.12901">
        <ele>951.4</ele>
        <time>2025-09-08T09:02:10Z</time>
      </trkpt>
      <trkpt lat="48.07814" lon="7.12906">
        <ele>951.2</ele>
        <time>2025-09-08T09:02:11Z</time>
      </trkpt>
      <trkpt lat="48.07815" lon="7.1291">
        <ele>951.2</ele>
        <time>2025-09-08T09:02:12Z</time>
      </trkpt>
      <trkpt lat="48.07815" lon="7.12915">
        <ele>951.2</ele>
        <time>2025-09-08T09:02:13Z</time>
      </trkpt>
      <trkpt lat="48.07815" lon="7.1292">
        <ele>951.4</ele>
        <time>2025-09-08T09:02:14Z</time>
      </trkpt>
      <trkpt lat="48.07815" lon="7.12925">
        <ele>951.4</ele>
        <time>2025-09-08T09:02:15Z</time>
      </trkpt>
      <trkpt lat="48.07816" lon="7.12929">
        <ele>951.8</ele>
        <time>2025-09-08T09:02:16Z</time>
      </trkpt>
      <trkpt lat="48.07816" lon="7.12934">
        <ele>952</ele>
        <time>2025-09-08T09:02:17Z</time>
      </trkpt>
      <trkpt lat="48.07817" lon="7.12939">
        <ele>952.4</ele>
        <time>2025-09-08T09:02:18Z</time>
      </trkpt>
      <trkpt lat="48.07818" lon="7.12944">
        <ele>952.8</ele>
        <time>2025-09-08T09:02:19Z</time>
      </trkpt>
      <trkpt lat="48.07818" lon="7.12948">
        <ele>953.2</ele>
        <time>2025-09-08T09:02:20Z</time>
      </trkpt>
      <trkpt lat="48.07818" lon="7.12952">
        <ele>953.6</ele>
        <time>2025-09-08T09:02:21Z</time>
      </trkpt>
      <trkpt lat="48.07818" lon="7.12957">
        <ele>953.8</ele>
        <time>2025-09-08T09:02:22Z</time>
      </trkpt>
      <trkpt lat="48.07819" lon="7.12961">
        <ele>954.2</ele>
        <time>2025-09-08T09:02:23Z</time>
      </trkpt>
      <trkpt lat="48.07818" lon="7.12966">
        <ele>954.6</ele>
        <time>2025-09-08T09:02:24Z</time>
      </trkpt>
      <trkpt lat="48.07817" lon="7.12971">
        <ele>954.8</ele>
        <time>2025-09-08T09:02:25Z</time>
      </trkpt>
      <trkpt lat="48.07816" lon="7.12974">
        <ele>955</ele>
        <time>2025-09-08T09:02:26Z</time>
      </trkpt>
      <trkpt lat="48.07815" lon="7.12978">
        <ele>955.6</ele>
        <time>2025-09-08T09:02:27Z</time>
      </trkpt>
      <trkpt lat="48.07813" lon="7.12982">
        <ele>956</ele>
        <time>2025-09-08T09:02:28Z</time>
      </trkpt>
      <trkpt lat="48.0781" lon="7.12986">
        <ele>956.4</ele>
        <time>2025-09-08T09:02:29Z</time>
      </trkpt>
      <trkpt lat="48.07808" lon="7.12989">
        <ele>956.6</ele>
        <time>2025-09-08T09:02:30Z</time>
      </trkpt>
      <trkpt lat="48.07805" lon="7.12993">
        <ele>957</ele>
        <time>2025-09-08T09:02:31Z</time>
      </trkpt>
      <trkpt lat="48.07803" lon="7.12997">
        <ele>957.4</ele>
        <time>2025-09-08T09:02:32Z</time>
      </trkpt>
      <trkpt lat="48.07801" lon="7.13">
        <ele>957.6</ele>
        <time>2025-09-08T09:02:33Z</time>
      </trkpt>
      <trkpt lat="48.07799" lon="7.13003">
        <ele>958</ele>
        <time>2025-09-08T09:02:34Z</time>
      </trkpt>
      <trkpt lat="48.07797" lon="7.13006">
        <ele>958.4</ele>
        <time>2025-09-08T09:02:35Z</time>
      </trkpt>
      <trkpt lat="48.07795" lon="7.13008">
        <ele>958.8</ele>
        <time>2025-09-08T09:02:36Z</time>
      </trkpt>
      <trkpt lat="48.07792" lon="7.1301">
        <ele>959.2</ele>
        <time>2025-09-08T09:02:37Z</time>
      </trkpt>
      <trkpt lat="48.07791" lon="7.13013">
        <ele>959.4</ele>
        <time>2025-09-08T09:02:38Z</time>
      </trkpt>
      <trkpt lat="48.07789" lon="7.13016">
        <ele>959.6</ele>
        <time>2025-09-08T09:02:39Z</time>
      </trkpt>
      <trkpt lat="48.07787" lon="7.1302">
        <ele>959.6</ele>
        <time>2025-09-08T09:02:40Z</time>
      </trkpt>
      <trkpt lat="48.07785" lon="7.13023">
        <ele>959.8</ele>
        <time>2025-09-08T09:02:41Z</time>
      </trkpt>
      <trkpt lat="48.07784" lon="7.13027">
        <ele>959.8</ele>
        <time>2025-09-08T09:02:42Z</time>
      </trkpt>
      <trkpt lat="48.07783" lon="7.13029">
        <ele>959.8</ele>
        <time>2025-09-08T09:02:43Z</time>
      </trkpt>
      <trkpt lat="48.07782" lon="7.1303">
        <ele>960</ele>
        <time>2025-09-08T09:02:44Z</time>
      </trkpt>
      <trkpt lat="48.07782" lon="7.1303">
        <ele>960</ele>
        <time>2025-09-08T09:02:45Z</time>
      </trkpt>
      <trkpt lat="48.07782" lon="7.13031">
        <ele>960.2</ele>
        <time>2025-09-08T09:02:46Z</time>
      </trkpt>
      <trkpt lat="48.0778" lon="7.13042">
        <ele>960.2</ele>
        <time>2025-09-08T09:03:20Z</time>
      </trkpt>
      <trkpt lat="48.07779" lon="7.13046">
        <ele>960.2</ele>
        <time>2025-09-08T09:03:21Z</time>
      </trkpt>
      <trkpt lat="48.07778" lon="7.13049">
        <ele>960.2</ele>
        <time>2025-09-08T09:03:22Z</time>
      </trkpt>
      <trkpt lat="48.07778" lon="7.13053">
        <ele>960.2</ele>
        <time>2025-09-08T09:03:23Z</time>
      </trkpt>
      <trkpt lat="48.07777" lon="7.13057">
        <ele>960.4</ele>
        <time>2025-09-08T09:03:24Z</time>
      </trkpt>
      <trkpt lat="48.07777" lon="7.13062">
        <ele>960.4</ele>
        <time>2025-09-08T09:03:25Z</time>
      </trkpt>
      <trkpt lat="48.07777" lon="7.13066">
        <ele>960.6</ele>
        <time>2025-09-08T09:03:26Z</time>
      </trkpt>
      <trkpt lat="48.07777" lon="7.1307">
        <ele>960.6</ele>
        <time>2025-09-08T09:03:27Z</time>
      </trkpt>
      <trkpt lat="48.07777" lon="7.13074">
        <ele>961</ele>
        <time>2025-09-08T09:03:28Z</time>
      </trkpt>
      <trkpt lat="48.07778" lon="7.13078">
        <ele>961.2</ele>
        <time>2025-09-08T09:03:29Z</time>
      </trkpt>
      <trkpt lat="48.07777" lon="7.13082">
        <ele>961.4</ele>
        <time>2025-09-08T09:03:30Z</time>
      </trkpt>
      <trkpt lat="48.07777" lon="7.13087">
        <ele>961.6</ele>
        <time>2025-09-08T09:03:31Z</time>
      </trkpt>
      <trkpt lat="48.07776" lon="7.13091">
        <ele>962</ele>
        <time>2025-09-08T09:03:32Z</time>
      </trkpt>
      <trkpt lat="48.07776" lon="7.13095">
        <ele>962.2</ele>
        <time>2025-09-08T09:03:33Z</time>
      </trkpt>
      <trkpt lat="48.07776" lon="7.13099">
        <ele>962.4</ele>
        <time>2025-09-08T09:03:34Z</time>
      </trkpt>
      <trkpt lat="48.07776" lon="7.13104">
        <ele>962.6</ele>
        <time>2025-09-08T09:03:35Z</time>
      </trkpt>
      <trkpt lat="48.07776" lon="7.13108">
        <ele>963</ele>
        <time>2025-09-08T09:03:36Z</time>
      </trkpt>
      <trkpt lat="48.07775" lon="7.13112">
        <ele>963.2</ele>
        <time>2025-09-08T09:03:37Z</time>
      </trkpt>
      <trkpt lat="48.07775" lon="7.13117">
        <ele>963.4</ele>
        <time>2025-09-08T09:03:38Z</time>
      </trkpt>
      <trkpt lat="48.07776" lon="7.13121">
        <ele>963.8</ele>
        <time>2025-09-08T09:03:39Z</time>
      </trkpt>
      <trkpt lat="48.07776" lon="7.13125">
        <ele>964</ele>
        <time>2025-09-08T09:03:40Z</time>
      </trkpt>
      <trkpt lat="48.07777" lon="7.13129">
        <ele>964.2</ele>
        <time>2025-09-08T09:03:41Z</time>
      </trkpt>
      <trkpt lat="48.07777" lon="7.13134">
        <ele>964.6</ele>
        <time>2025-09-08T09:03:42Z</time>
      </trkpt>
      <trkpt lat="48.07778" lon="7.13137">
        <ele>964.8</ele>
        <time>2025-09-08T09:03:43Z</time>
      </trkpt>
      <trkpt lat="48.07779" lon="7.13141">
        <ele>965</ele>
        <time>2025-09-08T09:03:44Z</time>
      </trkpt>
      <trkpt lat="48.07779" lon="7.13146">
        <ele>965.2</ele>
        <time>2025-09-08T09:03:45Z</time>
      </trkpt>
      <trkpt lat="48.07779" lon="7.1315">
        <ele>965.4</ele>
        <time>2025-09-08T09:03:46Z</time>
      </trkpt>
      <trkpt lat="48.07779" lon="7.13154">
        <ele>965.8</ele>
        <time>2025-09-08T09:03:47Z</time>
      </trkpt>
      <trkpt lat="48.07779" lon="7.13159">
        <ele>965.8</ele>
        <time>2025-09-08T09:03:48Z</time>
      </trkpt>
      <trkpt lat="48.07779" lon="7.13163">
        <ele>966</ele>
        <time>2025-09-08T09:03:49Z</time>
      </trkpt>
      <trkpt lat="48.07778" lon="7.13168">
        <ele>966.2</ele>
        <time>2025-09-08T09:03:50Z</time>
      </trkpt>
      <trkpt lat="48.07778" lon="7.13172">
        <ele>966.4</ele>
        <time>2025-09-08T09:03:51Z</time>
      </trkpt>
      <trkpt lat="48.07779" lon="7.13177">
        <ele>966.6</ele>
        <time>2025-09-08T09:03:52Z</time>
      </trkpt>
      <trkpt lat="48.07779" lon="7.13182">
        <ele>966.8</ele>
        <time>2025-09-08T09:03:53Z</time>
      </trkpt>
      <trkpt lat="48.07778" lon="7.13186">
        <ele>966.8</ele>
        <time>2025-09-08T09:03:54Z</time>
      </trkpt>
      <trkpt lat="48.07778" lon="7.13191">
        <ele>967</ele>
        <time>2025-09-08T09:03:55Z</time>
      </trkpt>
      <trkpt lat="48.07778" lon="7.13195">
        <ele>967.2</ele>
        <time>2025-09-08T09:03:56Z</time>
      </trkpt>
      <trkpt lat="48.07778" lon="7.132">
        <ele>967.4</ele>
        <time>2025-09-08T09:03:57Z</time>
      </trkpt>
      <trkpt lat="48.07778" lon="7.13205">
        <ele>967.6</ele>
        <time>2025-09-08T09:03:58Z</time>
      </trkpt>
      <trkpt lat="48.07778" lon="7.13209">
        <ele>967.8</ele>
        <time>2025-09-08T09:03:59Z</time>
      </trkpt>
      <trkpt lat="48.07778" lon="7.13213">
        <ele>968</ele>
        <time>2025-09-08T09:04:00Z</time>
      </trkpt>
      <trkpt lat="48.07778" lon="7.13218">
        <ele>968.2</ele>
        <time>2025-09-08T09:04:01Z</time>
      </trkpt>
      <trkpt lat="48.07778" lon="7.13222">
        <ele>968.4</ele>
        <time>2025-09-08T09:04:02Z</time>
      </trkpt>
      <trkpt lat="48.07778" lon="7.13226">
        <ele>968.6</ele>
        <time>2025-09-08T09:04:03Z</time>
      </trkpt>
      <trkpt lat="48.07779" lon="7.1323">
        <ele>968.8</ele>
        <time>2025-09-08T09:04:04Z</time>
      </trkpt>
      <trkpt lat="48.07779" lon="7.13235">
        <ele>969</ele>
        <time>2025-09-08T09:04:05Z</time>
      </trkpt>
      <trkpt lat="48.0778" lon="7.13239">
        <ele>969.2</ele>
        <time>2025-09-08T09:04:06Z</time>
      </trkpt>
      <trkpt lat="48.07781" lon="7.13244">
        <ele>969.4</ele>
        <time>2025-09-08T09:04:07Z</time>
      </trkpt>
      <trkpt lat="48.07781" lon="7.13248">
        <ele>969.6</ele>
        <time>2025-09-08T09:04:08Z</time>
      </trkpt>
      <trkpt lat="48.07782" lon="7.13252">
        <ele>969.8</ele>
        <time>2025-09-08T09:04:09Z</time>
      </trkpt>
      <trkpt lat="48.07782" lon="7.13257">
        <ele>970</ele>
        <time>2025-09-08T09:04:10Z</time>
      </trkpt>
      <trkpt lat="48.07782" lon="7.13261">
        <ele>970.2</ele>
        <time>2025-09-08T09:04:11Z</time>
      </trkpt>
      <trkpt lat="48.07782" lon="7.13265">
        <ele>970.6</ele>
        <time>2025-09-08T09:04:12Z</time>
      </trkpt>
      <trkpt lat="48.07782" lon="7.1327">
        <ele>970.8</ele>
        <time>2025-09-08T09:04:13Z</time>
      </trkpt>
      <trkpt lat="48.07781" lon="7.13273">
        <ele>971</ele>
        <time>2025-09-08T09:04:14Z</time>
      </trkpt>
      <trkpt lat="48.07781" lon="7.13277">
        <ele>971.2</ele>
        <time>2025-09-08T09:04:15Z</time>
      </trkpt>
      <trkpt lat="48.0778" lon="7.13282">
        <ele>971.4</ele>
        <time>2025-09-08T09:04:16Z</time>
      </trkpt>
      <trkpt lat="48.07779" lon="7.13286">
        <ele>971.8</ele>
        <time>2025-09-08T09:04:17Z</time>
      </trkpt>
      <trkpt lat="48.07779" lon="7.1329">
        <ele>972</ele>
        <time>2025-09-08T09:04:18Z</time>
      </trkpt>
      <trkpt lat="48.07778" lon="7.13295">
        <ele>972.2</ele>
        <time>2025-09-08T09:04:19Z</time>
      </trkpt>
      <trkpt lat="48.07778" lon="7.13299">
        <ele>972.6</ele>
        <time>2025-09-08T09:04:20Z</time>
      </trkpt>
      <trkpt lat="48.07779" lon="7.13303">
        <ele>972.8</ele>
        <time>2025-09-08T09:04:21Z</time>
      </trkpt>
      <trkpt lat="48.0778" lon="7.13306">
        <ele>973.2</ele>
        <time>2025-09-08T09:04:22Z</time>
      </trkpt>
      <trkpt lat="48.07779" lon="7.1331">
        <ele>973.6</ele>
        <time>2025-09-08T09:04:23Z</time>
      </trkpt>
      <trkpt lat="48.07779" lon="7.13314">
        <ele>973.8</ele>
        <time>2025-09-08T09:04:24Z</time>
      </trkpt>
      <trkpt lat="48.07779" lon="7.13318">
        <ele>974</ele>
        <time>2025-09-08T09:04:25Z</time>
      </trkpt>
      <trkpt lat="48.07778" lon="7.13322">
        <ele>974.2</ele>
        <time>2025-09-08T09:04:26Z</time>
      </trkpt>
      <trkpt lat="48.07777" lon="7.13326">
        <ele>974.6</ele>
        <time>2025-09-08T09:04:27Z</time>
      </trkpt>
      <trkpt lat="48.07774" lon="7.13329">
        <ele>974.8</ele>
        <time>2025-09-08T09:04:28Z</time>
      </trkpt>
      <trkpt lat="48.07772" lon="7.13333">
        <ele>975.2</ele>
        <time>2025-09-08T09:04:29Z</time>
      </trkpt>
      <trkpt lat="48.0777" lon="7.13336">
        <ele>975.4</ele>
        <time>2025-09-08T09:04:30Z</time>
      </trkpt>
      <trkpt lat="48.07767" lon="7.13339">
        <ele>975.6</ele>
        <time>2025-09-08T09:04:31Z</time>
      </trkpt>
      <trkpt lat="48.07765" lon="7.13342">
        <ele>975.6</ele>
        <time>2025-09-08T09:04:32Z</time>
      </trkpt>
      <trkpt lat="48.07764" lon="7.13345">
        <ele>976</ele>
        <time>2025-09-08T09:04:33Z</time>
      </trkpt>
      <trkpt lat="48.07763" lon="7.13348">
        <ele>976.2</ele>
        <time>2025-09-08T09:04:34Z</time>
      </trkpt>
      <trkpt lat="48.07763" lon="7.13348">
        <ele>976.2</ele>
        <time>2025-09-08T09:04:35Z</time>
      </trkpt>
      <trkpt lat="48.07763" lon="7.13349">
        <ele>976.4</ele>
        <time>2025-09-08T09:04:36Z</time>
      </trkpt>
      <trkpt lat="48.07758" lon="7.13362">
        <ele>976.4</ele>
        <time>2025-09-08T09:05:28Z</time>
      </trkpt>
      <trkpt lat="48.0776" lon="7.13365">
        <ele>976.6</ele>
        <time>2025-09-08T09:05:29Z</time>
      </trkpt>
      <trkpt lat="48.07761" lon="7.13367">
        <ele>976.8</ele>
        <time>2025-09-08T09:05:30Z</time>
      </trkpt>
      <trkpt lat="48.07763" lon="7.13367">
        <ele>977</ele>
        <time>2025-09-08T09:05:31Z</time>
      </trkpt>
      <trkpt lat="48.07766" lon="7.13369">
        <ele>977</ele>
        <time>2025-09-08T09:05:32Z</time>
      </trkpt>
      <trkpt lat="48.07768" lon="7.1337">
        <ele>977.2</ele>
        <time>2025-09-08T09:05:33Z</time>
      </trkpt>
      <trkpt lat="48.07769" lon="7.13372">
        <ele>977.4</ele>
        <time>2025-09-08T09:05:34Z</time>
      </trkpt>
      <trkpt lat="48.07771" lon="7.13374">
        <ele>978</ele>
        <time>2025-09-08T09:05:35Z</time>
      </trkpt>
      <trkpt lat="48.07773" lon="7.13375">
        <ele>978</ele>
        <time>2025-09-08T09:05:36Z</time>
      </trkpt>
      <trkpt lat="48.07775" lon="7.13376">
        <ele>978.4</ele>
        <time>2025-09-08T09:05:37Z</time>
      </trkpt>
      <trkpt lat="48.07778" lon="7.13376">
        <ele>978.8</ele>
        <time>2025-09-08T09:05:38Z</time>
      </trkpt>
      <trkpt lat="48.0778" lon="7.13375">
        <ele>979.2</ele>
        <time>2025-09-08T09:05:39Z</time>
      </trkpt>
      <trkpt lat="48.07783" lon="7.13375">
        <ele>979.4</ele>
        <time>2025-09-08T09:05:40Z</time>
      </trkpt>
      <trkpt lat="48.07786" lon="7.13374">
        <ele>979.8</ele>
        <time>2025-09-08T09:05:41Z</time>
      </trkpt>
      <trkpt lat="48.07788" lon="7.13376">
        <ele>980</ele>
        <time>2025-09-08T09:05:42Z</time>
      </trkpt>
      <trkpt lat="48.0779" lon="7.13379">
        <ele>980.4</ele>
        <time>2025-09-08T09:05:43Z</time>
      </trkpt>
      <trkpt lat="48.07792" lon="7.13382">
        <ele>980.6</ele>
        <time>2025-09-08T09:05:44Z</time>
      </trkpt>
      <trkpt lat="48.07795" lon="7.13385">
        <ele>980.8</ele>
        <time>2025-09-08T09:05:45Z</time>
      </trkpt>
      <trkpt lat="48.07797" lon="7.13387">
        <ele>981</ele>
        <time>2025-09-08T09:05:46Z</time>
      </trkpt>
      <trkpt lat="48.078" lon="7.13388">
        <ele>981.2</ele>
        <time>2025-09-08T09:05:47Z</time>
      </trkpt>
      <trkpt lat="48.07802" lon="7.13388">
        <ele>981.6</ele>
        <time>2025-09-08T09:05:48Z</time>
      </trkpt>
      <trkpt lat="48.07805" lon="7.13387">
        <ele>981.8</ele>
        <time>2025-09-08T09:05:49Z</time>
      </trkpt>
      <trkpt lat="48.07808" lon="7.13386">
        <ele>982</ele>
        <time>2025-09-08T09:05:50Z</time>
      </trkpt>
      <trkpt lat="48.0781" lon="7.13385">
        <ele>982.4</ele>
        <time>2025-09-08T09:05:51Z</time>
      </trkpt>
      <trkpt lat="48.07812" lon="7.13384">
        <ele>982.6</ele>
        <time>2025-09-08T09:05:52Z</time>
      </trkpt>
      <trkpt lat="48.07815" lon="7.13383">
        <ele>983</ele>
        <time>2025-09-08T09:05:53Z</time>
      </trkpt>
      <trkpt lat="48.07818" lon="7.13381">
        <ele>983.2</ele>
        <time>2025-09-08T09:05:54Z</time>
      </trkpt>
      <trkpt lat="48.0782" lon="7.1338">
        <ele>983.4</ele>
        <time>2025-09-08T09:05:55Z</time>
      </trkpt>
      <trkpt lat="48.07823" lon="7.13379">
        <ele>983.6</ele>
        <time>2025-09-08T09:05:56Z</time>
      </trkpt>
      <trkpt lat="48.07825" lon="7.13378">
        <ele>983.8</ele>
        <time>2025-09-08T09:05:57Z</time>
      </trkpt>
      <trkpt lat="48.07828" lon="7.13377">
        <ele>984</ele>
        <time>2025-09-08T09:05:58Z</time>
      </trkpt>
      <trkpt lat="48.07832" lon="7.13376">
        <ele>984.4</ele>
        <time>2025-09-08T09:05:59Z</time>
      </trkpt>
      <trkpt lat="48.07835" lon="7.13376">
        <ele>984.4</ele>
        <time>2025-09-08T09:06:00Z</time>
      </trkpt>
      <trkpt lat="48.07838" lon="7.13375">
        <ele>984.6</ele>
        <time>2025-09-08T09:06:01Z</time>
      </trkpt>
      <trkpt lat="48.07841" lon="7.13375">
        <ele>984.8</ele>
        <time>2025-09-08T09:06:02Z</time>
      </trkpt>
      <trkpt lat="48.07844" lon="7.13374">
        <ele>985</ele>
        <time>2025-09-08T09:06:03Z</time>
      </trkpt>
      <trkpt lat="48.07847" lon="7.13374">
        <ele>985</ele>
        <time>2025-09-08T09:06:04Z</time>
      </trkpt>
      <trkpt lat="48.07851" lon="7.13373">
        <ele>985.4</ele>
        <time>2025-09-08T09:06:05Z</time>
      </trkpt>
      <trkpt lat="48.07855" lon="7.13374">
        <ele>985.4</ele>
        <time>2025-09-08T09:06:06Z</time>
      </trkpt>
      <trkpt lat="48.07859" lon="7.13375">
        <ele>985.6</ele>
        <time>2025-09-08T09:06:07Z</time>
      </trkpt>
      <trkpt lat="48.07863" lon="7.13376">
        <ele>985.8</ele>
        <time>2025-09-08T09:06:08Z</time>
      </trkpt>
      <trkpt lat="48.07866" lon="7.13377">
        <ele>985.8</ele>
        <time>2025-09-08T09:06:09Z</time>
      </trkpt>
      <trkpt lat="48.0787" lon="7.13378">
        <ele>986</ele>
        <time>2025-09-08T09:06:10Z</time>
      </trkpt>
      <trkpt lat="48.07873" lon="7.1338">
        <ele>986</ele>
        <time>2025-09-08T09:06:11Z</time>
      </trkpt>
      <trkpt lat="48.07877" lon="7.13382">
        <ele>986.2</ele>
        <time>2025-09-08T09:06:12Z</time>
      </trkpt>
      <trkpt lat="48.07881" lon="7.13384">
        <ele>986.4</ele>
        <time>2025-09-08T09:06:13Z</time>
      </trkpt>
      <trkpt lat="48.07884" lon="7.13386">
        <ele>986.6</ele>
        <time>2025-09-08T09:06:14Z</time>
      </trkpt>
      <trkpt lat="48.07886" lon="7.13388">
        <ele>986.6</ele>
        <time>2025-09-08T09:06:15Z</time>
      </trkpt>
      <trkpt lat="48.07889" lon="7.1339">
        <ele>986.8</ele>
        <time>2025-09-08T09:06:16Z</time>
      </trkpt>
      <trkpt lat="48.07892" lon="7.13393">
        <ele>987</ele>
        <time>2025-09-08T09:06:17Z</time>
      </trkpt>
      <trkpt lat="48.07895" lon="7.13395">
        <ele>987.2</ele>
        <time>2025-09-08T09:06:18Z</time>
      </trkpt>
      <trkpt lat="48.07899" lon="7.13397">
        <ele>987.4</ele>
        <time>2025-09-08T09:06:19Z</time>
      </trkpt>
      <trkpt lat="48.07902" lon="7.134">
        <ele>987.6</ele>
        <time>2025-09-08T09:06:20Z</time>
      </trkpt>
      <trkpt lat="48.07905" lon="7.13402">
        <ele>987.8</ele>
        <time>2025-09-08T09:06:21Z</time>
      </trkpt>
      <trkpt lat="48.07907" lon="7.13405">
        <ele>988.2</ele>
        <time>2025-09-08T09:06:22Z</time>
      </trkpt>
      <trkpt lat="48.0791" lon="7.13408">
        <ele>988.4</ele>
        <time>2025-09-08T09:06:23Z</time>
      </trkpt>
      <trkpt lat="48.07913" lon="7.13411">
        <ele>988.6</ele>
        <time>2025-09-08T09:06:24Z</time>
      </trkpt>
      <trkpt lat="48.07916" lon="7.13413">
        <ele>989.2</ele>
        <time>2025-09-08T09:06:25Z</time>
      </trkpt>
      <trkpt lat="48.07919" lon="7.13416">
        <ele>989.2</ele>
        <time>2025-09-08T09:06:26Z</time>
      </trkpt>
      <trkpt lat="48.07922" lon="7.13419">
        <ele>989.4</ele>
        <time>2025-09-08T09:06:27Z</time>
      </trkpt>
      <trkpt lat="48.07925" lon="7.13421">
        <ele>989.6</ele>
        <time>2025-09-08T09:06:28Z</time>
      </trkpt>
      <trkpt lat="48.07928" lon="7.13425">
        <ele>990</ele>
        <time>2025-09-08T09:06:29Z</time>
      </trkpt>
      <trkpt lat="48.0793" lon="7.13428">
        <ele>990.4</ele>
        <time>2025-09-08T09:06:30Z</time>
      </trkpt>
      <trkpt lat="48.07933" lon="7.13431">
        <ele>990.6</ele>
        <time>2025-09-08T09:06:31Z</time>
      </trkpt>
      <trkpt lat="48.07935" lon="7.13434">
        <ele>990.8</ele>
        <time>2025-09-08T09:06:32Z</time>
      </trkpt>
      <trkpt lat="48.07938" lon="7.13438">
        <ele>991.2</ele>
        <time>2025-09-08T09:06:33Z</time>
      </trkpt>
      <trkpt lat="48.07941" lon="7.13442">
        <ele>991.4</ele>
        <time>2025-09-08T09:06:34Z</time>
      </trkpt>
      <trkpt lat="48.07943" lon="7.13446">
        <ele>991.6</ele>
        <time>2025-09-08T09:06:35Z</time>
      </trkpt>
      <trkpt lat="48.07945" lon="7.1345">
        <ele>992</ele>
        <time>2025-09-08T09:06:36Z</time>
      </trkpt>
      <trkpt lat="48.07948" lon="7.13453">
        <ele>992</ele>
        <time>2025-09-08T09:06:37Z</time>
      </trkpt>
      <trkpt lat="48.0795" lon="7.13458">
        <ele>992.6</ele>
        <time>2025-09-08T09:06:38Z</time>
      </trkpt>
      <trkpt lat="48.07953" lon="7.13462">
        <ele>992.8</ele>
        <time>2025-09-08T09:06:39Z</time>
      </trkpt>
      <trkpt lat="48.07955" lon="7.13466">
        <ele>992.8</ele>
        <time>2025-09-08T09:06:40Z</time>
      </trkpt>
      <trkpt lat="48.07957" lon="7.1347">
        <ele>993</ele>
        <time>2025-09-08T09:06:41Z</time>
      </trkpt>
      <trkpt lat="48.0796" lon="7.13474">
        <ele>993.4</ele>
        <time>2025-09-08T09:06:42Z</time>
      </trkpt>
      <trkpt lat="48.07962" lon="7.13478">
        <ele>993.6</ele>
        <time>2025-09-08T09:06:43Z</time>
      </trkpt>
      <trkpt lat="48.07964" lon="7.13482">
        <ele>993.8</ele>
        <time>2025-09-08T09:06:44Z</time>
      </trkpt>
      <trkpt lat="48.07966" lon="7.13486">
        <ele>994.2</ele>
        <time>2025-09-08T09:06:45Z</time>
      </trkpt>
      <trkpt lat="48.07968" lon="7.13491">
        <ele>994.4</ele>
        <time>2025-09-08T09:06:46Z</time>
      </trkpt>
      <trkpt lat="48.0797" lon="7.13495">
        <ele>994.6</ele>
        <time>2025-09-08T09:06:47Z</time>
      </trkpt>
      <trkpt lat="48.07972" lon="7.13499">
        <ele>994.8</ele>
        <time>2025-09-08T09:06:48Z</time>
      </trkpt>
      <trkpt lat="48.07975" lon="7.13503">
        <ele>995.2</ele>
        <time>2025-09-08T09:06:49Z</time>
      </trkpt>
      <trkpt lat="48.07977" lon="7.13507">
        <ele>995.2</ele>
        <time>2025-09-08T09:06:50Z</time>
      </trkpt>
      <trkpt lat="48.07979" lon="7.13511">
        <ele>995.4</ele>
        <time>2025-09-08T09:06:51Z</time>
      </trkpt>
      <trkpt lat="48.07981" lon="7.13514">
        <ele>995.8</ele>
        <time>2025-09-08T09:06:52Z</time>
      </trkpt>
      <trkpt lat="48.07983" lon="7.13517">
        <ele>996</ele>
        <time>2025-09-08T09:06:53Z</time>
      </trkpt>
      <trkpt lat="48.07985" lon="7.13521">
        <ele>996.2</ele>
        <time>2025-09-08T09:06:54Z</time>
      </trkpt>
      <trkpt lat="48.07987" lon="7.13524">
        <ele>996.4</ele>
        <time>2025-09-08T09:06:55Z</time>
      </trkpt>
      <trkpt lat="48.07989" lon="7.13528">
        <ele>996.6</ele>
        <time>2025-09-08T09:06:56Z</time>
      </trkpt>
      <trkpt lat="48.07992" lon="7.13532">
        <ele>997</ele>
        <time>2025-09-08T09:06:57Z</time>
      </trkpt>
      <trkpt lat="48.07994" lon="7.13536">
        <ele>997</ele>
        <time>2025-09-08T09:06:58Z</time>
      </trkpt>
      <trkpt lat="48.07996" lon="7.13539">
        <ele>997.4</ele>
        <time>2025-09-08T09:06:59Z</time>
      </trkpt>
      <trkpt lat="48.07998" lon="7.13543">
        <ele>998</ele>
        <time>2025-09-08T09:07:00Z</time>
      </trkpt>
      <trkpt lat="48.08001" lon="7.13547">
        <ele>998.2</ele>
        <time>2025-09-08T09:07:01Z</time>
      </trkpt>
      <trkpt lat="48.08003" lon="7.1355">
        <ele>998.4</ele>
        <time>2025-09-08T09:07:02Z</time>
      </trkpt>
      <trkpt lat="48.08005" lon="7.13553">
        <ele>998.8</ele>
        <time>2025-09-08T09:07:03Z</time>
      </trkpt>
      <trkpt lat="48.08007" lon="7.13556">
        <ele>999</ele>
        <time>2025-09-08T09:07:04Z</time>
      </trkpt>
      <trkpt lat="48.08009" lon="7.1356">
        <ele>999.6</ele>
        <time>2025-09-08T09:07:05Z</time>
      </trkpt>
      <trkpt lat="48.08012" lon="7.13563">
        <ele>999.8</ele>
        <time>2025-09-08T09:07:06Z</time>
      </trkpt>
      <trkpt lat="48.08014" lon="7.13567">
        <ele>1000.4</ele>
        <time>2025-09-08T09:07:07Z</time>
      </trkpt>
      <trkpt lat="48.08017" lon="7.1357">
        <ele>1000.8</ele>
        <time>2025-09-08T09:07:08Z</time>
      </trkpt>
      <trkpt lat="48.08019" lon="7.13574">
        <ele>1000.8</ele>
        <time>2025-09-08T09:07:09Z</time>
      </trkpt>
      <trkpt lat="48.08021" lon="7.13578">
        <ele>1001.4</ele>
        <time>2025-09-08T09:07:10Z</time>
      </trkpt>
      <trkpt lat="48.08024" lon="7.13582">
        <ele>1001.8</ele>
        <time>2025-09-08T09:07:11Z</time>
      </trkpt>
      <trkpt lat="48.08026" lon="7.13586">
        <ele>1002</ele>
        <time>2025-09-08T09:07:12Z</time>
      </trkpt>
      <trkpt lat="48.08028" lon="7.13589">
        <ele>1002.4</ele>
        <time>2025-09-08T09:07:13Z</time>
      </trkpt>
      <trkpt lat="48.08031" lon="7.13593">
        <ele>1002.8</ele>
        <time>2025-09-08T09:07:14Z</time>
      </trkpt>
      <trkpt lat="48.08033" lon="7.13596">
        <ele>1003</ele>
        <time>2025-09-08T09:07:15Z</time>
      </trkpt>
      <trkpt lat="48.08035" lon="7.13599">
        <ele>1003.2</ele>
        <time>2025-09-08T09:07:16Z</time>
      </trkpt>
      <trkpt lat="48.08037" lon="7.13602">
        <ele>1003.4</ele>
        <time>2025-09-08T09:07:17Z</time>
      </trkpt>
      <trkpt lat="48.0804" lon="7.13605">
        <ele>1003.6</ele>
        <time>2025-09-08T09:07:18Z</time>
      </trkpt>
      <trkpt lat="48.08042" lon="7.13608">
        <ele>1004</ele>
        <time>2025-09-08T09:07:19Z</time>
      </trkpt>
      <trkpt lat="48.08043" lon="7.13611">
        <ele>1004.4</ele>
        <time>2025-09-08T09:07:20Z</time>
      </trkpt>
      <trkpt lat="48.08046" lon="7.13614">
        <ele>1004.8</ele>
        <time>2025-09-08T09:07:21Z</time>
      </trkpt>
      <trkpt lat="48.08048" lon="7.13617">
        <ele>1005</ele>
        <time>2025-09-08T09:07:22Z</time>
      </trkpt>
      <trkpt lat="48.0805" lon="7.13621">
        <ele>1005.4</ele>
        <time>2025-09-08T09:07:23Z</time>
      </trkpt>
      <trkpt lat="48.08052" lon="7.13624">
        <ele>1005.6</ele>
        <time>2025-09-08T09:07:24Z</time>
      </trkpt>
      <trkpt lat="48.08054" lon="7.13627">
        <ele>1006</ele>
        <time>2025-09-08T09:07:25Z</time>
      </trkpt>
      <trkpt lat="48.08056" lon="7.13629">
        <ele>1006.4</ele>
        <time>2025-09-08T09:07:26Z</time>
      </trkpt>
      <trkpt lat="48.08058" lon="7.13632">
        <ele>1006.6</ele>
        <time>2025-09-08T09:07:27Z</time>
      </trkpt>
      <trkpt lat="48.08061" lon="7.13635">
        <ele>1007</ele>
        <time>2025-09-08T09:07:28Z</time>
      </trkpt>
      <trkpt lat="48.08063" lon="7.13638">
        <ele>1007.2</ele>
        <time>2025-09-08T09:07:29Z</time>
      </trkpt>
      <trkpt lat="48.08066" lon="7.13641">
        <ele>1007.6</ele>
        <time>2025-09-08T09:07:30Z</time>
      </trkpt>
      <trkpt lat="48.08068" lon="7.13643">
        <ele>1007.6</ele>
        <time>2025-09-08T09:07:31Z</time>
      </trkpt>
      <trkpt lat="48.0807" lon="7.13646">
        <ele>1007.8</ele>
        <time>2025-09-08T09:07:32Z</time>
      </trkpt>
      <trkpt lat="48.08073" lon="7.1365">
        <ele>1008</ele>
        <time>2025-09-08T09:07:33Z</time>
      </trkpt>
      <trkpt lat="48.08075" lon="7.13653">
        <ele>1008.4</ele>
        <time>2025-09-08T09:07:34Z</time>
      </trkpt>
      <trkpt lat="48.08077" lon="7.13656">
        <ele>1008.8</ele>
        <time>2025-09-08T09:07:35Z</time>
      </trkpt>
      <trkpt lat="48.08079" lon="7.13659">
        <ele>1009.8</ele>
        <time>2025-09-08T09:07:36Z</time>
      </trkpt>
      <trkpt lat="48.08082" lon="7.13662">
        <ele>1009.8</ele>
        <time>2025-09-08T09:07:37Z</time>
      </trkpt>
      <trkpt lat="48.08084" lon="7.13665">
        <ele>1010</ele>
        <time>2025-09-08T09:07:38Z</time>
      </trkpt>
      <trkpt lat="48.08085" lon="7.13668">
        <ele>1010.2</ele>
        <time>2025-09-08T09:07:39Z</time>
      </trkpt>
      <trkpt lat="48.08087" lon="7.13671">
        <ele>1010.4</ele>
        <time>2025-09-08T09:07:40Z</time>
      </trkpt>
      <trkpt lat="48.08089" lon="7.13674">
        <ele>1010.4</ele>
        <time>2025-09-08T09:07:41Z</time>
      </trkpt>
      <trkpt lat="48.08091" lon="7.13677">
        <ele>1010.6</ele>
        <time>2025-09-08T09:07:42Z</time>
      </trkpt>
      <trkpt lat="48.08093" lon="7.1368">
        <ele>1011</ele>
        <time>2025-09-08T09:07:43Z</time>
      </trkpt>
      <trkpt lat="48.08095" lon="7.13683">
        <ele>1011.4</ele>
        <time>2025-09-08T09:07:44Z</time>
      </trkpt>
      <trkpt lat="48.08097" lon="7.13686">
        <ele>1011.6</ele>
        <time>2025-09-08T09:07:45Z</time>
      </trkpt>
      <trkpt lat="48.08099" lon="7.1369">
        <ele>1011.8</ele>
        <time>2025-09-08T09:07:46Z</time>
      </trkpt>
      <trkpt lat="48.08101" lon="7.13693">
        <ele>1012</ele>
        <time>2025-09-08T09:07:47Z</time>
      </trkpt>
      <trkpt lat="48.08104" lon="7.13697">
        <ele>1012.2</ele>
        <time>2025-09-08T09:07:48Z</time>
      </trkpt>
      <trkpt lat="48.08106" lon="7.137">
        <ele>1012.6</ele>
        <time>2025-09-08T09:07:49Z</time>
      </trkpt>
      <trkpt lat="48.08108" lon="7.13704">
        <ele>1012.8</ele>
        <time>2025-09-08T09:07:50Z</time>
      </trkpt>
      <trkpt lat="48.08109" lon="7.13708">
        <ele>1013</ele>
        <time>2025-09-08T09:07:51Z</time>
      </trkpt>
      <trkpt lat="48.08111" lon="7.13713">
        <ele>1013.2</ele>
        <time>2025-09-08T09:07:52Z</time>
      </trkpt>
      <trkpt lat="48.08113" lon="7.13717">
        <ele>1013.4</ele>
        <time>2025-09-08T09:07:53Z</time>
      </trkpt>
      <trkpt lat="48.08115" lon="7.1372">
        <ele>1013.6</ele>
        <time>2025-09-08T09:07:54Z</time>
      </trkpt>
      <trkpt lat="48.08117" lon="7.13724">
        <ele>1013.8</ele>
        <time>2025-09-08T09:07:55Z</time>
      </trkpt>
      <trkpt lat="48.08118" lon="7.13728">
        <ele>1014</ele>
        <time>2025-09-08T09:07:56Z</time>
      </trkpt>
      <trkpt lat="48.0812" lon="7.13732">
        <ele>1014.4</ele>
        <time>2025-09-08T09:07:57Z</time>
      </trkpt>
      <trkpt lat="48.08121" lon="7.13736">
        <ele>1014.8</ele>
        <time>2025-09-08T09:07:58Z</time>
      </trkpt>
      <trkpt lat="48.08123" lon="7.13741">
        <ele>1015</ele>
        <time>2025-09-08T09:07:59Z</time>
      </trkpt>
      <trkpt lat="48.08124" lon="7.13744">
        <ele>1015.4</ele>
        <time>2025-09-08T09:08:00Z</time>
      </trkpt>
      <trkpt lat="48.08126" lon="7.13748">
        <ele>1015.6</ele>
        <time>2025-09-08T09:08:01Z</time>
      </trkpt>
      <trkpt lat="48.08127" lon="7.13752">
        <ele>1015.8</ele>
        <time>2025-09-08T09:08:02Z</time>
      </trkpt>
      <trkpt lat="48.08129" lon="7.13755">
        <ele>1016</ele>
        <time>2025-09-08T09:08:03Z</time>
      </trkpt>
      <trkpt lat="48.0813" lon="7.13759">
        <ele>1016.4</ele>
        <time>2025-09-08T09:08:04Z</time>
      </trkpt>
      <trkpt lat="48.08131" lon="7.13764">
        <ele>1016.4</ele>
        <time>2025-09-08T09:08:05Z</time>
      </trkpt>
      <trkpt lat="48.08133" lon="7.13768">
        <ele>1016.6</ele>
        <time>2025-09-08T09:08:06Z</time>
      </trkpt>
      <trkpt lat="48.08134" lon="7.13772">
        <ele>1016.8</ele>
        <time>2025-09-08T09:08:07Z</time>
      </trkpt>
      <trkpt lat="48.08136" lon="7.13776">
        <ele>1017.2</ele>
        <time>2025-09-08T09:08:08Z</time>
      </trkpt>
      <trkpt lat="48.08137" lon="7.13781">
        <ele>1017.4</ele>
        <time>2025-09-08T09:08:09Z</time>
      </trkpt>
      <trkpt lat="48.08139" lon="7.13785">
        <ele>1017.6</ele>
        <time>2025-09-08T09:08:10Z</time>
      </trkpt>
      <trkpt lat="48.0814" lon="7.13789">
        <ele>1017.8</ele>
        <time>2025-09-08T09:08:11Z</time>
      </trkpt>
      <trkpt lat="48.08142" lon="7.13793">
        <ele>1018.2</ele>
        <time>2025-09-08T09:08:12Z</time>
      </trkpt>
      <trkpt lat="48.08144" lon="7.13797">
        <ele>1018.2</ele>
        <time>2025-09-08T09:08:13Z</time>
      </trkpt>
      <trkpt lat="48.08145" lon="7.13801">
        <ele>1018.6</ele>
        <time>2025-09-08T09:08:14Z</time>
      </trkpt>
      <trkpt lat="48.08147" lon="7.13805">
        <ele>1018.8</ele>
        <time>2025-09-08T09:08:15Z</time>
      </trkpt>
      <trkpt lat="48.08149" lon="7.13808">
        <ele>1019.2</ele>
        <time>2025-09-08T09:08:16Z</time>
      </trkpt>
      <trkpt lat="48.08151" lon="7.13812">
        <ele>1019.2</ele>
        <time>2025-09-08T09:08:17Z</time>
      </trkpt>
      <trkpt lat="48.08153" lon="7.13816">
        <ele>1019.6</ele>
        <time>2025-09-08T09:08:18Z</time>
      </trkpt>
      <trkpt lat="48.08155" lon="7.1382">
        <ele>1019.8</ele>
        <time>2025-09-08T09:08:19Z</time>
      </trkpt>
      <trkpt lat="48.08157" lon="7.13823">
        <ele>1020.2</ele>
        <time>2025-09-08T09:08:20Z</time>
      </trkpt>
      <trkpt lat="48.08159" lon="7.13827">
        <ele>1020.4</ele>
        <time>2025-09-08T09:08:21Z</time>
      </trkpt>
      <trkpt lat="48.08161" lon="7.1383">
        <ele>1020.8</ele>
        <time>2025-09-08T09:08:22Z</time>
      </trkpt>
      <trkpt lat="48.08163" lon="7.13833">
        <ele>1021</ele>
        <time>2025-09-08T09:08:23Z</time>
      </trkpt>
      <trkpt lat="48.08165" lon="7.13836">
        <ele>1021.4</ele>
        <time>2025-09-08T09:08:24Z</time>
      </trkpt>
      <trkpt lat="48.08166" lon="7.13839">
        <ele>1021.6</ele>
        <time>2025-09-08T09:08:25Z</time>
      </trkpt>
      <trkpt lat="48.08168" lon="7.13843">
        <ele>1021.8</ele>
        <time>2025-09-08T09:08:26Z</time>
      </trkpt>
      <trkpt lat="48.08169" lon="7.13847">
        <ele>1022.2</ele>
        <time>2025-09-08T09:08:27Z</time>
      </trkpt>
      <trkpt lat="48.0817" lon="7.13851">
        <ele>1022.6</ele>
        <time>2025-09-08T09:08:28Z</time>
      </trkpt>
      <trkpt lat="48.08171" lon="7.13856">
        <ele>1023</ele>
        <time>2025-09-08T09:08:29Z</time>
      </trkpt>
      <trkpt lat="48.08172" lon="7.13861">
        <ele>1023.4</ele>
        <time>2025-09-08T09:08:30Z</time>
      </trkpt>
      <trkpt lat="48.08172" lon="7.13865">
        <ele>1023.4</ele>
        <time>2025-09-08T09:08:31Z</time>
      </trkpt>
      <trkpt lat="48.08171" lon="7.1387">
        <ele>1023.6</ele>
        <time>2025-09-08T09:08:32Z</time>
      </trkpt>
      <trkpt lat="48.0817" lon="7.13875">
        <ele>1023.8</ele>
        <time>2025-09-08T09:08:33Z</time>
      </trkpt>
      <trkpt lat="48.08169" lon="7.13879">
        <ele>1024</ele>
        <time>2025-09-08T09:08:34Z</time>
      </trkpt>
      <trkpt lat="48.08167" lon="7.13882">
        <ele>1024</ele>
        <time>2025-09-08T09:08:35Z</time>
      </trkpt>
      <trkpt lat="48.08164" lon="7.13885">
        <ele>1024</ele>
        <time>2025-09-08T09:08:36Z</time>
      </trkpt>
      <trkpt lat="48.08161" lon="7.13885">
        <ele>1024.2</ele>
        <time>2025-09-08T09:08:37Z</time>
      </trkpt>
      <trkpt lat="48.08159" lon="7.13885">
        <ele>1024.2</ele>
        <time>2025-09-08T09:08:38Z</time>
      </trkpt>
      <trkpt lat="48.08156" lon="7.13886">
        <ele>1024.4</ele>
        <time>2025-09-08T09:08:39Z</time>
      </trkpt>
      <trkpt lat="48.08153" lon="7.13886">
        <ele>1024.6</ele>
        <time>2025-09-08T09:08:40Z</time>
      </trkpt>
      <trkpt lat="48.0815" lon="7.13885">
        <ele>1024.8</ele>
        <time>2025-09-08T09:08:41Z</time>
      </trkpt>
      <trkpt lat="48.08148" lon="7.13885">
        <ele>1025.2</ele>
        <time>2025-09-08T09:08:42Z</time>
      </trkpt>
      <trkpt lat="48.08145" lon="7.13884">
        <ele>1025.4</ele>
        <time>2025-09-08T09:08:43Z</time>
      </trkpt>
      <trkpt lat="48.08143" lon="7.13883">
        <ele>1025.8</ele>
        <time>2025-09-08T09:08:44Z</time>
      </trkpt>
      <trkpt lat="48.0814" lon="7.13882">
        <ele>1026</ele>
        <time>2025-09-08T09:08:45Z</time>
      </trkpt>
      <trkpt lat="48.08138" lon="7.13881">
        <ele>1026.8</ele>
        <time>2025-09-08T09:08:46Z</time>
      </trkpt>
      <trkpt lat="48.08135" lon="7.1388">
        <ele>1027</ele>
        <time>2025-09-08T09:08:47Z</time>
      </trkpt>
      <trkpt lat="48.08132" lon="7.1388">
        <ele>1027.6</ele>
        <time>2025-09-08T09:08:48Z</time>
      </trkpt>
      <trkpt lat="48.0813" lon="7.13879">
        <ele>1027.8</ele>
        <time>2025-09-08T09:08:49Z</time>
      </trkpt>
      <trkpt lat="48.08127" lon="7.13879">
        <ele>1028</ele>
        <time>2025-09-08T09:08:50Z</time>
      </trkpt>
      <trkpt lat="48.08125" lon="7.13878">
        <ele>1028.4</ele>
        <time>2025-09-08T09:08:51Z</time>
      </trkpt>
      <trkpt lat="48.08122" lon="7.13877">
        <ele>1028.8</ele>
        <time>2025-09-08T09:08:52Z</time>
      </trkpt>
      <trkpt lat="48.0812" lon="7.13876">
        <ele>1029.4</ele>
        <time>2025-09-08T09:08:53Z</time>
      </trkpt>
      <trkpt lat="48.08117" lon="7.13875">
        <ele>1029.8</ele>
        <time>2025-09-08T09:08:54Z</time>
      </trkpt>
      <trkpt lat="48.08115" lon="7.13875">
        <ele>1030.4</ele>
        <time>2025-09-08T09:08:55Z</time>
      </trkpt>
      <trkpt lat="48.08113" lon="7.13874">
        <ele>1030.8</ele>
        <time>2025-09-08T09:08:56Z</time>
      </trkpt>
      <trkpt lat="48.08111" lon="7.13873">
        <ele>1031.2</ele>
        <time>2025-09-08T09:08:57Z</time>
      </trkpt>
      <trkpt lat="48.08109" lon="7.13872">
        <ele>1031.8</ele>
        <time>2025-09-08T09:08:58Z</time>
      </trkpt>
      <trkpt lat="48.08107" lon="7.1387">
        <ele>1032.4</ele>
        <time>2025-09-08T09:08:59Z</time>
      </trkpt>
      <trkpt lat="48.08105" lon="7.13869">
        <ele>1032.8</ele>
        <time>2025-09-08T09:09:00Z</time>
      </trkpt>
      <trkpt lat="48.08103" lon="7.13868">
        <ele>1033.2</ele>
        <time>2025-09-08T09:09:01Z</time>
      </trkpt>
      <trkpt lat="48.08101" lon="7.13867">
        <ele>1033.6</ele>
        <time>2025-09-08T09:09:02Z</time>
      </trkpt>
      <trkpt lat="48.08099" lon="7.13865">
        <ele>1034.2</ele>
        <time>2025-09-08T09:09:03Z</time>
      </trkpt>
      <trkpt lat="48.08097" lon="7.13864">
        <ele>1034.8</ele>
        <time>2025-09-08T09:09:04Z</time>
      </trkpt>
      <trkpt lat="48.08095" lon="7.13863">
        <ele>1035.4</ele>
        <time>2025-09-08T09:09:05Z</time>
      </trkpt>
      <trkpt lat="48.08093" lon="7.13862">
        <ele>1035.8</ele>
        <time>2025-09-08T09:09:06Z</time>
      </trkpt>
      <trkpt lat="48.0809" lon="7.13861">
        <ele>1036.2</ele>
        <time>2025-09-08T09:09:07Z</time>
      </trkpt>
      <trkpt lat="48.08088" lon="7.1386">
        <ele>1036.8</ele>
        <time>2025-09-08T09:09:08Z</time>
      </trkpt>
      <trkpt lat="48.08085" lon="7.13859">
        <ele>1037.4</ele>
        <time>2025-09-08T09:09:09Z</time>
      </trkpt>
      <trkpt lat="48.08083" lon="7.13858">
        <ele>1037.6</ele>
        <time>2025-09-08T09:09:10Z</time>
      </trkpt>
      <trkpt lat="48.0808" lon="7.13857">
        <ele>1037.8</ele>
        <time>2025-09-08T09:09:11Z</time>
      </trkpt>
      <trkpt lat="48.08079" lon="7.13857">
        <ele>1038.4</ele>
        <time>2025-09-08T09:09:12Z</time>
      </trkpt>
      <trkpt lat="48.08076" lon="7.13858">
        <ele>1038.6</ele>
        <time>2025-09-08T09:09:13Z</time>
      </trkpt>
      <trkpt lat="48.08075" lon="7.13857">
        <ele>1039</ele>
        <time>2025-09-08T09:09:14Z</time>
      </trkpt>
      <trkpt lat="48.08073" lon="7.13855">
        <ele>1039.4</ele>
        <time>2025-09-08T09:09:15Z</time>
      </trkpt>
      <trkpt lat="48.08071" lon="7.13854">
        <ele>1039.8</ele>
        <time>2025-09-08T09:09:16Z</time>
      </trkpt>
      <trkpt lat="48.0807" lon="7.13853">
        <ele>1040</ele>
        <time>2025-09-08T09:09:17Z</time>
      </trkpt>
      <trkpt lat="48.08067" lon="7.13852">
        <ele>1040.4</ele>
        <time>2025-09-08T09:09:18Z</time>
      </trkpt>
      <trkpt lat="48.08065" lon="7.13852">
        <ele>1041</ele>
        <time>2025-09-08T09:09:19Z</time>
      </trkpt>
      <trkpt lat="48.08063" lon="7.13851">
        <ele>1041.4</ele>
        <time>2025-09-08T09:09:20Z</time>
      </trkpt>
      <trkpt lat="48.08061" lon="7.1385">
        <ele>1041.6</ele>
        <time>2025-09-08T09:09:21Z</time>
      </trkpt>
      <trkpt lat="48.08059" lon="7.1385">
        <ele>1042.2</ele>
        <time>2025-09-08T09:09:22Z</time>
      </trkpt>
      <trkpt lat="48.08056" lon="7.1385">
        <ele>1042.4</ele>
        <time>2025-09-08T09:09:23Z</time>
      </trkpt>
      <trkpt lat="48.08054" lon="7.13849">
        <ele>1042.6</ele>
        <time>2025-09-08T09:09:24Z</time>
      </trkpt>
      <trkpt lat="48.08052" lon="7.13848">
        <ele>1042.8</ele>
        <time>2025-09-08T09:09:25Z</time>
      </trkpt>
      <trkpt lat="48.08051" lon="7.13846">
        <ele>1043</ele>
        <time>2025-09-08T09:09:26Z</time>
      </trkpt>
      <trkpt lat="48.08049" lon="7.13845">
        <ele>1043.2</ele>
        <time>2025-09-08T09:09:27Z</time>
      </trkpt>
      <trkpt lat="48.08047" lon="7.13844">
        <ele>1043.6</ele>
        <time>2025-09-08T09:09:28Z</time>
      </trkpt>
      <trkpt lat="48.08045" lon="7.13844">
        <ele>1043.8</ele>
        <time>2025-09-08T09:09:29Z</time>
      </trkpt>
      <trkpt lat="48.08043" lon="7.13843">
        <ele>1044</ele>
        <time>2025-09-08T09:09:30Z</time>
      </trkpt>
      <trkpt lat="48.08041" lon="7.13841">
        <ele>1044.2</ele>
        <time>2025-09-08T09:09:31Z</time>
      </trkpt>
      <trkpt lat="48.08038" lon="7.13841">
        <ele>1044.4</ele>
        <time>2025-09-08T09:09:32Z</time>
      </trkpt>
      <trkpt lat="48.08036" lon="7.1384">
        <ele>1044.6</ele>
        <time>2025-09-08T09:09:33Z</time>
      </trkpt>
      <trkpt lat="48.08034" lon="7.13839">
        <ele>1044.8</ele>
        <time>2025-09-08T09:09:34Z</time>
      </trkpt>
      <trkpt lat="48.08032" lon="7.13838">
        <ele>1045</ele>
        <time>2025-09-08T09:09:35Z</time>
      </trkpt>
      <trkpt lat="48.0803" lon="7.13838">
        <ele>1045.2</ele>
        <time>2025-09-08T09:09:36Z</time>
      </trkpt>
      <trkpt lat="48.08027" lon="7.13837">
        <ele>1045.4</ele>
        <time>2025-09-08T09:09:37Z</time>
      </trkpt>
      <trkpt lat="48.08025" lon="7.13836">
        <ele>1045.6</ele>
        <time>2025-09-08T09:09:38Z</time>
      </trkpt>
      <trkpt lat="48.08023" lon="7.13835">
        <ele>1045.8</ele>
        <time>2025-09-08T09:09:39Z</time>
      </trkpt>
      <trkpt lat="48.0802" lon="7.13833">
        <ele>1045.8</ele>
        <time>2025-09-08T09:09:40Z</time>
      </trkpt>
      <trkpt lat="48.08018" lon="7.13832">
        <ele>1046</ele>
        <time>2025-09-08T09:09:41Z</time>
      </trkpt>
      <trkpt lat="48.08016" lon="7.13831">
        <ele>1046.2</ele>
        <time>2025-09-08T09:09:42Z</time>
      </trkpt>
      <trkpt lat="48.08014" lon="7.1383">
        <ele>1046.6</ele>
        <time>2025-09-08T09:09:43Z</time>
      </trkpt>
      <trkpt lat="48.08011" lon="7.13829">
        <ele>1046.6</ele>
        <time>2025-09-08T09:09:44Z</time>
      </trkpt>
      <trkpt lat="48.0801" lon="7.13828">
        <ele>1046.8</ele>
        <time>2025-09-08T09:09:45Z</time>
      </trkpt>
      <trkpt lat="48.08007" lon="7.13827">
        <ele>1047.2</ele>
        <time>2025-09-08T09:09:46Z</time>
      </trkpt>
      <trkpt lat="48.08005" lon="7.13826">
        <ele>1047.6</ele>
        <time>2025-09-08T09:09:47Z</time>
      </trkpt>
      <trkpt lat="48.08003" lon="7.13825">
        <ele>1048</ele>
        <time>2025-09-08T09:09:48Z</time>
      </trkpt>
      <trkpt lat="48.08" lon="7.13824">
        <ele>1048.2</ele>
        <time>2025-09-08T09:09:49Z</time>
      </trkpt>
      <trkpt lat="48.07998" lon="7.13823">
        <ele>1048.6</ele>
        <time>2025-09-08T09:09:50Z</time>
      </trkpt>
      <trkpt lat="48.07996" lon="7.13822">
        <ele>1048.8</ele>
        <time>2025-09-08T09:09:51Z</time>
      </trkpt>
      <trkpt lat="48.07993" lon="7.13822">
        <ele>1048.8</ele>
        <time>2025-09-08T09:09:52Z</time>
      </trkpt>
      <trkpt lat="48.07991" lon="7.1382">
        <ele>1049.4</ele>
        <time>2025-09-08T09:09:53Z</time>
      </trkpt>
      <trkpt lat="48.07988" lon="7.13819">
        <ele>1049.6</ele>
        <time>2025-09-08T09:09:54Z</time>
      </trkpt>
      <trkpt lat="48.07985" lon="7.13818">
        <ele>1049.8</ele>
        <time>2025-09-08T09:09:55Z</time>
      </trkpt>
      <trkpt lat="48.07983" lon="7.13816">
        <ele>1050</ele>
        <time>2025-09-08T09:09:56Z</time>
      </trkpt>
      <trkpt lat="48.0798" lon="7.13815">
        <ele>1050</ele>
        <time>2025-09-08T09:09:57Z</time>
      </trkpt>
      <trkpt lat="48.07977" lon="7.13815">
        <ele>1050</ele>
        <time>2025-09-08T09:09:58Z</time>
      </trkpt>
      <trkpt lat="48.07975" lon="7.13814">
        <ele>1050.2</ele>
        <time>2025-09-08T09:09:59Z</time>
      </trkpt>
      <trkpt lat="48.07973" lon="7.13815">
        <ele>1050.2</ele>
        <time>2025-09-08T09:10:00Z</time>
      </trkpt>
      <trkpt lat="48.07972" lon="7.13817">
        <ele>1050.2</ele>
        <time>2025-09-08T09:10:01Z</time>
      </trkpt>
      <trkpt lat="48.07971" lon="7.13819">
        <ele>1050.4</ele>
        <time>2025-09-08T09:10:02Z</time>
      </trkpt>
      <trkpt lat="48.07971" lon="7.13821">
        <ele>1050.4</ele>
        <time>2025-09-08T09:10:03Z</time>
      </trkpt>
      <trkpt lat="48.07971" lon="7.13824">
        <ele>1050.6</ele>
        <time>2025-09-08T09:10:04Z</time>
      </trkpt>
      <trkpt lat="48.07971" lon="7.13827">
        <ele>1050.6</ele>
        <time>2025-09-08T09:10:05Z</time>
      </trkpt>
      <trkpt lat="48.0797" lon="7.1383">
        <ele>1050.6</ele>
        <time>2025-09-08T09:10:06Z</time>
      </trkpt>
      <trkpt lat="48.07969" lon="7.13833">
        <ele>1050.6</ele>
        <time>2025-09-08T09:10:07Z</time>
      </trkpt>
      <trkpt lat="48.07969" lon="7.13836">
        <ele>1050.8</ele>
        <time>2025-09-08T09:10:08Z</time>
      </trkpt>
      <trkpt lat="48.07968" lon="7.1384">
        <ele>1050.8</ele>
        <time>2025-09-08T09:10:09Z</time>
      </trkpt>
      <trkpt lat="48.07968" lon="7.13844">
        <ele>1050.8</ele>
        <time>2025-09-08T09:10:10Z</time>
      </trkpt>
      <trkpt lat="48.07967" lon="7.1385">
        <ele>1050.6</ele>
        <time>2025-09-08T09:10:11Z</time>
      </trkpt>
      <trkpt lat="48.07965" lon="7.13857">
        <ele>1050.6</ele>
        <time>2025-09-08T09:10:12Z</time>
      </trkpt>
      <trkpt lat="48.07963" lon="7.13863">
        <ele>1050.4</ele>
        <time>2025-09-08T09:10:13Z</time>
      </trkpt>
      <trkpt lat="48.07963" lon="7.13869">
        <ele>1050</ele>
        <time>2025-09-08T09:10:14Z</time>
      </trkpt>
      <trkpt lat="48.07963" lon="7.13877">
        <ele>1049.4</ele>
        <time>2025-09-08T09:10:15Z</time>
      </trkpt>
      <trkpt lat="48.07962" lon="7.13883">
        <ele>1049</ele>
        <time>2025-09-08T09:10:16Z</time>
      </trkpt>
      <trkpt lat="48.07961" lon="7.13888">
        <ele>1048.4</ele>
        <time>2025-09-08T09:10:17Z</time>
      </trkpt>
      <trkpt lat="48.0796" lon="7.13894">
        <ele>1048</ele>
        <time>2025-09-08T09:10:18Z</time>
      </trkpt>
      <trkpt lat="48.07959" lon="7.13901">
        <ele>1047.6</ele>
        <time>2025-09-08T09:10:19Z</time>
      </trkpt>
      <trkpt lat="48.07958" lon="7.13907">
        <ele>1047.4</ele>
        <time>2025-09-08T09:10:20Z</time>
      </trkpt>
      <trkpt lat="48.07955" lon="7.13912">
        <ele>1047.2</ele>
        <time>2025-09-08T09:10:21Z</time>
      </trkpt>
      <trkpt lat="48.07954" lon="7.13919">
        <ele>1046.4</ele>
        <time>2025-09-08T09:10:22Z</time>
      </trkpt>
      <trkpt lat="48.07953" lon="7.13925">
        <ele>1046.2</ele>
        <time>2025-09-08T09:10:23Z</time>
      </trkpt>
      <trkpt lat="48.07953" lon="7.13931">
        <ele>1045.6</ele>
        <time>2025-09-08T09:10:24Z</time>
      </trkpt>
      <trkpt lat="48.07952" lon="7.13937">
        <ele>1044.4</ele>
        <time>2025-09-08T09:10:25Z</time>
      </trkpt>
      <trkpt lat="48.07951" lon="7.13942">
        <ele>1043.4</ele>
        <time>2025-09-08T09:10:26Z</time>
      </trkpt>
      <trkpt lat="48.07949" lon="7.1395">
        <ele>1043</ele>
        <time>2025-09-08T09:10:27Z</time>
      </trkpt>
      <trkpt lat="48.07947" lon="7.13957">
        <ele>1042.4</ele>
        <time>2025-09-08T09:10:28Z</time>
      </trkpt>
      <trkpt lat="48.07945" lon="7.13962">
        <ele>1041.6</ele>
        <time>2025-09-08T09:10:29Z</time>
      </trkpt>
      <trkpt lat="48.07944" lon="7.13969">
        <ele>1040.8</ele>
        <time>2025-09-08T09:10:30Z</time>
      </trkpt>
      <trkpt lat="48.07944" lon="7.13975">
        <ele>1040</ele>
        <time>2025-09-08T09:10:31Z</time>
      </trkpt>
      <trkpt lat="48.07944" lon="7.13982">
        <ele>1039</ele>
        <time>2025-09-08T09:10:32Z</time>
      </trkpt>
      <trkpt lat="48.07943" lon="7.13989">
        <ele>1037.6</ele>
        <time>2025-09-08T09:10:33Z</time>
      </trkpt>
      <trkpt lat="48.07942" lon="7.13994">
        <ele>1037.4</ele>
        <time>2025-09-08T09:10:34Z</time>
      </trkpt>
      <trkpt lat="48.07942" lon="7.13999">
        <ele>1036</ele>
        <time>2025-09-08T09:10:35Z</time>
      </trkpt>
      <trkpt lat="48.07942" lon="7.14005">
        <ele>1034.6</ele>
        <time>2025-09-08T09:10:36Z</time>
      </trkpt>
      <trkpt lat="48.07943" lon="7.14011">
        <ele>1033.8</ele>
        <time>2025-09-08T09:10:37Z</time>
      </trkpt>
      <trkpt lat="48.07944" lon="7.14017">
        <ele>1033</ele>
        <time>2025-09-08T09:10:38Z</time>
      </trkpt>
      <trkpt lat="48.07946" lon="7.14023">
        <ele>1031.6</ele>
        <time>2025-09-08T09:10:39Z</time>
      </trkpt>
      <trkpt lat="48.07947" lon="7.14029">
        <ele>1031</ele>
        <time>2025-09-08T09:10:40Z</time>
      </trkpt>
      <trkpt lat="48.07946" lon="7.14035">
        <ele>1029.8</ele>
        <time>2025-09-08T09:10:41Z</time>
      </trkpt>
      <trkpt lat="48.07945" lon="7.1404">
        <ele>1028.6</ele>
        <time>2025-09-08T09:10:42Z</time>
      </trkpt>
      <trkpt lat="48.07945" lon="7.14045">
        <ele>1027.4</ele>
        <time>2025-09-08T09:10:43Z</time>
      </trkpt>
      <trkpt lat="48.07945" lon="7.1405">
        <ele>1026.2</ele>
        <time>2025-09-08T09:10:44Z</time>
      </trkpt>
      <trkpt lat="48.07945" lon="7.14055">
        <ele>1025.4</ele>
        <time>2025-09-08T09:10:45Z</time>
      </trkpt>
      <trkpt lat="48.07945" lon="7.14062">
        <ele>1024.4</ele>
        <time>2025-09-08T09:10:46Z</time>
      </trkpt>
      <trkpt lat="48.07945" lon="7.14069">
        <ele>1023.4</ele>
        <time>2025-09-08T09:10:47Z</time>
      </trkpt>
      <trkpt lat="48.07944" lon="7.14076">
        <ele>1022.4</ele>
        <time>2025-09-08T09:10:48Z</time>
      </trkpt>
      <trkpt lat="48.07943" lon="7.14084">
        <ele>1021.4</ele>
        <time>2025-09-08T09:10:49Z</time>
      </trkpt>
      <trkpt lat="48.07942" lon="7.14092">
        <ele>1020.2</ele>
        <time>2025-09-08T09:10:50Z</time>
      </trkpt>
      <trkpt lat="48.07942" lon="7.14099">
        <ele>1019</ele>
        <time>2025-09-08T09:10:51Z</time>
      </trkpt>
      <trkpt lat="48.0794" lon="7.14105">
        <ele>1017.8</ele>
        <time>2025-09-08T09:10:52Z</time>
      </trkpt>
      <trkpt lat="48.07939" lon="7.14111">
        <ele>1016.8</ele>
        <time>2025-09-08T09:10:53Z</time>
      </trkpt>
      <trkpt lat="48.07939" lon="7.14118">
        <ele>1016</ele>
        <time>2025-09-08T09:10:54Z</time>
      </trkpt>
      <trkpt lat="48.07938" lon="7.14125">
        <ele>1015.2</ele>
        <time>2025-09-08T09:10:55Z</time>
      </trkpt>
      <trkpt lat="48.07938" lon="7.14131">
        <ele>1014</ele>
        <time>2025-09-08T09:10:56Z</time>
      </trkpt>
      <trkpt lat="48.07938" lon="7.14138">
        <ele>1013.8</ele>
        <time>2025-09-08T09:10:57Z</time>
      </trkpt>
      <trkpt lat="48.07937" lon="7.14145">
        <ele>1012.6</ele>
        <time>2025-09-08T09:10:58Z</time>
      </trkpt>
      <trkpt lat="48.07936" lon="7.14151">
        <ele>1012</ele>
        <time>2025-09-08T09:10:59Z</time>
      </trkpt>
      <trkpt lat="48.07935" lon="7.14157">
        <ele>1011.4</ele>
        <time>2025-09-08T09:11:00Z</time>
      </trkpt>
      <trkpt lat="48.07935" lon="7.14163">
        <ele>1010.4</ele>
        <time>2025-09-08T09:11:01Z</time>
      </trkpt>
      <trkpt lat="48.07935" lon="7.1417">
        <ele>1009</ele>
        <time>2025-09-08T09:11:02Z</time>
      </trkpt>
      <trkpt lat="48.07935" lon="7.14178">
        <ele>1007.8</ele>
        <time>2025-09-08T09:11:03Z</time>
      </trkpt>
      <trkpt lat="48.07934" lon="7.14184">
        <ele>1007</ele>
        <time>2025-09-08T09:11:04Z</time>
      </trkpt>
      <trkpt lat="48.07933" lon="7.1419">
        <ele>1006.6</ele>
        <time>2025-09-08T09:11:05Z</time>
      </trkpt>
      <trkpt lat="48.07932" lon="7.14195">
        <ele>1005.2</ele>
        <time>2025-09-08T09:11:06Z</time>
      </trkpt>
      <trkpt lat="48.0793" lon="7.14201">
        <ele>1004.6</ele>
        <time>2025-09-08T09:11:07Z</time>
      </trkpt>
      <trkpt lat="48.0793" lon="7.14206">
        <ele>1003.6</ele>
        <time>2025-09-08T09:11:08Z</time>
      </trkpt>
      <trkpt lat="48.07929" lon="7.14212">
        <ele>1002.4</ele>
        <time>2025-09-08T09:11:09Z</time>
      </trkpt>
      <trkpt lat="48.07929" lon="7.14218">
        <ele>1001.6</ele>
        <time>2025-09-08T09:11:10Z</time>
      </trkpt>
      <trkpt lat="48.07928" lon="7.14224">
        <ele>1000.6</ele>
        <time>2025-09-08T09:11:11Z</time>
      </trkpt>
      <trkpt lat="48.07927" lon="7.14232">
        <ele>999.4</ele>
        <time>2025-09-08T09:11:12Z</time>
      </trkpt>
      <trkpt lat="48.07926" lon="7.14239">
        <ele>998.4</ele>
        <time>2025-09-08T09:11:13Z</time>
      </trkpt>
      <trkpt lat="48.07925" lon="7.14248">
        <ele>997.4</ele>
        <time>2025-09-08T09:11:14Z</time>
      </trkpt>
      <trkpt lat="48.07924" lon="7.14256">
        <ele>996.6</ele>
        <time>2025-09-08T09:11:15Z</time>
      </trkpt>
      <trkpt lat="48.07922" lon="7.14265">
        <ele>995.4</ele>
        <time>2025-09-08T09:11:16Z</time>
      </trkpt>
      <trkpt lat="48.0792" lon="7.14273">
        <ele>994.4</ele>
        <time>2025-09-08T09:11:17Z</time>
      </trkpt>
      <trkpt lat="48.07917" lon="7.14281">
        <ele>992.8</ele>
        <time>2025-09-08T09:11:18Z</time>
      </trkpt>
      <trkpt lat="48.07915" lon="7.14288">
        <ele>992.4</ele>
        <time>2025-09-08T09:11:19Z</time>
      </trkpt>
      <trkpt lat="48.07914" lon="7.14297">
        <ele>990.6</ele>
        <time>2025-09-08T09:11:20Z</time>
      </trkpt>
      <trkpt lat="48.07912" lon="7.14304">
        <ele>989.4</ele>
        <time>2025-09-08T09:11:21Z</time>
      </trkpt>
      <trkpt lat="48.0791" lon="7.14312">
        <ele>988.4</ele>
        <time>2025-09-08T09:11:22Z</time>
      </trkpt>
      <trkpt lat="48.07909" lon="7.14319">
        <ele>988</ele>
        <time>2025-09-08T09:11:23Z</time>
      </trkpt>
      <trkpt lat="48.07907" lon="7.14325">
        <ele>987.2</ele>
        <time>2025-09-08T09:11:24Z</time>
      </trkpt>
      <trkpt lat="48.07906" lon="7.14329">
        <ele>986.6</ele>
        <time>2025-09-08T09:11:25Z</time>
      </trkpt>
      <trkpt lat="48.07905" lon="7.14333">
        <ele>986.2</ele>
        <time>2025-09-08T09:11:26Z</time>
      </trkpt>
      <trkpt lat="48.07903" lon="7.14335">
        <ele>985.6</ele>
        <time>2025-09-08T09:11:27Z</time>
      </trkpt>
      <trkpt lat="48.07902" lon="7.14338">
        <ele>985.4</ele>
        <time>2025-09-08T09:11:28Z</time>
      </trkpt>
      <trkpt lat="48.07902" lon="7.14341">
        <ele>985.4</ele>
        <time>2025-09-08T09:11:29Z</time>
      </trkpt>
      <trkpt lat="48.07901" lon="7.14345">
        <ele>985.2</ele>
        <time>2025-09-08T09:11:30Z</time>
      </trkpt>
      <trkpt lat="48.079" lon="7.14349">
        <ele>985</ele>
        <time>2025-09-08T09:11:31Z</time>
      </trkpt>
      <trkpt lat="48.07901" lon="7.14353">
        <ele>984.8</ele>
        <time>2025-09-08T09:11:32Z</time>
      </trkpt>
      <trkpt lat="48.07902" lon="7.14357">
        <ele>984.8</ele>
        <time>2025-09-08T09:11:33Z</time>
      </trkpt>
      <trkpt lat="48.07903" lon="7.14362">
        <ele>984.6</ele>
        <time>2025-09-08T09:11:34Z</time>
      </trkpt>
      <trkpt lat="48.07905" lon="7.14365">
        <ele>984.4</ele>
        <time>2025-09-08T09:11:35Z</time>
      </trkpt>
      <trkpt lat="48.07907" lon="7.14369">
        <ele>984.2</ele>
        <time>2025-09-08T09:11:36Z</time>
      </trkpt>
      <trkpt lat="48.07909" lon="7.14373">
        <ele>984.2</ele>
        <time>2025-09-08T09:11:37Z</time>
      </trkpt>
      <trkpt lat="48.0791" lon="7.14377">
        <ele>984.2</ele>
        <time>2025-09-08T09:11:38Z</time>
      </trkpt>
      <trkpt lat="48.07912" lon="7.14381">
        <ele>984</ele>
        <time>2025-09-08T09:11:39Z</time>
      </trkpt>
      <trkpt lat="48.07915" lon="7.14386">
        <ele>984</ele>
        <time>2025-09-08T09:11:40Z</time>
      </trkpt>
      <trkpt lat="48.07917" lon="7.1439">
        <ele>983.8</ele>
        <time>2025-09-08T09:11:41Z</time>
      </trkpt>
      <trkpt lat="48.07919" lon="7.14395">
        <ele>983.6</ele>
        <time>2025-09-08T09:11:42Z</time>
      </trkpt>
      <trkpt lat="48.07922" lon="7.144">
        <ele>983.6</ele>
        <time>2025-09-08T09:11:43Z</time>
      </trkpt>
      <trkpt lat="48.07925" lon="7.14405">
        <ele>983.4</ele>
        <time>2025-09-08T09:11:44Z</time>
      </trkpt>
      <trkpt lat="48.07927" lon="7.14412">
        <ele>983.4</ele>
        <time>2025-09-08T09:11:45Z</time>
      </trkpt>
      <trkpt lat="48.0793" lon="7.14418">
        <ele>983</ele>
        <time>2025-09-08T09:11:46Z</time>
      </trkpt>
      <trkpt lat="48.07933" lon="7.14425">
        <ele>982.8</ele>
        <time>2025-09-08T09:11:47Z</time>
      </trkpt>
      <trkpt lat="48.07936" lon="7.14432">
        <ele>982.6</ele>
        <time>2025-09-08T09:11:48Z</time>
      </trkpt>
      <trkpt lat="48.07938" lon="7.14438">
        <ele>982.4</ele>
        <time>2025-09-08T09:11:49Z</time>
      </trkpt>
      <trkpt lat="48.07941" lon="7.14445">
        <ele>982.2</ele>
        <time>2025-09-08T09:11:50Z</time>
      </trkpt>
      <trkpt lat="48.07944" lon="7.14452">
        <ele>981.8</ele>
        <time>2025-09-08T09:11:51Z</time>
      </trkpt>
      <trkpt lat="48.07945" lon="7.1446">
        <ele>981.6</ele>
        <time>2025-09-08T09:11:52Z</time>
      </trkpt>
      <trkpt lat="48.07946" lon="7.14468">
        <ele>981.6</ele>
        <time>2025-09-08T09:11:53Z</time>
      </trkpt>
      <trkpt lat="48.07946" lon="7.14475">
        <ele>981.2</ele>
        <time>2025-09-08T09:11:54Z</time>
      </trkpt>
      <trkpt lat="48.07945" lon="7.14479">
        <ele>981.2</ele>
        <time>2025-09-08T09:11:55Z</time>
      </trkpt>
      <trkpt lat="48.07943" lon="7.14483">
        <ele>981.2</ele>
        <time>2025-09-08T09:11:56Z</time>
      </trkpt>
      <trkpt lat="48.07943" lon="7.14485">
        <ele>981.2</ele>
        <time>2025-09-08T09:11:57Z</time>
      </trkpt>
      <trkpt lat="48.07943" lon="7.14489">
        <ele>981.4</ele>
        <time>2025-09-08T09:11:58Z</time>
      </trkpt>
      <trkpt lat="48.07943" lon="7.14493">
        <ele>981.6</ele>
        <time>2025-09-08T09:11:59Z</time>
      </trkpt>
      <trkpt lat="48.07942" lon="7.14497">
        <ele>982</ele>
        <time>2025-09-08T09:12:00Z</time>
      </trkpt>
      <trkpt lat="48.07942" lon="7.14501">
        <ele>982.2</ele>
        <time>2025-09-08T09:12:01Z</time>
      </trkpt>
      <trkpt lat="48.07942" lon="7.14505">
        <ele>982.6</ele>
        <time>2025-09-08T09:12:02Z</time>
      </trkpt>
      <trkpt lat="48.07941" lon="7.14509">
        <ele>982.8</ele>
        <time>2025-09-08T09:12:03Z</time>
      </trkpt>
      <trkpt lat="48.07941" lon="7.14512">
        <ele>983.2</ele>
        <time>2025-09-08T09:12:04Z</time>
      </trkpt>
      <trkpt lat="48.0794" lon="7.14516">
        <ele>983.4</ele>
        <time>2025-09-08T09:12:05Z</time>
      </trkpt>
      <trkpt lat="48.07939" lon="7.14519">
        <ele>983.8</ele>
        <time>2025-09-08T09:12:06Z</time>
      </trkpt>
      <trkpt lat="48.07939" lon="7.14523">
        <ele>984.2</ele>
        <time>2025-09-08T09:12:07Z</time>
      </trkpt>
      <trkpt lat="48.07938" lon="7.14528">
        <ele>984.6</ele>
        <time>2025-09-08T09:12:08Z</time>
      </trkpt>
      <trkpt lat="48.07938" lon="7.14533">
        <ele>985</ele>
        <time>2025-09-08T09:12:09Z</time>
      </trkpt>
      <trkpt lat="48.07938" lon="7.14538">
        <ele>985.4</ele>
        <time>2025-09-08T09:12:10Z</time>
      </trkpt>
      <trkpt lat="48.07938" lon="7.14543">
        <ele>985.6</ele>
        <time>2025-09-08T09:12:11Z</time>
      </trkpt>
      <trkpt lat="48.07938" lon="7.14547">
        <ele>985.8</ele>
        <time>2025-09-08T09:12:12Z</time>
      </trkpt>
      <trkpt lat="48.07939" lon="7.14551">
        <ele>986.2</ele>
        <time>2025-09-08T09:12:13Z</time>
      </trkpt>
      <trkpt lat="48.07939" lon="7.14555">
        <ele>986.4</ele>
        <time>2025-09-08T09:12:14Z</time>
      </trkpt>
      <trkpt lat="48.0794" lon="7.1456">
        <ele>986.6</ele>
        <time>2025-09-08T09:12:15Z</time>
      </trkpt>
      <trkpt lat="48.07941" lon="7.14564">
        <ele>987</ele>
        <time>2025-09-08T09:12:16Z</time>
      </trkpt>
      <trkpt lat="48.07941" lon="7.14568">
        <ele>987.2</ele>
        <time>2025-09-08T09:12:17Z</time>
      </trkpt>
      <trkpt lat="48.07941" lon="7.14572">
        <ele>987.2</ele>
        <time>2025-09-08T09:12:18Z</time>
      </trkpt>
      <trkpt lat="48.07941" lon="7.14576">
        <ele>987.4</ele>
        <time>2025-09-08T09:12:19Z</time>
      </trkpt>
      <trkpt lat="48.0794" lon="7.1458">
        <ele>987.6</ele>
        <time>2025-09-08T09:12:20Z</time>
      </trkpt>
      <trkpt lat="48.0794" lon="7.14583">
        <ele>987.8</ele>
        <time>2025-09-08T09:12:21Z</time>
      </trkpt>
      <trkpt lat="48.0794" lon="7.14588">
        <ele>988</ele>
        <time>2025-09-08T09:12:22Z</time>
      </trkpt>
      <trkpt lat="48.0794" lon="7.14593">
        <ele>988.2</ele>
        <time>2025-09-08T09:12:23Z</time>
      </trkpt>
      <trkpt lat="48.07941" lon="7.14598">
        <ele>988.4</ele>
        <time>2025-09-08T09:12:24Z</time>
      </trkpt>
      <trkpt lat="48.07941" lon="7.14602">
        <ele>988.6</ele>
        <time>2025-09-08T09:12:25Z</time>
      </trkpt>
      <trkpt lat="48.07942" lon="7.14607">
        <ele>988.8</ele>
        <time>2025-09-08T09:12:26Z</time>
      </trkpt>
      <trkpt lat="48.07942" lon="7.14611">
        <ele>989</ele>
        <time>2025-09-08T09:12:27Z</time>
      </trkpt>
      <trkpt lat="48.07943" lon="7.14615">
        <ele>989.2</ele>
        <time>2025-09-08T09:12:28Z</time>
      </trkpt>
      <trkpt lat="48.07944" lon="7.14619">
        <ele>989.4</ele>
        <time>2025-09-08T09:12:29Z</time>
      </trkpt>
      <trkpt lat="48.07945" lon="7.14623">
        <ele>989.6</ele>
        <time>2025-09-08T09:12:30Z</time>
      </trkpt>
      <trkpt lat="48.07946" lon="7.14627">
        <ele>990</ele>
        <time>2025-09-08T09:12:31Z</time>
      </trkpt>
      <trkpt lat="48.07947" lon="7.14631">
        <ele>990.2</ele>
        <time>2025-09-08T09:12:32Z</time>
      </trkpt>
      <trkpt lat="48.07948" lon="7.14635">
        <ele>990.4</ele>
        <time>2025-09-08T09:12:33Z</time>
      </trkpt>
      <trkpt lat="48.07949" lon="7.14638">
        <ele>990.8</ele>
        <time>2025-09-08T09:12:34Z</time>
      </trkpt>
      <trkpt lat="48.0795" lon="7.14642">
        <ele>991</ele>
        <time>2025-09-08T09:12:35Z</time>
      </trkpt>
      <trkpt lat="48.0795" lon="7.14645">
        <ele>991.2</ele>
        <time>2025-09-08T09:12:36Z</time>
      </trkpt>
      <trkpt lat="48.07951" lon="7.14649">
        <ele>991.6</ele>
        <time>2025-09-08T09:12:37Z</time>
      </trkpt>
      <trkpt lat="48.07952" lon="7.14653">
        <ele>992</ele>
        <time>2025-09-08T09:12:38Z</time>
      </trkpt>
      <trkpt lat="48.07953" lon="7.14658">
        <ele>992</ele>
        <time>2025-09-08T09:12:39Z</time>
      </trkpt>
      <trkpt lat="48.07955" lon="7.14662">
        <ele>992.4</ele>
        <time>2025-09-08T09:12:40Z</time>
      </trkpt>
      <trkpt lat="48.07956" lon="7.14666">
        <ele>992.6</ele>
        <time>2025-09-08T09:12:41Z</time>
      </trkpt>
      <trkpt lat="48.07958" lon="7.1467">
        <ele>992.8</ele>
        <time>2025-09-08T09:12:42Z</time>
      </trkpt>
      <trkpt lat="48.0796" lon="7.14675">
        <ele>992.8</ele>
        <time>2025-09-08T09:12:43Z</time>
      </trkpt>
      <trkpt lat="48.07961" lon="7.1468">
        <ele>993</ele>
        <time>2025-09-08T09:12:44Z</time>
      </trkpt>
      <trkpt lat="48.07962" lon="7.14684">
        <ele>993.2</ele>
        <time>2025-09-08T09:12:45Z</time>
      </trkpt>
      <trkpt lat="48.07964" lon="7.14688">
        <ele>993.4</ele>
        <time>2025-09-08T09:12:46Z</time>
      </trkpt>
      <trkpt lat="48.07966" lon="7.14693">
        <ele>993.6</ele>
        <time>2025-09-08T09:12:47Z</time>
      </trkpt>
      <trkpt lat="48.07967" lon="7.14698">
        <ele>993.6</ele>
        <time>2025-09-08T09:12:48Z</time>
      </trkpt>
      <trkpt lat="48.07968" lon="7.14703">
        <ele>993.8</ele>
        <time>2025-09-08T09:12:49Z</time>
      </trkpt>
      <trkpt lat="48.07969" lon="7.14707">
        <ele>993.8</ele>
        <time>2025-09-08T09:12:50Z</time>
      </trkpt>
      <trkpt lat="48.07969" lon="7.14712">
        <ele>994</ele>
        <time>2025-09-08T09:12:51Z</time>
      </trkpt>
      <trkpt lat="48.07969" lon="7.14716">
        <ele>994</ele>
        <time>2025-09-08T09:12:52Z</time>
      </trkpt>
      <trkpt lat="48.07969" lon="7.14721">
        <ele>994.2</ele>
        <time>2025-09-08T09:12:53Z</time>
      </trkpt>
      <trkpt lat="48.07969" lon="7.14725">
        <ele>994.4</ele>
        <time>2025-09-08T09:12:54Z</time>
      </trkpt>
      <trkpt lat="48.07969" lon="7.1473">
        <ele>994.6</ele>
        <time>2025-09-08T09:12:55Z</time>
      </trkpt>
      <trkpt lat="48.07969" lon="7.14734">
        <ele>994.8</ele>
        <time>2025-09-08T09:12:56Z</time>
      </trkpt>
      <trkpt lat="48.07968" lon="7.14739">
        <ele>995</ele>
        <time>2025-09-08T09:12:57Z</time>
      </trkpt>
      <trkpt lat="48.07967" lon="7.14744">
        <ele>995.2</ele>
        <time>2025-09-08T09:12:58Z</time>
      </trkpt>
      <trkpt lat="48.07965" lon="7.14748">
        <ele>995.4</ele>
        <time>2025-09-08T09:12:59Z</time>
      </trkpt>
      <trkpt lat="48.07965" lon="7.14753">
        <ele>995.6</ele>
        <time>2025-09-08T09:13:00Z</time>
      </trkpt>
      <trkpt lat="48.07963" lon="7.14758">
        <ele>995.8</ele>
        <time>2025-09-08T09:13:01Z</time>
      </trkpt>
      <trkpt lat="48.07962" lon="7.14763">
        <ele>996</ele>
        <time>2025-09-08T09:13:02Z</time>
      </trkpt>
      <trkpt lat="48.07961" lon="7.14767">
        <ele>996.2</ele>
        <time>2025-09-08T09:13:03Z</time>
      </trkpt>
      <trkpt lat="48.07959" lon="7.14772">
        <ele>996.4</ele>
        <time>2025-09-08T09:13:04Z</time>
      </trkpt>
      <trkpt lat="48.07957" lon="7.14776">
        <ele>996.4</ele>
        <time>2025-09-08T09:13:05Z</time>
      </trkpt>
      <trkpt lat="48.07955" lon="7.14779">
        <ele>996.8</ele>
        <time>2025-09-08T09:13:06Z</time>
      </trkpt>
      <trkpt lat="48.07952" lon="7.14783">
        <ele>997</ele>
        <time>2025-09-08T09:13:07Z</time>
      </trkpt>
      <trkpt lat="48.0795" lon="7.14786">
        <ele>997.4</ele>
        <time>2025-09-08T09:13:08Z</time>
      </trkpt>
      <trkpt lat="48.07947" lon="7.1479">
        <ele>997.6</ele>
        <time>2025-09-08T09:13:09Z</time>
      </trkpt>
      <trkpt lat="48.07946" lon="7.14794">
        <ele>997.6</ele>
        <time>2025-09-08T09:13:10Z</time>
      </trkpt>
      <trkpt lat="48.07944" lon="7.14798">
        <ele>998</ele>
        <time>2025-09-08T09:13:11Z</time>
      </trkpt>
      <trkpt lat="48.07942" lon="7.14802">
        <ele>998.2</ele>
        <time>2025-09-08T09:13:12Z</time>
      </trkpt>
      <trkpt lat="48.07941" lon="7.14806">
        <ele>998.4</ele>
        <time>2025-09-08T09:13:13Z</time>
      </trkpt>
      <trkpt lat="48.0794" lon="7.14811">
        <ele>998.6</ele>
        <time>2025-09-08T09:13:14Z</time>
      </trkpt>
      <trkpt lat="48.0794" lon="7.14817">
        <ele>998.8</ele>
        <time>2025-09-08T09:13:15Z</time>
      </trkpt>
      <trkpt lat="48.07941" lon="7.14822">
        <ele>999</ele>
        <time>2025-09-08T09:13:16Z</time>
      </trkpt>
      <trkpt lat="48.07942" lon="7.14828">
        <ele>999</ele>
        <time>2025-09-08T09:13:17Z</time>
      </trkpt>
      <trkpt lat="48.07944" lon="7.14835">
        <ele>999</ele>
        <time>2025-09-08T09:13:18Z</time>
      </trkpt>
      <trkpt lat="48.07945" lon="7.14842">
        <ele>999</ele>
        <time>2025-09-08T09:13:19Z</time>
      </trkpt>
      <trkpt lat="48.07945" lon="7.14849">
        <ele>999</ele>
        <time>2025-09-08T09:13:20Z</time>
      </trkpt>
      <trkpt lat="48.07946" lon="7.14857">
        <ele>998.8</ele>
        <time>2025-09-08T09:13:21Z</time>
      </trkpt>
      <trkpt lat="48.07947" lon="7.14866">
        <ele>998.4</ele>
        <time>2025-09-08T09:13:22Z</time>
      </trkpt>
      <trkpt lat="48.07948" lon="7.14875">
        <ele>998.2</ele>
        <time>2025-09-08T09:13:23Z</time>
      </trkpt>
      <trkpt lat="48.07949" lon="7.14885">
        <ele>997.6</ele>
        <time>2025-09-08T09:13:24Z</time>
      </trkpt>
      <trkpt lat="48.0795" lon="7.14895">
        <ele>997.4</ele>
        <time>2025-09-08T09:13:25Z</time>
      </trkpt>
      <trkpt lat="48.0795" lon="7.14906">
        <ele>997.2</ele>
        <time>2025-09-08T09:13:26Z</time>
      </trkpt>
      <trkpt lat="48.0795" lon="7.14917">
        <ele>996.4</ele>
        <time>2025-09-08T09:13:27Z</time>
      </trkpt>
      <trkpt lat="48.0795" lon="7.14928">
        <ele>995.8</ele>
        <time>2025-09-08T09:13:28Z</time>
      </trkpt>
      <trkpt lat="48.07951" lon="7.1494">
        <ele>995.4</ele>
        <time>2025-09-08T09:13:29Z</time>
      </trkpt>
      <trkpt lat="48.07949" lon="7.1495">
        <ele>994.8</ele>
        <time>2025-09-08T09:13:30Z</time>
      </trkpt>
      <trkpt lat="48.07947" lon="7.14961">
        <ele>994.4</ele>
        <time>2025-09-08T09:13:31Z</time>
      </trkpt>
      <trkpt lat="48.07944" lon="7.14972">
        <ele>993.4</ele>
        <time>2025-09-08T09:13:32Z</time>
      </trkpt>
      <trkpt lat="48.0794" lon="7.14982">
        <ele>992.8</ele>
        <time>2025-09-08T09:13:33Z</time>
      </trkpt>
      <trkpt lat="48.07935" lon="7.14993">
        <ele>992.2</ele>
        <time>2025-09-08T09:13:34Z</time>
      </trkpt>
      <trkpt lat="48.07932" lon="7.15003">
        <ele>991.4</ele>
        <time>2025-09-08T09:13:35Z</time>
      </trkpt>
      <trkpt lat="48.07929" lon="7.15015">
        <ele>991</ele>
        <time>2025-09-08T09:13:36Z</time>
      </trkpt>
      <trkpt lat="48.07927" lon="7.15026">
        <ele>990.6</ele>
        <time>2025-09-08T09:13:37Z</time>
      </trkpt>
      <trkpt lat="48.07926" lon="7.15037">
        <ele>989.6</ele>
        <time>2025-09-08T09:13:38Z</time>
      </trkpt>
      <trkpt lat="48.07927" lon="7.15049">
        <ele>988.8</ele>
        <time>2025-09-08T09:13:39Z</time>
      </trkpt>
      <trkpt lat="48.07927" lon="7.15059">
        <ele>988.6</ele>
        <time>2025-09-08T09:13:40Z</time>
      </trkpt>
      <trkpt lat="48.07928" lon="7.1507">
        <ele>988.4</ele>
        <time>2025-09-08T09:13:41Z</time>
      </trkpt>
      <trkpt lat="48.0793" lon="7.15079">
        <ele>988.4</ele>
        <time>2025-09-08T09:13:42Z</time>
      </trkpt>
      <trkpt lat="48.07931" lon="7.15087">
        <ele>988.2</ele>
        <time>2025-09-08T09:13:43Z</time>
      </trkpt>
      <trkpt lat="48.07932" lon="7.15095">
        <ele>988.2</ele>
        <time>2025-09-08T09:13:44Z</time>
      </trkpt>
      <trkpt lat="48.07934" lon="7.15103">
        <ele>988.2</ele>
        <time>2025-09-08T09:13:45Z</time>
      </trkpt>
      <trkpt lat="48.07936" lon="7.1511">
        <ele>988.2</ele>
        <time>2025-09-08T09:13:46Z</time>
      </trkpt>
      <trkpt lat="48.07938" lon="7.15119">
        <ele>988.4</ele>
        <time>2025-09-08T09:13:47Z</time>
      </trkpt>
      <trkpt lat="48.0794" lon="7.15126">
        <ele>988.4</ele>
        <time>2025-09-08T09:13:48Z</time>
      </trkpt>
      <trkpt lat="48.07942" lon="7.15134">
        <ele>988.6</ele>
        <time>2025-09-08T09:13:49Z</time>
      </trkpt>
      <trkpt lat="48.07944" lon="7.15141">
        <ele>988.6</ele>
        <time>2025-09-08T09:13:50Z</time>
      </trkpt>
      <trkpt lat="48.07946" lon="7.15149">
        <ele>988.6</ele>
        <time>2025-09-08T09:13:51Z</time>
      </trkpt>
      <trkpt lat="48.07949" lon="7.15156">
        <ele>988.8</ele>
        <time>2025-09-08T09:13:52Z</time>
      </trkpt>
      <trkpt lat="48.07951" lon="7.15163">
        <ele>989</ele>
        <time>2025-09-08T09:13:53Z</time>
      </trkpt>
      <trkpt lat="48.07953" lon="7.15171">
        <ele>989</ele>
        <time>2025-09-08T09:13:54Z</time>
      </trkpt>
      <trkpt lat="48.07956" lon="7.15178">
        <ele>989.2</ele>
        <time>2025-09-08T09:13:55Z</time>
      </trkpt>
      <trkpt lat="48.07958" lon="7.15186">
        <ele>989.4</ele>
        <time>2025-09-08T09:13:56Z</time>
      </trkpt>
      <trkpt lat="48.07959" lon="7.15194">
        <ele>989.6</ele>
        <time>2025-09-08T09:13:57Z</time>
      </trkpt>
      <trkpt lat="48.0796" lon="7.15202">
        <ele>989.6</ele>
        <time>2025-09-08T09:13:58Z</time>
      </trkpt>
      <trkpt lat="48.07962" lon="7.15211">
        <ele>989.8</ele>
        <time>2025-09-08T09:13:59Z</time>
      </trkpt>
      <trkpt lat="48.07963" lon="7.15219">
        <ele>989.8</ele>
        <time>2025-09-08T09:14:00Z</time>
      </trkpt>
      <trkpt lat="48.07965" lon="7.15227">
        <ele>989.8</ele>
        <time>2025-09-08T09:14:01Z</time>
      </trkpt>
      <trkpt lat="48.07966" lon="7.15236">
        <ele>989.8</ele>
        <time>2025-09-08T09:14:02Z</time>
      </trkpt>
      <trkpt lat="48.07968" lon="7.15245">
        <ele>989.8</ele>
        <time>2025-09-08T09:14:03Z</time>
      </trkpt>
      <trkpt lat="48.07969" lon="7.15253">
        <ele>989.8</ele>
        <time>2025-09-08T09:14:04Z</time>
      </trkpt>
      <trkpt lat="48.0797" lon="7.15261">
        <ele>989.8</ele>
        <time>2025-09-08T09:14:05Z</time>
      </trkpt>
      <trkpt lat="48.07972" lon="7.15269">
        <ele>989.8</ele>
        <time>2025-09-08T09:14:06Z</time>
      </trkpt>
      <trkpt lat="48.07973" lon="7.15277">
        <ele>989.8</ele>
        <time>2025-09-08T09:14:07Z</time>
      </trkpt>
      <trkpt lat="48.07976" lon="7.15286">
        <ele>989.8</ele>
        <time>2025-09-08T09:14:08Z</time>
      </trkpt>
      <trkpt lat="48.07979" lon="7.15294">
        <ele>989.6</ele>
        <time>2025-09-08T09:14:09Z</time>
      </trkpt>
      <trkpt lat="48.07982" lon="7.15303">
        <ele>989.2</ele>
        <time>2025-09-08T09:14:10Z</time>
      </trkpt>
      <trkpt lat="48.07983" lon="7.15314">
        <ele>989</ele>
        <time>2025-09-08T09:14:11Z</time>
      </trkpt>
      <trkpt lat="48.07984" lon="7.15326">
        <ele>988.8</ele>
        <time>2025-09-08T09:14:12Z</time>
      </trkpt>
      <trkpt lat="48.07984" lon="7.15338">
        <ele>988.4</ele>
        <time>2025-09-08T09:14:13Z</time>
      </trkpt>
      <trkpt lat="48.07983" lon="7.15349">
        <ele>987.6</ele>
        <time>2025-09-08T09:14:14Z</time>
      </trkpt>
      <trkpt lat="48.07982" lon="7.1536">
        <ele>987</ele>
        <time>2025-09-08T09:14:15Z</time>
      </trkpt>
      <trkpt lat="48.07979" lon="7.15371">
        <ele>986.6</ele>
        <time>2025-09-08T09:14:16Z</time>
      </trkpt>
      <trkpt lat="48.07975" lon="7.1538">
        <ele>985.8</ele>
        <time>2025-09-08T09:14:17Z</time>
      </trkpt>
      <trkpt lat="48.07971" lon="7.1539">
        <ele>985.6</ele>
        <time>2025-09-08T09:14:18Z</time>
      </trkpt>
      <trkpt lat="48.07966" lon="7.15399">
        <ele>984.2</ele>
        <time>2025-09-08T09:14:19Z</time>
      </trkpt>
      <trkpt lat="48.07961" lon="7.15407">
        <ele>983.8</ele>
        <time>2025-09-08T09:14:20Z</time>
      </trkpt>
      <trkpt lat="48.07957" lon="7.15417">
        <ele>982.8</ele>
        <time>2025-09-08T09:14:21Z</time>
      </trkpt>
      <trkpt lat="48.07952" lon="7.15427">
        <ele>982.2</ele>
        <time>2025-09-08T09:14:22Z</time>
      </trkpt>
      <trkpt lat="48.07946" lon="7.15437">
        <ele>981.2</ele>
        <time>2025-09-08T09:14:23Z</time>
      </trkpt>
      <trkpt lat="48.07942" lon="7.15447">
        <ele>979.6</ele>
        <time>2025-09-08T09:14:24Z</time>
      </trkpt>
      <trkpt lat="48.07937" lon="7.15459">
        <ele>978.8</ele>
        <time>2025-09-08T09:14:25Z</time>
      </trkpt>
      <trkpt lat="48.07934" lon="7.15471">
        <ele>978</ele>
        <time>2025-09-08T09:14:26Z</time>
      </trkpt>
      <trkpt lat="48.07932" lon="7.15485">
        <ele>976.4</ele>
        <time>2025-09-08T09:14:27Z</time>
      </trkpt>
      <trkpt lat="48.07932" lon="7.15499">
        <ele>975.6</ele>
        <time>2025-09-08T09:14:28Z</time>
      </trkpt>
      <trkpt lat="48.07935" lon="7.15512">
        <ele>974.4</ele>
        <time>2025-09-08T09:14:29Z</time>
      </trkpt>
      <trkpt lat="48.07937" lon="7.15526">
        <ele>973</ele>
        <time>2025-09-08T09:14:30Z</time>
      </trkpt>
      <trkpt lat="48.0794" lon="7.15539">
        <ele>972.2</ele>
        <time>2025-09-08T09:14:31Z</time>
      </trkpt>
      <trkpt lat="48.07942" lon="7.15553">
        <ele>971.2</ele>
        <time>2025-09-08T09:14:32Z</time>
      </trkpt>
      <trkpt lat="48.07944" lon="7.15567">
        <ele>970</ele>
        <time>2025-09-08T09:14:33Z</time>
      </trkpt>
      <trkpt lat="48.07947" lon="7.1558">
        <ele>969.2</ele>
        <time>2025-09-08T09:14:34Z</time>
      </trkpt>
      <trkpt lat="48.0795" lon="7.15593">
        <ele>968.2</ele>
        <time>2025-09-08T09:14:35Z</time>
      </trkpt>
      <trkpt lat="48.07954" lon="7.15605">
        <ele>967.2</ele>
        <time>2025-09-08T09:14:36Z</time>
      </trkpt>
      <trkpt lat="48.07958" lon="7.15615">
        <ele>967</ele>
        <time>2025-09-08T09:14:37Z</time>
      </trkpt>
      <trkpt lat="48.07962" lon="7.15625">
        <ele>966.4</ele>
        <time>2025-09-08T09:14:38Z</time>
      </trkpt>
      <trkpt lat="48.07966" lon="7.15634">
        <ele>966.4</ele>
        <time>2025-09-08T09:14:39Z</time>
      </trkpt>
      <trkpt lat="48.07969" lon="7.15642">
        <ele>966</ele>
        <time>2025-09-08T09:14:40Z</time>
      </trkpt>
      <trkpt lat="48.07972" lon="7.15649">
        <ele>966</ele>
        <time>2025-09-08T09:14:41Z</time>
      </trkpt>
      <trkpt lat="48.07975" lon="7.15655">
        <ele>966</ele>
        <time>2025-09-08T09:14:42Z</time>
      </trkpt>
      <trkpt lat="48.07977" lon="7.15659">
        <ele>966.2</ele>
        <time>2025-09-08T09:14:43Z</time>
      </trkpt>
      <trkpt lat="48.07979" lon="7.15664">
        <ele>966.2</ele>
        <time>2025-09-08T09:14:44Z</time>
      </trkpt>
      <trkpt lat="48.07981" lon="7.1567">
        <ele>966.4</ele>
        <time>2025-09-08T09:14:45Z</time>
      </trkpt>
      <trkpt lat="48.07983" lon="7.15675">
        <ele>966.6</ele>
        <time>2025-09-08T09:14:46Z</time>
      </trkpt>
      <trkpt lat="48.07985" lon="7.15681">
        <ele>966.6</ele>
        <time>2025-09-08T09:14:47Z</time>
      </trkpt>
      <trkpt lat="48.07988" lon="7.15686">
        <ele>966.8</ele>
        <time>2025-09-08T09:14:48Z</time>
      </trkpt>
      <trkpt lat="48.07991" lon="7.15692">
        <ele>967</ele>
        <time>2025-09-08T09:14:49Z</time>
      </trkpt>
      <trkpt lat="48.07993" lon="7.15697">
        <ele>967.2</ele>
        <time>2025-09-08T09:14:50Z</time>
      </trkpt>
      <trkpt lat="48.07995" lon="7.15703">
        <ele>967.6</ele>
        <time>2025-09-08T09:14:51Z</time>
      </trkpt>
      <trkpt lat="48.07997" lon="7.15709">
        <ele>967.6</ele>
        <time>2025-09-08T09:14:52Z</time>
      </trkpt>
      <trkpt lat="48.07999" lon="7.15714">
        <ele>967.8</ele>
        <time>2025-09-08T09:14:53Z</time>
      </trkpt>
      <trkpt lat="48.08001" lon="7.15719">
        <ele>968</ele>
        <time>2025-09-08T09:14:54Z</time>
      </trkpt>
      <trkpt lat="48.08002" lon="7.15725">
        <ele>968.2</ele>
        <time>2025-09-08T09:14:55Z</time>
      </trkpt>
      <trkpt lat="48.08003" lon="7.15731">
        <ele>968.6</ele>
        <time>2025-09-08T09:14:56Z</time>
      </trkpt>
      <trkpt lat="48.08004" lon="7.15737">
        <ele>968.8</ele>
        <time>2025-09-08T09:14:57Z</time>
      </trkpt>
      <trkpt lat="48.08005" lon="7.15744">
        <ele>969</ele>
        <time>2025-09-08T09:14:58Z</time>
      </trkpt>
      <trkpt lat="48.08006" lon="7.1575">
        <ele>969.2</ele>
        <time>2025-09-08T09:14:59Z</time>
      </trkpt>
      <trkpt lat="48.08009" lon="7.15755">
        <ele>969.6</ele>
        <time>2025-09-08T09:15:00Z</time>
      </trkpt>
      <trkpt lat="48.0801" lon="7.15762">
        <ele>969.8</ele>
        <time>2025-09-08T09:15:01Z</time>
      </trkpt>
      <trkpt lat="48.08012" lon="7.15769">
        <ele>970</ele>
        <time>2025-09-08T09:15:02Z</time>
      </trkpt>
      <trkpt lat="48.08014" lon="7.15775">
        <ele>970.2</ele>
        <time>2025-09-08T09:15:03Z</time>
      </trkpt>
      <trkpt lat="48.08016" lon="7.1578">
        <ele>970.4</ele>
        <time>2025-09-08T09:15:04Z</time>
      </trkpt>
      <trkpt lat="48.08018" lon="7.15786">
        <ele>970.6</ele>
        <time>2025-09-08T09:15:05Z</time>
      </trkpt>
      <trkpt lat="48.08019" lon="7.15793">
        <ele>970.8</ele>
        <time>2025-09-08T09:15:06Z</time>
      </trkpt>
      <trkpt lat="48.08021" lon="7.15799">
        <ele>971</ele>
        <time>2025-09-08T09:15:07Z</time>
      </trkpt>
      <trkpt lat="48.08023" lon="7.15805">
        <ele>971.2</ele>
        <time>2025-09-08T09:15:08Z</time>
      </trkpt>
      <trkpt lat="48.08024" lon="7.15811">
        <ele>971.4</ele>
        <time>2025-09-08T09:15:09Z</time>
      </trkpt>
      <trkpt lat="48.08026" lon="7.15817">
        <ele>971.4</ele>
        <time>2025-09-08T09:15:10Z</time>
      </trkpt>
      <trkpt lat="48.08028" lon="7.15823">
        <ele>971.6</ele>
        <time>2025-09-08T09:15:11Z</time>
      </trkpt>
      <trkpt lat="48.0803" lon="7.15829">
        <ele>971.8</ele>
        <time>2025-09-08T09:15:12Z</time>
      </trkpt>
      <trkpt lat="48.08031" lon="7.15835">
        <ele>971.8</ele>
        <time>2025-09-08T09:15:13Z</time>
      </trkpt>
      <trkpt lat="48.08033" lon="7.15841">
        <ele>972.2</ele>
        <time>2025-09-08T09:15:14Z</time>
      </trkpt>
      <trkpt lat="48.08034" lon="7.15846">
        <ele>972.4</ele>
        <time>2025-09-08T09:15:15Z</time>
      </trkpt>
      <trkpt lat="48.08035" lon="7.15852">
        <ele>972.6</ele>
        <time>2025-09-08T09:15:16Z</time>
      </trkpt>
      <trkpt lat="48.08037" lon="7.15858">
        <ele>972.8</ele>
        <time>2025-09-08T09:15:17Z</time>
      </trkpt>
      <trkpt lat="48.08038" lon="7.15864">
        <ele>973.2</ele>
        <time>2025-09-08T09:15:18Z</time>
      </trkpt>
      <trkpt lat="48.08039" lon="7.1587">
        <ele>973.4</ele>
        <time>2025-09-08T09:15:19Z</time>
      </trkpt>
      <trkpt lat="48.0804" lon="7.15876">
        <ele>974</ele>
        <time>2025-09-08T09:15:20Z</time>
      </trkpt>
      <trkpt lat="48.0804" lon="7.15881">
        <ele>974.2</ele>
        <time>2025-09-08T09:15:21Z</time>
      </trkpt>
      <trkpt lat="48.08041" lon="7.15887">
        <ele>974.6</ele>
        <time>2025-09-08T09:15:22Z</time>
      </trkpt>
      <trkpt lat="48.08042" lon="7.15893">
        <ele>975</ele>
        <time>2025-09-08T09:15:23Z</time>
      </trkpt>
      <trkpt lat="48.08042" lon="7.15899">
        <ele>975</ele>
        <time>2025-09-08T09:15:24Z</time>
      </trkpt>
      <trkpt lat="48.08042" lon="7.15905">
        <ele>975.4</ele>
        <time>2025-09-08T09:15:25Z</time>
      </trkpt>
      <trkpt lat="48.08042" lon="7.15911">
        <ele>975.6</ele>
        <time>2025-09-08T09:15:26Z</time>
      </trkpt>
      <trkpt lat="48.08043" lon="7.15916">
        <ele>976</ele>
        <time>2025-09-08T09:15:27Z</time>
      </trkpt>
      <trkpt lat="48.08042" lon="7.15922">
        <ele>976.4</ele>
        <time>2025-09-08T09:15:28Z</time>
      </trkpt>
      <trkpt lat="48.08042" lon="7.15929">
        <ele>976.6</ele>
        <time>2025-09-08T09:15:29Z</time>
      </trkpt>
      <trkpt lat="48.08041" lon="7.15935">
        <ele>977</ele>
        <time>2025-09-08T09:15:30Z</time>
      </trkpt>
      <trkpt lat="48.08041" lon="7.15941">
        <ele>977.2</ele>
        <time>2025-09-08T09:15:31Z</time>
      </trkpt>
      <trkpt lat="48.08041" lon="7.15946">
        <ele>977.4</ele>
        <time>2025-09-08T09:15:32Z</time>
      </trkpt>
      <trkpt lat="48.08041" lon="7.15952">
        <ele>977.8</ele>
        <time>2025-09-08T09:15:33Z</time>
      </trkpt>
      <trkpt lat="48.08041" lon="7.15957">
        <ele>978</ele>
        <time>2025-09-08T09:15:34Z</time>
      </trkpt>
      <trkpt lat="48.08042" lon="7.15963">
        <ele>978.2</ele>
        <time>2025-09-08T09:15:35Z</time>
      </trkpt>
      <trkpt lat="48.08042" lon="7.1597">
        <ele>978.4</ele>
        <time>2025-09-08T09:15:36Z</time>
      </trkpt>
      <trkpt lat="48.08043" lon="7.15975">
        <ele>978.4</ele>
        <time>2025-09-08T09:15:37Z</time>
      </trkpt>
      <trkpt lat="48.08044" lon="7.15981">
        <ele>978.4</ele>
        <time>2025-09-08T09:15:38Z</time>
      </trkpt>
      <trkpt lat="48.08044" lon="7.15987">
        <ele>978.4</ele>
        <time>2025-09-08T09:15:39Z</time>
      </trkpt>
      <trkpt lat="48.08044" lon="7.15994">
        <ele>978.4</ele>
        <time>2025-09-08T09:15:40Z</time>
      </trkpt>
      <trkpt lat="48.08043" lon="7.15999">
        <ele>978.4</ele>
        <time>2025-09-08T09:15:41Z</time>
      </trkpt>
      <trkpt lat="48.08043" lon="7.16003">
        <ele>978.4</ele>
        <time>2025-09-08T09:15:42Z</time>
      </trkpt>
      <trkpt lat="48.08043" lon="7.16006">
        <ele>978.4</ele>
        <time>2025-09-08T09:15:43Z</time>
      </trkpt>
      <trkpt lat="48.08043" lon="7.16011">
        <ele>978.4</ele>
        <time>2025-09-08T09:15:44Z</time>
      </trkpt>
      <trkpt lat="48.08041" lon="7.16016">
        <ele>978.4</ele>
        <time>2025-09-08T09:15:45Z</time>
      </trkpt>
      <trkpt lat="48.0804" lon="7.16023">
        <ele>978.4</ele>
        <time>2025-09-08T09:15:46Z</time>
      </trkpt>
      <trkpt lat="48.08038" lon="7.16029">
        <ele>978.4</ele>
        <time>2025-09-08T09:15:47Z</time>
      </trkpt>
      <trkpt lat="48.08036" lon="7.16035">
        <ele>978.6</ele>
        <time>2025-09-08T09:15:48Z</time>
      </trkpt>
      <trkpt lat="48.08033" lon="7.16041">
        <ele>978.6</ele>
        <time>2025-09-08T09:15:49Z</time>
      </trkpt>
      <trkpt lat="48.08031" lon="7.16047">
        <ele>978.6</ele>
        <time>2025-09-08T09:15:50Z</time>
      </trkpt>
      <trkpt lat="48.08029" lon="7.16053">
        <ele>978.6</ele>
        <time>2025-09-08T09:15:51Z</time>
      </trkpt>
      <trkpt lat="48.08026" lon="7.1606">
        <ele>978.6</ele>
        <time>2025-09-08T09:15:52Z</time>
      </trkpt>
      <trkpt lat="48.08024" lon="7.16065">
        <ele>978.6</ele>
        <time>2025-09-08T09:15:53Z</time>
      </trkpt>
      <trkpt lat="48.08022" lon="7.16071">
        <ele>978.8</ele>
        <time>2025-09-08T09:15:54Z</time>
      </trkpt>
      <trkpt lat="48.0802" lon="7.16076">
        <ele>979</ele>
        <time>2025-09-08T09:15:55Z</time>
      </trkpt>
      <trkpt lat="48.08019" lon="7.16081">
        <ele>979</ele>
        <time>2025-09-08T09:15:56Z</time>
      </trkpt>
      <trkpt lat="48.08017" lon="7.16087">
        <ele>979.2</ele>
        <time>2025-09-08T09:15:57Z</time>
      </trkpt>
      <trkpt lat="48.08015" lon="7.16092">
        <ele>979.4</ele>
        <time>2025-09-08T09:15:58Z</time>
      </trkpt>
      <trkpt lat="48.08013" lon="7.16098">
        <ele>979.4</ele>
        <time>2025-09-08T09:15:59Z</time>
      </trkpt>
      <trkpt lat="48.08011" lon="7.16103">
        <ele>979.4</ele>
        <time>2025-09-08T09:16:00Z</time>
      </trkpt>
      <trkpt lat="48.08009" lon="7.16108">
        <ele>979.4</ele>
        <time>2025-09-08T09:16:01Z</time>
      </trkpt>
      <trkpt lat="48.08008" lon="7.16113">
        <ele>979.4</ele>
        <time>2025-09-08T09:16:02Z</time>
      </trkpt>
      <trkpt lat="48.08006" lon="7.16119">
        <ele>979.4</ele>
        <time>2025-09-08T09:16:03Z</time>
      </trkpt>
      <trkpt lat="48.08004" lon="7.16125">
        <ele>979.4</ele>
        <time>2025-09-08T09:16:04Z</time>
      </trkpt>
      <trkpt lat="48.08003" lon="7.16131">
        <ele>979.4</ele>
        <time>2025-09-08T09:16:05Z</time>
      </trkpt>
      <trkpt lat="48.08002" lon="7.16136">
        <ele>979.2</ele>
        <time>2025-09-08T09:16:06Z</time>
      </trkpt>
      <trkpt lat="48.08002" lon="7.16142">
        <ele>979.2</ele>
        <time>2025-09-08T09:16:07Z</time>
      </trkpt>
      <trkpt lat="48.08001" lon="7.16148">
        <ele>979</ele>
        <time>2025-09-08T09:16:08Z</time>
      </trkpt>
      <trkpt lat="48.08" lon="7.16154">
        <ele>979</ele>
        <time>2025-09-08T09:16:09Z</time>
      </trkpt>
      <trkpt lat="48.08" lon="7.16161">
        <ele>978.8</ele>
        <time>2025-09-08T09:16:10Z</time>
      </trkpt>
      <trkpt lat="48.07999" lon="7.16168">
        <ele>978.8</ele>
        <time>2025-09-08T09:16:11Z</time>
      </trkpt>
      <trkpt lat="48.07999" lon="7.16175">
        <ele>978.6</ele>
        <time>2025-09-08T09:16:12Z</time>
      </trkpt>
      <trkpt lat="48.07998" lon="7.16182">
        <ele>978.2</ele>
        <time>2025-09-08T09:16:13Z</time>
      </trkpt>
      <trkpt lat="48.07997" lon="7.16188">
        <ele>978</ele>
        <time>2025-09-08T09:16:14Z</time>
      </trkpt>
      <trkpt lat="48.07995" lon="7.16194">
        <ele>977.8</ele>
        <time>2025-09-08T09:16:15Z</time>
      </trkpt>
      <trkpt lat="48.07995" lon="7.16201">
        <ele>977.6</ele>
        <time>2025-09-08T09:16:16Z</time>
      </trkpt>
      <trkpt lat="48.07994" lon="7.16209">
        <ele>977.2</ele>
        <time>2025-09-08T09:16:17Z</time>
      </trkpt>
      <trkpt lat="48.07993" lon="7.16217">
        <ele>976.6</ele>
        <time>2025-09-08T09:16:18Z</time>
      </trkpt>
      <trkpt lat="48.07992" lon="7.16225">
        <ele>976.4</ele>
        <time>2025-09-08T09:16:19Z</time>
      </trkpt>
      <trkpt lat="48.07992" lon="7.16233">
        <ele>976.2</ele>
        <time>2025-09-08T09:16:20Z</time>
      </trkpt>
      <trkpt lat="48.07993" lon="7.16242">
        <ele>976</ele>
        <time>2025-09-08T09:16:21Z</time>
      </trkpt>
      <trkpt lat="48.07995" lon="7.16249">
        <ele>975.4</ele>
        <time>2025-09-08T09:16:22Z</time>
      </trkpt>
      <trkpt lat="48.07996" lon="7.16257">
        <ele>975.2</ele>
        <time>2025-09-08T09:16:23Z</time>
      </trkpt>
      <trkpt lat="48.07998" lon="7.16263">
        <ele>974.6</ele>
        <time>2025-09-08T09:16:24Z</time>
      </trkpt>
      <trkpt lat="48.07999" lon="7.16268">
        <ele>974.2</ele>
        <time>2025-09-08T09:16:25Z</time>
      </trkpt>
      <trkpt lat="48.07999" lon="7.16273">
        <ele>973.8</ele>
        <time>2025-09-08T09:16:26Z</time>
      </trkpt>
      <trkpt lat="48.08001" lon="7.16278">
        <ele>973.4</ele>
        <time>2025-09-08T09:16:27Z</time>
      </trkpt>
      <trkpt lat="48.08001" lon="7.16283">
        <ele>973.2</ele>
        <time>2025-09-08T09:16:28Z</time>
      </trkpt>
      <trkpt lat="48.08" lon="7.16289">
        <ele>973</ele>
        <time>2025-09-08T09:16:29Z</time>
      </trkpt>
      <trkpt lat="48.07999" lon="7.16294">
        <ele>972.8</ele>
        <time>2025-09-08T09:16:30Z</time>
      </trkpt>
      <trkpt lat="48.07998" lon="7.163">
        <ele>972.4</ele>
        <time>2025-09-08T09:16:31Z</time>
      </trkpt>
      <trkpt lat="48.07997" lon="7.16307">
        <ele>972</ele>
        <time>2025-09-08T09:16:32Z</time>
      </trkpt>
      <trkpt lat="48.07995" lon="7.16314">
        <ele>971.6</ele>
        <time>2025-09-08T09:16:33Z</time>
      </trkpt>
      <trkpt lat="48.07993" lon="7.16321">
        <ele>971.4</ele>
        <time>2025-09-08T09:16:34Z</time>
      </trkpt>
      <trkpt lat="48.0799" lon="7.16328">
        <ele>970.8</ele>
        <time>2025-09-08T09:16:35Z</time>
      </trkpt>
      <trkpt lat="48.07987" lon="7.16336">
        <ele>970.2</ele>
        <time>2025-09-08T09:16:36Z</time>
      </trkpt>
      <trkpt lat="48.07984" lon="7.16342">
        <ele>969.4</ele>
        <time>2025-09-08T09:16:37Z</time>
      </trkpt>
      <trkpt lat="48.0798" lon="7.16348">
        <ele>969</ele>
        <time>2025-09-08T09:16:38Z</time>
      </trkpt>
      <trkpt lat="48.07976" lon="7.16353">
        <ele>968.6</ele>
        <time>2025-09-08T09:16:39Z</time>
      </trkpt>
      <trkpt lat="48.07972" lon="7.16358">
        <ele>967.8</ele>
        <time>2025-09-08T09:16:40Z</time>
      </trkpt>
      <trkpt lat="48.07969" lon="7.16364">
        <ele>967</ele>
        <time>2025-09-08T09:16:41Z</time>
      </trkpt>
      <trkpt lat="48.07966" lon="7.1637">
        <ele>966.4</ele>
        <time>2025-09-08T09:16:42Z</time>
      </trkpt>
      <trkpt lat="48.07964" lon="7.16378">
        <ele>965.8</ele>
        <time>2025-09-08T09:16:43Z</time>
      </trkpt>
      <trkpt lat="48.07963" lon="7.16386">
        <ele>965.4</ele>
        <time>2025-09-08T09:16:44Z</time>
      </trkpt>
      <trkpt lat="48.07961" lon="7.16394">
        <ele>964.2</ele>
        <time>2025-09-08T09:16:45Z</time>
      </trkpt>
      <trkpt lat="48.07959" lon="7.16403">
        <ele>963.6</ele>
        <time>2025-09-08T09:16:46Z</time>
      </trkpt>
      <trkpt lat="48.07959" lon="7.16412">
        <ele>963.2</ele>
        <time>2025-09-08T09:16:47Z</time>
      </trkpt>
      <trkpt lat="48.07958" lon="7.16421">
        <ele>962.4</ele>
        <time>2025-09-08T09:16:48Z</time>
      </trkpt>
      <trkpt lat="48.07957" lon="7.1643">
        <ele>962.2</ele>
        <time>2025-09-08T09:16:49Z</time>
      </trkpt>
      <trkpt lat="48.07954" lon="7.16438">
        <ele>961</ele>
        <time>2025-09-08T09:16:50Z</time>
      </trkpt>
      <trkpt lat="48.07951" lon="7.16446">
        <ele>960.4</ele>
        <time>2025-09-08T09:16:51Z</time>
      </trkpt>
      <trkpt lat="48.07947" lon="7.16454">
        <ele>960</ele>
        <time>2025-09-08T09:16:52Z</time>
      </trkpt>
      <trkpt lat="48.07943" lon="7.16464">
        <ele>959.2</ele>
        <time>2025-09-08T09:16:53Z</time>
      </trkpt>
      <trkpt lat="48.07939" lon="7.16472">
        <ele>958.8</ele>
        <time>2025-09-08T09:16:54Z</time>
      </trkpt>
      <trkpt lat="48.07935" lon="7.16481">
        <ele>958.6</ele>
        <time>2025-09-08T09:16:55Z</time>
      </trkpt>
      <trkpt lat="48.0793" lon="7.16489">
        <ele>958.4</ele>
        <time>2025-09-08T09:16:56Z</time>
      </trkpt>
      <trkpt lat="48.07926" lon="7.16496">
        <ele>957.6</ele>
        <time>2025-09-08T09:16:57Z</time>
      </trkpt>
      <trkpt lat="48.07922" lon="7.16501">
        <ele>957.6</ele>
        <time>2025-09-08T09:16:58Z</time>
      </trkpt>
      <trkpt lat="48.07921" lon="7.16509">
        <ele>956.8</ele>
        <time>2025-09-08T09:16:59Z</time>
      </trkpt>
      <trkpt lat="48.0792" lon="7.16516">
        <ele>956.6</ele>
        <time>2025-09-08T09:17:00Z</time>
      </trkpt>
      <trkpt lat="48.07921" lon="7.16524">
        <ele>956.4</ele>
        <time>2025-09-08T09:17:01Z</time>
      </trkpt>
      <trkpt lat="48.07921" lon="7.16533">
        <ele>956.2</ele>
        <time>2025-09-08T09:17:02Z</time>
      </trkpt>
      <trkpt lat="48.07921" lon="7.16542">
        <ele>955.8</ele>
        <time>2025-09-08T09:17:03Z</time>
      </trkpt>
      <trkpt lat="48.0792" lon="7.16552">
        <ele>955.4</ele>
        <time>2025-09-08T09:17:04Z</time>
      </trkpt>
      <trkpt lat="48.0792" lon="7.16562">
        <ele>954.8</ele>
        <time>2025-09-08T09:17:05Z</time>
      </trkpt>
      <trkpt lat="48.0792" lon="7.16572">
        <ele>954</ele>
        <time>2025-09-08T09:17:06Z</time>
      </trkpt>
      <trkpt lat="48.07919" lon="7.16582">
        <ele>953.6</ele>
        <time>2025-09-08T09:17:07Z</time>
      </trkpt>
      <trkpt lat="48.07918" lon="7.16591">
        <ele>953.2</ele>
        <time>2025-09-08T09:17:08Z</time>
      </trkpt>
      <trkpt lat="48.07918" lon="7.166">
        <ele>952.6</ele>
        <time>2025-09-08T09:17:09Z</time>
      </trkpt>
      <trkpt lat="48.07918" lon="7.1661">
        <ele>952.4</ele>
        <time>2025-09-08T09:17:10Z</time>
      </trkpt>
      <trkpt lat="48.07917" lon="7.1662">
        <ele>951.8</ele>
        <time>2025-09-08T09:17:11Z</time>
      </trkpt>
      <trkpt lat="48.07916" lon="7.16628">
        <ele>951.4</ele>
        <time>2025-09-08T09:17:12Z</time>
      </trkpt>
      <trkpt lat="48.07916" lon="7.16637">
        <ele>950.8</ele>
        <time>2025-09-08T09:17:13Z</time>
      </trkpt>
      <trkpt lat="48.07916" lon="7.16647">
        <ele>950.4</ele>
        <time>2025-09-08T09:17:14Z</time>
      </trkpt>
      <trkpt lat="48.07915" lon="7.16657">
        <ele>950.4</ele>
        <time>2025-09-08T09:17:15Z</time>
      </trkpt>
      <trkpt lat="48.07915" lon="7.16668">
        <ele>949.4</ele>
        <time>2025-09-08T09:17:16Z</time>
      </trkpt>
      <trkpt lat="48.07914" lon="7.16678">
        <ele>948.8</ele>
        <time>2025-09-08T09:17:17Z</time>
      </trkpt>
      <trkpt lat="48.07915" lon="7.16688">
        <ele>948.2</ele>
        <time>2025-09-08T09:17:18Z</time>
      </trkpt>
      <trkpt lat="48.07915" lon="7.16697">
        <ele>947.8</ele>
        <time>2025-09-08T09:17:19Z</time>
      </trkpt>
      <trkpt lat="48.07915" lon="7.16707">
        <ele>947.6</ele>
        <time>2025-09-08T09:17:20Z</time>
      </trkpt>
      <trkpt lat="48.07917" lon="7.16715">
        <ele>947</ele>
        <time>2025-09-08T09:17:21Z</time>
      </trkpt>
      <trkpt lat="48.07917" lon="7.16725">
        <ele>946.8</ele>
        <time>2025-09-08T09:17:22Z</time>
      </trkpt>
      <trkpt lat="48.07916" lon="7.16734">
        <ele>946.4</ele>
        <time>2025-09-08T09:17:23Z</time>
      </trkpt>
      <trkpt lat="48.07915" lon="7.16743">
        <ele>945.8</ele>
        <time>2025-09-08T09:17:24Z</time>
      </trkpt>
      <trkpt lat="48.07914" lon="7.16752">
        <ele>945.6</ele>
        <time>2025-09-08T09:17:25Z</time>
      </trkpt>
      <trkpt lat="48.07912" lon="7.16761">
        <ele>945.4</ele>
        <time>2025-09-08T09:17:26Z</time>
      </trkpt>
      <trkpt lat="48.0791" lon="7.1677">
        <ele>944.8</ele>
        <time>2025-09-08T09:17:27Z</time>
      </trkpt>
      <trkpt lat="48.07908" lon="7.1678">
        <ele>944.4</ele>
        <time>2025-09-08T09:17:28Z</time>
      </trkpt>
      <trkpt lat="48.07907" lon="7.16789">
        <ele>944</ele>
        <time>2025-09-08T09:17:29Z</time>
      </trkpt>
      <trkpt lat="48.07907" lon="7.16798">
        <ele>943.6</ele>
        <time>2025-09-08T09:17:30Z</time>
      </trkpt>
      <trkpt lat="48.07908" lon="7.16804">
        <ele>943</ele>
        <time>2025-09-08T09:17:31Z</time>
      </trkpt>
      <trkpt lat="48.0791" lon="7.16809">
        <ele>942.6</ele>
        <time>2025-09-08T09:17:32Z</time>
      </trkpt>
      <trkpt lat="48.07909" lon="7.16814">
        <ele>942.4</ele>
        <time>2025-09-08T09:17:33Z</time>
      </trkpt>
      <trkpt lat="48.07909" lon="7.16818">
        <ele>942.2</ele>
        <time>2025-09-08T09:17:34Z</time>
      </trkpt>
      <trkpt lat="48.0791" lon="7.16823">
        <ele>942.2</ele>
        <time>2025-09-08T09:17:35Z</time>
      </trkpt>
      <trkpt lat="48.07912" lon="7.16828">
        <ele>942</ele>
        <time>2025-09-08T09:17:36Z</time>
      </trkpt>
      <trkpt lat="48.07915" lon="7.16834">
        <ele>941.8</ele>
        <time>2025-09-08T09:17:37Z</time>
      </trkpt>
      <trkpt lat="48.07918" lon="7.16841">
        <ele>941.6</ele>
        <time>2025-09-08T09:17:38Z</time>
      </trkpt>
      <trkpt lat="48.07921" lon="7.16848">
        <ele>941.4</ele>
        <time>2025-09-08T09:17:39Z</time>
      </trkpt>
      <trkpt lat="48.07924" lon="7.16855">
        <ele>941.2</ele>
        <time>2025-09-08T09:17:40Z</time>
      </trkpt>
      <trkpt lat="48.07926" lon="7.16862">
        <ele>941</ele>
        <time>2025-09-08T09:17:41Z</time>
      </trkpt>
      <trkpt lat="48.07929" lon="7.16868">
        <ele>940.8</ele>
        <time>2025-09-08T09:17:42Z</time>
      </trkpt>
      <trkpt lat="48.07932" lon="7.16874">
        <ele>940.8</ele>
        <time>2025-09-08T09:17:43Z</time>
      </trkpt>
      <trkpt lat="48.07933" lon="7.16881">
        <ele>940.6</ele>
        <time>2025-09-08T09:17:44Z</time>
      </trkpt>
      <trkpt lat="48.07935" lon="7.16887">
        <ele>940.4</ele>
        <time>2025-09-08T09:17:45Z</time>
      </trkpt>
      <trkpt lat="48.07938" lon="7.16892">
        <ele>940.2</ele>
        <time>2025-09-08T09:17:46Z</time>
      </trkpt>
      <trkpt lat="48.07941" lon="7.16896">
        <ele>939.8</ele>
        <time>2025-09-08T09:17:47Z</time>
      </trkpt>
      <trkpt lat="48.07945" lon="7.169">
        <ele>939.6</ele>
        <time>2025-09-08T09:17:48Z</time>
      </trkpt>
      <trkpt lat="48.07949" lon="7.16904">
        <ele>939.2</ele>
        <time>2025-09-08T09:17:49Z</time>
      </trkpt>
      <trkpt lat="48.07952" lon="7.16908">
        <ele>939</ele>
        <time>2025-09-08T09:17:50Z</time>
      </trkpt>
      <trkpt lat="48.07955" lon="7.16913">
        <ele>938.8</ele>
        <time>2025-09-08T09:17:51Z</time>
      </trkpt>
      <trkpt lat="48.07959" lon="7.16919">
        <ele>938.6</ele>
        <time>2025-09-08T09:17:52Z</time>
      </trkpt>
      <trkpt lat="48.07963" lon="7.16923">
        <ele>938.6</ele>
        <time>2025-09-08T09:17:53Z</time>
      </trkpt>
      <trkpt lat="48.07966" lon="7.16929">
        <ele>938.6</ele>
        <time>2025-09-08T09:17:54Z</time>
      </trkpt>
      <trkpt lat="48.07969" lon="7.16935">
        <ele>938.4</ele>
        <time>2025-09-08T09:17:55Z</time>
      </trkpt>
      <trkpt lat="48.0797" lon="7.16942">
        <ele>938.4</ele>
        <time>2025-09-08T09:17:56Z</time>
      </trkpt>
      <trkpt lat="48.07971" lon="7.16949">
        <ele>938.4</ele>
        <time>2025-09-08T09:17:57Z</time>
      </trkpt>
      <trkpt lat="48.07971" lon="7.16955">
        <ele>938.4</ele>
        <time>2025-09-08T09:17:58Z</time>
      </trkpt>
      <trkpt lat="48.07971" lon="7.16962">
        <ele>938.4</ele>
        <time>2025-09-08T09:17:59Z</time>
      </trkpt>
      <trkpt lat="48.07971" lon="7.1697">
        <ele>938.4</ele>
        <time>2025-09-08T09:18:00Z</time>
      </trkpt>
      <trkpt lat="48.07971" lon="7.16977">
        <ele>938.4</ele>
        <time>2025-09-08T09:18:01Z</time>
      </trkpt>
      <trkpt lat="48.0797" lon="7.16984">
        <ele>938.2</ele>
        <time>2025-09-08T09:18:02Z</time>
      </trkpt>
      <trkpt lat="48.0797" lon="7.1699">
        <ele>938.2</ele>
        <time>2025-09-08T09:18:03Z</time>
      </trkpt>
      <trkpt lat="48.07971" lon="7.16998">
        <ele>938</ele>
        <time>2025-09-08T09:18:04Z</time>
      </trkpt>
      <trkpt lat="48.07973" lon="7.17006">
        <ele>937.8</ele>
        <time>2025-09-08T09:18:05Z</time>
      </trkpt>
      <trkpt lat="48.07974" lon="7.17013">
        <ele>937.6</ele>
        <time>2025-09-08T09:18:06Z</time>
      </trkpt>
      <trkpt lat="48.07975" lon="7.17021">
        <ele>937.4</ele>
        <time>2025-09-08T09:18:07Z</time>
      </trkpt>
      <trkpt lat="48.07975" lon="7.17029">
        <ele>937.4</ele>
        <time>2025-09-08T09:18:08Z</time>
      </trkpt>
      <trkpt lat="48.07974" lon="7.17036">
        <ele>937.2</ele>
        <time>2025-09-08T09:18:09Z</time>
      </trkpt>
      <trkpt lat="48.07975" lon="7.17043">
        <ele>937.2</ele>
        <time>2025-09-08T09:18:10Z</time>
      </trkpt>
      <trkpt lat="48.07975" lon="7.1705">
        <ele>937</ele>
        <time>2025-09-08T09:18:11Z</time>
      </trkpt>
      <trkpt lat="48.07976" lon="7.17058">
        <ele>937</ele>
        <time>2025-09-08T09:18:12Z</time>
      </trkpt>
      <trkpt lat="48.07978" lon="7.17066">
        <ele>937</ele>
        <time>2025-09-08T09:18:13Z</time>
      </trkpt>
      <trkpt lat="48.0798" lon="7.17075">
        <ele>936.6</ele>
        <time>2025-09-08T09:18:14Z</time>
      </trkpt>
      <trkpt lat="48.07982" lon="7.17083">
        <ele>936.4</ele>
        <time>2025-09-08T09:18:15Z</time>
      </trkpt>
      <trkpt lat="48.07985" lon="7.17091">
        <ele>936.2</ele>
        <time>2025-09-08T09:18:16Z</time>
      </trkpt>
      <trkpt lat="48.07989" lon="7.17099">
        <ele>936.2</ele>
        <time>2025-09-08T09:18:17Z</time>
      </trkpt>
      <trkpt lat="48.07992" lon="7.17106">
        <ele>936</ele>
        <time>2025-09-08T09:18:18Z</time>
      </trkpt>
      <trkpt lat="48.07996" lon="7.17113">
        <ele>935.8</ele>
        <time>2025-09-08T09:18:19Z</time>
      </trkpt>
      <trkpt lat="48.07999" lon="7.17122">
        <ele>935.8</ele>
        <time>2025-09-08T09:18:20Z</time>
      </trkpt>
      <trkpt lat="48.08003" lon="7.1713">
        <ele>935.6</ele>
        <time>2025-09-08T09:18:21Z</time>
      </trkpt>
      <trkpt lat="48.08006" lon="7.17139">
        <ele>935.2</ele>
        <time>2025-09-08T09:18:22Z</time>
      </trkpt>
      <trkpt lat="48.0801" lon="7.17146">
        <ele>935.2</ele>
        <time>2025-09-08T09:18:23Z</time>
      </trkpt>
      <trkpt lat="48.08013" lon="7.17154">
        <ele>935</ele>
        <time>2025-09-08T09:18:24Z</time>
      </trkpt>
      <trkpt lat="48.08017" lon="7.17162">
        <ele>934.8</ele>
        <time>2025-09-08T09:18:25Z</time>
      </trkpt>
      <trkpt lat="48.08021" lon="7.17169">
        <ele>934.8</ele>
        <time>2025-09-08T09:18:26Z</time>
      </trkpt>
      <trkpt lat="48.08024" lon="7.17177">
        <ele>934.8</ele>
        <time>2025-09-08T09:18:27Z</time>
      </trkpt>
      <trkpt lat="48.08028" lon="7.17185">
        <ele>934.8</ele>
        <time>2025-09-08T09:18:28Z</time>
      </trkpt>
      <trkpt lat="48.08032" lon="7.17191">
        <ele>934.6</ele>
        <time>2025-09-08T09:18:29Z</time>
      </trkpt>
      <trkpt lat="48.08035" lon="7.17199">
        <ele>934.4</ele>
        <time>2025-09-08T09:18:30Z</time>
      </trkpt>
      <trkpt lat="48.08039" lon="7.17206">
        <ele>934.2</ele>
        <time>2025-09-08T09:18:31Z</time>
      </trkpt>
      <trkpt lat="48.08043" lon="7.17213">
        <ele>932.8</ele>
        <time>2025-09-08T09:18:32Z</time>
      </trkpt>
      <trkpt lat="48.08048" lon="7.1722">
        <ele>932.6</ele>
        <time>2025-09-08T09:18:33Z</time>
      </trkpt>
      <trkpt lat="48.08052" lon="7.17227">
        <ele>932.6</ele>
        <time>2025-09-08T09:18:34Z</time>
      </trkpt>
      <trkpt lat="48.08056" lon="7.17233">
        <ele>932.6</ele>
        <time>2025-09-08T09:18:35Z</time>
      </trkpt>
      <trkpt lat="48.0806" lon="7.1724">
        <ele>933</ele>
        <time>2025-09-08T09:18:36Z</time>
      </trkpt>
      <trkpt lat="48.08064" lon="7.17247">
        <ele>933.4</ele>
        <time>2025-09-08T09:18:37Z</time>
      </trkpt>
      <trkpt lat="48.08068" lon="7.17255">
        <ele>933.6</ele>
        <time>2025-09-08T09:18:38Z</time>
      </trkpt>
      <trkpt lat="48.08072" lon="7.17263">
        <ele>933.8</ele>
        <time>2025-09-08T09:18:39Z</time>
      </trkpt>
      <trkpt lat="48.08076" lon="7.17271">
        <ele>934</ele>
        <time>2025-09-08T09:18:40Z</time>
      </trkpt>
      <trkpt lat="48.0808" lon="7.17279">
        <ele>934.2</ele>
        <time>2025-09-08T09:18:41Z</time>
      </trkpt>
      <trkpt lat="48.08084" lon="7.17286">
        <ele>934.2</ele>
        <time>2025-09-08T09:18:42Z</time>
      </trkpt>
      <trkpt lat="48.08089" lon="7.17293">
        <ele>934.2</ele>
        <time>2025-09-08T09:18:43Z</time>
      </trkpt>
      <trkpt lat="48.08093" lon="7.17299">
        <ele>934.4</ele>
        <time>2025-09-08T09:18:44Z</time>
      </trkpt>
      <trkpt lat="48.08097" lon="7.17306">
        <ele>934.4</ele>
        <time>2025-09-08T09:18:45Z</time>
      </trkpt>
      <trkpt lat="48.08101" lon="7.17313">
        <ele>934.4</ele>
        <time>2025-09-08T09:18:46Z</time>
      </trkpt>
      <trkpt lat="48.08104" lon="7.1732">
        <ele>934.6</ele>
        <time>2025-09-08T09:18:47Z</time>
      </trkpt>
      <trkpt lat="48.08108" lon="7.17327">
        <ele>934.6</ele>
        <time>2025-09-08T09:18:48Z</time>
      </trkpt>
      <trkpt lat="48.08111" lon="7.17333">
        <ele>934.8</ele>
        <time>2025-09-08T09:18:49Z</time>
      </trkpt>
      <trkpt lat="48.08115" lon="7.1734">
        <ele>934.8</ele>
        <time>2025-09-08T09:18:50Z</time>
      </trkpt>
      <trkpt lat="48.08118" lon="7.17345">
        <ele>935.2</ele>
        <time>2025-09-08T09:18:51Z</time>
      </trkpt>
      <trkpt lat="48.0812" lon="7.17351">
        <ele>935.2</ele>
        <time>2025-09-08T09:18:52Z</time>
      </trkpt>
      <trkpt lat="48.08123" lon="7.17357">
        <ele>935.4</ele>
        <time>2025-09-08T09:18:53Z</time>
      </trkpt>
      <trkpt lat="48.08125" lon="7.17364">
        <ele>935.6</ele>
        <time>2025-09-08T09:18:54Z</time>
      </trkpt>
      <trkpt lat="48.08128" lon="7.17371">
        <ele>936</ele>
        <time>2025-09-08T09:18:55Z</time>
      </trkpt>
      <trkpt lat="48.0813" lon="7.17378">
        <ele>936</ele>
        <time>2025-09-08T09:18:56Z</time>
      </trkpt>
      <trkpt lat="48.08131" lon="7.17385">
        <ele>936.2</ele>
        <time>2025-09-08T09:18:57Z</time>
      </trkpt>
      <trkpt lat="48.08133" lon="7.17393">
        <ele>936.2</ele>
        <time>2025-09-08T09:18:58Z</time>
      </trkpt>
      <trkpt lat="48.08135" lon="7.17401">
        <ele>936.4</ele>
        <time>2025-09-08T09:18:59Z</time>
      </trkpt>
      <trkpt lat="48.08137" lon="7.1741">
        <ele>936.4</ele>
        <time>2025-09-08T09:19:00Z</time>
      </trkpt>
      <trkpt lat="48.08138" lon="7.17418">
        <ele>936.4</ele>
        <time>2025-09-08T09:19:01Z</time>
      </trkpt>
      <trkpt lat="48.0814" lon="7.17426">
        <ele>936.4</ele>
        <time>2025-09-08T09:19:02Z</time>
      </trkpt>
      <trkpt lat="48.08142" lon="7.17433">
        <ele>936.4</ele>
        <time>2025-09-08T09:19:03Z</time>
      </trkpt>
      <trkpt lat="48.08144" lon="7.17441">
        <ele>936.4</ele>
        <time>2025-09-08T09:19:04Z</time>
      </trkpt>
      <trkpt lat="48.08146" lon="7.17448">
        <ele>936.4</ele>
        <time>2025-09-08T09:19:05Z</time>
      </trkpt>
      <trkpt lat="48.08147" lon="7.17456">
        <ele>936.4</ele>
        <time>2025-09-08T09:19:06Z</time>
      </trkpt>
      <trkpt lat="48.08149" lon="7.17462">
        <ele>936.4</ele>
        <time>2025-09-08T09:19:07Z</time>
      </trkpt>
      <trkpt lat="48.0815" lon="7.1747">
        <ele>936.6</ele>
        <time>2025-09-08T09:19:08Z</time>
      </trkpt>
      <trkpt lat="48.08151" lon="7.17476">
        <ele>936.8</ele>
        <time>2025-09-08T09:19:09Z</time>
      </trkpt>
      <trkpt lat="48.08153" lon="7.17484">
        <ele>937</ele>
        <time>2025-09-08T09:19:10Z</time>
      </trkpt>
      <trkpt lat="48.08154" lon="7.17492">
        <ele>937</ele>
        <time>2025-09-08T09:19:11Z</time>
      </trkpt>
      <trkpt lat="48.08156" lon="7.175">
        <ele>937</ele>
        <time>2025-09-08T09:19:12Z</time>
      </trkpt>
      <trkpt lat="48.08157" lon="7.17508">
        <ele>937</ele>
        <time>2025-09-08T09:19:13Z</time>
      </trkpt>
      <trkpt lat="48.08158" lon="7.17516">
        <ele>937</ele>
        <time>2025-09-08T09:19:14Z</time>
      </trkpt>
      <trkpt lat="48.08159" lon="7.17523">
        <ele>937</ele>
        <time>2025-09-08T09:19:15Z</time>
      </trkpt>
      <trkpt lat="48.08159" lon="7.17531">
        <ele>937</ele>
        <time>2025-09-08T09:19:16Z</time>
      </trkpt>
      <trkpt lat="48.0816" lon="7.17537">
        <ele>937</ele>
        <time>2025-09-08T09:19:17Z</time>
      </trkpt>
      <trkpt lat="48.08161" lon="7.17544">
        <ele>937</ele>
        <time>2025-09-08T09:19:18Z</time>
      </trkpt>
      <trkpt lat="48.08162" lon="7.17552">
        <ele>936.8</ele>
        <time>2025-09-08T09:19:19Z</time>
      </trkpt>
      <trkpt lat="48.08164" lon="7.17561">
        <ele>936.8</ele>
        <time>2025-09-08T09:19:20Z</time>
      </trkpt>
      <trkpt lat="48.08166" lon="7.1757">
        <ele>936.8</ele>
        <time>2025-09-08T09:19:21Z</time>
      </trkpt>
      <trkpt lat="48.08167" lon="7.17579">
        <ele>936.8</ele>
        <time>2025-09-08T09:19:22Z</time>
      </trkpt>
      <trkpt lat="48.08171" lon="7.17588">
        <ele>936.2</ele>
        <time>2025-09-08T09:19:23Z</time>
      </trkpt>
      <trkpt lat="48.08174" lon="7.17598">
        <ele>935.6</ele>
        <time>2025-09-08T09:19:24Z</time>
      </trkpt>
      <trkpt lat="48.08179" lon="7.17607">
        <ele>935.2</ele>
        <time>2025-09-08T09:19:25Z</time>
      </trkpt>
      <trkpt lat="48.08183" lon="7.17617">
        <ele>934.6</ele>
        <time>2025-09-08T09:19:26Z</time>
      </trkpt>
      <trkpt lat="48.08187" lon="7.17628">
        <ele>934.4</ele>
        <time>2025-09-08T09:19:27Z</time>
      </trkpt>
      <trkpt lat="48.08191" lon="7.17641">
        <ele>933.4</ele>
        <time>2025-09-08T09:19:28Z</time>
      </trkpt>
      <trkpt lat="48.08195" lon="7.17654">
        <ele>932</ele>
        <time>2025-09-08T09:19:29Z</time>
      </trkpt>
      <trkpt lat="48.08198" lon="7.17666">
        <ele>931.4</ele>
        <time>2025-09-08T09:19:30Z</time>
      </trkpt>
      <trkpt lat="48.082" lon="7.17678">
        <ele>930.2</ele>
        <time>2025-09-08T09:19:31Z</time>
      </trkpt>
      <trkpt lat="48.08203" lon="7.1769">
        <ele>929.6</ele>
        <time>2025-09-08T09:19:32Z</time>
      </trkpt>
      <trkpt lat="48.08206" lon="7.177">
        <ele>928.8</ele>
        <time>2025-09-08T09:19:33Z</time>
      </trkpt>
      <trkpt lat="48.08209" lon="7.1771">
        <ele>928.2</ele>
        <time>2025-09-08T09:19:34Z</time>
      </trkpt>
      <trkpt lat="48.08212" lon="7.17719">
        <ele>928</ele>
        <time>2025-09-08T09:19:35Z</time>
      </trkpt>
      <trkpt lat="48.08215" lon="7.17728">
        <ele>928</ele>
        <time>2025-09-08T09:19:36Z</time>
      </trkpt>
      <trkpt lat="48.08219" lon="7.17736">
        <ele>928</ele>
        <time>2025-09-08T09:19:37Z</time>
      </trkpt>
      <trkpt lat="48.08223" lon="7.17743">
        <ele>927.8</ele>
        <time>2025-09-08T09:19:38Z</time>
      </trkpt>
      <trkpt lat="48.08228" lon="7.1775">
        <ele>928</ele>
        <time>2025-09-08T09:19:39Z</time>
      </trkpt>
      <trkpt lat="48.08234" lon="7.17758">
        <ele>927.8</ele>
        <time>2025-09-08T09:19:40Z</time>
      </trkpt>
      <trkpt lat="48.0824" lon="7.17764">
        <ele>928</ele>
        <time>2025-09-08T09:19:41Z</time>
      </trkpt>
      <trkpt lat="48.08246" lon="7.1777">
        <ele>928</ele>
        <time>2025-09-08T09:19:42Z</time>
      </trkpt>
      <trkpt lat="48.08252" lon="7.17775">
        <ele>928</ele>
        <time>2025-09-08T09:19:43Z</time>
      </trkpt>
      <trkpt lat="48.08258" lon="7.17781">
        <ele>928</ele>
        <time>2025-09-08T09:19:44Z</time>
      </trkpt>
      <trkpt lat="48.08264" lon="7.17787">
        <ele>927.8</ele>
        <time>2025-09-08T09:19:45Z</time>
      </trkpt>
      <trkpt lat="48.0827" lon="7.17792">
        <ele>927.8</ele>
        <time>2025-09-08T09:19:46Z</time>
      </trkpt>
      <trkpt lat="48.08275" lon="7.17797">
        <ele>927.8</ele>
        <time>2025-09-08T09:19:47Z</time>
      </trkpt>
      <trkpt lat="48.08281" lon="7.17802">
        <ele>928</ele>
        <time>2025-09-08T09:19:48Z</time>
      </trkpt>
      <trkpt lat="48.08286" lon="7.17808">
        <ele>928</ele>
        <time>2025-09-08T09:19:49Z</time>
      </trkpt>
      <trkpt lat="48.08291" lon="7.17814">
        <ele>928.2</ele>
        <time>2025-09-08T09:19:50Z</time>
      </trkpt>
      <trkpt lat="48.08296" lon="7.17819">
        <ele>928.2</ele>
        <time>2025-09-08T09:19:51Z</time>
      </trkpt>
      <trkpt lat="48.08301" lon="7.17824">
        <ele>928.4</ele>
        <time>2025-09-08T09:19:52Z</time>
      </trkpt>
      <trkpt lat="48.08306" lon="7.17829">
        <ele>928.4</ele>
        <time>2025-09-08T09:19:53Z</time>
      </trkpt>
      <trkpt lat="48.08311" lon="7.17835">
        <ele>928.6</ele>
        <time>2025-09-08T09:19:54Z</time>
      </trkpt>
      <trkpt lat="48.08316" lon="7.1784">
        <ele>928.6</ele>
        <time>2025-09-08T09:19:55Z</time>
      </trkpt>
      <trkpt lat="48.0832" lon="7.17845">
        <ele>928.6</ele>
        <time>2025-09-08T09:19:56Z</time>
      </trkpt>
      <trkpt lat="48.08325" lon="7.17851">
        <ele>928.6</ele>
        <time>2025-09-08T09:19:57Z</time>
      </trkpt>
      <trkpt lat="48.08329" lon="7.17858">
        <ele>928.6</ele>
        <time>2025-09-08T09:19:58Z</time>
      </trkpt>
      <trkpt lat="48.08332" lon="7.17865">
        <ele>928.4</ele>
        <time>2025-09-08T09:19:59Z</time>
      </trkpt>
      <trkpt lat="48.08336" lon="7.17872">
        <ele>928.4</ele>
        <time>2025-09-08T09:20:00Z</time>
      </trkpt>
      <trkpt lat="48.08339" lon="7.17879">
        <ele>928.4</ele>
        <time>2025-09-08T09:20:01Z</time>
      </trkpt>
      <trkpt lat="48.08342" lon="7.17885">
        <ele>928.4</ele>
        <time>2025-09-08T09:20:02Z</time>
      </trkpt>
      <trkpt lat="48.08345" lon="7.17892">
        <ele>928.4</ele>
        <time>2025-09-08T09:20:03Z</time>
      </trkpt>
      <trkpt lat="48.08348" lon="7.17899">
        <ele>928.2</ele>
        <time>2025-09-08T09:20:04Z</time>
      </trkpt>
      <trkpt lat="48.08351" lon="7.17906">
        <ele>928.2</ele>
        <time>2025-09-08T09:20:05Z</time>
      </trkpt>
      <trkpt lat="48.08353" lon="7.17913">
        <ele>928</ele>
        <time>2025-09-08T09:20:06Z</time>
      </trkpt>
      <trkpt lat="48.08355" lon="7.17921">
        <ele>928</ele>
        <time>2025-09-08T09:20:07Z</time>
      </trkpt>
      <trkpt lat="48.08358" lon="7.17929">
        <ele>927.8</ele>
        <time>2025-09-08T09:20:08Z</time>
      </trkpt>
      <trkpt lat="48.08361" lon="7.17939">
        <ele>927.6</ele>
        <time>2025-09-08T09:20:09Z</time>
      </trkpt>
      <trkpt lat="48.08364" lon="7.17949">
        <ele>927.4</ele>
        <time>2025-09-08T09:20:10Z</time>
      </trkpt>
      <trkpt lat="48.08366" lon="7.17959">
        <ele>927.2</ele>
        <time>2025-09-08T09:20:11Z</time>
      </trkpt>
      <trkpt lat="48.08367" lon="7.1797">
        <ele>926.6</ele>
        <time>2025-09-08T09:20:12Z</time>
      </trkpt>
      <trkpt lat="48.08368" lon="7.1798">
        <ele>926</ele>
        <time>2025-09-08T09:20:13Z</time>
      </trkpt>
      <trkpt lat="48.08369" lon="7.1799">
        <ele>925.6</ele>
        <time>2025-09-08T09:20:14Z</time>
      </trkpt>
      <trkpt lat="48.08369" lon="7.17999">
        <ele>925</ele>
        <time>2025-09-08T09:20:15Z</time>
      </trkpt>
      <trkpt lat="48.08369" lon="7.18009">
        <ele>924.8</ele>
        <time>2025-09-08T09:20:16Z</time>
      </trkpt>
      <trkpt lat="48.08369" lon="7.18018">
        <ele>924.6</ele>
        <time>2025-09-08T09:20:17Z</time>
      </trkpt>
      <trkpt lat="48.08369" lon="7.18028">
        <ele>924.2</ele>
        <time>2025-09-08T09:20:18Z</time>
      </trkpt>
      <trkpt lat="48.08369" lon="7.18037">
        <ele>924.2</ele>
        <time>2025-09-08T09:20:19Z</time>
      </trkpt>
      <trkpt lat="48.08367" lon="7.18046">
        <ele>924</ele>
        <time>2025-09-08T09:20:20Z</time>
      </trkpt>
      <trkpt lat="48.08366" lon="7.18054">
        <ele>923.8</ele>
        <time>2025-09-08T09:20:21Z</time>
      </trkpt>
      <trkpt lat="48.08363" lon="7.18062">
        <ele>923.8</ele>
        <time>2025-09-08T09:20:22Z</time>
      </trkpt>
      <trkpt lat="48.08361" lon="7.18068">
        <ele>923.8</ele>
        <time>2025-09-08T09:20:23Z</time>
      </trkpt>
      <trkpt lat="48.08359" lon="7.18075">
        <ele>923.8</ele>
        <time>2025-09-08T09:20:24Z</time>
      </trkpt>
      <trkpt lat="48.08357" lon="7.18083">
        <ele>924</ele>
        <time>2025-09-08T09:20:25Z</time>
      </trkpt>
      <trkpt lat="48.08356" lon="7.1809">
        <ele>924</ele>
        <time>2025-09-08T09:20:26Z</time>
      </trkpt>
      <trkpt lat="48.08356" lon="7.18097">
        <ele>924.2</ele>
        <time>2025-09-08T09:20:27Z</time>
      </trkpt>
      <trkpt lat="48.08354" lon="7.18105">
        <ele>924.4</ele>
        <time>2025-09-08T09:20:28Z</time>
      </trkpt>
      <trkpt lat="48.08352" lon="7.18113">
        <ele>924.6</ele>
        <time>2025-09-08T09:20:29Z</time>
      </trkpt>
      <trkpt lat="48.08351" lon="7.18121">
        <ele>924.6</ele>
        <time>2025-09-08T09:20:30Z</time>
      </trkpt>
      <trkpt lat="48.0835" lon="7.18128">
        <ele>924.8</ele>
        <time>2025-09-08T09:20:31Z</time>
      </trkpt>
      <trkpt lat="48.08349" lon="7.18135">
        <ele>924.8</ele>
        <time>2025-09-08T09:20:32Z</time>
      </trkpt>
      <trkpt lat="48.08348" lon="7.18142">
        <ele>925</ele>
        <time>2025-09-08T09:20:33Z</time>
      </trkpt>
      <trkpt lat="48.08347" lon="7.18149">
        <ele>925.2</ele>
        <time>2025-09-08T09:20:34Z</time>
      </trkpt>
      <trkpt lat="48.08345" lon="7.18156">
        <ele>925.4</ele>
        <time>2025-09-08T09:20:35Z</time>
      </trkpt>
      <trkpt lat="48.08345" lon="7.18163">
        <ele>925.4</ele>
        <time>2025-09-08T09:20:36Z</time>
      </trkpt>
      <trkpt lat="48.08343" lon="7.1817">
        <ele>925.6</ele>
        <time>2025-09-08T09:20:37Z</time>
      </trkpt>
      <trkpt lat="48.08343" lon="7.18178">
        <ele>925.8</ele>
        <time>2025-09-08T09:20:38Z</time>
      </trkpt>
      <trkpt lat="48.08343" lon="7.18187">
        <ele>925.8</ele>
        <time>2025-09-08T09:20:39Z</time>
      </trkpt>
      <trkpt lat="48.08342" lon="7.18195">
        <ele>925.8</ele>
        <time>2025-09-08T09:20:40Z</time>
      </trkpt>
      <trkpt lat="48.08341" lon="7.18204">
        <ele>925.8</ele>
        <time>2025-09-08T09:20:41Z</time>
      </trkpt>
      <trkpt lat="48.08341" lon="7.18212">
        <ele>925.6</ele>
        <time>2025-09-08T09:20:42Z</time>
      </trkpt>
      <trkpt lat="48.08342" lon="7.1822">
        <ele>925.6</ele>
        <time>2025-09-08T09:20:43Z</time>
      </trkpt>
      <trkpt lat="48.08343" lon="7.18228">
        <ele>925.6</ele>
        <time>2025-09-08T09:20:44Z</time>
      </trkpt>
      <trkpt lat="48.08345" lon="7.18237">
        <ele>925.4</ele>
        <time>2025-09-08T09:20:45Z</time>
      </trkpt>
      <trkpt lat="48.08348" lon="7.18245">
        <ele>925</ele>
        <time>2025-09-08T09:20:46Z</time>
      </trkpt>
      <trkpt lat="48.08352" lon="7.18251">
        <ele>924.8</ele>
        <time>2025-09-08T09:20:47Z</time>
      </trkpt>
      <trkpt lat="48.08356" lon="7.18255">
        <ele>924.6</ele>
        <time>2025-09-08T09:20:48Z</time>
      </trkpt>
      <trkpt lat="48.08359" lon="7.18258">
        <ele>924.6</ele>
        <time>2025-09-08T09:20:49Z</time>
      </trkpt>
      <trkpt lat="48.08363" lon="7.18262">
        <ele>924.4</ele>
        <time>2025-09-08T09:20:50Z</time>
      </trkpt>
      <trkpt lat="48.08366" lon="7.18266">
        <ele>924.4</ele>
        <time>2025-09-08T09:20:51Z</time>
      </trkpt>
      <trkpt lat="48.08369" lon="7.18271">
        <ele>924.2</ele>
        <time>2025-09-08T09:20:52Z</time>
      </trkpt>
      <trkpt lat="48.08372" lon="7.18275">
        <ele>924.2</ele>
        <time>2025-09-08T09:20:53Z</time>
      </trkpt>
      <trkpt lat="48.08376" lon="7.18281">
        <ele>924</ele>
        <time>2025-09-08T09:20:54Z</time>
      </trkpt>
      <trkpt lat="48.0838" lon="7.18287">
        <ele>923.8</ele>
        <time>2025-09-08T09:20:55Z</time>
      </trkpt>
      <trkpt lat="48.08384" lon="7.18293">
        <ele>923.6</ele>
        <time>2025-09-08T09:20:56Z</time>
      </trkpt>
      <trkpt lat="48.08388" lon="7.18299">
        <ele>923.2</ele>
        <time>2025-09-08T09:20:57Z</time>
      </trkpt>
      <trkpt lat="48.08391" lon="7.18306">
        <ele>922.4</ele>
        <time>2025-09-08T09:20:58Z</time>
      </trkpt>
      <trkpt lat="48.08393" lon="7.18313">
        <ele>921.6</ele>
        <time>2025-09-08T09:20:59Z</time>
      </trkpt>
      <trkpt lat="48.08395" lon="7.1832">
        <ele>921</ele>
        <time>2025-09-08T09:21:00Z</time>
      </trkpt>
      <trkpt lat="48.08396" lon="7.18327">
        <ele>920.6</ele>
        <time>2025-09-08T09:21:01Z</time>
      </trkpt>
      <trkpt lat="48.08397" lon="7.18332">
        <ele>920.2</ele>
        <time>2025-09-08T09:21:02Z</time>
      </trkpt>
      <trkpt lat="48.08398" lon="7.18337">
        <ele>920</ele>
        <time>2025-09-08T09:21:03Z</time>
      </trkpt>
      <trkpt lat="48.084" lon="7.18341">
        <ele>919.6</ele>
        <time>2025-09-08T09:21:04Z</time>
      </trkpt>
      <trkpt lat="48.08401" lon="7.18346">
        <ele>919.6</ele>
        <time>2025-09-08T09:21:05Z</time>
      </trkpt>
      <trkpt lat="48.08402" lon="7.18351">
        <ele>919.6</ele>
        <time>2025-09-08T09:21:06Z</time>
      </trkpt>
      <trkpt lat="48.08403" lon="7.18355">
        <ele>919.4</ele>
        <time>2025-09-08T09:21:07Z</time>
      </trkpt>
      <trkpt lat="48.08405" lon="7.1836">
        <ele>919.4</ele>
        <time>2025-09-08T09:21:08Z</time>
      </trkpt>
      <trkpt lat="48.08406" lon="7.18366">
        <ele>919.4</ele>
        <time>2025-09-08T09:21:09Z</time>
      </trkpt>
      <trkpt lat="48.08408" lon="7.18372">
        <ele>919.4</ele>
        <time>2025-09-08T09:21:10Z</time>
      </trkpt>
      <trkpt lat="48.0841" lon="7.18378">
        <ele>919.2</ele>
        <time>2025-09-08T09:21:11Z</time>
      </trkpt>
      <trkpt lat="48.08411" lon="7.18385">
        <ele>919.2</ele>
        <time>2025-09-08T09:21:12Z</time>
      </trkpt>
      <trkpt lat="48.08413" lon="7.18391">
        <ele>919</ele>
        <time>2025-09-08T09:21:13Z</time>
      </trkpt>
      <trkpt lat="48.08414" lon="7.18398">
        <ele>918.8</ele>
        <time>2025-09-08T09:21:14Z</time>
      </trkpt>
      <trkpt lat="48.08416" lon="7.18404">
        <ele>918.8</ele>
        <time>2025-09-08T09:21:15Z</time>
      </trkpt>
      <trkpt lat="48.08418" lon="7.1841">
        <ele>918.6</ele>
        <time>2025-09-08T09:21:16Z</time>
      </trkpt>
      <trkpt lat="48.0842" lon="7.18416">
        <ele>918.6</ele>
        <time>2025-09-08T09:21:17Z</time>
      </trkpt>
      <trkpt lat="48.08421" lon="7.18421">
        <ele>918.4</ele>
        <time>2025-09-08T09:21:18Z</time>
      </trkpt>
      <trkpt lat="48.08421" lon="7.18427">
        <ele>918.2</ele>
        <time>2025-09-08T09:21:19Z</time>
      </trkpt>
      <trkpt lat="48.08422" lon="7.18433">
        <ele>918.2</ele>
        <time>2025-09-08T09:21:20Z</time>
      </trkpt>
      <trkpt lat="48.08423" lon="7.18441">
        <ele>918</ele>
        <time>2025-09-08T09:21:21Z</time>
      </trkpt>
      <trkpt lat="48.08425" lon="7.18449">
        <ele>918</ele>
        <time>2025-09-08T09:21:22Z</time>
      </trkpt>
      <trkpt lat="48.08428" lon="7.18455">
        <ele>917.8</ele>
        <time>2025-09-08T09:21:23Z</time>
      </trkpt>
      <trkpt lat="48.08431" lon="7.1846">
        <ele>917.4</ele>
        <time>2025-09-08T09:21:24Z</time>
      </trkpt>
      <trkpt lat="48.08434" lon="7.18464">
        <ele>917.4</ele>
        <time>2025-09-08T09:21:25Z</time>
      </trkpt>
      <trkpt lat="48.08438" lon="7.18469">
        <ele>917</ele>
        <time>2025-09-08T09:21:26Z</time>
      </trkpt>
      <trkpt lat="48.08441" lon="7.18474">
        <ele>916.8</ele>
        <time>2025-09-08T09:21:27Z</time>
      </trkpt>
      <trkpt lat="48.08442" lon="7.18481">
        <ele>916.6</ele>
        <time>2025-09-08T09:21:28Z</time>
      </trkpt>
      <trkpt lat="48.08443" lon="7.18485">
        <ele>916.6</ele>
        <time>2025-09-08T09:21:29Z</time>
      </trkpt>
      <trkpt lat="48.08443" lon="7.1849">
        <ele>916</ele>
        <time>2025-09-08T09:21:30Z</time>
      </trkpt>
      <trkpt lat="48.08443" lon="7.18493">
        <ele>915.8</ele>
        <time>2025-09-08T09:21:31Z</time>
      </trkpt>
      <trkpt lat="48.08443" lon="7.18496">
        <ele>915.6</ele>
        <time>2025-09-08T09:21:32Z</time>
      </trkpt>
      <trkpt lat="48.08443" lon="7.18498">
        <ele>915.6</ele>
        <time>2025-09-08T09:21:33Z</time>
      </trkpt>
      <trkpt lat="48.08444" lon="7.18499">
        <ele>915.6</ele>
        <time>2025-09-08T09:21:34Z</time>
      </trkpt>
      <trkpt lat="48.08445" lon="7.18501">
        <ele>915.4</ele>
        <time>2025-09-08T09:21:35Z</time>
      </trkpt>
      <trkpt lat="48.08446" lon="7.18503">
        <ele>915.4</ele>
        <time>2025-09-08T09:21:36Z</time>
      </trkpt>
      <trkpt lat="48.08447" lon="7.18506">
        <ele>915.4</ele>
        <time>2025-09-08T09:21:37Z</time>
      </trkpt>
      <trkpt lat="48.08447" lon="7.1851">
        <ele>915.4</ele>
        <time>2025-09-08T09:21:38Z</time>
      </trkpt>
      <trkpt lat="48.08449" lon="7.18514">
        <ele>915.2</ele>
        <time>2025-09-08T09:21:39Z</time>
      </trkpt>
      <trkpt lat="48.08448" lon="7.18517">
        <ele>915</ele>
        <time>2025-09-08T09:21:40Z</time>
      </trkpt>
      <trkpt lat="48.08449" lon="7.1852">
        <ele>914.6</ele>
        <time>2025-09-08T09:21:41Z</time>
      </trkpt>
      <trkpt lat="48.0845" lon="7.18523">
        <ele>914</ele>
        <time>2025-09-08T09:21:42Z</time>
      </trkpt>
      <trkpt lat="48.08451" lon="7.18525">
        <ele>913.8</ele>
        <time>2025-09-08T09:21:43Z</time>
      </trkpt>
      <trkpt lat="48.08452" lon="7.1853">
        <ele>913.6</ele>
        <time>2025-09-08T09:21:44Z</time>
      </trkpt>
      <trkpt lat="48.08452" lon="7.18534">
        <ele>913</ele>
        <time>2025-09-08T09:21:45Z</time>
      </trkpt>
      <trkpt lat="48.08453" lon="7.18539">
        <ele>912.4</ele>
        <time>2025-09-08T09:21:46Z</time>
      </trkpt>
      <trkpt lat="48.08454" lon="7.18544">
        <ele>912.2</ele>
        <time>2025-09-08T09:21:47Z</time>
      </trkpt>
      <trkpt lat="48.08456" lon="7.1855">
        <ele>911</ele>
        <time>2025-09-08T09:21:48Z</time>
      </trkpt>
      <trkpt lat="48.08458" lon="7.18556">
        <ele>909.8</ele>
        <time>2025-09-08T09:21:49Z</time>
      </trkpt>
      <trkpt lat="48.08461" lon="7.18562">
        <ele>908.4</ele>
        <time>2025-09-08T09:21:50Z</time>
      </trkpt>
      <trkpt lat="48.08464" lon="7.18566">
        <ele>907.6</ele>
        <time>2025-09-08T09:21:51Z</time>
      </trkpt>
      <trkpt lat="48.08466" lon="7.18571">
        <ele>906.8</ele>
        <time>2025-09-08T09:21:52Z</time>
      </trkpt>
      <trkpt lat="48.08467" lon="7.18577">
        <ele>905.6</ele>
        <time>2025-09-08T09:21:53Z</time>
      </trkpt>
      <trkpt lat="48.08468" lon="7.18583">
        <ele>905</ele>
        <time>2025-09-08T09:21:54Z</time>
      </trkpt>
      <trkpt lat="48.08469" lon="7.18589">
        <ele>904.4</ele>
        <time>2025-09-08T09:21:55Z</time>
      </trkpt>
      <trkpt lat="48.08469" lon="7.18594">
        <ele>903.4</ele>
        <time>2025-09-08T09:21:56Z</time>
      </trkpt>
      <trkpt lat="48.0847" lon="7.18599">
        <ele>903.2</ele>
        <time>2025-09-08T09:21:57Z</time>
      </trkpt>
      <trkpt lat="48.0847" lon="7.18602">
        <ele>902.4</ele>
        <time>2025-09-08T09:21:58Z</time>
      </trkpt>
      <trkpt lat="48.0847" lon="7.18605">
        <ele>902</ele>
        <time>2025-09-08T09:21:59Z</time>
      </trkpt>
      <trkpt lat="48.0847" lon="7.18607">
        <ele>901.8</ele>
        <time>2025-09-08T09:22:00Z</time>
      </trkpt>
      <trkpt lat="48.0847" lon="7.1861">
        <ele>901.6</ele>
        <time>2025-09-08T09:22:01Z</time>
      </trkpt>
      <trkpt lat="48.08469" lon="7.18612">
        <ele>901.6</ele>
        <time>2025-09-08T09:22:02Z</time>
      </trkpt>
      <trkpt lat="48.08469" lon="7.18613">
        <ele>901.6</ele>
        <time>2025-09-08T09:22:03Z</time>
      </trkpt>
      <trkpt lat="48.08469" lon="7.18613">
        <ele>901.4</ele>
        <time>2025-09-08T09:22:04Z</time>
      </trkpt>
      <trkpt lat="48.08469" lon="7.18613">
        <ele>901.4</ele>
        <time>2025-09-08T09:22:05Z</time>
      </trkpt>
      <trkpt lat="48.08466" lon="7.18618">
        <ele>900.8</ele>
        <time>2025-09-08T09:22:35Z</time>
      </trkpt>
      <trkpt lat="48.08465" lon="7.18623">
        <ele>900.8</ele>
        <time>2025-09-08T09:22:36Z</time>
      </trkpt>
      <trkpt lat="48.08464" lon="7.18628">
        <ele>900.8</ele>
        <time>2025-09-08T09:22:37Z</time>
      </trkpt>
      <trkpt lat="48.08463" lon="7.18634">
        <ele>900.6</ele>
        <time>2025-09-08T09:22:38Z</time>
      </trkpt>
      <trkpt lat="48.08462" lon="7.1864">
        <ele>900.2</ele>
        <time>2025-09-08T09:22:39Z</time>
      </trkpt>
      <trkpt lat="48.08461" lon="7.18645">
        <ele>899.2</ele>
        <time>2025-09-08T09:22:40Z</time>
      </trkpt>
      <trkpt lat="48.08458" lon="7.18651">
        <ele>899</ele>
        <time>2025-09-08T09:22:41Z</time>
      </trkpt>
      <trkpt lat="48.08456" lon="7.18656">
        <ele>898.2</ele>
        <time>2025-09-08T09:22:42Z</time>
      </trkpt>
      <trkpt lat="48.08455" lon="7.18661">
        <ele>897.4</ele>
        <time>2025-09-08T09:22:43Z</time>
      </trkpt>
      <trkpt lat="48.08453" lon="7.18667">
        <ele>896.6</ele>
        <time>2025-09-08T09:22:44Z</time>
      </trkpt>
      <trkpt lat="48.0845" lon="7.18673">
        <ele>895.8</ele>
        <time>2025-09-08T09:22:45Z</time>
      </trkpt>
      <trkpt lat="48.08447" lon="7.1868">
        <ele>895</ele>
        <time>2025-09-08T09:22:46Z</time>
      </trkpt>
      <trkpt lat="48.08445" lon="7.18687">
        <ele>894.2</ele>
        <time>2025-09-08T09:22:47Z</time>
      </trkpt>
      <trkpt lat="48.08442" lon="7.18693">
        <ele>893</ele>
        <time>2025-09-08T09:22:48Z</time>
      </trkpt>
      <trkpt lat="48.0844" lon="7.18698">
        <ele>891.4</ele>
        <time>2025-09-08T09:22:49Z</time>
      </trkpt>
      <trkpt lat="48.08436" lon="7.18704">
        <ele>890</ele>
        <time>2025-09-08T09:22:50Z</time>
      </trkpt>
      <trkpt lat="48.08433" lon="7.1871">
        <ele>888.4</ele>
        <time>2025-09-08T09:22:51Z</time>
      </trkpt>
      <trkpt lat="48.08429" lon="7.18717">
        <ele>888</ele>
        <time>2025-09-08T09:22:52Z</time>
      </trkpt>
      <trkpt lat="48.08425" lon="7.18723">
        <ele>887.2</ele>
        <time>2025-09-08T09:22:53Z</time>
      </trkpt>
      <trkpt lat="48.08422" lon="7.18729">
        <ele>885.6</ele>
        <time>2025-09-08T09:22:54Z</time>
      </trkpt>
      <trkpt lat="48.08419" lon="7.18735">
        <ele>884.8</ele>
        <time>2025-09-08T09:22:55Z</time>
      </trkpt>
      <trkpt lat="48.08416" lon="7.18739">
        <ele>883</ele>
        <time>2025-09-08T09:22:56Z</time>
      </trkpt>
      <trkpt lat="48.08412" lon="7.18742">
        <ele>882.6</ele>
        <time>2025-09-08T09:22:57Z</time>
      </trkpt>
      <trkpt lat="48.08409" lon="7.18746">
        <ele>882</ele>
        <time>2025-09-08T09:22:58Z</time>
      </trkpt>
      <trkpt lat="48.08407" lon="7.18751">
        <ele>881.2</ele>
        <time>2025-09-08T09:22:59Z</time>
      </trkpt>
      <trkpt lat="48.08405" lon="7.18755">
        <ele>880</ele>
        <time>2025-09-08T09:23:00Z</time>
      </trkpt>
      <trkpt lat="48.08402" lon="7.18759">
        <ele>879</ele>
        <time>2025-09-08T09:23:01Z</time>
      </trkpt>
      <trkpt lat="48.084" lon="7.18764">
        <ele>878.4</ele>
        <time>2025-09-08T09:23:02Z</time>
      </trkpt>
      <trkpt lat="48.08398" lon="7.1877">
        <ele>877.6</ele>
        <time>2025-09-08T09:23:03Z</time>
      </trkpt>
      <trkpt lat="48.08397" lon="7.18776">
        <ele>877.2</ele>
        <time>2025-09-08T09:23:04Z</time>
      </trkpt>
      <trkpt lat="48.08396" lon="7.18781">
        <ele>876.6</ele>
        <time>2025-09-08T09:23:05Z</time>
      </trkpt>
      <trkpt lat="48.08396" lon="7.18787">
        <ele>876.2</ele>
        <time>2025-09-08T09:23:06Z</time>
      </trkpt>
      <trkpt lat="48.08395" lon="7.18795">
        <ele>875.4</ele>
        <time>2025-09-08T09:23:07Z</time>
      </trkpt>
      <trkpt lat="48.08395" lon="7.18803">
        <ele>874.8</ele>
        <time>2025-09-08T09:23:08Z</time>
      </trkpt>
      <trkpt lat="48.08394" lon="7.18811">
        <ele>874.4</ele>
        <time>2025-09-08T09:23:09Z</time>
      </trkpt>
      <trkpt lat="48.08393" lon="7.18819">
        <ele>874</ele>
        <time>2025-09-08T09:23:10Z</time>
      </trkpt>
      <trkpt lat="48.08392" lon="7.18826">
        <ele>873.8</ele>
        <time>2025-09-08T09:23:11Z</time>
      </trkpt>
      <trkpt lat="48.08391" lon="7.18834">
        <ele>873.6</ele>
        <time>2025-09-08T09:23:12Z</time>
      </trkpt>
      <trkpt lat="48.0839" lon="7.18842">
        <ele>873.2</ele>
        <time>2025-09-08T09:23:13Z</time>
      </trkpt>
      <trkpt lat="48.08389" lon="7.1885">
        <ele>873</ele>
        <time>2025-09-08T09:23:14Z</time>
      </trkpt>
      <trkpt lat="48.08389" lon="7.18858">
        <ele>872.8</ele>
        <time>2025-09-08T09:23:15Z</time>
      </trkpt>
      <trkpt lat="48.08389" lon="7.18867">
        <ele>872.8</ele>
        <time>2025-09-08T09:23:16Z</time>
      </trkpt>
      <trkpt lat="48.0839" lon="7.18877">
        <ele>872.6</ele>
        <time>2025-09-08T09:23:17Z</time>
      </trkpt>
      <trkpt lat="48.0839" lon="7.18887">
        <ele>872.2</ele>
        <time>2025-09-08T09:23:18Z</time>
      </trkpt>
      <trkpt lat="48.08389" lon="7.18898">
        <ele>871.8</ele>
        <time>2025-09-08T09:23:19Z</time>
      </trkpt>
      <trkpt lat="48.08386" lon="7.18907">
        <ele>871.2</ele>
        <time>2025-09-08T09:23:20Z</time>
      </trkpt>
      <trkpt lat="48.08382" lon="7.18913">
        <ele>870.8</ele>
        <time>2025-09-08T09:23:21Z</time>
      </trkpt>
      <trkpt lat="48.08378" lon="7.18918">
        <ele>870.8</ele>
        <time>2025-09-08T09:23:22Z</time>
      </trkpt>
      <trkpt lat="48.08375" lon="7.18921">
        <ele>870.4</ele>
        <time>2025-09-08T09:23:23Z</time>
      </trkpt>
      <trkpt lat="48.0837" lon="7.18925">
        <ele>870.4</ele>
        <time>2025-09-08T09:23:24Z</time>
      </trkpt>
      <trkpt lat="48.08365" lon="7.18928">
        <ele>870.2</ele>
        <time>2025-09-08T09:23:25Z</time>
      </trkpt>
      <trkpt lat="48.08359" lon="7.18931">
        <ele>870</ele>
        <time>2025-09-08T09:23:26Z</time>
      </trkpt>
      <trkpt lat="48.08353" lon="7.18934">
        <ele>869.4</ele>
        <time>2025-09-08T09:23:27Z</time>
      </trkpt>
      <trkpt lat="48.08347" lon="7.18939">
        <ele>868.8</ele>
        <time>2025-09-08T09:23:28Z</time>
      </trkpt>
      <trkpt lat="48.08342" lon="7.18942">
        <ele>868.4</ele>
        <time>2025-09-08T09:23:29Z</time>
      </trkpt>
      <trkpt lat="48.08337" lon="7.18946">
        <ele>867.8</ele>
        <time>2025-09-08T09:23:30Z</time>
      </trkpt>
      <trkpt lat="48.08334" lon="7.18948">
        <ele>867</ele>
        <time>2025-09-08T09:23:31Z</time>
      </trkpt>
      <trkpt lat="48.08329" lon="7.1895">
        <ele>866.6</ele>
        <time>2025-09-08T09:23:32Z</time>
      </trkpt>
      <trkpt lat="48.08325" lon="7.18954">
        <ele>865.8</ele>
        <time>2025-09-08T09:23:33Z</time>
      </trkpt>
      <trkpt lat="48.0832" lon="7.18957">
        <ele>865.2</ele>
        <time>2025-09-08T09:23:34Z</time>
      </trkpt>
      <trkpt lat="48.08315" lon="7.1896">
        <ele>864.6</ele>
        <time>2025-09-08T09:23:35Z</time>
      </trkpt>
      <trkpt lat="48.0831" lon="7.18964">
        <ele>864.2</ele>
        <time>2025-09-08T09:23:36Z</time>
      </trkpt>
      <trkpt lat="48.08305" lon="7.18968">
        <ele>863.4</ele>
        <time>2025-09-08T09:23:37Z</time>
      </trkpt>
      <trkpt lat="48.08299" lon="7.18972">
        <ele>862.8</ele>
        <time>2025-09-08T09:23:38Z</time>
      </trkpt>
      <trkpt lat="48.08294" lon="7.18975">
        <ele>862</ele>
        <time>2025-09-08T09:23:39Z</time>
      </trkpt>
      <trkpt lat="48.08289" lon="7.18979">
        <ele>861.4</ele>
        <time>2025-09-08T09:23:40Z</time>
      </trkpt>
      <trkpt lat="48.08284" lon="7.18984">
        <ele>861</ele>
        <time>2025-09-08T09:23:41Z</time>
      </trkpt>
      <trkpt lat="48.08279" lon="7.1899">
        <ele>860.6</ele>
        <time>2025-09-08T09:23:42Z</time>
      </trkpt>
      <trkpt lat="48.08275" lon="7.18998">
        <ele>860.4</ele>
        <time>2025-09-08T09:23:43Z</time>
      </trkpt>
      <trkpt lat="48.08271" lon="7.19003">
        <ele>860</ele>
        <time>2025-09-08T09:23:44Z</time>
      </trkpt>
      <trkpt lat="48.08268" lon="7.19009">
        <ele>859.6</ele>
        <time>2025-09-08T09:23:45Z</time>
      </trkpt>
      <trkpt lat="48.08265" lon="7.19014">
        <ele>859.6</ele>
        <time>2025-09-08T09:23:46Z</time>
      </trkpt>
      <trkpt lat="48.08263" lon="7.1902">
        <ele>859.6</ele>
        <time>2025-09-08T09:23:47Z</time>
      </trkpt>
      <trkpt lat="48.0826" lon="7.19023">
        <ele>859.6</ele>
        <time>2025-09-08T09:23:48Z</time>
      </trkpt>
      <trkpt lat="48.08257" lon="7.19026">
        <ele>859.8</ele>
        <time>2025-09-08T09:23:49Z</time>
      </trkpt>
      <trkpt lat="48.08255" lon="7.19031">
        <ele>859.8</ele>
        <time>2025-09-08T09:23:50Z</time>
      </trkpt>
      <trkpt lat="48.08253" lon="7.19036">
        <ele>860</ele>
        <time>2025-09-08T09:23:51Z</time>
      </trkpt>
      <trkpt lat="48.08251" lon="7.19042">
        <ele>860.2</ele>
        <time>2025-09-08T09:23:52Z</time>
      </trkpt>
      <trkpt lat="48.08249" lon="7.19047">
        <ele>860.2</ele>
        <time>2025-09-08T09:23:53Z</time>
      </trkpt>
      <trkpt lat="48.08248" lon="7.19054">
        <ele>860.4</ele>
        <time>2025-09-08T09:23:54Z</time>
      </trkpt>
      <trkpt lat="48.08246" lon="7.19059">
        <ele>860.4</ele>
        <time>2025-09-08T09:23:55Z</time>
      </trkpt>
      <trkpt lat="48.08243" lon="7.19065">
        <ele>860.4</ele>
        <time>2025-09-08T09:23:56Z</time>
      </trkpt>
      <trkpt lat="48.0824" lon="7.1907">
        <ele>860.6</ele>
        <time>2025-09-08T09:23:57Z</time>
      </trkpt>
      <trkpt lat="48.08238" lon="7.19076">
        <ele>860.8</ele>
        <time>2025-09-08T09:23:58Z</time>
      </trkpt>
      <trkpt lat="48.08237" lon="7.19083">
        <ele>860.8</ele>
        <time>2025-09-08T09:23:59Z</time>
      </trkpt>
      <trkpt lat="48.08236" lon="7.19088">
        <ele>861</ele>
        <time>2025-09-08T09:24:00Z</time>
      </trkpt>
      <trkpt lat="48.08235" lon="7.19096">
        <ele>861.2</ele>
        <time>2025-09-08T09:24:01Z</time>
      </trkpt>
      <trkpt lat="48.08234" lon="7.19103">
        <ele>861.2</ele>
        <time>2025-09-08T09:24:02Z</time>
      </trkpt>
      <trkpt lat="48.08233" lon="7.19111">
        <ele>861.2</ele>
        <time>2025-09-08T09:24:03Z</time>
      </trkpt>
      <trkpt lat="48.08232" lon="7.19118">
        <ele>861.2</ele>
        <time>2025-09-08T09:24:04Z</time>
      </trkpt>
      <trkpt lat="48.08232" lon="7.19124">
        <ele>861.4</ele>
        <time>2025-09-08T09:24:05Z</time>
      </trkpt>
      <trkpt lat="48.08231" lon="7.1913">
        <ele>861.4</ele>
        <time>2025-09-08T09:24:06Z</time>
      </trkpt>
      <trkpt lat="48.08231" lon="7.19136">
        <ele>861.4</ele>
        <time>2025-09-08T09:24:07Z</time>
      </trkpt>
      <trkpt lat="48.08231" lon="7.19143">
        <ele>861.6</ele>
        <time>2025-09-08T09:24:08Z</time>
      </trkpt>
      <trkpt lat="48.08231" lon="7.19149">
        <ele>861.6</ele>
        <time>2025-09-08T09:24:09Z</time>
      </trkpt>
      <trkpt lat="48.0823" lon="7.19156">
        <ele>861.8</ele>
        <time>2025-09-08T09:24:10Z</time>
      </trkpt>
      <trkpt lat="48.08229" lon="7.19163">
        <ele>861.8</ele>
        <time>2025-09-08T09:24:11Z</time>
      </trkpt>
      <trkpt lat="48.08228" lon="7.19171">
        <ele>861.8</ele>
        <time>2025-09-08T09:24:12Z</time>
      </trkpt>
      <trkpt lat="48.08226" lon="7.19178">
        <ele>861.8</ele>
        <time>2025-09-08T09:24:13Z</time>
      </trkpt>
      <trkpt lat="48.08226" lon="7.19186">
        <ele>861.8</ele>
        <time>2025-09-08T09:24:14Z</time>
      </trkpt>
      <trkpt lat="48.08225" lon="7.19194">
        <ele>861.8</ele>
        <time>2025-09-08T09:24:15Z</time>
      </trkpt>
      <trkpt lat="48.08224" lon="7.192">
        <ele>861.6</ele>
        <time>2025-09-08T09:24:16Z</time>
      </trkpt>
      <trkpt lat="48.08224" lon="7.19209">
        <ele>861.4</ele>
        <time>2025-09-08T09:24:17Z</time>
      </trkpt>
      <trkpt lat="48.08224" lon="7.19218">
        <ele>861.2</ele>
        <time>2025-09-08T09:24:18Z</time>
      </trkpt>
      <trkpt lat="48.08224" lon="7.19228">
        <ele>861</ele>
        <time>2025-09-08T09:24:19Z</time>
      </trkpt>
      <trkpt lat="48.08223" lon="7.19237">
        <ele>860.8</ele>
        <time>2025-09-08T09:24:20Z</time>
      </trkpt>
      <trkpt lat="48.08223" lon="7.19246">
        <ele>860.4</ele>
        <time>2025-09-08T09:24:21Z</time>
      </trkpt>
      <trkpt lat="48.08224" lon="7.19256">
        <ele>860.2</ele>
        <time>2025-09-08T09:24:22Z</time>
      </trkpt>
      <trkpt lat="48.08225" lon="7.19267">
        <ele>859.8</ele>
        <time>2025-09-08T09:24:23Z</time>
      </trkpt>
      <trkpt lat="48.08225" lon="7.19277">
        <ele>859.6</ele>
        <time>2025-09-08T09:24:24Z</time>
      </trkpt>
      <trkpt lat="48.08226" lon="7.19286">
        <ele>859.4</ele>
        <time>2025-09-08T09:24:25Z</time>
      </trkpt>
      <trkpt lat="48.08226" lon="7.19295">
        <ele>858.8</ele>
        <time>2025-09-08T09:24:26Z</time>
      </trkpt>
      <trkpt lat="48.08226" lon="7.19306">
        <ele>858.6</ele>
        <time>2025-09-08T09:24:27Z</time>
      </trkpt>
      <trkpt lat="48.08227" lon="7.19317">
        <ele>858.4</ele>
        <time>2025-09-08T09:24:28Z</time>
      </trkpt>
      <trkpt lat="48.08227" lon="7.19326">
        <ele>857.8</ele>
        <time>2025-09-08T09:24:29Z</time>
      </trkpt>
      <trkpt lat="48.08229" lon="7.19335">
        <ele>857.6</ele>
        <time>2025-09-08T09:24:30Z</time>
      </trkpt>
      <trkpt lat="48.08231" lon="7.19353">
        <ele>854.2</ele>
        <time>2025-09-08T09:25:09Z</time>
      </trkpt>
      <trkpt lat="48.0823" lon="7.19356">
        <ele>854.2</ele>
        <time>2025-09-08T09:25:10Z</time>
      </trkpt>
      <trkpt lat="48.08231" lon="7.19361">
        <ele>854.2</ele>
        <time>2025-09-08T09:25:11Z</time>
      </trkpt>
      <trkpt lat="48.0823" lon="7.19368">
        <ele>839.2</ele>
        <time>2025-09-08T09:25:12Z</time>
      </trkpt>
      <trkpt lat="48.0823" lon="7.19373">
        <ele>838.6</ele>
        <time>2025-09-08T09:25:13Z</time>
      </trkpt>
      <trkpt lat="48.08229" lon="7.19378">
        <ele>837.4</ele>
        <time>2025-09-08T09:25:14Z</time>
      </trkpt>
      <trkpt lat="48.08227" lon="7.19382">
        <ele>836.5</ele>
        <time>2025-09-08T09:25:15Z</time>
      </trkpt>
      <trkpt lat="48.08226" lon="7.19385">
        <ele>852.4</ele>
        <time>2025-09-08T09:25:16Z</time>
      </trkpt>
      <trkpt lat="48.08222" lon="7.19385">
        <ele>851.6</ele>
        <time>2025-09-08T09:25:17Z</time>
      </trkpt>
      <trkpt lat="48.0822" lon="7.19388">
        <ele>851</ele>
        <time>2025-09-08T09:25:18Z</time>
      </trkpt>
      <trkpt lat="48.0822" lon="7.19391">
        <ele>850.6</ele>
        <time>2025-09-08T09:25:19Z</time>
      </trkpt>
      <trkpt lat="48.0822" lon="7.19395">
        <ele>849.4</ele>
        <time>2025-09-08T09:25:20Z</time>
      </trkpt>
      <trkpt lat="48.0822" lon="7.19399">
        <ele>848.4</ele>
        <time>2025-09-08T09:25:21Z</time>
      </trkpt>
      <trkpt lat="48.0822" lon="7.19403">
        <ele>848</ele>
        <time>2025-09-08T09:25:22Z</time>
      </trkpt>
      <trkpt lat="48.0822" lon="7.19406">
        <ele>847.6</ele>
        <time>2025-09-08T09:25:23Z</time>
      </trkpt>
      <trkpt lat="48.0822" lon="7.19411">
        <ele>847</ele>
        <time>2025-09-08T09:25:24Z</time>
      </trkpt>
      <trkpt lat="48.08219" lon="7.19416">
        <ele>847</ele>
        <time>2025-09-08T09:25:25Z</time>
      </trkpt>
      <trkpt lat="48.08217" lon="7.19421">
        <ele>846.8</ele>
        <time>2025-09-08T09:25:26Z</time>
      </trkpt>
      <trkpt lat="48.08217" lon="7.19427">
        <ele>846.6</ele>
        <time>2025-09-08T09:25:27Z</time>
      </trkpt>
      <trkpt lat="48.08215" lon="7.19433">
        <ele>846.2</ele>
        <time>2025-09-08T09:25:28Z</time>
      </trkpt>
      <trkpt lat="48.08214" lon="7.19439">
        <ele>846</ele>
        <time>2025-09-08T09:25:29Z</time>
      </trkpt>
      <trkpt lat="48.08214" lon="7.19444">
        <ele>845.8</ele>
        <time>2025-09-08T09:25:30Z</time>
      </trkpt>
      <trkpt lat="48.08213" lon="7.1945">
        <ele>845.6</ele>
        <time>2025-09-08T09:25:31Z</time>
      </trkpt>
      <trkpt lat="48.08213" lon="7.19455">
        <ele>845.4</ele>
        <time>2025-09-08T09:25:32Z</time>
      </trkpt>
      <trkpt lat="48.08212" lon="7.19459">
        <ele>845.2</ele>
        <time>2025-09-08T09:25:33Z</time>
      </trkpt>
      <trkpt lat="48.08213" lon="7.19464">
        <ele>845.2</ele>
        <time>2025-09-08T09:25:34Z</time>
      </trkpt>
      <trkpt lat="48.08212" lon="7.19467">
        <ele>845</ele>
        <time>2025-09-08T09:25:35Z</time>
      </trkpt>
      <trkpt lat="48.08213" lon="7.1947">
        <ele>844.8</ele>
        <time>2025-09-08T09:25:36Z</time>
      </trkpt>
      <trkpt lat="48.08213" lon="7.19472">
        <ele>844.6</ele>
        <time>2025-09-08T09:25:37Z</time>
      </trkpt>
      <trkpt lat="48.08213" lon="7.19475">
        <ele>844.6</ele>
        <time>2025-09-08T09:25:38Z</time>
      </trkpt>
      <trkpt lat="48.08213" lon="7.19477">
        <ele>844.4</ele>
        <time>2025-09-08T09:25:39Z</time>
      </trkpt>
      <trkpt lat="48.08212" lon="7.19478">
        <ele>844.4</ele>
        <time>2025-09-08T09:25:40Z</time>
      </trkpt>
      <trkpt lat="48.08211" lon="7.1948">
        <ele>844.4</ele>
        <time>2025-09-08T09:25:41Z</time>
      </trkpt>
      <trkpt lat="48.0821" lon="7.19482">
        <ele>844.4</ele>
        <time>2025-09-08T09:25:42Z</time>
      </trkpt>
      <trkpt lat="48.08208" lon="7.19486">
        <ele>844.2</ele>
        <time>2025-09-08T09:25:43Z</time>
      </trkpt>
      <trkpt lat="48.08208" lon="7.19491">
        <ele>844.2</ele>
        <time>2025-09-08T09:25:44Z</time>
      </trkpt>
      <trkpt lat="48.08207" lon="7.19498">
        <ele>843.6</ele>
        <time>2025-09-08T09:25:45Z</time>
      </trkpt>
      <trkpt lat="48.08206" lon="7.19505">
        <ele>843.2</ele>
        <time>2025-09-08T09:25:46Z</time>
      </trkpt>
      <trkpt lat="48.08205" lon="7.19512">
        <ele>842</ele>
        <time>2025-09-08T09:25:47Z</time>
      </trkpt>
      <trkpt lat="48.08204" lon="7.19519">
        <ele>841</ele>
        <time>2025-09-08T09:25:48Z</time>
      </trkpt>
      <trkpt lat="48.08203" lon="7.19526">
        <ele>840.2</ele>
        <time>2025-09-08T09:25:49Z</time>
      </trkpt>
      <trkpt lat="48.08202" lon="7.19533">
        <ele>839</ele>
        <time>2025-09-08T09:25:50Z</time>
      </trkpt>
      <trkpt lat="48.08201" lon="7.19542">
        <ele>838.4</ele>
        <time>2025-09-08T09:25:51Z</time>
      </trkpt>
      <trkpt lat="48.08199" lon="7.19551">
        <ele>837.6</ele>
        <time>2025-09-08T09:25:52Z</time>
      </trkpt>
      <trkpt lat="48.08198" lon="7.19561">
        <ele>836.8</ele>
        <time>2025-09-08T09:25:53Z</time>
      </trkpt>
      <trkpt lat="48.08198" lon="7.19571">
        <ele>836.2</ele>
        <time>2025-09-08T09:25:54Z</time>
      </trkpt>
      <trkpt lat="48.08197" lon="7.19579">
        <ele>834.8</ele>
        <time>2025-09-08T09:25:55Z</time>
      </trkpt>
      <trkpt lat="48.08198" lon="7.19588">
        <ele>834.2</ele>
        <time>2025-09-08T09:25:56Z</time>
      </trkpt>
      <trkpt lat="48.082" lon="7.19595">
        <ele>833.6</ele>
        <time>2025-09-08T09:25:57Z</time>
      </trkpt>
      <trkpt lat="48.08203" lon="7.19603">
        <ele>833.2</ele>
        <time>2025-09-08T09:25:58Z</time>
      </trkpt>
      <trkpt lat="48.08206" lon="7.19609">
        <ele>832.2</ele>
        <time>2025-09-08T09:25:59Z</time>
      </trkpt>
      <trkpt lat="48.08209" lon="7.19616">
        <ele>831.4</ele>
        <time>2025-09-08T09:26:00Z</time>
      </trkpt>
      <trkpt lat="48.08212" lon="7.19623">
        <ele>830.8</ele>
        <time>2025-09-08T09:26:01Z</time>
      </trkpt>
      <trkpt lat="48.08216" lon="7.1963">
        <ele>830.2</ele>
        <time>2025-09-08T09:26:02Z</time>
      </trkpt>
      <trkpt lat="48.0822" lon="7.19639">
        <ele>829.4</ele>
        <time>2025-09-08T09:26:03Z</time>
      </trkpt>
      <trkpt lat="48.08224" lon="7.19645">
        <ele>828.6</ele>
        <time>2025-09-08T09:26:04Z</time>
      </trkpt>
      <trkpt lat="48.08227" lon="7.19651">
        <ele>827.4</ele>
        <time>2025-09-08T09:26:05Z</time>
      </trkpt>
      <trkpt lat="48.08229" lon="7.19658">
        <ele>825.8</ele>
        <time>2025-09-08T09:26:06Z</time>
      </trkpt>
      <trkpt lat="48.08231" lon="7.19663">
        <ele>825.4</ele>
        <time>2025-09-08T09:26:07Z</time>
      </trkpt>
      <trkpt lat="48.08234" lon="7.19671">
        <ele>825</ele>
        <time>2025-09-08T09:26:08Z</time>
      </trkpt>
      <trkpt lat="48.08236" lon="7.19678">
        <ele>824</ele>
        <time>2025-09-08T09:26:09Z</time>
      </trkpt>
      <trkpt lat="48.08237" lon="7.19685">
        <ele>823.4</ele>
        <time>2025-09-08T09:26:10Z</time>
      </trkpt>
      <trkpt lat="48.0824" lon="7.19693">
        <ele>822.2</ele>
        <time>2025-09-08T09:26:11Z</time>
      </trkpt>
      <trkpt lat="48.08243" lon="7.19701">
        <ele>821.8</ele>
        <time>2025-09-08T09:26:12Z</time>
      </trkpt>
      <trkpt lat="48.08246" lon="7.19709">
        <ele>821.2</ele>
        <time>2025-09-08T09:26:13Z</time>
      </trkpt>
      <trkpt lat="48.08246" lon="7.19717">
        <ele>820</ele>
        <time>2025-09-08T09:26:14Z</time>
      </trkpt>
      <trkpt lat="48.08247" lon="7.19725">
        <ele>818.8</ele>
        <time>2025-09-08T09:26:15Z</time>
      </trkpt>
      <trkpt lat="48.08249" lon="7.19733">
        <ele>817.8</ele>
        <time>2025-09-08T09:26:16Z</time>
      </trkpt>
      <trkpt lat="48.0825" lon="7.19742">
        <ele>817.2</ele>
        <time>2025-09-08T09:26:17Z</time>
      </trkpt>
      <trkpt lat="48.0825" lon="7.19751">
        <ele>816</ele>
        <time>2025-09-08T09:26:18Z</time>
      </trkpt>
      <trkpt lat="48.0825" lon="7.19761">
        <ele>815.2</ele>
        <time>2025-09-08T09:26:19Z</time>
      </trkpt>
      <trkpt lat="48.08249" lon="7.19769">
        <ele>814.2</ele>
        <time>2025-09-08T09:26:20Z</time>
      </trkpt>
      <trkpt lat="48.08249" lon="7.19776">
        <ele>813.6</ele>
        <time>2025-09-08T09:26:21Z</time>
      </trkpt>
      <trkpt lat="48.08246" lon="7.19784">
        <ele>812</ele>
        <time>2025-09-08T09:26:22Z</time>
      </trkpt>
      <trkpt lat="48.08246" lon="7.1979">
        <ele>811</ele>
        <time>2025-09-08T09:26:23Z</time>
      </trkpt>
      <trkpt lat="48.08247" lon="7.19795">
        <ele>810</ele>
        <time>2025-09-08T09:26:24Z</time>
      </trkpt>
      <trkpt lat="48.08249" lon="7.19797">
        <ele>808.4</ele>
        <time>2025-09-08T09:26:25Z</time>
      </trkpt>
      <trkpt lat="48.0825" lon="7.198">
        <ele>808.2</ele>
        <time>2025-09-08T09:26:26Z</time>
      </trkpt>
      <trkpt lat="48.08253" lon="7.19802">
        <ele>808</ele>
        <time>2025-09-08T09:26:27Z</time>
      </trkpt>
      <trkpt lat="48.08256" lon="7.19804">
        <ele>807.4</ele>
        <time>2025-09-08T09:26:28Z</time>
      </trkpt>
      <trkpt lat="48.08259" lon="7.19806">
        <ele>807.2</ele>
        <time>2025-09-08T09:26:29Z</time>
      </trkpt>
      <trkpt lat="48.08262" lon="7.19809">
        <ele>807</ele>
        <time>2025-09-08T09:26:30Z</time>
      </trkpt>
      <trkpt lat="48.08265" lon="7.19812">
        <ele>806.8</ele>
        <time>2025-09-08T09:26:31Z</time>
      </trkpt>
      <trkpt lat="48.08268" lon="7.19816">
        <ele>806.6</ele>
        <time>2025-09-08T09:26:32Z</time>
      </trkpt>
      <trkpt lat="48.08271" lon="7.19819">
        <ele>806.2</ele>
        <time>2025-09-08T09:26:33Z</time>
      </trkpt>
      <trkpt lat="48.08274" lon="7.19823">
        <ele>806.2</ele>
        <time>2025-09-08T09:26:34Z</time>
      </trkpt>
      <trkpt lat="48.08278" lon="7.19827">
        <ele>806.2</ele>
        <time>2025-09-08T09:26:35Z</time>
      </trkpt>
      <trkpt lat="48.08281" lon="7.1983">
        <ele>806</ele>
        <time>2025-09-08T09:26:36Z</time>
      </trkpt>
      <trkpt lat="48.08284" lon="7.19834">
        <ele>805.8</ele>
        <time>2025-09-08T09:26:37Z</time>
      </trkpt>
      <trkpt lat="48.08286" lon="7.19837">
        <ele>805.8</ele>
        <time>2025-09-08T09:26:38Z</time>
      </trkpt>
      <trkpt lat="48.0829" lon="7.1984">
        <ele>805.6</ele>
        <time>2025-09-08T09:26:39Z</time>
      </trkpt>
      <trkpt lat="48.08294" lon="7.19843">
        <ele>805.6</ele>
        <time>2025-09-08T09:26:40Z</time>
      </trkpt>
      <trkpt lat="48.08298" lon="7.19846">
        <ele>805.6</ele>
        <time>2025-09-08T09:26:41Z</time>
      </trkpt>
      <trkpt lat="48.08301" lon="7.19849">
        <ele>805.4</ele>
        <time>2025-09-08T09:26:42Z</time>
      </trkpt>
      <trkpt lat="48.08304" lon="7.19851">
        <ele>805.2</ele>
        <time>2025-09-08T09:26:43Z</time>
      </trkpt>
      <trkpt lat="48.08308" lon="7.19853">
        <ele>804.8</ele>
        <time>2025-09-08T09:26:44Z</time>
      </trkpt>
      <trkpt lat="48.08311" lon="7.19853">
        <ele>804.4</ele>
        <time>2025-09-08T09:26:45Z</time>
      </trkpt>
      <trkpt lat="48.08316" lon="7.19852">
        <ele>804.2</ele>
        <time>2025-09-08T09:26:46Z</time>
      </trkpt>
      <trkpt lat="48.0832" lon="7.19849">
        <ele>804.2</ele>
        <time>2025-09-08T09:26:47Z</time>
      </trkpt>
      <trkpt lat="48.08324" lon="7.19846">
        <ele>804</ele>
        <time>2025-09-08T09:26:48Z</time>
      </trkpt>
      <trkpt lat="48.08328" lon="7.19842">
        <ele>803.8</ele>
        <time>2025-09-08T09:26:49Z</time>
      </trkpt>
      <trkpt lat="48.08332" lon="7.19836">
        <ele>803.4</ele>
        <time>2025-09-08T09:26:50Z</time>
      </trkpt>
      <trkpt lat="48.08335" lon="7.1983">
        <ele>803</ele>
        <time>2025-09-08T09:26:51Z</time>
      </trkpt>
      <trkpt lat="48.0834" lon="7.19825">
        <ele>802.8</ele>
        <time>2025-09-08T09:26:52Z</time>
      </trkpt>
      <trkpt lat="48.08345" lon="7.19819">
        <ele>802.6</ele>
        <time>2025-09-08T09:26:53Z</time>
      </trkpt>
      <trkpt lat="48.0835" lon="7.19814">
        <ele>802.2</ele>
        <time>2025-09-08T09:26:54Z</time>
      </trkpt>
      <trkpt lat="48.08356" lon="7.1981">
        <ele>801.6</ele>
        <time>2025-09-08T09:26:55Z</time>
      </trkpt>
      <trkpt lat="48.08362" lon="7.19805">
        <ele>801.2</ele>
        <time>2025-09-08T09:26:56Z</time>
      </trkpt>
      <trkpt lat="48.08368" lon="7.19803">
        <ele>801</ele>
        <time>2025-09-08T09:26:57Z</time>
      </trkpt>
      <trkpt lat="48.08375" lon="7.19801">
        <ele>800.2</ele>
        <time>2025-09-08T09:26:58Z</time>
      </trkpt>
      <trkpt lat="48.08382" lon="7.198">
        <ele>799.8</ele>
        <time>2025-09-08T09:26:59Z</time>
      </trkpt>
      <trkpt lat="48.08388" lon="7.198">
        <ele>799.2</ele>
        <time>2025-09-08T09:27:00Z</time>
      </trkpt>
      <trkpt lat="48.08395" lon="7.19801">
        <ele>798.6</ele>
        <time>2025-09-08T09:27:01Z</time>
      </trkpt>
      <trkpt lat="48.08402" lon="7.19805">
        <ele>798.2</ele>
        <time>2025-09-08T09:27:02Z</time>
      </trkpt>
      <trkpt lat="48.0841" lon="7.19808">
        <ele>797.8</ele>
        <time>2025-09-08T09:27:03Z</time>
      </trkpt>
      <trkpt lat="48.08417" lon="7.19809">
        <ele>797</ele>
        <time>2025-09-08T09:27:04Z</time>
      </trkpt>
      <trkpt lat="48.08424" lon="7.19809">
        <ele>796.4</ele>
        <time>2025-09-08T09:27:05Z</time>
      </trkpt>
      <trkpt lat="48.08431" lon="7.19806">
        <ele>796</ele>
        <time>2025-09-08T09:27:06Z</time>
      </trkpt>
      <trkpt lat="48.08438" lon="7.19804">
        <ele>795.4</ele>
        <time>2025-09-08T09:27:07Z</time>
      </trkpt>
      <trkpt lat="48.08444" lon="7.19803">
        <ele>794.4</ele>
        <time>2025-09-08T09:27:08Z</time>
      </trkpt>
      <trkpt lat="48.08452" lon="7.19803">
        <ele>794</ele>
        <time>2025-09-08T09:27:09Z</time>
      </trkpt>
      <trkpt lat="48.08459" lon="7.19804">
        <ele>793</ele>
        <time>2025-09-08T09:27:10Z</time>
      </trkpt>
      <trkpt lat="48.08467" lon="7.19807">
        <ele>792.4</ele>
        <time>2025-09-08T09:27:11Z</time>
      </trkpt>
      <trkpt lat="48.08474" lon="7.1981">
        <ele>792</ele>
        <time>2025-09-08T09:27:12Z</time>
      </trkpt>
      <trkpt lat="48.08481" lon="7.19813">
        <ele>791.6</ele>
        <time>2025-09-08T09:27:13Z</time>
      </trkpt>
      <trkpt lat="48.08488" lon="7.19818">
        <ele>790.6</ele>
        <time>2025-09-08T09:27:14Z</time>
      </trkpt>
      <trkpt lat="48.08495" lon="7.19823">
        <ele>789.6</ele>
        <time>2025-09-08T09:27:15Z</time>
      </trkpt>
      <trkpt lat="48.08502" lon="7.19827">
        <ele>789.4</ele>
        <time>2025-09-08T09:27:16Z</time>
      </trkpt>
      <trkpt lat="48.0851" lon="7.1983">
        <ele>788.6</ele>
        <time>2025-09-08T09:27:17Z</time>
      </trkpt>
      <trkpt lat="48.08517" lon="7.19832">
        <ele>788</ele>
        <time>2025-09-08T09:27:18Z</time>
      </trkpt>
      <trkpt lat="48.08525" lon="7.19834">
        <ele>787.6</ele>
        <time>2025-09-08T09:27:19Z</time>
      </trkpt>
      <trkpt lat="48.08532" lon="7.19835">
        <ele>786.6</ele>
        <time>2025-09-08T09:27:20Z</time>
      </trkpt>
      <trkpt lat="48.0854" lon="7.19833">
        <ele>786</ele>
        <time>2025-09-08T09:27:21Z</time>
      </trkpt>
      <trkpt lat="48.08548" lon="7.19832">
        <ele>785.2</ele>
        <time>2025-09-08T09:27:22Z</time>
      </trkpt>
      <trkpt lat="48.08556" lon="7.19832">
        <ele>784.4</ele>
        <time>2025-09-08T09:27:23Z</time>
      </trkpt>
      <trkpt lat="48.08565" lon="7.19831">
        <ele>784</ele>
        <time>2025-09-08T09:27:24Z</time>
      </trkpt>
      <trkpt lat="48.08574" lon="7.19829">
        <ele>783.2</ele>
        <time>2025-09-08T09:27:25Z</time>
      </trkpt>
      <trkpt lat="48.08584" lon="7.19827">
        <ele>782.4</ele>
        <time>2025-09-08T09:27:26Z</time>
      </trkpt>
      <trkpt lat="48.08593" lon="7.19825">
        <ele>781.4</ele>
        <time>2025-09-08T09:27:27Z</time>
      </trkpt>
      <trkpt lat="48.08603" lon="7.19822">
        <ele>780.2</ele>
        <time>2025-09-08T09:27:28Z</time>
      </trkpt>
      <trkpt lat="48.08613" lon="7.19821">
        <ele>779.8</ele>
        <time>2025-09-08T09:27:29Z</time>
      </trkpt>
      <trkpt lat="48.08623" lon="7.19821">
        <ele>778.8</ele>
        <time>2025-09-08T09:27:30Z</time>
      </trkpt>
      <trkpt lat="48.08633" lon="7.1982">
        <ele>777.8</ele>
        <time>2025-09-08T09:27:31Z</time>
      </trkpt>
      <trkpt lat="48.08643" lon="7.1982">
        <ele>777</ele>
        <time>2025-09-08T09:27:32Z</time>
      </trkpt>
      <trkpt lat="48.08652" lon="7.19821">
        <ele>775.8</ele>
        <time>2025-09-08T09:27:33Z</time>
      </trkpt>
      <trkpt lat="48.08662" lon="7.19823">
        <ele>774.8</ele>
        <time>2025-09-08T09:27:34Z</time>
      </trkpt>
      <trkpt lat="48.08672" lon="7.19824">
        <ele>774</ele>
        <time>2025-09-08T09:27:35Z</time>
      </trkpt>
      <trkpt lat="48.08681" lon="7.19826">
        <ele>773.4</ele>
        <time>2025-09-08T09:27:36Z</time>
      </trkpt>
      <trkpt lat="48.08691" lon="7.19829">
        <ele>772.6</ele>
        <time>2025-09-08T09:27:37Z</time>
      </trkpt>
      <trkpt lat="48.08701" lon="7.19832">
        <ele>771.2</ele>
        <time>2025-09-08T09:27:38Z</time>
      </trkpt>
      <trkpt lat="48.0871" lon="7.19839">
        <ele>770.4</ele>
        <time>2025-09-08T09:27:39Z</time>
      </trkpt>
      <trkpt lat="48.08718" lon="7.19847">
        <ele>770</ele>
        <time>2025-09-08T09:27:40Z</time>
      </trkpt>
      <trkpt lat="48.08726" lon="7.19857">
        <ele>768.6</ele>
        <time>2025-09-08T09:27:41Z</time>
      </trkpt>
      <trkpt lat="48.08733" lon="7.19867">
        <ele>767.6</ele>
        <time>2025-09-08T09:27:42Z</time>
      </trkpt>
      <trkpt lat="48.0874" lon="7.19879">
        <ele>767.2</ele>
        <time>2025-09-08T09:27:43Z</time>
      </trkpt>
      <trkpt lat="48.08746" lon="7.19889">
        <ele>766.4</ele>
        <time>2025-09-08T09:27:44Z</time>
      </trkpt>
      <trkpt lat="48.08751" lon="7.19899">
        <ele>764.8</ele>
        <time>2025-09-08T09:27:45Z</time>
      </trkpt>
      <trkpt lat="48.08756" lon="7.19907">
        <ele>764</ele>
        <time>2025-09-08T09:27:46Z</time>
      </trkpt>
      <trkpt lat="48.08759" lon="7.19916">
        <ele>763.2</ele>
        <time>2025-09-08T09:27:47Z</time>
      </trkpt>
      <trkpt lat="48.08762" lon="7.19922">
        <ele>763</ele>
        <time>2025-09-08T09:27:48Z</time>
      </trkpt>
      <trkpt lat="48.08766" lon="7.19927">
        <ele>762</ele>
        <time>2025-09-08T09:27:49Z</time>
      </trkpt>
      <trkpt lat="48.08768" lon="7.19927">
        <ele>757.4</ele>
        <time>2025-09-08T09:29:38Z</time>
      </trkpt>
      <trkpt lat="48.0877" lon="7.19924">
        <ele>757.4</ele>
        <time>2025-09-08T09:29:39Z</time>
      </trkpt>
      <trkpt lat="48.08772" lon="7.19923">
        <ele>757.4</ele>
        <time>2025-09-08T09:29:40Z</time>
      </trkpt>
      <trkpt lat="48.08774" lon="7.19923">
        <ele>757.6</ele>
        <time>2025-09-08T09:29:41Z</time>
      </trkpt>
      <trkpt lat="48.08777" lon="7.19922">
        <ele>757.6</ele>
        <time>2025-09-08T09:29:42Z</time>
      </trkpt>
      <trkpt lat="48.08779" lon="7.19919">
        <ele>757.8</ele>
        <time>2025-09-08T09:29:43Z</time>
      </trkpt>
      <trkpt lat="48.08781" lon="7.19915">
        <ele>757.8</ele>
        <time>2025-09-08T09:29:44Z</time>
      </trkpt>
      <trkpt lat="48.08784" lon="7.19911">
        <ele>757.8</ele>
        <time>2025-09-08T09:29:45Z</time>
      </trkpt>
      <trkpt lat="48.08787" lon="7.19906">
        <ele>757.8</ele>
        <time>2025-09-08T09:29:46Z</time>
      </trkpt>
      <trkpt lat="48.0879" lon="7.19901">
        <ele>757.8</ele>
        <time>2025-09-08T09:29:47Z</time>
      </trkpt>
      <trkpt lat="48.08793" lon="7.19897">
        <ele>757.8</ele>
        <time>2025-09-08T09:29:48Z</time>
      </trkpt>
      <trkpt lat="48.08796" lon="7.19893">
        <ele>757.6</ele>
        <time>2025-09-08T09:29:49Z</time>
      </trkpt>
      <trkpt lat="48.08799" lon="7.19888">
        <ele>757.6</ele>
        <time>2025-09-08T09:29:50Z</time>
      </trkpt>
      <trkpt lat="48.08803" lon="7.19884">
        <ele>757.6</ele>
        <time>2025-09-08T09:29:51Z</time>
      </trkpt>
      <trkpt lat="48.08806" lon="7.1988">
        <ele>757.6</ele>
        <time>2025-09-08T09:29:52Z</time>
      </trkpt>
      <trkpt lat="48.08809" lon="7.19877">
        <ele>757.4</ele>
        <time>2025-09-08T09:29:53Z</time>
      </trkpt>
      <trkpt lat="48.08811" lon="7.19872">
        <ele>757.4</ele>
        <time>2025-09-08T09:29:54Z</time>
      </trkpt>
      <trkpt lat="48.08814" lon="7.19868">
        <ele>757.4</ele>
        <time>2025-09-08T09:29:55Z</time>
      </trkpt>
      <trkpt lat="48.08816" lon="7.19864">
        <ele>757.4</ele>
        <time>2025-09-08T09:29:56Z</time>
      </trkpt>
      <trkpt lat="48.08818" lon="7.1986">
        <ele>757.4</ele>
        <time>2025-09-08T09:29:57Z</time>
      </trkpt>
      <trkpt lat="48.0882" lon="7.19855">
        <ele>757.4</ele>
        <time>2025-09-08T09:29:58Z</time>
      </trkpt>
      <trkpt lat="48.08823" lon="7.1985">
        <ele>757.4</ele>
        <time>2025-09-08T09:29:59Z</time>
      </trkpt>
      <trkpt lat="48.08825" lon="7.19845">
        <ele>757.6</ele>
        <time>2025-09-08T09:30:00Z</time>
      </trkpt>
      <trkpt lat="48.08828" lon="7.19841">
        <ele>757.6</ele>
        <time>2025-09-08T09:30:01Z</time>
      </trkpt>
      <trkpt lat="48.08831" lon="7.19836">
        <ele>757.6</ele>
        <time>2025-09-08T09:30:02Z</time>
      </trkpt>
      <trkpt lat="48.08833" lon="7.19831">
        <ele>757.6</ele>
        <time>2025-09-08T09:30:03Z</time>
      </trkpt>
      <trkpt lat="48.08836" lon="7.19825">
        <ele>757.8</ele>
        <time>2025-09-08T09:30:04Z</time>
      </trkpt>
      <trkpt lat="48.0884" lon="7.1982">
        <ele>757.8</ele>
        <time>2025-09-08T09:30:05Z</time>
      </trkpt>
      <trkpt lat="48.08844" lon="7.19816">
        <ele>757.8</ele>
        <time>2025-09-08T09:30:06Z</time>
      </trkpt>
      <trkpt lat="48.08848" lon="7.19812">
        <ele>757.8</ele>
        <time>2025-09-08T09:30:07Z</time>
      </trkpt>
      <trkpt lat="48.08851" lon="7.19809">
        <ele>758</ele>
        <time>2025-09-08T09:30:08Z</time>
      </trkpt>
      <trkpt lat="48.08855" lon="7.19803">
        <ele>758</ele>
        <time>2025-09-08T09:30:09Z</time>
      </trkpt>
      <trkpt lat="48.08859" lon="7.19799">
        <ele>758</ele>
        <time>2025-09-08T09:30:10Z</time>
      </trkpt>
      <trkpt lat="48.08863" lon="7.19794">
        <ele>758</ele>
        <time>2025-09-08T09:30:11Z</time>
      </trkpt>
      <trkpt lat="48.08867" lon="7.19789">
        <ele>758</ele>
        <time>2025-09-08T09:30:12Z</time>
      </trkpt>
      <trkpt lat="48.08871" lon="7.19785">
        <ele>758</ele>
        <time>2025-09-08T09:30:13Z</time>
      </trkpt>
      <trkpt lat="48.08875" lon="7.1978">
        <ele>758.2</ele>
        <time>2025-09-08T09:30:14Z</time>
      </trkpt>
      <trkpt lat="48.08879" lon="7.19775">
        <ele>758.2</ele>
        <time>2025-09-08T09:30:15Z</time>
      </trkpt>
      <trkpt lat="48.08883" lon="7.19769">
        <ele>758.2</ele>
        <time>2025-09-08T09:30:16Z</time>
      </trkpt>
      <trkpt lat="48.08886" lon="7.19763">
        <ele>758.2</ele>
        <time>2025-09-08T09:30:17Z</time>
      </trkpt>
      <trkpt lat="48.08888" lon="7.19757">
        <ele>758.4</ele>
        <time>2025-09-08T09:30:18Z</time>
      </trkpt>
      <trkpt lat="48.08891" lon="7.19751">
        <ele>758.4</ele>
        <time>2025-09-08T09:30:19Z</time>
      </trkpt>
      <trkpt lat="48.08893" lon="7.19745">
        <ele>758.6</ele>
        <time>2025-09-08T09:30:20Z</time>
      </trkpt>
      <trkpt lat="48.08896" lon="7.19739">
        <ele>758.8</ele>
        <time>2025-09-08T09:30:21Z</time>
      </trkpt>
      <trkpt lat="48.08898" lon="7.19731">
        <ele>758.8</ele>
        <time>2025-09-08T09:30:22Z</time>
      </trkpt>
      <trkpt lat="48.08899" lon="7.19724">
        <ele>759</ele>
        <time>2025-09-08T09:30:23Z</time>
      </trkpt>
      <trkpt lat="48.08901" lon="7.19717">
        <ele>759.2</ele>
        <time>2025-09-08T09:30:24Z</time>
      </trkpt>
      <trkpt lat="48.08903" lon="7.19711">
        <ele>759.2</ele>
        <time>2025-09-08T09:30:25Z</time>
      </trkpt>
      <trkpt lat="48.08905" lon="7.19704">
        <ele>759.2</ele>
        <time>2025-09-08T09:30:26Z</time>
      </trkpt>
      <trkpt lat="48.08906" lon="7.19697">
        <ele>759.2</ele>
        <time>2025-09-08T09:30:27Z</time>
      </trkpt>
      <trkpt lat="48.08908" lon="7.1969">
        <ele>759.4</ele>
        <time>2025-09-08T09:30:28Z</time>
      </trkpt>
      <trkpt lat="48.08909" lon="7.19682">
        <ele>759.4</ele>
        <time>2025-09-08T09:30:29Z</time>
      </trkpt>
      <trkpt lat="48.08911" lon="7.19674">
        <ele>759.4</ele>
        <time>2025-09-08T09:30:30Z</time>
      </trkpt>
      <trkpt lat="48.08912" lon="7.19667">
        <ele>759.6</ele>
        <time>2025-09-08T09:30:31Z</time>
      </trkpt>
      <trkpt lat="48.08913" lon="7.1966">
        <ele>759.6</ele>
        <time>2025-09-08T09:30:32Z</time>
      </trkpt>
      <trkpt lat="48.08915" lon="7.19653">
        <ele>759.6</ele>
        <time>2025-09-08T09:30:33Z</time>
      </trkpt>
      <trkpt lat="48.08915" lon="7.19646">
        <ele>759.8</ele>
        <time>2025-09-08T09:30:34Z</time>
      </trkpt>
      <trkpt lat="48.08914" lon="7.1964">
        <ele>760</ele>
        <time>2025-09-08T09:30:35Z</time>
      </trkpt>
      <trkpt lat="48.08915" lon="7.19633">
        <ele>760</ele>
        <time>2025-09-08T09:30:36Z</time>
      </trkpt>
      <trkpt lat="48.08918" lon="7.19627">
        <ele>760.2</ele>
        <time>2025-09-08T09:30:37Z</time>
      </trkpt>
      <trkpt lat="48.08921" lon="7.19625">
        <ele>760.2</ele>
        <time>2025-09-08T09:30:38Z</time>
      </trkpt>
      <trkpt lat="48.08925" lon="7.19623">
        <ele>760.4</ele>
        <time>2025-09-08T09:30:39Z</time>
      </trkpt>
      <trkpt lat="48.08928" lon="7.1962">
        <ele>760.6</ele>
        <time>2025-09-08T09:30:40Z</time>
      </trkpt>
      <trkpt lat="48.08933" lon="7.19617">
        <ele>760.6</ele>
        <time>2025-09-08T09:30:41Z</time>
      </trkpt>
      <trkpt lat="48.08935" lon="7.19613">
        <ele>760.6</ele>
        <time>2025-09-08T09:30:42Z</time>
      </trkpt>
      <trkpt lat="48.08937" lon="7.1961">
        <ele>760.8</ele>
        <time>2025-09-08T09:30:43Z</time>
      </trkpt>
      <trkpt lat="48.08939" lon="7.19606">
        <ele>761</ele>
        <time>2025-09-08T09:30:44Z</time>
      </trkpt>
      <trkpt lat="48.0894" lon="7.19602">
        <ele>761</ele>
        <time>2025-09-08T09:30:45Z</time>
      </trkpt>
      <trkpt lat="48.08942" lon="7.19598">
        <ele>761.2</ele>
        <time>2025-09-08T09:30:46Z</time>
      </trkpt>
      <trkpt lat="48.08943" lon="7.19594">
        <ele>761.2</ele>
        <time>2025-09-08T09:30:47Z</time>
      </trkpt>
      <trkpt lat="48.08946" lon="7.19592">
        <ele>761.2</ele>
        <time>2025-09-08T09:30:48Z</time>
      </trkpt>
      <trkpt lat="48.08948" lon="7.19591">
        <ele>761.2</ele>
        <time>2025-09-08T09:30:49Z</time>
      </trkpt>
      <trkpt lat="48.0895" lon="7.19592">
        <ele>761.4</ele>
        <time>2025-09-08T09:30:50Z</time>
      </trkpt>
      <trkpt lat="48.08951" lon="7.19594">
        <ele>761.4</ele>
        <time>2025-09-08T09:30:51Z</time>
      </trkpt>
      <trkpt lat="48.08952" lon="7.19597">
        <ele>761.4</ele>
        <time>2025-09-08T09:30:52Z</time>
      </trkpt>
      <trkpt lat="48.08954" lon="7.19601">
        <ele>761.6</ele>
        <time>2025-09-08T09:30:53Z</time>
      </trkpt>
      <trkpt lat="48.08956" lon="7.19606">
        <ele>761.6</ele>
        <time>2025-09-08T09:30:54Z</time>
      </trkpt>
      <trkpt lat="48.08958" lon="7.19611">
        <ele>761.6</ele>
        <time>2025-09-08T09:30:55Z</time>
      </trkpt>
      <trkpt lat="48.0896" lon="7.19617">
        <ele>761.8</ele>
        <time>2025-09-08T09:30:56Z</time>
      </trkpt>
      <trkpt lat="48.08962" lon="7.19623">
        <ele>761.8</ele>
        <time>2025-09-08T09:30:57Z</time>
      </trkpt>
      <trkpt lat="48.08963" lon="7.19629">
        <ele>761.8</ele>
        <time>2025-09-08T09:30:58Z</time>
      </trkpt>
      <trkpt lat="48.08965" lon="7.19634">
        <ele>761.8</ele>
        <time>2025-09-08T09:30:59Z</time>
      </trkpt>
      <trkpt lat="48.08967" lon="7.1964">
        <ele>761.8</ele>
        <time>2025-09-08T09:31:00Z</time>
      </trkpt>
      <trkpt lat="48.08968" lon="7.19646">
        <ele>762</ele>
        <time>2025-09-08T09:31:01Z</time>
      </trkpt>
      <trkpt lat="48.08971" lon="7.19652">
        <ele>762</ele>
        <time>2025-09-08T09:31:02Z</time>
      </trkpt>
      <trkpt lat="48.08972" lon="7.19658">
        <ele>762.2</ele>
        <time>2025-09-08T09:31:03Z</time>
      </trkpt>
      <trkpt lat="48.08974" lon="7.19663">
        <ele>762.2</ele>
        <time>2025-09-08T09:31:04Z</time>
      </trkpt>
      <trkpt lat="48.08976" lon="7.19668">
        <ele>762.4</ele>
        <time>2025-09-08T09:31:05Z</time>
      </trkpt>
      <trkpt lat="48.08978" lon="7.19674">
        <ele>762.6</ele>
        <time>2025-09-08T09:31:06Z</time>
      </trkpt>
      <trkpt lat="48.0898" lon="7.19679">
        <ele>762.8</ele>
        <time>2025-09-08T09:31:07Z</time>
      </trkpt>
      <trkpt lat="48.08983" lon="7.19685">
        <ele>763</ele>
        <time>2025-09-08T09:31:08Z</time>
      </trkpt>
      <trkpt lat="48.08985" lon="7.1969">
        <ele>763</ele>
        <time>2025-09-08T09:31:09Z</time>
      </trkpt>
      <trkpt lat="48.08987" lon="7.19696">
        <ele>763.2</ele>
        <time>2025-09-08T09:31:10Z</time>
      </trkpt>
      <trkpt lat="48.08989" lon="7.19702">
        <ele>763.4</ele>
        <time>2025-09-08T09:31:11Z</time>
      </trkpt>
      <trkpt lat="48.0899" lon="7.19708">
        <ele>763.6</ele>
        <time>2025-09-08T09:31:12Z</time>
      </trkpt>
      <trkpt lat="48.08991" lon="7.19713">
        <ele>763.6</ele>
        <time>2025-09-08T09:31:13Z</time>
      </trkpt>
      <trkpt lat="48.08992" lon="7.19717">
        <ele>763.8</ele>
        <time>2025-09-08T09:31:14Z</time>
      </trkpt>
      <trkpt lat="48.08993" lon="7.19722">
        <ele>763.8</ele>
        <time>2025-09-08T09:31:15Z</time>
      </trkpt>
      <trkpt lat="48.08995" lon="7.19727">
        <ele>764</ele>
        <time>2025-09-08T09:31:16Z</time>
      </trkpt>
      <trkpt lat="48.08997" lon="7.19733">
        <ele>764</ele>
        <time>2025-09-08T09:31:17Z</time>
      </trkpt>
      <trkpt lat="48.08998" lon="7.1974">
        <ele>764.2</ele>
        <time>2025-09-08T09:31:18Z</time>
      </trkpt>
      <trkpt lat="48.08999" lon="7.19745">
        <ele>764.2</ele>
        <time>2025-09-08T09:31:19Z</time>
      </trkpt>
      <trkpt lat="48.09001" lon="7.19751">
        <ele>764.2</ele>
        <time>2025-09-08T09:31:20Z</time>
      </trkpt>
      <trkpt lat="48.09001" lon="7.19757">
        <ele>764.4</ele>
        <time>2025-09-08T09:31:21Z</time>
      </trkpt>
      <trkpt lat="48.09002" lon="7.19762">
        <ele>764.4</ele>
        <time>2025-09-08T09:31:22Z</time>
      </trkpt>
      <trkpt lat="48.09003" lon="7.19767">
        <ele>764.4</ele>
        <time>2025-09-08T09:31:23Z</time>
      </trkpt>
      <trkpt lat="48.09004" lon="7.19771">
        <ele>764.6</ele>
        <time>2025-09-08T09:31:24Z</time>
      </trkpt>
      <trkpt lat="48.09005" lon="7.19777">
        <ele>764.6</ele>
        <time>2025-09-08T09:31:25Z</time>
      </trkpt>
      <trkpt lat="48.09006" lon="7.19782">
        <ele>764.8</ele>
        <time>2025-09-08T09:31:26Z</time>
      </trkpt>
      <trkpt lat="48.09007" lon="7.19787">
        <ele>765.2</ele>
        <time>2025-09-08T09:31:27Z</time>
      </trkpt>
      <trkpt lat="48.09008" lon="7.19792">
        <ele>765.2</ele>
        <time>2025-09-08T09:31:28Z</time>
      </trkpt>
      <trkpt lat="48.09009" lon="7.19797">
        <ele>765.4</ele>
        <time>2025-09-08T09:31:29Z</time>
      </trkpt>
      <trkpt lat="48.0901" lon="7.19802">
        <ele>765.4</ele>
        <time>2025-09-08T09:31:30Z</time>
      </trkpt>
      <trkpt lat="48.09011" lon="7.19807">
        <ele>765.6</ele>
        <time>2025-09-08T09:31:31Z</time>
      </trkpt>
      <trkpt lat="48.09011" lon="7.19813">
        <ele>765.6</ele>
        <time>2025-09-08T09:31:32Z</time>
      </trkpt>
      <trkpt lat="48.09012" lon="7.19819">
        <ele>765.6</ele>
        <time>2025-09-08T09:31:33Z</time>
      </trkpt>
      <trkpt lat="48.09012" lon="7.19825">
        <ele>765.8</ele>
        <time>2025-09-08T09:31:34Z</time>
      </trkpt>
      <trkpt lat="48.09013" lon="7.19831">
        <ele>765.8</ele>
        <time>2025-09-08T09:31:35Z</time>
      </trkpt>
      <trkpt lat="48.09014" lon="7.19837">
        <ele>765.8</ele>
        <time>2025-09-08T09:31:36Z</time>
      </trkpt>
      <trkpt lat="48.09015" lon="7.19842">
        <ele>766</ele>
        <time>2025-09-08T09:31:37Z</time>
      </trkpt>
      <trkpt lat="48.09016" lon="7.19848">
        <ele>766.2</ele>
        <time>2025-09-08T09:31:38Z</time>
      </trkpt>
      <trkpt lat="48.09017" lon="7.19853">
        <ele>766.6</ele>
        <time>2025-09-08T09:31:39Z</time>
      </trkpt>
      <trkpt lat="48.09019" lon="7.19858">
        <ele>766.6</ele>
        <time>2025-09-08T09:31:40Z</time>
      </trkpt>
      <trkpt lat="48.0902" lon="7.19863">
        <ele>766.8</ele>
        <time>2025-09-08T09:31:41Z</time>
      </trkpt>
      <trkpt lat="48.09022" lon="7.19868">
        <ele>766.8</ele>
        <time>2025-09-08T09:31:42Z</time>
      </trkpt>
      <trkpt lat="48.09025" lon="7.19873">
        <ele>767</ele>
        <time>2025-09-08T09:31:43Z</time>
      </trkpt>
      <trkpt lat="48.09028" lon="7.19876">
        <ele>767</ele>
        <time>2025-09-08T09:31:44Z</time>
      </trkpt>
      <trkpt lat="48.09032" lon="7.19879">
        <ele>767.2</ele>
        <time>2025-09-08T09:31:45Z</time>
      </trkpt>
      <trkpt lat="48.09037" lon="7.19881">
        <ele>767.4</ele>
        <time>2025-09-08T09:31:46Z</time>
      </trkpt>
      <trkpt lat="48.09041" lon="7.19883">
        <ele>767.6</ele>
        <time>2025-09-08T09:31:47Z</time>
      </trkpt>
      <trkpt lat="48.09045" lon="7.19886">
        <ele>767.6</ele>
        <time>2025-09-08T09:31:48Z</time>
      </trkpt>
      <trkpt lat="48.09048" lon="7.19889">
        <ele>767.6</ele>
        <time>2025-09-08T09:31:49Z</time>
      </trkpt>
      <trkpt lat="48.0905" lon="7.19893">
        <ele>767.6</ele>
        <time>2025-09-08T09:31:50Z</time>
      </trkpt>
      <trkpt lat="48.09053" lon="7.19897">
        <ele>767.8</ele>
        <time>2025-09-08T09:31:51Z</time>
      </trkpt>
      <trkpt lat="48.09055" lon="7.19901">
        <ele>768</ele>
        <time>2025-09-08T09:31:52Z</time>
      </trkpt>
      <trkpt lat="48.09057" lon="7.19906">
        <ele>768</ele>
        <time>2025-09-08T09:31:53Z</time>
      </trkpt>
      <trkpt lat="48.09059" lon="7.19911">
        <ele>768.2</ele>
        <time>2025-09-08T09:31:54Z</time>
      </trkpt>
      <trkpt lat="48.09061" lon="7.19917">
        <ele>768.2</ele>
        <time>2025-09-08T09:31:55Z</time>
      </trkpt>
      <trkpt lat="48.09063" lon="7.19923">
        <ele>768.4</ele>
        <time>2025-09-08T09:31:56Z</time>
      </trkpt>
      <trkpt lat="48.09064" lon="7.19928">
        <ele>768.6</ele>
        <time>2025-09-08T09:31:57Z</time>
      </trkpt>
      <trkpt lat="48.09065" lon="7.19934">
        <ele>768.8</ele>
        <time>2025-09-08T09:31:58Z</time>
      </trkpt>
      <trkpt lat="48.09068" lon="7.19939">
        <ele>768.8</ele>
        <time>2025-09-08T09:31:59Z</time>
      </trkpt>
      <trkpt lat="48.09069" lon="7.19946">
        <ele>769</ele>
        <time>2025-09-08T09:32:00Z</time>
      </trkpt>
      <trkpt lat="48.0907" lon="7.19951">
        <ele>769.2</ele>
        <time>2025-09-08T09:32:01Z</time>
      </trkpt>
      <trkpt lat="48.09071" lon="7.19958">
        <ele>769.2</ele>
        <time>2025-09-08T09:32:02Z</time>
      </trkpt>
      <trkpt lat="48.09072" lon="7.19964">
        <ele>769.2</ele>
        <time>2025-09-08T09:32:03Z</time>
      </trkpt>
      <trkpt lat="48.09073" lon="7.1997">
        <ele>769.2</ele>
        <time>2025-09-08T09:32:04Z</time>
      </trkpt>
      <trkpt lat="48.09073" lon="7.19976">
        <ele>769.4</ele>
        <time>2025-09-08T09:32:05Z</time>
      </trkpt>
      <trkpt lat="48.09074" lon="7.19982">
        <ele>769.6</ele>
        <time>2025-09-08T09:32:06Z</time>
      </trkpt>
      <trkpt lat="48.09074" lon="7.19987">
        <ele>769.6</ele>
        <time>2025-09-08T09:32:07Z</time>
      </trkpt>
      <trkpt lat="48.09074" lon="7.19992">
        <ele>769.8</ele>
        <time>2025-09-08T09:32:08Z</time>
      </trkpt>
      <trkpt lat="48.09074" lon="7.19997">
        <ele>770</ele>
        <time>2025-09-08T09:32:09Z</time>
      </trkpt>
      <trkpt lat="48.09074" lon="7.20003">
        <ele>770</ele>
        <time>2025-09-08T09:32:10Z</time>
      </trkpt>
      <trkpt lat="48.09074" lon="7.20009">
        <ele>770.4</ele>
        <time>2025-09-08T09:32:11Z</time>
      </trkpt>
      <trkpt lat="48.09075" lon="7.20016">
        <ele>770.4</ele>
        <time>2025-09-08T09:32:12Z</time>
      </trkpt>
      <trkpt lat="48.09075" lon="7.20023">
        <ele>770.6</ele>
        <time>2025-09-08T09:32:13Z</time>
      </trkpt>
      <trkpt lat="48.09076" lon="7.20029">
        <ele>770.8</ele>
        <time>2025-09-08T09:32:14Z</time>
      </trkpt>
      <trkpt lat="48.09076" lon="7.20035">
        <ele>770.8</ele>
        <time>2025-09-08T09:32:15Z</time>
      </trkpt>
      <trkpt lat="48.09077" lon="7.20041">
        <ele>771</ele>
        <time>2025-09-08T09:32:16Z</time>
      </trkpt>
      <trkpt lat="48.09077" lon="7.20047">
        <ele>771</ele>
        <time>2025-09-08T09:32:17Z</time>
      </trkpt>
      <trkpt lat="48.09077" lon="7.20053">
        <ele>771.2</ele>
        <time>2025-09-08T09:32:18Z</time>
      </trkpt>
      <trkpt lat="48.09077" lon="7.2006">
        <ele>771.2</ele>
        <time>2025-09-08T09:32:19Z</time>
      </trkpt>
      <trkpt lat="48.09078" lon="7.20066">
        <ele>771.4</ele>
        <time>2025-09-08T09:32:20Z</time>
      </trkpt>
      <trkpt lat="48.09078" lon="7.20073">
        <ele>771.4</ele>
        <time>2025-09-08T09:32:21Z</time>
      </trkpt>
      <trkpt lat="48.09079" lon="7.20079">
        <ele>771.6</ele>
        <time>2025-09-08T09:32:22Z</time>
      </trkpt>
      <trkpt lat="48.09079" lon="7.20085">
        <ele>771.6</ele>
        <time>2025-09-08T09:32:23Z</time>
      </trkpt>
      <trkpt lat="48.09079" lon="7.20091">
        <ele>771.8</ele>
        <time>2025-09-08T09:32:24Z</time>
      </trkpt>
      <trkpt lat="48.09081" lon="7.20098">
        <ele>772</ele>
        <time>2025-09-08T09:32:25Z</time>
      </trkpt>
      <trkpt lat="48.09082" lon="7.20105">
        <ele>772.2</ele>
        <time>2025-09-08T09:32:26Z</time>
      </trkpt>
      <trkpt lat="48.09083" lon="7.20111">
        <ele>772.4</ele>
        <time>2025-09-08T09:32:27Z</time>
      </trkpt>
      <trkpt lat="48.09084" lon="7.20117">
        <ele>772.6</ele>
        <time>2025-09-08T09:32:28Z</time>
      </trkpt>
      <trkpt lat="48.09085" lon="7.20123">
        <ele>772.6</ele>
        <time>2025-09-08T09:32:29Z</time>
      </trkpt>
      <trkpt lat="48.09086" lon="7.20129">
        <ele>772.8</ele>
        <time>2025-09-08T09:32:30Z</time>
      </trkpt>
      <trkpt lat="48.09087" lon="7.20135">
        <ele>772.8</ele>
        <time>2025-09-08T09:32:31Z</time>
      </trkpt>
      <trkpt lat="48.09088" lon="7.20142">
        <ele>773</ele>
        <time>2025-09-08T09:32:32Z</time>
      </trkpt>
      <trkpt lat="48.09089" lon="7.20148">
        <ele>773.2</ele>
        <time>2025-09-08T09:32:33Z</time>
      </trkpt>
      <trkpt lat="48.0909" lon="7.20154">
        <ele>773.4</ele>
        <time>2025-09-08T09:32:34Z</time>
      </trkpt>
      <trkpt lat="48.09091" lon="7.2016">
        <ele>773.6</ele>
        <time>2025-09-08T09:32:35Z</time>
      </trkpt>
      <trkpt lat="48.09092" lon="7.20165">
        <ele>773.6</ele>
        <time>2025-09-08T09:32:36Z</time>
      </trkpt>
      <trkpt lat="48.09093" lon="7.2017">
        <ele>773.6</ele>
        <time>2025-09-08T09:32:37Z</time>
      </trkpt>
      <trkpt lat="48.09095" lon="7.20176">
        <ele>774</ele>
        <time>2025-09-08T09:32:38Z</time>
      </trkpt>
      <trkpt lat="48.09097" lon="7.2018">
        <ele>774</ele>
        <time>2025-09-08T09:32:39Z</time>
      </trkpt>
      <trkpt lat="48.09099" lon="7.20185">
        <ele>774.2</ele>
        <time>2025-09-08T09:32:40Z</time>
      </trkpt>
      <trkpt lat="48.09101" lon="7.20191">
        <ele>774.4</ele>
        <time>2025-09-08T09:32:41Z</time>
      </trkpt>
      <trkpt lat="48.09102" lon="7.20196">
        <ele>774.4</ele>
        <time>2025-09-08T09:32:42Z</time>
      </trkpt>
      <trkpt lat="48.09104" lon="7.20201">
        <ele>774.6</ele>
        <time>2025-09-08T09:32:43Z</time>
      </trkpt>
      <trkpt lat="48.09106" lon="7.20206">
        <ele>774.8</ele>
        <time>2025-09-08T09:32:44Z</time>
      </trkpt>
      <trkpt lat="48.09108" lon="7.20212">
        <ele>775</ele>
        <time>2025-09-08T09:32:45Z</time>
      </trkpt>
      <trkpt lat="48.0911" lon="7.20218">
        <ele>775.2</ele>
        <time>2025-09-08T09:32:46Z</time>
      </trkpt>
      <trkpt lat="48.09113" lon="7.20223">
        <ele>775.2</ele>
        <time>2025-09-08T09:32:47Z</time>
      </trkpt>
      <trkpt lat="48.09116" lon="7.20229">
        <ele>775.2</ele>
        <time>2025-09-08T09:32:48Z</time>
      </trkpt>
      <trkpt lat="48.09119" lon="7.20235">
        <ele>775.2</ele>
        <time>2025-09-08T09:32:49Z</time>
      </trkpt>
      <trkpt lat="48.09122" lon="7.2024">
        <ele>775.4</ele>
        <time>2025-09-08T09:32:50Z</time>
      </trkpt>
      <trkpt lat="48.09126" lon="7.20244">
        <ele>775.4</ele>
        <time>2025-09-08T09:32:51Z</time>
      </trkpt>
      <trkpt lat="48.09128" lon="7.20249">
        <ele>775.6</ele>
        <time>2025-09-08T09:32:52Z</time>
      </trkpt>
      <trkpt lat="48.09131" lon="7.20254">
        <ele>775.8</ele>
        <time>2025-09-08T09:32:53Z</time>
      </trkpt>
      <trkpt lat="48.09134" lon="7.20259">
        <ele>776</ele>
        <time>2025-09-08T09:32:54Z</time>
      </trkpt>
      <trkpt lat="48.09137" lon="7.20264">
        <ele>776</ele>
        <time>2025-09-08T09:32:55Z</time>
      </trkpt>
      <trkpt lat="48.0914" lon="7.20269">
        <ele>776</ele>
        <time>2025-09-08T09:32:56Z</time>
      </trkpt>
      <trkpt lat="48.09142" lon="7.20273">
        <ele>776</ele>
        <time>2025-09-08T09:32:57Z</time>
      </trkpt>
      <trkpt lat="48.09145" lon="7.20278">
        <ele>776.2</ele>
        <time>2025-09-08T09:32:58Z</time>
      </trkpt>
      <trkpt lat="48.09148" lon="7.20282">
        <ele>776.4</ele>
        <time>2025-09-08T09:32:59Z</time>
      </trkpt>
      <trkpt lat="48.09151" lon="7.20286">
        <ele>776.6</ele>
        <time>2025-09-08T09:33:00Z</time>
      </trkpt>
      <trkpt lat="48.09154" lon="7.20289">
        <ele>776.6</ele>
        <time>2025-09-08T09:33:01Z</time>
      </trkpt>
      <trkpt lat="48.09158" lon="7.20293">
        <ele>776.8</ele>
        <time>2025-09-08T09:33:02Z</time>
      </trkpt>
      <trkpt lat="48.09161" lon="7.20296">
        <ele>776.8</ele>
        <time>2025-09-08T09:33:03Z</time>
      </trkpt>
      <trkpt lat="48.09164" lon="7.20299">
        <ele>777</ele>
        <time>2025-09-08T09:33:04Z</time>
      </trkpt>
      <trkpt lat="48.09167" lon="7.20302">
        <ele>777.2</ele>
        <time>2025-09-08T09:33:05Z</time>
      </trkpt>
      <trkpt lat="48.09169" lon="7.20307">
        <ele>777.6</ele>
        <time>2025-09-08T09:33:06Z</time>
      </trkpt>
      <trkpt lat="48.09172" lon="7.20311">
        <ele>777.6</ele>
        <time>2025-09-08T09:33:07Z</time>
      </trkpt>
      <trkpt lat="48.09176" lon="7.20315">
        <ele>777.6</ele>
        <time>2025-09-08T09:33:08Z</time>
      </trkpt>
      <trkpt lat="48.09179" lon="7.20319">
        <ele>777.6</ele>
        <time>2025-09-08T09:33:09Z</time>
      </trkpt>
      <trkpt lat="48.09182" lon="7.20323">
        <ele>777.8</ele>
        <time>2025-09-08T09:33:10Z</time>
      </trkpt>
      <trkpt lat="48.09184" lon="7.20327">
        <ele>777.8</ele>
        <time>2025-09-08T09:33:11Z</time>
      </trkpt>
      <trkpt lat="48.09186" lon="7.20331">
        <ele>778</ele>
        <time>2025-09-08T09:33:12Z</time>
      </trkpt>
      <trkpt lat="48.09189" lon="7.20336">
        <ele>778</ele>
        <time>2025-09-08T09:33:13Z</time>
      </trkpt>
      <trkpt lat="48.09191" lon="7.20341">
        <ele>778.2</ele>
        <time>2025-09-08T09:33:14Z</time>
      </trkpt>
      <trkpt lat="48.09192" lon="7.20347">
        <ele>778.4</ele>
        <time>2025-09-08T09:33:15Z</time>
      </trkpt>
      <trkpt lat="48.09194" lon="7.20353">
        <ele>778.4</ele>
        <time>2025-09-08T09:33:16Z</time>
      </trkpt>
      <trkpt lat="48.09196" lon="7.2036">
        <ele>778.4</ele>
        <time>2025-09-08T09:33:17Z</time>
      </trkpt>
      <trkpt lat="48.09196" lon="7.20366">
        <ele>778.6</ele>
        <time>2025-09-08T09:33:18Z</time>
      </trkpt>
      <trkpt lat="48.09196" lon="7.20373">
        <ele>778.8</ele>
        <time>2025-09-08T09:33:19Z</time>
      </trkpt>
      <trkpt lat="48.09194" lon="7.20378">
        <ele>778.8</ele>
        <time>2025-09-08T09:33:20Z</time>
      </trkpt>
      <trkpt lat="48.09191" lon="7.20383">
        <ele>779</ele>
        <time>2025-09-08T09:33:21Z</time>
      </trkpt>
      <trkpt lat="48.09189" lon="7.20386">
        <ele>779</ele>
        <time>2025-09-08T09:33:22Z</time>
      </trkpt>
      <trkpt lat="48.09185" lon="7.20388">
        <ele>779.2</ele>
        <time>2025-09-08T09:33:23Z</time>
      </trkpt>
      <trkpt lat="48.09181" lon="7.20389">
        <ele>779.2</ele>
        <time>2025-09-08T09:33:24Z</time>
      </trkpt>
      <trkpt lat="48.09177" lon="7.20391">
        <ele>779.2</ele>
        <time>2025-09-08T09:33:25Z</time>
      </trkpt>
      <trkpt lat="48.09173" lon="7.20394">
        <ele>779.4</ele>
        <time>2025-09-08T09:33:26Z</time>
      </trkpt>
      <trkpt lat="48.0917" lon="7.20396">
        <ele>779.6</ele>
        <time>2025-09-08T09:33:27Z</time>
      </trkpt>
      <trkpt lat="48.09167" lon="7.20401">
        <ele>779.8</ele>
        <time>2025-09-08T09:33:28Z</time>
      </trkpt>
      <trkpt lat="48.09164" lon="7.20405">
        <ele>779.8</ele>
        <time>2025-09-08T09:33:29Z</time>
      </trkpt>
      <trkpt lat="48.09162" lon="7.2041">
        <ele>780</ele>
        <time>2025-09-08T09:33:30Z</time>
      </trkpt>
      <trkpt lat="48.09159" lon="7.20415">
        <ele>780.2</ele>
        <time>2025-09-08T09:33:31Z</time>
      </trkpt>
      <trkpt lat="48.09157" lon="7.2042">
        <ele>780.2</ele>
        <time>2025-09-08T09:33:32Z</time>
      </trkpt>
      <trkpt lat="48.09155" lon="7.20426">
        <ele>780.4</ele>
        <time>2025-09-08T09:33:33Z</time>
      </trkpt>
      <trkpt lat="48.09153" lon="7.20431">
        <ele>780.4</ele>
        <time>2025-09-08T09:33:34Z</time>
      </trkpt>
      <trkpt lat="48.09152" lon="7.20438">
        <ele>780.6</ele>
        <time>2025-09-08T09:33:35Z</time>
      </trkpt>
      <trkpt lat="48.0915" lon="7.20444">
        <ele>780.6</ele>
        <time>2025-09-08T09:33:36Z</time>
      </trkpt>
      <trkpt lat="48.09149" lon="7.20448">
        <ele>780.6</ele>
        <time>2025-09-08T09:33:37Z</time>
      </trkpt>
      <trkpt lat="48.09146" lon="7.20452">
        <ele>780.8</ele>
        <time>2025-09-08T09:33:38Z</time>
      </trkpt>
      <trkpt lat="48.09145" lon="7.20455">
        <ele>780.8</ele>
        <time>2025-09-08T09:33:39Z</time>
      </trkpt>
      <trkpt lat="48.09146" lon="7.20459">
        <ele>781</ele>
        <time>2025-09-08T09:33:40Z</time>
      </trkpt>
      <trkpt lat="48.09146" lon="7.20464">
        <ele>781.2</ele>
        <time>2025-09-08T09:33:41Z</time>
      </trkpt>
      <trkpt lat="48.09146" lon="7.20469">
        <ele>781.2</ele>
        <time>2025-09-08T09:33:42Z</time>
      </trkpt>
      <trkpt lat="48.09146" lon="7.20475">
        <ele>781.4</ele>
        <time>2025-09-08T09:33:43Z</time>
      </trkpt>
      <trkpt lat="48.09145" lon="7.2048">
        <ele>781.6</ele>
        <time>2025-09-08T09:33:44Z</time>
      </trkpt>
      <trkpt lat="48.09145" lon="7.20486">
        <ele>781.6</ele>
        <time>2025-09-08T09:33:45Z</time>
      </trkpt>
      <trkpt lat="48.09145" lon="7.20491">
        <ele>781.6</ele>
        <time>2025-09-08T09:33:46Z</time>
      </trkpt>
      <trkpt lat="48.09145" lon="7.20495">
        <ele>781.8</ele>
        <time>2025-09-08T09:33:47Z</time>
      </trkpt>
      <trkpt lat="48.09145" lon="7.205">
        <ele>782</ele>
        <time>2025-09-08T09:33:48Z</time>
      </trkpt>
      <trkpt lat="48.09144" lon="7.20505">
        <ele>782.4</ele>
        <time>2025-09-08T09:33:49Z</time>
      </trkpt>
      <trkpt lat="48.09143" lon="7.2051">
        <ele>782.4</ele>
        <time>2025-09-08T09:33:50Z</time>
      </trkpt>
      <trkpt lat="48.09142" lon="7.20515">
        <ele>782.6</ele>
        <time>2025-09-08T09:33:51Z</time>
      </trkpt>
      <trkpt lat="48.0914" lon="7.2052">
        <ele>782.6</ele>
        <time>2025-09-08T09:33:52Z</time>
      </trkpt>
      <trkpt lat="48.09139" lon="7.20526">
        <ele>782.6</ele>
        <time>2025-09-08T09:33:53Z</time>
      </trkpt>
      <trkpt lat="48.09137" lon="7.20532">
        <ele>782.6</ele>
        <time>2025-09-08T09:33:54Z</time>
      </trkpt>
      <trkpt lat="48.09136" lon="7.20538">
        <ele>782.6</ele>
        <time>2025-09-08T09:33:55Z</time>
      </trkpt>
      <trkpt lat="48.09136" lon="7.20543">
        <ele>782.6</ele>
        <time>2025-09-08T09:33:56Z</time>
      </trkpt>
      <trkpt lat="48.09137" lon="7.20548">
        <ele>782.4</ele>
        <time>2025-09-08T09:33:57Z</time>
      </trkpt>
      <trkpt lat="48.09137" lon="7.20553">
        <ele>782.4</ele>
        <time>2025-09-08T09:33:58Z</time>
      </trkpt>
      <trkpt lat="48.09137" lon="7.20558">
        <ele>782.4</ele>
        <time>2025-09-08T09:33:59Z</time>
      </trkpt>
      <trkpt lat="48.09138" lon="7.20563">
        <ele>782.4</ele>
        <time>2025-09-08T09:34:00Z</time>
      </trkpt>
      <trkpt lat="48.09138" lon="7.20568">
        <ele>782.4</ele>
        <time>2025-09-08T09:34:01Z</time>
      </trkpt>
      <trkpt lat="48.09138" lon="7.20572">
        <ele>782.6</ele>
        <time>2025-09-08T09:34:02Z</time>
      </trkpt>
      <trkpt lat="48.09138" lon="7.20577">
        <ele>782.8</ele>
        <time>2025-09-08T09:34:03Z</time>
      </trkpt>
      <trkpt lat="48.09138" lon="7.20582">
        <ele>783</ele>
        <time>2025-09-08T09:34:04Z</time>
      </trkpt>
      <trkpt lat="48.09139" lon="7.20586">
        <ele>783</ele>
        <time>2025-09-08T09:34:05Z</time>
      </trkpt>
      <trkpt lat="48.0914" lon="7.20588">
        <ele>783.2</ele>
        <time>2025-09-08T09:34:06Z</time>
      </trkpt>
      <trkpt lat="48.09142" lon="7.20589">
        <ele>783.2</ele>
        <time>2025-09-08T09:34:07Z</time>
      </trkpt>
      <trkpt lat="48.09144" lon="7.2059">
        <ele>783.4</ele>
        <time>2025-09-08T09:34:08Z</time>
      </trkpt>
      <trkpt lat="48.09146" lon="7.20589">
        <ele>783.6</ele>
        <time>2025-09-08T09:34:09Z</time>
      </trkpt>
      <trkpt lat="48.09148" lon="7.20591">
        <ele>783.8</ele>
        <time>2025-09-08T09:34:10Z</time>
      </trkpt>
      <trkpt lat="48.0915" lon="7.20593">
        <ele>784</ele>
        <time>2025-09-08T09:34:11Z</time>
      </trkpt>
      <trkpt lat="48.09152" lon="7.20596">
        <ele>784.2</ele>
        <time>2025-09-08T09:34:12Z</time>
      </trkpt>
      <trkpt lat="48.09154" lon="7.206">
        <ele>784.6</ele>
        <time>2025-09-08T09:34:13Z</time>
      </trkpt>
      <trkpt lat="48.09155" lon="7.20604">
        <ele>784.6</ele>
        <time>2025-09-08T09:34:14Z</time>
      </trkpt>
      <trkpt lat="48.09156" lon="7.20607">
        <ele>784.8</ele>
        <time>2025-09-08T09:34:15Z</time>
      </trkpt>
      <trkpt lat="48.09157" lon="7.20611">
        <ele>785</ele>
        <time>2025-09-08T09:34:16Z</time>
      </trkpt>
      <trkpt lat="48.09158" lon="7.20615">
        <ele>785.2</ele>
        <time>2025-09-08T09:34:17Z</time>
      </trkpt>
      <trkpt lat="48.09159" lon="7.2062">
        <ele>785.4</ele>
        <time>2025-09-08T09:34:18Z</time>
      </trkpt>
      <trkpt lat="48.0916" lon="7.20623">
        <ele>785.4</ele>
        <time>2025-09-08T09:34:19Z</time>
      </trkpt>
      <trkpt lat="48.0916" lon="7.20627">
        <ele>785.6</ele>
        <time>2025-09-08T09:34:20Z</time>
      </trkpt>
      <trkpt lat="48.09161" lon="7.20629">
        <ele>785.8</ele>
        <time>2025-09-08T09:34:21Z</time>
      </trkpt>
      <trkpt lat="48.09162" lon="7.20632">
        <ele>786</ele>
        <time>2025-09-08T09:34:22Z</time>
      </trkpt>
      <trkpt lat="48.09163" lon="7.20635">
        <ele>786.2</ele>
        <time>2025-09-08T09:34:23Z</time>
      </trkpt>
      <trkpt lat="48.09165" lon="7.20638">
        <ele>786.2</ele>
        <time>2025-09-08T09:34:24Z</time>
      </trkpt>
      <trkpt lat="48.09166" lon="7.2064">
        <ele>786.2</ele>
        <time>2025-09-08T09:34:25Z</time>
      </trkpt>
      <trkpt lat="48.09168" lon="7.20641">
        <ele>786.2</ele>
        <time>2025-09-08T09:34:26Z</time>
      </trkpt>
      <trkpt lat="48.09169" lon="7.20643">
        <ele>786.2</ele>
        <time>2025-09-08T09:34:27Z</time>
      </trkpt>
      <trkpt lat="48.0917" lon="7.20645">
        <ele>786.4</ele>
        <time>2025-09-08T09:34:28Z</time>
      </trkpt>
      <trkpt lat="48.09172" lon="7.20644">
        <ele>786.4</ele>
        <time>2025-09-08T09:34:29Z</time>
      </trkpt>
      <trkpt lat="48.09173" lon="7.20643">
        <ele>786.4</ele>
        <time>2025-09-08T09:34:30Z</time>
      </trkpt>
      <trkpt lat="48.09175" lon="7.2064">
        <ele>786.6</ele>
        <time>2025-09-08T09:34:31Z</time>
      </trkpt>
      <trkpt lat="48.09176" lon="7.20637">
        <ele>786.6</ele>
        <time>2025-09-08T09:34:32Z</time>
      </trkpt>
      <trkpt lat="48.09178" lon="7.20635">
        <ele>786.6</ele>
        <time>2025-09-08T09:34:33Z</time>
      </trkpt>
      <trkpt lat="48.0918" lon="7.20633">
        <ele>786.8</ele>
        <time>2025-09-08T09:34:34Z</time>
      </trkpt>
      <trkpt lat="48.09182" lon="7.20631">
        <ele>786.8</ele>
        <time>2025-09-08T09:34:35Z</time>
      </trkpt>
      <trkpt lat="48.09185" lon="7.20629">
        <ele>787</ele>
        <time>2025-09-08T09:34:36Z</time>
      </trkpt>
      <trkpt lat="48.09191" lon="7.20625">
        <ele>787</ele>
        <time>2025-09-08T09:46:22Z</time>
      </trkpt>
      <trkpt lat="48.09192" lon="7.20623">
        <ele>787.2</ele>
        <time>2025-09-08T09:46:23Z</time>
      </trkpt>
      <trkpt lat="48.09193" lon="7.20622">
        <ele>787.2</ele>
        <time>2025-09-08T09:46:24Z</time>
      </trkpt>
      <trkpt lat="48.09195" lon="7.2062">
        <ele>787.4</ele>
        <time>2025-09-08T09:46:25Z</time>
      </trkpt>
      <trkpt lat="48.09198" lon="7.20619">
        <ele>787.4</ele>
        <time>2025-09-08T09:46:26Z</time>
      </trkpt>
      <trkpt lat="48.092" lon="7.2062">
        <ele>787.6</ele>
        <time>2025-09-08T09:46:27Z</time>
      </trkpt>
      <trkpt lat="48.09203" lon="7.2062">
        <ele>787.6</ele>
        <time>2025-09-08T09:46:28Z</time>
      </trkpt>
      <trkpt lat="48.09206" lon="7.20618">
        <ele>787.6</ele>
        <time>2025-09-08T09:46:29Z</time>
      </trkpt>
      <trkpt lat="48.09207" lon="7.20618">
        <ele>787.6</ele>
        <time>2025-09-08T09:46:30Z</time>
      </trkpt>
      <trkpt lat="48.0921" lon="7.20619">
        <ele>787.6</ele>
        <time>2025-09-08T09:46:31Z</time>
      </trkpt>
      <trkpt lat="48.09213" lon="7.2062">
        <ele>787.8</ele>
        <time>2025-09-08T09:46:32Z</time>
      </trkpt>
      <trkpt lat="48.09216" lon="7.20621">
        <ele>791.8</ele>
        <time>2025-09-08T09:46:33Z</time>
      </trkpt>
      <trkpt lat="48.09219" lon="7.20622">
        <ele>791.8</ele>
        <time>2025-09-08T09:46:34Z</time>
      </trkpt>
      <trkpt lat="48.09222" lon="7.20623">
        <ele>791.8</ele>
        <time>2025-09-08T09:46:35Z</time>
      </trkpt>
      <trkpt lat="48.09224" lon="7.20624">
        <ele>791.8</ele>
        <time>2025-09-08T09:46:36Z</time>
      </trkpt>
      <trkpt lat="48.09227" lon="7.20625">
        <ele>791.4</ele>
        <time>2025-09-08T09:46:37Z</time>
      </trkpt>
      <trkpt lat="48.09229" lon="7.20626">
        <ele>791.2</ele>
        <time>2025-09-08T09:46:38Z</time>
      </trkpt>
      <trkpt lat="48.09232" lon="7.20627">
        <ele>790</ele>
        <time>2025-09-08T09:46:39Z</time>
      </trkpt>
      <trkpt lat="48.09235" lon="7.20627">
        <ele>789.4</ele>
        <time>2025-09-08T09:46:40Z</time>
      </trkpt>
      <trkpt lat="48.09238" lon="7.20627">
        <ele>789.2</ele>
        <time>2025-09-08T09:46:41Z</time>
      </trkpt>
      <trkpt lat="48.09241" lon="7.20627">
        <ele>789</ele>
        <time>2025-09-08T09:46:42Z</time>
      </trkpt>
      <trkpt lat="48.09244" lon="7.20627">
        <ele>789</ele>
        <time>2025-09-08T09:46:43Z</time>
      </trkpt>
      <trkpt lat="48.09246" lon="7.20627">
        <ele>788.8</ele>
        <time>2025-09-08T09:46:44Z</time>
      </trkpt>
      <trkpt lat="48.09249" lon="7.20627">
        <ele>788.8</ele>
        <time>2025-09-08T09:46:45Z</time>
      </trkpt>
      <trkpt lat="48.09251" lon="7.20627">
        <ele>788.8</ele>
        <time>2025-09-08T09:46:46Z</time>
      </trkpt>
      <trkpt lat="48.09254" lon="7.20627">
        <ele>788.8</ele>
        <time>2025-09-08T09:46:47Z</time>
      </trkpt>
      <trkpt lat="48.09257" lon="7.20626">
        <ele>788.6</ele>
        <time>2025-09-08T09:46:48Z</time>
      </trkpt>
      <trkpt lat="48.0926" lon="7.20626">
        <ele>788.4</ele>
        <time>2025-09-08T09:46:49Z</time>
      </trkpt>
      <trkpt lat="48.09263" lon="7.20626">
        <ele>788.4</ele>
        <time>2025-09-08T09:46:50Z</time>
      </trkpt>
      <trkpt lat="48.09266" lon="7.20626">
        <ele>788.4</ele>
        <time>2025-09-08T09:46:51Z</time>
      </trkpt>
      <trkpt lat="48.09269" lon="7.20625">
        <ele>788.2</ele>
        <time>2025-09-08T09:46:52Z</time>
      </trkpt>
      <trkpt lat="48.09272" lon="7.20625">
        <ele>788.2</ele>
        <time>2025-09-08T09:46:53Z</time>
      </trkpt>
      <trkpt lat="48.09275" lon="7.20624">
        <ele>788.2</ele>
        <time>2025-09-08T09:46:54Z</time>
      </trkpt>
      <trkpt lat="48.09278" lon="7.20622">
        <ele>788.4</ele>
        <time>2025-09-08T09:46:55Z</time>
      </trkpt>
      <trkpt lat="48.0928" lon="7.20621">
        <ele>788.4</ele>
        <time>2025-09-08T09:46:56Z</time>
      </trkpt>
      <trkpt lat="48.09283" lon="7.2062">
        <ele>788.4</ele>
        <time>2025-09-08T09:46:57Z</time>
      </trkpt>
      <trkpt lat="48.09285" lon="7.20618">
        <ele>788.4</ele>
        <time>2025-09-08T09:46:58Z</time>
      </trkpt>
      <trkpt lat="48.09287" lon="7.20617">
        <ele>788.6</ele>
        <time>2025-09-08T09:46:59Z</time>
      </trkpt>
      <trkpt lat="48.09289" lon="7.20616">
        <ele>788.6</ele>
        <time>2025-09-08T09:47:00Z</time>
      </trkpt>
      <trkpt lat="48.0929" lon="7.20615">
        <ele>788.6</ele>
        <time>2025-09-08T09:47:01Z</time>
      </trkpt>
      <trkpt lat="48.09292" lon="7.20613">
        <ele>788.6</ele>
        <time>2025-09-08T09:47:02Z</time>
      </trkpt>
      <trkpt lat="48.09293" lon="7.20611">
        <ele>788.8</ele>
        <time>2025-09-08T09:47:03Z</time>
      </trkpt>
      <trkpt lat="48.09294" lon="7.20609">
        <ele>788.8</ele>
        <time>2025-09-08T09:47:04Z</time>
      </trkpt>
      <trkpt lat="48.09295" lon="7.20608">
        <ele>788.8</ele>
        <time>2025-09-08T09:47:05Z</time>
      </trkpt>
      <trkpt lat="48.09296" lon="7.20607">
        <ele>788.8</ele>
        <time>2025-09-08T09:47:06Z</time>
      </trkpt>
      <trkpt lat="48.09297" lon="7.20607">
        <ele>788.8</ele>
        <time>2025-09-08T09:47:07Z</time>
      </trkpt>
      <trkpt lat="48.09298" lon="7.20607">
        <ele>789</ele>
        <time>2025-09-08T09:47:08Z</time>
      </trkpt>
      <trkpt lat="48.09299" lon="7.20607">
        <ele>789</ele>
        <time>2025-09-08T09:47:09Z</time>
      </trkpt>
      <trkpt lat="48.093" lon="7.20607">
        <ele>789</ele>
        <time>2025-09-08T09:47:10Z</time>
      </trkpt>
      <trkpt lat="48.093" lon="7.20611">
        <ele>788.8</ele>
        <time>2025-09-08T09:47:13Z</time>
      </trkpt>
      <trkpt lat="48.093" lon="7.20613">
        <ele>788.8</ele>
        <time>2025-09-08T09:47:14Z</time>
      </trkpt>
      <trkpt lat="48.09299" lon="7.20616">
        <ele>788.8</ele>
        <time>2025-09-08T09:47:15Z</time>
      </trkpt>
      <trkpt lat="48.09299" lon="7.20619">
        <ele>788.6</ele>
        <time>2025-09-08T09:47:16Z</time>
      </trkpt>
      <trkpt lat="48.09299" lon="7.20623">
        <ele>788.6</ele>
        <time>2025-09-08T09:47:17Z</time>
      </trkpt>
      <trkpt lat="48.09298" lon="7.20626">
        <ele>788.4</ele>
        <time>2025-09-08T09:47:18Z</time>
      </trkpt>
      <trkpt lat="48.09298" lon="7.20629">
        <ele>788.4</ele>
        <time>2025-09-08T09:47:19Z</time>
      </trkpt>
      <trkpt lat="48.09297" lon="7.20632">
        <ele>788.2</ele>
        <time>2025-09-08T09:47:20Z</time>
      </trkpt>
      <trkpt lat="48.09297" lon="7.20635">
        <ele>788</ele>
        <time>2025-09-08T09:47:21Z</time>
      </trkpt>
      <trkpt lat="48.09297" lon="7.20639">
        <ele>788</ele>
        <time>2025-09-08T09:47:22Z</time>
      </trkpt>
      <trkpt lat="48.09297" lon="7.20643">
        <ele>788</ele>
        <time>2025-09-08T09:47:23Z</time>
      </trkpt>
      <trkpt lat="48.09296" lon="7.20648">
        <ele>788</ele>
        <time>2025-09-08T09:47:24Z</time>
      </trkpt>
      <trkpt lat="48.09296" lon="7.20652">
        <ele>788</ele>
        <time>2025-09-08T09:47:25Z</time>
      </trkpt>
      <trkpt lat="48.09297" lon="7.20655">
        <ele>788</ele>
        <time>2025-09-08T09:47:26Z</time>
      </trkpt>
      <trkpt lat="48.09296" lon="7.20657">
        <ele>788</ele>
        <time>2025-09-08T09:47:27Z</time>
      </trkpt>
      <trkpt lat="48.09296" lon="7.20659">
        <ele>788</ele>
        <time>2025-09-08T09:47:28Z</time>
      </trkpt>
      <trkpt lat="48.09297" lon="7.20662">
        <ele>788</ele>
        <time>2025-09-08T09:47:29Z</time>
      </trkpt>
      <trkpt lat="48.09297" lon="7.20665">
        <ele>788</ele>
        <time>2025-09-08T09:47:30Z</time>
      </trkpt>
      <trkpt lat="48.09296" lon="7.20668">
        <ele>788</ele>
        <time>2025-09-08T09:47:31Z</time>
      </trkpt>
      <trkpt lat="48.09296" lon="7.20671">
        <ele>788</ele>
        <time>2025-09-08T09:47:32Z</time>
      </trkpt>
      <trkpt lat="48.09295" lon="7.20674">
        <ele>788</ele>
        <time>2025-09-08T09:47:33Z</time>
      </trkpt>
      <trkpt lat="48.09294" lon="7.20678">
        <ele>788</ele>
        <time>2025-09-08T09:47:34Z</time>
      </trkpt>
      <trkpt lat="48.09294" lon="7.20682">
        <ele>788</ele>
        <time>2025-09-08T09:47:35Z</time>
      </trkpt>
      <trkpt lat="48.09294" lon="7.20686">
        <ele>788</ele>
        <time>2025-09-08T09:47:36Z</time>
      </trkpt>
      <trkpt lat="48.09293" lon="7.20691">
        <ele>787.8</ele>
        <time>2025-09-08T09:47:37Z</time>
      </trkpt>
      <trkpt lat="48.09294" lon="7.20696">
        <ele>787.6</ele>
        <time>2025-09-08T09:47:38Z</time>
      </trkpt>
      <trkpt lat="48.09294" lon="7.207">
        <ele>787.6</ele>
        <time>2025-09-08T09:47:39Z</time>
      </trkpt>
      <trkpt lat="48.09296" lon="7.20705">
        <ele>787.4</ele>
        <time>2025-09-08T09:47:40Z</time>
      </trkpt>
      <trkpt lat="48.09297" lon="7.20709">
        <ele>787.2</ele>
        <time>2025-09-08T09:47:41Z</time>
      </trkpt>
      <trkpt lat="48.09299" lon="7.20714">
        <ele>786.8</ele>
        <time>2025-09-08T09:47:42Z</time>
      </trkpt>
      <trkpt lat="48.09302" lon="7.2072">
        <ele>786.6</ele>
        <time>2025-09-08T09:47:43Z</time>
      </trkpt>
      <trkpt lat="48.09304" lon="7.20726">
        <ele>786.4</ele>
        <time>2025-09-08T09:47:44Z</time>
      </trkpt>
      <trkpt lat="48.09308" lon="7.20732">
        <ele>785.8</ele>
        <time>2025-09-08T09:47:45Z</time>
      </trkpt>
      <trkpt lat="48.09311" lon="7.20738">
        <ele>785.6</ele>
        <time>2025-09-08T09:47:46Z</time>
      </trkpt>
      <trkpt lat="48.09315" lon="7.20745">
        <ele>785.2</ele>
        <time>2025-09-08T09:47:47Z</time>
      </trkpt>
      <trkpt lat="48.09318" lon="7.20752">
        <ele>784.8</ele>
        <time>2025-09-08T09:47:48Z</time>
      </trkpt>
      <trkpt lat="48.09323" lon="7.20759">
        <ele>784.4</ele>
        <time>2025-09-08T09:47:49Z</time>
      </trkpt>
      <trkpt lat="48.09328" lon="7.20766">
        <ele>784</ele>
        <time>2025-09-08T09:47:50Z</time>
      </trkpt>
      <trkpt lat="48.09332" lon="7.20773">
        <ele>783.2</ele>
        <time>2025-09-08T09:47:51Z</time>
      </trkpt>
      <trkpt lat="48.09336" lon="7.2078">
        <ele>783</ele>
        <time>2025-09-08T09:47:52Z</time>
      </trkpt>
      <trkpt lat="48.0934" lon="7.20788">
        <ele>782.8</ele>
        <time>2025-09-08T09:47:53Z</time>
      </trkpt>
      <trkpt lat="48.09345" lon="7.20795">
        <ele>782.2</ele>
        <time>2025-09-08T09:47:54Z</time>
      </trkpt>
      <trkpt lat="48.09349" lon="7.20801">
        <ele>781.8</ele>
        <time>2025-09-08T09:47:55Z</time>
      </trkpt>
      <trkpt lat="48.09353" lon="7.20805">
        <ele>781.6</ele>
        <time>2025-09-08T09:47:56Z</time>
      </trkpt>
      <trkpt lat="48.09357" lon="7.2081">
        <ele>781.4</ele>
        <time>2025-09-08T09:47:57Z</time>
      </trkpt>
      <trkpt lat="48.09361" lon="7.20815">
        <ele>781</ele>
        <time>2025-09-08T09:47:58Z</time>
      </trkpt>
      <trkpt lat="48.09364" lon="7.20821">
        <ele>781</ele>
        <time>2025-09-08T09:47:59Z</time>
      </trkpt>
      <trkpt lat="48.09368" lon="7.20826">
        <ele>780.8</ele>
        <time>2025-09-08T09:48:00Z</time>
      </trkpt>
      <trkpt lat="48.09372" lon="7.2083">
        <ele>780.6</ele>
        <time>2025-09-08T09:48:01Z</time>
      </trkpt>
      <trkpt lat="48.09377" lon="7.20835">
        <ele>780.6</ele>
        <time>2025-09-08T09:48:02Z</time>
      </trkpt>
      <trkpt lat="48.09382" lon="7.20839">
        <ele>780.4</ele>
        <time>2025-09-08T09:48:03Z</time>
      </trkpt>
      <trkpt lat="48.09386" lon="7.20844">
        <ele>780.2</ele>
        <time>2025-09-08T09:48:04Z</time>
      </trkpt>
      <trkpt lat="48.09391" lon="7.20849">
        <ele>779.6</ele>
        <time>2025-09-08T09:48:05Z</time>
      </trkpt>
      <trkpt lat="48.09396" lon="7.20855">
        <ele>779.4</ele>
        <time>2025-09-08T09:48:06Z</time>
      </trkpt>
      <trkpt lat="48.09401" lon="7.2086">
        <ele>779.2</ele>
        <time>2025-09-08T09:48:07Z</time>
      </trkpt>
      <trkpt lat="48.09407" lon="7.20865">
        <ele>779</ele>
        <time>2025-09-08T09:48:08Z</time>
      </trkpt>
      <trkpt lat="48.09411" lon="7.20871">
        <ele>778.4</ele>
        <time>2025-09-08T09:48:09Z</time>
      </trkpt>
      <trkpt lat="48.09416" lon="7.20876">
        <ele>777.8</ele>
        <time>2025-09-08T09:48:10Z</time>
      </trkpt>
      <trkpt lat="48.09421" lon="7.20881">
        <ele>777.4</ele>
        <time>2025-09-08T09:48:11Z</time>
      </trkpt>
      <trkpt lat="48.09426" lon="7.20886">
        <ele>777</ele>
        <time>2025-09-08T09:48:12Z</time>
      </trkpt>
      <trkpt lat="48.0943" lon="7.20892">
        <ele>776.8</ele>
        <time>2025-09-08T09:48:13Z</time>
      </trkpt>
      <trkpt lat="48.09435" lon="7.20899">
        <ele>776.4</ele>
        <time>2025-09-08T09:48:14Z</time>
      </trkpt>
      <trkpt lat="48.0944" lon="7.20905">
        <ele>775.6</ele>
        <time>2025-09-08T09:48:15Z</time>
      </trkpt>
      <trkpt lat="48.09445" lon="7.20911">
        <ele>775.4</ele>
        <time>2025-09-08T09:48:16Z</time>
      </trkpt>
      <trkpt lat="48.0945" lon="7.20917">
        <ele>775</ele>
        <time>2025-09-08T09:48:17Z</time>
      </trkpt>
      <trkpt lat="48.09455" lon="7.20923">
        <ele>774.4</ele>
        <time>2025-09-08T09:48:18Z</time>
      </trkpt>
      <trkpt lat="48.09459" lon="7.2093">
        <ele>774.2</ele>
        <time>2025-09-08T09:48:19Z</time>
      </trkpt>
      <trkpt lat="48.09464" lon="7.20938">
        <ele>773.4</ele>
        <time>2025-09-08T09:48:20Z</time>
      </trkpt>
      <trkpt lat="48.09468" lon="7.20946">
        <ele>773.2</ele>
        <time>2025-09-08T09:48:21Z</time>
      </trkpt>
      <trkpt lat="48.09472" lon="7.20953">
        <ele>773</ele>
        <time>2025-09-08T09:48:22Z</time>
      </trkpt>
      <trkpt lat="48.09477" lon="7.2096">
        <ele>772.6</ele>
        <time>2025-09-08T09:48:23Z</time>
      </trkpt>
      <trkpt lat="48.09481" lon="7.20965">
        <ele>772</ele>
        <time>2025-09-08T09:48:24Z</time>
      </trkpt>
      <trkpt lat="48.09486" lon="7.20972">
        <ele>771.6</ele>
        <time>2025-09-08T09:48:25Z</time>
      </trkpt>
      <trkpt lat="48.09491" lon="7.20979">
        <ele>771.2</ele>
        <time>2025-09-08T09:48:26Z</time>
      </trkpt>
      <trkpt lat="48.09495" lon="7.20985">
        <ele>771</ele>
        <time>2025-09-08T09:48:27Z</time>
      </trkpt>
      <trkpt lat="48.09499" lon="7.20992">
        <ele>770.8</ele>
        <time>2025-09-08T09:48:28Z</time>
      </trkpt>
      <trkpt lat="48.09504" lon="7.20998">
        <ele>770.4</ele>
        <time>2025-09-08T09:48:29Z</time>
      </trkpt>
      <trkpt lat="48.09509" lon="7.21004">
        <ele>770</ele>
        <time>2025-09-08T09:48:30Z</time>
      </trkpt>
      <trkpt lat="48.09513" lon="7.21011">
        <ele>769.4</ele>
        <time>2025-09-08T09:48:31Z</time>
      </trkpt>
      <trkpt lat="48.09518" lon="7.21017">
        <ele>769.2</ele>
        <time>2025-09-08T09:48:32Z</time>
      </trkpt>
      <trkpt lat="48.09523" lon="7.21025">
        <ele>768.8</ele>
        <time>2025-09-08T09:48:33Z</time>
      </trkpt>
      <trkpt lat="48.09527" lon="7.21032">
        <ele>768.6</ele>
        <time>2025-09-08T09:48:34Z</time>
      </trkpt>
      <trkpt lat="48.09533" lon="7.21041">
        <ele>768.2</ele>
        <time>2025-09-08T09:48:35Z</time>
      </trkpt>
      <trkpt lat="48.09539" lon="7.21048">
        <ele>767</ele>
        <time>2025-09-08T09:48:36Z</time>
      </trkpt>
      <trkpt lat="48.09545" lon="7.21056">
        <ele>766.4</ele>
        <time>2025-09-08T09:48:37Z</time>
      </trkpt>
      <trkpt lat="48.09551" lon="7.21065">
        <ele>765.4</ele>
        <time>2025-09-08T09:48:38Z</time>
      </trkpt>
      <trkpt lat="48.09557" lon="7.21072">
        <ele>765.2</ele>
        <time>2025-09-08T09:48:39Z</time>
      </trkpt>
      <trkpt lat="48.09562" lon="7.21079">
        <ele>765</ele>
        <time>2025-09-08T09:48:40Z</time>
      </trkpt>
      <trkpt lat="48.09565" lon="7.21085">
        <ele>763.6</ele>
        <time>2025-09-08T09:48:41Z</time>
      </trkpt>
      <trkpt lat="48.09568" lon="7.2109">
        <ele>763.2</ele>
        <time>2025-09-08T09:48:42Z</time>
      </trkpt>
      <trkpt lat="48.0957" lon="7.21094">
        <ele>763</ele>
        <time>2025-09-08T09:48:43Z</time>
      </trkpt>
      <trkpt lat="48.09572" lon="7.21099">
        <ele>762.6</ele>
        <time>2025-09-08T09:48:44Z</time>
      </trkpt>
      <trkpt lat="48.09574" lon="7.21104">
        <ele>762.6</ele>
        <time>2025-09-08T09:48:45Z</time>
      </trkpt>
      <trkpt lat="48.09576" lon="7.21109">
        <ele>762.4</ele>
        <time>2025-09-08T09:48:46Z</time>
      </trkpt>
      <trkpt lat="48.09578" lon="7.21115">
        <ele>762.2</ele>
        <time>2025-09-08T09:48:47Z</time>
      </trkpt>
      <trkpt lat="48.0958" lon="7.2112">
        <ele>762.2</ele>
        <time>2025-09-08T09:48:48Z</time>
      </trkpt>
      <trkpt lat="48.09582" lon="7.21126">
        <ele>761.8</ele>
        <time>2025-09-08T09:48:49Z</time>
      </trkpt>
      <trkpt lat="48.09584" lon="7.21134">
        <ele>761.6</ele>
        <time>2025-09-08T09:48:50Z</time>
      </trkpt>
      <trkpt lat="48.09587" lon="7.21141">
        <ele>761.4</ele>
        <time>2025-09-08T09:48:51Z</time>
      </trkpt>
      <trkpt lat="48.0959" lon="7.21149">
        <ele>760.8</ele>
        <time>2025-09-08T09:48:52Z</time>
      </trkpt>
      <trkpt lat="48.09594" lon="7.21157">
        <ele>760.4</ele>
        <time>2025-09-08T09:48:53Z</time>
      </trkpt>
      <trkpt lat="48.09597" lon="7.21165">
        <ele>760</ele>
        <time>2025-09-08T09:48:54Z</time>
      </trkpt>
      <trkpt lat="48.09598" lon="7.21171">
        <ele>759.4</ele>
        <time>2025-09-08T09:48:55Z</time>
      </trkpt>
      <trkpt lat="48.09599" lon="7.21174">
        <ele>758.4</ele>
        <time>2025-09-08T09:48:56Z</time>
      </trkpt>
      <trkpt lat="48.09601" lon="7.21178">
        <ele>758</ele>
        <time>2025-09-08T09:48:57Z</time>
      </trkpt>
      <trkpt lat="48.09601" lon="7.2118">
        <ele>757.6</ele>
        <time>2025-09-08T09:48:58Z</time>
      </trkpt>
      <trkpt lat="48.09602" lon="7.21181">
        <ele>757.4</ele>
        <time>2025-09-08T09:48:59Z</time>
      </trkpt>
      <trkpt lat="48.09602" lon="7.21183">
        <ele>757.2</ele>
        <time>2025-09-08T09:49:00Z</time>
      </trkpt>
      <trkpt lat="48.09602" lon="7.21185">
        <ele>757</ele>
        <time>2025-09-08T09:49:01Z</time>
      </trkpt>
      <trkpt lat="48.09602" lon="7.21186">
        <ele>756.8</ele>
        <time>2025-09-08T09:49:02Z</time>
      </trkpt>
      <trkpt lat="48.096" lon="7.21188">
        <ele>756.6</ele>
        <time>2025-09-08T09:49:03Z</time>
      </trkpt>
      <trkpt lat="48.09599" lon="7.21191">
        <ele>756.4</ele>
        <time>2025-09-08T09:49:04Z</time>
      </trkpt>
      <trkpt lat="48.09599" lon="7.21194">
        <ele>756.2</ele>
        <time>2025-09-08T09:49:05Z</time>
      </trkpt>
      <trkpt lat="48.09599" lon="7.21198">
        <ele>756.2</ele>
        <time>2025-09-08T09:49:06Z</time>
      </trkpt>
      <trkpt lat="48.096" lon="7.212">
        <ele>756</ele>
        <time>2025-09-08T09:49:07Z</time>
      </trkpt>
      <trkpt lat="48.09601" lon="7.21203">
        <ele>755.8</ele>
        <time>2025-09-08T09:49:08Z</time>
      </trkpt>
      <trkpt lat="48.09603" lon="7.21208">
        <ele>755.4</ele>
        <time>2025-09-08T09:49:09Z</time>
      </trkpt>
      <trkpt lat="48.09605" lon="7.21214">
        <ele>755.2</ele>
        <time>2025-09-08T09:49:10Z</time>
      </trkpt>
      <trkpt lat="48.09606" lon="7.2122">
        <ele>755</ele>
        <time>2025-09-08T09:49:11Z</time>
      </trkpt>
      <trkpt lat="48.09606" lon="7.21227">
        <ele>754.4</ele>
        <time>2025-09-08T09:49:12Z</time>
      </trkpt>
      <trkpt lat="48.09608" lon="7.21233">
        <ele>753.6</ele>
        <time>2025-09-08T09:49:13Z</time>
      </trkpt>
      <trkpt lat="48.0961" lon="7.2124">
        <ele>752.4</ele>
        <time>2025-09-08T09:49:14Z</time>
      </trkpt>
      <trkpt lat="48.09612" lon="7.21247">
        <ele>752</ele>
        <time>2025-09-08T09:49:15Z</time>
      </trkpt>
      <trkpt lat="48.09614" lon="7.21254">
        <ele>751.8</ele>
        <time>2025-09-08T09:49:16Z</time>
      </trkpt>
      <trkpt lat="48.09617" lon="7.21259">
        <ele>750.8</ele>
        <time>2025-09-08T09:49:17Z</time>
      </trkpt>
      <trkpt lat="48.09619" lon="7.21265">
        <ele>750.2</ele>
        <time>2025-09-08T09:49:18Z</time>
      </trkpt>
      <trkpt lat="48.09619" lon="7.21272">
        <ele>747</ele>
        <time>2025-09-08T09:50:01Z</time>
      </trkpt>
      <trkpt lat="48.09618" lon="7.21273">
        <ele>747</ele>
        <time>2025-09-08T09:50:02Z</time>
      </trkpt>
      <trkpt lat="48.09618" lon="7.21274">
        <ele>747.2</ele>
        <time>2025-09-08T09:50:03Z</time>
      </trkpt>
      <trkpt lat="48.09618" lon="7.21275">
        <ele>747.2</ele>
        <time>2025-09-08T09:50:04Z</time>
      </trkpt>
      <trkpt lat="48.09618" lon="7.21277">
        <ele>747.2</ele>
        <time>2025-09-08T09:50:05Z</time>
      </trkpt>
      <trkpt lat="48.09618" lon="7.21279">
        <ele>747.2</ele>
        <time>2025-09-08T09:50:06Z</time>
      </trkpt>
      <trkpt lat="48.09618" lon="7.21282">
        <ele>747.2</ele>
        <time>2025-09-08T09:50:07Z</time>
      </trkpt>
      <trkpt lat="48.09617" lon="7.21286">
        <ele>747</ele>
        <time>2025-09-08T09:50:08Z</time>
      </trkpt>
      <trkpt lat="48.09617" lon="7.21289">
        <ele>746.8</ele>
        <time>2025-09-08T09:50:09Z</time>
      </trkpt>
      <trkpt lat="48.09617" lon="7.21293">
        <ele>746.8</ele>
        <time>2025-09-08T09:50:10Z</time>
      </trkpt>
      <trkpt lat="48.09617" lon="7.21296">
        <ele>746.6</ele>
        <time>2025-09-08T09:50:11Z</time>
      </trkpt>
      <trkpt lat="48.09617" lon="7.21301">
        <ele>746.2</ele>
        <time>2025-09-08T09:50:12Z</time>
      </trkpt>
      <trkpt lat="48.09618" lon="7.21306">
        <ele>745.6</ele>
        <time>2025-09-08T09:50:13Z</time>
      </trkpt>
      <trkpt lat="48.09618" lon="7.21312">
        <ele>745.4</ele>
        <time>2025-09-08T09:50:14Z</time>
      </trkpt>
      <trkpt lat="48.09618" lon="7.21317">
        <ele>745.2</ele>
        <time>2025-09-08T09:50:15Z</time>
      </trkpt>
      <trkpt lat="48.09618" lon="7.21325">
        <ele>744.6</ele>
        <time>2025-09-08T09:50:16Z</time>
      </trkpt>
      <trkpt lat="48.09618" lon="7.21332">
        <ele>744.2</ele>
        <time>2025-09-08T09:50:17Z</time>
      </trkpt>
      <trkpt lat="48.09619" lon="7.21338">
        <ele>743.6</ele>
        <time>2025-09-08T09:50:18Z</time>
      </trkpt>
      <trkpt lat="48.0962" lon="7.21345">
        <ele>743</ele>
        <time>2025-09-08T09:50:19Z</time>
      </trkpt>
      <trkpt lat="48.0962" lon="7.2135">
        <ele>742.4</ele>
        <time>2025-09-08T09:50:20Z</time>
      </trkpt>
      <trkpt lat="48.0962" lon="7.21354">
        <ele>741.4</ele>
        <time>2025-09-08T09:50:21Z</time>
      </trkpt>
      <trkpt lat="48.09619" lon="7.21359">
        <ele>741</ele>
        <time>2025-09-08T09:50:22Z</time>
      </trkpt>
      <trkpt lat="48.09618" lon="7.21363">
        <ele>740.8</ele>
        <time>2025-09-08T09:50:23Z</time>
      </trkpt>
      <trkpt lat="48.09617" lon="7.21369">
        <ele>740.4</ele>
        <time>2025-09-08T09:50:24Z</time>
      </trkpt>
      <trkpt lat="48.09616" lon="7.21373">
        <ele>739.8</ele>
        <time>2025-09-08T09:50:25Z</time>
      </trkpt>
      <trkpt lat="48.09616" lon="7.21377">
        <ele>739.4</ele>
        <time>2025-09-08T09:50:26Z</time>
      </trkpt>
      <trkpt lat="48.09615" lon="7.21382">
        <ele>739</ele>
        <time>2025-09-08T09:50:27Z</time>
      </trkpt>
      <trkpt lat="48.09614" lon="7.21387">
        <ele>738.4</ele>
        <time>2025-09-08T09:50:28Z</time>
      </trkpt>
      <trkpt lat="48.09614" lon="7.21392">
        <ele>738.2</ele>
        <time>2025-09-08T09:50:29Z</time>
      </trkpt>
      <trkpt lat="48.09613" lon="7.21399">
        <ele>737.6</ele>
        <time>2025-09-08T09:50:30Z</time>
      </trkpt>
      <trkpt lat="48.09611" lon="7.21406">
        <ele>736.8</ele>
        <time>2025-09-08T09:50:31Z</time>
      </trkpt>
      <trkpt lat="48.09608" lon="7.21414">
        <ele>736.4</ele>
        <time>2025-09-08T09:50:32Z</time>
      </trkpt>
      <trkpt lat="48.09608" lon="7.21423">
        <ele>735.6</ele>
        <time>2025-09-08T09:50:33Z</time>
      </trkpt>
      <trkpt lat="48.09608" lon="7.21432">
        <ele>734.4</ele>
        <time>2025-09-08T09:50:34Z</time>
      </trkpt>
      <trkpt lat="48.09609" lon="7.21442">
        <ele>733</ele>
        <time>2025-09-08T09:50:35Z</time>
      </trkpt>
      <trkpt lat="48.09609" lon="7.21451">
        <ele>732</ele>
        <time>2025-09-08T09:50:36Z</time>
      </trkpt>
      <trkpt lat="48.09611" lon="7.21461">
        <ele>731.2</ele>
        <time>2025-09-08T09:50:37Z</time>
      </trkpt>
      <trkpt lat="48.09612" lon="7.2147">
        <ele>729.8</ele>
        <time>2025-09-08T09:50:38Z</time>
      </trkpt>
      <trkpt lat="48.09615" lon="7.21479">
        <ele>729.6</ele>
        <time>2025-09-08T09:50:39Z</time>
      </trkpt>
      <trkpt lat="48.09618" lon="7.21489">
        <ele>728.6</ele>
        <time>2025-09-08T09:50:40Z</time>
      </trkpt>
      <trkpt lat="48.09621" lon="7.215">
        <ele>727.6</ele>
        <time>2025-09-08T09:50:41Z</time>
      </trkpt>
      <trkpt lat="48.09623" lon="7.21511">
        <ele>727</ele>
        <time>2025-09-08T09:50:42Z</time>
      </trkpt>
      <trkpt lat="48.09624" lon="7.21524">
        <ele>725.6</ele>
        <time>2025-09-08T09:50:43Z</time>
      </trkpt>
      <trkpt lat="48.09626" lon="7.21535">
        <ele>724.6</ele>
        <time>2025-09-08T09:50:44Z</time>
      </trkpt>
      <trkpt lat="48.09629" lon="7.21546">
        <ele>723.4</ele>
        <time>2025-09-08T09:50:45Z</time>
      </trkpt>
      <trkpt lat="48.09634" lon="7.21564">
        <ele>716.8</ele>
        <time>2025-09-08T09:51:16Z</time>
      </trkpt>
      <trkpt lat="48.09631" lon="7.21562">
        <ele>716.8</ele>
        <time>2025-09-08T09:51:17Z</time>
      </trkpt>
      <trkpt lat="48.09627" lon="7.2156">
        <ele>717</ele>
        <time>2025-09-08T09:51:18Z</time>
      </trkpt>
      <trkpt lat="48.09624" lon="7.21557">
        <ele>717</ele>
        <time>2025-09-08T09:51:19Z</time>
      </trkpt>
      <trkpt lat="48.09621" lon="7.21554">
        <ele>717</ele>
        <time>2025-09-08T09:51:20Z</time>
      </trkpt>
      <trkpt lat="48.09618" lon="7.21551">
        <ele>717</ele>
        <time>2025-09-08T09:51:21Z</time>
      </trkpt>
      <trkpt lat="48.09614" lon="7.21547">
        <ele>717</ele>
        <time>2025-09-08T09:51:22Z</time>
      </trkpt>
      <trkpt lat="48.0961" lon="7.21543">
        <ele>717.2</ele>
        <time>2025-09-08T09:51:23Z</time>
      </trkpt>
      <trkpt lat="48.09607" lon="7.2154">
        <ele>717.2</ele>
        <time>2025-09-08T09:51:24Z</time>
      </trkpt>
      <trkpt lat="48.09603" lon="7.21537">
        <ele>717.4</ele>
        <time>2025-09-08T09:51:25Z</time>
      </trkpt>
      <trkpt lat="48.096" lon="7.21533">
        <ele>717.6</ele>
        <time>2025-09-08T09:51:26Z</time>
      </trkpt>
      <trkpt lat="48.09597" lon="7.2153">
        <ele>717.6</ele>
        <time>2025-09-08T09:51:27Z</time>
      </trkpt>
      <trkpt lat="48.09594" lon="7.21527">
        <ele>717.6</ele>
        <time>2025-09-08T09:51:28Z</time>
      </trkpt>
      <trkpt lat="48.09591" lon="7.21524">
        <ele>717.8</ele>
        <time>2025-09-08T09:51:29Z</time>
      </trkpt>
      <trkpt lat="48.09587" lon="7.21522">
        <ele>718</ele>
        <time>2025-09-08T09:51:30Z</time>
      </trkpt>
      <trkpt lat="48.09583" lon="7.2152">
        <ele>718</ele>
        <time>2025-09-08T09:51:31Z</time>
      </trkpt>
      <trkpt lat="48.09579" lon="7.21518">
        <ele>718</ele>
        <time>2025-09-08T09:51:32Z</time>
      </trkpt>
      <trkpt lat="48.09575" lon="7.21517">
        <ele>718</ele>
        <time>2025-09-08T09:51:33Z</time>
      </trkpt>
      <trkpt lat="48.0957" lon="7.21516">
        <ele>718</ele>
        <time>2025-09-08T09:51:34Z</time>
      </trkpt>
      <trkpt lat="48.09565" lon="7.21515">
        <ele>718</ele>
        <time>2025-09-08T09:51:35Z</time>
      </trkpt>
      <trkpt lat="48.0956" lon="7.21516">
        <ele>717.8</ele>
        <time>2025-09-08T09:51:36Z</time>
      </trkpt>
      <trkpt lat="48.09555" lon="7.21516">
        <ele>717.6</ele>
        <time>2025-09-08T09:51:37Z</time>
      </trkpt>
      <trkpt lat="48.0955" lon="7.21516">
        <ele>717.2</ele>
        <time>2025-09-08T09:51:38Z</time>
      </trkpt>
      <trkpt lat="48.09545" lon="7.21517">
        <ele>717</ele>
        <time>2025-09-08T09:51:39Z</time>
      </trkpt>
      <trkpt lat="48.0954" lon="7.21517">
        <ele>717</ele>
        <time>2025-09-08T09:51:40Z</time>
      </trkpt>
      <trkpt lat="48.09535" lon="7.21517">
        <ele>716.8</ele>
        <time>2025-09-08T09:51:41Z</time>
      </trkpt>
      <trkpt lat="48.0953" lon="7.21517">
        <ele>716.6</ele>
        <time>2025-09-08T09:51:42Z</time>
      </trkpt>
      <trkpt lat="48.09524" lon="7.21516">
        <ele>716.2</ele>
        <time>2025-09-08T09:51:43Z</time>
      </trkpt>
      <trkpt lat="48.09518" lon="7.21515">
        <ele>716</ele>
        <time>2025-09-08T09:51:44Z</time>
      </trkpt>
      <trkpt lat="48.09512" lon="7.21515">
        <ele>715.8</ele>
        <time>2025-09-08T09:51:45Z</time>
      </trkpt>
      <trkpt lat="48.09507" lon="7.21514">
        <ele>715.4</ele>
        <time>2025-09-08T09:51:46Z</time>
      </trkpt>
      <trkpt lat="48.09502" lon="7.21516">
        <ele>715</ele>
        <time>2025-09-08T09:51:47Z</time>
      </trkpt>
      <trkpt lat="48.09498" lon="7.21519">
        <ele>714.6</ele>
        <time>2025-09-08T09:51:48Z</time>
      </trkpt>
      <trkpt lat="48.09496" lon="7.21524">
        <ele>714.2</ele>
        <time>2025-09-08T09:51:49Z</time>
      </trkpt>
      <trkpt lat="48.09495" lon="7.21529">
        <ele>714</ele>
        <time>2025-09-08T09:51:50Z</time>
      </trkpt>
      <trkpt lat="48.09494" lon="7.21535">
        <ele>713.6</ele>
        <time>2025-09-08T09:51:51Z</time>
      </trkpt>
      <trkpt lat="48.09493" lon="7.2154">
        <ele>713.2</ele>
        <time>2025-09-08T09:51:52Z</time>
      </trkpt>
      <trkpt lat="48.09492" lon="7.21546">
        <ele>713</ele>
        <time>2025-09-08T09:51:53Z</time>
      </trkpt>
      <trkpt lat="48.09491" lon="7.21552">
        <ele>712.6</ele>
        <time>2025-09-08T09:51:54Z</time>
      </trkpt>
      <trkpt lat="48.09492" lon="7.21559">
        <ele>712.4</ele>
        <time>2025-09-08T09:51:55Z</time>
      </trkpt>
      <trkpt lat="48.09493" lon="7.21566">
        <ele>712</ele>
        <time>2025-09-08T09:51:56Z</time>
      </trkpt>
      <trkpt lat="48.09494" lon="7.21573">
        <ele>711.6</ele>
        <time>2025-09-08T09:51:57Z</time>
      </trkpt>
      <trkpt lat="48.09494" lon="7.2158">
        <ele>711.2</ele>
        <time>2025-09-08T09:51:58Z</time>
      </trkpt>
      <trkpt lat="48.09495" lon="7.21587">
        <ele>711</ele>
        <time>2025-09-08T09:51:59Z</time>
      </trkpt>
      <trkpt lat="48.09496" lon="7.21595">
        <ele>710.6</ele>
        <time>2025-09-08T09:52:00Z</time>
      </trkpt>
      <trkpt lat="48.09496" lon="7.21603">
        <ele>710.4</ele>
        <time>2025-09-08T09:52:01Z</time>
      </trkpt>
      <trkpt lat="48.09497" lon="7.21611">
        <ele>710.2</ele>
        <time>2025-09-08T09:52:02Z</time>
      </trkpt>
      <trkpt lat="48.09498" lon="7.21619">
        <ele>709.8</ele>
        <time>2025-09-08T09:52:03Z</time>
      </trkpt>
      <trkpt lat="48.09499" lon="7.21628">
        <ele>709.6</ele>
        <time>2025-09-08T09:52:04Z</time>
      </trkpt>
      <trkpt lat="48.095" lon="7.21636">
        <ele>709.2</ele>
        <time>2025-09-08T09:52:05Z</time>
      </trkpt>
      <trkpt lat="48.09501" lon="7.21645">
        <ele>709</ele>
        <time>2025-09-08T09:52:06Z</time>
      </trkpt>
      <trkpt lat="48.09502" lon="7.21654">
        <ele>708.8</ele>
        <time>2025-09-08T09:52:07Z</time>
      </trkpt>
      <trkpt lat="48.09501" lon="7.21662">
        <ele>708.4</ele>
        <time>2025-09-08T09:52:08Z</time>
      </trkpt>
      <trkpt lat="48.095" lon="7.2167">
        <ele>708.2</ele>
        <time>2025-09-08T09:52:09Z</time>
      </trkpt>
      <trkpt lat="48.095" lon="7.21678">
        <ele>708</ele>
        <time>2025-09-08T09:52:10Z</time>
      </trkpt>
      <trkpt lat="48.09501" lon="7.21685">
        <ele>707.4</ele>
        <time>2025-09-08T09:52:11Z</time>
      </trkpt>
      <trkpt lat="48.09504" lon="7.21693">
        <ele>707.2</ele>
        <time>2025-09-08T09:52:12Z</time>
      </trkpt>
      <trkpt lat="48.09508" lon="7.21699">
        <ele>706.8</ele>
        <time>2025-09-08T09:52:13Z</time>
      </trkpt>
      <trkpt lat="48.09511" lon="7.21707">
        <ele>706.4</ele>
        <time>2025-09-08T09:52:14Z</time>
      </trkpt>
      <trkpt lat="48.09514" lon="7.21715">
        <ele>705.6</ele>
        <time>2025-09-08T09:52:15Z</time>
      </trkpt>
      <trkpt lat="48.09515" lon="7.21723">
        <ele>705.4</ele>
        <time>2025-09-08T09:52:16Z</time>
      </trkpt>
      <trkpt lat="48.09517" lon="7.21732">
        <ele>705</ele>
        <time>2025-09-08T09:52:17Z</time>
      </trkpt>
      <trkpt lat="48.09517" lon="7.2174">
        <ele>704.2</ele>
        <time>2025-09-08T09:52:18Z</time>
      </trkpt>
      <trkpt lat="48.09516" lon="7.21749">
        <ele>703.8</ele>
        <time>2025-09-08T09:52:19Z</time>
      </trkpt>
      <trkpt lat="48.09515" lon="7.21758">
        <ele>703.6</ele>
        <time>2025-09-08T09:52:20Z</time>
      </trkpt>
      <trkpt lat="48.09516" lon="7.21768">
        <ele>703.2</ele>
        <time>2025-09-08T09:52:21Z</time>
      </trkpt>
      <trkpt lat="48.09518" lon="7.21778">
        <ele>702.8</ele>
        <time>2025-09-08T09:52:22Z</time>
      </trkpt>
      <trkpt lat="48.09522" lon="7.21788">
        <ele>702.2</ele>
        <time>2025-09-08T09:52:23Z</time>
      </trkpt>
      <trkpt lat="48.09527" lon="7.21795">
        <ele>701</ele>
        <time>2025-09-08T09:52:24Z</time>
      </trkpt>
      <trkpt lat="48.09533" lon="7.21801">
        <ele>700.2</ele>
        <time>2025-09-08T09:52:25Z</time>
      </trkpt>
      <trkpt lat="48.09539" lon="7.21806">
        <ele>699.2</ele>
        <time>2025-09-08T09:52:26Z</time>
      </trkpt>
      <trkpt lat="48.09545" lon="7.21813">
        <ele>698.8</ele>
        <time>2025-09-08T09:52:27Z</time>
      </trkpt>
      <trkpt lat="48.09549" lon="7.21819">
        <ele>697.6</ele>
        <time>2025-09-08T09:52:28Z</time>
      </trkpt>
      <trkpt lat="48.09554" lon="7.21827">
        <ele>697.2</ele>
        <time>2025-09-08T09:52:29Z</time>
      </trkpt>
      <trkpt lat="48.09559" lon="7.21834">
        <ele>697</ele>
        <time>2025-09-08T09:52:30Z</time>
      </trkpt>
      <trkpt lat="48.09563" lon="7.2184">
        <ele>696.8</ele>
        <time>2025-09-08T09:52:31Z</time>
      </trkpt>
      <trkpt lat="48.09569" lon="7.21846">
        <ele>696.2</ele>
        <time>2025-09-08T09:52:32Z</time>
      </trkpt>
      <trkpt lat="48.09575" lon="7.2185">
        <ele>696.2</ele>
        <time>2025-09-08T09:52:33Z</time>
      </trkpt>
      <trkpt lat="48.0958" lon="7.21854">
        <ele>695.8</ele>
        <time>2025-09-08T09:52:34Z</time>
      </trkpt>
      <trkpt lat="48.09586" lon="7.21857">
        <ele>695.6</ele>
        <time>2025-09-08T09:52:35Z</time>
      </trkpt>
      <trkpt lat="48.0959" lon="7.21863">
        <ele>695.6</ele>
        <time>2025-09-08T09:52:36Z</time>
      </trkpt>
      <trkpt lat="48.09593" lon="7.21868">
        <ele>695.6</ele>
        <time>2025-09-08T09:52:37Z</time>
      </trkpt>
      <trkpt lat="48.09597" lon="7.21875">
        <ele>695.4</ele>
        <time>2025-09-08T09:52:38Z</time>
      </trkpt>
      <trkpt lat="48.09602" lon="7.21881">
        <ele>695.4</ele>
        <time>2025-09-08T09:52:39Z</time>
      </trkpt>
      <trkpt lat="48.09606" lon="7.21887">
        <ele>695.2</ele>
        <time>2025-09-08T09:52:40Z</time>
      </trkpt>
      <trkpt lat="48.09612" lon="7.21892">
        <ele>695.2</ele>
        <time>2025-09-08T09:52:41Z</time>
      </trkpt>
      <trkpt lat="48.09617" lon="7.21896">
        <ele>695</ele>
        <time>2025-09-08T09:52:42Z</time>
      </trkpt>
      <trkpt lat="48.09622" lon="7.21898">
        <ele>694.8</ele>
        <time>2025-09-08T09:52:43Z</time>
      </trkpt>
      <trkpt lat="48.09625" lon="7.21899">
        <ele>694.6</ele>
        <time>2025-09-08T09:52:44Z</time>
      </trkpt>
      <trkpt lat="48.09627" lon="7.21901">
        <ele>694</ele>
        <time>2025-09-08T09:52:45Z</time>
      </trkpt>
      <trkpt lat="48.09629" lon="7.21902">
        <ele>693.8</ele>
        <time>2025-09-08T09:52:46Z</time>
      </trkpt>
      <trkpt lat="48.09631" lon="7.21905">
        <ele>693.6</ele>
        <time>2025-09-08T09:52:47Z</time>
      </trkpt>
      <trkpt lat="48.09632" lon="7.21909">
        <ele>693.6</ele>
        <time>2025-09-08T09:52:48Z</time>
      </trkpt>
      <trkpt lat="48.09633" lon="7.21913">
        <ele>693.6</ele>
        <time>2025-09-08T09:52:49Z</time>
      </trkpt>
      <trkpt lat="48.09634" lon="7.21919">
        <ele>693.4</ele>
        <time>2025-09-08T09:52:50Z</time>
      </trkpt>
      <trkpt lat="48.09635" lon="7.21925">
        <ele>693.2</ele>
        <time>2025-09-08T09:52:51Z</time>
      </trkpt>
      <trkpt lat="48.09636" lon="7.21932">
        <ele>692.6</ele>
        <time>2025-09-08T09:52:52Z</time>
      </trkpt>
      <trkpt lat="48.09638" lon="7.21939">
        <ele>692.4</ele>
        <time>2025-09-08T09:52:53Z</time>
      </trkpt>
      <trkpt lat="48.09638" lon="7.21945">
        <ele>691.4</ele>
        <time>2025-09-08T09:52:54Z</time>
      </trkpt>
      <trkpt lat="48.09639" lon="7.21951">
        <ele>691.2</ele>
        <time>2025-09-08T09:52:55Z</time>
      </trkpt>
      <trkpt lat="48.09639" lon="7.21956">
        <ele>690.8</ele>
        <time>2025-09-08T09:52:56Z</time>
      </trkpt>
      <trkpt lat="48.09639" lon="7.21962">
        <ele>689.4</ele>
        <time>2025-09-08T09:52:57Z</time>
      </trkpt>
      <trkpt lat="48.0964" lon="7.21969">
        <ele>689.2</ele>
        <time>2025-09-08T09:52:58Z</time>
      </trkpt>
      <trkpt lat="48.0964" lon="7.21974">
        <ele>688.6</ele>
        <time>2025-09-08T09:52:59Z</time>
      </trkpt>
      <trkpt lat="48.0964" lon="7.21979">
        <ele>688</ele>
        <time>2025-09-08T09:53:00Z</time>
      </trkpt>
      <trkpt lat="48.0964" lon="7.21983">
        <ele>687</ele>
        <time>2025-09-08T09:53:01Z</time>
      </trkpt>
      <trkpt lat="48.0964" lon="7.21987">
        <ele>686</ele>
        <time>2025-09-08T09:53:02Z</time>
      </trkpt>
      <trkpt lat="48.0964" lon="7.21991">
        <ele>685.4</ele>
        <time>2025-09-08T09:53:03Z</time>
      </trkpt>
      <trkpt lat="48.09641" lon="7.21993">
        <ele>685</ele>
        <time>2025-09-08T09:53:04Z</time>
      </trkpt>
      <trkpt lat="48.09643" lon="7.21993">
        <ele>684.6</ele>
        <time>2025-09-08T09:53:05Z</time>
      </trkpt>
      <trkpt lat="48.09645" lon="7.2199">
        <ele>684.2</ele>
        <time>2025-09-08T09:53:06Z</time>
      </trkpt>
      <trkpt lat="48.09646" lon="7.21986">
        <ele>683.4</ele>
        <time>2025-09-08T09:53:07Z</time>
      </trkpt>
      <trkpt lat="48.09649" lon="7.21984">
        <ele>683</ele>
        <time>2025-09-08T09:53:08Z</time>
      </trkpt>
      <trkpt lat="48.09651" lon="7.21986">
        <ele>682.6</ele>
        <time>2025-09-08T09:53:09Z</time>
      </trkpt>
      <trkpt lat="48.09653" lon="7.21989">
        <ele>682.4</ele>
        <time>2025-09-08T09:53:10Z</time>
      </trkpt>
      <trkpt lat="48.09657" lon="7.21992">
        <ele>681.6</ele>
        <time>2025-09-08T09:53:11Z</time>
      </trkpt>
      <trkpt lat="48.0966" lon="7.21996">
        <ele>681.2</ele>
        <time>2025-09-08T09:53:12Z</time>
      </trkpt>
      <trkpt lat="48.09664" lon="7.22">
        <ele>680.4</ele>
        <time>2025-09-08T09:53:13Z</time>
      </trkpt>
      <trkpt lat="48.09669" lon="7.22003">
        <ele>679.8</ele>
        <time>2025-09-08T09:53:14Z</time>
      </trkpt>
      <trkpt lat="48.09672" lon="7.22008">
        <ele>679.2</ele>
        <time>2025-09-08T09:53:15Z</time>
      </trkpt>
      <trkpt lat="48.09675" lon="7.22014">
        <ele>678.2</ele>
        <time>2025-09-08T09:53:16Z</time>
      </trkpt>
      <trkpt lat="48.09677" lon="7.2202">
        <ele>677.2</ele>
        <time>2025-09-08T09:53:17Z</time>
      </trkpt>
      <trkpt lat="48.0968" lon="7.22025">
        <ele>676.2</ele>
        <time>2025-09-08T09:53:18Z</time>
      </trkpt>
      <trkpt lat="48.09682" lon="7.22031">
        <ele>675.6</ele>
        <time>2025-09-08T09:53:19Z</time>
      </trkpt>
      <trkpt lat="48.09685" lon="7.22037">
        <ele>675.4</ele>
        <time>2025-09-08T09:53:20Z</time>
      </trkpt>
      <trkpt lat="48.09687" lon="7.22044">
        <ele>674.8</ele>
        <time>2025-09-08T09:53:21Z</time>
      </trkpt>
      <trkpt lat="48.09688" lon="7.22049">
        <ele>673.6</ele>
        <time>2025-09-08T09:53:22Z</time>
      </trkpt>
      <trkpt lat="48.09691" lon="7.22054">
        <ele>672.8</ele>
        <time>2025-09-08T09:53:23Z</time>
      </trkpt>
      <trkpt lat="48.09693" lon="7.22059">
        <ele>671.8</ele>
        <time>2025-09-08T09:53:24Z</time>
      </trkpt>
      <trkpt lat="48.09693" lon="7.22064">
        <ele>671.4</ele>
        <time>2025-09-08T09:53:25Z</time>
      </trkpt>
      <trkpt lat="48.09695" lon="7.2207">
        <ele>670.4</ele>
        <time>2025-09-08T09:53:26Z</time>
      </trkpt>
      <trkpt lat="48.09695" lon="7.22077">
        <ele>669.6</ele>
        <time>2025-09-08T09:53:27Z</time>
      </trkpt>
      <trkpt lat="48.09697" lon="7.22083">
        <ele>669.2</ele>
        <time>2025-09-08T09:53:28Z</time>
      </trkpt>
      <trkpt lat="48.09698" lon="7.2209">
        <ele>668.2</ele>
        <time>2025-09-08T09:53:29Z</time>
      </trkpt>
      <trkpt lat="48.09699" lon="7.22096">
        <ele>667.4</ele>
        <time>2025-09-08T09:53:30Z</time>
      </trkpt>
      <trkpt lat="48.09702" lon="7.22099">
        <ele>666.4</ele>
        <time>2025-09-08T09:53:31Z</time>
      </trkpt>
      <trkpt lat="48.09706" lon="7.22101">
        <ele>665.6</ele>
        <time>2025-09-08T09:53:32Z</time>
      </trkpt>
      <trkpt lat="48.0971" lon="7.22103">
        <ele>664.6</ele>
        <time>2025-09-08T09:53:33Z</time>
      </trkpt>
      <trkpt lat="48.09715" lon="7.22105">
        <ele>663.8</ele>
        <time>2025-09-08T09:53:34Z</time>
      </trkpt>
      <trkpt lat="48.0972" lon="7.22108">
        <ele>663.6</ele>
        <time>2025-09-08T09:53:35Z</time>
      </trkpt>
      <trkpt lat="48.09725" lon="7.22112">
        <ele>662.6</ele>
        <time>2025-09-08T09:53:36Z</time>
      </trkpt>
      <trkpt lat="48.0973" lon="7.22119">
        <ele>662</ele>
        <time>2025-09-08T09:53:37Z</time>
      </trkpt>
      <trkpt lat="48.09735" lon="7.22126">
        <ele>661.6</ele>
        <time>2025-09-08T09:53:38Z</time>
      </trkpt>
      <trkpt lat="48.09739" lon="7.22131">
        <ele>660.6</ele>
        <time>2025-09-08T09:53:39Z</time>
      </trkpt>
      <trkpt lat="48.09743" lon="7.22136">
        <ele>659.4</ele>
        <time>2025-09-08T09:53:40Z</time>
      </trkpt>
      <trkpt lat="48.09746" lon="7.22141">
        <ele>658.8</ele>
        <time>2025-09-08T09:53:41Z</time>
      </trkpt>
      <trkpt lat="48.09749" lon="7.22145">
        <ele>658.6</ele>
        <time>2025-09-08T09:53:42Z</time>
      </trkpt>
      <trkpt lat="48.09752" lon="7.2215">
        <ele>658.4</ele>
        <time>2025-09-08T09:53:43Z</time>
      </trkpt>
      <trkpt lat="48.09754" lon="7.22155">
        <ele>658.4</ele>
        <time>2025-09-08T09:53:44Z</time>
      </trkpt>
      <trkpt lat="48.09757" lon="7.22159">
        <ele>658.2</ele>
        <time>2025-09-08T09:53:45Z</time>
      </trkpt>
      <trkpt lat="48.09759" lon="7.22163">
        <ele>658.4</ele>
        <time>2025-09-08T09:53:46Z</time>
      </trkpt>
      <trkpt lat="48.0976" lon="7.22166">
        <ele>658.4</ele>
        <time>2025-09-08T09:53:47Z</time>
      </trkpt>
      <trkpt lat="48.09761" lon="7.22168">
        <ele>658.4</ele>
        <time>2025-09-08T09:53:48Z</time>
      </trkpt>
      <trkpt lat="48.09762" lon="7.22171">
        <ele>658.4</ele>
        <time>2025-09-08T09:53:49Z</time>
      </trkpt>
      <trkpt lat="48.09762" lon="7.22174">
        <ele>658.6</ele>
        <time>2025-09-08T09:53:50Z</time>
      </trkpt>
      <trkpt lat="48.09763" lon="7.22177">
        <ele>658.8</ele>
        <time>2025-09-08T09:53:51Z</time>
      </trkpt>
      <trkpt lat="48.09763" lon="7.22181">
        <ele>659.2</ele>
        <time>2025-09-08T09:53:52Z</time>
      </trkpt>
      <trkpt lat="48.09764" lon="7.22185">
        <ele>659.2</ele>
        <time>2025-09-08T09:53:53Z</time>
      </trkpt>
      <trkpt lat="48.09764" lon="7.2219">
        <ele>659.4</ele>
        <time>2025-09-08T09:53:54Z</time>
      </trkpt>
      <trkpt lat="48.09764" lon="7.22194">
        <ele>659.4</ele>
        <time>2025-09-08T09:53:55Z</time>
      </trkpt>
      <trkpt lat="48.09765" lon="7.22199">
        <ele>659.4</ele>
        <time>2025-09-08T09:53:56Z</time>
      </trkpt>
      <trkpt lat="48.09766" lon="7.22204">
        <ele>659.4</ele>
        <time>2025-09-08T09:53:57Z</time>
      </trkpt>
      <trkpt lat="48.09768" lon="7.2221">
        <ele>659.4</ele>
        <time>2025-09-08T09:53:58Z</time>
      </trkpt>
      <trkpt lat="48.09769" lon="7.22215">
        <ele>659.4</ele>
        <time>2025-09-08T09:53:59Z</time>
      </trkpt>
      <trkpt lat="48.0977" lon="7.22222">
        <ele>659.4</ele>
        <time>2025-09-08T09:54:00Z</time>
      </trkpt>
      <trkpt lat="48.09771" lon="7.22228">
        <ele>659.4</ele>
        <time>2025-09-08T09:54:01Z</time>
      </trkpt>
      <trkpt lat="48.09773" lon="7.22233">
        <ele>659.4</ele>
        <time>2025-09-08T09:54:02Z</time>
      </trkpt>
      <trkpt lat="48.09774" lon="7.22238">
        <ele>659.4</ele>
        <time>2025-09-08T09:54:03Z</time>
      </trkpt>
      <trkpt lat="48.09776" lon="7.22244">
        <ele>659.4</ele>
        <time>2025-09-08T09:54:04Z</time>
      </trkpt>
      <trkpt lat="48.09778" lon="7.2225">
        <ele>659.4</ele>
        <time>2025-09-08T09:54:05Z</time>
      </trkpt>
      <trkpt lat="48.09781" lon="7.22255">
        <ele>659.4</ele>
        <time>2025-09-08T09:54:06Z</time>
      </trkpt>
      <trkpt lat="48.09784" lon="7.22261">
        <ele>659.4</ele>
        <time>2025-09-08T09:54:07Z</time>
      </trkpt>
      <trkpt lat="48.09788" lon="7.22267">
        <ele>659.4</ele>
        <time>2025-09-08T09:54:08Z</time>
      </trkpt>
      <trkpt lat="48.0979" lon="7.22274">
        <ele>659.4</ele>
        <time>2025-09-08T09:54:09Z</time>
      </trkpt>
      <trkpt lat="48.09791" lon="7.2228">
        <ele>659.4</ele>
        <time>2025-09-08T09:54:10Z</time>
      </trkpt>
      <trkpt lat="48.0979" lon="7.22286">
        <ele>659.2</ele>
        <time>2025-09-08T09:54:11Z</time>
      </trkpt>
      <trkpt lat="48.0979" lon="7.22292">
        <ele>659</ele>
        <time>2025-09-08T09:54:12Z</time>
      </trkpt>
      <trkpt lat="48.09789" lon="7.22299">
        <ele>658.8</ele>
        <time>2025-09-08T09:54:13Z</time>
      </trkpt>
      <trkpt lat="48.09787" lon="7.22304">
        <ele>658.6</ele>
        <time>2025-09-08T09:54:14Z</time>
      </trkpt>
      <trkpt lat="48.09786" lon="7.22307">
        <ele>658.6</ele>
        <time>2025-09-08T09:54:15Z</time>
      </trkpt>
      <trkpt lat="48.09783" lon="7.22311">
        <ele>658.4</ele>
        <time>2025-09-08T09:54:16Z</time>
      </trkpt>
      <trkpt lat="48.09781" lon="7.22314">
        <ele>658.2</ele>
        <time>2025-09-08T09:54:17Z</time>
      </trkpt>
      <trkpt lat="48.09779" lon="7.22317">
        <ele>658.2</ele>
        <time>2025-09-08T09:54:18Z</time>
      </trkpt>
      <trkpt lat="48.09776" lon="7.2232">
        <ele>658.2</ele>
        <time>2025-09-08T09:54:19Z</time>
      </trkpt>
      <trkpt lat="48.09774" lon="7.22321">
        <ele>658</ele>
        <time>2025-09-08T09:54:20Z</time>
      </trkpt>
      <trkpt lat="48.09773" lon="7.22324">
        <ele>658</ele>
        <time>2025-09-08T09:54:21Z</time>
      </trkpt>
      <trkpt lat="48.09772" lon="7.22326">
        <ele>657.8</ele>
        <time>2025-09-08T09:54:22Z</time>
      </trkpt>
      <trkpt lat="48.09772" lon="7.22327">
        <ele>657.8</ele>
        <time>2025-09-08T09:54:23Z</time>
      </trkpt>
      <trkpt lat="48.09772" lon="7.22328">
        <ele>657.8</ele>
        <time>2025-09-08T09:54:24Z</time>
      </trkpt>
      <trkpt lat="48.09771" lon="7.22329">
        <ele>657.8</ele>
        <time>2025-09-08T09:54:25Z</time>
      </trkpt>
      <trkpt lat="48.09769" lon="7.2233">
        <ele>657.8</ele>
        <time>2025-09-08T09:54:26Z</time>
      </trkpt>
      <trkpt lat="48.09768" lon="7.22332">
        <ele>657.8</ele>
        <time>2025-09-08T09:54:27Z</time>
      </trkpt>
      <trkpt lat="48.09767" lon="7.22336">
        <ele>657.8</ele>
        <time>2025-09-08T09:54:28Z</time>
      </trkpt>
      <trkpt lat="48.09766" lon="7.22342">
        <ele>657.6</ele>
        <time>2025-09-08T09:54:29Z</time>
      </trkpt>
      <trkpt lat="48.09764" lon="7.22346">
        <ele>657.6</ele>
        <time>2025-09-08T09:54:30Z</time>
      </trkpt>
      <trkpt lat="48.09762" lon="7.22352">
        <ele>657.4</ele>
        <time>2025-09-08T09:54:31Z</time>
      </trkpt>
      <trkpt lat="48.0976" lon="7.22358">
        <ele>657.2</ele>
        <time>2025-09-08T09:54:32Z</time>
      </trkpt>
      <trkpt lat="48.09759" lon="7.22364">
        <ele>657</ele>
        <time>2025-09-08T09:54:33Z</time>
      </trkpt>
      <trkpt lat="48.09758" lon="7.2237">
        <ele>656.8</ele>
        <time>2025-09-08T09:54:34Z</time>
      </trkpt>
      <trkpt lat="48.09757" lon="7.22377">
        <ele>656.8</ele>
        <time>2025-09-08T09:54:35Z</time>
      </trkpt>
      <trkpt lat="48.09756" lon="7.22384">
        <ele>656.6</ele>
        <time>2025-09-08T09:54:36Z</time>
      </trkpt>
      <trkpt lat="48.09755" lon="7.22391">
        <ele>656.4</ele>
        <time>2025-09-08T09:54:37Z</time>
      </trkpt>
      <trkpt lat="48.09753" lon="7.224">
        <ele>656.2</ele>
        <time>2025-09-08T09:54:38Z</time>
      </trkpt>
      <trkpt lat="48.09751" lon="7.22408">
        <ele>656</ele>
        <time>2025-09-08T09:54:39Z</time>
      </trkpt>
      <trkpt lat="48.09749" lon="7.22415">
        <ele>655.8</ele>
        <time>2025-09-08T09:54:40Z</time>
      </trkpt>
      <trkpt lat="48.09749" lon="7.22424">
        <ele>655.8</ele>
        <time>2025-09-08T09:54:41Z</time>
      </trkpt>
      <trkpt lat="48.09748" lon="7.22432">
        <ele>655.8</ele>
        <time>2025-09-08T09:54:42Z</time>
      </trkpt>
      <trkpt lat="48.09748" lon="7.22439">
        <ele>655.8</ele>
        <time>2025-09-08T09:54:43Z</time>
      </trkpt>
      <trkpt lat="48.09747" lon="7.22446">
        <ele>655.8</ele>
        <time>2025-09-08T09:54:44Z</time>
      </trkpt>
      <trkpt lat="48.09747" lon="7.22453">
        <ele>655.8</ele>
        <time>2025-09-08T09:54:45Z</time>
      </trkpt>
      <trkpt lat="48.09747" lon="7.2246">
        <ele>656</ele>
        <time>2025-09-08T09:54:46Z</time>
      </trkpt>
      <trkpt lat="48.09746" lon="7.22467">
        <ele>656.4</ele>
        <time>2025-09-08T09:54:47Z</time>
      </trkpt>
      <trkpt lat="48.09745" lon="7.22474">
        <ele>656.4</ele>
        <time>2025-09-08T09:54:48Z</time>
      </trkpt>
      <trkpt lat="48.09745" lon="7.2248">
        <ele>656.6</ele>
        <time>2025-09-08T09:54:49Z</time>
      </trkpt>
      <trkpt lat="48.09744" lon="7.22485">
        <ele>656.6</ele>
        <time>2025-09-08T09:54:50Z</time>
      </trkpt>
      <trkpt lat="48.09744" lon="7.22491">
        <ele>656.8</ele>
        <time>2025-09-08T09:54:51Z</time>
      </trkpt>
      <trkpt lat="48.09744" lon="7.22495">
        <ele>656.8</ele>
        <time>2025-09-08T09:54:52Z</time>
      </trkpt>
      <trkpt lat="48.09746" lon="7.22501">
        <ele>656.8</ele>
        <time>2025-09-08T09:54:53Z</time>
      </trkpt>
      <trkpt lat="48.09748" lon="7.22506">
        <ele>656.8</ele>
        <time>2025-09-08T09:54:54Z</time>
      </trkpt>
      <trkpt lat="48.0975" lon="7.22512">
        <ele>656.8</ele>
        <time>2025-09-08T09:54:55Z</time>
      </trkpt>
      <trkpt lat="48.09753" lon="7.22518">
        <ele>656.8</ele>
        <time>2025-09-08T09:54:56Z</time>
      </trkpt>
      <trkpt lat="48.09754" lon="7.22525">
        <ele>656.6</ele>
        <time>2025-09-08T09:54:57Z</time>
      </trkpt>
      <trkpt lat="48.09755" lon="7.22531">
        <ele>656.6</ele>
        <time>2025-09-08T09:54:58Z</time>
      </trkpt>
      <trkpt lat="48.09756" lon="7.22539">
        <ele>656.4</ele>
        <time>2025-09-08T09:54:59Z</time>
      </trkpt>
      <trkpt lat="48.09757" lon="7.22546">
        <ele>656.4</ele>
        <time>2025-09-08T09:55:00Z</time>
      </trkpt>
      <trkpt lat="48.09758" lon="7.22553">
        <ele>656.4</ele>
        <time>2025-09-08T09:55:01Z</time>
      </trkpt>
      <trkpt lat="48.09759" lon="7.22561">
        <ele>656.2</ele>
        <time>2025-09-08T09:55:02Z</time>
      </trkpt>
      <trkpt lat="48.09759" lon="7.22568">
        <ele>656.2</ele>
        <time>2025-09-08T09:55:03Z</time>
      </trkpt>
      <trkpt lat="48.09758" lon="7.22575">
        <ele>656.2</ele>
        <time>2025-09-08T09:55:04Z</time>
      </trkpt>
      <trkpt lat="48.09758" lon="7.22582">
        <ele>656.2</ele>
        <time>2025-09-08T09:55:05Z</time>
      </trkpt>
      <trkpt lat="48.09757" lon="7.22588">
        <ele>656.2</ele>
        <time>2025-09-08T09:55:06Z</time>
      </trkpt>
      <trkpt lat="48.09756" lon="7.22595">
        <ele>656.2</ele>
        <time>2025-09-08T09:55:07Z</time>
      </trkpt>
      <trkpt lat="48.09756" lon="7.22602">
        <ele>656.2</ele>
        <time>2025-09-08T09:55:08Z</time>
      </trkpt>
      <trkpt lat="48.09755" lon="7.22608">
        <ele>656.2</ele>
        <time>2025-09-08T09:55:09Z</time>
      </trkpt>
      <trkpt lat="48.09754" lon="7.22616">
        <ele>656.4</ele>
        <time>2025-09-08T09:55:10Z</time>
      </trkpt>
      <trkpt lat="48.09752" lon="7.22623">
        <ele>656.4</ele>
        <time>2025-09-08T09:55:11Z</time>
      </trkpt>
      <trkpt lat="48.09751" lon="7.22631">
        <ele>656.4</ele>
        <time>2025-09-08T09:55:12Z</time>
      </trkpt>
      <trkpt lat="48.0975" lon="7.22638">
        <ele>656.4</ele>
        <time>2025-09-08T09:55:13Z</time>
      </trkpt>
      <trkpt lat="48.09749" lon="7.22645">
        <ele>656.4</ele>
        <time>2025-09-08T09:55:14Z</time>
      </trkpt>
      <trkpt lat="48.09747" lon="7.22652">
        <ele>656.6</ele>
        <time>2025-09-08T09:55:15Z</time>
      </trkpt>
      <trkpt lat="48.09746" lon="7.22659">
        <ele>656.6</ele>
        <time>2025-09-08T09:55:16Z</time>
      </trkpt>
      <trkpt lat="48.09744" lon="7.22665">
        <ele>656.6</ele>
        <time>2025-09-08T09:55:17Z</time>
      </trkpt>
      <trkpt lat="48.09742" lon="7.22672">
        <ele>656.6</ele>
        <time>2025-09-08T09:55:18Z</time>
      </trkpt>
      <trkpt lat="48.0974" lon="7.22679">
        <ele>656.6</ele>
        <time>2025-09-08T09:55:19Z</time>
      </trkpt>
      <trkpt lat="48.09737" lon="7.22685">
        <ele>656.6</ele>
        <time>2025-09-08T09:55:20Z</time>
      </trkpt>
      <trkpt lat="48.09732" lon="7.22691">
        <ele>656.6</ele>
        <time>2025-09-08T09:55:21Z</time>
      </trkpt>
      <trkpt lat="48.09728" lon="7.22698">
        <ele>656.6</ele>
        <time>2025-09-08T09:55:22Z</time>
      </trkpt>
      <trkpt lat="48.09724" lon="7.22704">
        <ele>656.4</ele>
        <time>2025-09-08T09:55:23Z</time>
      </trkpt>
      <trkpt lat="48.0972" lon="7.2271">
        <ele>656.4</ele>
        <time>2025-09-08T09:55:24Z</time>
      </trkpt>
      <trkpt lat="48.09717" lon="7.22717">
        <ele>656.4</ele>
        <time>2025-09-08T09:55:25Z</time>
      </trkpt>
      <trkpt lat="48.09715" lon="7.22725">
        <ele>656.2</ele>
        <time>2025-09-08T09:55:26Z</time>
      </trkpt>
      <trkpt lat="48.09713" lon="7.22733">
        <ele>656.2</ele>
        <time>2025-09-08T09:55:27Z</time>
      </trkpt>
      <trkpt lat="48.09712" lon="7.22741">
        <ele>656.2</ele>
        <time>2025-09-08T09:55:28Z</time>
      </trkpt>
      <trkpt lat="48.09709" lon="7.22748">
        <ele>656</ele>
        <time>2025-09-08T09:55:29Z</time>
      </trkpt>
      <trkpt lat="48.09707" lon="7.22755">
        <ele>656</ele>
        <time>2025-09-08T09:55:30Z</time>
      </trkpt>
      <trkpt lat="48.09704" lon="7.22762">
        <ele>656</ele>
        <time>2025-09-08T09:55:31Z</time>
      </trkpt>
      <trkpt lat="48.09701" lon="7.22769">
        <ele>656</ele>
        <time>2025-09-08T09:55:32Z</time>
      </trkpt>
      <trkpt lat="48.09696" lon="7.22775">
        <ele>656</ele>
        <time>2025-09-08T09:55:33Z</time>
      </trkpt>
      <trkpt lat="48.09691" lon="7.22781">
        <ele>656.2</ele>
        <time>2025-09-08T09:55:34Z</time>
      </trkpt>
      <trkpt lat="48.09687" lon="7.22786">
        <ele>656.2</ele>
        <time>2025-09-08T09:55:35Z</time>
      </trkpt>
      <trkpt lat="48.09682" lon="7.22791">
        <ele>656.2</ele>
        <time>2025-09-08T09:55:36Z</time>
      </trkpt>
      <trkpt lat="48.09678" lon="7.22797">
        <ele>656.2</ele>
        <time>2025-09-08T09:55:37Z</time>
      </trkpt>
      <trkpt lat="48.09674" lon="7.22802">
        <ele>656.2</ele>
        <time>2025-09-08T09:55:38Z</time>
      </trkpt>
      <trkpt lat="48.0967" lon="7.22807">
        <ele>656.2</ele>
        <time>2025-09-08T09:55:39Z</time>
      </trkpt>
      <trkpt lat="48.09666" lon="7.22811">
        <ele>656.4</ele>
        <time>2025-09-08T09:55:40Z</time>
      </trkpt>
      <trkpt lat="48.09663" lon="7.22816">
        <ele>656.4</ele>
        <time>2025-09-08T09:55:41Z</time>
      </trkpt>
      <trkpt lat="48.09659" lon="7.22821">
        <ele>656.4</ele>
        <time>2025-09-08T09:55:42Z</time>
      </trkpt>
      <trkpt lat="48.09655" lon="7.22827">
        <ele>656.2</ele>
        <time>2025-09-08T09:55:43Z</time>
      </trkpt>
      <trkpt lat="48.09652" lon="7.22833">
        <ele>656.2</ele>
        <time>2025-09-08T09:55:44Z</time>
      </trkpt>
      <trkpt lat="48.09649" lon="7.22839">
        <ele>656.2</ele>
        <time>2025-09-08T09:55:45Z</time>
      </trkpt>
      <trkpt lat="48.09646" lon="7.22844">
        <ele>656.2</ele>
        <time>2025-09-08T09:55:46Z</time>
      </trkpt>
      <trkpt lat="48.09642" lon="7.22849">
        <ele>656.4</ele>
        <time>2025-09-08T09:55:47Z</time>
      </trkpt>
      <trkpt lat="48.09639" lon="7.22854">
        <ele>656.4</ele>
        <time>2025-09-08T09:55:48Z</time>
      </trkpt>
      <trkpt lat="48.09636" lon="7.22859">
        <ele>656.4</ele>
        <time>2025-09-08T09:55:49Z</time>
      </trkpt>
      <trkpt lat="48.09633" lon="7.22865">
        <ele>656.2</ele>
        <time>2025-09-08T09:55:50Z</time>
      </trkpt>
      <trkpt lat="48.09632" lon="7.22872">
        <ele>656.2</ele>
        <time>2025-09-08T09:55:51Z</time>
      </trkpt>
      <trkpt lat="48.09632" lon="7.22879">
        <ele>656.4</ele>
        <time>2025-09-08T09:55:52Z</time>
      </trkpt>
      <trkpt lat="48.09632" lon="7.22887">
        <ele>656.2</ele>
        <time>2025-09-08T09:55:53Z</time>
      </trkpt>
      <trkpt lat="48.09632" lon="7.22893">
        <ele>656.2</ele>
        <time>2025-09-08T09:55:54Z</time>
      </trkpt>
      <trkpt lat="48.09633" lon="7.229">
        <ele>656.2</ele>
        <time>2025-09-08T09:55:55Z</time>
      </trkpt>
      <trkpt lat="48.09634" lon="7.22905">
        <ele>656.2</ele>
        <time>2025-09-08T09:55:56Z</time>
      </trkpt>
      <trkpt lat="48.09636" lon="7.2291">
        <ele>656.2</ele>
        <time>2025-09-08T09:55:57Z</time>
      </trkpt>
      <trkpt lat="48.0964" lon="7.22913">
        <ele>656.2</ele>
        <time>2025-09-08T09:55:58Z</time>
      </trkpt>
      <trkpt lat="48.09644" lon="7.22917">
        <ele>656.2</ele>
        <time>2025-09-08T09:55:59Z</time>
      </trkpt>
      <trkpt lat="48.09648" lon="7.22921">
        <ele>656.2</ele>
        <time>2025-09-08T09:56:00Z</time>
      </trkpt>
      <trkpt lat="48.09652" lon="7.22925">
        <ele>656</ele>
        <time>2025-09-08T09:56:01Z</time>
      </trkpt>
      <trkpt lat="48.09656" lon="7.2293">
        <ele>656</ele>
        <time>2025-09-08T09:56:02Z</time>
      </trkpt>
      <trkpt lat="48.0966" lon="7.22934">
        <ele>655.8</ele>
        <time>2025-09-08T09:56:03Z</time>
      </trkpt>
      <trkpt lat="48.09665" lon="7.22937">
        <ele>655.6</ele>
        <time>2025-09-08T09:56:04Z</time>
      </trkpt>
      <trkpt lat="48.09669" lon="7.2294">
        <ele>655.4</ele>
        <time>2025-09-08T09:56:05Z</time>
      </trkpt>
      <trkpt lat="48.09675" lon="7.22944">
        <ele>655.4</ele>
        <time>2025-09-08T09:56:06Z</time>
      </trkpt>
      <trkpt lat="48.0968" lon="7.22946">
        <ele>655.4</ele>
        <time>2025-09-08T09:56:07Z</time>
      </trkpt>
      <trkpt lat="48.09684" lon="7.22948">
        <ele>655.4</ele>
        <time>2025-09-08T09:56:08Z</time>
      </trkpt>
      <trkpt lat="48.09689" lon="7.2295">
        <ele>655.4</ele>
        <time>2025-09-08T09:56:09Z</time>
      </trkpt>
      <trkpt lat="48.09694" lon="7.22952">
        <ele>655.4</ele>
        <time>2025-09-08T09:56:10Z</time>
      </trkpt>
      <trkpt lat="48.09699" lon="7.22955">
        <ele>655.6</ele>
        <time>2025-09-08T09:56:11Z</time>
      </trkpt>
      <trkpt lat="48.09704" lon="7.22957">
        <ele>655.6</ele>
        <time>2025-09-08T09:56:12Z</time>
      </trkpt>
      <trkpt lat="48.09709" lon="7.22959">
        <ele>655.6</ele>
        <time>2025-09-08T09:56:13Z</time>
      </trkpt>
      <trkpt lat="48.09714" lon="7.2296">
        <ele>655.8</ele>
        <time>2025-09-08T09:56:14Z</time>
      </trkpt>
      <trkpt lat="48.09719" lon="7.22961">
        <ele>655.8</ele>
        <time>2025-09-08T09:56:15Z</time>
      </trkpt>
      <trkpt lat="48.09724" lon="7.22962">
        <ele>655.8</ele>
        <time>2025-09-08T09:56:16Z</time>
      </trkpt>
      <trkpt lat="48.09729" lon="7.22962">
        <ele>655.8</ele>
        <time>2025-09-08T09:56:17Z</time>
      </trkpt>
      <trkpt lat="48.09734" lon="7.22962">
        <ele>656</ele>
        <time>2025-09-08T09:56:18Z</time>
      </trkpt>
      <trkpt lat="48.09738" lon="7.22961">
        <ele>656</ele>
        <time>2025-09-08T09:56:19Z</time>
      </trkpt>
      <trkpt lat="48.09743" lon="7.22961">
        <ele>656</ele>
        <time>2025-09-08T09:56:20Z</time>
      </trkpt>
      <trkpt lat="48.09748" lon="7.22961">
        <ele>656</ele>
        <time>2025-09-08T09:56:21Z</time>
      </trkpt>
      <trkpt lat="48.09753" lon="7.2296">
        <ele>656</ele>
        <time>2025-09-08T09:56:22Z</time>
      </trkpt>
      <trkpt lat="48.09758" lon="7.2296">
        <ele>656</ele>
        <time>2025-09-08T09:56:23Z</time>
      </trkpt>
      <trkpt lat="48.09763" lon="7.22962">
        <ele>656</ele>
        <time>2025-09-08T09:56:24Z</time>
      </trkpt>
      <trkpt lat="48.09768" lon="7.22964">
        <ele>655.8</ele>
        <time>2025-09-08T09:56:25Z</time>
      </trkpt>
      <trkpt lat="48.09773" lon="7.22968">
        <ele>655.8</ele>
        <time>2025-09-08T09:56:26Z</time>
      </trkpt>
      <trkpt lat="48.09777" lon="7.22972">
        <ele>655.8</ele>
        <time>2025-09-08T09:56:27Z</time>
      </trkpt>
      <trkpt lat="48.09782" lon="7.22977">
        <ele>655.8</ele>
        <time>2025-09-08T09:56:28Z</time>
      </trkpt>
      <trkpt lat="48.09787" lon="7.22981">
        <ele>655.4</ele>
        <time>2025-09-08T09:56:29Z</time>
      </trkpt>
      <trkpt lat="48.0979" lon="7.22985">
        <ele>655.4</ele>
        <time>2025-09-08T09:56:30Z</time>
      </trkpt>
      <trkpt lat="48.09794" lon="7.22989">
        <ele>655.2</ele>
        <time>2025-09-08T09:56:31Z</time>
      </trkpt>
      <trkpt lat="48.09798" lon="7.22994">
        <ele>655.2</ele>
        <time>2025-09-08T09:56:32Z</time>
      </trkpt>
      <trkpt lat="48.09801" lon="7.22999">
        <ele>655.2</ele>
        <time>2025-09-08T09:56:33Z</time>
      </trkpt>
      <trkpt lat="48.09806" lon="7.23003">
        <ele>655.2</ele>
        <time>2025-09-08T09:56:34Z</time>
      </trkpt>
      <trkpt lat="48.0981" lon="7.23008">
        <ele>655.2</ele>
        <time>2025-09-08T09:56:35Z</time>
      </trkpt>
      <trkpt lat="48.09813" lon="7.23012">
        <ele>655.2</ele>
        <time>2025-09-08T09:56:36Z</time>
      </trkpt>
      <trkpt lat="48.09818" lon="7.23016">
        <ele>655</ele>
        <time>2025-09-08T09:56:37Z</time>
      </trkpt>
      <trkpt lat="48.09823" lon="7.23019">
        <ele>655</ele>
        <time>2025-09-08T09:56:38Z</time>
      </trkpt>
      <trkpt lat="48.09827" lon="7.23023">
        <ele>654.8</ele>
        <time>2025-09-08T09:56:39Z</time>
      </trkpt>
      <trkpt lat="48.09831" lon="7.23028">
        <ele>654.6</ele>
        <time>2025-09-08T09:56:40Z</time>
      </trkpt>
      <trkpt lat="48.09836" lon="7.23033">
        <ele>654.6</ele>
        <time>2025-09-08T09:56:41Z</time>
      </trkpt>
      <trkpt lat="48.0984" lon="7.23038">
        <ele>654.4</ele>
        <time>2025-09-08T09:56:42Z</time>
      </trkpt>
      <trkpt lat="48.09845" lon="7.23044">
        <ele>654.4</ele>
        <time>2025-09-08T09:56:43Z</time>
      </trkpt>
      <trkpt lat="48.0985" lon="7.23047">
        <ele>654.4</ele>
        <time>2025-09-08T09:56:44Z</time>
      </trkpt>
      <trkpt lat="48.09855" lon="7.2305">
        <ele>654.4</ele>
        <time>2025-09-08T09:56:45Z</time>
      </trkpt>
      <trkpt lat="48.09861" lon="7.23051">
        <ele>654.2</ele>
        <time>2025-09-08T09:56:46Z</time>
      </trkpt>
      <trkpt lat="48.09866" lon="7.2305">
        <ele>654.2</ele>
        <time>2025-09-08T09:56:47Z</time>
      </trkpt>
      <trkpt lat="48.0987" lon="7.23051">
        <ele>654.2</ele>
        <time>2025-09-08T09:56:48Z</time>
      </trkpt>
      <trkpt lat="48.09875" lon="7.23053">
        <ele>654.4</ele>
        <time>2025-09-08T09:56:49Z</time>
      </trkpt>
      <trkpt lat="48.09879" lon="7.23054">
        <ele>654.4</ele>
        <time>2025-09-08T09:56:50Z</time>
      </trkpt>
      <trkpt lat="48.09883" lon="7.23055">
        <ele>654.8</ele>
        <time>2025-09-08T09:56:51Z</time>
      </trkpt>
      <trkpt lat="48.09887" lon="7.23057">
        <ele>654.8</ele>
        <time>2025-09-08T09:56:52Z</time>
      </trkpt>
      <trkpt lat="48.0989" lon="7.23058">
        <ele>654.8</ele>
        <time>2025-09-08T09:56:53Z</time>
      </trkpt>
      <trkpt lat="48.09894" lon="7.23059">
        <ele>655</ele>
        <time>2025-09-08T09:56:54Z</time>
      </trkpt>
      <trkpt lat="48.09896" lon="7.2306">
        <ele>655</ele>
        <time>2025-09-08T09:56:55Z</time>
      </trkpt>
      <trkpt lat="48.09898" lon="7.23061">
        <ele>655</ele>
        <time>2025-09-08T09:56:56Z</time>
      </trkpt>
      <trkpt lat="48.099" lon="7.23063">
        <ele>655.2</ele>
        <time>2025-09-08T09:56:57Z</time>
      </trkpt>
      <trkpt lat="48.09903" lon="7.23066">
        <ele>655.2</ele>
        <time>2025-09-08T09:56:58Z</time>
      </trkpt>
      <trkpt lat="48.09905" lon="7.23069">
        <ele>655.2</ele>
        <time>2025-09-08T09:56:59Z</time>
      </trkpt>
      <trkpt lat="48.09906" lon="7.23074">
        <ele>655.2</ele>
        <time>2025-09-08T09:57:00Z</time>
      </trkpt>
      <trkpt lat="48.09908" lon="7.23079">
        <ele>655.2</ele>
        <time>2025-09-08T09:57:01Z</time>
      </trkpt>
      <trkpt lat="48.0991" lon="7.23085">
        <ele>655.2</ele>
        <time>2025-09-08T09:57:02Z</time>
      </trkpt>
      <trkpt lat="48.09912" lon="7.2309">
        <ele>655.2</ele>
        <time>2025-09-08T09:57:03Z</time>
      </trkpt>
      <trkpt lat="48.09913" lon="7.23096">
        <ele>655</ele>
        <time>2025-09-08T09:57:04Z</time>
      </trkpt>
      <trkpt lat="48.09914" lon="7.23103">
        <ele>655</ele>
        <time>2025-09-08T09:57:05Z</time>
      </trkpt>
      <trkpt lat="48.09915" lon="7.23111">
        <ele>655</ele>
        <time>2025-09-08T09:57:06Z</time>
      </trkpt>
      <trkpt lat="48.09916" lon="7.23119">
        <ele>654.8</ele>
        <time>2025-09-08T09:57:07Z</time>
      </trkpt>
      <trkpt lat="48.09918" lon="7.23128">
        <ele>654.8</ele>
        <time>2025-09-08T09:57:08Z</time>
      </trkpt>
      <trkpt lat="48.09919" lon="7.23137">
        <ele>654.4</ele>
        <time>2025-09-08T09:57:09Z</time>
      </trkpt>
      <trkpt lat="48.09921" lon="7.23147">
        <ele>654</ele>
        <time>2025-09-08T09:57:10Z</time>
      </trkpt>
      <trkpt lat="48.09923" lon="7.23156">
        <ele>653.6</ele>
        <time>2025-09-08T09:57:11Z</time>
      </trkpt>
      <trkpt lat="48.09925" lon="7.23165">
        <ele>653.2</ele>
        <time>2025-09-08T09:57:12Z</time>
      </trkpt>
      <trkpt lat="48.09929" lon="7.23172">
        <ele>652.8</ele>
        <time>2025-09-08T09:57:13Z</time>
      </trkpt>
      <trkpt lat="48.09932" lon="7.23177">
        <ele>652.6</ele>
        <time>2025-09-08T09:57:14Z</time>
      </trkpt>
      <trkpt lat="48.09935" lon="7.2318">
        <ele>652.6</ele>
        <time>2025-09-08T09:57:15Z</time>
      </trkpt>
      <trkpt lat="48.09938" lon="7.23182">
        <ele>652.6</ele>
        <time>2025-09-08T09:57:16Z</time>
      </trkpt>
      <trkpt lat="48.09939" lon="7.23185">
        <ele>652.6</ele>
        <time>2025-09-08T09:57:17Z</time>
      </trkpt>
      <trkpt lat="48.0994" lon="7.23188">
        <ele>652.6</ele>
        <time>2025-09-08T09:57:18Z</time>
      </trkpt>
      <trkpt lat="48.0994" lon="7.23193">
        <ele>652.8</ele>
        <time>2025-09-08T09:57:19Z</time>
      </trkpt>
      <trkpt lat="48.09942" lon="7.23198">
        <ele>653.2</ele>
        <time>2025-09-08T09:57:20Z</time>
      </trkpt>
      <trkpt lat="48.09944" lon="7.23204">
        <ele>653.2</ele>
        <time>2025-09-08T09:57:21Z</time>
      </trkpt>
      <trkpt lat="48.09946" lon="7.2321">
        <ele>653.2</ele>
        <time>2025-09-08T09:57:22Z</time>
      </trkpt>
      <trkpt lat="48.09948" lon="7.23215">
        <ele>653.2</ele>
        <time>2025-09-08T09:57:23Z</time>
      </trkpt>
      <trkpt lat="48.09948" lon="7.23219">
        <ele>652.8</ele>
        <time>2025-09-08T09:57:24Z</time>
      </trkpt>
      <trkpt lat="48.09949" lon="7.23223">
        <ele>652.8</ele>
        <time>2025-09-08T09:57:25Z</time>
      </trkpt>
      <trkpt lat="48.09949" lon="7.23225">
        <ele>652.8</ele>
        <time>2025-09-08T09:57:26Z</time>
      </trkpt>
      <trkpt lat="48.09949" lon="7.23228">
        <ele>652.8</ele>
        <time>2025-09-08T09:57:27Z</time>
      </trkpt>
      <trkpt lat="48.0995" lon="7.23228">
        <ele>652.8</ele>
        <time>2025-09-08T09:57:28Z</time>
      </trkpt>
      <trkpt lat="48.0995" lon="7.23229">
        <ele>652.8</ele>
        <time>2025-09-08T09:57:29Z</time>
      </trkpt>
      <trkpt lat="48.09949" lon="7.23232">
        <ele>652.8</ele>
        <time>2025-09-08T09:57:30Z</time>
      </trkpt>
      <trkpt lat="48.09949" lon="7.23235">
        <ele>653</ele>
        <time>2025-09-08T09:57:31Z</time>
      </trkpt>
      <trkpt lat="48.09948" lon="7.23241">
        <ele>653</ele>
        <time>2025-09-08T09:57:32Z</time>
      </trkpt>
      <trkpt lat="48.09948" lon="7.23247">
        <ele>652.8</ele>
        <time>2025-09-08T09:57:33Z</time>
      </trkpt>
      <trkpt lat="48.09947" lon="7.23252">
        <ele>652.8</ele>
        <time>2025-09-08T09:57:34Z</time>
      </trkpt>
      <trkpt lat="48.09946" lon="7.23257">
        <ele>652.8</ele>
        <time>2025-09-08T09:57:35Z</time>
      </trkpt>
      <trkpt lat="48.09945" lon="7.23262">
        <ele>652.6</ele>
        <time>2025-09-08T09:57:36Z</time>
      </trkpt>
      <trkpt lat="48.09944" lon="7.23266">
        <ele>652.4</ele>
        <time>2025-09-08T09:57:37Z</time>
      </trkpt>
      <trkpt lat="48.09942" lon="7.23271">
        <ele>652.4</ele>
        <time>2025-09-08T09:57:38Z</time>
      </trkpt>
      <trkpt lat="48.09941" lon="7.23275">
        <ele>652.4</ele>
        <time>2025-09-08T09:57:39Z</time>
      </trkpt>
      <trkpt lat="48.09939" lon="7.2328">
        <ele>652.2</ele>
        <time>2025-09-08T09:57:40Z</time>
      </trkpt>
      <trkpt lat="48.09938" lon="7.23285">
        <ele>652.2</ele>
        <time>2025-09-08T09:57:41Z</time>
      </trkpt>
      <trkpt lat="48.09937" lon="7.2329">
        <ele>652.2</ele>
        <time>2025-09-08T09:57:42Z</time>
      </trkpt>
      <trkpt lat="48.09935" lon="7.23295">
        <ele>652.2</ele>
        <time>2025-09-08T09:57:43Z</time>
      </trkpt>
      <trkpt lat="48.09933" lon="7.233">
        <ele>652</ele>
        <time>2025-09-08T09:57:44Z</time>
      </trkpt>
      <trkpt lat="48.09931" lon="7.23304">
        <ele>652</ele>
        <time>2025-09-08T09:57:45Z</time>
      </trkpt>
      <trkpt lat="48.09929" lon="7.2331">
        <ele>651.8</ele>
        <time>2025-09-08T09:57:46Z</time>
      </trkpt>
      <trkpt lat="48.09927" lon="7.23315">
        <ele>651.8</ele>
        <time>2025-09-08T09:57:47Z</time>
      </trkpt>
      <trkpt lat="48.09925" lon="7.23319">
        <ele>651.6</ele>
        <time>2025-09-08T09:57:48Z</time>
      </trkpt>
      <trkpt lat="48.09922" lon="7.23323">
        <ele>651.6</ele>
        <time>2025-09-08T09:57:49Z</time>
      </trkpt>
      <trkpt lat="48.09921" lon="7.23327">
        <ele>651.4</ele>
        <time>2025-09-08T09:57:50Z</time>
      </trkpt>
      <trkpt lat="48.0992" lon="7.23329">
        <ele>651.2</ele>
        <time>2025-09-08T09:57:51Z</time>
      </trkpt>
      <trkpt lat="48.09919" lon="7.23332">
        <ele>651</ele>
        <time>2025-09-08T09:57:52Z</time>
      </trkpt>
      <trkpt lat="48.09919" lon="7.23337">
        <ele>651</ele>
        <time>2025-09-08T09:57:53Z</time>
      </trkpt>
      <trkpt lat="48.09919" lon="7.23342">
        <ele>651</ele>
        <time>2025-09-08T09:57:54Z</time>
      </trkpt>
      <trkpt lat="48.09919" lon="7.23347">
        <ele>650.8</ele>
        <time>2025-09-08T09:57:55Z</time>
      </trkpt>
      <trkpt lat="48.09919" lon="7.23352">
        <ele>650.8</ele>
        <time>2025-09-08T09:57:56Z</time>
      </trkpt>
      <trkpt lat="48.09919" lon="7.23359">
        <ele>650.6</ele>
        <time>2025-09-08T09:57:57Z</time>
      </trkpt>
      <trkpt lat="48.09919" lon="7.23365">
        <ele>650.6</ele>
        <time>2025-09-08T09:57:58Z</time>
      </trkpt>
      <trkpt lat="48.09918" lon="7.23372">
        <ele>650.6</ele>
        <time>2025-09-08T09:57:59Z</time>
      </trkpt>
      <trkpt lat="48.09918" lon="7.23378">
        <ele>650.6</ele>
        <time>2025-09-08T09:58:00Z</time>
      </trkpt>
      <trkpt lat="48.09917" lon="7.23385">
        <ele>650.6</ele>
        <time>2025-09-08T09:58:01Z</time>
      </trkpt>
      <trkpt lat="48.09917" lon="7.23391">
        <ele>650.8</ele>
        <time>2025-09-08T09:58:02Z</time>
      </trkpt>
      <trkpt lat="48.09917" lon="7.23397">
        <ele>651</ele>
        <time>2025-09-08T09:58:03Z</time>
      </trkpt>
      <trkpt lat="48.09916" lon="7.23403">
        <ele>651.2</ele>
        <time>2025-09-08T09:58:04Z</time>
      </trkpt>
      <trkpt lat="48.09917" lon="7.23408">
        <ele>651.4</ele>
        <time>2025-09-08T09:58:05Z</time>
      </trkpt>
      <trkpt lat="48.09917" lon="7.23413">
        <ele>651.8</ele>
        <time>2025-09-08T09:58:06Z</time>
      </trkpt>
      <trkpt lat="48.09918" lon="7.23419">
        <ele>652</ele>
        <time>2025-09-08T09:58:07Z</time>
      </trkpt>
      <trkpt lat="48.09918" lon="7.23424">
        <ele>652.2</ele>
        <time>2025-09-08T09:58:08Z</time>
      </trkpt>
      <trkpt lat="48.09919" lon="7.2343">
        <ele>652.6</ele>
        <time>2025-09-08T09:58:09Z</time>
      </trkpt>
      <trkpt lat="48.0992" lon="7.23435">
        <ele>652.8</ele>
        <time>2025-09-08T09:58:10Z</time>
      </trkpt>
      <trkpt lat="48.09921" lon="7.2344">
        <ele>653.2</ele>
        <time>2025-09-08T09:58:11Z</time>
      </trkpt>
      <trkpt lat="48.09923" lon="7.23445">
        <ele>653.2</ele>
        <time>2025-09-08T09:58:12Z</time>
      </trkpt>
      <trkpt lat="48.09925" lon="7.23449">
        <ele>653.4</ele>
        <time>2025-09-08T09:58:13Z</time>
      </trkpt>
      <trkpt lat="48.09927" lon="7.23452">
        <ele>653.8</ele>
        <time>2025-09-08T09:58:14Z</time>
      </trkpt>
      <trkpt lat="48.09929" lon="7.23455">
        <ele>654</ele>
        <time>2025-09-08T09:58:15Z</time>
      </trkpt>
      <trkpt lat="48.09932" lon="7.23456">
        <ele>654.2</ele>
        <time>2025-09-08T09:58:16Z</time>
      </trkpt>
      <trkpt lat="48.09934" lon="7.23458">
        <ele>654.4</ele>
        <time>2025-09-08T09:58:17Z</time>
      </trkpt>
      <trkpt lat="48.09936" lon="7.23461">
        <ele>654.8</ele>
        <time>2025-09-08T09:58:18Z</time>
      </trkpt>
      <trkpt lat="48.09937" lon="7.23464">
        <ele>655</ele>
        <time>2025-09-08T09:58:19Z</time>
      </trkpt>
      <trkpt lat="48.09937" lon="7.23468">
        <ele>655.2</ele>
        <time>2025-09-08T09:58:20Z</time>
      </trkpt>
      <trkpt lat="48.09938" lon="7.23473">
        <ele>655.6</ele>
        <time>2025-09-08T09:58:21Z</time>
      </trkpt>
      <trkpt lat="48.0994" lon="7.23478">
        <ele>656</ele>
        <time>2025-09-08T09:58:22Z</time>
      </trkpt>
      <trkpt lat="48.09942" lon="7.23483">
        <ele>656</ele>
        <time>2025-09-08T09:58:23Z</time>
      </trkpt>
      <trkpt lat="48.09944" lon="7.23487">
        <ele>656.2</ele>
        <time>2025-09-08T09:58:24Z</time>
      </trkpt>
      <trkpt lat="48.09946" lon="7.23492">
        <ele>656.2</ele>
        <time>2025-09-08T09:58:25Z</time>
      </trkpt>
      <trkpt lat="48.09948" lon="7.23496">
        <ele>656.4</ele>
        <time>2025-09-08T09:58:26Z</time>
      </trkpt>
      <trkpt lat="48.09949" lon="7.23501">
        <ele>656.4</ele>
        <time>2025-09-08T09:58:27Z</time>
      </trkpt>
      <trkpt lat="48.09951" lon="7.23505">
        <ele>656.4</ele>
        <time>2025-09-08T09:58:28Z</time>
      </trkpt>
      <trkpt lat="48.09953" lon="7.23509">
        <ele>656.6</ele>
        <time>2025-09-08T09:58:29Z</time>
      </trkpt>
      <trkpt lat="48.09955" lon="7.23514">
        <ele>656.6</ele>
        <time>2025-09-08T09:58:30Z</time>
      </trkpt>
      <trkpt lat="48.09957" lon="7.23518">
        <ele>656.8</ele>
        <time>2025-09-08T09:58:31Z</time>
      </trkpt>
      <trkpt lat="48.09959" lon="7.23522">
        <ele>657</ele>
        <time>2025-09-08T09:58:32Z</time>
      </trkpt>
      <trkpt lat="48.09961" lon="7.23526">
        <ele>657</ele>
        <time>2025-09-08T09:58:33Z</time>
      </trkpt>
      <trkpt lat="48.09963" lon="7.23529">
        <ele>657.2</ele>
        <time>2025-09-08T09:58:34Z</time>
      </trkpt>
      <trkpt lat="48.09966" lon="7.23533">
        <ele>657.4</ele>
        <time>2025-09-08T09:58:35Z</time>
      </trkpt>
      <trkpt lat="48.09968" lon="7.23536">
        <ele>657.6</ele>
        <time>2025-09-08T09:58:36Z</time>
      </trkpt>
      <trkpt lat="48.0997" lon="7.23539">
        <ele>657.8</ele>
        <time>2025-09-08T09:58:37Z</time>
      </trkpt>
      <trkpt lat="48.09971" lon="7.23541">
        <ele>658</ele>
        <time>2025-09-08T09:58:38Z</time>
      </trkpt>
      <trkpt lat="48.09973" lon="7.23544">
        <ele>658</ele>
        <time>2025-09-08T09:58:39Z</time>
      </trkpt>
      <trkpt lat="48.09974" lon="7.23546">
        <ele>658.2</ele>
        <time>2025-09-08T09:58:40Z</time>
      </trkpt>
      <trkpt lat="48.09974" lon="7.23548">
        <ele>658.4</ele>
        <time>2025-09-08T09:58:41Z</time>
      </trkpt>
      <trkpt lat="48.09975" lon="7.23551">
        <ele>658.4</ele>
        <time>2025-09-08T09:58:42Z</time>
      </trkpt>
      <trkpt lat="48.09975" lon="7.23554">
        <ele>658.6</ele>
        <time>2025-09-08T09:58:43Z</time>
      </trkpt>
      <trkpt lat="48.09976" lon="7.23558">
        <ele>658.6</ele>
        <time>2025-09-08T09:58:44Z</time>
      </trkpt>
      <trkpt lat="48.09978" lon="7.23562">
        <ele>658.6</ele>
        <time>2025-09-08T09:58:45Z</time>
      </trkpt>
      <trkpt lat="48.0998" lon="7.23567">
        <ele>658.4</ele>
        <time>2025-09-08T09:58:46Z</time>
      </trkpt>
      <trkpt lat="48.09981" lon="7.23572">
        <ele>658.4</ele>
        <time>2025-09-08T09:58:47Z</time>
      </trkpt>
      <trkpt lat="48.09983" lon="7.23577">
        <ele>658</ele>
        <time>2025-09-08T09:58:48Z</time>
      </trkpt>
      <trkpt lat="48.09985" lon="7.23582">
        <ele>657.4</ele>
        <time>2025-09-08T09:58:49Z</time>
      </trkpt>
      <trkpt lat="48.09986" lon="7.23588">
        <ele>657</ele>
        <time>2025-09-08T09:58:50Z</time>
      </trkpt>
      <trkpt lat="48.09988" lon="7.23595">
        <ele>656.6</ele>
        <time>2025-09-08T09:58:51Z</time>
      </trkpt>
      <trkpt lat="48.09989" lon="7.23601">
        <ele>656</ele>
        <time>2025-09-08T09:58:52Z</time>
      </trkpt>
      <trkpt lat="48.0999" lon="7.23609">
        <ele>655.2</ele>
        <time>2025-09-08T09:58:53Z</time>
      </trkpt>
      <trkpt lat="48.09993" lon="7.23615">
        <ele>654.6</ele>
        <time>2025-09-08T09:58:54Z</time>
      </trkpt>
      <trkpt lat="48.09995" lon="7.2362">
        <ele>654</ele>
        <time>2025-09-08T09:58:55Z</time>
      </trkpt>
      <trkpt lat="48.09998" lon="7.23626">
        <ele>653.4</ele>
        <time>2025-09-08T09:58:56Z</time>
      </trkpt>
      <trkpt lat="48.10002" lon="7.23632">
        <ele>652.8</ele>
        <time>2025-09-08T09:58:57Z</time>
      </trkpt>
      <trkpt lat="48.10004" lon="7.23637">
        <ele>651.8</ele>
        <time>2025-09-08T09:58:58Z</time>
      </trkpt>
      <trkpt lat="48.10008" lon="7.2364">
        <ele>651.2</ele>
        <time>2025-09-08T09:58:59Z</time>
      </trkpt>
      <trkpt lat="48.10011" lon="7.23645">
        <ele>650.6</ele>
        <time>2025-09-08T09:59:00Z</time>
      </trkpt>
      <trkpt lat="48.10014" lon="7.23649">
        <ele>650.6</ele>
        <time>2025-09-08T09:59:01Z</time>
      </trkpt>
      <trkpt lat="48.10017" lon="7.23653">
        <ele>650.4</ele>
        <time>2025-09-08T09:59:02Z</time>
      </trkpt>
      <trkpt lat="48.1002" lon="7.23659">
        <ele>650.4</ele>
        <time>2025-09-08T09:59:03Z</time>
      </trkpt>
      <trkpt lat="48.10023" lon="7.23663">
        <ele>650.4</ele>
        <time>2025-09-08T09:59:04Z</time>
      </trkpt>
      <trkpt lat="48.10027" lon="7.23667">
        <ele>650.4</ele>
        <time>2025-09-08T09:59:05Z</time>
      </trkpt>
      <trkpt lat="48.1003" lon="7.2367">
        <ele>650.4</ele>
        <time>2025-09-08T09:59:06Z</time>
      </trkpt>
      <trkpt lat="48.10033" lon="7.23673">
        <ele>650.6</ele>
        <time>2025-09-08T09:59:07Z</time>
      </trkpt>
      <trkpt lat="48.10037" lon="7.23674">
        <ele>650.8</ele>
        <time>2025-09-08T09:59:08Z</time>
      </trkpt>
      <trkpt lat="48.1004" lon="7.23675">
        <ele>651.4</ele>
        <time>2025-09-08T09:59:09Z</time>
      </trkpt>
      <trkpt lat="48.10043" lon="7.23676">
        <ele>651.8</ele>
        <time>2025-09-08T09:59:10Z</time>
      </trkpt>
      <trkpt lat="48.10045" lon="7.23678">
        <ele>652</ele>
        <time>2025-09-08T09:59:11Z</time>
      </trkpt>
      <trkpt lat="48.10048" lon="7.23681">
        <ele>652.6</ele>
        <time>2025-09-08T09:59:12Z</time>
      </trkpt>
      <trkpt lat="48.10051" lon="7.23685">
        <ele>653.2</ele>
        <time>2025-09-08T09:59:13Z</time>
      </trkpt>
      <trkpt lat="48.10054" lon="7.23691">
        <ele>653.6</ele>
        <time>2025-09-08T09:59:14Z</time>
      </trkpt>
      <trkpt lat="48.10059" lon="7.23695">
        <ele>653.6</ele>
        <time>2025-09-08T09:59:15Z</time>
      </trkpt>
      <trkpt lat="48.10062" lon="7.23699">
        <ele>653.8</ele>
        <time>2025-09-08T09:59:16Z</time>
      </trkpt>
      <trkpt lat="48.10067" lon="7.23702">
        <ele>653.8</ele>
        <time>2025-09-08T09:59:17Z</time>
      </trkpt>
      <trkpt lat="48.1007" lon="7.23704">
        <ele>653.8</ele>
        <time>2025-09-08T09:59:18Z</time>
      </trkpt>
      <trkpt lat="48.10073" lon="7.23708">
        <ele>653.8</ele>
        <time>2025-09-08T09:59:19Z</time>
      </trkpt>
      <trkpt lat="48.10076" lon="7.23711">
        <ele>653.8</ele>
        <time>2025-09-08T09:59:20Z</time>
      </trkpt>
      <trkpt lat="48.10079" lon="7.23716">
        <ele>653.6</ele>
        <time>2025-09-08T09:59:21Z</time>
      </trkpt>
      <trkpt lat="48.10083" lon="7.23721">
        <ele>653.6</ele>
        <time>2025-09-08T09:59:22Z</time>
      </trkpt>
      <trkpt lat="48.10088" lon="7.23724">
        <ele>653.4</ele>
        <time>2025-09-08T09:59:23Z</time>
      </trkpt>
      <trkpt lat="48.10093" lon="7.23728">
        <ele>652.8</ele>
        <time>2025-09-08T09:59:24Z</time>
      </trkpt>
      <trkpt lat="48.10099" lon="7.23731">
        <ele>652.4</ele>
        <time>2025-09-08T09:59:25Z</time>
      </trkpt>
      <trkpt lat="48.10102" lon="7.23732">
        <ele>651.4</ele>
        <time>2025-09-08T09:59:26Z</time>
      </trkpt>
      <trkpt lat="48.10105" lon="7.23735">
        <ele>650.6</ele>
        <time>2025-09-08T09:59:27Z</time>
      </trkpt>
      <trkpt lat="48.10106" lon="7.23738">
        <ele>649.4</ele>
        <time>2025-09-08T09:59:28Z</time>
      </trkpt>
      <trkpt lat="48.10106" lon="7.2374">
        <ele>649</ele>
        <time>2025-09-08T09:59:29Z</time>
      </trkpt>
      <trkpt lat="48.10104" lon="7.23741">
        <ele>648.6</ele>
        <time>2025-09-08T09:59:30Z</time>
      </trkpt>
      <trkpt lat="48.10102" lon="7.23742">
        <ele>648</ele>
        <time>2025-09-08T09:59:31Z</time>
      </trkpt>
      <trkpt lat="48.101" lon="7.23744">
        <ele>647.8</ele>
        <time>2025-09-08T09:59:32Z</time>
      </trkpt>
      <trkpt lat="48.10096" lon="7.23746">
        <ele>647.4</ele>
        <time>2025-09-08T09:59:33Z</time>
      </trkpt>
      <trkpt lat="48.10092" lon="7.23748">
        <ele>647</ele>
        <time>2025-09-08T09:59:34Z</time>
      </trkpt>
      <trkpt lat="48.10087" lon="7.23751">
        <ele>646.4</ele>
        <time>2025-09-08T09:59:35Z</time>
      </trkpt>
      <trkpt lat="48.10082" lon="7.23754">
        <ele>645.6</ele>
        <time>2025-09-08T09:59:36Z</time>
      </trkpt>
      <trkpt lat="48.10076" lon="7.23756">
        <ele>644.8</ele>
        <time>2025-09-08T09:59:37Z</time>
      </trkpt>
      <trkpt lat="48.1007" lon="7.23758">
        <ele>644</ele>
        <time>2025-09-08T09:59:38Z</time>
      </trkpt>
      <trkpt lat="48.10066" lon="7.23758">
        <ele>643.2</ele>
        <time>2025-09-08T09:59:39Z</time>
      </trkpt>
      <trkpt lat="48.10061" lon="7.23757">
        <ele>641.8</ele>
        <time>2025-09-08T09:59:40Z</time>
      </trkpt>
      <trkpt lat="48.10056" lon="7.23756">
        <ele>641.4</ele>
        <time>2025-09-08T09:59:41Z</time>
      </trkpt>
      <trkpt lat="48.10051" lon="7.23755">
        <ele>640.4</ele>
        <time>2025-09-08T09:59:42Z</time>
      </trkpt>
      <trkpt lat="48.10046" lon="7.23755">
        <ele>640</ele>
        <time>2025-09-08T09:59:43Z</time>
      </trkpt>
      <trkpt lat="48.1004" lon="7.23755">
        <ele>639.4</ele>
        <time>2025-09-08T09:59:44Z</time>
      </trkpt>
      <trkpt lat="48.10035" lon="7.23754">
        <ele>639</ele>
        <time>2025-09-08T09:59:45Z</time>
      </trkpt>
      <trkpt lat="48.10029" lon="7.23754">
        <ele>638</ele>
        <time>2025-09-08T09:59:46Z</time>
      </trkpt>
      <trkpt lat="48.10022" lon="7.23755">
        <ele>636.4</ele>
        <time>2025-09-08T09:59:47Z</time>
      </trkpt>
      <trkpt lat="48.10015" lon="7.23754">
        <ele>635.4</ele>
        <time>2025-09-08T09:59:48Z</time>
      </trkpt>
      <trkpt lat="48.10008" lon="7.23754">
        <ele>634.8</ele>
        <time>2025-09-08T09:59:49Z</time>
      </trkpt>
      <trkpt lat="48.10001" lon="7.23756">
        <ele>633.4</ele>
        <time>2025-09-08T09:59:50Z</time>
      </trkpt>
      <trkpt lat="48.09995" lon="7.23758">
        <ele>632.8</ele>
        <time>2025-09-08T09:59:51Z</time>
      </trkpt>
      <trkpt lat="48.0999" lon="7.23761">
        <ele>632.4</ele>
        <time>2025-09-08T09:59:52Z</time>
      </trkpt>
      <trkpt lat="48.09987" lon="7.23763">
        <ele>630.6</ele>
        <time>2025-09-08T09:59:53Z</time>
      </trkpt>
      <trkpt lat="48.09985" lon="7.23763">
        <ele>629.8</ele>
        <time>2025-09-08T09:59:54Z</time>
      </trkpt>
      <trkpt lat="48.09985" lon="7.23763">
        <ele>629</ele>
        <time>2025-09-08T09:59:55Z</time>
      </trkpt>
      <trkpt lat="48.09985" lon="7.23763">
        <ele>628.6</ele>
        <time>2025-09-08T09:59:56Z</time>
      </trkpt>
      <trkpt lat="48.0998" lon="7.23765">
        <ele>628.2</ele>
        <time>2025-09-08T10:00:00Z</time>
      </trkpt>
      <trkpt lat="48.09979" lon="7.23768">
        <ele>628.2</ele>
        <time>2025-09-08T10:00:01Z</time>
      </trkpt>
      <trkpt lat="48.09978" lon="7.23771">
        <ele>628</ele>
        <time>2025-09-08T10:00:02Z</time>
      </trkpt>
      <trkpt lat="48.09977" lon="7.23775">
        <ele>627.8</ele>
        <time>2025-09-08T10:00:03Z</time>
      </trkpt>
      <trkpt lat="48.09975" lon="7.23779">
        <ele>627.4</ele>
        <time>2025-09-08T10:00:04Z</time>
      </trkpt>
      <trkpt lat="48.09974" lon="7.23782">
        <ele>627.4</ele>
        <time>2025-09-08T10:00:05Z</time>
      </trkpt>
      <trkpt lat="48.09972" lon="7.23786">
        <ele>627.4</ele>
        <time>2025-09-08T10:00:06Z</time>
      </trkpt>
      <trkpt lat="48.09969" lon="7.2379">
        <ele>627.2</ele>
        <time>2025-09-08T10:00:07Z</time>
      </trkpt>
      <trkpt lat="48.09966" lon="7.23794">
        <ele>627</ele>
        <time>2025-09-08T10:00:08Z</time>
      </trkpt>
      <trkpt lat="48.09962" lon="7.23799">
        <ele>627</ele>
        <time>2025-09-08T10:00:09Z</time>
      </trkpt>
      <trkpt lat="48.09957" lon="7.23804">
        <ele>626.6</ele>
        <time>2025-09-08T10:00:10Z</time>
      </trkpt>
      <trkpt lat="48.09951" lon="7.23809">
        <ele>626</ele>
        <time>2025-09-08T10:00:11Z</time>
      </trkpt>
      <trkpt lat="48.09945" lon="7.23815">
        <ele>625.6</ele>
        <time>2025-09-08T10:00:12Z</time>
      </trkpt>
      <trkpt lat="48.09939" lon="7.2382">
        <ele>624.4</ele>
        <time>2025-09-08T10:00:13Z</time>
      </trkpt>
      <trkpt lat="48.09934" lon="7.23825">
        <ele>623.8</ele>
        <time>2025-09-08T10:00:14Z</time>
      </trkpt>
      <trkpt lat="48.09929" lon="7.2383">
        <ele>622.8</ele>
        <time>2025-09-08T10:00:15Z</time>
      </trkpt>
      <trkpt lat="48.09924" lon="7.23834">
        <ele>622</ele>
        <time>2025-09-08T10:00:16Z</time>
      </trkpt>
      <trkpt lat="48.09921" lon="7.23838">
        <ele>621.6</ele>
        <time>2025-09-08T10:00:17Z</time>
      </trkpt>
      <trkpt lat="48.09917" lon="7.2384">
        <ele>621</ele>
        <time>2025-09-08T10:00:18Z</time>
      </trkpt>
      <trkpt lat="48.09914" lon="7.23843">
        <ele>620.6</ele>
        <time>2025-09-08T10:00:19Z</time>
      </trkpt>
      <trkpt lat="48.0991" lon="7.23847">
        <ele>620.2</ele>
        <time>2025-09-08T10:00:20Z</time>
      </trkpt>
      <trkpt lat="48.09905" lon="7.23851">
        <ele>620</ele>
        <time>2025-09-08T10:00:21Z</time>
      </trkpt>
      <trkpt lat="48.099" lon="7.23857">
        <ele>619.6</ele>
        <time>2025-09-08T10:00:22Z</time>
      </trkpt>
      <trkpt lat="48.09895" lon="7.23864">
        <ele>619</ele>
        <time>2025-09-08T10:00:23Z</time>
      </trkpt>
      <trkpt lat="48.09891" lon="7.23872">
        <ele>618.2</ele>
        <time>2025-09-08T10:00:24Z</time>
      </trkpt>
      <trkpt lat="48.09887" lon="7.23882">
        <ele>616.8</ele>
        <time>2025-09-08T10:00:25Z</time>
      </trkpt>
      <trkpt lat="48.09883" lon="7.23889">
        <ele>615.6</ele>
        <time>2025-09-08T10:00:26Z</time>
      </trkpt>
      <trkpt lat="48.09882" lon="7.23896">
        <ele>614.4</ele>
        <time>2025-09-08T10:00:27Z</time>
      </trkpt>
      <trkpt lat="48.09882" lon="7.23901">
        <ele>613.6</ele>
        <time>2025-09-08T10:00:28Z</time>
      </trkpt>
      <trkpt lat="48.09884" lon="7.23906">
        <ele>612.4</ele>
        <time>2025-09-08T10:00:29Z</time>
      </trkpt>
      <trkpt lat="48.09886" lon="7.23912">
        <ele>611.6</ele>
        <time>2025-09-08T10:00:30Z</time>
      </trkpt>
      <trkpt lat="48.09888" lon="7.2392">
        <ele>611.2</ele>
        <time>2025-09-08T10:00:31Z</time>
      </trkpt>
      <trkpt lat="48.09888" lon="7.23928">
        <ele>610.4</ele>
        <time>2025-09-08T10:00:32Z</time>
      </trkpt>
      <trkpt lat="48.09887" lon="7.23937">
        <ele>609</ele>
        <time>2025-09-08T10:00:33Z</time>
      </trkpt>
      <trkpt lat="48.09888" lon="7.23945">
        <ele>608.2</ele>
        <time>2025-09-08T10:00:34Z</time>
      </trkpt>
      <trkpt lat="48.09888" lon="7.23954">
        <ele>607</ele>
        <time>2025-09-08T10:00:35Z</time>
      </trkpt>
      <trkpt lat="48.09888" lon="7.23962">
        <ele>606</ele>
        <time>2025-09-08T10:00:36Z</time>
      </trkpt>
      <trkpt lat="48.09889" lon="7.23969">
        <ele>605</ele>
        <time>2025-09-08T10:00:37Z</time>
      </trkpt>
      <trkpt lat="48.0989" lon="7.23977">
        <ele>603.2</ele>
        <time>2025-09-08T10:00:38Z</time>
      </trkpt>
      <trkpt lat="48.09892" lon="7.23981">
        <ele>602.4</ele>
        <time>2025-09-08T10:00:39Z</time>
      </trkpt>
      <trkpt lat="48.09893" lon="7.23984">
        <ele>601.8</ele>
        <time>2025-09-08T10:00:40Z</time>
      </trkpt>
      <trkpt lat="48.09893" lon="7.23985">
        <ele>600.6</ele>
        <time>2025-09-08T10:00:41Z</time>
      </trkpt>
      <trkpt lat="48.09894" lon="7.23985">
        <ele>599.8</ele>
        <time>2025-09-08T10:00:42Z</time>
      </trkpt>
      <trkpt lat="48.09893" lon="7.23991">
        <ele>597.4</ele>
        <time>2025-09-08T10:00:52Z</time>
      </trkpt>
      <trkpt lat="48.09892" lon="7.23994">
        <ele>597.4</ele>
        <time>2025-09-08T10:00:53Z</time>
      </trkpt>
      <trkpt lat="48.09891" lon="7.23995">
        <ele>597</ele>
        <time>2025-09-08T10:00:54Z</time>
      </trkpt>
      <trkpt lat="48.0989" lon="7.23997">
        <ele>597</ele>
        <time>2025-09-08T10:00:55Z</time>
      </trkpt>
      <trkpt lat="48.0989" lon="7.24">
        <ele>597</ele>
        <time>2025-09-08T10:00:56Z</time>
      </trkpt>
      <trkpt lat="48.09889" lon="7.24003">
        <ele>597</ele>
        <time>2025-09-08T10:00:57Z</time>
      </trkpt>
      <trkpt lat="48.09888" lon="7.24007">
        <ele>597</ele>
        <time>2025-09-08T10:00:58Z</time>
      </trkpt>
      <trkpt lat="48.09887" lon="7.24012">
        <ele>596.8</ele>
        <time>2025-09-08T10:00:59Z</time>
      </trkpt>
      <trkpt lat="48.09885" lon="7.24017">
        <ele>596.8</ele>
        <time>2025-09-08T10:01:00Z</time>
      </trkpt>
      <trkpt lat="48.09884" lon="7.24023">
        <ele>596.6</ele>
        <time>2025-09-08T10:01:01Z</time>
      </trkpt>
      <trkpt lat="48.09883" lon="7.2403">
        <ele>596.2</ele>
        <time>2025-09-08T10:01:02Z</time>
      </trkpt>
      <trkpt lat="48.09881" lon="7.24037">
        <ele>596</ele>
        <time>2025-09-08T10:01:03Z</time>
      </trkpt>
      <trkpt lat="48.0988" lon="7.24045">
        <ele>595.4</ele>
        <time>2025-09-08T10:01:04Z</time>
      </trkpt>
      <trkpt lat="48.09878" lon="7.24054">
        <ele>595</ele>
        <time>2025-09-08T10:01:05Z</time>
      </trkpt>
      <trkpt lat="48.09876" lon="7.24063">
        <ele>594.6</ele>
        <time>2025-09-08T10:01:06Z</time>
      </trkpt>
      <trkpt lat="48.09874" lon="7.24073">
        <ele>594</ele>
        <time>2025-09-08T10:01:07Z</time>
      </trkpt>
      <trkpt lat="48.09872" lon="7.24083">
        <ele>593.4</ele>
        <time>2025-09-08T10:01:08Z</time>
      </trkpt>
      <trkpt lat="48.0987" lon="7.24093">
        <ele>593</ele>
        <time>2025-09-08T10:01:09Z</time>
      </trkpt>
      <trkpt lat="48.09868" lon="7.24102">
        <ele>592.2</ele>
        <time>2025-09-08T10:01:10Z</time>
      </trkpt>
      <trkpt lat="48.09867" lon="7.24111">
        <ele>591.6</ele>
        <time>2025-09-08T10:01:11Z</time>
      </trkpt>
      <trkpt lat="48.09866" lon="7.24119">
        <ele>591</ele>
        <time>2025-09-08T10:01:12Z</time>
      </trkpt>
      <trkpt lat="48.09865" lon="7.24123">
        <ele>590.6</ele>
        <time>2025-09-08T10:01:13Z</time>
      </trkpt>
      <trkpt lat="48.09863" lon="7.24127">
        <ele>590.2</ele>
        <time>2025-09-08T10:01:14Z</time>
      </trkpt>
      <trkpt lat="48.09861" lon="7.2413">
        <ele>589.8</ele>
        <time>2025-09-08T10:01:15Z</time>
      </trkpt>
      <trkpt lat="48.09858" lon="7.24131">
        <ele>589.8</ele>
        <time>2025-09-08T10:01:16Z</time>
      </trkpt>
      <trkpt lat="48.09856" lon="7.24132">
        <ele>589.8</ele>
        <time>2025-09-08T10:01:17Z</time>
      </trkpt>
      <trkpt lat="48.09853" lon="7.24134">
        <ele>590</ele>
        <time>2025-09-08T10:01:18Z</time>
      </trkpt>
      <trkpt lat="48.0985" lon="7.24135">
        <ele>590</ele>
        <time>2025-09-08T10:01:19Z</time>
      </trkpt>
      <trkpt lat="48.09848" lon="7.24138">
        <ele>590.2</ele>
        <time>2025-09-08T10:01:20Z</time>
      </trkpt>
      <trkpt lat="48.09847" lon="7.24141">
        <ele>590.4</ele>
        <time>2025-09-08T10:01:21Z</time>
      </trkpt>
      <trkpt lat="48.09845" lon="7.24145">
        <ele>590.8</ele>
        <time>2025-09-08T10:01:22Z</time>
      </trkpt>
      <trkpt lat="48.09844" lon="7.24149">
        <ele>591</ele>
        <time>2025-09-08T10:01:23Z</time>
      </trkpt>
      <trkpt lat="48.09843" lon="7.24153">
        <ele>591.4</ele>
        <time>2025-09-08T10:01:24Z</time>
      </trkpt>
      <trkpt lat="48.09841" lon="7.24157">
        <ele>591.6</ele>
        <time>2025-09-08T10:01:25Z</time>
      </trkpt>
      <trkpt lat="48.0984" lon="7.24161">
        <ele>592.2</ele>
        <time>2025-09-08T10:01:26Z</time>
      </trkpt>
      <trkpt lat="48.09839" lon="7.24166">
        <ele>592.4</ele>
        <time>2025-09-08T10:01:27Z</time>
      </trkpt>
      <trkpt lat="48.09837" lon="7.2417">
        <ele>592.4</ele>
        <time>2025-09-08T10:01:28Z</time>
      </trkpt>
      <trkpt lat="48.09836" lon="7.24175">
        <ele>592.6</ele>
        <time>2025-09-08T10:01:29Z</time>
      </trkpt>
      <trkpt lat="48.09835" lon="7.24179">
        <ele>593</ele>
        <time>2025-09-08T10:01:30Z</time>
      </trkpt>
      <trkpt lat="48.09835" lon="7.24183">
        <ele>593.2</ele>
        <time>2025-09-08T10:01:31Z</time>
      </trkpt>
      <trkpt lat="48.09835" lon="7.24187">
        <ele>593.6</ele>
        <time>2025-09-08T10:01:32Z</time>
      </trkpt>
      <trkpt lat="48.09834" lon="7.24191">
        <ele>594</ele>
        <time>2025-09-08T10:01:33Z</time>
      </trkpt>
      <trkpt lat="48.09832" lon="7.24195">
        <ele>594.4</ele>
        <time>2025-09-08T10:01:34Z</time>
      </trkpt>
      <trkpt lat="48.09831" lon="7.24198">
        <ele>594.6</ele>
        <time>2025-09-08T10:01:35Z</time>
      </trkpt>
      <trkpt lat="48.0983" lon="7.24202">
        <ele>595.2</ele>
        <time>2025-09-08T10:01:36Z</time>
      </trkpt>
      <trkpt lat="48.0983" lon="7.24206">
        <ele>595.8</ele>
        <time>2025-09-08T10:01:37Z</time>
      </trkpt>
      <trkpt lat="48.09829" lon="7.2421">
        <ele>596.2</ele>
        <time>2025-09-08T10:01:38Z</time>
      </trkpt>
      <trkpt lat="48.09828" lon="7.24213">
        <ele>596.8</ele>
        <time>2025-09-08T10:01:39Z</time>
      </trkpt>
      <trkpt lat="48.09827" lon="7.24217">
        <ele>597.2</ele>
        <time>2025-09-08T10:01:40Z</time>
      </trkpt>
      <trkpt lat="48.09826" lon="7.24221">
        <ele>597.6</ele>
        <time>2025-09-08T10:01:41Z</time>
      </trkpt>
      <trkpt lat="48.09825" lon="7.24226">
        <ele>598</ele>
        <time>2025-09-08T10:01:42Z</time>
      </trkpt>
      <trkpt lat="48.09823" lon="7.2423">
        <ele>598.6</ele>
        <time>2025-09-08T10:01:43Z</time>
      </trkpt>
      <trkpt lat="48.09822" lon="7.24234">
        <ele>598.6</ele>
        <time>2025-09-08T10:01:44Z</time>
      </trkpt>
      <trkpt lat="48.0982" lon="7.24238">
        <ele>598.6</ele>
        <time>2025-09-08T10:01:45Z</time>
      </trkpt>
      <trkpt lat="48.09819" lon="7.24243">
        <ele>598.6</ele>
        <time>2025-09-08T10:01:46Z</time>
      </trkpt>
      <trkpt lat="48.09818" lon="7.24249">
        <ele>598.8</ele>
        <time>2025-09-08T10:01:47Z</time>
      </trkpt>
      <trkpt lat="48.09817" lon="7.24253">
        <ele>598.8</ele>
        <time>2025-09-08T10:01:48Z</time>
      </trkpt>
      <trkpt lat="48.09815" lon="7.24257">
        <ele>598.8</ele>
        <time>2025-09-08T10:01:49Z</time>
      </trkpt>
      <trkpt lat="48.09814" lon="7.24262">
        <ele>598.8</ele>
        <time>2025-09-08T10:01:50Z</time>
      </trkpt>
      <trkpt lat="48.09813" lon="7.24266">
        <ele>599</ele>
        <time>2025-09-08T10:01:51Z</time>
      </trkpt>
      <trkpt lat="48.09812" lon="7.24271">
        <ele>599</ele>
        <time>2025-09-08T10:01:52Z</time>
      </trkpt>
      <trkpt lat="48.09811" lon="7.24274">
        <ele>599.2</ele>
        <time>2025-09-08T10:01:53Z</time>
      </trkpt>
      <trkpt lat="48.0981" lon="7.24278">
        <ele>599.6</ele>
        <time>2025-09-08T10:01:54Z</time>
      </trkpt>
      <trkpt lat="48.09809" lon="7.24281">
        <ele>599.8</ele>
        <time>2025-09-08T10:01:55Z</time>
      </trkpt>
      <trkpt lat="48.09809" lon="7.24285">
        <ele>600.2</ele>
        <time>2025-09-08T10:01:56Z</time>
      </trkpt>
      <trkpt lat="48.09808" lon="7.24289">
        <ele>600.6</ele>
        <time>2025-09-08T10:01:57Z</time>
      </trkpt>
      <trkpt lat="48.09807" lon="7.24293">
        <ele>601</ele>
        <time>2025-09-08T10:01:58Z</time>
      </trkpt>
      <trkpt lat="48.09806" lon="7.24296">
        <ele>601.6</ele>
        <time>2025-09-08T10:01:59Z</time>
      </trkpt>
      <trkpt lat="48.09805" lon="7.243">
        <ele>602</ele>
        <time>2025-09-08T10:02:00Z</time>
      </trkpt>
      <trkpt lat="48.09803" lon="7.24303">
        <ele>602.6</ele>
        <time>2025-09-08T10:02:01Z</time>
      </trkpt>
      <trkpt lat="48.09802" lon="7.24308">
        <ele>603</ele>
        <time>2025-09-08T10:02:02Z</time>
      </trkpt>
      <trkpt lat="48.09801" lon="7.24312">
        <ele>603.6</ele>
        <time>2025-09-08T10:02:03Z</time>
      </trkpt>
      <trkpt lat="48.098" lon="7.24316">
        <ele>604</ele>
        <time>2025-09-08T10:02:04Z</time>
      </trkpt>
      <trkpt lat="48.098" lon="7.24319">
        <ele>604.6</ele>
        <time>2025-09-08T10:02:05Z</time>
      </trkpt>
      <trkpt lat="48.09799" lon="7.24324">
        <ele>605.2</ele>
        <time>2025-09-08T10:02:06Z</time>
      </trkpt>
      <trkpt lat="48.09798" lon="7.24327">
        <ele>605.8</ele>
        <time>2025-09-08T10:02:07Z</time>
      </trkpt>
      <trkpt lat="48.09797" lon="7.24331">
        <ele>606.2</ele>
        <time>2025-09-08T10:02:08Z</time>
      </trkpt>
      <trkpt lat="48.09795" lon="7.24335">
        <ele>606.8</ele>
        <time>2025-09-08T10:02:09Z</time>
      </trkpt>
      <trkpt lat="48.09793" lon="7.24339">
        <ele>607.2</ele>
        <time>2025-09-08T10:02:10Z</time>
      </trkpt>
      <trkpt lat="48.09791" lon="7.24343">
        <ele>607.6</ele>
        <time>2025-09-08T10:02:11Z</time>
      </trkpt>
      <trkpt lat="48.09789" lon="7.24346">
        <ele>608</ele>
        <time>2025-09-08T10:02:12Z</time>
      </trkpt>
      <trkpt lat="48.09787" lon="7.24351">
        <ele>608.2</ele>
        <time>2025-09-08T10:02:13Z</time>
      </trkpt>
      <trkpt lat="48.09785" lon="7.24355">
        <ele>608.4</ele>
        <time>2025-09-08T10:02:14Z</time>
      </trkpt>
      <trkpt lat="48.09783" lon="7.24359">
        <ele>608.6</ele>
        <time>2025-09-08T10:02:15Z</time>
      </trkpt>
      <trkpt lat="48.09781" lon="7.24362">
        <ele>609</ele>
        <time>2025-09-08T10:02:16Z</time>
      </trkpt>
      <trkpt lat="48.09779" lon="7.24365">
        <ele>609.2</ele>
        <time>2025-09-08T10:02:17Z</time>
      </trkpt>
      <trkpt lat="48.09777" lon="7.24367">
        <ele>609.4</ele>
        <time>2025-09-08T10:02:18Z</time>
      </trkpt>
      <trkpt lat="48.09775" lon="7.24371">
        <ele>609.8</ele>
        <time>2025-09-08T10:02:19Z</time>
      </trkpt>
      <trkpt lat="48.09772" lon="7.24374">
        <ele>610.2</ele>
        <time>2025-09-08T10:02:20Z</time>
      </trkpt>
      <trkpt lat="48.0977" lon="7.24378">
        <ele>610.6</ele>
        <time>2025-09-08T10:02:21Z</time>
      </trkpt>
      <trkpt lat="48.09767" lon="7.24381">
        <ele>610.8</ele>
        <time>2025-09-08T10:02:22Z</time>
      </trkpt>
      <trkpt lat="48.09765" lon="7.24384">
        <ele>611.2</ele>
        <time>2025-09-08T10:02:23Z</time>
      </trkpt>
      <trkpt lat="48.09763" lon="7.24387">
        <ele>611.6</ele>
        <time>2025-09-08T10:02:24Z</time>
      </trkpt>
      <trkpt lat="48.09761" lon="7.2439">
        <ele>612</ele>
        <time>2025-09-08T10:02:25Z</time>
      </trkpt>
      <trkpt lat="48.09758" lon="7.24393">
        <ele>612.6</ele>
        <time>2025-09-08T10:02:26Z</time>
      </trkpt>
      <trkpt lat="48.09756" lon="7.24396">
        <ele>613.2</ele>
        <time>2025-09-08T10:02:27Z</time>
      </trkpt>
      <trkpt lat="48.09753" lon="7.244">
        <ele>613.8</ele>
        <time>2025-09-08T10:02:28Z</time>
      </trkpt>
      <trkpt lat="48.09751" lon="7.24403">
        <ele>614.2</ele>
        <time>2025-09-08T10:02:29Z</time>
      </trkpt>
      <trkpt lat="48.09749" lon="7.24406">
        <ele>614.4</ele>
        <time>2025-09-08T10:02:30Z</time>
      </trkpt>
      <trkpt lat="48.09747" lon="7.2441">
        <ele>615.2</ele>
        <time>2025-09-08T10:02:31Z</time>
      </trkpt>
      <trkpt lat="48.09744" lon="7.24412">
        <ele>615.6</ele>
        <time>2025-09-08T10:02:32Z</time>
      </trkpt>
      <trkpt lat="48.09742" lon="7.24415">
        <ele>615.8</ele>
        <time>2025-09-08T10:02:33Z</time>
      </trkpt>
      <trkpt lat="48.0974" lon="7.24418">
        <ele>616.6</ele>
        <time>2025-09-08T10:02:34Z</time>
      </trkpt>
      <trkpt lat="48.09738" lon="7.24421">
        <ele>616.8</ele>
        <time>2025-09-08T10:02:35Z</time>
      </trkpt>
      <trkpt lat="48.09736" lon="7.24424">
        <ele>617.4</ele>
        <time>2025-09-08T10:02:36Z</time>
      </trkpt>
      <trkpt lat="48.09734" lon="7.24427">
        <ele>618</ele>
        <time>2025-09-08T10:02:37Z</time>
      </trkpt>
      <trkpt lat="48.09732" lon="7.2443">
        <ele>618.4</ele>
        <time>2025-09-08T10:02:38Z</time>
      </trkpt>
      <trkpt lat="48.09729" lon="7.24434">
        <ele>618.8</ele>
        <time>2025-09-08T10:02:39Z</time>
      </trkpt>
      <trkpt lat="48.09726" lon="7.24438">
        <ele>619</ele>
        <time>2025-09-08T10:02:40Z</time>
      </trkpt>
      <trkpt lat="48.09724" lon="7.24441">
        <ele>619.2</ele>
        <time>2025-09-08T10:02:41Z</time>
      </trkpt>
      <trkpt lat="48.09722" lon="7.24443">
        <ele>619.4</ele>
        <time>2025-09-08T10:02:42Z</time>
      </trkpt>
      <trkpt lat="48.0972" lon="7.24446">
        <ele>619.6</ele>
        <time>2025-09-08T10:02:43Z</time>
      </trkpt>
      <trkpt lat="48.09718" lon="7.24449">
        <ele>619.8</ele>
        <time>2025-09-08T10:02:44Z</time>
      </trkpt>
      <trkpt lat="48.09717" lon="7.24452">
        <ele>620</ele>
        <time>2025-09-08T10:02:45Z</time>
      </trkpt>
      <trkpt lat="48.09715" lon="7.24453">
        <ele>620.2</ele>
        <time>2025-09-08T10:02:46Z</time>
      </trkpt>
      <trkpt lat="48.09713" lon="7.24454">
        <ele>620.4</ele>
        <time>2025-09-08T10:02:47Z</time>
      </trkpt>
      <trkpt lat="48.09711" lon="7.24456">
        <ele>620.6</ele>
        <time>2025-09-08T10:02:48Z</time>
      </trkpt>
      <trkpt lat="48.09709" lon="7.2446">
        <ele>620.8</ele>
        <time>2025-09-08T10:02:49Z</time>
      </trkpt>
      <trkpt lat="48.09707" lon="7.24464">
        <ele>620.8</ele>
        <time>2025-09-08T10:02:50Z</time>
      </trkpt>
      <trkpt lat="48.09704" lon="7.24467">
        <ele>620.8</ele>
        <time>2025-09-08T10:02:51Z</time>
      </trkpt>
      <trkpt lat="48.097" lon="7.24473">
        <ele>620.8</ele>
        <time>2025-09-08T10:02:52Z</time>
      </trkpt>
      <trkpt lat="48.09696" lon="7.24478">
        <ele>620.8</ele>
        <time>2025-09-08T10:02:53Z</time>
      </trkpt>
      <trkpt lat="48.09691" lon="7.24485">
        <ele>620.4</ele>
        <time>2025-09-08T10:02:54Z</time>
      </trkpt>
      <trkpt lat="48.09687" lon="7.24491">
        <ele>620</ele>
        <time>2025-09-08T10:02:55Z</time>
      </trkpt>
      <trkpt lat="48.09683" lon="7.24498">
        <ele>619.6</ele>
        <time>2025-09-08T10:02:56Z</time>
      </trkpt>
      <trkpt lat="48.09681" lon="7.24503">
        <ele>619.4</ele>
        <time>2025-09-08T10:02:57Z</time>
      </trkpt>
      <trkpt lat="48.09678" lon="7.24507">
        <ele>619.2</ele>
        <time>2025-09-08T10:02:58Z</time>
      </trkpt>
      <trkpt lat="48.09676" lon="7.24511">
        <ele>619.2</ele>
        <time>2025-09-08T10:02:59Z</time>
      </trkpt>
      <trkpt lat="48.09674" lon="7.24514">
        <ele>619.2</ele>
        <time>2025-09-08T10:03:00Z</time>
      </trkpt>
      <trkpt lat="48.09672" lon="7.24517">
        <ele>619.2</ele>
        <time>2025-09-08T10:03:01Z</time>
      </trkpt>
      <trkpt lat="48.0967" lon="7.24519">
        <ele>619.4</ele>
        <time>2025-09-08T10:03:02Z</time>
      </trkpt>
      <trkpt lat="48.09668" lon="7.24521">
        <ele>619.6</ele>
        <time>2025-09-08T10:03:03Z</time>
      </trkpt>
      <trkpt lat="48.09667" lon="7.24523">
        <ele>620.2</ele>
        <time>2025-09-08T10:03:04Z</time>
      </trkpt>
      <trkpt lat="48.09666" lon="7.24525">
        <ele>620.4</ele>
        <time>2025-09-08T10:03:05Z</time>
      </trkpt>
      <trkpt lat="48.09665" lon="7.24526">
        <ele>621</ele>
        <time>2025-09-08T10:03:06Z</time>
      </trkpt>
      <trkpt lat="48.09664" lon="7.24528">
        <ele>621.4</ele>
        <time>2025-09-08T10:03:07Z</time>
      </trkpt>
      <trkpt lat="48.09664" lon="7.24528">
        <ele>621.6</ele>
        <time>2025-09-08T10:03:08Z</time>
      </trkpt>
      <trkpt lat="48.09663" lon="7.24529">
        <ele>621.8</ele>
        <time>2025-09-08T10:03:09Z</time>
      </trkpt>
      <trkpt lat="48.0966" lon="7.24541">
        <ele>621.2</ele>
        <time>2025-09-08T10:04:40Z</time>
      </trkpt>
      <trkpt lat="48.0966" lon="7.24544">
        <ele>621</ele>
        <time>2025-09-08T10:04:41Z</time>
      </trkpt>
      <trkpt lat="48.09659" lon="7.24547">
        <ele>620.8</ele>
        <time>2025-09-08T10:04:42Z</time>
      </trkpt>
      <trkpt lat="48.09659" lon="7.2455">
        <ele>620.4</ele>
        <time>2025-09-08T10:04:43Z</time>
      </trkpt>
      <trkpt lat="48.09659" lon="7.24555">
        <ele>619.8</ele>
        <time>2025-09-08T10:04:44Z</time>
      </trkpt>
      <trkpt lat="48.09657" lon="7.2456">
        <ele>619.4</ele>
        <time>2025-09-08T10:04:45Z</time>
      </trkpt>
      <trkpt lat="48.09655" lon="7.24563">
        <ele>618.6</ele>
        <time>2025-09-08T10:04:46Z</time>
      </trkpt>
      <trkpt lat="48.09654" lon="7.24567">
        <ele>618</ele>
        <time>2025-09-08T10:04:47Z</time>
      </trkpt>
      <trkpt lat="48.09655" lon="7.24572">
        <ele>617.6</ele>
        <time>2025-09-08T10:04:48Z</time>
      </trkpt>
      <trkpt lat="48.09656" lon="7.24577">
        <ele>616.6</ele>
        <time>2025-09-08T10:04:49Z</time>
      </trkpt>
      <trkpt lat="48.09659" lon="7.24583">
        <ele>616</ele>
        <time>2025-09-08T10:04:50Z</time>
      </trkpt>
      <trkpt lat="48.09661" lon="7.24591">
        <ele>615.2</ele>
        <time>2025-09-08T10:04:51Z</time>
      </trkpt>
      <trkpt lat="48.09665" lon="7.24594">
        <ele>614.2</ele>
        <time>2025-09-08T10:04:52Z</time>
      </trkpt>
      <trkpt lat="48.09667" lon="7.24599">
        <ele>613.2</ele>
        <time>2025-09-08T10:04:53Z</time>
      </trkpt>
      <trkpt lat="48.0967" lon="7.24602">
        <ele>612.4</ele>
        <time>2025-09-08T10:04:54Z</time>
      </trkpt>
      <trkpt lat="48.09671" lon="7.24606">
        <ele>611.6</ele>
        <time>2025-09-08T10:04:55Z</time>
      </trkpt>
      <trkpt lat="48.0967" lon="7.24609">
        <ele>611.2</ele>
        <time>2025-09-08T10:04:56Z</time>
      </trkpt>
      <trkpt lat="48.0967" lon="7.24614">
        <ele>610.8</ele>
        <time>2025-09-08T10:04:57Z</time>
      </trkpt>
      <trkpt lat="48.09671" lon="7.24618">
        <ele>610.6</ele>
        <time>2025-09-08T10:04:58Z</time>
      </trkpt>
      <trkpt lat="48.09673" lon="7.2462">
        <ele>610.2</ele>
        <time>2025-09-08T10:04:59Z</time>
      </trkpt>
      <trkpt lat="48.09675" lon="7.24623">
        <ele>609.8</ele>
        <time>2025-09-08T10:05:00Z</time>
      </trkpt>
      <trkpt lat="48.09675" lon="7.24627">
        <ele>609</ele>
        <time>2025-09-08T10:05:01Z</time>
      </trkpt>
      <trkpt lat="48.09675" lon="7.2463">
        <ele>608.8</ele>
        <time>2025-09-08T10:05:02Z</time>
      </trkpt>
      <trkpt lat="48.09675" lon="7.24633">
        <ele>608.2</ele>
        <time>2025-09-08T10:05:03Z</time>
      </trkpt>
      <trkpt lat="48.09676" lon="7.24637">
        <ele>607.8</ele>
        <time>2025-09-08T10:05:04Z</time>
      </trkpt>
      <trkpt lat="48.09677" lon="7.24643">
        <ele>607.4</ele>
        <time>2025-09-08T10:05:05Z</time>
      </trkpt>
      <trkpt lat="48.09679" lon="7.24648">
        <ele>607</ele>
        <time>2025-09-08T10:05:06Z</time>
      </trkpt>
      <trkpt lat="48.09681" lon="7.24654">
        <ele>606.4</ele>
        <time>2025-09-08T10:05:07Z</time>
      </trkpt>
      <trkpt lat="48.09682" lon="7.24661">
        <ele>606</ele>
        <time>2025-09-08T10:05:08Z</time>
      </trkpt>
      <trkpt lat="48.09684" lon="7.24668">
        <ele>604.8</ele>
        <time>2025-09-08T10:05:09Z</time>
      </trkpt>
      <trkpt lat="48.09686" lon="7.24674">
        <ele>604.2</ele>
        <time>2025-09-08T10:05:10Z</time>
      </trkpt>
      <trkpt lat="48.09689" lon="7.24678">
        <ele>603.4</ele>
        <time>2025-09-08T10:05:11Z</time>
      </trkpt>
      <trkpt lat="48.09691" lon="7.24681">
        <ele>603</ele>
        <time>2025-09-08T10:05:12Z</time>
      </trkpt>
      <trkpt lat="48.09693" lon="7.24684">
        <ele>602.4</ele>
        <time>2025-09-08T10:05:13Z</time>
      </trkpt>
      <trkpt lat="48.09694" lon="7.24687">
        <ele>601.8</ele>
        <time>2025-09-08T10:05:14Z</time>
      </trkpt>
      <trkpt lat="48.09694" lon="7.2469">
        <ele>601.4</ele>
        <time>2025-09-08T10:05:15Z</time>
      </trkpt>
      <trkpt lat="48.09696" lon="7.24694">
        <ele>601.2</ele>
        <time>2025-09-08T10:05:16Z</time>
      </trkpt>
      <trkpt lat="48.09697" lon="7.24698">
        <ele>601</ele>
        <time>2025-09-08T10:05:17Z</time>
      </trkpt>
      <trkpt lat="48.09697" lon="7.24703">
        <ele>600.8</ele>
        <time>2025-09-08T10:05:18Z</time>
      </trkpt>
      <trkpt lat="48.09698" lon="7.24708">
        <ele>600.4</ele>
        <time>2025-09-08T10:05:19Z</time>
      </trkpt>
      <trkpt lat="48.09699" lon="7.24713">
        <ele>599.8</ele>
        <time>2025-09-08T10:05:20Z</time>
      </trkpt>
      <trkpt lat="48.09701" lon="7.24719">
        <ele>598.8</ele>
        <time>2025-09-08T10:05:21Z</time>
      </trkpt>
      <trkpt lat="48.09702" lon="7.24725">
        <ele>598.2</ele>
        <time>2025-09-08T10:05:22Z</time>
      </trkpt>
      <trkpt lat="48.09704" lon="7.24731">
        <ele>597.6</ele>
        <time>2025-09-08T10:05:23Z</time>
      </trkpt>
      <trkpt lat="48.09705" lon="7.24738">
        <ele>596.8</ele>
        <time>2025-09-08T10:05:24Z</time>
      </trkpt>
      <trkpt lat="48.09706" lon="7.24743">
        <ele>596.2</ele>
        <time>2025-09-08T10:05:25Z</time>
      </trkpt>
      <trkpt lat="48.09707" lon="7.24748">
        <ele>595</ele>
        <time>2025-09-08T10:05:26Z</time>
      </trkpt>
      <trkpt lat="48.09708" lon="7.24752">
        <ele>594</ele>
        <time>2025-09-08T10:05:27Z</time>
      </trkpt>
      <trkpt lat="48.09708" lon="7.24755">
        <ele>593</ele>
        <time>2025-09-08T10:05:28Z</time>
      </trkpt>
      <trkpt lat="48.09709" lon="7.24759">
        <ele>592.2</ele>
        <time>2025-09-08T10:05:29Z</time>
      </trkpt>
      <trkpt lat="48.0971" lon="7.24763">
        <ele>591.6</ele>
        <time>2025-09-08T10:05:30Z</time>
      </trkpt>
      <trkpt lat="48.09709" lon="7.24767">
        <ele>591</ele>
        <time>2025-09-08T10:05:31Z</time>
      </trkpt>
      <trkpt lat="48.09709" lon="7.24768">
        <ele>590.6</ele>
        <time>2025-09-08T10:05:32Z</time>
      </trkpt>
      <trkpt lat="48.09708" lon="7.24771">
        <ele>589.2</ele>
        <time>2025-09-08T10:05:33Z</time>
      </trkpt>
      <trkpt lat="48.09707" lon="7.24774">
        <ele>588.6</ele>
        <time>2025-09-08T10:05:34Z</time>
      </trkpt>
      <trkpt lat="48.09705" lon="7.24778">
        <ele>588</ele>
        <time>2025-09-08T10:05:35Z</time>
      </trkpt>
      <trkpt lat="48.09704" lon="7.24782">
        <ele>587.4</ele>
        <time>2025-09-08T10:05:36Z</time>
      </trkpt>
      <trkpt lat="48.09703" lon="7.24784">
        <ele>586.6</ele>
        <time>2025-09-08T10:05:37Z</time>
      </trkpt>
      <trkpt lat="48.09702" lon="7.24785">
        <ele>586</ele>
        <time>2025-09-08T10:05:38Z</time>
      </trkpt>
      <trkpt lat="48.09701" lon="7.24785">
        <ele>585.4</ele>
        <time>2025-09-08T10:05:39Z</time>
      </trkpt>
      <trkpt lat="48.09702" lon="7.24786">
        <ele>584.4</ele>
        <time>2025-09-08T10:05:40Z</time>
      </trkpt>
      <trkpt lat="48.09702" lon="7.24786">
        <ele>584.2</ele>
        <time>2025-09-08T10:05:41Z</time>
      </trkpt>
      <trkpt lat="48.09701" lon="7.24786">
        <ele>584</ele>
        <time>2025-09-08T10:05:42Z</time>
      </trkpt>
      <trkpt lat="48.09701" lon="7.24786">
        <ele>583.8</ele>
        <time>2025-09-08T10:05:43Z</time>
      </trkpt>
      <trkpt lat="48.097" lon="7.24786">
        <ele>583.6</ele>
        <time>2025-09-08T10:05:44Z</time>
      </trkpt>
      <trkpt lat="48.09697" lon="7.24785">
        <ele>583</ele>
        <time>2025-09-08T10:05:47Z</time>
      </trkpt>
      <trkpt lat="48.09694" lon="7.24783">
        <ele>583</ele>
        <time>2025-09-08T10:05:48Z</time>
      </trkpt>
      <trkpt lat="48.09691" lon="7.24781">
        <ele>582.8</ele>
        <time>2025-09-08T10:05:49Z</time>
      </trkpt>
      <trkpt lat="48.09689" lon="7.24784">
        <ele>582.4</ele>
        <time>2025-09-08T10:05:50Z</time>
      </trkpt>
      <trkpt lat="48.0969" lon="7.24786">
        <ele>581.6</ele>
        <time>2025-09-08T10:05:51Z</time>
      </trkpt>
      <trkpt lat="48.09689" lon="7.24788">
        <ele>581</ele>
        <time>2025-09-08T10:05:52Z</time>
      </trkpt>
      <trkpt lat="48.09688" lon="7.24791">
        <ele>580.2</ele>
        <time>2025-09-08T10:05:53Z</time>
      </trkpt>
      <trkpt lat="48.09687" lon="7.24796">
        <ele>579.8</ele>
        <time>2025-09-08T10:05:54Z</time>
      </trkpt>
      <trkpt lat="48.09687" lon="7.24801">
        <ele>579.2</ele>
        <time>2025-09-08T10:05:55Z</time>
      </trkpt>
      <trkpt lat="48.09687" lon="7.24808">
        <ele>578.2</ele>
        <time>2025-09-08T10:05:56Z</time>
      </trkpt>
      <trkpt lat="48.09687" lon="7.24815">
        <ele>577.4</ele>
        <time>2025-09-08T10:05:57Z</time>
      </trkpt>
      <trkpt lat="48.09687" lon="7.24824">
        <ele>576</ele>
        <time>2025-09-08T10:05:58Z</time>
      </trkpt>
      <trkpt lat="48.09689" lon="7.24833">
        <ele>575.4</ele>
        <time>2025-09-08T10:05:59Z</time>
      </trkpt>
      <trkpt lat="48.09691" lon="7.24841">
        <ele>574.2</ele>
        <time>2025-09-08T10:06:00Z</time>
      </trkpt>
      <trkpt lat="48.0969" lon="7.24849">
        <ele>573</ele>
        <time>2025-09-08T10:06:01Z</time>
      </trkpt>
      <trkpt lat="48.09691" lon="7.24857">
        <ele>571.8</ele>
        <time>2025-09-08T10:06:02Z</time>
      </trkpt>
      <trkpt lat="48.0969" lon="7.24865">
        <ele>571</ele>
        <time>2025-09-08T10:06:03Z</time>
      </trkpt>
      <trkpt lat="48.0969" lon="7.24871">
        <ele>570.2</ele>
        <time>2025-09-08T10:06:04Z</time>
      </trkpt>
      <trkpt lat="48.09689" lon="7.24876">
        <ele>569.4</ele>
        <time>2025-09-08T10:06:05Z</time>
      </trkpt>
      <trkpt lat="48.09687" lon="7.24878">
        <ele>568.2</ele>
        <time>2025-09-08T10:06:06Z</time>
      </trkpt>
      <trkpt lat="48.09684" lon="7.24879">
        <ele>567.2</ele>
        <time>2025-09-08T10:06:07Z</time>
      </trkpt>
      <trkpt lat="48.0968" lon="7.24877">
        <ele>566.6</ele>
        <time>2025-09-08T10:06:08Z</time>
      </trkpt>
      <trkpt lat="48.09678" lon="7.24874">
        <ele>566.4</ele>
        <time>2025-09-08T10:06:09Z</time>
      </trkpt>
      <trkpt lat="48.09676" lon="7.24871">
        <ele>565.6</ele>
        <time>2025-09-08T10:06:10Z</time>
      </trkpt>
      <trkpt lat="48.09674" lon="7.2487">
        <ele>564.8</ele>
        <time>2025-09-08T10:06:11Z</time>
      </trkpt>
      <trkpt lat="48.0967" lon="7.24872">
        <ele>562.8</ele>
        <time>2025-09-08T10:06:12Z</time>
      </trkpt>
      <trkpt lat="48.09668" lon="7.24877">
        <ele>562.4</ele>
        <time>2025-09-08T10:06:13Z</time>
      </trkpt>
      <trkpt lat="48.09666" lon="7.24883">
        <ele>561.4</ele>
        <time>2025-09-08T10:06:14Z</time>
      </trkpt>
      <trkpt lat="48.09665" lon="7.24891">
        <ele>559.8</ele>
        <time>2025-09-08T10:06:15Z</time>
      </trkpt>
      <trkpt lat="48.09664" lon="7.24898">
        <ele>559</ele>
        <time>2025-09-08T10:06:16Z</time>
      </trkpt>
      <trkpt lat="48.09665" lon="7.24905">
        <ele>557.4</ele>
        <time>2025-09-08T10:06:17Z</time>
      </trkpt>
      <trkpt lat="48.09665" lon="7.24912">
        <ele>555.2</ele>
        <time>2025-09-08T10:06:18Z</time>
      </trkpt>
      <trkpt lat="48.09666" lon="7.24918">
        <ele>554.4</ele>
        <time>2025-09-08T10:06:19Z</time>
      </trkpt>
      <trkpt lat="48.09665" lon="7.24925">
        <ele>553.6</ele>
        <time>2025-09-08T10:06:20Z</time>
      </trkpt>
      <trkpt lat="48.09664" lon="7.24932">
        <ele>552.4</ele>
        <time>2025-09-08T10:06:21Z</time>
      </trkpt>
      <trkpt lat="48.09663" lon="7.2494">
        <ele>552.2</ele>
        <time>2025-09-08T10:06:22Z</time>
      </trkpt>
      <trkpt lat="48.09663" lon="7.24948">
        <ele>551.6</ele>
        <time>2025-09-08T10:06:23Z</time>
      </trkpt>
      <trkpt lat="48.09663" lon="7.24957">
        <ele>551.2</ele>
        <time>2025-09-08T10:06:24Z</time>
      </trkpt>
      <trkpt lat="48.09664" lon="7.24965">
        <ele>550</ele>
        <time>2025-09-08T10:06:25Z</time>
      </trkpt>
      <trkpt lat="48.09665" lon="7.24973">
        <ele>549.4</ele>
        <time>2025-09-08T10:06:26Z</time>
      </trkpt>
      <trkpt lat="48.09664" lon="7.24979">
        <ele>548.8</ele>
        <time>2025-09-08T10:06:27Z</time>
      </trkpt>
      <trkpt lat="48.09663" lon="7.24986">
        <ele>548.6</ele>
        <time>2025-09-08T10:06:28Z</time>
      </trkpt>
      <trkpt lat="48.09661" lon="7.24992">
        <ele>548.2</ele>
        <time>2025-09-08T10:06:29Z</time>
      </trkpt>
      <trkpt lat="48.0966" lon="7.24999">
        <ele>548</ele>
        <time>2025-09-08T10:06:30Z</time>
      </trkpt>
      <trkpt lat="48.0966" lon="7.25007">
        <ele>547.8</ele>
        <time>2025-09-08T10:06:31Z</time>
      </trkpt>
      <trkpt lat="48.0966" lon="7.25016">
        <ele>546.8</ele>
        <time>2025-09-08T10:06:32Z</time>
      </trkpt>
      <trkpt lat="48.0966" lon="7.25025">
        <ele>546.4</ele>
        <time>2025-09-08T10:06:33Z</time>
      </trkpt>
      <trkpt lat="48.0966" lon="7.25036">
        <ele>546</ele>
        <time>2025-09-08T10:06:34Z</time>
      </trkpt>
      <trkpt lat="48.0966" lon="7.25044">
        <ele>545</ele>
        <time>2025-09-08T10:06:35Z</time>
      </trkpt>
      <trkpt lat="48.09661" lon="7.25053">
        <ele>544.2</ele>
        <time>2025-09-08T10:06:36Z</time>
      </trkpt>
      <trkpt lat="48.09663" lon="7.25063">
        <ele>542.8</ele>
        <time>2025-09-08T10:06:37Z</time>
      </trkpt>
      <trkpt lat="48.09665" lon="7.25072">
        <ele>542.4</ele>
        <time>2025-09-08T10:06:38Z</time>
      </trkpt>
      <trkpt lat="48.09667" lon="7.25081">
        <ele>542</ele>
        <time>2025-09-08T10:06:39Z</time>
      </trkpt>
      <trkpt lat="48.09669" lon="7.25091">
        <ele>540.4</ele>
        <time>2025-09-08T10:06:40Z</time>
      </trkpt>
      <trkpt lat="48.09671" lon="7.251">
        <ele>540</ele>
        <time>2025-09-08T10:06:41Z</time>
      </trkpt>
      <trkpt lat="48.09673" lon="7.25109">
        <ele>539.2</ele>
        <time>2025-09-08T10:06:42Z</time>
      </trkpt>
      <trkpt lat="48.09674" lon="7.25118">
        <ele>538.4</ele>
        <time>2025-09-08T10:06:43Z</time>
      </trkpt>
      <trkpt lat="48.09676" lon="7.25126">
        <ele>537.8</ele>
        <time>2025-09-08T10:06:44Z</time>
      </trkpt>
      <trkpt lat="48.09678" lon="7.25132">
        <ele>536.8</ele>
        <time>2025-09-08T10:06:45Z</time>
      </trkpt>
      <trkpt lat="48.09679" lon="7.25139">
        <ele>536</ele>
        <time>2025-09-08T10:06:46Z</time>
      </trkpt>
      <trkpt lat="48.09682" lon="7.25146">
        <ele>534.4</ele>
        <time>2025-09-08T10:06:47Z</time>
      </trkpt>
      <trkpt lat="48.09684" lon="7.25153">
        <ele>534.2</ele>
        <time>2025-09-08T10:06:48Z</time>
      </trkpt>
      <trkpt lat="48.09687" lon="7.25161">
        <ele>532.8</ele>
        <time>2025-09-08T10:06:49Z</time>
      </trkpt>
      <trkpt lat="48.09688" lon="7.25168">
        <ele>532.2</ele>
        <time>2025-09-08T10:06:50Z</time>
      </trkpt>
      <trkpt lat="48.09691" lon="7.25177">
        <ele>531</ele>
        <time>2025-09-08T10:06:51Z</time>
      </trkpt>
      <trkpt lat="48.09693" lon="7.25185">
        <ele>529.6</ele>
        <time>2025-09-08T10:06:52Z</time>
      </trkpt>
      <trkpt lat="48.09697" lon="7.25194">
        <ele>528.4</ele>
        <time>2025-09-08T10:06:53Z</time>
      </trkpt>
      <trkpt lat="48.097" lon="7.25203">
        <ele>527.2</ele>
        <time>2025-09-08T10:06:54Z</time>
      </trkpt>
      <trkpt lat="48.09703" lon="7.25211">
        <ele>526</ele>
        <time>2025-09-08T10:06:55Z</time>
      </trkpt>
      <trkpt lat="48.09703" lon="7.25218">
        <ele>525</ele>
        <time>2025-09-08T10:06:56Z</time>
      </trkpt>
      <trkpt lat="48.09703" lon="7.25227">
        <ele>523.2</ele>
        <time>2025-09-08T10:06:57Z</time>
      </trkpt>
      <trkpt lat="48.09705" lon="7.25235">
        <ele>522.6</ele>
        <time>2025-09-08T10:06:58Z</time>
      </trkpt>
      <trkpt lat="48.09708" lon="7.25242">
        <ele>521.6</ele>
        <time>2025-09-08T10:06:59Z</time>
      </trkpt>
      <trkpt lat="48.0971" lon="7.25249">
        <ele>520.2</ele>
        <time>2025-09-08T10:07:00Z</time>
      </trkpt>
      <trkpt lat="48.09712" lon="7.25258">
        <ele>519.2</ele>
        <time>2025-09-08T10:07:01Z</time>
      </trkpt>
      <trkpt lat="48.09712" lon="7.25268">
        <ele>518</ele>
        <time>2025-09-08T10:07:02Z</time>
      </trkpt>
      <trkpt lat="48.09713" lon="7.25279">
        <ele>517.2</ele>
        <time>2025-09-08T10:07:03Z</time>
      </trkpt>
      <trkpt lat="48.09713" lon="7.25289">
        <ele>516.4</ele>
        <time>2025-09-08T10:07:04Z</time>
      </trkpt>
      <trkpt lat="48.09712" lon="7.25299">
        <ele>515.8</ele>
        <time>2025-09-08T10:07:05Z</time>
      </trkpt>
      <trkpt lat="48.0971" lon="7.25307">
        <ele>515</ele>
        <time>2025-09-08T10:07:06Z</time>
      </trkpt>
      <trkpt lat="48.09708" lon="7.25316">
        <ele>513.6</ele>
        <time>2025-09-08T10:07:07Z</time>
      </trkpt>
      <trkpt lat="48.09704" lon="7.25325">
        <ele>513</ele>
        <time>2025-09-08T10:07:08Z</time>
      </trkpt>
      <trkpt lat="48.09701" lon="7.25335">
        <ele>512.2</ele>
        <time>2025-09-08T10:07:09Z</time>
      </trkpt>
      <trkpt lat="48.09698" lon="7.25344">
        <ele>511.4</ele>
        <time>2025-09-08T10:07:10Z</time>
      </trkpt>
      <trkpt lat="48.09696" lon="7.25353">
        <ele>510.4</ele>
        <time>2025-09-08T10:07:11Z</time>
      </trkpt>
      <trkpt lat="48.09696" lon="7.25361">
        <ele>509.6</ele>
        <time>2025-09-08T10:07:12Z</time>
      </trkpt>
      <trkpt lat="48.09695" lon="7.25369">
        <ele>508.6</ele>
        <time>2025-09-08T10:07:13Z</time>
      </trkpt>
      <trkpt lat="48.09693" lon="7.25375">
        <ele>508</ele>
        <time>2025-09-08T10:07:14Z</time>
      </trkpt>
      <trkpt lat="48.0969" lon="7.25382">
        <ele>507.6</ele>
        <time>2025-09-08T10:07:15Z</time>
      </trkpt>
      <trkpt lat="48.09687" lon="7.2539">
        <ele>507.4</ele>
        <time>2025-09-08T10:07:16Z</time>
      </trkpt>
      <trkpt lat="48.09685" lon="7.25398">
        <ele>507</ele>
        <time>2025-09-08T10:07:17Z</time>
      </trkpt>
      <trkpt lat="48.09681" lon="7.25405">
        <ele>506.8</ele>
        <time>2025-09-08T10:07:18Z</time>
      </trkpt>
      <trkpt lat="48.09677" lon="7.25411">
        <ele>506.4</ele>
        <time>2025-09-08T10:07:19Z</time>
      </trkpt>
      <trkpt lat="48.09674" lon="7.25418">
        <ele>506.2</ele>
        <time>2025-09-08T10:07:20Z</time>
      </trkpt>
      <trkpt lat="48.0967" lon="7.25425">
        <ele>505.8</ele>
        <time>2025-09-08T10:07:21Z</time>
      </trkpt>
      <trkpt lat="48.09667" lon="7.25431">
        <ele>505.4</ele>
        <time>2025-09-08T10:07:22Z</time>
      </trkpt>
      <trkpt lat="48.09666" lon="7.25437">
        <ele>505.2</ele>
        <time>2025-09-08T10:07:23Z</time>
      </trkpt>
      <trkpt lat="48.09665" lon="7.2544">
        <ele>505</ele>
        <time>2025-09-08T10:07:24Z</time>
      </trkpt>
      <trkpt lat="48.09665" lon="7.25443">
        <ele>505</ele>
        <time>2025-09-08T10:07:25Z</time>
      </trkpt>
      <trkpt lat="48.09666" lon="7.25442">
        <ele>505</ele>
        <time>2025-09-08T10:07:26Z</time>
      </trkpt>
      <trkpt lat="48.0966" lon="7.2545">
        <ele>506.2</ele>
        <time>2025-09-08T10:07:36Z</time>
      </trkpt>
      <trkpt lat="48.09659" lon="7.25455">
        <ele>506.2</ele>
        <time>2025-09-08T10:07:37Z</time>
      </trkpt>
      <trkpt lat="48.09657" lon="7.25461">
        <ele>506.2</ele>
        <time>2025-09-08T10:07:38Z</time>
      </trkpt>
      <trkpt lat="48.09654" lon="7.25466">
        <ele>506.2</ele>
        <time>2025-09-08T10:07:39Z</time>
      </trkpt>
      <trkpt lat="48.09653" lon="7.2547">
        <ele>505.8</ele>
        <time>2025-09-08T10:07:40Z</time>
      </trkpt>
      <trkpt lat="48.0965" lon="7.25475">
        <ele>505.6</ele>
        <time>2025-09-08T10:07:41Z</time>
      </trkpt>
      <trkpt lat="48.09649" lon="7.2548">
        <ele>505.6</ele>
        <time>2025-09-08T10:07:42Z</time>
      </trkpt>
      <trkpt lat="48.09647" lon="7.25485">
        <ele>505.6</ele>
        <time>2025-09-08T10:07:43Z</time>
      </trkpt>
      <trkpt lat="48.09647" lon="7.2549">
        <ele>505.4</ele>
        <time>2025-09-08T10:07:44Z</time>
      </trkpt>
      <trkpt lat="48.09646" lon="7.25494">
        <ele>505.4</ele>
        <time>2025-09-08T10:07:45Z</time>
      </trkpt>
      <trkpt lat="48.09646" lon="7.25498">
        <ele>505.6</ele>
        <time>2025-09-08T10:07:46Z</time>
      </trkpt>
      <trkpt lat="48.09646" lon="7.25503">
        <ele>505.6</ele>
        <time>2025-09-08T10:07:47Z</time>
      </trkpt>
      <trkpt lat="48.09647" lon="7.25507">
        <ele>505.6</ele>
        <time>2025-09-08T10:07:48Z</time>
      </trkpt>
      <trkpt lat="48.09647" lon="7.25512">
        <ele>505.8</ele>
        <time>2025-09-08T10:07:49Z</time>
      </trkpt>
      <trkpt lat="48.09646" lon="7.25515">
        <ele>506</ele>
        <time>2025-09-08T10:07:50Z</time>
      </trkpt>
      <trkpt lat="48.09645" lon="7.25517">
        <ele>506.2</ele>
        <time>2025-09-08T10:07:51Z</time>
      </trkpt>
      <trkpt lat="48.09643" lon="7.25519">
        <ele>506.2</ele>
        <time>2025-09-08T10:07:52Z</time>
      </trkpt>
      <trkpt lat="48.0964" lon="7.2552">
        <ele>506.2</ele>
        <time>2025-09-08T10:07:53Z</time>
      </trkpt>
      <trkpt lat="48.09639" lon="7.25523">
        <ele>506.2</ele>
        <time>2025-09-08T10:07:54Z</time>
      </trkpt>
      <trkpt lat="48.09638" lon="7.25528">
        <ele>506.2</ele>
        <time>2025-09-08T10:07:55Z</time>
      </trkpt>
      <trkpt lat="48.09638" lon="7.25533">
        <ele>505.6</ele>
        <time>2025-09-08T10:07:56Z</time>
      </trkpt>
      <trkpt lat="48.09638" lon="7.25539">
        <ele>505.2</ele>
        <time>2025-09-08T10:07:57Z</time>
      </trkpt>
      <trkpt lat="48.09637" lon="7.25543">
        <ele>505</ele>
        <time>2025-09-08T10:07:58Z</time>
      </trkpt>
      <trkpt lat="48.09635" lon="7.25546">
        <ele>504.4</ele>
        <time>2025-09-08T10:07:59Z</time>
      </trkpt>
      <trkpt lat="48.09634" lon="7.2555">
        <ele>504</ele>
        <time>2025-09-08T10:08:00Z</time>
      </trkpt>
      <trkpt lat="48.09633" lon="7.25554">
        <ele>503.8</ele>
        <time>2025-09-08T10:08:01Z</time>
      </trkpt>
      <trkpt lat="48.09631" lon="7.25558">
        <ele>503.4</ele>
        <time>2025-09-08T10:08:02Z</time>
      </trkpt>
      <trkpt lat="48.09629" lon="7.25561">
        <ele>503</ele>
        <time>2025-09-08T10:08:03Z</time>
      </trkpt>
      <trkpt lat="48.09626" lon="7.25563">
        <ele>502.8</ele>
        <time>2025-09-08T10:08:04Z</time>
      </trkpt>
      <trkpt lat="48.09626" lon="7.25563">
        <ele>502.4</ele>
        <time>2025-09-08T10:08:05Z</time>
      </trkpt>
      <trkpt lat="48.09625" lon="7.25561">
        <ele>501.2</ele>
        <time>2025-09-08T10:08:06Z</time>
      </trkpt>
      <trkpt lat="48.09624" lon="7.25559">
        <ele>501</ele>
        <time>2025-09-08T10:08:07Z</time>
      </trkpt>
      <trkpt lat="48.09624" lon="7.25557">
        <ele>501</ele>
        <time>2025-09-08T10:08:08Z</time>
      </trkpt>
      <trkpt lat="48.09624" lon="7.25557">
        <ele>500.8</ele>
        <time>2025-09-08T10:08:09Z</time>
      </trkpt>
      <trkpt lat="48.09623" lon="7.25556">
        <ele>500.8</ele>
        <time>2025-09-08T10:08:10Z</time>
      </trkpt>
      <trkpt lat="48.09623" lon="7.25556">
        <ele>500.6</ele>
        <time>2025-09-08T10:08:11Z</time>
      </trkpt>
      <trkpt lat="48.09619" lon="7.25564">
        <ele>499.2</ele>
        <time>2025-09-08T10:09:20Z</time>
      </trkpt>
      <trkpt lat="48.09618" lon="7.25569">
        <ele>499</ele>
        <time>2025-09-08T10:09:21Z</time>
      </trkpt>
      <trkpt lat="48.09616" lon="7.25576">
        <ele>499</ele>
        <time>2025-09-08T10:09:22Z</time>
      </trkpt>
      <trkpt lat="48.09613" lon="7.25581">
        <ele>499</ele>
        <time>2025-09-08T10:09:23Z</time>
      </trkpt>
      <trkpt lat="48.0961" lon="7.25585">
        <ele>498.8</ele>
        <time>2025-09-08T10:09:24Z</time>
      </trkpt>
      <trkpt lat="48.09607" lon="7.25586">
        <ele>497.4</ele>
        <time>2025-09-08T10:09:25Z</time>
      </trkpt>
      <trkpt lat="48.09603" lon="7.25588">
        <ele>497</ele>
        <time>2025-09-08T10:09:26Z</time>
      </trkpt>
      <trkpt lat="48.09599" lon="7.25592">
        <ele>496.4</ele>
        <time>2025-09-08T10:09:27Z</time>
      </trkpt>
      <trkpt lat="48.09596" lon="7.25597">
        <ele>496</ele>
        <time>2025-09-08T10:09:28Z</time>
      </trkpt>
      <trkpt lat="48.09593" lon="7.25604">
        <ele>495.4</ele>
        <time>2025-09-08T10:09:29Z</time>
      </trkpt>
      <trkpt lat="48.09591" lon="7.25611">
        <ele>495</ele>
        <time>2025-09-08T10:09:30Z</time>
      </trkpt>
      <trkpt lat="48.09587" lon="7.25614">
        <ele>493.6</ele>
        <time>2025-09-08T10:09:31Z</time>
      </trkpt>
      <trkpt lat="48.09583" lon="7.25615">
        <ele>493.2</ele>
        <time>2025-09-08T10:09:32Z</time>
      </trkpt>
      <trkpt lat="48.09579" lon="7.25619">
        <ele>492</ele>
        <time>2025-09-08T10:09:33Z</time>
      </trkpt>
      <trkpt lat="48.09575" lon="7.25624">
        <ele>491.6</ele>
        <time>2025-09-08T10:09:34Z</time>
      </trkpt>
      <trkpt lat="48.0957" lon="7.25631">
        <ele>491.2</ele>
        <time>2025-09-08T10:09:35Z</time>
      </trkpt>
      <trkpt lat="48.09566" lon="7.25637">
        <ele>490</ele>
        <time>2025-09-08T10:09:36Z</time>
      </trkpt>
      <trkpt lat="48.09562" lon="7.25641">
        <ele>489.2</ele>
        <time>2025-09-08T10:09:37Z</time>
      </trkpt>
      <trkpt lat="48.0956" lon="7.25645">
        <ele>487.8</ele>
        <time>2025-09-08T10:09:38Z</time>
      </trkpt>
      <trkpt lat="48.09559" lon="7.2565">
        <ele>487.4</ele>
        <time>2025-09-08T10:09:39Z</time>
      </trkpt>
      <trkpt lat="48.09557" lon="7.25655">
        <ele>486.6</ele>
        <time>2025-09-08T10:09:40Z</time>
      </trkpt>
      <trkpt lat="48.09555" lon="7.2566">
        <ele>486.4</ele>
        <time>2025-09-08T10:09:41Z</time>
      </trkpt>
      <trkpt lat="48.09553" lon="7.25666">
        <ele>486.2</ele>
        <time>2025-09-08T10:09:42Z</time>
      </trkpt>
      <trkpt lat="48.09551" lon="7.25673">
        <ele>486</ele>
        <time>2025-09-08T10:09:43Z</time>
      </trkpt>
      <trkpt lat="48.09547" lon="7.25678">
        <ele>485.6</ele>
        <time>2025-09-08T10:09:44Z</time>
      </trkpt>
      <trkpt lat="48.09544" lon="7.25683">
        <ele>485.2</ele>
        <time>2025-09-08T10:09:45Z</time>
      </trkpt>
      <trkpt lat="48.09542" lon="7.2569">
        <ele>484.8</ele>
        <time>2025-09-08T10:09:46Z</time>
      </trkpt>
      <trkpt lat="48.09539" lon="7.25696">
        <ele>484</ele>
        <time>2025-09-08T10:09:47Z</time>
      </trkpt>
      <trkpt lat="48.09535" lon="7.25702">
        <ele>483.6</ele>
        <time>2025-09-08T10:09:48Z</time>
      </trkpt>
      <trkpt lat="48.09533" lon="7.25704">
        <ele>483.2</ele>
        <time>2025-09-08T10:09:49Z</time>
      </trkpt>
      <trkpt lat="48.09531" lon="7.25706">
        <ele>482.6</ele>
        <time>2025-09-08T10:09:50Z</time>
      </trkpt>
      <trkpt lat="48.09527" lon="7.25708">
        <ele>481.8</ele>
        <time>2025-09-08T10:09:51Z</time>
      </trkpt>
      <trkpt lat="48.09523" lon="7.2571">
        <ele>481.6</ele>
        <time>2025-09-08T10:09:52Z</time>
      </trkpt>
      <trkpt lat="48.09519" lon="7.25709">
        <ele>481</ele>
        <time>2025-09-08T10:09:53Z</time>
      </trkpt>
      <trkpt lat="48.09514" lon="7.25709">
        <ele>480.6</ele>
        <time>2025-09-08T10:09:54Z</time>
      </trkpt>
      <trkpt lat="48.0951" lon="7.25706">
        <ele>480.4</ele>
        <time>2025-09-08T10:09:55Z</time>
      </trkpt>
      <trkpt lat="48.09505" lon="7.25704">
        <ele>479.4</ele>
        <time>2025-09-08T10:09:56Z</time>
      </trkpt>
      <trkpt lat="48.09502" lon="7.25702">
        <ele>478.8</ele>
        <time>2025-09-08T10:09:57Z</time>
      </trkpt>
      <trkpt lat="48.095" lon="7.25699">
        <ele>477.8</ele>
        <time>2025-09-08T10:09:58Z</time>
      </trkpt>
      <trkpt lat="48.09495" lon="7.25696">
        <ele>477.4</ele>
        <time>2025-09-08T10:09:59Z</time>
      </trkpt>
      <trkpt lat="48.09489" lon="7.25693">
        <ele>476.8</ele>
        <time>2025-09-08T10:10:00Z</time>
      </trkpt>
      <trkpt lat="48.09483" lon="7.25693">
        <ele>476.4</ele>
        <time>2025-09-08T10:10:01Z</time>
      </trkpt>
      <trkpt lat="48.09477" lon="7.25694">
        <ele>475.6</ele>
        <time>2025-09-08T10:10:02Z</time>
      </trkpt>
      <trkpt lat="48.09471" lon="7.25692">
        <ele>474.6</ele>
        <time>2025-09-08T10:10:03Z</time>
      </trkpt>
      <trkpt lat="48.09465" lon="7.25693">
        <ele>473.8</ele>
        <time>2025-09-08T10:10:04Z</time>
      </trkpt>
      <trkpt lat="48.09459" lon="7.25693">
        <ele>473</ele>
        <time>2025-09-08T10:10:05Z</time>
      </trkpt>
      <trkpt lat="48.09454" lon="7.2569">
        <ele>472.2</ele>
        <time>2025-09-08T10:10:06Z</time>
      </trkpt>
      <trkpt lat="48.09449" lon="7.25689">
        <ele>471.6</ele>
        <time>2025-09-08T10:10:07Z</time>
      </trkpt>
      <trkpt lat="48.09444" lon="7.25689">
        <ele>470.8</ele>
        <time>2025-09-08T10:10:08Z</time>
      </trkpt>
      <trkpt lat="48.09438" lon="7.25691">
        <ele>469.6</ele>
        <time>2025-09-08T10:10:09Z</time>
      </trkpt>
      <trkpt lat="48.09435" lon="7.2569">
        <ele>468.8</ele>
        <time>2025-09-08T10:10:10Z</time>
      </trkpt>
      <trkpt lat="48.09431" lon="7.25687">
        <ele>468.2</ele>
        <time>2025-09-08T10:10:11Z</time>
      </trkpt>
      <trkpt lat="48.09428" lon="7.25682">
        <ele>467.8</ele>
        <time>2025-09-08T10:10:12Z</time>
      </trkpt>
      <trkpt lat="48.09424" lon="7.25678">
        <ele>467.2</ele>
        <time>2025-09-08T10:10:13Z</time>
      </trkpt>
      <trkpt lat="48.09419" lon="7.25676">
        <ele>466.8</ele>
        <time>2025-09-08T10:10:14Z</time>
      </trkpt>
      <trkpt lat="48.09413" lon="7.25676">
        <ele>465.6</ele>
        <time>2025-09-08T10:10:15Z</time>
      </trkpt>
      <trkpt lat="48.09406" lon="7.25676">
        <ele>464.6</ele>
        <time>2025-09-08T10:10:16Z</time>
      </trkpt>
      <trkpt lat="48.094" lon="7.25676">
        <ele>464.2</ele>
        <time>2025-09-08T10:10:17Z</time>
      </trkpt>
      <trkpt lat="48.09395" lon="7.25676">
        <ele>463.2</ele>
        <time>2025-09-08T10:10:18Z</time>
      </trkpt>
      <trkpt lat="48.0939" lon="7.2568">
        <ele>462.8</ele>
        <time>2025-09-08T10:10:19Z</time>
      </trkpt>
      <trkpt lat="48.09387" lon="7.25681">
        <ele>461.4</ele>
        <time>2025-09-08T10:10:20Z</time>
      </trkpt>
      <trkpt lat="48.09384" lon="7.25682">
        <ele>460.6</ele>
        <time>2025-09-08T10:10:21Z</time>
      </trkpt>
      <trkpt lat="48.09379" lon="7.25682">
        <ele>460</ele>
        <time>2025-09-08T10:10:22Z</time>
      </trkpt>
      <trkpt lat="48.09375" lon="7.25684">
        <ele>459.6</ele>
        <time>2025-09-08T10:10:23Z</time>
      </trkpt>
      <trkpt lat="48.09373" lon="7.25687">
        <ele>459</ele>
        <time>2025-09-08T10:10:24Z</time>
      </trkpt>
      <trkpt lat="48.09371" lon="7.2569">
        <ele>458.6</ele>
        <time>2025-09-08T10:10:25Z</time>
      </trkpt>
      <trkpt lat="48.09369" lon="7.25695">
        <ele>457</ele>
        <time>2025-09-08T10:10:26Z</time>
      </trkpt>
      <trkpt lat="48.09367" lon="7.25699">
        <ele>456.8</ele>
        <time>2025-09-08T10:10:27Z</time>
      </trkpt>
      <trkpt lat="48.09365" lon="7.25705">
        <ele>456.4</ele>
        <time>2025-09-08T10:10:28Z</time>
      </trkpt>
      <trkpt lat="48.09363" lon="7.2571">
        <ele>455.8</ele>
        <time>2025-09-08T10:10:29Z</time>
      </trkpt>
      <trkpt lat="48.09361" lon="7.25715">
        <ele>455.8</ele>
        <time>2025-09-08T10:10:30Z</time>
      </trkpt>
      <trkpt lat="48.09358" lon="7.25721">
        <ele>455.6</ele>
        <time>2025-09-08T10:10:31Z</time>
      </trkpt>
      <trkpt lat="48.09356" lon="7.25725">
        <ele>455.4</ele>
        <time>2025-09-08T10:10:32Z</time>
      </trkpt>
      <trkpt lat="48.09354" lon="7.25731">
        <ele>455.4</ele>
        <time>2025-09-08T10:10:33Z</time>
      </trkpt>
      <trkpt lat="48.09352" lon="7.25735">
        <ele>455.2</ele>
        <time>2025-09-08T10:10:34Z</time>
      </trkpt>
      <trkpt lat="48.0935" lon="7.25741">
        <ele>455</ele>
        <time>2025-09-08T10:10:35Z</time>
      </trkpt>
      <trkpt lat="48.09348" lon="7.25746">
        <ele>455</ele>
        <time>2025-09-08T10:10:36Z</time>
      </trkpt>
      <trkpt lat="48.09346" lon="7.25753">
        <ele>455</ele>
        <time>2025-09-08T10:10:37Z</time>
      </trkpt>
      <trkpt lat="48.09345" lon="7.25759">
        <ele>455</ele>
        <time>2025-09-08T10:10:38Z</time>
      </trkpt>
      <trkpt lat="48.09344" lon="7.25765">
        <ele>455</ele>
        <time>2025-09-08T10:10:39Z</time>
      </trkpt>
      <trkpt lat="48.09342" lon="7.2577">
        <ele>455.2</ele>
        <time>2025-09-08T10:10:40Z</time>
      </trkpt>
      <trkpt lat="48.09341" lon="7.25777">
        <ele>455.2</ele>
        <time>2025-09-08T10:10:41Z</time>
      </trkpt>
      <trkpt lat="48.0934" lon="7.25784">
        <ele>455.2</ele>
        <time>2025-09-08T10:10:42Z</time>
      </trkpt>
      <trkpt lat="48.09337" lon="7.25791">
        <ele>455.2</ele>
        <time>2025-09-08T10:10:43Z</time>
      </trkpt>
      <trkpt lat="48.09334" lon="7.25798">
        <ele>455.2</ele>
        <time>2025-09-08T10:10:44Z</time>
      </trkpt>
      <trkpt lat="48.09332" lon="7.25805">
        <ele>455.2</ele>
        <time>2025-09-08T10:10:45Z</time>
      </trkpt>
      <trkpt lat="48.09329" lon="7.25813">
        <ele>455</ele>
        <time>2025-09-08T10:10:46Z</time>
      </trkpt>
      <trkpt lat="48.09326" lon="7.25819">
        <ele>455</ele>
        <time>2025-09-08T10:10:47Z</time>
      </trkpt>
      <trkpt lat="48.09322" lon="7.25824">
        <ele>454.8</ele>
        <time>2025-09-08T10:10:48Z</time>
      </trkpt>
      <trkpt lat="48.09317" lon="7.25826">
        <ele>454.4</ele>
        <time>2025-09-08T10:10:49Z</time>
      </trkpt>
      <trkpt lat="48.09312" lon="7.25827">
        <ele>454.2</ele>
        <time>2025-09-08T10:10:50Z</time>
      </trkpt>
      <trkpt lat="48.09307" lon="7.2583">
        <ele>453.8</ele>
        <time>2025-09-08T10:10:51Z</time>
      </trkpt>
      <trkpt lat="48.09303" lon="7.25836">
        <ele>453.2</ele>
        <time>2025-09-08T10:10:52Z</time>
      </trkpt>
      <trkpt lat="48.09299" lon="7.25842">
        <ele>452.2</ele>
        <time>2025-09-08T10:10:53Z</time>
      </trkpt>
      <trkpt lat="48.09294" lon="7.25844">
        <ele>451.6</ele>
        <time>2025-09-08T10:10:54Z</time>
      </trkpt>
      <trkpt lat="48.09289" lon="7.25846">
        <ele>451</ele>
        <time>2025-09-08T10:10:55Z</time>
      </trkpt>
      <trkpt lat="48.09285" lon="7.2585">
        <ele>450.6</ele>
        <time>2025-09-08T10:10:56Z</time>
      </trkpt>
      <trkpt lat="48.09281" lon="7.25853">
        <ele>450.2</ele>
        <time>2025-09-08T10:10:57Z</time>
      </trkpt>
      <trkpt lat="48.09277" lon="7.25858">
        <ele>450</ele>
        <time>2025-09-08T10:10:58Z</time>
      </trkpt>
      <trkpt lat="48.09272" lon="7.25861">
        <ele>449.6</ele>
        <time>2025-09-08T10:10:59Z</time>
      </trkpt>
      <trkpt lat="48.09268" lon="7.25865">
        <ele>449.2</ele>
        <time>2025-09-08T10:11:00Z</time>
      </trkpt>
      <trkpt lat="48.09265" lon="7.25871">
        <ele>449.2</ele>
        <time>2025-09-08T10:11:01Z</time>
      </trkpt>
      <trkpt lat="48.09264" lon="7.25877">
        <ele>448.8</ele>
        <time>2025-09-08T10:11:02Z</time>
      </trkpt>
      <trkpt lat="48.09263" lon="7.25882">
        <ele>448.8</ele>
        <time>2025-09-08T10:11:03Z</time>
      </trkpt>
      <trkpt lat="48.09261" lon="7.25887">
        <ele>448.6</ele>
        <time>2025-09-08T10:11:04Z</time>
      </trkpt>
      <trkpt lat="48.0926" lon="7.25892">
        <ele>448.6</ele>
        <time>2025-09-08T10:11:05Z</time>
      </trkpt>
      <trkpt lat="48.09257" lon="7.25893">
        <ele>448.4</ele>
        <time>2025-09-08T10:11:06Z</time>
      </trkpt>
      <trkpt lat="48.09254" lon="7.25894">
        <ele>448.4</ele>
        <time>2025-09-08T10:11:07Z</time>
      </trkpt>
      <trkpt lat="48.09251" lon="7.25894">
        <ele>448</ele>
        <time>2025-09-08T10:11:08Z</time>
      </trkpt>
      <trkpt lat="48.09249" lon="7.25899">
        <ele>447.8</ele>
        <time>2025-09-08T10:11:09Z</time>
      </trkpt>
      <trkpt lat="48.09247" lon="7.25904">
        <ele>447.6</ele>
        <time>2025-09-08T10:11:10Z</time>
      </trkpt>
      <trkpt lat="48.09243" lon="7.25909">
        <ele>446.8</ele>
        <time>2025-09-08T10:11:11Z</time>
      </trkpt>
      <trkpt lat="48.09239" lon="7.25913">
        <ele>446.4</ele>
        <time>2025-09-08T10:11:12Z</time>
      </trkpt>
      <trkpt lat="48.09234" lon="7.25915">
        <ele>445.8</ele>
        <time>2025-09-08T10:11:13Z</time>
      </trkpt>
      <trkpt lat="48.09229" lon="7.25916">
        <ele>445</ele>
        <time>2025-09-08T10:11:14Z</time>
      </trkpt>
      <trkpt lat="48.09224" lon="7.25917">
        <ele>443.8</ele>
        <time>2025-09-08T10:11:15Z</time>
      </trkpt>
      <trkpt lat="48.09221" lon="7.25918">
        <ele>443.2</ele>
        <time>2025-09-08T10:11:16Z</time>
      </trkpt>
      <trkpt lat="48.09221" lon="7.25918">
        <ele>442.2</ele>
        <time>2025-09-08T10:11:17Z</time>
      </trkpt>
      <trkpt lat="48.0922" lon="7.25917">
        <ele>441.4</ele>
        <time>2025-09-08T10:11:18Z</time>
      </trkpt>
      <trkpt lat="48.09217" lon="7.25918">
        <ele>440.4</ele>
        <time>2025-09-08T10:11:34Z</time>
      </trkpt>
      <trkpt lat="48.09214" lon="7.25918">
        <ele>440.4</ele>
        <time>2025-09-08T10:11:35Z</time>
      </trkpt>
      <trkpt lat="48.09213" lon="7.25918">
        <ele>440.4</ele>
        <time>2025-09-08T10:11:36Z</time>
      </trkpt>
      <trkpt lat="48.09211" lon="7.25916">
        <ele>440.4</ele>
        <time>2025-09-08T10:11:37Z</time>
      </trkpt>
      <trkpt lat="48.09209" lon="7.25915">
        <ele>440.4</ele>
        <time>2025-09-08T10:11:38Z</time>
      </trkpt>
      <trkpt lat="48.09207" lon="7.25913">
        <ele>440.4</ele>
        <time>2025-09-08T10:11:39Z</time>
      </trkpt>
      <trkpt lat="48.09205" lon="7.25911">
        <ele>440.2</ele>
        <time>2025-09-08T10:11:40Z</time>
      </trkpt>
      <trkpt lat="48.09203" lon="7.25907">
        <ele>440.2</ele>
        <time>2025-09-08T10:11:41Z</time>
      </trkpt>
      <trkpt lat="48.09201" lon="7.25904">
        <ele>440</ele>
        <time>2025-09-08T10:11:42Z</time>
      </trkpt>
      <trkpt lat="48.09197" lon="7.259">
        <ele>439.8</ele>
        <time>2025-09-08T10:11:43Z</time>
      </trkpt>
      <trkpt lat="48.09195" lon="7.25898">
        <ele>439.2</ele>
        <time>2025-09-08T10:11:44Z</time>
      </trkpt>
      <trkpt lat="48.09193" lon="7.25897">
        <ele>438.8</ele>
        <time>2025-09-08T10:11:45Z</time>
      </trkpt>
      <trkpt lat="48.09191" lon="7.25898">
        <ele>438</ele>
        <time>2025-09-08T10:11:46Z</time>
      </trkpt>
      <trkpt lat="48.0919" lon="7.25898">
        <ele>437.6</ele>
        <time>2025-09-08T10:11:47Z</time>
      </trkpt>
      <trkpt lat="48.09188" lon="7.25898">
        <ele>437.4</ele>
        <time>2025-09-08T10:11:48Z</time>
      </trkpt>
      <trkpt lat="48.09187" lon="7.25897">
        <ele>437.2</ele>
        <time>2025-09-08T10:11:49Z</time>
      </trkpt>
      <trkpt lat="48.09185" lon="7.25895">
        <ele>437</ele>
        <time>2025-09-08T10:11:50Z</time>
      </trkpt>
      <trkpt lat="48.09184" lon="7.25892">
        <ele>436.6</ele>
        <time>2025-09-08T10:11:51Z</time>
      </trkpt>
      <trkpt lat="48.09182" lon="7.2589">
        <ele>436.2</ele>
        <time>2025-09-08T10:11:52Z</time>
      </trkpt>
      <trkpt lat="48.0918" lon="7.25887">
        <ele>435.8</ele>
        <time>2025-09-08T10:11:53Z</time>
      </trkpt>
      <trkpt lat="48.09177" lon="7.25886">
        <ele>435.2</ele>
        <time>2025-09-08T10:11:54Z</time>
      </trkpt>
      <trkpt lat="48.09173" lon="7.25886">
        <ele>434.8</ele>
        <time>2025-09-08T10:11:55Z</time>
      </trkpt>
      <trkpt lat="48.0917" lon="7.25886">
        <ele>433.8</ele>
        <time>2025-09-08T10:11:56Z</time>
      </trkpt>
      <trkpt lat="48.09166" lon="7.25884">
        <ele>433.2</ele>
        <time>2025-09-08T10:11:57Z</time>
      </trkpt>
      <trkpt lat="48.09163" lon="7.25881">
        <ele>432.4</ele>
        <time>2025-09-08T10:11:58Z</time>
      </trkpt>
      <trkpt lat="48.09161" lon="7.25877">
        <ele>431.4</ele>
        <time>2025-09-08T10:11:59Z</time>
      </trkpt>
      <trkpt lat="48.09161" lon="7.25872">
        <ele>430</ele>
        <time>2025-09-08T10:12:00Z</time>
      </trkpt>
      <trkpt lat="48.09159" lon="7.25868">
        <ele>428.8</ele>
        <time>2025-09-08T10:12:01Z</time>
      </trkpt>
      <trkpt lat="48.09158" lon="7.25862">
        <ele>428.4</ele>
        <time>2025-09-08T10:12:02Z</time>
      </trkpt>
      <trkpt lat="48.09156" lon="7.25856">
        <ele>427.6</ele>
        <time>2025-09-08T10:12:03Z</time>
      </trkpt>
      <trkpt lat="48.09152" lon="7.2585">
        <ele>426.8</ele>
        <time>2025-09-08T10:12:04Z</time>
      </trkpt>
      <trkpt lat="48.09148" lon="7.25843">
        <ele>425.6</ele>
        <time>2025-09-08T10:12:05Z</time>
      </trkpt>
      <trkpt lat="48.09143" lon="7.25836">
        <ele>424.6</ele>
        <time>2025-09-08T10:12:06Z</time>
      </trkpt>
      <trkpt lat="48.09138" lon="7.25831">
        <ele>424</ele>
        <time>2025-09-08T10:12:07Z</time>
      </trkpt>
      <trkpt lat="48.09134" lon="7.25829">
        <ele>423</ele>
        <time>2025-09-08T10:12:08Z</time>
      </trkpt>
      <trkpt lat="48.09132" lon="7.25824">
        <ele>421.6</ele>
        <time>2025-09-08T10:12:09Z</time>
      </trkpt>
      <trkpt lat="48.09132" lon="7.25817">
        <ele>420.4</ele>
        <time>2025-09-08T10:12:10Z</time>
      </trkpt>
      <trkpt lat="48.09132" lon="7.2581">
        <ele>420</ele>
        <time>2025-09-08T10:12:11Z</time>
      </trkpt>
      <trkpt lat="48.0913" lon="7.25803">
        <ele>418.8</ele>
        <time>2025-09-08T10:12:12Z</time>
      </trkpt>
      <trkpt lat="48.09129" lon="7.25796">
        <ele>418.6</ele>
        <time>2025-09-08T10:12:13Z</time>
      </trkpt>
      <trkpt lat="48.09127" lon="7.25791">
        <ele>417.8</ele>
        <time>2025-09-08T10:12:14Z</time>
      </trkpt>
      <trkpt lat="48.09125" lon="7.25787">
        <ele>417.4</ele>
        <time>2025-09-08T10:12:15Z</time>
      </trkpt>
      <trkpt lat="48.09122" lon="7.25787">
        <ele>416.4</ele>
        <time>2025-09-08T10:12:16Z</time>
      </trkpt>
      <trkpt lat="48.0912" lon="7.25788">
        <ele>415.8</ele>
        <time>2025-09-08T10:12:17Z</time>
      </trkpt>
      <trkpt lat="48.0912" lon="7.2579">
        <ele>415.4</ele>
        <time>2025-09-08T10:12:18Z</time>
      </trkpt>
      <trkpt lat="48.09118" lon="7.25794">
        <ele>414.6</ele>
        <time>2025-09-08T10:12:19Z</time>
      </trkpt>
      <trkpt lat="48.09116" lon="7.25796">
        <ele>414.2</ele>
        <time>2025-09-08T10:12:20Z</time>
      </trkpt>
      <trkpt lat="48.09112" lon="7.25799">
        <ele>413.8</ele>
        <time>2025-09-08T10:12:21Z</time>
      </trkpt>
      <trkpt lat="48.09106" lon="7.25799">
        <ele>413.2</ele>
        <time>2025-09-08T10:12:22Z</time>
      </trkpt>
      <trkpt lat="48.091" lon="7.25799">
        <ele>413</ele>
        <time>2025-09-08T10:12:23Z</time>
      </trkpt>
      <trkpt lat="48.09094" lon="7.25798">
        <ele>411.8</ele>
        <time>2025-09-08T10:12:24Z</time>
      </trkpt>
      <trkpt lat="48.09089" lon="7.25795">
        <ele>410.8</ele>
        <time>2025-09-08T10:12:25Z</time>
      </trkpt>
      <trkpt lat="48.09085" lon="7.2579">
        <ele>410</ele>
        <time>2025-09-08T10:12:26Z</time>
      </trkpt>
      <trkpt lat="48.09081" lon="7.25786">
        <ele>408.8</ele>
        <time>2025-09-08T10:12:27Z</time>
      </trkpt>
      <trkpt lat="48.0908" lon="7.25781">
        <ele>408.2</ele>
        <time>2025-09-08T10:12:28Z</time>
      </trkpt>
      <trkpt lat="48.09082" lon="7.25778">
        <ele>407.6</ele>
        <time>2025-09-08T10:12:29Z</time>
      </trkpt>
      <trkpt lat="48.09082" lon="7.25773">
        <ele>407.2</ele>
        <time>2025-09-08T10:12:30Z</time>
      </trkpt>
      <trkpt lat="48.09082" lon="7.25768">
        <ele>407.2</ele>
        <time>2025-09-08T10:12:31Z</time>
      </trkpt>
      <trkpt lat="48.0908" lon="7.25763">
        <ele>407</ele>
        <time>2025-09-08T10:12:32Z</time>
      </trkpt>
      <trkpt lat="48.09077" lon="7.25759">
        <ele>406.6</ele>
        <time>2025-09-08T10:12:33Z</time>
      </trkpt>
      <trkpt lat="48.09074" lon="7.25754">
        <ele>406.6</ele>
        <time>2025-09-08T10:12:34Z</time>
      </trkpt>
      <trkpt lat="48.09071" lon="7.25751">
        <ele>406.4</ele>
        <time>2025-09-08T10:12:35Z</time>
      </trkpt>
      <trkpt lat="48.09067" lon="7.2575">
        <ele>406.2</ele>
        <time>2025-09-08T10:12:36Z</time>
      </trkpt>
      <trkpt lat="48.09062" lon="7.25751">
        <ele>406</ele>
        <time>2025-09-08T10:12:37Z</time>
      </trkpt>
      <trkpt lat="48.09058" lon="7.25751">
        <ele>405.4</ele>
        <time>2025-09-08T10:12:38Z</time>
      </trkpt>
      <trkpt lat="48.09053" lon="7.2575">
        <ele>405.2</ele>
        <time>2025-09-08T10:12:39Z</time>
      </trkpt>
      <trkpt lat="48.09048" lon="7.2575">
        <ele>404.8</ele>
        <time>2025-09-08T10:12:40Z</time>
      </trkpt>
      <trkpt lat="48.09044" lon="7.25749">
        <ele>404.2</ele>
        <time>2025-09-08T10:12:41Z</time>
      </trkpt>
      <trkpt lat="48.0904" lon="7.2575">
        <ele>403.6</ele>
        <time>2025-09-08T10:12:42Z</time>
      </trkpt>
      <trkpt lat="48.09036" lon="7.2575">
        <ele>402.8</ele>
        <time>2025-09-08T10:12:43Z</time>
      </trkpt>
      <trkpt lat="48.09032" lon="7.2575">
        <ele>401.8</ele>
        <time>2025-09-08T10:12:44Z</time>
      </trkpt>
      <trkpt lat="48.0903" lon="7.25754">
        <ele>401.2</ele>
        <time>2025-09-08T10:12:45Z</time>
      </trkpt>
      <trkpt lat="48.09029" lon="7.2576">
        <ele>400.6</ele>
        <time>2025-09-08T10:12:46Z</time>
      </trkpt>
      <trkpt lat="48.09027" lon="7.25765">
        <ele>399.4</ele>
        <time>2025-09-08T10:12:47Z</time>
      </trkpt>
      <trkpt lat="48.09024" lon="7.25767">
        <ele>398.2</ele>
        <time>2025-09-08T10:12:48Z</time>
      </trkpt>
      <trkpt lat="48.0902" lon="7.25765">
        <ele>397.8</ele>
        <time>2025-09-08T10:12:49Z</time>
      </trkpt>
      <trkpt lat="48.09017" lon="7.25767">
        <ele>396.6</ele>
        <time>2025-09-08T10:12:50Z</time>
      </trkpt>
      <trkpt lat="48.09015" lon="7.25771">
        <ele>396</ele>
        <time>2025-09-08T10:12:51Z</time>
      </trkpt>
      <trkpt lat="48.09013" lon="7.25771">
        <ele>395</ele>
        <time>2025-09-08T10:12:52Z</time>
      </trkpt>
      <trkpt lat="48.0901" lon="7.25769">
        <ele>394</ele>
        <time>2025-09-08T10:12:53Z</time>
      </trkpt>
      <trkpt lat="48.09008" lon="7.25765">
        <ele>393.2</ele>
        <time>2025-09-08T10:12:54Z</time>
      </trkpt>
      <trkpt lat="48.09005" lon="7.25763">
        <ele>392.2</ele>
        <time>2025-09-08T10:12:55Z</time>
      </trkpt>
      <trkpt lat="48.09002" lon="7.25761">
        <ele>391</ele>
        <time>2025-09-08T10:12:56Z</time>
      </trkpt>
      <trkpt lat="48.08999" lon="7.25757">
        <ele>390.2</ele>
        <time>2025-09-08T10:12:57Z</time>
      </trkpt>
      <trkpt lat="48.08996" lon="7.25752">
        <ele>389.2</ele>
        <time>2025-09-08T10:12:58Z</time>
      </trkpt>
      <trkpt lat="48.08992" lon="7.25747">
        <ele>388.2</ele>
        <time>2025-09-08T10:12:59Z</time>
      </trkpt>
      <trkpt lat="48.0899" lon="7.25743">
        <ele>387.6</ele>
        <time>2025-09-08T10:13:00Z</time>
      </trkpt>
      <trkpt lat="48.08987" lon="7.25738">
        <ele>386.4</ele>
        <time>2025-09-08T10:13:01Z</time>
      </trkpt>
      <trkpt lat="48.08986" lon="7.25733">
        <ele>385.4</ele>
        <time>2025-09-08T10:13:02Z</time>
      </trkpt>
      <trkpt lat="48.08986" lon="7.25726">
        <ele>385</ele>
        <time>2025-09-08T10:13:03Z</time>
      </trkpt>
      <trkpt lat="48.08986" lon="7.2572">
        <ele>383.2</ele>
        <time>2025-09-08T10:13:04Z</time>
      </trkpt>
      <trkpt lat="48.08988" lon="7.25714">
        <ele>382.6</ele>
        <time>2025-09-08T10:13:05Z</time>
      </trkpt>
      <trkpt lat="48.0899" lon="7.2571">
        <ele>382</ele>
        <time>2025-09-08T10:13:06Z</time>
      </trkpt>
      <trkpt lat="48.08992" lon="7.25706">
        <ele>381.6</ele>
        <time>2025-09-08T10:13:07Z</time>
      </trkpt>
      <trkpt lat="48.08993" lon="7.25702">
        <ele>381.4</ele>
        <time>2025-09-08T10:13:08Z</time>
      </trkpt>
      <trkpt lat="48.08994" lon="7.25697">
        <ele>381.4</ele>
        <time>2025-09-08T10:13:09Z</time>
      </trkpt>
      <trkpt lat="48.08996" lon="7.25693">
        <ele>381.2</ele>
        <time>2025-09-08T10:13:10Z</time>
      </trkpt>
      <trkpt lat="48.08997" lon="7.25689">
        <ele>381.2</ele>
        <time>2025-09-08T10:13:11Z</time>
      </trkpt>
      <trkpt lat="48.08998" lon="7.25687">
        <ele>381.4</ele>
        <time>2025-09-08T10:13:12Z</time>
      </trkpt>
      <trkpt lat="48.08999" lon="7.25683">
        <ele>381.4</ele>
        <time>2025-09-08T10:13:13Z</time>
      </trkpt>
      <trkpt lat="48.09001" lon="7.25678">
        <ele>381.6</ele>
        <time>2025-09-08T10:13:14Z</time>
      </trkpt>
      <trkpt lat="48.09004" lon="7.25674">
        <ele>381.6</ele>
        <time>2025-09-08T10:13:15Z</time>
      </trkpt>
      <trkpt lat="48.09007" lon="7.25671">
        <ele>381.6</ele>
        <time>2025-09-08T10:13:16Z</time>
      </trkpt>
      <trkpt lat="48.09009" lon="7.25668">
        <ele>381.8</ele>
        <time>2025-09-08T10:13:17Z</time>
      </trkpt>
      <trkpt lat="48.0901" lon="7.25665">
        <ele>381.8</ele>
        <time>2025-09-08T10:13:18Z</time>
      </trkpt>
      <trkpt lat="48.09011" lon="7.2566">
        <ele>382</ele>
        <time>2025-09-08T10:13:19Z</time>
      </trkpt>
      <trkpt lat="48.0901" lon="7.25654">
        <ele>382</ele>
        <time>2025-09-08T10:13:20Z</time>
      </trkpt>
      <trkpt lat="48.09011" lon="7.25647">
        <ele>381.8</ele>
        <time>2025-09-08T10:13:21Z</time>
      </trkpt>
      <trkpt lat="48.09013" lon="7.25641">
        <ele>381.8</ele>
        <time>2025-09-08T10:13:22Z</time>
      </trkpt>
      <trkpt lat="48.09016" lon="7.25636">
        <ele>381.8</ele>
        <time>2025-09-08T10:13:23Z</time>
      </trkpt>
      <trkpt lat="48.09019" lon="7.25632">
        <ele>380.8</ele>
        <time>2025-09-08T10:13:24Z</time>
      </trkpt>
      <trkpt lat="48.09021" lon="7.25627">
        <ele>380.4</ele>
        <time>2025-09-08T10:13:25Z</time>
      </trkpt>
      <trkpt lat="48.09022" lon="7.25623">
        <ele>380.2</ele>
        <time>2025-09-08T10:13:26Z</time>
      </trkpt>
      <trkpt lat="48.09021" lon="7.2562">
        <ele>379.8</ele>
        <time>2025-09-08T10:13:27Z</time>
      </trkpt>
      <trkpt lat="48.09019" lon="7.25617">
        <ele>379.4</ele>
        <time>2025-09-08T10:13:28Z</time>
      </trkpt>
      <trkpt lat="48.09016" lon="7.25614">
        <ele>379.2</ele>
        <time>2025-09-08T10:13:29Z</time>
      </trkpt>
      <trkpt lat="48.09017" lon="7.2561">
        <ele>378.8</ele>
        <time>2025-09-08T10:13:30Z</time>
      </trkpt>
      <trkpt lat="48.09019" lon="7.25608">
        <ele>378</ele>
        <time>2025-09-08T10:13:31Z</time>
      </trkpt>
      <trkpt lat="48.09022" lon="7.25605">
        <ele>377.2</ele>
        <time>2025-09-08T10:13:32Z</time>
      </trkpt>
      <trkpt lat="48.09022" lon="7.25601">
        <ele>376.4</ele>
        <time>2025-09-08T10:13:33Z</time>
      </trkpt>
      <trkpt lat="48.0902" lon="7.25597">
        <ele>375.6</ele>
        <time>2025-09-08T10:13:34Z</time>
      </trkpt>
      <trkpt lat="48.09017" lon="7.25597">
        <ele>375.2</ele>
        <time>2025-09-08T10:13:35Z</time>
      </trkpt>
      <trkpt lat="48.09014" lon="7.25598">
        <ele>374.4</ele>
        <time>2025-09-08T10:13:36Z</time>
      </trkpt>
      <trkpt lat="48.09011" lon="7.25599">
        <ele>373.6</ele>
        <time>2025-09-08T10:13:37Z</time>
      </trkpt>
      <trkpt lat="48.0901" lon="7.25596">
        <ele>373.2</ele>
        <time>2025-09-08T10:13:38Z</time>
      </trkpt>
      <trkpt lat="48.09011" lon="7.25593">
        <ele>372.8</ele>
        <time>2025-09-08T10:13:39Z</time>
      </trkpt>
      <trkpt lat="48.09009" lon="7.25591">
        <ele>372.4</ele>
        <time>2025-09-08T10:13:40Z</time>
      </trkpt>
      <trkpt lat="48.09009" lon="7.25587">
        <ele>371.6</ele>
        <time>2025-09-08T10:13:41Z</time>
      </trkpt>
      <trkpt lat="48.09009" lon="7.25583">
        <ele>371.6</ele>
        <time>2025-09-08T10:13:42Z</time>
      </trkpt>
      <trkpt lat="48.09011" lon="7.25579">
        <ele>370.8</ele>
        <time>2025-09-08T10:13:43Z</time>
      </trkpt>
      <trkpt lat="48.09015" lon="7.25575">
        <ele>370.4</ele>
        <time>2025-09-08T10:13:44Z</time>
      </trkpt>
      <trkpt lat="48.09017" lon="7.2557">
        <ele>369.2</ele>
        <time>2025-09-08T10:13:45Z</time>
      </trkpt>
      <trkpt lat="48.09015" lon="7.25567">
        <ele>368.8</ele>
        <time>2025-09-08T10:13:46Z</time>
      </trkpt>
      <trkpt lat="48.09012" lon="7.25565">
        <ele>368</ele>
        <time>2025-09-08T10:13:47Z</time>
      </trkpt>
      <trkpt lat="48.09012" lon="7.2556">
        <ele>366.8</ele>
        <time>2025-09-08T10:13:48Z</time>
      </trkpt>
      <trkpt lat="48.09014" lon="7.25558">
        <ele>366.6</ele>
        <time>2025-09-08T10:13:49Z</time>
      </trkpt>
      <trkpt lat="48.09016" lon="7.25554">
        <ele>366</ele>
        <time>2025-09-08T10:13:50Z</time>
      </trkpt>
      <trkpt lat="48.09016" lon="7.25551">
        <ele>364.6</ele>
        <time>2025-09-08T10:13:51Z</time>
      </trkpt>
      <trkpt lat="48.09014" lon="7.25548">
        <ele>364.2</ele>
        <time>2025-09-08T10:13:52Z</time>
      </trkpt>
      <trkpt lat="48.09011" lon="7.25546">
        <ele>363.6</ele>
        <time>2025-09-08T10:13:53Z</time>
      </trkpt>
      <trkpt lat="48.0901" lon="7.25544">
        <ele>363.2</ele>
        <time>2025-09-08T10:13:54Z</time>
      </trkpt>
      <trkpt lat="48.09009" lon="7.25541">
        <ele>362.4</ele>
        <time>2025-09-08T10:13:55Z</time>
      </trkpt>
      <trkpt lat="48.0901" lon="7.25538">
        <ele>361.6</ele>
        <time>2025-09-08T10:13:56Z</time>
      </trkpt>
      <trkpt lat="48.0901" lon="7.25536">
        <ele>360.8</ele>
        <time>2025-09-08T10:13:57Z</time>
      </trkpt>
      <trkpt lat="48.09012" lon="7.25533">
        <ele>360</ele>
        <time>2025-09-08T10:13:58Z</time>
      </trkpt>
      <trkpt lat="48.09014" lon="7.25529">
        <ele>359.8</ele>
        <time>2025-09-08T10:13:59Z</time>
      </trkpt>
      <trkpt lat="48.09012" lon="7.25526">
        <ele>359.2</ele>
        <time>2025-09-08T10:14:00Z</time>
      </trkpt>
      <trkpt lat="48.0901" lon="7.25526">
        <ele>358.8</ele>
        <time>2025-09-08T10:14:01Z</time>
      </trkpt>
      <trkpt lat="48.09008" lon="7.25526">
        <ele>357.8</ele>
        <time>2025-09-08T10:14:02Z</time>
      </trkpt>
      <trkpt lat="48.09008" lon="7.25523">
        <ele>356.6</ele>
        <time>2025-09-08T10:14:03Z</time>
      </trkpt>
      <trkpt lat="48.09009" lon="7.2552">
        <ele>356.4</ele>
        <time>2025-09-08T10:14:04Z</time>
      </trkpt>
      <trkpt lat="48.09011" lon="7.25515">
        <ele>356</ele>
        <time>2025-09-08T10:14:05Z</time>
      </trkpt>
      <trkpt lat="48.0901" lon="7.25511">
        <ele>355.2</ele>
        <time>2025-09-08T10:14:06Z</time>
      </trkpt>
      <trkpt lat="48.09009" lon="7.25508">
        <ele>354.2</ele>
        <time>2025-09-08T10:14:07Z</time>
      </trkpt>
      <trkpt lat="48.09007" lon="7.25504">
        <ele>353.6</ele>
        <time>2025-09-08T10:14:08Z</time>
      </trkpt>
      <trkpt lat="48.09007" lon="7.255">
        <ele>352.6</ele>
        <time>2025-09-08T10:14:09Z</time>
      </trkpt>
      <trkpt lat="48.09009" lon="7.25497">
        <ele>352.2</ele>
        <time>2025-09-08T10:14:10Z</time>
      </trkpt>
      <trkpt lat="48.09011" lon="7.25494">
        <ele>351.2</ele>
        <time>2025-09-08T10:14:11Z</time>
      </trkpt>
      <trkpt lat="48.09014" lon="7.25493">
        <ele>349.6</ele>
        <time>2025-09-08T10:14:12Z</time>
      </trkpt>
      <trkpt lat="48.09015" lon="7.25489">
        <ele>349</ele>
        <time>2025-09-08T10:14:13Z</time>
      </trkpt>
      <trkpt lat="48.09018" lon="7.25485">
        <ele>348.6</ele>
        <time>2025-09-08T10:14:14Z</time>
      </trkpt>
      <trkpt lat="48.09018" lon="7.25482">
        <ele>348</ele>
        <time>2025-09-08T10:14:15Z</time>
      </trkpt>
      <trkpt lat="48.09017" lon="7.25479">
        <ele>347.2</ele>
        <time>2025-09-08T10:14:16Z</time>
      </trkpt>
      <trkpt lat="48.09014" lon="7.25476">
        <ele>346.2</ele>
        <time>2025-09-08T10:14:17Z</time>
      </trkpt>
      <trkpt lat="48.09012" lon="7.25473">
        <ele>345.8</ele>
        <time>2025-09-08T10:14:18Z</time>
      </trkpt>
      <trkpt lat="48.09013" lon="7.25468">
        <ele>345.4</ele>
        <time>2025-09-08T10:14:19Z</time>
      </trkpt>
      <trkpt lat="48.09015" lon="7.25464">
        <ele>344.4</ele>
        <time>2025-09-08T10:14:20Z</time>
      </trkpt>
      <trkpt lat="48.09018" lon="7.25459">
        <ele>343.2</ele>
        <time>2025-09-08T10:14:21Z</time>
      </trkpt>
      <trkpt lat="48.09021" lon="7.25455">
        <ele>342.4</ele>
        <time>2025-09-08T10:14:22Z</time>
      </trkpt>
      <trkpt lat="48.09025" lon="7.25453">
        <ele>341.4</ele>
        <time>2025-09-08T10:14:23Z</time>
      </trkpt>
      <trkpt lat="48.09025" lon="7.25449">
        <ele>340</ele>
        <time>2025-09-08T10:14:24Z</time>
      </trkpt>
      <trkpt lat="48.09022" lon="7.25448">
        <ele>338.8</ele>
        <time>2025-09-08T10:14:25Z</time>
      </trkpt>
      <trkpt lat="48.0902" lon="7.25444">
        <ele>338</ele>
        <time>2025-09-08T10:14:26Z</time>
      </trkpt>
      <trkpt lat="48.09021" lon="7.25439">
        <ele>337.2</ele>
        <time>2025-09-08T10:14:27Z</time>
      </trkpt>
      <trkpt lat="48.09022" lon="7.25434">
        <ele>336.8</ele>
        <time>2025-09-08T10:14:28Z</time>
      </trkpt>
      <trkpt lat="48.09021" lon="7.25433">
        <ele>331.6</ele>
        <time>2025-09-08T10:14:50Z</time>
      </trkpt>
      <trkpt lat="48.0902" lon="7.25433">
        <ele>331.6</ele>
        <time>2025-09-08T10:14:51Z</time>
      </trkpt>
      <trkpt lat="48.09019" lon="7.25434">
        <ele>331.4</ele>
        <time>2025-09-08T10:14:52Z</time>
      </trkpt>
      <trkpt lat="48.09018" lon="7.25434">
        <ele>331.4</ele>
        <time>2025-09-08T10:14:53Z</time>
      </trkpt>
      <trkpt lat="48.09016" lon="7.25435">
        <ele>331.2</ele>
        <time>2025-09-08T10:14:54Z</time>
      </trkpt>
      <trkpt lat="48.09014" lon="7.25435">
        <ele>331.2</ele>
        <time>2025-09-08T10:14:55Z</time>
      </trkpt>
      <trkpt lat="48.09012" lon="7.25436">
        <ele>331.2</ele>
        <time>2025-09-08T10:14:56Z</time>
      </trkpt>
      <trkpt lat="48.09009" lon="7.25436">
        <ele>331</ele>
        <time>2025-09-08T10:14:57Z</time>
      </trkpt>
      <trkpt lat="48.09007" lon="7.25437">
        <ele>330.6</ele>
        <time>2025-09-08T10:14:58Z</time>
      </trkpt>
      <trkpt lat="48.09004" lon="7.25438">
        <ele>330.6</ele>
        <time>2025-09-08T10:14:59Z</time>
      </trkpt>
      <trkpt lat="48.09001" lon="7.25439">
        <ele>330.6</ele>
        <time>2025-09-08T10:15:00Z</time>
      </trkpt>
      <trkpt lat="48.08998" lon="7.25441">
        <ele>330.2</ele>
        <time>2025-09-08T10:15:01Z</time>
      </trkpt>
      <trkpt lat="48.08995" lon="7.25443">
        <ele>330</ele>
        <time>2025-09-08T10:15:02Z</time>
      </trkpt>
      <trkpt lat="48.08992" lon="7.25444">
        <ele>329.8</ele>
        <time>2025-09-08T10:15:03Z</time>
      </trkpt>
      <trkpt lat="48.08989" lon="7.25446">
        <ele>329.4</ele>
        <time>2025-09-08T10:15:04Z</time>
      </trkpt>
      <trkpt lat="48.08985" lon="7.25447">
        <ele>329.2</ele>
        <time>2025-09-08T10:15:05Z</time>
      </trkpt>
      <trkpt lat="48.08982" lon="7.25449">
        <ele>329</ele>
        <time>2025-09-08T10:15:06Z</time>
      </trkpt>
      <trkpt lat="48.08978" lon="7.25452">
        <ele>328.8</ele>
        <time>2025-09-08T10:15:07Z</time>
      </trkpt>
      <trkpt lat="48.08975" lon="7.25455">
        <ele>328.6</ele>
        <time>2025-09-08T10:15:08Z</time>
      </trkpt>
      <trkpt lat="48.08971" lon="7.25458">
        <ele>328.2</ele>
        <time>2025-09-08T10:15:09Z</time>
      </trkpt>
      <trkpt lat="48.08968" lon="7.25462">
        <ele>328</ele>
        <time>2025-09-08T10:15:10Z</time>
      </trkpt>
      <trkpt lat="48.08964" lon="7.25466">
        <ele>327.4</ele>
        <time>2025-09-08T10:15:11Z</time>
      </trkpt>
      <trkpt lat="48.0896" lon="7.25469">
        <ele>327.2</ele>
        <time>2025-09-08T10:15:12Z</time>
      </trkpt>
      <trkpt lat="48.08956" lon="7.25472">
        <ele>326.8</ele>
        <time>2025-09-08T10:15:13Z</time>
      </trkpt>
      <trkpt lat="48.08953" lon="7.25474">
        <ele>326.4</ele>
        <time>2025-09-08T10:15:14Z</time>
      </trkpt>
      <trkpt lat="48.08948" lon="7.25477">
        <ele>326</ele>
        <time>2025-09-08T10:15:15Z</time>
      </trkpt>
      <trkpt lat="48.08944" lon="7.25479">
        <ele>325.6</ele>
        <time>2025-09-08T10:15:16Z</time>
      </trkpt>
      <trkpt lat="48.08939" lon="7.25481">
        <ele>325.4</ele>
        <time>2025-09-08T10:15:17Z</time>
      </trkpt>
      <trkpt lat="48.08934" lon="7.25484">
        <ele>324.8</ele>
        <time>2025-09-08T10:15:18Z</time>
      </trkpt>
      <trkpt lat="48.08929" lon="7.25485">
        <ele>324.2</ele>
        <time>2025-09-08T10:15:19Z</time>
      </trkpt>
      <trkpt lat="48.08923" lon="7.25487">
        <ele>323.8</ele>
        <time>2025-09-08T10:15:20Z</time>
      </trkpt>
      <trkpt lat="48.08919" lon="7.25489">
        <ele>323.4</ele>
        <time>2025-09-08T10:15:21Z</time>
      </trkpt>
      <trkpt lat="48.08914" lon="7.2549">
        <ele>322.8</ele>
        <time>2025-09-08T10:15:22Z</time>
      </trkpt>
      <trkpt lat="48.08909" lon="7.25492">
        <ele>322.6</ele>
        <time>2025-09-08T10:15:23Z</time>
      </trkpt>
      <trkpt lat="48.08903" lon="7.25495">
        <ele>322.2</ele>
        <time>2025-09-08T10:15:24Z</time>
      </trkpt>
      <trkpt lat="48.08897" lon="7.25499">
        <ele>321.6</ele>
        <time>2025-09-08T10:15:25Z</time>
      </trkpt>
      <trkpt lat="48.08891" lon="7.25503">
        <ele>321.2</ele>
        <time>2025-09-08T10:15:26Z</time>
      </trkpt>
      <trkpt lat="48.08886" lon="7.25507">
        <ele>320.6</ele>
        <time>2025-09-08T10:15:27Z</time>
      </trkpt>
      <trkpt lat="48.08881" lon="7.25512">
        <ele>320.4</ele>
        <time>2025-09-08T10:15:28Z</time>
      </trkpt>
      <trkpt lat="48.08875" lon="7.25517">
        <ele>320</ele>
        <time>2025-09-08T10:15:29Z</time>
      </trkpt>
      <trkpt lat="48.08869" lon="7.25521">
        <ele>319.4</ele>
        <time>2025-09-08T10:15:30Z</time>
      </trkpt>
      <trkpt lat="48.08863" lon="7.25527">
        <ele>319.2</ele>
        <time>2025-09-08T10:15:31Z</time>
      </trkpt>
      <trkpt lat="48.08857" lon="7.25532">
        <ele>318.6</ele>
        <time>2025-09-08T10:15:32Z</time>
      </trkpt>
      <trkpt lat="48.0885" lon="7.25536">
        <ele>318</ele>
        <time>2025-09-08T10:15:33Z</time>
      </trkpt>
      <trkpt lat="48.08843" lon="7.2554">
        <ele>317.2</ele>
        <time>2025-09-08T10:15:34Z</time>
      </trkpt>
      <trkpt lat="48.08836" lon="7.25544">
        <ele>316.8</ele>
        <time>2025-09-08T10:15:35Z</time>
      </trkpt>
      <trkpt lat="48.08829" lon="7.25547">
        <ele>316</ele>
        <time>2025-09-08T10:15:36Z</time>
      </trkpt>
      <trkpt lat="48.0882" lon="7.25551">
        <ele>315.6</ele>
        <time>2025-09-08T10:15:37Z</time>
      </trkpt>
      <trkpt lat="48.08812" lon="7.25555">
        <ele>314.8</ele>
        <time>2025-09-08T10:15:38Z</time>
      </trkpt>
      <trkpt lat="48.08804" lon="7.2556">
        <ele>313.4</ele>
        <time>2025-09-08T10:15:39Z</time>
      </trkpt>
      <trkpt lat="48.08795" lon="7.25567">
        <ele>312.2</ele>
        <time>2025-09-08T10:15:40Z</time>
      </trkpt>
      <trkpt lat="48.08786" lon="7.25575">
        <ele>311</ele>
        <time>2025-09-08T10:15:41Z</time>
      </trkpt>
      <trkpt lat="48.08778" lon="7.25585">
        <ele>310</ele>
        <time>2025-09-08T10:15:42Z</time>
      </trkpt>
      <trkpt lat="48.0877" lon="7.25594">
        <ele>308.2</ele>
        <time>2025-09-08T10:15:43Z</time>
      </trkpt>
      <trkpt lat="48.08761" lon="7.25602">
        <ele>307</ele>
        <time>2025-09-08T10:15:44Z</time>
      </trkpt>
      <trkpt lat="48.08752" lon="7.25612">
        <ele>305.4</ele>
        <time>2025-09-08T10:15:45Z</time>
      </trkpt>
      <trkpt lat="48.08743" lon="7.25621">
        <ele>304</ele>
        <time>2025-09-08T10:15:46Z</time>
      </trkpt>
      <trkpt lat="48.08734" lon="7.25631">
        <ele>302.4</ele>
        <time>2025-09-08T10:15:47Z</time>
      </trkpt>
      <trkpt lat="48.08726" lon="7.25642">
        <ele>301.2</ele>
        <time>2025-09-08T10:15:48Z</time>
      </trkpt>
      <trkpt lat="48.08717" lon="7.25652">
        <ele>299.2</ele>
        <time>2025-09-08T10:15:49Z</time>
      </trkpt>
      <trkpt lat="48.08708" lon="7.25662">
        <ele>298.4</ele>
        <time>2025-09-08T10:15:50Z</time>
      </trkpt>
      <trkpt lat="48.08699" lon="7.25672">
        <ele>297.4</ele>
        <time>2025-09-08T10:15:51Z</time>
      </trkpt>
      <trkpt lat="48.0869" lon="7.25682">
        <ele>296.4</ele>
        <time>2025-09-08T10:15:52Z</time>
      </trkpt>
      <trkpt lat="48.08682" lon="7.25691">
        <ele>295.2</ele>
        <time>2025-09-08T10:15:53Z</time>
      </trkpt>
      <trkpt lat="48.08673" lon="7.257">
        <ele>294.6</ele>
        <time>2025-09-08T10:15:54Z</time>
      </trkpt>
      <trkpt lat="48.08666" lon="7.25711">
        <ele>294</ele>
        <time>2025-09-08T10:15:55Z</time>
      </trkpt>
      <trkpt lat="48.0866" lon="7.25724">
        <ele>293</ele>
        <time>2025-09-08T10:15:56Z</time>
      </trkpt>
      <trkpt lat="48.08655" lon="7.25737">
        <ele>292.2</ele>
        <time>2025-09-08T10:15:57Z</time>
      </trkpt>
      <trkpt lat="48.0865" lon="7.25751">
        <ele>291.8</ele>
        <time>2025-09-08T10:15:58Z</time>
      </trkpt>
      <trkpt lat="48.08646" lon="7.25765">
        <ele>291.4</ele>
        <time>2025-09-08T10:15:59Z</time>
      </trkpt>
      <trkpt lat="48.08643" lon="7.25779">
        <ele>290.6</ele>
        <time>2025-09-08T10:16:00Z</time>
      </trkpt>
      <trkpt lat="48.0864" lon="7.25793">
        <ele>290.2</ele>
        <time>2025-09-08T10:16:01Z</time>
      </trkpt>
      <trkpt lat="48.08638" lon="7.25808">
        <ele>289.8</ele>
        <time>2025-09-08T10:16:02Z</time>
      </trkpt>
      <trkpt lat="48.08636" lon="7.25821">
        <ele>289.4</ele>
        <time>2025-09-08T10:16:03Z</time>
      </trkpt>
      <trkpt lat="48.08634" lon="7.25834">
        <ele>288.6</ele>
        <time>2025-09-08T10:16:04Z</time>
      </trkpt>
      <trkpt lat="48.08633" lon="7.25845">
        <ele>288.2</ele>
        <time>2025-09-08T10:16:05Z</time>
      </trkpt>
      <trkpt lat="48.08632" lon="7.25855">
        <ele>287.6</ele>
        <time>2025-09-08T10:16:06Z</time>
      </trkpt>
      <trkpt lat="48.08632" lon="7.25863">
        <ele>287.2</ele>
        <time>2025-09-08T10:16:07Z</time>
      </trkpt>
      <trkpt lat="48.08633" lon="7.25871">
        <ele>287</ele>
        <time>2025-09-08T10:16:08Z</time>
      </trkpt>
      <trkpt lat="48.08635" lon="7.25878">
        <ele>286.8</ele>
        <time>2025-09-08T10:16:09Z</time>
      </trkpt>
      <trkpt lat="48.08636" lon="7.25885">
        <ele>286.8</ele>
        <time>2025-09-08T10:16:10Z</time>
      </trkpt>
      <trkpt lat="48.08636" lon="7.25891">
        <ele>286.8</ele>
        <time>2025-09-08T10:16:11Z</time>
      </trkpt>
      <trkpt lat="48.08635" lon="7.25897">
        <ele>286.8</ele>
        <time>2025-09-08T10:16:12Z</time>
      </trkpt>
      <trkpt lat="48.08635" lon="7.25903">
        <ele>287.2</ele>
        <time>2025-09-08T10:16:13Z</time>
      </trkpt>
      <trkpt lat="48.08634" lon="7.25909">
        <ele>287.6</ele>
        <time>2025-09-08T10:16:14Z</time>
      </trkpt>
      <trkpt lat="48.08634" lon="7.25914">
        <ele>287.6</ele>
        <time>2025-09-08T10:16:15Z</time>
      </trkpt>
      <trkpt lat="48.08635" lon="7.2592">
        <ele>287.8</ele>
        <time>2025-09-08T10:16:16Z</time>
      </trkpt>
      <trkpt lat="48.08636" lon="7.25926">
        <ele>287.8</ele>
        <time>2025-09-08T10:16:17Z</time>
      </trkpt>
      <trkpt lat="48.08637" lon="7.25932">
        <ele>288</ele>
        <time>2025-09-08T10:16:18Z</time>
      </trkpt>
      <trkpt lat="48.08638" lon="7.25938">
        <ele>288</ele>
        <time>2025-09-08T10:16:19Z</time>
      </trkpt>
      <trkpt lat="48.0864" lon="7.25945">
        <ele>288</ele>
        <time>2025-09-08T10:16:20Z</time>
      </trkpt>
      <trkpt lat="48.08641" lon="7.25952">
        <ele>288</ele>
        <time>2025-09-08T10:16:21Z</time>
      </trkpt>
      <trkpt lat="48.08642" lon="7.25958">
        <ele>288</ele>
        <time>2025-09-08T10:16:22Z</time>
      </trkpt>
      <trkpt lat="48.08643" lon="7.25965">
        <ele>288</ele>
        <time>2025-09-08T10:16:23Z</time>
      </trkpt>
      <trkpt lat="48.08645" lon="7.25972">
        <ele>287.8</ele>
        <time>2025-09-08T10:16:24Z</time>
      </trkpt>
      <trkpt lat="48.08647" lon="7.2598">
        <ele>287.8</ele>
        <time>2025-09-08T10:16:25Z</time>
      </trkpt>
      <trkpt lat="48.08648" lon="7.25988">
        <ele>287.6</ele>
        <time>2025-09-08T10:16:26Z</time>
      </trkpt>
      <trkpt lat="48.0865" lon="7.25996">
        <ele>287.4</ele>
        <time>2025-09-08T10:16:27Z</time>
      </trkpt>
      <trkpt lat="48.08652" lon="7.26004">
        <ele>287.2</ele>
        <time>2025-09-08T10:16:28Z</time>
      </trkpt>
      <trkpt lat="48.08654" lon="7.26012">
        <ele>287</ele>
        <time>2025-09-08T10:16:29Z</time>
      </trkpt>
      <trkpt lat="48.08656" lon="7.26019">
        <ele>286.8</ele>
        <time>2025-09-08T10:16:30Z</time>
      </trkpt>
      <trkpt lat="48.08658" lon="7.26027">
        <ele>286.4</ele>
        <time>2025-09-08T10:16:31Z</time>
      </trkpt>
      <trkpt lat="48.0866" lon="7.26035">
        <ele>286.4</ele>
        <time>2025-09-08T10:16:32Z</time>
      </trkpt>
      <trkpt lat="48.08662" lon="7.26042">
        <ele>286.2</ele>
        <time>2025-09-08T10:16:33Z</time>
      </trkpt>
      <trkpt lat="48.08664" lon="7.2605">
        <ele>286</ele>
        <time>2025-09-08T10:16:34Z</time>
      </trkpt>
      <trkpt lat="48.08667" lon="7.26057">
        <ele>286</ele>
        <time>2025-09-08T10:16:35Z</time>
      </trkpt>
      <trkpt lat="48.08669" lon="7.26064">
        <ele>285.8</ele>
        <time>2025-09-08T10:16:36Z</time>
      </trkpt>
      <trkpt lat="48.08671" lon="7.26071">
        <ele>285.6</ele>
        <time>2025-09-08T10:16:37Z</time>
      </trkpt>
      <trkpt lat="48.08674" lon="7.26078">
        <ele>285.4</ele>
        <time>2025-09-08T10:16:38Z</time>
      </trkpt>
      <trkpt lat="48.08676" lon="7.26085">
        <ele>285.4</ele>
        <time>2025-09-08T10:16:39Z</time>
      </trkpt>
      <trkpt lat="48.08678" lon="7.26092">
        <ele>285.2</ele>
        <time>2025-09-08T10:16:40Z</time>
      </trkpt>
      <trkpt lat="48.0868" lon="7.26099">
        <ele>285</ele>
        <time>2025-09-08T10:16:41Z</time>
      </trkpt>
      <trkpt lat="48.08682" lon="7.26106">
        <ele>284.8</ele>
        <time>2025-09-08T10:16:42Z</time>
      </trkpt>
      <trkpt lat="48.08684" lon="7.26114">
        <ele>284.6</ele>
        <time>2025-09-08T10:16:43Z</time>
      </trkpt>
      <trkpt lat="48.08686" lon="7.26121">
        <ele>284.4</ele>
        <time>2025-09-08T10:16:44Z</time>
      </trkpt>
      <trkpt lat="48.08688" lon="7.26129">
        <ele>284.2</ele>
        <time>2025-09-08T10:16:45Z</time>
      </trkpt>
      <trkpt lat="48.08691" lon="7.26136">
        <ele>284.2</ele>
        <time>2025-09-08T10:16:46Z</time>
      </trkpt>
      <trkpt lat="48.08694" lon="7.26143">
        <ele>283.8</ele>
        <time>2025-09-08T10:16:47Z</time>
      </trkpt>
      <trkpt lat="48.08696" lon="7.26151">
        <ele>283.6</ele>
        <time>2025-09-08T10:16:48Z</time>
      </trkpt>
      <trkpt lat="48.08698" lon="7.26158">
        <ele>283.6</ele>
        <time>2025-09-08T10:16:49Z</time>
      </trkpt>
      <trkpt lat="48.08701" lon="7.26165">
        <ele>283.4</ele>
        <time>2025-09-08T10:16:50Z</time>
      </trkpt>
      <trkpt lat="48.08703" lon="7.26173">
        <ele>283.2</ele>
        <time>2025-09-08T10:16:51Z</time>
      </trkpt>
      <trkpt lat="48.08705" lon="7.2618">
        <ele>283.2</ele>
        <time>2025-09-08T10:16:52Z</time>
      </trkpt>
      <trkpt lat="48.08707" lon="7.26188">
        <ele>283.2</ele>
        <time>2025-09-08T10:16:53Z</time>
      </trkpt>
      <trkpt lat="48.08709" lon="7.26196">
        <ele>283</ele>
        <time>2025-09-08T10:16:54Z</time>
      </trkpt>
      <trkpt lat="48.08711" lon="7.26203">
        <ele>282.8</ele>
        <time>2025-09-08T10:16:55Z</time>
      </trkpt>
      <trkpt lat="48.08713" lon="7.2621">
        <ele>282.6</ele>
        <time>2025-09-08T10:16:56Z</time>
      </trkpt>
      <trkpt lat="48.08715" lon="7.26217">
        <ele>282.4</ele>
        <time>2025-09-08T10:16:57Z</time>
      </trkpt>
      <trkpt lat="48.08717" lon="7.26224">
        <ele>282.4</ele>
        <time>2025-09-08T10:16:58Z</time>
      </trkpt>
      <trkpt lat="48.08719" lon="7.26232">
        <ele>282.2</ele>
        <time>2025-09-08T10:16:59Z</time>
      </trkpt>
      <trkpt lat="48.0872" lon="7.26239">
        <ele>282</ele>
        <time>2025-09-08T10:17:00Z</time>
      </trkpt>
      <trkpt lat="48.08722" lon="7.26246">
        <ele>282</ele>
        <time>2025-09-08T10:17:01Z</time>
      </trkpt>
      <trkpt lat="48.08724" lon="7.26253">
        <ele>281.8</ele>
        <time>2025-09-08T10:17:02Z</time>
      </trkpt>
      <trkpt lat="48.08727" lon="7.26261">
        <ele>281.8</ele>
        <time>2025-09-08T10:17:03Z</time>
      </trkpt>
      <trkpt lat="48.0873" lon="7.26267">
        <ele>281.8</ele>
        <time>2025-09-08T10:17:04Z</time>
      </trkpt>
      <trkpt lat="48.08734" lon="7.26274">
        <ele>281.6</ele>
        <time>2025-09-08T10:17:05Z</time>
      </trkpt>
      <trkpt lat="48.08738" lon="7.26279">
        <ele>281.6</ele>
        <time>2025-09-08T10:17:06Z</time>
      </trkpt>
      <trkpt lat="48.08742" lon="7.26284">
        <ele>281.6</ele>
        <time>2025-09-08T10:17:07Z</time>
      </trkpt>
      <trkpt lat="48.08746" lon="7.26289">
        <ele>281.8</ele>
        <time>2025-09-08T10:17:08Z</time>
      </trkpt>
      <trkpt lat="48.0875" lon="7.26293">
        <ele>281.8</ele>
        <time>2025-09-08T10:17:09Z</time>
      </trkpt>
      <trkpt lat="48.08754" lon="7.26297">
        <ele>282</ele>
        <time>2025-09-08T10:17:10Z</time>
      </trkpt>
      <trkpt lat="48.08758" lon="7.26301">
        <ele>282.2</ele>
        <time>2025-09-08T10:17:11Z</time>
      </trkpt>
      <trkpt lat="48.08761" lon="7.26306">
        <ele>282.2</ele>
        <time>2025-09-08T10:17:12Z</time>
      </trkpt>
      <trkpt lat="48.08764" lon="7.26312">
        <ele>282.4</ele>
        <time>2025-09-08T10:17:13Z</time>
      </trkpt>
      <trkpt lat="48.08766" lon="7.26318">
        <ele>282.6</ele>
        <time>2025-09-08T10:17:14Z</time>
      </trkpt>
      <trkpt lat="48.08768" lon="7.26324">
        <ele>282.8</ele>
        <time>2025-09-08T10:17:15Z</time>
      </trkpt>
      <trkpt lat="48.0877" lon="7.26331">
        <ele>283</ele>
        <time>2025-09-08T10:17:16Z</time>
      </trkpt>
      <trkpt lat="48.08772" lon="7.26337">
        <ele>283</ele>
        <time>2025-09-08T10:17:17Z</time>
      </trkpt>
      <trkpt lat="48.08774" lon="7.26344">
        <ele>283</ele>
        <time>2025-09-08T10:17:18Z</time>
      </trkpt>
      <trkpt lat="48.08775" lon="7.2635">
        <ele>282.8</ele>
        <time>2025-09-08T10:17:19Z</time>
      </trkpt>
      <trkpt lat="48.08776" lon="7.26356">
        <ele>282.8</ele>
        <time>2025-09-08T10:17:20Z</time>
      </trkpt>
      <trkpt lat="48.08777" lon="7.26362">
        <ele>282.8</ele>
        <time>2025-09-08T10:17:21Z</time>
      </trkpt>
      <trkpt lat="48.08778" lon="7.26369">
        <ele>282.6</ele>
        <time>2025-09-08T10:17:22Z</time>
      </trkpt>
      <trkpt lat="48.08778" lon="7.26375">
        <ele>282.6</ele>
        <time>2025-09-08T10:17:23Z</time>
      </trkpt>
      <trkpt lat="48.08779" lon="7.26382">
        <ele>282.4</ele>
        <time>2025-09-08T10:17:24Z</time>
      </trkpt>
      <trkpt lat="48.0878" lon="7.2639">
        <ele>282.2</ele>
        <time>2025-09-08T10:17:25Z</time>
      </trkpt>
      <trkpt lat="48.08781" lon="7.26397">
        <ele>282</ele>
        <time>2025-09-08T10:17:26Z</time>
      </trkpt>
      <trkpt lat="48.08783" lon="7.26405">
        <ele>281.6</ele>
        <time>2025-09-08T10:17:27Z</time>
      </trkpt>
      <trkpt lat="48.08785" lon="7.26413">
        <ele>281.4</ele>
        <time>2025-09-08T10:17:28Z</time>
      </trkpt>
      <trkpt lat="48.08788" lon="7.2642">
        <ele>281.2</ele>
        <time>2025-09-08T10:17:29Z</time>
      </trkpt>
      <trkpt lat="48.08791" lon="7.26428">
        <ele>281.2</ele>
        <time>2025-09-08T10:17:30Z</time>
      </trkpt>
      <trkpt lat="48.08794" lon="7.26437">
        <ele>281</ele>
        <time>2025-09-08T10:17:31Z</time>
      </trkpt>
      <trkpt lat="48.08796" lon="7.26446">
        <ele>280.4</ele>
        <time>2025-09-08T10:17:32Z</time>
      </trkpt>
      <trkpt lat="48.08798" lon="7.26456">
        <ele>280</ele>
        <time>2025-09-08T10:17:33Z</time>
      </trkpt>
      <trkpt lat="48.08801" lon="7.26466">
        <ele>279.6</ele>
        <time>2025-09-08T10:17:34Z</time>
      </trkpt>
      <trkpt lat="48.08802" lon="7.26476">
        <ele>279.4</ele>
        <time>2025-09-08T10:17:35Z</time>
      </trkpt>
      <trkpt lat="48.08803" lon="7.26486">
        <ele>278.8</ele>
        <time>2025-09-08T10:17:36Z</time>
      </trkpt>
      <trkpt lat="48.08804" lon="7.26496">
        <ele>278.6</ele>
        <time>2025-09-08T10:17:37Z</time>
      </trkpt>
      <trkpt lat="48.08805" lon="7.26507">
        <ele>278</ele>
        <time>2025-09-08T10:17:38Z</time>
      </trkpt>
      <trkpt lat="48.08806" lon="7.26517">
        <ele>277.8</ele>
        <time>2025-09-08T10:17:39Z</time>
      </trkpt>
      <trkpt lat="48.08807" lon="7.26525">
        <ele>277.4</ele>
        <time>2025-09-08T10:17:40Z</time>
      </trkpt>
      <trkpt lat="48.08807" lon="7.26533">
        <ele>277</ele>
        <time>2025-09-08T10:17:41Z</time>
      </trkpt>
      <trkpt lat="48.08805" lon="7.2654">
        <ele>277</ele>
        <time>2025-09-08T10:17:42Z</time>
      </trkpt>
      <trkpt lat="48.08803" lon="7.26545">
        <ele>277</ele>
        <time>2025-09-08T10:17:43Z</time>
      </trkpt>
      <trkpt lat="48.08799" lon="7.26549">
        <ele>277</ele>
        <time>2025-09-08T10:17:44Z</time>
      </trkpt>
      <trkpt lat="48.08794" lon="7.26552">
        <ele>276.8</ele>
        <time>2025-09-08T10:17:45Z</time>
      </trkpt>
      <trkpt lat="48.08789" lon="7.26554">
        <ele>276.8</ele>
        <time>2025-09-08T10:17:46Z</time>
      </trkpt>
      <trkpt lat="48.08784" lon="7.26556">
        <ele>276.8</ele>
        <time>2025-09-08T10:17:47Z</time>
      </trkpt>
      <trkpt lat="48.08779" lon="7.26559">
        <ele>276.8</ele>
        <time>2025-09-08T10:17:48Z</time>
      </trkpt>
      <trkpt lat="48.08774" lon="7.26563">
        <ele>276.4</ele>
        <time>2025-09-08T10:17:49Z</time>
      </trkpt>
      <trkpt lat="48.08769" lon="7.26567">
        <ele>276.2</ele>
        <time>2025-09-08T10:17:50Z</time>
      </trkpt>
      <trkpt lat="48.08764" lon="7.26571">
        <ele>275.8</ele>
        <time>2025-09-08T10:17:51Z</time>
      </trkpt>
      <trkpt lat="48.08759" lon="7.26574">
        <ele>275.6</ele>
        <time>2025-09-08T10:17:52Z</time>
      </trkpt>
      <trkpt lat="48.08754" lon="7.26579">
        <ele>275</ele>
        <time>2025-09-08T10:17:53Z</time>
      </trkpt>
      <trkpt lat="48.08748" lon="7.26582">
        <ele>274.4</ele>
        <time>2025-09-08T10:17:54Z</time>
      </trkpt>
      <trkpt lat="48.08743" lon="7.26585">
        <ele>273.8</ele>
        <time>2025-09-08T10:17:55Z</time>
      </trkpt>
      <trkpt lat="48.08738" lon="7.26589">
        <ele>273.4</ele>
        <time>2025-09-08T10:17:56Z</time>
      </trkpt>
      <trkpt lat="48.08732" lon="7.26592">
        <ele>273</ele>
        <time>2025-09-08T10:17:57Z</time>
      </trkpt>
      <trkpt lat="48.08727" lon="7.26593">
        <ele>272.6</ele>
        <time>2025-09-08T10:17:58Z</time>
      </trkpt>
      <trkpt lat="48.08721" lon="7.26595">
        <ele>272</ele>
        <time>2025-09-08T10:17:59Z</time>
      </trkpt>
      <trkpt lat="48.08715" lon="7.26598">
        <ele>271</ele>
        <time>2025-09-08T10:18:00Z</time>
      </trkpt>
      <trkpt lat="48.0871" lon="7.26601">
        <ele>270.6</ele>
        <time>2025-09-08T10:18:01Z</time>
      </trkpt>
      <trkpt lat="48.08704" lon="7.26603">
        <ele>270.2</ele>
        <time>2025-09-08T10:18:02Z</time>
      </trkpt>
      <trkpt lat="48.08699" lon="7.26604">
        <ele>269.8</ele>
        <time>2025-09-08T10:18:03Z</time>
      </trkpt>
      <trkpt lat="48.08693" lon="7.26606">
        <ele>269.6</ele>
        <time>2025-09-08T10:18:04Z</time>
      </trkpt>
      <trkpt lat="48.08687" lon="7.26608">
        <ele>268.8</ele>
        <time>2025-09-08T10:18:05Z</time>
      </trkpt>
      <trkpt lat="48.08681" lon="7.2661">
        <ele>268.2</ele>
        <time>2025-09-08T10:18:06Z</time>
      </trkpt>
      <trkpt lat="48.08675" lon="7.26611">
        <ele>267.6</ele>
        <time>2025-09-08T10:18:07Z</time>
      </trkpt>
      <trkpt lat="48.08668" lon="7.26611">
        <ele>267.2</ele>
        <time>2025-09-08T10:18:08Z</time>
      </trkpt>
      <trkpt lat="48.08662" lon="7.2661">
        <ele>266.8</ele>
        <time>2025-09-08T10:18:09Z</time>
      </trkpt>
      <trkpt lat="48.08656" lon="7.26608">
        <ele>266.2</ele>
        <time>2025-09-08T10:18:10Z</time>
      </trkpt>
      <trkpt lat="48.08649" lon="7.26607">
        <ele>265.4</ele>
        <time>2025-09-08T10:18:11Z</time>
      </trkpt>
      <trkpt lat="48.08642" lon="7.26608">
        <ele>264.8</ele>
        <time>2025-09-08T10:18:12Z</time>
      </trkpt>
      <trkpt lat="48.08635" lon="7.26613">
        <ele>264</ele>
        <time>2025-09-08T10:18:13Z</time>
      </trkpt>
      <trkpt lat="48.08631" lon="7.2662">
        <ele>263</ele>
        <time>2025-09-08T10:18:14Z</time>
      </trkpt>
      <trkpt lat="48.08628" lon="7.26629">
        <ele>262.4</ele>
        <time>2025-09-08T10:18:15Z</time>
      </trkpt>
      <trkpt lat="48.08627" lon="7.26639">
        <ele>261.6</ele>
        <time>2025-09-08T10:18:16Z</time>
      </trkpt>
      <trkpt lat="48.08626" lon="7.26649">
        <ele>261</ele>
        <time>2025-09-08T10:18:17Z</time>
      </trkpt>
      <trkpt lat="48.08627" lon="7.26659">
        <ele>260.6</ele>
        <time>2025-09-08T10:18:18Z</time>
      </trkpt>
      <trkpt lat="48.08627" lon="7.26668">
        <ele>260.2</ele>
        <time>2025-09-08T10:18:19Z</time>
      </trkpt>
      <trkpt lat="48.08626" lon="7.26678">
        <ele>259.6</ele>
        <time>2025-09-08T10:18:20Z</time>
      </trkpt>
      <trkpt lat="48.08625" lon="7.26688">
        <ele>259.2</ele>
        <time>2025-09-08T10:18:21Z</time>
      </trkpt>
      <trkpt lat="48.08623" lon="7.26698">
        <ele>258.4</ele>
        <time>2025-09-08T10:18:22Z</time>
      </trkpt>
      <trkpt lat="48.08622" lon="7.26707">
        <ele>258.2</ele>
        <time>2025-09-08T10:18:23Z</time>
      </trkpt>
      <trkpt lat="48.08621" lon="7.26717">
        <ele>257</ele>
        <time>2025-09-08T10:18:24Z</time>
      </trkpt>
      <trkpt lat="48.08619" lon="7.26726">
        <ele>257</ele>
        <time>2025-09-08T10:18:25Z</time>
      </trkpt>
      <trkpt lat="48.08618" lon="7.26734">
        <ele>256.8</ele>
        <time>2025-09-08T10:18:26Z</time>
      </trkpt>
      <trkpt lat="48.08616" lon="7.26743">
        <ele>256.4</ele>
        <time>2025-09-08T10:18:27Z</time>
      </trkpt>
      <trkpt lat="48.08614" lon="7.26752">
        <ele>256</ele>
        <time>2025-09-08T10:18:28Z</time>
      </trkpt>
      <trkpt lat="48.08612" lon="7.2676">
        <ele>256</ele>
        <time>2025-09-08T10:18:29Z</time>
      </trkpt>
      <trkpt lat="48.0861" lon="7.26769">
        <ele>255.8</ele>
        <time>2025-09-08T10:18:30Z</time>
      </trkpt>
      <trkpt lat="48.08607" lon="7.26778">
        <ele>255.6</ele>
        <time>2025-09-08T10:18:31Z</time>
      </trkpt>
      <trkpt lat="48.08605" lon="7.26786">
        <ele>255.4</ele>
        <time>2025-09-08T10:18:32Z</time>
      </trkpt>
      <trkpt lat="48.08603" lon="7.26795">
        <ele>255</ele>
        <time>2025-09-08T10:18:33Z</time>
      </trkpt>
      <trkpt lat="48.08602" lon="7.26804">
        <ele>255</ele>
        <time>2025-09-08T10:18:34Z</time>
      </trkpt>
      <trkpt lat="48.08601" lon="7.26813">
        <ele>254.8</ele>
        <time>2025-09-08T10:18:35Z</time>
      </trkpt>
      <trkpt lat="48.086" lon="7.26822">
        <ele>254.6</ele>
        <time>2025-09-08T10:18:36Z</time>
      </trkpt>
      <trkpt lat="48.086" lon="7.26832">
        <ele>254.4</ele>
        <time>2025-09-08T10:18:37Z</time>
      </trkpt>
      <trkpt lat="48.08601" lon="7.26842">
        <ele>254</ele>
        <time>2025-09-08T10:18:38Z</time>
      </trkpt>
      <trkpt lat="48.08601" lon="7.26852">
        <ele>253.8</ele>
        <time>2025-09-08T10:18:39Z</time>
      </trkpt>
      <trkpt lat="48.08601" lon="7.26861">
        <ele>253.6</ele>
        <time>2025-09-08T10:18:40Z</time>
      </trkpt>
      <trkpt lat="48.08601" lon="7.2687">
        <ele>253.2</ele>
        <time>2025-09-08T10:18:41Z</time>
      </trkpt>
      <trkpt lat="48.08601" lon="7.26879">
        <ele>253.2</ele>
        <time>2025-09-08T10:18:42Z</time>
      </trkpt>
      <trkpt lat="48.08601" lon="7.26888">
        <ele>253</ele>
        <time>2025-09-08T10:18:43Z</time>
      </trkpt>
      <trkpt lat="48.08602" lon="7.26896">
        <ele>252.8</ele>
        <time>2025-09-08T10:18:44Z</time>
      </trkpt>
      <trkpt lat="48.08602" lon="7.26905">
        <ele>252.8</ele>
        <time>2025-09-08T10:18:45Z</time>
      </trkpt>
      <trkpt lat="48.08602" lon="7.26913">
        <ele>252.6</ele>
        <time>2025-09-08T10:18:46Z</time>
      </trkpt>
      <trkpt lat="48.08602" lon="7.26922">
        <ele>252.6</ele>
        <time>2025-09-08T10:18:47Z</time>
      </trkpt>
      <trkpt lat="48.08603" lon="7.2693">
        <ele>252.6</ele>
        <time>2025-09-08T10:18:48Z</time>
      </trkpt>
      <trkpt lat="48.08603" lon="7.26938">
        <ele>252.6</ele>
        <time>2025-09-08T10:18:49Z</time>
      </trkpt>
      <trkpt lat="48.08604" lon="7.26946">
        <ele>252.6</ele>
        <time>2025-09-08T10:18:50Z</time>
      </trkpt>
      <trkpt lat="48.08604" lon="7.26954">
        <ele>252.6</ele>
        <time>2025-09-08T10:18:51Z</time>
      </trkpt>
      <trkpt lat="48.08605" lon="7.26961">
        <ele>252.6</ele>
        <time>2025-09-08T10:18:52Z</time>
      </trkpt>
      <trkpt lat="48.08605" lon="7.26969">
        <ele>252.6</ele>
        <time>2025-09-08T10:18:53Z</time>
      </trkpt>
      <trkpt lat="48.08606" lon="7.26975">
        <ele>252.6</ele>
        <time>2025-09-08T10:18:54Z</time>
      </trkpt>
      <trkpt lat="48.08606" lon="7.26983">
        <ele>252.6</ele>
        <time>2025-09-08T10:18:55Z</time>
      </trkpt>
      <trkpt lat="48.08607" lon="7.2699">
        <ele>252.4</ele>
        <time>2025-09-08T10:18:56Z</time>
      </trkpt>
      <trkpt lat="48.08608" lon="7.26997">
        <ele>252.4</ele>
        <time>2025-09-08T10:18:57Z</time>
      </trkpt>
      <trkpt lat="48.08609" lon="7.27004">
        <ele>252.4</ele>
        <time>2025-09-08T10:18:58Z</time>
      </trkpt>
      <trkpt lat="48.08609" lon="7.2701">
        <ele>252.4</ele>
        <time>2025-09-08T10:18:59Z</time>
      </trkpt>
      <trkpt lat="48.0861" lon="7.27017">
        <ele>252.2</ele>
        <time>2025-09-08T10:19:00Z</time>
      </trkpt>
      <trkpt lat="48.0861" lon="7.27023">
        <ele>252.2</ele>
        <time>2025-09-08T10:19:01Z</time>
      </trkpt>
      <trkpt lat="48.08611" lon="7.27029">
        <ele>252.2</ele>
        <time>2025-09-08T10:19:02Z</time>
      </trkpt>
      <trkpt lat="48.08611" lon="7.27035">
        <ele>252.2</ele>
        <time>2025-09-08T10:19:03Z</time>
      </trkpt>
      <trkpt lat="48.08612" lon="7.2704">
        <ele>252</ele>
        <time>2025-09-08T10:19:04Z</time>
      </trkpt>
      <trkpt lat="48.08612" lon="7.27046">
        <ele>252</ele>
        <time>2025-09-08T10:19:05Z</time>
      </trkpt>
      <trkpt lat="48.08612" lon="7.27052">
        <ele>252</ele>
        <time>2025-09-08T10:19:06Z</time>
      </trkpt>
      <trkpt lat="48.08613" lon="7.27058">
        <ele>252</ele>
        <time>2025-09-08T10:19:07Z</time>
      </trkpt>
      <trkpt lat="48.08614" lon="7.27064">
        <ele>252</ele>
        <time>2025-09-08T10:19:08Z</time>
      </trkpt>
      <trkpt lat="48.08614" lon="7.2707">
        <ele>252</ele>
        <time>2025-09-08T10:19:09Z</time>
      </trkpt>
      <trkpt lat="48.08615" lon="7.27077">
        <ele>251.8</ele>
        <time>2025-09-08T10:19:10Z</time>
      </trkpt>
      <trkpt lat="48.08615" lon="7.27083">
        <ele>251.8</ele>
        <time>2025-09-08T10:19:11Z</time>
      </trkpt>
      <trkpt lat="48.08615" lon="7.2709">
        <ele>251.8</ele>
        <time>2025-09-08T10:19:12Z</time>
      </trkpt>
      <trkpt lat="48.08615" lon="7.27097">
        <ele>251.8</ele>
        <time>2025-09-08T10:19:13Z</time>
      </trkpt>
      <trkpt lat="48.08616" lon="7.27104">
        <ele>251.6</ele>
        <time>2025-09-08T10:19:14Z</time>
      </trkpt>
      <trkpt lat="48.08616" lon="7.2711">
        <ele>251.4</ele>
        <time>2025-09-08T10:19:15Z</time>
      </trkpt>
      <trkpt lat="48.08617" lon="7.27115">
        <ele>251.2</ele>
        <time>2025-09-08T10:19:16Z</time>
      </trkpt>
      <trkpt lat="48.08618" lon="7.2712">
        <ele>251</ele>
        <time>2025-09-08T10:19:17Z</time>
      </trkpt>
      <trkpt lat="48.08618" lon="7.27125">
        <ele>251</ele>
        <time>2025-09-08T10:19:18Z</time>
      </trkpt>
      <trkpt lat="48.08619" lon="7.27129">
        <ele>251</ele>
        <time>2025-09-08T10:19:19Z</time>
      </trkpt>
      <trkpt lat="48.08619" lon="7.27134">
        <ele>251</ele>
        <time>2025-09-08T10:19:20Z</time>
      </trkpt>
      <trkpt lat="48.08619" lon="7.27138">
        <ele>251</ele>
        <time>2025-09-08T10:19:21Z</time>
      </trkpt>
      <trkpt lat="48.0862" lon="7.27142">
        <ele>251</ele>
        <time>2025-09-08T10:19:22Z</time>
      </trkpt>
      <trkpt lat="48.08621" lon="7.27146">
        <ele>251</ele>
        <time>2025-09-08T10:19:23Z</time>
      </trkpt>
      <trkpt lat="48.08621" lon="7.27149">
        <ele>251</ele>
        <time>2025-09-08T10:19:24Z</time>
      </trkpt>
      <trkpt lat="48.08622" lon="7.27153">
        <ele>251</ele>
        <time>2025-09-08T10:19:25Z</time>
      </trkpt>
      <trkpt lat="48.08622" lon="7.27157">
        <ele>251</ele>
        <time>2025-09-08T10:19:26Z</time>
      </trkpt>
      <trkpt lat="48.08623" lon="7.27161">
        <ele>251</ele>
        <time>2025-09-08T10:19:27Z</time>
      </trkpt>
      <trkpt lat="48.08625" lon="7.27164">
        <ele>251</ele>
        <time>2025-09-08T10:19:28Z</time>
      </trkpt>
      <trkpt lat="48.08627" lon="7.27166">
        <ele>250.8</ele>
        <time>2025-09-08T10:19:29Z</time>
      </trkpt>
      <trkpt lat="48.0863" lon="7.27167">
        <ele>250.6</ele>
        <time>2025-09-08T10:19:30Z</time>
      </trkpt>
      <trkpt lat="48.08633" lon="7.2717">
        <ele>250.6</ele>
        <time>2025-09-08T10:19:31Z</time>
      </trkpt>
      <trkpt lat="48.08636" lon="7.27172">
        <ele>250.6</ele>
        <time>2025-09-08T10:19:32Z</time>
      </trkpt>
      <trkpt lat="48.08639" lon="7.27175">
        <ele>250.6</ele>
        <time>2025-09-08T10:19:33Z</time>
      </trkpt>
      <trkpt lat="48.08642" lon="7.27178">
        <ele>250.6</ele>
        <time>2025-09-08T10:19:34Z</time>
      </trkpt>
      <trkpt lat="48.08645" lon="7.27181">
        <ele>250.6</ele>
        <time>2025-09-08T10:19:35Z</time>
      </trkpt>
      <trkpt lat="48.08648" lon="7.27185">
        <ele>250.6</ele>
        <time>2025-09-08T10:19:36Z</time>
      </trkpt>
      <trkpt lat="48.08651" lon="7.27188">
        <ele>250.6</ele>
        <time>2025-09-08T10:19:37Z</time>
      </trkpt>
      <trkpt lat="48.08652" lon="7.27191">
        <ele>250.6</ele>
        <time>2025-09-08T10:19:38Z</time>
      </trkpt>
      <trkpt lat="48.08654" lon="7.27195">
        <ele>250.8</ele>
        <time>2025-09-08T10:19:39Z</time>
      </trkpt>
      <trkpt lat="48.08656" lon="7.27199">
        <ele>250.8</ele>
        <time>2025-09-08T10:19:40Z</time>
      </trkpt>
      <trkpt lat="48.08658" lon="7.27202">
        <ele>250.8</ele>
        <time>2025-09-08T10:19:41Z</time>
      </trkpt>
      <trkpt lat="48.0866" lon="7.27206">
        <ele>250.8</ele>
        <time>2025-09-08T10:19:42Z</time>
      </trkpt>
      <trkpt lat="48.08662" lon="7.27209">
        <ele>251</ele>
        <time>2025-09-08T10:19:43Z</time>
      </trkpt>
      <trkpt lat="48.08664" lon="7.27211">
        <ele>251</ele>
        <time>2025-09-08T10:19:44Z</time>
      </trkpt>
      <trkpt lat="48.08666" lon="7.27215">
        <ele>251</ele>
        <time>2025-09-08T10:19:45Z</time>
      </trkpt>
      <trkpt lat="48.08667" lon="7.27219">
        <ele>251</ele>
        <time>2025-09-08T10:19:46Z</time>
      </trkpt>
      <trkpt lat="48.08669" lon="7.27225">
        <ele>251</ele>
        <time>2025-09-08T10:19:47Z</time>
      </trkpt>
      <trkpt lat="48.08671" lon="7.2723">
        <ele>251</ele>
        <time>2025-09-08T10:19:48Z</time>
      </trkpt>
      <trkpt lat="48.08673" lon="7.27235">
        <ele>251</ele>
        <time>2025-09-08T10:19:49Z</time>
      </trkpt>
      <trkpt lat="48.08674" lon="7.27241">
        <ele>251</ele>
        <time>2025-09-08T10:19:50Z</time>
      </trkpt>
      <trkpt lat="48.08675" lon="7.27246">
        <ele>251</ele>
        <time>2025-09-08T10:19:51Z</time>
      </trkpt>
      <trkpt lat="48.08676" lon="7.27252">
        <ele>251</ele>
        <time>2025-09-08T10:19:52Z</time>
      </trkpt>
      <trkpt lat="48.08677" lon="7.27258">
        <ele>250.8</ele>
        <time>2025-09-08T10:19:53Z</time>
      </trkpt>
      <trkpt lat="48.08677" lon="7.27264">
        <ele>250.8</ele>
        <time>2025-09-08T10:19:54Z</time>
      </trkpt>
      <trkpt lat="48.08678" lon="7.27269">
        <ele>250.8</ele>
        <time>2025-09-08T10:19:55Z</time>
      </trkpt>
      <trkpt lat="48.08679" lon="7.27275">
        <ele>250.8</ele>
        <time>2025-09-08T10:19:56Z</time>
      </trkpt>
      <trkpt lat="48.0868" lon="7.2728">
        <ele>250.6</ele>
        <time>2025-09-08T10:19:57Z</time>
      </trkpt>
      <trkpt lat="48.0868" lon="7.27285">
        <ele>250.6</ele>
        <time>2025-09-08T10:19:58Z</time>
      </trkpt>
      <trkpt lat="48.0868" lon="7.27291">
        <ele>250.6</ele>
        <time>2025-09-08T10:19:59Z</time>
      </trkpt>
      <trkpt lat="48.08681" lon="7.27297">
        <ele>250.6</ele>
        <time>2025-09-08T10:20:00Z</time>
      </trkpt>
      <trkpt lat="48.08681" lon="7.27303">
        <ele>250.6</ele>
        <time>2025-09-08T10:20:01Z</time>
      </trkpt>
      <trkpt lat="48.08681" lon="7.27309">
        <ele>250.4</ele>
        <time>2025-09-08T10:20:02Z</time>
      </trkpt>
      <trkpt lat="48.08682" lon="7.27315">
        <ele>250.4</ele>
        <time>2025-09-08T10:20:03Z</time>
      </trkpt>
      <trkpt lat="48.08683" lon="7.2732">
        <ele>250.4</ele>
        <time>2025-09-08T10:20:04Z</time>
      </trkpt>
      <trkpt lat="48.08684" lon="7.27326">
        <ele>250.2</ele>
        <time>2025-09-08T10:20:05Z</time>
      </trkpt>
      <trkpt lat="48.08686" lon="7.27333">
        <ele>250.2</ele>
        <time>2025-09-08T10:20:06Z</time>
      </trkpt>
      <trkpt lat="48.08687" lon="7.27338">
        <ele>250.2</ele>
        <time>2025-09-08T10:20:07Z</time>
      </trkpt>
      <trkpt lat="48.08689" lon="7.27344">
        <ele>250</ele>
        <time>2025-09-08T10:20:08Z</time>
      </trkpt>
      <trkpt lat="48.0869" lon="7.27349">
        <ele>250</ele>
        <time>2025-09-08T10:20:09Z</time>
      </trkpt>
      <trkpt lat="48.08692" lon="7.27355">
        <ele>250</ele>
        <time>2025-09-08T10:20:10Z</time>
      </trkpt>
      <trkpt lat="48.08693" lon="7.2736">
        <ele>250</ele>
        <time>2025-09-08T10:20:11Z</time>
      </trkpt>
      <trkpt lat="48.08696" lon="7.27366">
        <ele>249.8</ele>
        <time>2025-09-08T10:20:12Z</time>
      </trkpt>
      <trkpt lat="48.08697" lon="7.27371">
        <ele>249.8</ele>
        <time>2025-09-08T10:20:13Z</time>
      </trkpt>
      <trkpt lat="48.08699" lon="7.27377">
        <ele>249.8</ele>
        <time>2025-09-08T10:20:14Z</time>
      </trkpt>
      <trkpt lat="48.08701" lon="7.27382">
        <ele>249.6</ele>
        <time>2025-09-08T10:20:15Z</time>
      </trkpt>
      <trkpt lat="48.08703" lon="7.27388">
        <ele>249.6</ele>
        <time>2025-09-08T10:20:16Z</time>
      </trkpt>
      <trkpt lat="48.08706" lon="7.27393">
        <ele>249.4</ele>
        <time>2025-09-08T10:20:17Z</time>
      </trkpt>
      <trkpt lat="48.08708" lon="7.27398">
        <ele>249.4</ele>
        <time>2025-09-08T10:20:18Z</time>
      </trkpt>
      <trkpt lat="48.0871" lon="7.27404">
        <ele>249.4</ele>
        <time>2025-09-08T10:20:19Z</time>
      </trkpt>
      <trkpt lat="48.08713" lon="7.2741">
        <ele>249.4</ele>
        <time>2025-09-08T10:20:20Z</time>
      </trkpt>
      <trkpt lat="48.08715" lon="7.27415">
        <ele>249.6</ele>
        <time>2025-09-08T10:20:21Z</time>
      </trkpt>
      <trkpt lat="48.08717" lon="7.27421">
        <ele>249.6</ele>
        <time>2025-09-08T10:20:22Z</time>
      </trkpt>
      <trkpt lat="48.08719" lon="7.27426">
        <ele>249.6</ele>
        <time>2025-09-08T10:20:23Z</time>
      </trkpt>
      <trkpt lat="48.08721" lon="7.27431">
        <ele>249.4</ele>
        <time>2025-09-08T10:20:24Z</time>
      </trkpt>
      <trkpt lat="48.08723" lon="7.27437">
        <ele>249.4</ele>
        <time>2025-09-08T10:20:25Z</time>
      </trkpt>
      <trkpt lat="48.08724" lon="7.27443">
        <ele>249.2</ele>
        <time>2025-09-08T10:20:26Z</time>
      </trkpt>
      <trkpt lat="48.08726" lon="7.27448">
        <ele>249.2</ele>
        <time>2025-09-08T10:20:27Z</time>
      </trkpt>
      <trkpt lat="48.08727" lon="7.27454">
        <ele>249</ele>
        <time>2025-09-08T10:20:28Z</time>
      </trkpt>
      <trkpt lat="48.08728" lon="7.27459">
        <ele>249</ele>
        <time>2025-09-08T10:20:29Z</time>
      </trkpt>
      <trkpt lat="48.08729" lon="7.27464">
        <ele>249</ele>
        <time>2025-09-08T10:20:30Z</time>
      </trkpt>
      <trkpt lat="48.08731" lon="7.27469">
        <ele>249</ele>
        <time>2025-09-08T10:20:31Z</time>
      </trkpt>
      <trkpt lat="48.08732" lon="7.27474">
        <ele>249</ele>
        <time>2025-09-08T10:20:32Z</time>
      </trkpt>
      <trkpt lat="48.08735" lon="7.27478">
        <ele>249</ele>
        <time>2025-09-08T10:20:33Z</time>
      </trkpt>
      <trkpt lat="48.08737" lon="7.27482">
        <ele>249</ele>
        <time>2025-09-08T10:20:34Z</time>
      </trkpt>
      <trkpt lat="48.08739" lon="7.27486">
        <ele>249.2</ele>
        <time>2025-09-08T10:20:35Z</time>
      </trkpt>
      <trkpt lat="48.08741" lon="7.27491">
        <ele>249.2</ele>
        <time>2025-09-08T10:20:36Z</time>
      </trkpt>
      <trkpt lat="48.08744" lon="7.27495">
        <ele>249.2</ele>
        <time>2025-09-08T10:20:37Z</time>
      </trkpt>
      <trkpt lat="48.08746" lon="7.275">
        <ele>249.2</ele>
        <time>2025-09-08T10:20:38Z</time>
      </trkpt>
      <trkpt lat="48.08749" lon="7.27505">
        <ele>249.2</ele>
        <time>2025-09-08T10:20:39Z</time>
      </trkpt>
      <trkpt lat="48.08751" lon="7.2751">
        <ele>249.2</ele>
        <time>2025-09-08T10:20:40Z</time>
      </trkpt>
      <trkpt lat="48.08753" lon="7.27515">
        <ele>249.2</ele>
        <time>2025-09-08T10:20:41Z</time>
      </trkpt>
      <trkpt lat="48.08755" lon="7.2752">
        <ele>249</ele>
        <time>2025-09-08T10:20:42Z</time>
      </trkpt>
      <trkpt lat="48.08756" lon="7.27526">
        <ele>249</ele>
        <time>2025-09-08T10:20:43Z</time>
      </trkpt>
      <trkpt lat="48.08758" lon="7.27531">
        <ele>249</ele>
        <time>2025-09-08T10:20:44Z</time>
      </trkpt>
      <trkpt lat="48.08759" lon="7.27536">
        <ele>249</ele>
        <time>2025-09-08T10:20:45Z</time>
      </trkpt>
      <trkpt lat="48.08761" lon="7.27541">
        <ele>248.8</ele>
        <time>2025-09-08T10:20:46Z</time>
      </trkpt>
      <trkpt lat="48.08763" lon="7.27546">
        <ele>248.8</ele>
        <time>2025-09-08T10:20:47Z</time>
      </trkpt>
      <trkpt lat="48.08765" lon="7.27551">
        <ele>248.8</ele>
        <time>2025-09-08T10:20:48Z</time>
      </trkpt>
      <trkpt lat="48.08767" lon="7.27555">
        <ele>248.8</ele>
        <time>2025-09-08T10:20:49Z</time>
      </trkpt>
      <trkpt lat="48.08769" lon="7.27559">
        <ele>248.8</ele>
        <time>2025-09-08T10:20:50Z</time>
      </trkpt>
      <trkpt lat="48.08772" lon="7.27564">
        <ele>248.6</ele>
        <time>2025-09-08T10:20:51Z</time>
      </trkpt>
      <trkpt lat="48.08775" lon="7.27568">
        <ele>248.6</ele>
        <time>2025-09-08T10:20:52Z</time>
      </trkpt>
      <trkpt lat="48.08779" lon="7.27571">
        <ele>248.6</ele>
        <time>2025-09-08T10:20:53Z</time>
      </trkpt>
      <trkpt lat="48.08782" lon="7.27574">
        <ele>248.6</ele>
        <time>2025-09-08T10:20:54Z</time>
      </trkpt>
      <trkpt lat="48.08786" lon="7.27577">
        <ele>248.6</ele>
        <time>2025-09-08T10:20:55Z</time>
      </trkpt>
      <trkpt lat="48.0879" lon="7.2758">
        <ele>248.6</ele>
        <time>2025-09-08T10:20:56Z</time>
      </trkpt>
      <trkpt lat="48.08793" lon="7.27582">
        <ele>248.6</ele>
        <time>2025-09-08T10:20:57Z</time>
      </trkpt>
      <trkpt lat="48.08796" lon="7.27584">
        <ele>248.6</ele>
        <time>2025-09-08T10:20:58Z</time>
      </trkpt>
      <trkpt lat="48.088" lon="7.27587">
        <ele>248.6</ele>
        <time>2025-09-08T10:20:59Z</time>
      </trkpt>
      <trkpt lat="48.08803" lon="7.27589">
        <ele>248.6</ele>
        <time>2025-09-08T10:21:00Z</time>
      </trkpt>
      <trkpt lat="48.08807" lon="7.27591">
        <ele>248.6</ele>
        <time>2025-09-08T10:21:01Z</time>
      </trkpt>
      <trkpt lat="48.0881" lon="7.27593">
        <ele>248.6</ele>
        <time>2025-09-08T10:21:02Z</time>
      </trkpt>
      <trkpt lat="48.08813" lon="7.27596">
        <ele>248.6</ele>
        <time>2025-09-08T10:21:03Z</time>
      </trkpt>
      <trkpt lat="48.08816" lon="7.27598">
        <ele>248.8</ele>
        <time>2025-09-08T10:21:04Z</time>
      </trkpt>
      <trkpt lat="48.0882" lon="7.27601">
        <ele>248.8</ele>
        <time>2025-09-08T10:21:05Z</time>
      </trkpt>
      <trkpt lat="48.08823" lon="7.27605">
        <ele>248.8</ele>
        <time>2025-09-08T10:21:06Z</time>
      </trkpt>
      <trkpt lat="48.08826" lon="7.27609">
        <ele>248.8</ele>
        <time>2025-09-08T10:21:07Z</time>
      </trkpt>
      <trkpt lat="48.0883" lon="7.27613">
        <ele>248.8</ele>
        <time>2025-09-08T10:21:08Z</time>
      </trkpt>
      <trkpt lat="48.08833" lon="7.27618">
        <ele>248.8</ele>
        <time>2025-09-08T10:21:09Z</time>
      </trkpt>
      <trkpt lat="48.08836" lon="7.27622">
        <ele>249</ele>
        <time>2025-09-08T10:21:10Z</time>
      </trkpt>
      <trkpt lat="48.08839" lon="7.27626">
        <ele>249</ele>
        <time>2025-09-08T10:21:11Z</time>
      </trkpt>
      <trkpt lat="48.08842" lon="7.27631">
        <ele>249</ele>
        <time>2025-09-08T10:21:12Z</time>
      </trkpt>
      <trkpt lat="48.08845" lon="7.27635">
        <ele>249</ele>
        <time>2025-09-08T10:21:13Z</time>
      </trkpt>
      <trkpt lat="48.08848" lon="7.2764">
        <ele>249</ele>
        <time>2025-09-08T10:21:14Z</time>
      </trkpt>
      <trkpt lat="48.08851" lon="7.27644">
        <ele>249</ele>
        <time>2025-09-08T10:21:15Z</time>
      </trkpt>
      <trkpt lat="48.08853" lon="7.27649">
        <ele>249</ele>
        <time>2025-09-08T10:21:16Z</time>
      </trkpt>
      <trkpt lat="48.08855" lon="7.27654">
        <ele>249</ele>
        <time>2025-09-08T10:21:17Z</time>
      </trkpt>
      <trkpt lat="48.08858" lon="7.27659">
        <ele>249</ele>
        <time>2025-09-08T10:21:18Z</time>
      </trkpt>
      <trkpt lat="48.0886" lon="7.27665">
        <ele>249</ele>
        <time>2025-09-08T10:21:19Z</time>
      </trkpt>
      <trkpt lat="48.08862" lon="7.27669">
        <ele>249</ele>
        <time>2025-09-08T10:21:20Z</time>
      </trkpt>
      <trkpt lat="48.08865" lon="7.27673">
        <ele>249</ele>
        <time>2025-09-08T10:21:21Z</time>
      </trkpt>
      <trkpt lat="48.08868" lon="7.27677">
        <ele>249</ele>
        <time>2025-09-08T10:21:22Z</time>
      </trkpt>
      <trkpt lat="48.08871" lon="7.27681">
        <ele>249</ele>
        <time>2025-09-08T10:21:23Z</time>
      </trkpt>
      <trkpt lat="48.08875" lon="7.27686">
        <ele>249</ele>
        <time>2025-09-08T10:21:24Z</time>
      </trkpt>
      <trkpt lat="48.08877" lon="7.27691">
        <ele>249</ele>
        <time>2025-09-08T10:21:25Z</time>
      </trkpt>
      <trkpt lat="48.0888" lon="7.27696">
        <ele>249</ele>
        <time>2025-09-08T10:21:26Z</time>
      </trkpt>
      <trkpt lat="48.08883" lon="7.27701">
        <ele>249</ele>
        <time>2025-09-08T10:21:27Z</time>
      </trkpt>
      <trkpt lat="48.08885" lon="7.27706">
        <ele>248.8</ele>
        <time>2025-09-08T10:21:28Z</time>
      </trkpt>
      <trkpt lat="48.08887" lon="7.27711">
        <ele>248.8</ele>
        <time>2025-09-08T10:21:29Z</time>
      </trkpt>
      <trkpt lat="48.08889" lon="7.27717">
        <ele>249</ele>
        <time>2025-09-08T10:21:30Z</time>
      </trkpt>
      <trkpt lat="48.08892" lon="7.27723">
        <ele>249</ele>
        <time>2025-09-08T10:21:31Z</time>
      </trkpt>
      <trkpt lat="48.08894" lon="7.27728">
        <ele>249</ele>
        <time>2025-09-08T10:21:32Z</time>
      </trkpt>
      <trkpt lat="48.08896" lon="7.27733">
        <ele>249</ele>
        <time>2025-09-08T10:21:33Z</time>
      </trkpt>
      <trkpt lat="48.08898" lon="7.27739">
        <ele>249</ele>
        <time>2025-09-08T10:21:34Z</time>
      </trkpt>
      <trkpt lat="48.089" lon="7.27745">
        <ele>249</ele>
        <time>2025-09-08T10:21:35Z</time>
      </trkpt>
      <trkpt lat="48.08901" lon="7.2775">
        <ele>249</ele>
        <time>2025-09-08T10:21:36Z</time>
      </trkpt>
      <trkpt lat="48.08903" lon="7.27756">
        <ele>249</ele>
        <time>2025-09-08T10:21:37Z</time>
      </trkpt>
      <trkpt lat="48.08905" lon="7.27761">
        <ele>249.2</ele>
        <time>2025-09-08T10:21:38Z</time>
      </trkpt>
      <trkpt lat="48.08907" lon="7.27767">
        <ele>249.4</ele>
        <time>2025-09-08T10:21:39Z</time>
      </trkpt>
      <trkpt lat="48.08909" lon="7.27773">
        <ele>249.4</ele>
        <time>2025-09-08T10:21:40Z</time>
      </trkpt>
      <trkpt lat="48.0891" lon="7.27777">
        <ele>249.6</ele>
        <time>2025-09-08T10:21:41Z</time>
      </trkpt>
      <trkpt lat="48.0891" lon="7.27783">
        <ele>249.6</ele>
        <time>2025-09-08T10:21:42Z</time>
      </trkpt>
      <trkpt lat="48.08911" lon="7.27788">
        <ele>249.8</ele>
        <time>2025-09-08T10:21:43Z</time>
      </trkpt>
      <trkpt lat="48.08912" lon="7.27793">
        <ele>250</ele>
        <time>2025-09-08T10:21:44Z</time>
      </trkpt>
      <trkpt lat="48.08913" lon="7.27799">
        <ele>250</ele>
        <time>2025-09-08T10:21:45Z</time>
      </trkpt>
      <trkpt lat="48.08914" lon="7.27804">
        <ele>250</ele>
        <time>2025-09-08T10:21:46Z</time>
      </trkpt>
      <trkpt lat="48.08915" lon="7.27809">
        <ele>250</ele>
        <time>2025-09-08T10:21:47Z</time>
      </trkpt>
      <trkpt lat="48.08916" lon="7.27814">
        <ele>250.2</ele>
        <time>2025-09-08T10:21:48Z</time>
      </trkpt>
      <trkpt lat="48.08916" lon="7.27819">
        <ele>250.2</ele>
        <time>2025-09-08T10:21:49Z</time>
      </trkpt>
      <trkpt lat="48.08917" lon="7.27823">
        <ele>250.4</ele>
        <time>2025-09-08T10:21:50Z</time>
      </trkpt>
      <trkpt lat="48.08918" lon="7.27827">
        <ele>250.4</ele>
        <time>2025-09-08T10:21:51Z</time>
      </trkpt>
      <trkpt lat="48.08918" lon="7.27831">
        <ele>250.4</ele>
        <time>2025-09-08T10:21:52Z</time>
      </trkpt>
      <trkpt lat="48.08917" lon="7.27832">
        <ele>250.4</ele>
        <time>2025-09-08T10:21:53Z</time>
      </trkpt>
      <trkpt lat="48.08915" lon="7.27833">
        <ele>250.6</ele>
        <time>2025-09-08T10:21:54Z</time>
      </trkpt>
      <trkpt lat="48.08912" lon="7.27835">
        <ele>250.6</ele>
        <time>2025-09-08T10:21:55Z</time>
      </trkpt>
      <trkpt lat="48.08908" lon="7.27838">
        <ele>250.6</ele>
        <time>2025-09-08T10:21:56Z</time>
      </trkpt>
      <trkpt lat="48.08903" lon="7.2784">
        <ele>250.6</ele>
        <time>2025-09-08T10:21:57Z</time>
      </trkpt>
      <trkpt lat="48.08899" lon="7.27844">
        <ele>250.6</ele>
        <time>2025-09-08T10:21:58Z</time>
      </trkpt>
      <trkpt lat="48.08893" lon="7.27846">
        <ele>250.2</ele>
        <time>2025-09-08T10:21:59Z</time>
      </trkpt>
      <trkpt lat="48.08888" lon="7.2785">
        <ele>249.6</ele>
        <time>2025-09-08T10:22:00Z</time>
      </trkpt>
      <trkpt lat="48.08882" lon="7.27853">
        <ele>249.4</ele>
        <time>2025-09-08T10:22:01Z</time>
      </trkpt>
      <trkpt lat="48.08875" lon="7.27856">
        <ele>249</ele>
        <time>2025-09-08T10:22:02Z</time>
      </trkpt>
      <trkpt lat="48.0887" lon="7.27858">
        <ele>248.4</ele>
        <time>2025-09-08T10:22:03Z</time>
      </trkpt>
      <trkpt lat="48.08864" lon="7.27859">
        <ele>248</ele>
        <time>2025-09-08T10:22:04Z</time>
      </trkpt>
      <trkpt lat="48.08858" lon="7.27861">
        <ele>247.6</ele>
        <time>2025-09-08T10:22:05Z</time>
      </trkpt>
      <trkpt lat="48.08853" lon="7.27864">
        <ele>247.4</ele>
        <time>2025-09-08T10:22:06Z</time>
      </trkpt>
      <trkpt lat="48.08849" lon="7.2787">
        <ele>247.2</ele>
        <time>2025-09-08T10:22:07Z</time>
      </trkpt>
      <trkpt lat="48.08845" lon="7.27875">
        <ele>247</ele>
        <time>2025-09-08T10:22:08Z</time>
      </trkpt>
      <trkpt lat="48.08842" lon="7.27881">
        <ele>247</ele>
        <time>2025-09-08T10:22:09Z</time>
      </trkpt>
      <trkpt lat="48.08838" lon="7.27886">
        <ele>247</ele>
        <time>2025-09-08T10:22:10Z</time>
      </trkpt>
      <trkpt lat="48.08834" lon="7.27892">
        <ele>247</ele>
        <time>2025-09-08T10:22:11Z</time>
      </trkpt>
      <trkpt lat="48.0883" lon="7.27896">
        <ele>246.8</ele>
        <time>2025-09-08T10:22:12Z</time>
      </trkpt>
      <trkpt lat="48.08826" lon="7.27898">
        <ele>246.8</ele>
        <time>2025-09-08T10:22:13Z</time>
      </trkpt>
      <trkpt lat="48.08821" lon="7.27899">
        <ele>246.8</ele>
        <time>2025-09-08T10:22:14Z</time>
      </trkpt>
      <trkpt lat="48.08816" lon="7.279">
        <ele>246.8</ele>
        <time>2025-09-08T10:22:15Z</time>
      </trkpt>
      <trkpt lat="48.08811" lon="7.27901">
        <ele>246.6</ele>
        <time>2025-09-08T10:22:16Z</time>
      </trkpt>
      <trkpt lat="48.08806" lon="7.27902">
        <ele>246.6</ele>
        <time>2025-09-08T10:22:17Z</time>
      </trkpt>
      <trkpt lat="48.08801" lon="7.27903">
        <ele>246.4</ele>
        <time>2025-09-08T10:22:18Z</time>
      </trkpt>
      <trkpt lat="48.08796" lon="7.27904">
        <ele>246.2</ele>
        <time>2025-09-08T10:22:19Z</time>
      </trkpt>
      <trkpt lat="48.08792" lon="7.27905">
        <ele>246</ele>
        <time>2025-09-08T10:22:20Z</time>
      </trkpt>
      <trkpt lat="48.08787" lon="7.27906">
        <ele>245.8</ele>
        <time>2025-09-08T10:22:21Z</time>
      </trkpt>
      <trkpt lat="48.08783" lon="7.27907">
        <ele>245.6</ele>
        <time>2025-09-08T10:22:22Z</time>
      </trkpt>
      <trkpt lat="48.0878" lon="7.27909">
        <ele>245.6</ele>
        <time>2025-09-08T10:22:23Z</time>
      </trkpt>
      <trkpt lat="48.08776" lon="7.2791">
        <ele>245.6</ele>
        <time>2025-09-08T10:22:24Z</time>
      </trkpt>
      <trkpt lat="48.08772" lon="7.27913">
        <ele>245.4</ele>
        <time>2025-09-08T10:22:25Z</time>
      </trkpt>
      <trkpt lat="48.08768" lon="7.27916">
        <ele>245.4</ele>
        <time>2025-09-08T10:22:26Z</time>
      </trkpt>
      <trkpt lat="48.08764" lon="7.27918">
        <ele>245.4</ele>
        <time>2025-09-08T10:22:27Z</time>
      </trkpt>
      <trkpt lat="48.0876" lon="7.27919">
        <ele>245.4</ele>
        <time>2025-09-08T10:22:28Z</time>
      </trkpt>
      <trkpt lat="48.08755" lon="7.27919">
        <ele>245.4</ele>
        <time>2025-09-08T10:22:29Z</time>
      </trkpt>
      <trkpt lat="48.0875" lon="7.2792">
        <ele>245.4</ele>
        <time>2025-09-08T10:22:30Z</time>
      </trkpt>
      <trkpt lat="48.08746" lon="7.2792">
        <ele>245.4</ele>
        <time>2025-09-08T10:22:31Z</time>
      </trkpt>
      <trkpt lat="48.08741" lon="7.27921">
        <ele>245.4</ele>
        <time>2025-09-08T10:22:32Z</time>
      </trkpt>
      <trkpt lat="48.08736" lon="7.27922">
        <ele>245.4</ele>
        <time>2025-09-08T10:22:33Z</time>
      </trkpt>
      <trkpt lat="48.08732" lon="7.27924">
        <ele>245.4</ele>
        <time>2025-09-08T10:22:34Z</time>
      </trkpt>
      <trkpt lat="48.08728" lon="7.27925">
        <ele>245.2</ele>
        <time>2025-09-08T10:22:35Z</time>
      </trkpt>
      <trkpt lat="48.08724" lon="7.27927">
        <ele>245.2</ele>
        <time>2025-09-08T10:22:36Z</time>
      </trkpt>
      <trkpt lat="48.08719" lon="7.27928">
        <ele>245.2</ele>
        <time>2025-09-08T10:22:37Z</time>
      </trkpt>
      <trkpt lat="48.08715" lon="7.27928">
        <ele>245</ele>
        <time>2025-09-08T10:22:38Z</time>
      </trkpt>
      <trkpt lat="48.08712" lon="7.27926">
        <ele>245</ele>
        <time>2025-09-08T10:22:39Z</time>
      </trkpt>
      <trkpt lat="48.08709" lon="7.27923">
        <ele>245</ele>
        <time>2025-09-08T10:22:40Z</time>
      </trkpt>
      <trkpt lat="48.08707" lon="7.27918">
        <ele>245</ele>
        <time>2025-09-08T10:22:41Z</time>
      </trkpt>
      <trkpt lat="48.08706" lon="7.27914">
        <ele>245.2</ele>
        <time>2025-09-08T10:22:42Z</time>
      </trkpt>
      <trkpt lat="48.08704" lon="7.2791">
        <ele>245.4</ele>
        <time>2025-09-08T10:22:43Z</time>
      </trkpt>
      <trkpt lat="48.08702" lon="7.27906">
        <ele>245.6</ele>
        <time>2025-09-08T10:22:44Z</time>
      </trkpt>
      <trkpt lat="48.08701" lon="7.27901">
        <ele>245.6</ele>
        <time>2025-09-08T10:22:45Z</time>
      </trkpt>
      <trkpt lat="48.087" lon="7.27898">
        <ele>245.6</ele>
        <time>2025-09-08T10:22:46Z</time>
      </trkpt>
      <trkpt lat="48.08699" lon="7.27894">
        <ele>245.8</ele>
        <time>2025-09-08T10:22:47Z</time>
      </trkpt>
      <trkpt lat="48.08698" lon="7.27891">
        <ele>245.8</ele>
        <time>2025-09-08T10:22:48Z</time>
      </trkpt>
      <trkpt lat="48.08697" lon="7.27887">
        <ele>245.8</ele>
        <time>2025-09-08T10:22:49Z</time>
      </trkpt>
      <trkpt lat="48.08696" lon="7.27883">
        <ele>246</ele>
        <time>2025-09-08T10:22:50Z</time>
      </trkpt>
      <trkpt lat="48.08695" lon="7.2788">
        <ele>246</ele>
        <time>2025-09-08T10:22:51Z</time>
      </trkpt>
      <trkpt lat="48.08695" lon="7.27876">
        <ele>246</ele>
        <time>2025-09-08T10:22:52Z</time>
      </trkpt>
      <trkpt lat="48.08694" lon="7.27872">
        <ele>246.2</ele>
        <time>2025-09-08T10:22:53Z</time>
      </trkpt>
      <trkpt lat="48.08693" lon="7.27867">
        <ele>246.2</ele>
        <time>2025-09-08T10:22:54Z</time>
      </trkpt>
      <trkpt lat="48.08691" lon="7.27863">
        <ele>246.2</ele>
        <time>2025-09-08T10:22:55Z</time>
      </trkpt>
      <trkpt lat="48.08691" lon="7.2786">
        <ele>246.2</ele>
        <time>2025-09-08T10:22:56Z</time>
      </trkpt>
      <trkpt lat="48.08693" lon="7.27856">
        <ele>246.2</ele>
        <time>2025-09-08T10:22:57Z</time>
      </trkpt>
      <trkpt lat="48.08695" lon="7.27853">
        <ele>246.2</ele>
        <time>2025-09-08T10:22:58Z</time>
      </trkpt>
      <trkpt lat="48.08697" lon="7.27852">
        <ele>246.2</ele>
        <time>2025-09-08T10:22:59Z</time>
      </trkpt>
      <trkpt lat="48.087" lon="7.27851">
        <ele>246.2</ele>
        <time>2025-09-08T10:23:00Z</time>
      </trkpt>
      <trkpt lat="48.08702" lon="7.27849">
        <ele>246.2</ele>
        <time>2025-09-08T10:23:01Z</time>
      </trkpt>
      <trkpt lat="48.08704" lon="7.27848">
        <ele>246.2</ele>
        <time>2025-09-08T10:23:02Z</time>
      </trkpt>
      <trkpt lat="48.08707" lon="7.27846">
        <ele>246.2</ele>
        <time>2025-09-08T10:23:03Z</time>
      </trkpt>
      <trkpt lat="48.0871" lon="7.27844">
        <ele>246.2</ele>
        <time>2025-09-08T10:23:04Z</time>
      </trkpt>
      <trkpt lat="48.08714" lon="7.27841">
        <ele>246.2</ele>
        <time>2025-09-08T10:23:05Z</time>
      </trkpt>
      <trkpt lat="48.08718" lon="7.27839">
        <ele>246.2</ele>
        <time>2025-09-08T10:23:06Z</time>
      </trkpt>
      <trkpt lat="48.08721" lon="7.27837">
        <ele>246.2</ele>
        <time>2025-09-08T10:23:07Z</time>
      </trkpt>
      <trkpt lat="48.08724" lon="7.27835">
        <ele>246.2</ele>
        <time>2025-09-08T10:23:08Z</time>
      </trkpt>
      <trkpt lat="48.08726" lon="7.27834">
        <ele>246.2</ele>
        <time>2025-09-08T10:23:09Z</time>
      </trkpt>
      <trkpt lat="48.08728" lon="7.27832">
        <ele>246.2</ele>
        <time>2025-09-08T10:23:10Z</time>
      </trkpt>
      <trkpt lat="48.0873" lon="7.2783">
        <ele>246.2</ele>
        <time>2025-09-08T10:23:11Z</time>
      </trkpt>
      <trkpt lat="48.08732" lon="7.27828">
        <ele>246.2</ele>
        <time>2025-09-08T10:23:12Z</time>
      </trkpt>
      <trkpt lat="48.08733" lon="7.27824">
        <ele>246.2</ele>
        <time>2025-09-08T10:23:13Z</time>
      </trkpt>
      <trkpt lat="48.08733" lon="7.27821">
        <ele>246.2</ele>
        <time>2025-09-08T10:23:14Z</time>
      </trkpt>
      <trkpt lat="48.08732" lon="7.27817">
        <ele>246.2</ele>
        <time>2025-09-08T10:23:15Z</time>
      </trkpt>
      <trkpt lat="48.08731" lon="7.27814">
        <ele>246.2</ele>
        <time>2025-09-08T10:23:16Z</time>
      </trkpt>
      <trkpt lat="48.08729" lon="7.27811">
        <ele>246.2</ele>
        <time>2025-09-08T10:23:17Z</time>
      </trkpt>
      <trkpt lat="48.08728" lon="7.27809">
        <ele>246.2</ele>
        <time>2025-09-08T10:23:18Z</time>
      </trkpt>
      <trkpt lat="48.08726" lon="7.27806">
        <ele>246.2</ele>
        <time>2025-09-08T10:23:19Z</time>
      </trkpt>
      <trkpt lat="48.08724" lon="7.27805">
        <ele>246.2</ele>
        <time>2025-09-08T10:23:20Z</time>
      </trkpt>
      <trkpt lat="48.08722" lon="7.27804">
        <ele>246.2</ele>
        <time>2025-09-08T10:23:21Z</time>
      </trkpt>
      <trkpt lat="48.0872" lon="7.27804">
        <ele>246.2</ele>
        <time>2025-09-08T10:23:22Z</time>
      </trkpt>
      <trkpt lat="48.08717" lon="7.27804">
        <ele>246.2</ele>
        <time>2025-09-08T10:23:23Z</time>
      </trkpt>
      <trkpt lat="48.08715" lon="7.27804">
        <ele>246.2</ele>
        <time>2025-09-08T10:23:24Z</time>
      </trkpt>
      <trkpt lat="48.08713" lon="7.27805">
        <ele>246.2</ele>
        <time>2025-09-08T10:23:25Z</time>
      </trkpt>
      <trkpt lat="48.0871" lon="7.27805">
        <ele>246.2</ele>
        <time>2025-09-08T10:23:26Z</time>
      </trkpt>
      <trkpt lat="48.08707" lon="7.27806">
        <ele>246.2</ele>
        <time>2025-09-08T10:23:27Z</time>
      </trkpt>
      <trkpt lat="48.08705" lon="7.27806">
        <ele>246.2</ele>
        <time>2025-09-08T10:23:28Z</time>
      </trkpt>
      <trkpt lat="48.08702" lon="7.27805">
        <ele>246.2</ele>
        <time>2025-09-08T10:23:29Z</time>
      </trkpt>
      <trkpt lat="48.087" lon="7.27805">
        <ele>246.4</ele>
        <time>2025-09-08T10:23:30Z</time>
      </trkpt>
      <trkpt lat="48.08698" lon="7.27806">
        <ele>246.4</ele>
        <time>2025-09-08T10:23:31Z</time>
      </trkpt>
      <trkpt lat="48.08696" lon="7.27806">
        <ele>246.4</ele>
        <time>2025-09-08T10:23:32Z</time>
      </trkpt>
      <trkpt lat="48.08693" lon="7.27807">
        <ele>246.4</ele>
        <time>2025-09-08T10:23:33Z</time>
      </trkpt>
      <trkpt lat="48.08691" lon="7.27806">
        <ele>246.4</ele>
        <time>2025-09-08T10:23:34Z</time>
      </trkpt>
      <trkpt lat="48.08689" lon="7.27805">
        <ele>246.4</ele>
        <time>2025-09-08T10:23:35Z</time>
      </trkpt>
      <trkpt lat="48.08687" lon="7.27805">
        <ele>246.6</ele>
        <time>2025-09-08T10:23:36Z</time>
      </trkpt>
      <trkpt lat="48.08686" lon="7.27804">
        <ele>246.6</ele>
        <time>2025-09-08T10:23:37Z</time>
      </trkpt>
      <trkpt lat="48.08685" lon="7.27802">
        <ele>246.6</ele>
        <time>2025-09-08T10:23:38Z</time>
      </trkpt>
      <trkpt lat="48.08684" lon="7.278">
        <ele>246.6</ele>
        <time>2025-09-08T10:23:39Z</time>
      </trkpt>
      <trkpt lat="48.08683" lon="7.27797">
        <ele>246.6</ele>
        <time>2025-09-08T10:23:40Z</time>
      </trkpt>
      <trkpt lat="48.08683" lon="7.27796">
        <ele>246.6</ele>
        <time>2025-09-08T10:23:41Z</time>
      </trkpt>
      <trkpt lat="48.08683" lon="7.27796">
        <ele>246.6</ele>
        <time>2025-09-08T10:23:42Z</time>
      </trkpt>
      <trkpt lat="48.08683" lon="7.27795">
        <ele>246.6</ele>
        <time>2025-09-08T10:23:43Z</time>
      </trkpt>
      <trkpt lat="48.08682" lon="7.2779">
        <ele>246.2</ele>
        <time>2025-09-08T10:24:07Z</time>
      </trkpt>
      <trkpt lat="48.08683" lon="7.27789">
        <ele>246.2</ele>
        <time>2025-09-08T10:24:08Z</time>
      </trkpt>
      <trkpt lat="48.08682" lon="7.27786">
        <ele>246.2</ele>
        <time>2025-09-08T10:24:09Z</time>
      </trkpt>
      <trkpt lat="48.08682" lon="7.27784">
        <ele>246</ele>
        <time>2025-09-08T10:24:10Z</time>
      </trkpt>
      <trkpt lat="48.08682" lon="7.27781">
        <ele>246</ele>
        <time>2025-09-08T10:24:11Z</time>
      </trkpt>
      <trkpt lat="48.08681" lon="7.27779">
        <ele>245.8</ele>
        <time>2025-09-08T10:24:12Z</time>
      </trkpt>
      <trkpt lat="48.08681" lon="7.27775">
        <ele>245.8</ele>
        <time>2025-09-08T10:24:13Z</time>
      </trkpt>
      <trkpt lat="48.0868" lon="7.2777">
        <ele>245.8</ele>
        <time>2025-09-08T10:24:14Z</time>
      </trkpt>
      <trkpt lat="48.0868" lon="7.27766">
        <ele>245.8</ele>
        <time>2025-09-08T10:24:15Z</time>
      </trkpt>
      <trkpt lat="48.08679" lon="7.27762">
        <ele>245.6</ele>
        <time>2025-09-08T10:24:16Z</time>
      </trkpt>
      <trkpt lat="48.08679" lon="7.27758">
        <ele>245.6</ele>
        <time>2025-09-08T10:24:17Z</time>
      </trkpt>
      <trkpt lat="48.08678" lon="7.27754">
        <ele>245.6</ele>
        <time>2025-09-08T10:24:18Z</time>
      </trkpt>
      <trkpt lat="48.08678" lon="7.27751">
        <ele>245.6</ele>
        <time>2025-09-08T10:24:19Z</time>
      </trkpt>
      <trkpt lat="48.08677" lon="7.27748">
        <ele>245.6</ele>
        <time>2025-09-08T10:24:20Z</time>
      </trkpt>
      <trkpt lat="48.08677" lon="7.27745">
        <ele>245.6</ele>
        <time>2025-09-08T10:24:21Z</time>
      </trkpt>
      <trkpt lat="48.08676" lon="7.27741">
        <ele>245.6</ele>
        <time>2025-09-08T10:24:22Z</time>
      </trkpt>
      <trkpt lat="48.08675" lon="7.27738">
        <ele>245.8</ele>
        <time>2025-09-08T10:24:23Z</time>
      </trkpt>
      <trkpt lat="48.08675" lon="7.27735">
        <ele>245.8</ele>
        <time>2025-09-08T10:24:24Z</time>
      </trkpt>
      <trkpt lat="48.08675" lon="7.27731">
        <ele>245.8</ele>
        <time>2025-09-08T10:24:25Z</time>
      </trkpt>
      <trkpt lat="48.08674" lon="7.27728">
        <ele>246</ele>
        <time>2025-09-08T10:24:26Z</time>
      </trkpt>
      <trkpt lat="48.08673" lon="7.27725">
        <ele>246</ele>
        <time>2025-09-08T10:24:27Z</time>
      </trkpt>
      <trkpt lat="48.08673" lon="7.27721">
        <ele>246.2</ele>
        <time>2025-09-08T10:24:28Z</time>
      </trkpt>
      <trkpt lat="48.08672" lon="7.27718">
        <ele>246.2</ele>
        <time>2025-09-08T10:24:29Z</time>
      </trkpt>
      <trkpt lat="48.08672" lon="7.27716">
        <ele>246.2</ele>
        <time>2025-09-08T10:24:30Z</time>
      </trkpt>
      <trkpt lat="48.08671" lon="7.27714">
        <ele>246.2</ele>
        <time>2025-09-08T10:24:31Z</time>
      </trkpt>
      <trkpt lat="48.08671" lon="7.27712">
        <ele>246.2</ele>
        <time>2025-09-08T10:24:32Z</time>
      </trkpt>
      <trkpt lat="48.08671" lon="7.27709">
        <ele>246.4</ele>
        <time>2025-09-08T10:24:33Z</time>
      </trkpt>
      <trkpt lat="48.0867" lon="7.27707">
        <ele>246.4</ele>
        <time>2025-09-08T10:24:34Z</time>
      </trkpt>
      <trkpt lat="48.0867" lon="7.27706">
        <ele>246.4</ele>
        <time>2025-09-08T10:24:35Z</time>
      </trkpt>
      <trkpt lat="48.0867" lon="7.27706">
        <ele>246.4</ele>
        <time>2025-09-08T10:24:36Z</time>
      </trkpt>
      <trkpt lat="48.0867" lon="7.27706">
        <ele>246.4</ele>
        <time>2025-09-08T10:24:37Z</time>
      </trkpt>
      <trkpt lat="48.08669" lon="7.27701">
        <ele>246.6</ele>
        <time>2025-09-08T10:24:43Z</time>
      </trkpt>
      <trkpt lat="48.08669" lon="7.27699">
        <ele>246.6</ele>
        <time>2025-09-08T10:24:44Z</time>
      </trkpt>
      <trkpt lat="48.08669" lon="7.27696">
        <ele>246.6</ele>
        <time>2025-09-08T10:24:45Z</time>
      </trkpt>
      <trkpt lat="48.08669" lon="7.27696">
        <ele>246.6</ele>
        <time>2025-09-08T10:24:46Z</time>
      </trkpt>
      <trkpt lat="48.08669" lon="7.27693">
        <ele>246.6</ele>
        <time>2025-09-08T10:24:47Z</time>
      </trkpt>
      <trkpt lat="48.08669" lon="7.27691">
        <ele>246.6</ele>
        <time>2025-09-08T10:24:48Z</time>
      </trkpt>
      <trkpt lat="48.08669" lon="7.27691">
        <ele>246.6</ele>
        <time>2025-09-08T10:24:49Z</time>
      </trkpt>
      <trkpt lat="48.08668" lon="7.27689">
        <ele>246.6</ele>
        <time>2025-09-08T10:24:50Z</time>
      </trkpt>
      <trkpt lat="48.08666" lon="7.27678">
        <ele>246.2</ele>
        <time>2025-09-08T10:57:32Z</time>
      </trkpt>
      <trkpt lat="48.08666" lon="7.27675">
        <ele>246.2</ele>
        <time>2025-09-08T10:57:33Z</time>
      </trkpt>
      <trkpt lat="48.08665" lon="7.27672">
        <ele>246.2</ele>
        <time>2025-09-08T10:57:34Z</time>
      </trkpt>
      <trkpt lat="48.08665" lon="7.27669">
        <ele>246.2</ele>
        <time>2025-09-08T10:57:35Z</time>
      </trkpt>
      <trkpt lat="48.08665" lon="7.27666">
        <ele>246.2</ele>
        <time>2025-09-08T10:57:36Z</time>
      </trkpt>
      <trkpt lat="48.08665" lon="7.27663">
        <ele>246.2</ele>
        <time>2025-09-08T10:57:37Z</time>
      </trkpt>
      <trkpt lat="48.08665" lon="7.27661">
        <ele>246.2</ele>
        <time>2025-09-08T10:57:38Z</time>
      </trkpt>
      <trkpt lat="48.08665" lon="7.27659">
        <ele>246.2</ele>
        <time>2025-09-08T10:57:39Z</time>
      </trkpt>
      <trkpt lat="48.08665" lon="7.27655">
        <ele>246.2</ele>
        <time>2025-09-08T10:57:40Z</time>
      </trkpt>
      <trkpt lat="48.08664" lon="7.27651">
        <ele>246.4</ele>
        <time>2025-09-08T10:57:41Z</time>
      </trkpt>
      <trkpt lat="48.08663" lon="7.27648">
        <ele>246.4</ele>
        <time>2025-09-08T10:57:42Z</time>
      </trkpt>
      <trkpt lat="48.08662" lon="7.27645">
        <ele>246.4</ele>
        <time>2025-09-08T10:57:43Z</time>
      </trkpt>
      <trkpt lat="48.08662" lon="7.27642">
        <ele>246.4</ele>
        <time>2025-09-08T10:57:44Z</time>
      </trkpt>
      <trkpt lat="48.08661" lon="7.27639">
        <ele>246.4</ele>
        <time>2025-09-08T10:57:45Z</time>
      </trkpt>
      <trkpt lat="48.0866" lon="7.27636">
        <ele>246.2</ele>
        <time>2025-09-08T10:57:46Z</time>
      </trkpt>
      <trkpt lat="48.08659" lon="7.27633">
        <ele>246.2</ele>
        <time>2025-09-08T10:57:47Z</time>
      </trkpt>
      <trkpt lat="48.08658" lon="7.27629">
        <ele>246.2</ele>
        <time>2025-09-08T10:57:48Z</time>
      </trkpt>
      <trkpt lat="48.08658" lon="7.27625">
        <ele>246.2</ele>
        <time>2025-09-08T10:57:49Z</time>
      </trkpt>
      <trkpt lat="48.08657" lon="7.27621">
        <ele>246.2</ele>
        <time>2025-09-08T10:57:50Z</time>
      </trkpt>
      <trkpt lat="48.08657" lon="7.27618">
        <ele>246.4</ele>
        <time>2025-09-08T10:57:51Z</time>
      </trkpt>
      <trkpt lat="48.08657" lon="7.27615">
        <ele>246.4</ele>
        <time>2025-09-08T10:57:52Z</time>
      </trkpt>
      <trkpt lat="48.08657" lon="7.2761">
        <ele>246.4</ele>
        <time>2025-09-08T10:57:53Z</time>
      </trkpt>
      <trkpt lat="48.08656" lon="7.27606">
        <ele>246.4</ele>
        <time>2025-09-08T10:57:54Z</time>
      </trkpt>
      <trkpt lat="48.08655" lon="7.27602">
        <ele>246.4</ele>
        <time>2025-09-08T10:57:55Z</time>
      </trkpt>
      <trkpt lat="48.08654" lon="7.27598">
        <ele>246.4</ele>
        <time>2025-09-08T10:57:56Z</time>
      </trkpt>
      <trkpt lat="48.08654" lon="7.27594">
        <ele>246.4</ele>
        <time>2025-09-08T10:57:57Z</time>
      </trkpt>
      <trkpt lat="48.08654" lon="7.2759">
        <ele>246.6</ele>
        <time>2025-09-08T10:57:58Z</time>
      </trkpt>
      <trkpt lat="48.08654" lon="7.27586">
        <ele>246.6</ele>
        <time>2025-09-08T10:57:59Z</time>
      </trkpt>
      <trkpt lat="48.08653" lon="7.27582">
        <ele>246.6</ele>
        <time>2025-09-08T10:58:00Z</time>
      </trkpt>
      <trkpt lat="48.08654" lon="7.27578">
        <ele>246.6</ele>
        <time>2025-09-08T10:58:01Z</time>
      </trkpt>
      <trkpt lat="48.08653" lon="7.27567">
        <ele>247</ele>
        <time>2025-09-08T10:58:22Z</time>
      </trkpt>
      <trkpt lat="48.08653" lon="7.27565">
        <ele>247</ele>
        <time>2025-09-08T10:58:23Z</time>
      </trkpt>
      <trkpt lat="48.08653" lon="7.27562">
        <ele>246.6</ele>
        <time>2025-09-08T10:58:24Z</time>
      </trkpt>
      <trkpt lat="48.08653" lon="7.2756">
        <ele>246.6</ele>
        <time>2025-09-08T10:58:25Z</time>
      </trkpt>
      <trkpt lat="48.08653" lon="7.27558">
        <ele>246.6</ele>
        <time>2025-09-08T10:58:26Z</time>
      </trkpt>
      <trkpt lat="48.08652" lon="7.27554">
        <ele>246.6</ele>
        <time>2025-09-08T10:58:27Z</time>
      </trkpt>
      <trkpt lat="48.08651" lon="7.2755">
        <ele>246.6</ele>
        <time>2025-09-08T10:58:28Z</time>
      </trkpt>
      <trkpt lat="48.08651" lon="7.27546">
        <ele>246.6</ele>
        <time>2025-09-08T10:58:29Z</time>
      </trkpt>
      <trkpt lat="48.08651" lon="7.27542">
        <ele>246.6</ele>
        <time>2025-09-08T10:58:30Z</time>
      </trkpt>
      <trkpt lat="48.0865" lon="7.27538">
        <ele>246.6</ele>
        <time>2025-09-08T10:58:31Z</time>
      </trkpt>
      <trkpt lat="48.0865" lon="7.27535">
        <ele>246.6</ele>
        <time>2025-09-08T10:58:32Z</time>
      </trkpt>
      <trkpt lat="48.0865" lon="7.27531">
        <ele>246.6</ele>
        <time>2025-09-08T10:58:33Z</time>
      </trkpt>
      <trkpt lat="48.0865" lon="7.27527">
        <ele>246.6</ele>
        <time>2025-09-08T10:58:34Z</time>
      </trkpt>
      <trkpt lat="48.0865" lon="7.27523">
        <ele>246.8</ele>
        <time>2025-09-08T10:58:35Z</time>
      </trkpt>
      <trkpt lat="48.08649" lon="7.27519">
        <ele>246.8</ele>
        <time>2025-09-08T10:58:36Z</time>
      </trkpt>
      <trkpt lat="48.08649" lon="7.27515">
        <ele>246.8</ele>
        <time>2025-09-08T10:58:37Z</time>
      </trkpt>
      <trkpt lat="48.08648" lon="7.27511">
        <ele>246.8</ele>
        <time>2025-09-08T10:58:38Z</time>
      </trkpt>
      <trkpt lat="48.08648" lon="7.27507">
        <ele>246.8</ele>
        <time>2025-09-08T10:58:39Z</time>
      </trkpt>
      <trkpt lat="48.08647" lon="7.27502">
        <ele>246.8</ele>
        <time>2025-09-08T10:58:40Z</time>
      </trkpt>
      <trkpt lat="48.08647" lon="7.27497">
        <ele>246.8</ele>
        <time>2025-09-08T10:58:41Z</time>
      </trkpt>
      <trkpt lat="48.08646" lon="7.27492">
        <ele>246.8</ele>
        <time>2025-09-08T10:58:42Z</time>
      </trkpt>
      <trkpt lat="48.08647" lon="7.27488">
        <ele>246.8</ele>
        <time>2025-09-08T10:58:43Z</time>
      </trkpt>
      <trkpt lat="48.08647" lon="7.27483">
        <ele>246.8</ele>
        <time>2025-09-08T10:58:44Z</time>
      </trkpt>
      <trkpt lat="48.08646" lon="7.27479">
        <ele>246.8</ele>
        <time>2025-09-08T10:58:45Z</time>
      </trkpt>
      <trkpt lat="48.08646" lon="7.27474">
        <ele>246.8</ele>
        <time>2025-09-08T10:58:46Z</time>
      </trkpt>
      <trkpt lat="48.08645" lon="7.27469">
        <ele>246.8</ele>
        <time>2025-09-08T10:58:47Z</time>
      </trkpt>
      <trkpt lat="48.08645" lon="7.27465">
        <ele>247</ele>
        <time>2025-09-08T10:58:48Z</time>
      </trkpt>
      <trkpt lat="48.08645" lon="7.2746">
        <ele>247</ele>
        <time>2025-09-08T10:58:49Z</time>
      </trkpt>
      <trkpt lat="48.08645" lon="7.27455">
        <ele>247.2</ele>
        <time>2025-09-08T10:58:50Z</time>
      </trkpt>
      <trkpt lat="48.08644" lon="7.2745">
        <ele>247.2</ele>
        <time>2025-09-08T10:58:51Z</time>
      </trkpt>
      <trkpt lat="48.08643" lon="7.27445">
        <ele>247.2</ele>
        <time>2025-09-08T10:58:52Z</time>
      </trkpt>
      <trkpt lat="48.08643" lon="7.2744">
        <ele>247.2</ele>
        <time>2025-09-08T10:58:53Z</time>
      </trkpt>
      <trkpt lat="48.08642" lon="7.27435">
        <ele>247.2</ele>
        <time>2025-09-08T10:58:54Z</time>
      </trkpt>
      <trkpt lat="48.08641" lon="7.2743">
        <ele>247.2</ele>
        <time>2025-09-08T10:58:55Z</time>
      </trkpt>
      <trkpt lat="48.08641" lon="7.27425">
        <ele>247.4</ele>
        <time>2025-09-08T10:58:56Z</time>
      </trkpt>
      <trkpt lat="48.0864" lon="7.2742">
        <ele>247.4</ele>
        <time>2025-09-08T10:58:57Z</time>
      </trkpt>
      <trkpt lat="48.0864" lon="7.27414">
        <ele>247.4</ele>
        <time>2025-09-08T10:58:58Z</time>
      </trkpt>
      <trkpt lat="48.08639" lon="7.27409">
        <ele>247.4</ele>
        <time>2025-09-08T10:58:59Z</time>
      </trkpt>
      <trkpt lat="48.08639" lon="7.27404">
        <ele>247.4</ele>
        <time>2025-09-08T10:59:00Z</time>
      </trkpt>
      <trkpt lat="48.08638" lon="7.27398">
        <ele>247.4</ele>
        <time>2025-09-08T10:59:01Z</time>
      </trkpt>
      <trkpt lat="48.08637" lon="7.27393">
        <ele>247.6</ele>
        <time>2025-09-08T10:59:02Z</time>
      </trkpt>
      <trkpt lat="48.08636" lon="7.27388">
        <ele>247.6</ele>
        <time>2025-09-08T10:59:03Z</time>
      </trkpt>
      <trkpt lat="48.08636" lon="7.27382">
        <ele>247.6</ele>
        <time>2025-09-08T10:59:04Z</time>
      </trkpt>
      <trkpt lat="48.08635" lon="7.27377">
        <ele>247.6</ele>
        <time>2025-09-08T10:59:05Z</time>
      </trkpt>
      <trkpt lat="48.08635" lon="7.27371">
        <ele>247.6</ele>
        <time>2025-09-08T10:59:06Z</time>
      </trkpt>
      <trkpt lat="48.08635" lon="7.27366">
        <ele>247.8</ele>
        <time>2025-09-08T10:59:07Z</time>
      </trkpt>
      <trkpt lat="48.08635" lon="7.2736">
        <ele>247.8</ele>
        <time>2025-09-08T10:59:08Z</time>
      </trkpt>
      <trkpt lat="48.08635" lon="7.27354">
        <ele>247.8</ele>
        <time>2025-09-08T10:59:09Z</time>
      </trkpt>
      <trkpt lat="48.08635" lon="7.27348">
        <ele>247.8</ele>
        <time>2025-09-08T10:59:10Z</time>
      </trkpt>
      <trkpt lat="48.08634" lon="7.27343">
        <ele>247.8</ele>
        <time>2025-09-08T10:59:11Z</time>
      </trkpt>
      <trkpt lat="48.08634" lon="7.27336">
        <ele>247.8</ele>
        <time>2025-09-08T10:59:12Z</time>
      </trkpt>
      <trkpt lat="48.08634" lon="7.27331">
        <ele>247.8</ele>
        <time>2025-09-08T10:59:13Z</time>
      </trkpt>
      <trkpt lat="48.08634" lon="7.27325">
        <ele>248</ele>
        <time>2025-09-08T10:59:14Z</time>
      </trkpt>
      <trkpt lat="48.08634" lon="7.27319">
        <ele>248</ele>
        <time>2025-09-08T10:59:15Z</time>
      </trkpt>
      <trkpt lat="48.08633" lon="7.27313">
        <ele>248</ele>
        <time>2025-09-08T10:59:16Z</time>
      </trkpt>
      <trkpt lat="48.08633" lon="7.27308">
        <ele>248.2</ele>
        <time>2025-09-08T10:59:17Z</time>
      </trkpt>
      <trkpt lat="48.08632" lon="7.27302">
        <ele>248.2</ele>
        <time>2025-09-08T10:59:18Z</time>
      </trkpt>
      <trkpt lat="48.08632" lon="7.27296">
        <ele>248.2</ele>
        <time>2025-09-08T10:59:19Z</time>
      </trkpt>
      <trkpt lat="48.08631" lon="7.2729">
        <ele>248.2</ele>
        <time>2025-09-08T10:59:20Z</time>
      </trkpt>
      <trkpt lat="48.0863" lon="7.27284">
        <ele>248.2</ele>
        <time>2025-09-08T10:59:21Z</time>
      </trkpt>
      <trkpt lat="48.0863" lon="7.27278">
        <ele>248.2</ele>
        <time>2025-09-08T10:59:22Z</time>
      </trkpt>
      <trkpt lat="48.08629" lon="7.27273">
        <ele>248.2</ele>
        <time>2025-09-08T10:59:23Z</time>
      </trkpt>
      <trkpt lat="48.08628" lon="7.27267">
        <ele>248.2</ele>
        <time>2025-09-08T10:59:24Z</time>
      </trkpt>
      <trkpt lat="48.08628" lon="7.27261">
        <ele>248.2</ele>
        <time>2025-09-08T10:59:25Z</time>
      </trkpt>
      <trkpt lat="48.08627" lon="7.27255">
        <ele>248.2</ele>
        <time>2025-09-08T10:59:26Z</time>
      </trkpt>
      <trkpt lat="48.08627" lon="7.27249">
        <ele>248.2</ele>
        <time>2025-09-08T10:59:27Z</time>
      </trkpt>
      <trkpt lat="48.08626" lon="7.27243">
        <ele>248.2</ele>
        <time>2025-09-08T10:59:28Z</time>
      </trkpt>
      <trkpt lat="48.08626" lon="7.27237">
        <ele>248.2</ele>
        <time>2025-09-08T10:59:29Z</time>
      </trkpt>
      <trkpt lat="48.08625" lon="7.2723">
        <ele>248.4</ele>
        <time>2025-09-08T10:59:30Z</time>
      </trkpt>
      <trkpt lat="48.08625" lon="7.27224">
        <ele>248.6</ele>
        <time>2025-09-08T10:59:31Z</time>
      </trkpt>
      <trkpt lat="48.08624" lon="7.27218">
        <ele>248.6</ele>
        <time>2025-09-08T10:59:32Z</time>
      </trkpt>
      <trkpt lat="48.08624" lon="7.27213">
        <ele>248.8</ele>
        <time>2025-09-08T10:59:33Z</time>
      </trkpt>
      <trkpt lat="48.08623" lon="7.27207">
        <ele>248.8</ele>
        <time>2025-09-08T10:59:34Z</time>
      </trkpt>
      <trkpt lat="48.08623" lon="7.27201">
        <ele>248.8</ele>
        <time>2025-09-08T10:59:35Z</time>
      </trkpt>
      <trkpt lat="48.08623" lon="7.27195">
        <ele>248.8</ele>
        <time>2025-09-08T10:59:36Z</time>
      </trkpt>
      <trkpt lat="48.08623" lon="7.27189">
        <ele>248.8</ele>
        <time>2025-09-08T10:59:37Z</time>
      </trkpt>
      <trkpt lat="48.08623" lon="7.27183">
        <ele>248.8</ele>
        <time>2025-09-08T10:59:38Z</time>
      </trkpt>
      <trkpt lat="48.08623" lon="7.27178">
        <ele>248.8</ele>
        <time>2025-09-08T10:59:39Z</time>
      </trkpt>
      <trkpt lat="48.08624" lon="7.27173">
        <ele>248.8</ele>
        <time>2025-09-08T10:59:40Z</time>
      </trkpt>
      <trkpt lat="48.08625" lon="7.27169">
        <ele>248.8</ele>
        <time>2025-09-08T10:59:41Z</time>
      </trkpt>
      <trkpt lat="48.08625" lon="7.27165">
        <ele>249</ele>
        <time>2025-09-08T10:59:42Z</time>
      </trkpt>
      <trkpt lat="48.08624" lon="7.27161">
        <ele>249</ele>
        <time>2025-09-08T10:59:43Z</time>
      </trkpt>
      <trkpt lat="48.08623" lon="7.27156">
        <ele>249.2</ele>
        <time>2025-09-08T10:59:44Z</time>
      </trkpt>
      <trkpt lat="48.08622" lon="7.27149">
        <ele>249.4</ele>
        <time>2025-09-08T10:59:45Z</time>
      </trkpt>
      <trkpt lat="48.08621" lon="7.27143">
        <ele>249.6</ele>
        <time>2025-09-08T10:59:46Z</time>
      </trkpt>
      <trkpt lat="48.0862" lon="7.27137">
        <ele>250</ele>
        <time>2025-09-08T10:59:47Z</time>
      </trkpt>
      <trkpt lat="48.08619" lon="7.27131">
        <ele>250</ele>
        <time>2025-09-08T10:59:48Z</time>
      </trkpt>
      <trkpt lat="48.08618" lon="7.27125">
        <ele>250</ele>
        <time>2025-09-08T10:59:49Z</time>
      </trkpt>
      <trkpt lat="48.08618" lon="7.27119">
        <ele>250</ele>
        <time>2025-09-08T10:59:50Z</time>
      </trkpt>
      <trkpt lat="48.08618" lon="7.27113">
        <ele>250</ele>
        <time>2025-09-08T10:59:51Z</time>
      </trkpt>
      <trkpt lat="48.08618" lon="7.27107">
        <ele>250</ele>
        <time>2025-09-08T10:59:52Z</time>
      </trkpt>
      <trkpt lat="48.08617" lon="7.27101">
        <ele>250</ele>
        <time>2025-09-08T10:59:53Z</time>
      </trkpt>
      <trkpt lat="48.08617" lon="7.27094">
        <ele>250</ele>
        <time>2025-09-08T10:59:54Z</time>
      </trkpt>
      <trkpt lat="48.08616" lon="7.27088">
        <ele>250</ele>
        <time>2025-09-08T10:59:55Z</time>
      </trkpt>
      <trkpt lat="48.08616" lon="7.27082">
        <ele>250.2</ele>
        <time>2025-09-08T10:59:56Z</time>
      </trkpt>
      <trkpt lat="48.08615" lon="7.27076">
        <ele>250.4</ele>
        <time>2025-09-08T10:59:57Z</time>
      </trkpt>
      <trkpt lat="48.08615" lon="7.2707">
        <ele>250.6</ele>
        <time>2025-09-08T10:59:58Z</time>
      </trkpt>
      <trkpt lat="48.08614" lon="7.27064">
        <ele>250.6</ele>
        <time>2025-09-08T10:59:59Z</time>
      </trkpt>
      <trkpt lat="48.08612" lon="7.27059">
        <ele>250.8</ele>
        <time>2025-09-08T11:00:00Z</time>
      </trkpt>
      <trkpt lat="48.0861" lon="7.27054">
        <ele>250.8</ele>
        <time>2025-09-08T11:00:01Z</time>
      </trkpt>
      <trkpt lat="48.08606" lon="7.2705">
        <ele>251</ele>
        <time>2025-09-08T11:00:02Z</time>
      </trkpt>
      <trkpt lat="48.08602" lon="7.27049">
        <ele>251</ele>
        <time>2025-09-08T11:00:03Z</time>
      </trkpt>
      <trkpt lat="48.08599" lon="7.27048">
        <ele>251.2</ele>
        <time>2025-09-08T11:00:04Z</time>
      </trkpt>
      <trkpt lat="48.08595" lon="7.27047">
        <ele>251.4</ele>
        <time>2025-09-08T11:00:05Z</time>
      </trkpt>
      <trkpt lat="48.08592" lon="7.27046">
        <ele>251.4</ele>
        <time>2025-09-08T11:00:06Z</time>
      </trkpt>
      <trkpt lat="48.08589" lon="7.27045">
        <ele>251.4</ele>
        <time>2025-09-08T11:00:07Z</time>
      </trkpt>
      <trkpt lat="48.08587" lon="7.27045">
        <ele>251.4</ele>
        <time>2025-09-08T11:00:08Z</time>
      </trkpt>
      <trkpt lat="48.08585" lon="7.27044">
        <ele>251.4</ele>
        <time>2025-09-08T11:00:09Z</time>
      </trkpt>
      <trkpt lat="48.08582" lon="7.27044">
        <ele>251.6</ele>
        <time>2025-09-08T11:00:10Z</time>
      </trkpt>
      <trkpt lat="48.08579" lon="7.27043">
        <ele>251.8</ele>
        <time>2025-09-08T11:00:11Z</time>
      </trkpt>
      <trkpt lat="48.08575" lon="7.27043">
        <ele>251.8</ele>
        <time>2025-09-08T11:00:12Z</time>
      </trkpt>
      <trkpt lat="48.08572" lon="7.27042">
        <ele>251.8</ele>
        <time>2025-09-08T11:00:13Z</time>
      </trkpt>
      <trkpt lat="48.08568" lon="7.27041">
        <ele>251.8</ele>
        <time>2025-09-08T11:00:14Z</time>
      </trkpt>
      <trkpt lat="48.08564" lon="7.2704">
        <ele>251.6</ele>
        <time>2025-09-08T11:00:15Z</time>
      </trkpt>
      <trkpt lat="48.0856" lon="7.27038">
        <ele>251.6</ele>
        <time>2025-09-08T11:00:16Z</time>
      </trkpt>
      <trkpt lat="48.08556" lon="7.27037">
        <ele>251.6</ele>
        <time>2025-09-08T11:00:17Z</time>
      </trkpt>
      <trkpt lat="48.08552" lon="7.27036">
        <ele>251.4</ele>
        <time>2025-09-08T11:00:18Z</time>
      </trkpt>
      <trkpt lat="48.08548" lon="7.27035">
        <ele>251.4</ele>
        <time>2025-09-08T11:00:19Z</time>
      </trkpt>
      <trkpt lat="48.08544" lon="7.27034">
        <ele>251.4</ele>
        <time>2025-09-08T11:00:20Z</time>
      </trkpt>
      <trkpt lat="48.0854" lon="7.27033">
        <ele>251.4</ele>
        <time>2025-09-08T11:00:21Z</time>
      </trkpt>
      <trkpt lat="48.08536" lon="7.27032">
        <ele>251.4</ele>
        <time>2025-09-08T11:00:22Z</time>
      </trkpt>
      <trkpt lat="48.08532" lon="7.27031">
        <ele>251.4</ele>
        <time>2025-09-08T11:00:23Z</time>
      </trkpt>
      <trkpt lat="48.08528" lon="7.2703">
        <ele>251.4</ele>
        <time>2025-09-08T11:00:24Z</time>
      </trkpt>
      <trkpt lat="48.08523" lon="7.27029">
        <ele>251.4</ele>
        <time>2025-09-08T11:00:25Z</time>
      </trkpt>
      <trkpt lat="48.08519" lon="7.27028">
        <ele>251.4</ele>
        <time>2025-09-08T11:00:26Z</time>
      </trkpt>
      <trkpt lat="48.08514" lon="7.27026">
        <ele>251.4</ele>
        <time>2025-09-08T11:00:27Z</time>
      </trkpt>
      <trkpt lat="48.0851" lon="7.27025">
        <ele>251.4</ele>
        <time>2025-09-08T11:00:28Z</time>
      </trkpt>
      <trkpt lat="48.08505" lon="7.27024">
        <ele>251.4</ele>
        <time>2025-09-08T11:00:29Z</time>
      </trkpt>
      <trkpt lat="48.08501" lon="7.27024">
        <ele>251.4</ele>
        <time>2025-09-08T11:00:30Z</time>
      </trkpt>
      <trkpt lat="48.08496" lon="7.27023">
        <ele>251.4</ele>
        <time>2025-09-08T11:00:31Z</time>
      </trkpt>
      <trkpt lat="48.08493" lon="7.2702">
        <ele>251.6</ele>
        <time>2025-09-08T11:00:32Z</time>
      </trkpt>
      <trkpt lat="48.0849" lon="7.27016">
        <ele>251.6</ele>
        <time>2025-09-08T11:00:33Z</time>
      </trkpt>
      <trkpt lat="48.0849" lon="7.27011">
        <ele>251.6</ele>
        <time>2025-09-08T11:00:34Z</time>
      </trkpt>
      <trkpt lat="48.08489" lon="7.27006">
        <ele>251.6</ele>
        <time>2025-09-08T11:00:35Z</time>
      </trkpt>
      <trkpt lat="48.08487" lon="7.27">
        <ele>251.6</ele>
        <time>2025-09-08T11:00:36Z</time>
      </trkpt>
      <trkpt lat="48.08485" lon="7.26994">
        <ele>251.6</ele>
        <time>2025-09-08T11:00:37Z</time>
      </trkpt>
      <trkpt lat="48.08483" lon="7.26988">
        <ele>251.6</ele>
        <time>2025-09-08T11:00:38Z</time>
      </trkpt>
      <trkpt lat="48.08481" lon="7.26983">
        <ele>251.6</ele>
        <time>2025-09-08T11:00:39Z</time>
      </trkpt>
      <trkpt lat="48.0848" lon="7.26978">
        <ele>251.6</ele>
        <time>2025-09-08T11:00:40Z</time>
      </trkpt>
      <trkpt lat="48.08477" lon="7.26972">
        <ele>251.6</ele>
        <time>2025-09-08T11:00:41Z</time>
      </trkpt>
      <trkpt lat="48.08475" lon="7.26967">
        <ele>251.6</ele>
        <time>2025-09-08T11:00:42Z</time>
      </trkpt>
      <trkpt lat="48.08474" lon="7.26961">
        <ele>251.6</ele>
        <time>2025-09-08T11:00:43Z</time>
      </trkpt>
      <trkpt lat="48.08473" lon="7.26955">
        <ele>251.6</ele>
        <time>2025-09-08T11:00:44Z</time>
      </trkpt>
      <trkpt lat="48.08472" lon="7.26949">
        <ele>251.6</ele>
        <time>2025-09-08T11:00:45Z</time>
      </trkpt>
      <trkpt lat="48.08472" lon="7.26943">
        <ele>251.6</ele>
        <time>2025-09-08T11:00:46Z</time>
      </trkpt>
      <trkpt lat="48.08471" lon="7.26937">
        <ele>251.6</ele>
        <time>2025-09-08T11:00:47Z</time>
      </trkpt>
      <trkpt lat="48.0847" lon="7.2693">
        <ele>251.6</ele>
        <time>2025-09-08T11:00:48Z</time>
      </trkpt>
      <trkpt lat="48.0847" lon="7.26924">
        <ele>251.6</ele>
        <time>2025-09-08T11:00:49Z</time>
      </trkpt>
      <trkpt lat="48.08469" lon="7.26917">
        <ele>251.8</ele>
        <time>2025-09-08T11:00:50Z</time>
      </trkpt>
      <trkpt lat="48.08469" lon="7.26911">
        <ele>251.8</ele>
        <time>2025-09-08T11:00:51Z</time>
      </trkpt>
      <trkpt lat="48.08468" lon="7.26904">
        <ele>251.8</ele>
        <time>2025-09-08T11:00:52Z</time>
      </trkpt>
      <trkpt lat="48.08468" lon="7.26897">
        <ele>251.8</ele>
        <time>2025-09-08T11:00:53Z</time>
      </trkpt>
      <trkpt lat="48.08467" lon="7.26891">
        <ele>251.8</ele>
        <time>2025-09-08T11:00:54Z</time>
      </trkpt>
      <trkpt lat="48.08467" lon="7.26884">
        <ele>251.8</ele>
        <time>2025-09-08T11:00:55Z</time>
      </trkpt>
      <trkpt lat="48.08466" lon="7.26877">
        <ele>251.8</ele>
        <time>2025-09-08T11:00:56Z</time>
      </trkpt>
      <trkpt lat="48.08465" lon="7.26869">
        <ele>252</ele>
        <time>2025-09-08T11:00:57Z</time>
      </trkpt>
      <trkpt lat="48.08465" lon="7.26862">
        <ele>252</ele>
        <time>2025-09-08T11:00:58Z</time>
      </trkpt>
      <trkpt lat="48.08464" lon="7.26855">
        <ele>252</ele>
        <time>2025-09-08T11:00:59Z</time>
      </trkpt>
      <trkpt lat="48.08462" lon="7.26848">
        <ele>252</ele>
        <time>2025-09-08T11:01:00Z</time>
      </trkpt>
      <trkpt lat="48.08461" lon="7.26841">
        <ele>252</ele>
        <time>2025-09-08T11:01:01Z</time>
      </trkpt>
      <trkpt lat="48.08459" lon="7.26834">
        <ele>252</ele>
        <time>2025-09-08T11:01:02Z</time>
      </trkpt>
      <trkpt lat="48.08458" lon="7.26828">
        <ele>252</ele>
        <time>2025-09-08T11:01:03Z</time>
      </trkpt>
      <trkpt lat="48.08455" lon="7.26822">
        <ele>252</ele>
        <time>2025-09-08T11:01:04Z</time>
      </trkpt>
      <trkpt lat="48.08453" lon="7.26816">
        <ele>252</ele>
        <time>2025-09-08T11:01:05Z</time>
      </trkpt>
      <trkpt lat="48.08451" lon="7.26809">
        <ele>252.2</ele>
        <time>2025-09-08T11:01:06Z</time>
      </trkpt>
      <trkpt lat="48.08448" lon="7.26804">
        <ele>252.2</ele>
        <time>2025-09-08T11:01:07Z</time>
      </trkpt>
      <trkpt lat="48.08446" lon="7.26797">
        <ele>252.2</ele>
        <time>2025-09-08T11:01:08Z</time>
      </trkpt>
      <trkpt lat="48.08444" lon="7.26791">
        <ele>252.2</ele>
        <time>2025-09-08T11:01:09Z</time>
      </trkpt>
      <trkpt lat="48.08442" lon="7.26785">
        <ele>252.4</ele>
        <time>2025-09-08T11:01:10Z</time>
      </trkpt>
      <trkpt lat="48.0844" lon="7.26778">
        <ele>252.4</ele>
        <time>2025-09-08T11:01:11Z</time>
      </trkpt>
      <trkpt lat="48.08438" lon="7.26772">
        <ele>252.4</ele>
        <time>2025-09-08T11:01:12Z</time>
      </trkpt>
      <trkpt lat="48.08436" lon="7.26766">
        <ele>252.4</ele>
        <time>2025-09-08T11:01:13Z</time>
      </trkpt>
      <trkpt lat="48.08434" lon="7.2676">
        <ele>252.4</ele>
        <time>2025-09-08T11:01:14Z</time>
      </trkpt>
      <trkpt lat="48.08432" lon="7.26753">
        <ele>252.4</ele>
        <time>2025-09-08T11:01:15Z</time>
      </trkpt>
      <trkpt lat="48.0843" lon="7.26747">
        <ele>252.6</ele>
        <time>2025-09-08T11:01:16Z</time>
      </trkpt>
      <trkpt lat="48.08428" lon="7.26741">
        <ele>252.6</ele>
        <time>2025-09-08T11:01:17Z</time>
      </trkpt>
      <trkpt lat="48.08426" lon="7.26735">
        <ele>252.6</ele>
        <time>2025-09-08T11:01:18Z</time>
      </trkpt>
      <trkpt lat="48.08424" lon="7.26729">
        <ele>252.6</ele>
        <time>2025-09-08T11:01:19Z</time>
      </trkpt>
      <trkpt lat="48.08422" lon="7.26723">
        <ele>252.6</ele>
        <time>2025-09-08T11:01:20Z</time>
      </trkpt>
      <trkpt lat="48.0842" lon="7.26717">
        <ele>252.8</ele>
        <time>2025-09-08T11:01:21Z</time>
      </trkpt>
      <trkpt lat="48.08418" lon="7.2671">
        <ele>252.8</ele>
        <time>2025-09-08T11:01:22Z</time>
      </trkpt>
      <trkpt lat="48.08416" lon="7.26704">
        <ele>252.8</ele>
        <time>2025-09-08T11:01:23Z</time>
      </trkpt>
      <trkpt lat="48.08414" lon="7.26698">
        <ele>252.8</ele>
        <time>2025-09-08T11:01:24Z</time>
      </trkpt>
      <trkpt lat="48.08412" lon="7.26692">
        <ele>253</ele>
        <time>2025-09-08T11:01:25Z</time>
      </trkpt>
      <trkpt lat="48.0841" lon="7.26686">
        <ele>253</ele>
        <time>2025-09-08T11:01:26Z</time>
      </trkpt>
      <trkpt lat="48.08407" lon="7.26681">
        <ele>253</ele>
        <time>2025-09-08T11:01:27Z</time>
      </trkpt>
      <trkpt lat="48.08405" lon="7.26675">
        <ele>253</ele>
        <time>2025-09-08T11:01:28Z</time>
      </trkpt>
      <trkpt lat="48.08402" lon="7.26669">
        <ele>253</ele>
        <time>2025-09-08T11:01:29Z</time>
      </trkpt>
      <trkpt lat="48.08399" lon="7.26664">
        <ele>253</ele>
        <time>2025-09-08T11:01:30Z</time>
      </trkpt>
      <trkpt lat="48.08396" lon="7.26658">
        <ele>253.2</ele>
        <time>2025-09-08T11:01:31Z</time>
      </trkpt>
      <trkpt lat="48.08393" lon="7.26653">
        <ele>253.4</ele>
        <time>2025-09-08T11:01:32Z</time>
      </trkpt>
      <trkpt lat="48.0839" lon="7.26647">
        <ele>253.6</ele>
        <time>2025-09-08T11:01:33Z</time>
      </trkpt>
      <trkpt lat="48.08387" lon="7.26642">
        <ele>253.6</ele>
        <time>2025-09-08T11:01:34Z</time>
      </trkpt>
      <trkpt lat="48.08385" lon="7.26636">
        <ele>253.8</ele>
        <time>2025-09-08T11:01:35Z</time>
      </trkpt>
      <trkpt lat="48.08382" lon="7.26629">
        <ele>253.8</ele>
        <time>2025-09-08T11:01:36Z</time>
      </trkpt>
      <trkpt lat="48.0838" lon="7.26623">
        <ele>254</ele>
        <time>2025-09-08T11:01:37Z</time>
      </trkpt>
      <trkpt lat="48.08378" lon="7.26616">
        <ele>254</ele>
        <time>2025-09-08T11:01:38Z</time>
      </trkpt>
      <trkpt lat="48.08375" lon="7.2661">
        <ele>254.2</ele>
        <time>2025-09-08T11:01:39Z</time>
      </trkpt>
      <trkpt lat="48.08373" lon="7.26604">
        <ele>254.2</ele>
        <time>2025-09-08T11:01:40Z</time>
      </trkpt>
      <trkpt lat="48.08371" lon="7.26598">
        <ele>254.2</ele>
        <time>2025-09-08T11:01:41Z</time>
      </trkpt>
      <trkpt lat="48.08368" lon="7.26592">
        <ele>254.2</ele>
        <time>2025-09-08T11:01:42Z</time>
      </trkpt>
      <trkpt lat="48.08365" lon="7.26586">
        <ele>254.2</ele>
        <time>2025-09-08T11:01:43Z</time>
      </trkpt>
      <trkpt lat="48.08363" lon="7.2658">
        <ele>254.2</ele>
        <time>2025-09-08T11:01:44Z</time>
      </trkpt>
      <trkpt lat="48.0836" lon="7.26574">
        <ele>254.2</ele>
        <time>2025-09-08T11:01:45Z</time>
      </trkpt>
      <trkpt lat="48.08358" lon="7.26568">
        <ele>254.2</ele>
        <time>2025-09-08T11:01:46Z</time>
      </trkpt>
      <trkpt lat="48.08356" lon="7.26562">
        <ele>254.2</ele>
        <time>2025-09-08T11:01:47Z</time>
      </trkpt>
      <trkpt lat="48.08353" lon="7.26556">
        <ele>254.2</ele>
        <time>2025-09-08T11:01:48Z</time>
      </trkpt>
      <trkpt lat="48.08351" lon="7.2655">
        <ele>254.2</ele>
        <time>2025-09-08T11:01:49Z</time>
      </trkpt>
      <trkpt lat="48.08349" lon="7.26544">
        <ele>254.4</ele>
        <time>2025-09-08T11:01:50Z</time>
      </trkpt>
      <trkpt lat="48.08347" lon="7.26538">
        <ele>254.4</ele>
        <time>2025-09-08T11:01:51Z</time>
      </trkpt>
      <trkpt lat="48.08344" lon="7.26532">
        <ele>254.4</ele>
        <time>2025-09-08T11:01:52Z</time>
      </trkpt>
      <trkpt lat="48.08342" lon="7.26527">
        <ele>254.4</ele>
        <time>2025-09-08T11:01:53Z</time>
      </trkpt>
      <trkpt lat="48.08339" lon="7.26521">
        <ele>254.6</ele>
        <time>2025-09-08T11:01:54Z</time>
      </trkpt>
      <trkpt lat="48.08337" lon="7.26515">
        <ele>254.4</ele>
        <time>2025-09-08T11:01:55Z</time>
      </trkpt>
      <trkpt lat="48.08335" lon="7.26509">
        <ele>254.4</ele>
        <time>2025-09-08T11:01:56Z</time>
      </trkpt>
      <trkpt lat="48.08334" lon="7.26504">
        <ele>254.4</ele>
        <time>2025-09-08T11:01:57Z</time>
      </trkpt>
      <trkpt lat="48.08332" lon="7.26498">
        <ele>254.6</ele>
        <time>2025-09-08T11:01:58Z</time>
      </trkpt>
      <trkpt lat="48.0833" lon="7.2649">
        <ele>254.6</ele>
        <time>2025-09-08T11:01:59Z</time>
      </trkpt>
      <trkpt lat="48.08329" lon="7.26484">
        <ele>254.6</ele>
        <time>2025-09-08T11:02:00Z</time>
      </trkpt>
      <trkpt lat="48.08327" lon="7.26477">
        <ele>254.6</ele>
        <time>2025-09-08T11:02:01Z</time>
      </trkpt>
      <trkpt lat="48.08325" lon="7.2647">
        <ele>254.8</ele>
        <time>2025-09-08T11:02:02Z</time>
      </trkpt>
      <trkpt lat="48.08323" lon="7.26463">
        <ele>254.8</ele>
        <time>2025-09-08T11:02:03Z</time>
      </trkpt>
      <trkpt lat="48.08321" lon="7.26456">
        <ele>254.8</ele>
        <time>2025-09-08T11:02:04Z</time>
      </trkpt>
      <trkpt lat="48.0832" lon="7.26449">
        <ele>254.8</ele>
        <time>2025-09-08T11:02:05Z</time>
      </trkpt>
      <trkpt lat="48.08318" lon="7.26442">
        <ele>254.8</ele>
        <time>2025-09-08T11:02:06Z</time>
      </trkpt>
      <trkpt lat="48.08317" lon="7.26435">
        <ele>254.8</ele>
        <time>2025-09-08T11:02:07Z</time>
      </trkpt>
      <trkpt lat="48.08315" lon="7.26428">
        <ele>255</ele>
        <time>2025-09-08T11:02:08Z</time>
      </trkpt>
      <trkpt lat="48.08313" lon="7.26421">
        <ele>255</ele>
        <time>2025-09-08T11:02:09Z</time>
      </trkpt>
      <trkpt lat="48.08312" lon="7.26414">
        <ele>255</ele>
        <time>2025-09-08T11:02:10Z</time>
      </trkpt>
      <trkpt lat="48.0831" lon="7.26407">
        <ele>255.2</ele>
        <time>2025-09-08T11:02:11Z</time>
      </trkpt>
      <trkpt lat="48.08309" lon="7.264">
        <ele>255.2</ele>
        <time>2025-09-08T11:02:12Z</time>
      </trkpt>
      <trkpt lat="48.08307" lon="7.26394">
        <ele>255.2</ele>
        <time>2025-09-08T11:02:13Z</time>
      </trkpt>
      <trkpt lat="48.08305" lon="7.26387">
        <ele>255.2</ele>
        <time>2025-09-08T11:02:14Z</time>
      </trkpt>
      <trkpt lat="48.08304" lon="7.2638">
        <ele>255.2</ele>
        <time>2025-09-08T11:02:15Z</time>
      </trkpt>
      <trkpt lat="48.08301" lon="7.26373">
        <ele>255.4</ele>
        <time>2025-09-08T11:02:16Z</time>
      </trkpt>
      <trkpt lat="48.08299" lon="7.26367">
        <ele>255.4</ele>
        <time>2025-09-08T11:02:17Z</time>
      </trkpt>
      <trkpt lat="48.08297" lon="7.2636">
        <ele>255.4</ele>
        <time>2025-09-08T11:02:18Z</time>
      </trkpt>
      <trkpt lat="48.08294" lon="7.26353">
        <ele>255.4</ele>
        <time>2025-09-08T11:02:19Z</time>
      </trkpt>
      <trkpt lat="48.08292" lon="7.26347">
        <ele>255.4</ele>
        <time>2025-09-08T11:02:20Z</time>
      </trkpt>
      <trkpt lat="48.08289" lon="7.26341">
        <ele>255.4</ele>
        <time>2025-09-08T11:02:21Z</time>
      </trkpt>
      <trkpt lat="48.08286" lon="7.26334">
        <ele>255.4</ele>
        <time>2025-09-08T11:02:22Z</time>
      </trkpt>
      <trkpt lat="48.08283" lon="7.26328">
        <ele>255.4</ele>
        <time>2025-09-08T11:02:23Z</time>
      </trkpt>
      <trkpt lat="48.0828" lon="7.26323">
        <ele>255.4</ele>
        <time>2025-09-08T11:02:24Z</time>
      </trkpt>
      <trkpt lat="48.08276" lon="7.26317">
        <ele>255.6</ele>
        <time>2025-09-08T11:02:25Z</time>
      </trkpt>
      <trkpt lat="48.08273" lon="7.26312">
        <ele>255.6</ele>
        <time>2025-09-08T11:02:26Z</time>
      </trkpt>
      <trkpt lat="48.0827" lon="7.26307">
        <ele>255.6</ele>
        <time>2025-09-08T11:02:27Z</time>
      </trkpt>
      <trkpt lat="48.08267" lon="7.26302">
        <ele>255.6</ele>
        <time>2025-09-08T11:02:28Z</time>
      </trkpt>
      <trkpt lat="48.08264" lon="7.26297">
        <ele>255.6</ele>
        <time>2025-09-08T11:02:29Z</time>
      </trkpt>
      <trkpt lat="48.0826" lon="7.26292">
        <ele>255.6</ele>
        <time>2025-09-08T11:02:30Z</time>
      </trkpt>
      <trkpt lat="48.08256" lon="7.26286">
        <ele>255.8</ele>
        <time>2025-09-08T11:02:31Z</time>
      </trkpt>
      <trkpt lat="48.08253" lon="7.26281">
        <ele>255.8</ele>
        <time>2025-09-08T11:02:32Z</time>
      </trkpt>
      <trkpt lat="48.08249" lon="7.26276">
        <ele>256</ele>
        <time>2025-09-08T11:02:33Z</time>
      </trkpt>
      <trkpt lat="48.08245" lon="7.26271">
        <ele>256</ele>
        <time>2025-09-08T11:02:34Z</time>
      </trkpt>
      <trkpt lat="48.08241" lon="7.26266">
        <ele>256</ele>
        <time>2025-09-08T11:02:35Z</time>
      </trkpt>
      <trkpt lat="48.08238" lon="7.26261">
        <ele>256</ele>
        <time>2025-09-08T11:02:36Z</time>
      </trkpt>
      <trkpt lat="48.08234" lon="7.26256">
        <ele>256.2</ele>
        <time>2025-09-08T11:02:37Z</time>
      </trkpt>
      <trkpt lat="48.0823" lon="7.26251">
        <ele>256.2</ele>
        <time>2025-09-08T11:02:38Z</time>
      </trkpt>
      <trkpt lat="48.08226" lon="7.26246">
        <ele>256.2</ele>
        <time>2025-09-08T11:02:39Z</time>
      </trkpt>
      <trkpt lat="48.08222" lon="7.26241">
        <ele>256.2</ele>
        <time>2025-09-08T11:02:40Z</time>
      </trkpt>
      <trkpt lat="48.08218" lon="7.26237">
        <ele>256.2</ele>
        <time>2025-09-08T11:02:41Z</time>
      </trkpt>
      <trkpt lat="48.08214" lon="7.26232">
        <ele>256.2</ele>
        <time>2025-09-08T11:02:42Z</time>
      </trkpt>
      <trkpt lat="48.0821" lon="7.26227">
        <ele>256.2</ele>
        <time>2025-09-08T11:02:43Z</time>
      </trkpt>
      <trkpt lat="48.08207" lon="7.26222">
        <ele>256.2</ele>
        <time>2025-09-08T11:02:44Z</time>
      </trkpt>
      <trkpt lat="48.08204" lon="7.26216">
        <ele>256.2</ele>
        <time>2025-09-08T11:02:45Z</time>
      </trkpt>
      <trkpt lat="48.08201" lon="7.2621">
        <ele>256.2</ele>
        <time>2025-09-08T11:02:46Z</time>
      </trkpt>
      <trkpt lat="48.08197" lon="7.26204">
        <ele>256.2</ele>
        <time>2025-09-08T11:02:47Z</time>
      </trkpt>
      <trkpt lat="48.08195" lon="7.26197">
        <ele>256.2</ele>
        <time>2025-09-08T11:02:48Z</time>
      </trkpt>
      <trkpt lat="48.08192" lon="7.26191">
        <ele>256.2</ele>
        <time>2025-09-08T11:02:49Z</time>
      </trkpt>
      <trkpt lat="48.08189" lon="7.26185">
        <ele>256.2</ele>
        <time>2025-09-08T11:02:50Z</time>
      </trkpt>
      <trkpt lat="48.08186" lon="7.26179">
        <ele>256.2</ele>
        <time>2025-09-08T11:02:51Z</time>
      </trkpt>
      <trkpt lat="48.08184" lon="7.26173">
        <ele>256.2</ele>
        <time>2025-09-08T11:02:52Z</time>
      </trkpt>
      <trkpt lat="48.08181" lon="7.26167">
        <ele>256.4</ele>
        <time>2025-09-08T11:02:53Z</time>
      </trkpt>
      <trkpt lat="48.08179" lon="7.26161">
        <ele>256.4</ele>
        <time>2025-09-08T11:02:54Z</time>
      </trkpt>
      <trkpt lat="48.08177" lon="7.26155">
        <ele>256.4</ele>
        <time>2025-09-08T11:02:55Z</time>
      </trkpt>
      <trkpt lat="48.08174" lon="7.26149">
        <ele>256.6</ele>
        <time>2025-09-08T11:02:56Z</time>
      </trkpt>
      <trkpt lat="48.08172" lon="7.26143">
        <ele>256.6</ele>
        <time>2025-09-08T11:02:57Z</time>
      </trkpt>
      <trkpt lat="48.0817" lon="7.26137">
        <ele>256.8</ele>
        <time>2025-09-08T11:02:58Z</time>
      </trkpt>
      <trkpt lat="48.08167" lon="7.2613">
        <ele>256.8</ele>
        <time>2025-09-08T11:02:59Z</time>
      </trkpt>
      <trkpt lat="48.08165" lon="7.26124">
        <ele>257</ele>
        <time>2025-09-08T11:03:00Z</time>
      </trkpt>
      <trkpt lat="48.08163" lon="7.26118">
        <ele>257</ele>
        <time>2025-09-08T11:03:01Z</time>
      </trkpt>
      <trkpt lat="48.0816" lon="7.26111">
        <ele>257.2</ele>
        <time>2025-09-08T11:03:02Z</time>
      </trkpt>
      <trkpt lat="48.08157" lon="7.26105">
        <ele>257.2</ele>
        <time>2025-09-08T11:03:03Z</time>
      </trkpt>
      <trkpt lat="48.08155" lon="7.261">
        <ele>257.4</ele>
        <time>2025-09-08T11:03:04Z</time>
      </trkpt>
      <trkpt lat="48.08151" lon="7.26094">
        <ele>257.4</ele>
        <time>2025-09-08T11:03:05Z</time>
      </trkpt>
      <trkpt lat="48.08148" lon="7.2609">
        <ele>257.6</ele>
        <time>2025-09-08T11:03:06Z</time>
      </trkpt>
      <trkpt lat="48.08146" lon="7.26084">
        <ele>257.6</ele>
        <time>2025-09-08T11:03:07Z</time>
      </trkpt>
      <trkpt lat="48.08145" lon="7.26078">
        <ele>257.6</ele>
        <time>2025-09-08T11:03:08Z</time>
      </trkpt>
      <trkpt lat="48.08145" lon="7.26071">
        <ele>257.8</ele>
        <time>2025-09-08T11:03:09Z</time>
      </trkpt>
      <trkpt lat="48.08146" lon="7.26066">
        <ele>258</ele>
        <time>2025-09-08T11:03:10Z</time>
      </trkpt>
      <trkpt lat="48.08149" lon="7.26061">
        <ele>258</ele>
        <time>2025-09-08T11:03:11Z</time>
      </trkpt>
      <trkpt lat="48.08153" lon="7.26057">
        <ele>258</ele>
        <time>2025-09-08T11:03:12Z</time>
      </trkpt>
      <trkpt lat="48.08157" lon="7.26053">
        <ele>258</ele>
        <time>2025-09-08T11:03:13Z</time>
      </trkpt>
      <trkpt lat="48.08161" lon="7.2605">
        <ele>258</ele>
        <time>2025-09-08T11:03:14Z</time>
      </trkpt>
      <trkpt lat="48.08165" lon="7.26047">
        <ele>258</ele>
        <time>2025-09-08T11:03:15Z</time>
      </trkpt>
      <trkpt lat="48.0817" lon="7.26044">
        <ele>258</ele>
        <time>2025-09-08T11:03:16Z</time>
      </trkpt>
      <trkpt lat="48.08174" lon="7.26041">
        <ele>257.8</ele>
        <time>2025-09-08T11:03:17Z</time>
      </trkpt>
      <trkpt lat="48.08179" lon="7.26038">
        <ele>257.8</ele>
        <time>2025-09-08T11:03:18Z</time>
      </trkpt>
      <trkpt lat="48.08183" lon="7.26035">
        <ele>257.8</ele>
        <time>2025-09-08T11:03:19Z</time>
      </trkpt>
      <trkpt lat="48.08188" lon="7.26032">
        <ele>257.8</ele>
        <time>2025-09-08T11:03:20Z</time>
      </trkpt>
      <trkpt lat="48.08192" lon="7.26029">
        <ele>257.8</ele>
        <time>2025-09-08T11:03:21Z</time>
      </trkpt>
      <trkpt lat="48.08196" lon="7.26026">
        <ele>257.6</ele>
        <time>2025-09-08T11:03:22Z</time>
      </trkpt>
      <trkpt lat="48.08201" lon="7.26023">
        <ele>257.6</ele>
        <time>2025-09-08T11:03:23Z</time>
      </trkpt>
      <trkpt lat="48.08205" lon="7.2602">
        <ele>257.8</ele>
        <time>2025-09-08T11:03:24Z</time>
      </trkpt>
      <trkpt lat="48.08209" lon="7.26017">
        <ele>257.8</ele>
        <time>2025-09-08T11:03:25Z</time>
      </trkpt>
      <trkpt lat="48.08214" lon="7.26014">
        <ele>257.8</ele>
        <time>2025-09-08T11:03:26Z</time>
      </trkpt>
      <trkpt lat="48.08218" lon="7.26011">
        <ele>257.8</ele>
        <time>2025-09-08T11:03:27Z</time>
      </trkpt>
      <trkpt lat="48.08223" lon="7.26009">
        <ele>258</ele>
        <time>2025-09-08T11:03:28Z</time>
      </trkpt>
      <trkpt lat="48.08227" lon="7.26006">
        <ele>258</ele>
        <time>2025-09-08T11:03:29Z</time>
      </trkpt>
      <trkpt lat="48.08232" lon="7.26003">
        <ele>258</ele>
        <time>2025-09-08T11:03:30Z</time>
      </trkpt>
      <trkpt lat="48.08236" lon="7.26">
        <ele>257.8</ele>
        <time>2025-09-08T11:03:31Z</time>
      </trkpt>
      <trkpt lat="48.08241" lon="7.25997">
        <ele>257.8</ele>
        <time>2025-09-08T11:03:32Z</time>
      </trkpt>
      <trkpt lat="48.08245" lon="7.25994">
        <ele>257.8</ele>
        <time>2025-09-08T11:03:33Z</time>
      </trkpt>
      <trkpt lat="48.0825" lon="7.2599">
        <ele>257.8</ele>
        <time>2025-09-08T11:03:34Z</time>
      </trkpt>
      <trkpt lat="48.08254" lon="7.25988">
        <ele>257.8</ele>
        <time>2025-09-08T11:03:35Z</time>
      </trkpt>
      <trkpt lat="48.08258" lon="7.25985">
        <ele>257.8</ele>
        <time>2025-09-08T11:03:36Z</time>
      </trkpt>
      <trkpt lat="48.08263" lon="7.25983">
        <ele>257.6</ele>
        <time>2025-09-08T11:03:37Z</time>
      </trkpt>
      <trkpt lat="48.08267" lon="7.25981">
        <ele>257.6</ele>
        <time>2025-09-08T11:03:38Z</time>
      </trkpt>
      <trkpt lat="48.08272" lon="7.2598">
        <ele>257.6</ele>
        <time>2025-09-08T11:03:39Z</time>
      </trkpt>
      <trkpt lat="48.08277" lon="7.2598">
        <ele>257.6</ele>
        <time>2025-09-08T11:03:40Z</time>
      </trkpt>
      <trkpt lat="48.08282" lon="7.2598">
        <ele>257.6</ele>
        <time>2025-09-08T11:03:41Z</time>
      </trkpt>
      <trkpt lat="48.08287" lon="7.25982">
        <ele>257.6</ele>
        <time>2025-09-08T11:03:42Z</time>
      </trkpt>
      <trkpt lat="48.08291" lon="7.25984">
        <ele>257.4</ele>
        <time>2025-09-08T11:03:43Z</time>
      </trkpt>
      <trkpt lat="48.08295" lon="7.25988">
        <ele>257.4</ele>
        <time>2025-09-08T11:03:44Z</time>
      </trkpt>
      <trkpt lat="48.08298" lon="7.25992">
        <ele>257.4</ele>
        <time>2025-09-08T11:03:45Z</time>
      </trkpt>
      <trkpt lat="48.08302" lon="7.25997">
        <ele>257.2</ele>
        <time>2025-09-08T11:03:46Z</time>
      </trkpt>
      <trkpt lat="48.08306" lon="7.26001">
        <ele>257.2</ele>
        <time>2025-09-08T11:03:47Z</time>
      </trkpt>
      <trkpt lat="48.08309" lon="7.26006">
        <ele>257.2</ele>
        <time>2025-09-08T11:03:48Z</time>
      </trkpt>
      <trkpt lat="48.08313" lon="7.26011">
        <ele>257.2</ele>
        <time>2025-09-08T11:03:49Z</time>
      </trkpt>
      <trkpt lat="48.08317" lon="7.26016">
        <ele>257.2</ele>
        <time>2025-09-08T11:03:50Z</time>
      </trkpt>
      <trkpt lat="48.0832" lon="7.26021">
        <ele>257.2</ele>
        <time>2025-09-08T11:03:51Z</time>
      </trkpt>
      <trkpt lat="48.08324" lon="7.26026">
        <ele>257.2</ele>
        <time>2025-09-08T11:03:52Z</time>
      </trkpt>
      <trkpt lat="48.08327" lon="7.2603">
        <ele>257.2</ele>
        <time>2025-09-08T11:03:53Z</time>
      </trkpt>
      <trkpt lat="48.0833" lon="7.26035">
        <ele>257.2</ele>
        <time>2025-09-08T11:03:54Z</time>
      </trkpt>
      <trkpt lat="48.08333" lon="7.26039">
        <ele>257.2</ele>
        <time>2025-09-08T11:03:55Z</time>
      </trkpt>
      <trkpt lat="48.08336" lon="7.26044">
        <ele>257.2</ele>
        <time>2025-09-08T11:03:56Z</time>
      </trkpt>
      <trkpt lat="48.08339" lon="7.2605">
        <ele>257.2</ele>
        <time>2025-09-08T11:03:57Z</time>
      </trkpt>
      <trkpt lat="48.08341" lon="7.26055">
        <ele>257.2</ele>
        <time>2025-09-08T11:03:58Z</time>
      </trkpt>
      <trkpt lat="48.08344" lon="7.26059">
        <ele>257.2</ele>
        <time>2025-09-08T11:03:59Z</time>
      </trkpt>
      <trkpt lat="48.08347" lon="7.26061">
        <ele>257.2</ele>
        <time>2025-09-08T11:04:00Z</time>
      </trkpt>
      <trkpt lat="48.0835" lon="7.26059">
        <ele>257.2</ele>
        <time>2025-09-08T11:04:01Z</time>
      </trkpt>
      <trkpt lat="48.08351" lon="7.26056">
        <ele>257.2</ele>
        <time>2025-09-08T11:04:02Z</time>
      </trkpt>
      <trkpt lat="48.08351" lon="7.26051">
        <ele>257.2</ele>
        <time>2025-09-08T11:04:03Z</time>
      </trkpt>
      <trkpt lat="48.0835" lon="7.26046">
        <ele>257.2</ele>
        <time>2025-09-08T11:04:04Z</time>
      </trkpt>
      <trkpt lat="48.08348" lon="7.26041">
        <ele>257.2</ele>
        <time>2025-09-08T11:04:05Z</time>
      </trkpt>
      <trkpt lat="48.08345" lon="7.26036">
        <ele>257.2</ele>
        <time>2025-09-08T11:04:06Z</time>
      </trkpt>
      <trkpt lat="48.08342" lon="7.2603">
        <ele>257.2</ele>
        <time>2025-09-08T11:04:07Z</time>
      </trkpt>
      <trkpt lat="48.08339" lon="7.26024">
        <ele>257</ele>
        <time>2025-09-08T11:04:08Z</time>
      </trkpt>
      <trkpt lat="48.08336" lon="7.26018">
        <ele>256.4</ele>
        <time>2025-09-08T11:04:09Z</time>
      </trkpt>
      <trkpt lat="48.08334" lon="7.26013">
        <ele>256</ele>
        <time>2025-09-08T11:04:10Z</time>
      </trkpt>
      <trkpt lat="48.08331" lon="7.26009">
        <ele>255.8</ele>
        <time>2025-09-08T11:04:11Z</time>
      </trkpt>
      <trkpt lat="48.08329" lon="7.26004">
        <ele>255.6</ele>
        <time>2025-09-08T11:04:12Z</time>
      </trkpt>
      <trkpt lat="48.08327" lon="7.26">
        <ele>255.6</ele>
        <time>2025-09-08T11:04:13Z</time>
      </trkpt>
      <trkpt lat="48.08325" lon="7.25995">
        <ele>255.4</ele>
        <time>2025-09-08T11:04:14Z</time>
      </trkpt>
      <trkpt lat="48.08322" lon="7.25991">
        <ele>255.4</ele>
        <time>2025-09-08T11:04:15Z</time>
      </trkpt>
      <trkpt lat="48.0832" lon="7.25987">
        <ele>255.4</ele>
        <time>2025-09-08T11:04:16Z</time>
      </trkpt>
      <trkpt lat="48.08318" lon="7.25982">
        <ele>255.4</ele>
        <time>2025-09-08T11:04:17Z</time>
      </trkpt>
      <trkpt lat="48.08316" lon="7.25977">
        <ele>255.4</ele>
        <time>2025-09-08T11:04:18Z</time>
      </trkpt>
      <trkpt lat="48.08313" lon="7.25971">
        <ele>255.2</ele>
        <time>2025-09-08T11:04:19Z</time>
      </trkpt>
      <trkpt lat="48.08311" lon="7.25966">
        <ele>255.2</ele>
        <time>2025-09-08T11:04:20Z</time>
      </trkpt>
      <trkpt lat="48.08309" lon="7.2596">
        <ele>255.2</ele>
        <time>2025-09-08T11:04:21Z</time>
      </trkpt>
      <trkpt lat="48.08306" lon="7.25955">
        <ele>255.2</ele>
        <time>2025-09-08T11:04:22Z</time>
      </trkpt>
      <trkpt lat="48.08303" lon="7.2595">
        <ele>255.2</ele>
        <time>2025-09-08T11:04:23Z</time>
      </trkpt>
      <trkpt lat="48.083" lon="7.25945">
        <ele>255.2</ele>
        <time>2025-09-08T11:04:24Z</time>
      </trkpt>
      <trkpt lat="48.08298" lon="7.2594">
        <ele>255.2</ele>
        <time>2025-09-08T11:04:25Z</time>
      </trkpt>
      <trkpt lat="48.08295" lon="7.25936">
        <ele>255.2</ele>
        <time>2025-09-08T11:04:26Z</time>
      </trkpt>
      <trkpt lat="48.08293" lon="7.25932">
        <ele>255.4</ele>
        <time>2025-09-08T11:04:27Z</time>
      </trkpt>
      <trkpt lat="48.0829" lon="7.25928">
        <ele>255.4</ele>
        <time>2025-09-08T11:04:28Z</time>
      </trkpt>
      <trkpt lat="48.08288" lon="7.25925">
        <ele>255.4</ele>
        <time>2025-09-08T11:04:29Z</time>
      </trkpt>
      <trkpt lat="48.08287" lon="7.25922">
        <ele>255.4</ele>
        <time>2025-09-08T11:04:30Z</time>
      </trkpt>
      <trkpt lat="48.08285" lon="7.25919">
        <ele>255.4</ele>
        <time>2025-09-08T11:04:31Z</time>
      </trkpt>
      <trkpt lat="48.08282" lon="7.25915">
        <ele>255.6</ele>
        <time>2025-09-08T11:04:32Z</time>
      </trkpt>
      <trkpt lat="48.08279" lon="7.25913">
        <ele>255.6</ele>
        <time>2025-09-08T11:04:33Z</time>
      </trkpt>
      <trkpt lat="48.08275" lon="7.25909">
        <ele>255.6</ele>
        <time>2025-09-08T11:04:34Z</time>
      </trkpt>
      <trkpt lat="48.08272" lon="7.25906">
        <ele>255.6</ele>
        <time>2025-09-08T11:04:35Z</time>
      </trkpt>
      <trkpt lat="48.08269" lon="7.25902">
        <ele>255.6</ele>
        <time>2025-09-08T11:04:36Z</time>
      </trkpt>
      <trkpt lat="48.08266" lon="7.25899">
        <ele>255.6</ele>
        <time>2025-09-08T11:04:37Z</time>
      </trkpt>
      <trkpt lat="48.08263" lon="7.25895">
        <ele>255.6</ele>
        <time>2025-09-08T11:04:38Z</time>
      </trkpt>
      <trkpt lat="48.08259" lon="7.25891">
        <ele>255.6</ele>
        <time>2025-09-08T11:04:39Z</time>
      </trkpt>
      <trkpt lat="48.08256" lon="7.25887">
        <ele>255.6</ele>
        <time>2025-09-08T11:04:40Z</time>
      </trkpt>
      <trkpt lat="48.08253" lon="7.25884">
        <ele>255.6</ele>
        <time>2025-09-08T11:04:41Z</time>
      </trkpt>
      <trkpt lat="48.0825" lon="7.25879">
        <ele>255.6</ele>
        <time>2025-09-08T11:04:42Z</time>
      </trkpt>
      <trkpt lat="48.08247" lon="7.25874">
        <ele>255.8</ele>
        <time>2025-09-08T11:04:43Z</time>
      </trkpt>
      <trkpt lat="48.08244" lon="7.2587">
        <ele>255.8</ele>
        <time>2025-09-08T11:04:44Z</time>
      </trkpt>
      <trkpt lat="48.08241" lon="7.25865">
        <ele>255.8</ele>
        <time>2025-09-08T11:04:45Z</time>
      </trkpt>
      <trkpt lat="48.08239" lon="7.2586">
        <ele>255.8</ele>
        <time>2025-09-08T11:04:46Z</time>
      </trkpt>
      <trkpt lat="48.08237" lon="7.25855">
        <ele>256</ele>
        <time>2025-09-08T11:04:47Z</time>
      </trkpt>
      <trkpt lat="48.08234" lon="7.25851">
        <ele>256</ele>
        <time>2025-09-08T11:04:48Z</time>
      </trkpt>
      <trkpt lat="48.08232" lon="7.25847">
        <ele>256</ele>
        <time>2025-09-08T11:04:49Z</time>
      </trkpt>
      <trkpt lat="48.0823" lon="7.25842">
        <ele>256</ele>
        <time>2025-09-08T11:04:50Z</time>
      </trkpt>
      <trkpt lat="48.08227" lon="7.25837">
        <ele>256</ele>
        <time>2025-09-08T11:04:51Z</time>
      </trkpt>
      <trkpt lat="48.08225" lon="7.25832">
        <ele>256</ele>
        <time>2025-09-08T11:04:52Z</time>
      </trkpt>
      <trkpt lat="48.08223" lon="7.25826">
        <ele>256</ele>
        <time>2025-09-08T11:04:53Z</time>
      </trkpt>
      <trkpt lat="48.08221" lon="7.25821">
        <ele>256</ele>
        <time>2025-09-08T11:04:54Z</time>
      </trkpt>
      <trkpt lat="48.08219" lon="7.25815">
        <ele>256</ele>
        <time>2025-09-08T11:04:55Z</time>
      </trkpt>
      <trkpt lat="48.08217" lon="7.2581">
        <ele>256</ele>
        <time>2025-09-08T11:04:56Z</time>
      </trkpt>
      <trkpt lat="48.08215" lon="7.25805">
        <ele>256</ele>
        <time>2025-09-08T11:04:57Z</time>
      </trkpt>
      <trkpt lat="48.08213" lon="7.258">
        <ele>256.2</ele>
        <time>2025-09-08T11:04:58Z</time>
      </trkpt>
      <trkpt lat="48.08211" lon="7.25795">
        <ele>256.2</ele>
        <time>2025-09-08T11:04:59Z</time>
      </trkpt>
      <trkpt lat="48.08209" lon="7.25788">
        <ele>256.2</ele>
        <time>2025-09-08T11:05:00Z</time>
      </trkpt>
      <trkpt lat="48.08207" lon="7.25783">
        <ele>256.2</ele>
        <time>2025-09-08T11:05:01Z</time>
      </trkpt>
      <trkpt lat="48.08205" lon="7.25777">
        <ele>256.2</ele>
        <time>2025-09-08T11:05:02Z</time>
      </trkpt>
      <trkpt lat="48.08203" lon="7.25771">
        <ele>256.2</ele>
        <time>2025-09-08T11:05:03Z</time>
      </trkpt>
      <trkpt lat="48.08201" lon="7.25766">
        <ele>256.2</ele>
        <time>2025-09-08T11:05:04Z</time>
      </trkpt>
      <trkpt lat="48.08199" lon="7.2576">
        <ele>256.2</ele>
        <time>2025-09-08T11:05:05Z</time>
      </trkpt>
      <trkpt lat="48.08198" lon="7.25754">
        <ele>256.2</ele>
        <time>2025-09-08T11:05:06Z</time>
      </trkpt>
      <trkpt lat="48.08195" lon="7.25748">
        <ele>256.4</ele>
        <time>2025-09-08T11:05:07Z</time>
      </trkpt>
      <trkpt lat="48.08193" lon="7.25742">
        <ele>256.4</ele>
        <time>2025-09-08T11:05:08Z</time>
      </trkpt>
      <trkpt lat="48.0819" lon="7.25737">
        <ele>256.4</ele>
        <time>2025-09-08T11:05:09Z</time>
      </trkpt>
      <trkpt lat="48.08188" lon="7.25731">
        <ele>256.4</ele>
        <time>2025-09-08T11:05:10Z</time>
      </trkpt>
      <trkpt lat="48.08186" lon="7.25726">
        <ele>256.4</ele>
        <time>2025-09-08T11:05:11Z</time>
      </trkpt>
      <trkpt lat="48.08183" lon="7.2572">
        <ele>256.4</ele>
        <time>2025-09-08T11:05:12Z</time>
      </trkpt>
      <trkpt lat="48.08181" lon="7.25715">
        <ele>256.4</ele>
        <time>2025-09-08T11:05:13Z</time>
      </trkpt>
      <trkpt lat="48.08179" lon="7.2571">
        <ele>256.6</ele>
        <time>2025-09-08T11:05:14Z</time>
      </trkpt>
      <trkpt lat="48.08176" lon="7.25704">
        <ele>256.6</ele>
        <time>2025-09-08T11:05:15Z</time>
      </trkpt>
      <trkpt lat="48.08173" lon="7.25699">
        <ele>256.6</ele>
        <time>2025-09-08T11:05:16Z</time>
      </trkpt>
      <trkpt lat="48.0817" lon="7.25693">
        <ele>256.6</ele>
        <time>2025-09-08T11:05:17Z</time>
      </trkpt>
      <trkpt lat="48.08167" lon="7.25687">
        <ele>256.6</ele>
        <time>2025-09-08T11:05:18Z</time>
      </trkpt>
      <trkpt lat="48.08164" lon="7.25681">
        <ele>256.6</ele>
        <time>2025-09-08T11:05:19Z</time>
      </trkpt>
      <trkpt lat="48.08162" lon="7.25676">
        <ele>256.6</ele>
        <time>2025-09-08T11:05:20Z</time>
      </trkpt>
      <trkpt lat="48.08159" lon="7.2567">
        <ele>256.6</ele>
        <time>2025-09-08T11:05:21Z</time>
      </trkpt>
      <trkpt lat="48.08157" lon="7.25664">
        <ele>256.6</ele>
        <time>2025-09-08T11:05:22Z</time>
      </trkpt>
      <trkpt lat="48.08154" lon="7.25658">
        <ele>256.8</ele>
        <time>2025-09-08T11:05:23Z</time>
      </trkpt>
      <trkpt lat="48.08151" lon="7.25652">
        <ele>256.8</ele>
        <time>2025-09-08T11:05:24Z</time>
      </trkpt>
      <trkpt lat="48.08147" lon="7.25646">
        <ele>256.8</ele>
        <time>2025-09-08T11:05:25Z</time>
      </trkpt>
      <trkpt lat="48.08144" lon="7.25641">
        <ele>256.8</ele>
        <time>2025-09-08T11:05:26Z</time>
      </trkpt>
      <trkpt lat="48.08141" lon="7.25636">
        <ele>257</ele>
        <time>2025-09-08T11:05:27Z</time>
      </trkpt>
      <trkpt lat="48.08139" lon="7.2563">
        <ele>257</ele>
        <time>2025-09-08T11:05:28Z</time>
      </trkpt>
      <trkpt lat="48.08138" lon="7.25624">
        <ele>257.2</ele>
        <time>2025-09-08T11:05:29Z</time>
      </trkpt>
      <trkpt lat="48.08136" lon="7.25619">
        <ele>257.6</ele>
        <time>2025-09-08T11:05:30Z</time>
      </trkpt>
      <trkpt lat="48.08133" lon="7.25614">
        <ele>257.6</ele>
        <time>2025-09-08T11:05:31Z</time>
      </trkpt>
      <trkpt lat="48.0813" lon="7.25609">
        <ele>258</ele>
        <time>2025-09-08T11:05:32Z</time>
      </trkpt>
      <trkpt lat="48.08127" lon="7.25605">
        <ele>258.2</ele>
        <time>2025-09-08T11:05:33Z</time>
      </trkpt>
      <trkpt lat="48.08124" lon="7.25602">
        <ele>258.2</ele>
        <time>2025-09-08T11:05:34Z</time>
      </trkpt>
      <trkpt lat="48.0812" lon="7.25598">
        <ele>258.4</ele>
        <time>2025-09-08T11:05:35Z</time>
      </trkpt>
      <trkpt lat="48.08115" lon="7.25595">
        <ele>258.4</ele>
        <time>2025-09-08T11:05:36Z</time>
      </trkpt>
      <trkpt lat="48.08111" lon="7.25593">
        <ele>258.4</ele>
        <time>2025-09-08T11:05:37Z</time>
      </trkpt>
      <trkpt lat="48.08108" lon="7.2559">
        <ele>258.4</ele>
        <time>2025-09-08T11:05:38Z</time>
      </trkpt>
      <trkpt lat="48.08104" lon="7.25588">
        <ele>258.4</ele>
        <time>2025-09-08T11:05:39Z</time>
      </trkpt>
      <trkpt lat="48.081" lon="7.25586">
        <ele>258.4</ele>
        <time>2025-09-08T11:05:40Z</time>
      </trkpt>
      <trkpt lat="48.08096" lon="7.25584">
        <ele>258.4</ele>
        <time>2025-09-08T11:05:41Z</time>
      </trkpt>
      <trkpt lat="48.08092" lon="7.25582">
        <ele>258.6</ele>
        <time>2025-09-08T11:05:42Z</time>
      </trkpt>
      <trkpt lat="48.08088" lon="7.2558">
        <ele>258.6</ele>
        <time>2025-09-08T11:05:43Z</time>
      </trkpt>
      <trkpt lat="48.08083" lon="7.25579">
        <ele>258.6</ele>
        <time>2025-09-08T11:05:44Z</time>
      </trkpt>
      <trkpt lat="48.08079" lon="7.25578">
        <ele>258.6</ele>
        <time>2025-09-08T11:05:45Z</time>
      </trkpt>
      <trkpt lat="48.08074" lon="7.25576">
        <ele>258.6</ele>
        <time>2025-09-08T11:05:46Z</time>
      </trkpt>
      <trkpt lat="48.0807" lon="7.25575">
        <ele>258.6</ele>
        <time>2025-09-08T11:05:47Z</time>
      </trkpt>
      <trkpt lat="48.08066" lon="7.25574">
        <ele>258.6</ele>
        <time>2025-09-08T11:05:48Z</time>
      </trkpt>
      <trkpt lat="48.08061" lon="7.25574">
        <ele>258.6</ele>
        <time>2025-09-08T11:05:49Z</time>
      </trkpt>
      <trkpt lat="48.08056" lon="7.25573">
        <ele>258.8</ele>
        <time>2025-09-08T11:05:50Z</time>
      </trkpt>
      <trkpt lat="48.08052" lon="7.25572">
        <ele>258.8</ele>
        <time>2025-09-08T11:05:51Z</time>
      </trkpt>
      <trkpt lat="48.08047" lon="7.25571">
        <ele>258.8</ele>
        <time>2025-09-08T11:05:52Z</time>
      </trkpt>
      <trkpt lat="48.08042" lon="7.2557">
        <ele>258.8</ele>
        <time>2025-09-08T11:05:53Z</time>
      </trkpt>
      <trkpt lat="48.08037" lon="7.25569">
        <ele>258.8</ele>
        <time>2025-09-08T11:05:54Z</time>
      </trkpt>
      <trkpt lat="48.08033" lon="7.25568">
        <ele>258.8</ele>
        <time>2025-09-08T11:05:55Z</time>
      </trkpt>
      <trkpt lat="48.08028" lon="7.25566">
        <ele>258.8</ele>
        <time>2025-09-08T11:05:56Z</time>
      </trkpt>
      <trkpt lat="48.08023" lon="7.25565">
        <ele>258.8</ele>
        <time>2025-09-08T11:05:57Z</time>
      </trkpt>
      <trkpt lat="48.08018" lon="7.25562">
        <ele>258.8</ele>
        <time>2025-09-08T11:05:58Z</time>
      </trkpt>
      <trkpt lat="48.08014" lon="7.25561">
        <ele>258.8</ele>
        <time>2025-09-08T11:05:59Z</time>
      </trkpt>
      <trkpt lat="48.08009" lon="7.25559">
        <ele>258.8</ele>
        <time>2025-09-08T11:06:00Z</time>
      </trkpt>
      <trkpt lat="48.08005" lon="7.25557">
        <ele>259</ele>
        <time>2025-09-08T11:06:01Z</time>
      </trkpt>
      <trkpt lat="48.08001" lon="7.25554">
        <ele>259</ele>
        <time>2025-09-08T11:06:02Z</time>
      </trkpt>
      <trkpt lat="48.07996" lon="7.25552">
        <ele>259.2</ele>
        <time>2025-09-08T11:06:03Z</time>
      </trkpt>
      <trkpt lat="48.07992" lon="7.25549">
        <ele>259.2</ele>
        <time>2025-09-08T11:06:04Z</time>
      </trkpt>
      <trkpt lat="48.07987" lon="7.25547">
        <ele>259.2</ele>
        <time>2025-09-08T11:06:05Z</time>
      </trkpt>
      <trkpt lat="48.07983" lon="7.25544">
        <ele>259.2</ele>
        <time>2025-09-08T11:06:06Z</time>
      </trkpt>
      <trkpt lat="48.07979" lon="7.25541">
        <ele>259.4</ele>
        <time>2025-09-08T11:06:07Z</time>
      </trkpt>
      <trkpt lat="48.07975" lon="7.25538">
        <ele>259.4</ele>
        <time>2025-09-08T11:06:08Z</time>
      </trkpt>
      <trkpt lat="48.07971" lon="7.25535">
        <ele>259.6</ele>
        <time>2025-09-08T11:06:09Z</time>
      </trkpt>
      <trkpt lat="48.07966" lon="7.25532">
        <ele>259.6</ele>
        <time>2025-09-08T11:06:10Z</time>
      </trkpt>
      <trkpt lat="48.07962" lon="7.25529">
        <ele>259.6</ele>
        <time>2025-09-08T11:06:11Z</time>
      </trkpt>
      <trkpt lat="48.07958" lon="7.25525">
        <ele>259.8</ele>
        <time>2025-09-08T11:06:12Z</time>
      </trkpt>
      <trkpt lat="48.07955" lon="7.25522">
        <ele>259.8</ele>
        <time>2025-09-08T11:06:13Z</time>
      </trkpt>
      <trkpt lat="48.07951" lon="7.25518">
        <ele>259.8</ele>
        <time>2025-09-08T11:06:14Z</time>
      </trkpt>
      <trkpt lat="48.07947" lon="7.25514">
        <ele>259.8</ele>
        <time>2025-09-08T11:06:15Z</time>
      </trkpt>
      <trkpt lat="48.07944" lon="7.2551">
        <ele>260</ele>
        <time>2025-09-08T11:06:16Z</time>
      </trkpt>
      <trkpt lat="48.0794" lon="7.25507">
        <ele>260</ele>
        <time>2025-09-08T11:06:17Z</time>
      </trkpt>
      <trkpt lat="48.07937" lon="7.25504">
        <ele>260</ele>
        <time>2025-09-08T11:06:18Z</time>
      </trkpt>
      <trkpt lat="48.07934" lon="7.255">
        <ele>260</ele>
        <time>2025-09-08T11:06:19Z</time>
      </trkpt>
      <trkpt lat="48.0793" lon="7.25497">
        <ele>260.2</ele>
        <time>2025-09-08T11:06:20Z</time>
      </trkpt>
      <trkpt lat="48.07926" lon="7.25493">
        <ele>260.2</ele>
        <time>2025-09-08T11:06:21Z</time>
      </trkpt>
      <trkpt lat="48.07924" lon="7.25488">
        <ele>260.2</ele>
        <time>2025-09-08T11:06:22Z</time>
      </trkpt>
      <trkpt lat="48.07921" lon="7.25482">
        <ele>260.2</ele>
        <time>2025-09-08T11:06:23Z</time>
      </trkpt>
      <trkpt lat="48.07918" lon="7.25476">
        <ele>260.2</ele>
        <time>2025-09-08T11:06:24Z</time>
      </trkpt>
      <trkpt lat="48.07914" lon="7.25471">
        <ele>260.2</ele>
        <time>2025-09-08T11:06:25Z</time>
      </trkpt>
      <trkpt lat="48.07912" lon="7.25466">
        <ele>260.2</ele>
        <time>2025-09-08T11:06:26Z</time>
      </trkpt>
      <trkpt lat="48.07909" lon="7.2546">
        <ele>260.2</ele>
        <time>2025-09-08T11:06:27Z</time>
      </trkpt>
      <trkpt lat="48.07907" lon="7.25454">
        <ele>260.2</ele>
        <time>2025-09-08T11:06:28Z</time>
      </trkpt>
      <trkpt lat="48.07904" lon="7.25449">
        <ele>260.2</ele>
        <time>2025-09-08T11:06:29Z</time>
      </trkpt>
      <trkpt lat="48.07902" lon="7.25443">
        <ele>260.2</ele>
        <time>2025-09-08T11:06:30Z</time>
      </trkpt>
      <trkpt lat="48.079" lon="7.25437">
        <ele>260.2</ele>
        <time>2025-09-08T11:06:31Z</time>
      </trkpt>
      <trkpt lat="48.07897" lon="7.25431">
        <ele>260.2</ele>
        <time>2025-09-08T11:06:32Z</time>
      </trkpt>
      <trkpt lat="48.07895" lon="7.25425">
        <ele>260.4</ele>
        <time>2025-09-08T11:06:33Z</time>
      </trkpt>
      <trkpt lat="48.07892" lon="7.25419">
        <ele>260.4</ele>
        <time>2025-09-08T11:06:34Z</time>
      </trkpt>
      <trkpt lat="48.0789" lon="7.25413">
        <ele>260.6</ele>
        <time>2025-09-08T11:06:35Z</time>
      </trkpt>
      <trkpt lat="48.07888" lon="7.25406">
        <ele>260.6</ele>
        <time>2025-09-08T11:06:36Z</time>
      </trkpt>
      <trkpt lat="48.07886" lon="7.254">
        <ele>260.6</ele>
        <time>2025-09-08T11:06:37Z</time>
      </trkpt>
      <trkpt lat="48.07884" lon="7.25394">
        <ele>260.6</ele>
        <time>2025-09-08T11:06:38Z</time>
      </trkpt>
      <trkpt lat="48.07882" lon="7.25388">
        <ele>260.6</ele>
        <time>2025-09-08T11:06:39Z</time>
      </trkpt>
      <trkpt lat="48.0788" lon="7.25382">
        <ele>260.6</ele>
        <time>2025-09-08T11:06:40Z</time>
      </trkpt>
      <trkpt lat="48.07878" lon="7.25375">
        <ele>260.6</ele>
        <time>2025-09-08T11:06:41Z</time>
      </trkpt>
      <trkpt lat="48.07876" lon="7.25369">
        <ele>260.6</ele>
        <time>2025-09-08T11:06:42Z</time>
      </trkpt>
      <trkpt lat="48.07873" lon="7.25363">
        <ele>260.6</ele>
        <time>2025-09-08T11:06:43Z</time>
      </trkpt>
      <trkpt lat="48.07871" lon="7.25356">
        <ele>260.6</ele>
        <time>2025-09-08T11:06:44Z</time>
      </trkpt>
      <trkpt lat="48.0787" lon="7.25349">
        <ele>260.6</ele>
        <time>2025-09-08T11:06:45Z</time>
      </trkpt>
      <trkpt lat="48.07868" lon="7.25342">
        <ele>260.6</ele>
        <time>2025-09-08T11:06:46Z</time>
      </trkpt>
      <trkpt lat="48.07866" lon="7.25336">
        <ele>260.6</ele>
        <time>2025-09-08T11:06:47Z</time>
      </trkpt>
      <trkpt lat="48.07863" lon="7.25329">
        <ele>260.6</ele>
        <time>2025-09-08T11:06:48Z</time>
      </trkpt>
      <trkpt lat="48.07861" lon="7.25323">
        <ele>260.6</ele>
        <time>2025-09-08T11:06:49Z</time>
      </trkpt>
      <trkpt lat="48.07858" lon="7.25317">
        <ele>260.8</ele>
        <time>2025-09-08T11:06:50Z</time>
      </trkpt>
      <trkpt lat="48.07855" lon="7.2531">
        <ele>260.8</ele>
        <time>2025-09-08T11:06:51Z</time>
      </trkpt>
      <trkpt lat="48.07851" lon="7.25304">
        <ele>260.8</ele>
        <time>2025-09-08T11:06:52Z</time>
      </trkpt>
      <trkpt lat="48.07849" lon="7.25297">
        <ele>261</ele>
        <time>2025-09-08T11:06:53Z</time>
      </trkpt>
      <trkpt lat="48.07846" lon="7.2529">
        <ele>261</ele>
        <time>2025-09-08T11:06:54Z</time>
      </trkpt>
      <trkpt lat="48.07844" lon="7.25283">
        <ele>260.8</ele>
        <time>2025-09-08T11:06:55Z</time>
      </trkpt>
      <trkpt lat="48.07841" lon="7.25277">
        <ele>261</ele>
        <time>2025-09-08T11:06:56Z</time>
      </trkpt>
      <trkpt lat="48.07839" lon="7.25271">
        <ele>261</ele>
        <time>2025-09-08T11:06:57Z</time>
      </trkpt>
      <trkpt lat="48.07836" lon="7.25265">
        <ele>261</ele>
        <time>2025-09-08T11:06:58Z</time>
      </trkpt>
      <trkpt lat="48.07833" lon="7.25259">
        <ele>261</ele>
        <time>2025-09-08T11:06:59Z</time>
      </trkpt>
      <trkpt lat="48.0783" lon="7.25254">
        <ele>261</ele>
        <time>2025-09-08T11:07:00Z</time>
      </trkpt>
      <trkpt lat="48.07826" lon="7.25249">
        <ele>261</ele>
        <time>2025-09-08T11:07:01Z</time>
      </trkpt>
      <trkpt lat="48.07822" lon="7.25243">
        <ele>261</ele>
        <time>2025-09-08T11:07:02Z</time>
      </trkpt>
      <trkpt lat="48.07818" lon="7.25239">
        <ele>261</ele>
        <time>2025-09-08T11:07:03Z</time>
      </trkpt>
      <trkpt lat="48.07814" lon="7.25235">
        <ele>261.2</ele>
        <time>2025-09-08T11:07:04Z</time>
      </trkpt>
      <trkpt lat="48.07809" lon="7.25231">
        <ele>261.2</ele>
        <time>2025-09-08T11:07:05Z</time>
      </trkpt>
      <trkpt lat="48.07805" lon="7.25227">
        <ele>261.2</ele>
        <time>2025-09-08T11:07:06Z</time>
      </trkpt>
      <trkpt lat="48.07801" lon="7.25224">
        <ele>261.2</ele>
        <time>2025-09-08T11:07:07Z</time>
      </trkpt>
      <trkpt lat="48.07796" lon="7.25221">
        <ele>261.2</ele>
        <time>2025-09-08T11:07:08Z</time>
      </trkpt>
      <trkpt lat="48.07791" lon="7.25219">
        <ele>261.4</ele>
        <time>2025-09-08T11:07:09Z</time>
      </trkpt>
      <trkpt lat="48.07786" lon="7.25218">
        <ele>261.4</ele>
        <time>2025-09-08T11:07:10Z</time>
      </trkpt>
      <trkpt lat="48.07781" lon="7.25217">
        <ele>261.4</ele>
        <time>2025-09-08T11:07:11Z</time>
      </trkpt>
      <trkpt lat="48.07776" lon="7.25215">
        <ele>261.4</ele>
        <time>2025-09-08T11:07:12Z</time>
      </trkpt>
      <trkpt lat="48.0777" lon="7.25214">
        <ele>261.4</ele>
        <time>2025-09-08T11:07:13Z</time>
      </trkpt>
      <trkpt lat="48.07765" lon="7.25213">
        <ele>261.6</ele>
        <time>2025-09-08T11:07:14Z</time>
      </trkpt>
      <trkpt lat="48.0776" lon="7.25213">
        <ele>261.6</ele>
        <time>2025-09-08T11:07:15Z</time>
      </trkpt>
      <trkpt lat="48.07755" lon="7.25213">
        <ele>261.6</ele>
        <time>2025-09-08T11:07:16Z</time>
      </trkpt>
      <trkpt lat="48.0775" lon="7.25215">
        <ele>261.6</ele>
        <time>2025-09-08T11:07:17Z</time>
      </trkpt>
      <trkpt lat="48.07745" lon="7.25215">
        <ele>261.8</ele>
        <time>2025-09-08T11:07:18Z</time>
      </trkpt>
      <trkpt lat="48.07741" lon="7.25216">
        <ele>261.8</ele>
        <time>2025-09-08T11:07:19Z</time>
      </trkpt>
      <trkpt lat="48.07737" lon="7.25216">
        <ele>261.8</ele>
        <time>2025-09-08T11:07:20Z</time>
      </trkpt>
      <trkpt lat="48.07732" lon="7.25215">
        <ele>261.8</ele>
        <time>2025-09-08T11:07:21Z</time>
      </trkpt>
      <trkpt lat="48.07728" lon="7.25216">
        <ele>262</ele>
        <time>2025-09-08T11:07:22Z</time>
      </trkpt>
      <trkpt lat="48.07724" lon="7.25217">
        <ele>262</ele>
        <time>2025-09-08T11:07:23Z</time>
      </trkpt>
      <trkpt lat="48.0772" lon="7.25219">
        <ele>262.2</ele>
        <time>2025-09-08T11:07:24Z</time>
      </trkpt>
      <trkpt lat="48.07716" lon="7.2522">
        <ele>262.2</ele>
        <time>2025-09-08T11:07:25Z</time>
      </trkpt>
      <trkpt lat="48.07712" lon="7.25222">
        <ele>262.2</ele>
        <time>2025-09-08T11:07:26Z</time>
      </trkpt>
      <trkpt lat="48.07708" lon="7.25224">
        <ele>262.2</ele>
        <time>2025-09-08T11:07:27Z</time>
      </trkpt>
      <trkpt lat="48.07704" lon="7.25226">
        <ele>262.2</ele>
        <time>2025-09-08T11:07:28Z</time>
      </trkpt>
      <trkpt lat="48.077" lon="7.25229">
        <ele>262.2</ele>
        <time>2025-09-08T11:07:29Z</time>
      </trkpt>
      <trkpt lat="48.07696" lon="7.25231">
        <ele>262.2</ele>
        <time>2025-09-08T11:07:30Z</time>
      </trkpt>
      <trkpt lat="48.07691" lon="7.25233">
        <ele>262.2</ele>
        <time>2025-09-08T11:07:31Z</time>
      </trkpt>
      <trkpt lat="48.07687" lon="7.25236">
        <ele>262.2</ele>
        <time>2025-09-08T11:07:32Z</time>
      </trkpt>
      <trkpt lat="48.07683" lon="7.25239">
        <ele>262.2</ele>
        <time>2025-09-08T11:07:33Z</time>
      </trkpt>
      <trkpt lat="48.07679" lon="7.25242">
        <ele>262.4</ele>
        <time>2025-09-08T11:07:34Z</time>
      </trkpt>
      <trkpt lat="48.07675" lon="7.25245">
        <ele>262.4</ele>
        <time>2025-09-08T11:07:35Z</time>
      </trkpt>
      <trkpt lat="48.07671" lon="7.25248">
        <ele>262.6</ele>
        <time>2025-09-08T11:07:36Z</time>
      </trkpt>
      <trkpt lat="48.07667" lon="7.2525">
        <ele>262.6</ele>
        <time>2025-09-08T11:07:37Z</time>
      </trkpt>
      <trkpt lat="48.07662" lon="7.25253">
        <ele>262.8</ele>
        <time>2025-09-08T11:07:38Z</time>
      </trkpt>
      <trkpt lat="48.07657" lon="7.25256">
        <ele>262.8</ele>
        <time>2025-09-08T11:07:39Z</time>
      </trkpt>
      <trkpt lat="48.07652" lon="7.25258">
        <ele>262.8</ele>
        <time>2025-09-08T11:07:40Z</time>
      </trkpt>
      <trkpt lat="48.07647" lon="7.2526">
        <ele>262.8</ele>
        <time>2025-09-08T11:07:41Z</time>
      </trkpt>
      <trkpt lat="48.07643" lon="7.25261">
        <ele>263</ele>
        <time>2025-09-08T11:07:42Z</time>
      </trkpt>
      <trkpt lat="48.07639" lon="7.25262">
        <ele>263</ele>
        <time>2025-09-08T11:07:43Z</time>
      </trkpt>
      <trkpt lat="48.07636" lon="7.25263">
        <ele>263.2</ele>
        <time>2025-09-08T11:07:44Z</time>
      </trkpt>
      <trkpt lat="48.07633" lon="7.25263">
        <ele>263.6</ele>
        <time>2025-09-08T11:07:45Z</time>
      </trkpt>
      <trkpt lat="48.0763" lon="7.25263">
        <ele>263.8</ele>
        <time>2025-09-08T11:07:46Z</time>
      </trkpt>
      <trkpt lat="48.07627" lon="7.25262">
        <ele>264.4</ele>
        <time>2025-09-08T11:07:47Z</time>
      </trkpt>
      <trkpt lat="48.07623" lon="7.25262">
        <ele>264.8</ele>
        <time>2025-09-08T11:07:48Z</time>
      </trkpt>
      <trkpt lat="48.07619" lon="7.25263">
        <ele>264.8</ele>
        <time>2025-09-08T11:07:49Z</time>
      </trkpt>
      <trkpt lat="48.07614" lon="7.25263">
        <ele>264.8</ele>
        <time>2025-09-08T11:07:50Z</time>
      </trkpt>
      <trkpt lat="48.07609" lon="7.25262">
        <ele>264.8</ele>
        <time>2025-09-08T11:07:51Z</time>
      </trkpt>
      <trkpt lat="48.07605" lon="7.25259">
        <ele>264.8</ele>
        <time>2025-09-08T11:07:52Z</time>
      </trkpt>
      <trkpt lat="48.07601" lon="7.25255">
        <ele>264.8</ele>
        <time>2025-09-08T11:07:53Z</time>
      </trkpt>
      <trkpt lat="48.07596" lon="7.25252">
        <ele>264.4</ele>
        <time>2025-09-08T11:07:54Z</time>
      </trkpt>
      <trkpt lat="48.07592" lon="7.25249">
        <ele>264.4</ele>
        <time>2025-09-08T11:07:55Z</time>
      </trkpt>
      <trkpt lat="48.07588" lon="7.25245">
        <ele>264.4</ele>
        <time>2025-09-08T11:07:56Z</time>
      </trkpt>
      <trkpt lat="48.07584" lon="7.25241">
        <ele>264.2</ele>
        <time>2025-09-08T11:07:57Z</time>
      </trkpt>
      <trkpt lat="48.07581" lon="7.25237">
        <ele>264.2</ele>
        <time>2025-09-08T11:07:58Z</time>
      </trkpt>
      <trkpt lat="48.07577" lon="7.25233">
        <ele>264.2</ele>
        <time>2025-09-08T11:07:59Z</time>
      </trkpt>
      <trkpt lat="48.07573" lon="7.2523">
        <ele>264.2</ele>
        <time>2025-09-08T11:08:00Z</time>
      </trkpt>
      <trkpt lat="48.07569" lon="7.25226">
        <ele>264</ele>
        <time>2025-09-08T11:08:01Z</time>
      </trkpt>
      <trkpt lat="48.07566" lon="7.25222">
        <ele>264</ele>
        <time>2025-09-08T11:08:02Z</time>
      </trkpt>
      <trkpt lat="48.07563" lon="7.25218">
        <ele>264</ele>
        <time>2025-09-08T11:08:03Z</time>
      </trkpt>
      <trkpt lat="48.0756" lon="7.25213">
        <ele>264</ele>
        <time>2025-09-08T11:08:04Z</time>
      </trkpt>
      <trkpt lat="48.07557" lon="7.25208">
        <ele>264</ele>
        <time>2025-09-08T11:08:05Z</time>
      </trkpt>
      <trkpt lat="48.07554" lon="7.25203">
        <ele>264</ele>
        <time>2025-09-08T11:08:06Z</time>
      </trkpt>
      <trkpt lat="48.07551" lon="7.25198">
        <ele>264</ele>
        <time>2025-09-08T11:08:07Z</time>
      </trkpt>
      <trkpt lat="48.07549" lon="7.25192">
        <ele>264</ele>
        <time>2025-09-08T11:08:08Z</time>
      </trkpt>
      <trkpt lat="48.07546" lon="7.25186">
        <ele>264</ele>
        <time>2025-09-08T11:08:09Z</time>
      </trkpt>
      <trkpt lat="48.07544" lon="7.25178">
        <ele>264</ele>
        <time>2025-09-08T11:08:10Z</time>
      </trkpt>
      <trkpt lat="48.07542" lon="7.25171">
        <ele>264</ele>
        <time>2025-09-08T11:08:11Z</time>
      </trkpt>
      <trkpt lat="48.07541" lon="7.25164">
        <ele>264</ele>
        <time>2025-09-08T11:08:12Z</time>
      </trkpt>
      <trkpt lat="48.0754" lon="7.25157">
        <ele>264</ele>
        <time>2025-09-08T11:08:13Z</time>
      </trkpt>
      <trkpt lat="48.07538" lon="7.2515">
        <ele>264</ele>
        <time>2025-09-08T11:08:14Z</time>
      </trkpt>
      <trkpt lat="48.07537" lon="7.25143">
        <ele>264</ele>
        <time>2025-09-08T11:08:15Z</time>
      </trkpt>
      <trkpt lat="48.07535" lon="7.25136">
        <ele>264</ele>
        <time>2025-09-08T11:08:16Z</time>
      </trkpt>
      <trkpt lat="48.07534" lon="7.25129">
        <ele>264</ele>
        <time>2025-09-08T11:08:17Z</time>
      </trkpt>
      <trkpt lat="48.07533" lon="7.25122">
        <ele>264.2</ele>
        <time>2025-09-08T11:08:18Z</time>
      </trkpt>
      <trkpt lat="48.07532" lon="7.25115">
        <ele>264.2</ele>
        <time>2025-09-08T11:08:19Z</time>
      </trkpt>
      <trkpt lat="48.07531" lon="7.25109">
        <ele>264.2</ele>
        <time>2025-09-08T11:08:20Z</time>
      </trkpt>
      <trkpt lat="48.07529" lon="7.25102">
        <ele>264.2</ele>
        <time>2025-09-08T11:08:21Z</time>
      </trkpt>
      <trkpt lat="48.07528" lon="7.25096">
        <ele>264.2</ele>
        <time>2025-09-08T11:08:22Z</time>
      </trkpt>
      <trkpt lat="48.07528" lon="7.25089">
        <ele>264.2</ele>
        <time>2025-09-08T11:08:23Z</time>
      </trkpt>
      <trkpt lat="48.07527" lon="7.25083">
        <ele>264.2</ele>
        <time>2025-09-08T11:08:24Z</time>
      </trkpt>
      <trkpt lat="48.07526" lon="7.25076">
        <ele>264.2</ele>
        <time>2025-09-08T11:08:25Z</time>
      </trkpt>
      <trkpt lat="48.07524" lon="7.25069">
        <ele>264.2</ele>
        <time>2025-09-08T11:08:26Z</time>
      </trkpt>
      <trkpt lat="48.07522" lon="7.25062">
        <ele>264.4</ele>
        <time>2025-09-08T11:08:27Z</time>
      </trkpt>
      <trkpt lat="48.0752" lon="7.25055">
        <ele>264.4</ele>
        <time>2025-09-08T11:08:28Z</time>
      </trkpt>
      <trkpt lat="48.07519" lon="7.25049">
        <ele>264.4</ele>
        <time>2025-09-08T11:08:29Z</time>
      </trkpt>
      <trkpt lat="48.07517" lon="7.25042">
        <ele>264.4</ele>
        <time>2025-09-08T11:08:30Z</time>
      </trkpt>
      <trkpt lat="48.07515" lon="7.25035">
        <ele>264.4</ele>
        <time>2025-09-08T11:08:31Z</time>
      </trkpt>
      <trkpt lat="48.07513" lon="7.25029">
        <ele>264.4</ele>
        <time>2025-09-08T11:08:32Z</time>
      </trkpt>
      <trkpt lat="48.0751" lon="7.25023">
        <ele>264.6</ele>
        <time>2025-09-08T11:08:33Z</time>
      </trkpt>
      <trkpt lat="48.07506" lon="7.25017">
        <ele>264.6</ele>
        <time>2025-09-08T11:08:34Z</time>
      </trkpt>
      <trkpt lat="48.07502" lon="7.25012">
        <ele>264.6</ele>
        <time>2025-09-08T11:08:35Z</time>
      </trkpt>
      <trkpt lat="48.07498" lon="7.25007">
        <ele>264.8</ele>
        <time>2025-09-08T11:08:36Z</time>
      </trkpt>
      <trkpt lat="48.07494" lon="7.25002">
        <ele>264.8</ele>
        <time>2025-09-08T11:08:37Z</time>
      </trkpt>
      <trkpt lat="48.07491" lon="7.24997">
        <ele>264.8</ele>
        <time>2025-09-08T11:08:38Z</time>
      </trkpt>
      <trkpt lat="48.07487" lon="7.24993">
        <ele>265</ele>
        <time>2025-09-08T11:08:39Z</time>
      </trkpt>
      <trkpt lat="48.07483" lon="7.24989">
        <ele>265.2</ele>
        <time>2025-09-08T11:08:40Z</time>
      </trkpt>
      <trkpt lat="48.0748" lon="7.24984">
        <ele>265.4</ele>
        <time>2025-09-08T11:08:41Z</time>
      </trkpt>
      <trkpt lat="48.07477" lon="7.24978">
        <ele>265.6</ele>
        <time>2025-09-08T11:08:42Z</time>
      </trkpt>
      <trkpt lat="48.07474" lon="7.24973">
        <ele>265.6</ele>
        <time>2025-09-08T11:08:43Z</time>
      </trkpt>
      <trkpt lat="48.07471" lon="7.24967">
        <ele>265.8</ele>
        <time>2025-09-08T11:08:44Z</time>
      </trkpt>
      <trkpt lat="48.07468" lon="7.24962">
        <ele>266</ele>
        <time>2025-09-08T11:08:45Z</time>
      </trkpt>
      <trkpt lat="48.07464" lon="7.24957">
        <ele>266</ele>
        <time>2025-09-08T11:08:46Z</time>
      </trkpt>
      <trkpt lat="48.07461" lon="7.24951">
        <ele>266</ele>
        <time>2025-09-08T11:08:47Z</time>
      </trkpt>
      <trkpt lat="48.07458" lon="7.24945">
        <ele>266.2</ele>
        <time>2025-09-08T11:08:48Z</time>
      </trkpt>
      <trkpt lat="48.07456" lon="7.24938">
        <ele>266.2</ele>
        <time>2025-09-08T11:08:49Z</time>
      </trkpt>
      <trkpt lat="48.07454" lon="7.24932">
        <ele>266.2</ele>
        <time>2025-09-08T11:08:50Z</time>
      </trkpt>
      <trkpt lat="48.07452" lon="7.24925">
        <ele>266.2</ele>
        <time>2025-09-08T11:08:51Z</time>
      </trkpt>
      <trkpt lat="48.07449" lon="7.24918">
        <ele>266.2</ele>
        <time>2025-09-08T11:08:52Z</time>
      </trkpt>
      <trkpt lat="48.07448" lon="7.24911">
        <ele>266.2</ele>
        <time>2025-09-08T11:08:53Z</time>
      </trkpt>
      <trkpt lat="48.07446" lon="7.24904">
        <ele>266.2</ele>
        <time>2025-09-08T11:08:54Z</time>
      </trkpt>
      <trkpt lat="48.07445" lon="7.24896">
        <ele>266.2</ele>
        <time>2025-09-08T11:08:55Z</time>
      </trkpt>
      <trkpt lat="48.07444" lon="7.24888">
        <ele>266.2</ele>
        <time>2025-09-08T11:08:56Z</time>
      </trkpt>
      <trkpt lat="48.07442" lon="7.24881">
        <ele>266.2</ele>
        <time>2025-09-08T11:08:57Z</time>
      </trkpt>
      <trkpt lat="48.07441" lon="7.24874">
        <ele>266.2</ele>
        <time>2025-09-08T11:08:58Z</time>
      </trkpt>
      <trkpt lat="48.0744" lon="7.24866">
        <ele>266.2</ele>
        <time>2025-09-08T11:08:59Z</time>
      </trkpt>
      <trkpt lat="48.0744" lon="7.24859">
        <ele>266.2</ele>
        <time>2025-09-08T11:09:00Z</time>
      </trkpt>
      <trkpt lat="48.07438" lon="7.24851">
        <ele>266.4</ele>
        <time>2025-09-08T11:09:01Z</time>
      </trkpt>
      <trkpt lat="48.07437" lon="7.24844">
        <ele>266.4</ele>
        <time>2025-09-08T11:09:02Z</time>
      </trkpt>
      <trkpt lat="48.07437" lon="7.24837">
        <ele>266.4</ele>
        <time>2025-09-08T11:09:03Z</time>
      </trkpt>
      <trkpt lat="48.07436" lon="7.24829">
        <ele>266.6</ele>
        <time>2025-09-08T11:09:04Z</time>
      </trkpt>
      <trkpt lat="48.07435" lon="7.24822">
        <ele>266.6</ele>
        <time>2025-09-08T11:09:05Z</time>
      </trkpt>
      <trkpt lat="48.07435" lon="7.24815">
        <ele>266.8</ele>
        <time>2025-09-08T11:09:06Z</time>
      </trkpt>
      <trkpt lat="48.07434" lon="7.24808">
        <ele>267</ele>
        <time>2025-09-08T11:09:07Z</time>
      </trkpt>
      <trkpt lat="48.07433" lon="7.24801">
        <ele>267.2</ele>
        <time>2025-09-08T11:09:08Z</time>
      </trkpt>
      <trkpt lat="48.07433" lon="7.24793">
        <ele>267.4</ele>
        <time>2025-09-08T11:09:09Z</time>
      </trkpt>
      <trkpt lat="48.07431" lon="7.24786">
        <ele>267.4</ele>
        <time>2025-09-08T11:09:10Z</time>
      </trkpt>
      <trkpt lat="48.07429" lon="7.24779">
        <ele>267.4</ele>
        <time>2025-09-08T11:09:11Z</time>
      </trkpt>
      <trkpt lat="48.07427" lon="7.24771">
        <ele>267.4</ele>
        <time>2025-09-08T11:09:12Z</time>
      </trkpt>
      <trkpt lat="48.07425" lon="7.24764">
        <ele>267.4</ele>
        <time>2025-09-08T11:09:13Z</time>
      </trkpt>
      <trkpt lat="48.07422" lon="7.24757">
        <ele>267.6</ele>
        <time>2025-09-08T11:09:14Z</time>
      </trkpt>
      <trkpt lat="48.07419" lon="7.24751">
        <ele>267.4</ele>
        <time>2025-09-08T11:09:15Z</time>
      </trkpt>
      <trkpt lat="48.07415" lon="7.24744">
        <ele>267.4</ele>
        <time>2025-09-08T11:09:16Z</time>
      </trkpt>
      <trkpt lat="48.07412" lon="7.24738">
        <ele>267.6</ele>
        <time>2025-09-08T11:09:17Z</time>
      </trkpt>
      <trkpt lat="48.07409" lon="7.24732">
        <ele>267.6</ele>
        <time>2025-09-08T11:09:18Z</time>
      </trkpt>
      <trkpt lat="48.07405" lon="7.24727">
        <ele>267.6</ele>
        <time>2025-09-08T11:09:19Z</time>
      </trkpt>
      <trkpt lat="48.07401" lon="7.24721">
        <ele>267.6</ele>
        <time>2025-09-08T11:09:20Z</time>
      </trkpt>
      <trkpt lat="48.07397" lon="7.24717">
        <ele>267.6</ele>
        <time>2025-09-08T11:09:21Z</time>
      </trkpt>
      <trkpt lat="48.07393" lon="7.24713">
        <ele>267.6</ele>
        <time>2025-09-08T11:09:22Z</time>
      </trkpt>
      <trkpt lat="48.07389" lon="7.2471">
        <ele>267.8</ele>
        <time>2025-09-08T11:09:23Z</time>
      </trkpt>
      <trkpt lat="48.07385" lon="7.24707">
        <ele>267.8</ele>
        <time>2025-09-08T11:09:24Z</time>
      </trkpt>
      <trkpt lat="48.0738" lon="7.24703">
        <ele>267.8</ele>
        <time>2025-09-08T11:09:25Z</time>
      </trkpt>
      <trkpt lat="48.07375" lon="7.247">
        <ele>267.8</ele>
        <time>2025-09-08T11:09:26Z</time>
      </trkpt>
      <trkpt lat="48.0737" lon="7.24697">
        <ele>267.8</ele>
        <time>2025-09-08T11:09:27Z</time>
      </trkpt>
      <trkpt lat="48.07364" lon="7.24695">
        <ele>268</ele>
        <time>2025-09-08T11:09:28Z</time>
      </trkpt>
      <trkpt lat="48.07359" lon="7.24694">
        <ele>268</ele>
        <time>2025-09-08T11:09:29Z</time>
      </trkpt>
      <trkpt lat="48.07354" lon="7.24694">
        <ele>268</ele>
        <time>2025-09-08T11:09:30Z</time>
      </trkpt>
      <trkpt lat="48.0735" lon="7.24693">
        <ele>268</ele>
        <time>2025-09-08T11:09:31Z</time>
      </trkpt>
      <trkpt lat="48.07345" lon="7.24693">
        <ele>268.2</ele>
        <time>2025-09-08T11:09:32Z</time>
      </trkpt>
      <trkpt lat="48.0734" lon="7.24693">
        <ele>268.2</ele>
        <time>2025-09-08T11:09:33Z</time>
      </trkpt>
      <trkpt lat="48.07335" lon="7.24693">
        <ele>268.2</ele>
        <time>2025-09-08T11:09:34Z</time>
      </trkpt>
      <trkpt lat="48.0733" lon="7.24693">
        <ele>268.4</ele>
        <time>2025-09-08T11:09:35Z</time>
      </trkpt>
      <trkpt lat="48.07325" lon="7.24692">
        <ele>268.4</ele>
        <time>2025-09-08T11:09:36Z</time>
      </trkpt>
      <trkpt lat="48.0732" lon="7.24692">
        <ele>268.4</ele>
        <time>2025-09-08T11:09:37Z</time>
      </trkpt>
      <trkpt lat="48.07315" lon="7.24693">
        <ele>268.6</ele>
        <time>2025-09-08T11:09:38Z</time>
      </trkpt>
      <trkpt lat="48.0731" lon="7.24694">
        <ele>268.6</ele>
        <time>2025-09-08T11:09:39Z</time>
      </trkpt>
      <trkpt lat="48.07305" lon="7.24695">
        <ele>268.6</ele>
        <time>2025-09-08T11:09:40Z</time>
      </trkpt>
      <trkpt lat="48.073" lon="7.24696">
        <ele>268.6</ele>
        <time>2025-09-08T11:09:41Z</time>
      </trkpt>
      <trkpt lat="48.07296" lon="7.24697">
        <ele>268.6</ele>
        <time>2025-09-08T11:09:42Z</time>
      </trkpt>
      <trkpt lat="48.07292" lon="7.24698">
        <ele>268.8</ele>
        <time>2025-09-08T11:09:43Z</time>
      </trkpt>
      <trkpt lat="48.07287" lon="7.24699">
        <ele>269</ele>
        <time>2025-09-08T11:09:44Z</time>
      </trkpt>
      <trkpt lat="48.07281" lon="7.24699">
        <ele>269.2</ele>
        <time>2025-09-08T11:09:45Z</time>
      </trkpt>
      <trkpt lat="48.07276" lon="7.24701">
        <ele>269.2</ele>
        <time>2025-09-08T11:09:46Z</time>
      </trkpt>
      <trkpt lat="48.07271" lon="7.24702">
        <ele>269.2</ele>
        <time>2025-09-08T11:09:47Z</time>
      </trkpt>
      <trkpt lat="48.07266" lon="7.24703">
        <ele>269.4</ele>
        <time>2025-09-08T11:09:48Z</time>
      </trkpt>
      <trkpt lat="48.07261" lon="7.24704">
        <ele>269.4</ele>
        <time>2025-09-08T11:09:49Z</time>
      </trkpt>
      <trkpt lat="48.07256" lon="7.24704">
        <ele>269.4</ele>
        <time>2025-09-08T11:09:50Z</time>
      </trkpt>
      <trkpt lat="48.07251" lon="7.24705">
        <ele>269.4</ele>
        <time>2025-09-08T11:09:51Z</time>
      </trkpt>
      <trkpt lat="48.07246" lon="7.24707">
        <ele>269.4</ele>
        <time>2025-09-08T11:09:52Z</time>
      </trkpt>
      <trkpt lat="48.07242" lon="7.24708">
        <ele>269.6</ele>
        <time>2025-09-08T11:09:53Z</time>
      </trkpt>
      <trkpt lat="48.07237" lon="7.2471">
        <ele>269.6</ele>
        <time>2025-09-08T11:09:54Z</time>
      </trkpt>
      <trkpt lat="48.07232" lon="7.24711">
        <ele>269.6</ele>
        <time>2025-09-08T11:09:55Z</time>
      </trkpt>
      <trkpt lat="48.07228" lon="7.24713">
        <ele>269.6</ele>
        <time>2025-09-08T11:09:56Z</time>
      </trkpt>
      <trkpt lat="48.07223" lon="7.24713">
        <ele>269.6</ele>
        <time>2025-09-08T11:09:57Z</time>
      </trkpt>
      <trkpt lat="48.07218" lon="7.24714">
        <ele>269.6</ele>
        <time>2025-09-08T11:09:58Z</time>
      </trkpt>
      <trkpt lat="48.07213" lon="7.24715">
        <ele>269.4</ele>
        <time>2025-09-08T11:09:59Z</time>
      </trkpt>
      <trkpt lat="48.07208" lon="7.24716">
        <ele>269.6</ele>
        <time>2025-09-08T11:10:00Z</time>
      </trkpt>
      <trkpt lat="48.07203" lon="7.24717">
        <ele>269.6</ele>
        <time>2025-09-08T11:10:01Z</time>
      </trkpt>
      <trkpt lat="48.07198" lon="7.24717">
        <ele>269.6</ele>
        <time>2025-09-08T11:10:02Z</time>
      </trkpt>
      <trkpt lat="48.07192" lon="7.24717">
        <ele>269.6</ele>
        <time>2025-09-08T11:10:03Z</time>
      </trkpt>
      <trkpt lat="48.07188" lon="7.24718">
        <ele>269.6</ele>
        <time>2025-09-08T11:10:04Z</time>
      </trkpt>
      <trkpt lat="48.07183" lon="7.24719">
        <ele>269.6</ele>
        <time>2025-09-08T11:10:05Z</time>
      </trkpt>
      <trkpt lat="48.07178" lon="7.24719">
        <ele>269.8</ele>
        <time>2025-09-08T11:10:06Z</time>
      </trkpt>
      <trkpt lat="48.07172" lon="7.24718">
        <ele>269.8</ele>
        <time>2025-09-08T11:10:07Z</time>
      </trkpt>
      <trkpt lat="48.07167" lon="7.24716">
        <ele>269.8</ele>
        <time>2025-09-08T11:10:08Z</time>
      </trkpt>
      <trkpt lat="48.07162" lon="7.24714">
        <ele>269.8</ele>
        <time>2025-09-08T11:10:09Z</time>
      </trkpt>
      <trkpt lat="48.07157" lon="7.24711">
        <ele>269.6</ele>
        <time>2025-09-08T11:10:10Z</time>
      </trkpt>
      <trkpt lat="48.07153" lon="7.24708">
        <ele>269.8</ele>
        <time>2025-09-08T11:10:11Z</time>
      </trkpt>
      <trkpt lat="48.07148" lon="7.24706">
        <ele>269.8</ele>
        <time>2025-09-08T11:10:12Z</time>
      </trkpt>
      <trkpt lat="48.07143" lon="7.24703">
        <ele>269.8</ele>
        <time>2025-09-08T11:10:13Z</time>
      </trkpt>
      <trkpt lat="48.07139" lon="7.247">
        <ele>269.8</ele>
        <time>2025-09-08T11:10:14Z</time>
      </trkpt>
      <trkpt lat="48.07135" lon="7.24696">
        <ele>270</ele>
        <time>2025-09-08T11:10:15Z</time>
      </trkpt>
      <trkpt lat="48.07131" lon="7.24693">
        <ele>270</ele>
        <time>2025-09-08T11:10:16Z</time>
      </trkpt>
      <trkpt lat="48.07126" lon="7.2469">
        <ele>270.2</ele>
        <time>2025-09-08T11:10:17Z</time>
      </trkpt>
      <trkpt lat="48.07122" lon="7.24686">
        <ele>270.2</ele>
        <time>2025-09-08T11:10:18Z</time>
      </trkpt>
      <trkpt lat="48.07117" lon="7.24683">
        <ele>270.2</ele>
        <time>2025-09-08T11:10:19Z</time>
      </trkpt>
      <trkpt lat="48.07113" lon="7.24679">
        <ele>270.2</ele>
        <time>2025-09-08T11:10:20Z</time>
      </trkpt>
      <trkpt lat="48.07109" lon="7.24675">
        <ele>270.4</ele>
        <time>2025-09-08T11:10:21Z</time>
      </trkpt>
      <trkpt lat="48.07105" lon="7.2467">
        <ele>270.4</ele>
        <time>2025-09-08T11:10:22Z</time>
      </trkpt>
      <trkpt lat="48.07102" lon="7.24665">
        <ele>270.4</ele>
        <time>2025-09-08T11:10:23Z</time>
      </trkpt>
      <trkpt lat="48.07098" lon="7.2466">
        <ele>270.4</ele>
        <time>2025-09-08T11:10:24Z</time>
      </trkpt>
      <trkpt lat="48.07095" lon="7.24655">
        <ele>270.4</ele>
        <time>2025-09-08T11:10:25Z</time>
      </trkpt>
      <trkpt lat="48.07092" lon="7.2465">
        <ele>270.6</ele>
        <time>2025-09-08T11:10:26Z</time>
      </trkpt>
      <trkpt lat="48.07089" lon="7.24644">
        <ele>270.6</ele>
        <time>2025-09-08T11:10:27Z</time>
      </trkpt>
      <trkpt lat="48.07086" lon="7.24638">
        <ele>270.6</ele>
        <time>2025-09-08T11:10:28Z</time>
      </trkpt>
      <trkpt lat="48.07083" lon="7.24632">
        <ele>270.8</ele>
        <time>2025-09-08T11:10:29Z</time>
      </trkpt>
      <trkpt lat="48.0708" lon="7.24626">
        <ele>270.8</ele>
        <time>2025-09-08T11:10:30Z</time>
      </trkpt>
      <trkpt lat="48.07077" lon="7.24619">
        <ele>270.8</ele>
        <time>2025-09-08T11:10:31Z</time>
      </trkpt>
      <trkpt lat="48.07075" lon="7.24612">
        <ele>270.8</ele>
        <time>2025-09-08T11:10:32Z</time>
      </trkpt>
      <trkpt lat="48.07073" lon="7.24605">
        <ele>271</ele>
        <time>2025-09-08T11:10:33Z</time>
      </trkpt>
      <trkpt lat="48.0707" lon="7.24598">
        <ele>271</ele>
        <time>2025-09-08T11:10:34Z</time>
      </trkpt>
      <trkpt lat="48.07068" lon="7.24591">
        <ele>271</ele>
        <time>2025-09-08T11:10:35Z</time>
      </trkpt>
      <trkpt lat="48.07067" lon="7.24583">
        <ele>271</ele>
        <time>2025-09-08T11:10:36Z</time>
      </trkpt>
      <trkpt lat="48.07066" lon="7.24576">
        <ele>271</ele>
        <time>2025-09-08T11:10:37Z</time>
      </trkpt>
      <trkpt lat="48.07064" lon="7.24569">
        <ele>271</ele>
        <time>2025-09-08T11:10:38Z</time>
      </trkpt>
      <trkpt lat="48.07062" lon="7.24562">
        <ele>271</ele>
        <time>2025-09-08T11:10:39Z</time>
      </trkpt>
      <trkpt lat="48.07061" lon="7.24555">
        <ele>271</ele>
        <time>2025-09-08T11:10:40Z</time>
      </trkpt>
      <trkpt lat="48.07061" lon="7.24547">
        <ele>271</ele>
        <time>2025-09-08T11:10:41Z</time>
      </trkpt>
      <trkpt lat="48.0706" lon="7.24539">
        <ele>271</ele>
        <time>2025-09-08T11:10:42Z</time>
      </trkpt>
      <trkpt lat="48.0706" lon="7.24532">
        <ele>271</ele>
        <time>2025-09-08T11:10:43Z</time>
      </trkpt>
      <trkpt lat="48.0706" lon="7.24524">
        <ele>271.2</ele>
        <time>2025-09-08T11:10:44Z</time>
      </trkpt>
      <trkpt lat="48.0706" lon="7.24516">
        <ele>271.2</ele>
        <time>2025-09-08T11:10:45Z</time>
      </trkpt>
      <trkpt lat="48.0706" lon="7.24509">
        <ele>271.2</ele>
        <time>2025-09-08T11:10:46Z</time>
      </trkpt>
      <trkpt lat="48.07061" lon="7.24501">
        <ele>271.4</ele>
        <time>2025-09-08T11:10:47Z</time>
      </trkpt>
      <trkpt lat="48.07061" lon="7.24494">
        <ele>271.4</ele>
        <time>2025-09-08T11:10:48Z</time>
      </trkpt>
      <trkpt lat="48.07061" lon="7.24487">
        <ele>271.4</ele>
        <time>2025-09-08T11:10:49Z</time>
      </trkpt>
      <trkpt lat="48.07062" lon="7.2448">
        <ele>271.4</ele>
        <time>2025-09-08T11:10:50Z</time>
      </trkpt>
      <trkpt lat="48.07063" lon="7.24472">
        <ele>271.6</ele>
        <time>2025-09-08T11:10:51Z</time>
      </trkpt>
      <trkpt lat="48.07064" lon="7.24464">
        <ele>271.6</ele>
        <time>2025-09-08T11:10:52Z</time>
      </trkpt>
      <trkpt lat="48.07065" lon="7.24456">
        <ele>271.6</ele>
        <time>2025-09-08T11:10:53Z</time>
      </trkpt>
      <trkpt lat="48.07066" lon="7.24449">
        <ele>271.6</ele>
        <time>2025-09-08T11:10:54Z</time>
      </trkpt>
      <trkpt lat="48.07067" lon="7.24441">
        <ele>271.6</ele>
        <time>2025-09-08T11:10:55Z</time>
      </trkpt>
      <trkpt lat="48.07068" lon="7.24433">
        <ele>271.6</ele>
        <time>2025-09-08T11:10:56Z</time>
      </trkpt>
      <trkpt lat="48.07069" lon="7.24427">
        <ele>271.6</ele>
        <time>2025-09-08T11:10:57Z</time>
      </trkpt>
      <trkpt lat="48.0707" lon="7.24419">
        <ele>271.6</ele>
        <time>2025-09-08T11:10:58Z</time>
      </trkpt>
      <trkpt lat="48.07071" lon="7.24411">
        <ele>271.8</ele>
        <time>2025-09-08T11:10:59Z</time>
      </trkpt>
      <trkpt lat="48.07072" lon="7.24403">
        <ele>271.8</ele>
        <time>2025-09-08T11:11:00Z</time>
      </trkpt>
      <trkpt lat="48.07073" lon="7.24395">
        <ele>271.8</ele>
        <time>2025-09-08T11:11:01Z</time>
      </trkpt>
      <trkpt lat="48.07074" lon="7.24387">
        <ele>271.8</ele>
        <time>2025-09-08T11:11:02Z</time>
      </trkpt>
      <trkpt lat="48.07075" lon="7.24379">
        <ele>271.8</ele>
        <time>2025-09-08T11:11:03Z</time>
      </trkpt>
      <trkpt lat="48.07076" lon="7.24371">
        <ele>271.8</ele>
        <time>2025-09-08T11:11:04Z</time>
      </trkpt>
      <trkpt lat="48.07077" lon="7.24363">
        <ele>271.8</ele>
        <time>2025-09-08T11:11:05Z</time>
      </trkpt>
      <trkpt lat="48.07078" lon="7.24355">
        <ele>272</ele>
        <time>2025-09-08T11:11:06Z</time>
      </trkpt>
      <trkpt lat="48.07079" lon="7.24347">
        <ele>272</ele>
        <time>2025-09-08T11:11:07Z</time>
      </trkpt>
      <trkpt lat="48.0708" lon="7.24339">
        <ele>271.8</ele>
        <time>2025-09-08T11:11:08Z</time>
      </trkpt>
      <trkpt lat="48.07081" lon="7.24331">
        <ele>271.8</ele>
        <time>2025-09-08T11:11:09Z</time>
      </trkpt>
      <trkpt lat="48.07082" lon="7.24324">
        <ele>271.8</ele>
        <time>2025-09-08T11:11:10Z</time>
      </trkpt>
      <trkpt lat="48.07083" lon="7.24316">
        <ele>271.8</ele>
        <time>2025-09-08T11:11:11Z</time>
      </trkpt>
      <trkpt lat="48.07084" lon="7.24309">
        <ele>271.8</ele>
        <time>2025-09-08T11:11:12Z</time>
      </trkpt>
      <trkpt lat="48.07085" lon="7.24303">
        <ele>272</ele>
        <time>2025-09-08T11:11:13Z</time>
      </trkpt>
      <trkpt lat="48.07086" lon="7.24295">
        <ele>272</ele>
        <time>2025-09-08T11:11:14Z</time>
      </trkpt>
      <trkpt lat="48.07086" lon="7.24287">
        <ele>272</ele>
        <time>2025-09-08T11:11:15Z</time>
      </trkpt>
      <trkpt lat="48.07087" lon="7.24279">
        <ele>272</ele>
        <time>2025-09-08T11:11:16Z</time>
      </trkpt>
      <trkpt lat="48.07087" lon="7.24271">
        <ele>272.2</ele>
        <time>2025-09-08T11:11:17Z</time>
      </trkpt>
      <trkpt lat="48.07086" lon="7.24264">
        <ele>272.2</ele>
        <time>2025-09-08T11:11:18Z</time>
      </trkpt>
      <trkpt lat="48.07086" lon="7.24256">
        <ele>272.2</ele>
        <time>2025-09-08T11:11:19Z</time>
      </trkpt>
      <trkpt lat="48.07085" lon="7.24249">
        <ele>272.2</ele>
        <time>2025-09-08T11:11:20Z</time>
      </trkpt>
      <trkpt lat="48.07084" lon="7.24241">
        <ele>272.2</ele>
        <time>2025-09-08T11:11:21Z</time>
      </trkpt>
      <trkpt lat="48.07084" lon="7.24233">
        <ele>272.4</ele>
        <time>2025-09-08T11:11:22Z</time>
      </trkpt>
      <trkpt lat="48.07084" lon="7.24226">
        <ele>272.4</ele>
        <time>2025-09-08T11:11:23Z</time>
      </trkpt>
      <trkpt lat="48.07084" lon="7.24217">
        <ele>272.4</ele>
        <time>2025-09-08T11:11:24Z</time>
      </trkpt>
      <trkpt lat="48.07084" lon="7.24209">
        <ele>272.4</ele>
        <time>2025-09-08T11:11:25Z</time>
      </trkpt>
      <trkpt lat="48.07084" lon="7.24201">
        <ele>272.4</ele>
        <time>2025-09-08T11:11:26Z</time>
      </trkpt>
      <trkpt lat="48.07083" lon="7.24193">
        <ele>272.4</ele>
        <time>2025-09-08T11:11:27Z</time>
      </trkpt>
      <trkpt lat="48.07082" lon="7.24186">
        <ele>272.4</ele>
        <time>2025-09-08T11:11:28Z</time>
      </trkpt>
      <trkpt lat="48.07081" lon="7.24178">
        <ele>272.4</ele>
        <time>2025-09-08T11:11:29Z</time>
      </trkpt>
      <trkpt lat="48.0708" lon="7.2417">
        <ele>272.6</ele>
        <time>2025-09-08T11:11:30Z</time>
      </trkpt>
      <trkpt lat="48.07078" lon="7.24163">
        <ele>272.6</ele>
        <time>2025-09-08T11:11:31Z</time>
      </trkpt>
      <trkpt lat="48.07077" lon="7.24155">
        <ele>272.6</ele>
        <time>2025-09-08T11:11:32Z</time>
      </trkpt>
      <trkpt lat="48.07074" lon="7.24149">
        <ele>272.8</ele>
        <time>2025-09-08T11:11:33Z</time>
      </trkpt>
      <trkpt lat="48.07072" lon="7.24142">
        <ele>272.8</ele>
        <time>2025-09-08T11:11:34Z</time>
      </trkpt>
      <trkpt lat="48.0707" lon="7.24136">
        <ele>273</ele>
        <time>2025-09-08T11:11:35Z</time>
      </trkpt>
      <trkpt lat="48.07069" lon="7.24129">
        <ele>273.2</ele>
        <time>2025-09-08T11:11:36Z</time>
      </trkpt>
      <trkpt lat="48.07068" lon="7.24121">
        <ele>273.4</ele>
        <time>2025-09-08T11:11:37Z</time>
      </trkpt>
      <trkpt lat="48.07067" lon="7.24114">
        <ele>273.4</ele>
        <time>2025-09-08T11:11:38Z</time>
      </trkpt>
      <trkpt lat="48.07066" lon="7.24106">
        <ele>273.4</ele>
        <time>2025-09-08T11:11:39Z</time>
      </trkpt>
      <trkpt lat="48.07064" lon="7.24099">
        <ele>273.6</ele>
        <time>2025-09-08T11:11:40Z</time>
      </trkpt>
      <trkpt lat="48.07063" lon="7.24091">
        <ele>273.6</ele>
        <time>2025-09-08T11:11:41Z</time>
      </trkpt>
      <trkpt lat="48.07062" lon="7.24083">
        <ele>273.6</ele>
        <time>2025-09-08T11:11:42Z</time>
      </trkpt>
      <trkpt lat="48.07061" lon="7.24076">
        <ele>273.8</ele>
        <time>2025-09-08T11:11:43Z</time>
      </trkpt>
      <trkpt lat="48.07061" lon="7.2407">
        <ele>273.8</ele>
        <time>2025-09-08T11:11:44Z</time>
      </trkpt>
      <trkpt lat="48.07059" lon="7.24064">
        <ele>274</ele>
        <time>2025-09-08T11:11:45Z</time>
      </trkpt>
      <trkpt lat="48.07058" lon="7.24058">
        <ele>274.2</ele>
        <time>2025-09-08T11:11:46Z</time>
      </trkpt>
      <trkpt lat="48.07057" lon="7.24051">
        <ele>274.6</ele>
        <time>2025-09-08T11:11:47Z</time>
      </trkpt>
      <trkpt lat="48.07056" lon="7.24045">
        <ele>275</ele>
        <time>2025-09-08T11:11:48Z</time>
      </trkpt>
      <trkpt lat="48.07055" lon="7.24039">
        <ele>275.2</ele>
        <time>2025-09-08T11:11:49Z</time>
      </trkpt>
      <trkpt lat="48.07054" lon="7.24032">
        <ele>275.2</ele>
        <time>2025-09-08T11:11:50Z</time>
      </trkpt>
      <trkpt lat="48.07053" lon="7.24026">
        <ele>275.4</ele>
        <time>2025-09-08T11:11:51Z</time>
      </trkpt>
      <trkpt lat="48.07052" lon="7.24021">
        <ele>275.4</ele>
        <time>2025-09-08T11:11:52Z</time>
      </trkpt>
      <trkpt lat="48.0705" lon="7.24015">
        <ele>275.6</ele>
        <time>2025-09-08T11:11:53Z</time>
      </trkpt>
      <trkpt lat="48.07049" lon="7.24009">
        <ele>275.6</ele>
        <time>2025-09-08T11:11:54Z</time>
      </trkpt>
      <trkpt lat="48.07048" lon="7.24004">
        <ele>275.8</ele>
        <time>2025-09-08T11:11:55Z</time>
      </trkpt>
      <trkpt lat="48.07046" lon="7.23999">
        <ele>275.8</ele>
        <time>2025-09-08T11:11:56Z</time>
      </trkpt>
      <trkpt lat="48.07045" lon="7.23995">
        <ele>276</ele>
        <time>2025-09-08T11:11:57Z</time>
      </trkpt>
      <trkpt lat="48.07043" lon="7.2399">
        <ele>276</ele>
        <time>2025-09-08T11:11:58Z</time>
      </trkpt>
      <trkpt lat="48.07041" lon="7.23987">
        <ele>276</ele>
        <time>2025-09-08T11:11:59Z</time>
      </trkpt>
      <trkpt lat="48.07039" lon="7.23983">
        <ele>276.2</ele>
        <time>2025-09-08T11:12:00Z</time>
      </trkpt>
      <trkpt lat="48.07038" lon="7.23978">
        <ele>276.2</ele>
        <time>2025-09-08T11:12:01Z</time>
      </trkpt>
      <trkpt lat="48.07039" lon="7.23974">
        <ele>276.4</ele>
        <time>2025-09-08T11:12:02Z</time>
      </trkpt>
      <trkpt lat="48.07042" lon="7.23972">
        <ele>276.4</ele>
        <time>2025-09-08T11:12:03Z</time>
      </trkpt>
      <trkpt lat="48.07045" lon="7.23971">
        <ele>276.6</ele>
        <time>2025-09-08T11:12:04Z</time>
      </trkpt>
      <trkpt lat="48.07049" lon="7.2397">
        <ele>276.6</ele>
        <time>2025-09-08T11:12:05Z</time>
      </trkpt>
      <trkpt lat="48.07052" lon="7.23968">
        <ele>276.6</ele>
        <time>2025-09-08T11:12:06Z</time>
      </trkpt>
      <trkpt lat="48.07055" lon="7.23966">
        <ele>276.8</ele>
        <time>2025-09-08T11:12:07Z</time>
      </trkpt>
      <trkpt lat="48.07058" lon="7.23965">
        <ele>276.8</ele>
        <time>2025-09-08T11:12:08Z</time>
      </trkpt>
      <trkpt lat="48.07062" lon="7.23964">
        <ele>276.8</ele>
        <time>2025-09-08T11:12:09Z</time>
      </trkpt>
      <trkpt lat="48.07066" lon="7.23962">
        <ele>276.8</ele>
        <time>2025-09-08T11:12:10Z</time>
      </trkpt>
      <trkpt lat="48.0707" lon="7.23961">
        <ele>276.8</ele>
        <time>2025-09-08T11:12:11Z</time>
      </trkpt>
      <trkpt lat="48.07074" lon="7.23959">
        <ele>277</ele>
        <time>2025-09-08T11:12:12Z</time>
      </trkpt>
      <trkpt lat="48.07078" lon="7.23958">
        <ele>277</ele>
        <time>2025-09-08T11:12:13Z</time>
      </trkpt>
      <trkpt lat="48.07082" lon="7.23956">
        <ele>277</ele>
        <time>2025-09-08T11:12:14Z</time>
      </trkpt>
      <trkpt lat="48.07086" lon="7.23955">
        <ele>277</ele>
        <time>2025-09-08T11:12:15Z</time>
      </trkpt>
      <trkpt lat="48.0709" lon="7.23953">
        <ele>277</ele>
        <time>2025-09-08T11:12:16Z</time>
      </trkpt>
      <trkpt lat="48.07094" lon="7.23952">
        <ele>277.2</ele>
        <time>2025-09-08T11:12:17Z</time>
      </trkpt>
      <trkpt lat="48.07097" lon="7.2395">
        <ele>277.4</ele>
        <time>2025-09-08T11:12:18Z</time>
      </trkpt>
      <trkpt lat="48.07101" lon="7.23948">
        <ele>277.6</ele>
        <time>2025-09-08T11:12:19Z</time>
      </trkpt>
      <trkpt lat="48.07104" lon="7.23947">
        <ele>277.8</ele>
        <time>2025-09-08T11:12:20Z</time>
      </trkpt>
      <trkpt lat="48.07108" lon="7.23946">
        <ele>278</ele>
        <time>2025-09-08T11:12:21Z</time>
      </trkpt>
      <trkpt lat="48.07111" lon="7.23944">
        <ele>278.4</ele>
        <time>2025-09-08T11:12:22Z</time>
      </trkpt>
      <trkpt lat="48.07115" lon="7.23942">
        <ele>278.6</ele>
        <time>2025-09-08T11:12:23Z</time>
      </trkpt>
      <trkpt lat="48.07119" lon="7.2394">
        <ele>279</ele>
        <time>2025-09-08T11:12:24Z</time>
      </trkpt>
      <trkpt lat="48.07122" lon="7.23938">
        <ele>279.4</ele>
        <time>2025-09-08T11:12:25Z</time>
      </trkpt>
      <trkpt lat="48.07126" lon="7.23935">
        <ele>279.8</ele>
        <time>2025-09-08T11:12:26Z</time>
      </trkpt>
      <trkpt lat="48.07129" lon="7.23932">
        <ele>280</ele>
        <time>2025-09-08T11:12:27Z</time>
      </trkpt>
      <trkpt lat="48.07132" lon="7.23929">
        <ele>280.4</ele>
        <time>2025-09-08T11:12:28Z</time>
      </trkpt>
      <trkpt lat="48.07135" lon="7.23926">
        <ele>280.6</ele>
        <time>2025-09-08T11:12:29Z</time>
      </trkpt>
      <trkpt lat="48.07138" lon="7.23922">
        <ele>281</ele>
        <time>2025-09-08T11:12:30Z</time>
      </trkpt>
      <trkpt lat="48.07141" lon="7.23918">
        <ele>281.6</ele>
        <time>2025-09-08T11:12:31Z</time>
      </trkpt>
      <trkpt lat="48.07142" lon="7.23914">
        <ele>281.8</ele>
        <time>2025-09-08T11:12:32Z</time>
      </trkpt>
      <trkpt lat="48.07142" lon="7.23909">
        <ele>282.2</ele>
        <time>2025-09-08T11:12:33Z</time>
      </trkpt>
      <trkpt lat="48.07142" lon="7.23904">
        <ele>282.6</ele>
        <time>2025-09-08T11:12:34Z</time>
      </trkpt>
      <trkpt lat="48.0714" lon="7.23899">
        <ele>283.2</ele>
        <time>2025-09-08T11:12:35Z</time>
      </trkpt>
      <trkpt lat="48.07138" lon="7.23895">
        <ele>283.6</ele>
        <time>2025-09-08T11:12:36Z</time>
      </trkpt>
      <trkpt lat="48.07136" lon="7.23891">
        <ele>284</ele>
        <time>2025-09-08T11:12:37Z</time>
      </trkpt>
      <trkpt lat="48.07134" lon="7.23887">
        <ele>284.4</ele>
        <time>2025-09-08T11:12:38Z</time>
      </trkpt>
      <trkpt lat="48.07131" lon="7.23883">
        <ele>284.6</ele>
        <time>2025-09-08T11:12:39Z</time>
      </trkpt>
      <trkpt lat="48.07128" lon="7.2388">
        <ele>284.8</ele>
        <time>2025-09-08T11:12:40Z</time>
      </trkpt>
      <trkpt lat="48.07126" lon="7.23876">
        <ele>285</ele>
        <time>2025-09-08T11:12:41Z</time>
      </trkpt>
      <trkpt lat="48.07123" lon="7.23872">
        <ele>285.4</ele>
        <time>2025-09-08T11:12:42Z</time>
      </trkpt>
      <trkpt lat="48.0712" lon="7.23868">
        <ele>285.8</ele>
        <time>2025-09-08T11:12:43Z</time>
      </trkpt>
      <trkpt lat="48.07118" lon="7.23864">
        <ele>285.8</ele>
        <time>2025-09-08T11:12:44Z</time>
      </trkpt>
      <trkpt lat="48.07115" lon="7.2386">
        <ele>286.2</ele>
        <time>2025-09-08T11:12:45Z</time>
      </trkpt>
      <trkpt lat="48.07112" lon="7.23856">
        <ele>286.4</ele>
        <time>2025-09-08T11:12:46Z</time>
      </trkpt>
      <trkpt lat="48.07109" lon="7.23852">
        <ele>286.6</ele>
        <time>2025-09-08T11:12:47Z</time>
      </trkpt>
      <trkpt lat="48.07106" lon="7.23848">
        <ele>286.8</ele>
        <time>2025-09-08T11:12:48Z</time>
      </trkpt>
      <trkpt lat="48.07102" lon="7.23843">
        <ele>287</ele>
        <time>2025-09-08T11:12:49Z</time>
      </trkpt>
      <trkpt lat="48.07099" lon="7.23839">
        <ele>287.2</ele>
        <time>2025-09-08T11:12:50Z</time>
      </trkpt>
      <trkpt lat="48.07095" lon="7.23834">
        <ele>287.2</ele>
        <time>2025-09-08T11:12:51Z</time>
      </trkpt>
      <trkpt lat="48.07092" lon="7.2383">
        <ele>287.2</ele>
        <time>2025-09-08T11:12:52Z</time>
      </trkpt>
      <trkpt lat="48.07089" lon="7.23824">
        <ele>287.2</ele>
        <time>2025-09-08T11:12:53Z</time>
      </trkpt>
      <trkpt lat="48.07085" lon="7.23819">
        <ele>287.2</ele>
        <time>2025-09-08T11:12:54Z</time>
      </trkpt>
      <trkpt lat="48.07082" lon="7.23814">
        <ele>287.2</ele>
        <time>2025-09-08T11:12:55Z</time>
      </trkpt>
      <trkpt lat="48.07078" lon="7.23808">
        <ele>287.2</ele>
        <time>2025-09-08T11:12:56Z</time>
      </trkpt>
      <trkpt lat="48.07075" lon="7.23803">
        <ele>287</ele>
        <time>2025-09-08T11:12:57Z</time>
      </trkpt>
      <trkpt lat="48.07072" lon="7.23797">
        <ele>286.8</ele>
        <time>2025-09-08T11:12:58Z</time>
      </trkpt>
      <trkpt lat="48.07068" lon="7.23791">
        <ele>286.6</ele>
        <time>2025-09-08T11:12:59Z</time>
      </trkpt>
      <trkpt lat="48.07065" lon="7.23784">
        <ele>286.6</ele>
        <time>2025-09-08T11:13:00Z</time>
      </trkpt>
      <trkpt lat="48.07062" lon="7.23778">
        <ele>286.6</ele>
        <time>2025-09-08T11:13:01Z</time>
      </trkpt>
      <trkpt lat="48.07059" lon="7.23772">
        <ele>286.4</ele>
        <time>2025-09-08T11:13:02Z</time>
      </trkpt>
      <trkpt lat="48.07056" lon="7.23765">
        <ele>286.4</ele>
        <time>2025-09-08T11:13:03Z</time>
      </trkpt>
      <trkpt lat="48.07053" lon="7.23759">
        <ele>286.2</ele>
        <time>2025-09-08T11:13:04Z</time>
      </trkpt>
      <trkpt lat="48.0705" lon="7.23753">
        <ele>286.2</ele>
        <time>2025-09-08T11:13:05Z</time>
      </trkpt>
      <trkpt lat="48.07048" lon="7.23747">
        <ele>286</ele>
        <time>2025-09-08T11:13:06Z</time>
      </trkpt>
      <trkpt lat="48.07045" lon="7.23739">
        <ele>286</ele>
        <time>2025-09-08T11:13:07Z</time>
      </trkpt>
      <trkpt lat="48.07044" lon="7.23732">
        <ele>286</ele>
        <time>2025-09-08T11:13:08Z</time>
      </trkpt>
      <trkpt lat="48.07043" lon="7.23725">
        <ele>286</ele>
        <time>2025-09-08T11:13:09Z</time>
      </trkpt>
      <trkpt lat="48.07043" lon="7.23718">
        <ele>286</ele>
        <time>2025-09-08T11:13:10Z</time>
      </trkpt>
      <trkpt lat="48.07042" lon="7.23711">
        <ele>286</ele>
        <time>2025-09-08T11:13:11Z</time>
      </trkpt>
      <trkpt lat="48.07042" lon="7.23703">
        <ele>286</ele>
        <time>2025-09-08T11:13:12Z</time>
      </trkpt>
      <trkpt lat="48.07042" lon="7.23696">
        <ele>286.2</ele>
        <time>2025-09-08T11:13:13Z</time>
      </trkpt>
      <trkpt lat="48.07041" lon="7.23688">
        <ele>286.2</ele>
        <time>2025-09-08T11:13:14Z</time>
      </trkpt>
      <trkpt lat="48.07041" lon="7.23681">
        <ele>286.2</ele>
        <time>2025-09-08T11:13:15Z</time>
      </trkpt>
      <trkpt lat="48.07041" lon="7.23674">
        <ele>286.4</ele>
        <time>2025-09-08T11:13:16Z</time>
      </trkpt>
      <trkpt lat="48.0704" lon="7.23667">
        <ele>286.4</ele>
        <time>2025-09-08T11:13:17Z</time>
      </trkpt>
      <trkpt lat="48.0704" lon="7.2366">
        <ele>286.6</ele>
        <time>2025-09-08T11:13:18Z</time>
      </trkpt>
      <trkpt lat="48.0704" lon="7.23653">
        <ele>286.8</ele>
        <time>2025-09-08T11:13:19Z</time>
      </trkpt>
      <trkpt lat="48.0704" lon="7.23645">
        <ele>286.8</ele>
        <time>2025-09-08T11:13:20Z</time>
      </trkpt>
      <trkpt lat="48.0704" lon="7.23638">
        <ele>287</ele>
        <time>2025-09-08T11:13:21Z</time>
      </trkpt>
      <trkpt lat="48.0704" lon="7.23631">
        <ele>287.2</ele>
        <time>2025-09-08T11:13:22Z</time>
      </trkpt>
      <trkpt lat="48.0704" lon="7.23624">
        <ele>287.2</ele>
        <time>2025-09-08T11:13:23Z</time>
      </trkpt>
      <trkpt lat="48.0704" lon="7.23617">
        <ele>287.6</ele>
        <time>2025-09-08T11:13:24Z</time>
      </trkpt>
      <trkpt lat="48.07041" lon="7.23611">
        <ele>287.6</ele>
        <time>2025-09-08T11:13:25Z</time>
      </trkpt>
      <trkpt lat="48.07042" lon="7.23605">
        <ele>287.8</ele>
        <time>2025-09-08T11:13:26Z</time>
      </trkpt>
      <trkpt lat="48.07042" lon="7.236">
        <ele>288.2</ele>
        <time>2025-09-08T11:13:27Z</time>
      </trkpt>
      <trkpt lat="48.07042" lon="7.23595">
        <ele>288.8</ele>
        <time>2025-09-08T11:13:28Z</time>
      </trkpt>
      <trkpt lat="48.07041" lon="7.23589">
        <ele>289.4</ele>
        <time>2025-09-08T11:13:29Z</time>
      </trkpt>
      <trkpt lat="48.0704" lon="7.23583">
        <ele>289.8</ele>
        <time>2025-09-08T11:13:30Z</time>
      </trkpt>
      <trkpt lat="48.07038" lon="7.23577">
        <ele>290.2</ele>
        <time>2025-09-08T11:13:31Z</time>
      </trkpt>
      <trkpt lat="48.07036" lon="7.23572">
        <ele>290.6</ele>
        <time>2025-09-08T11:13:32Z</time>
      </trkpt>
      <trkpt lat="48.07034" lon="7.23566">
        <ele>290.8</ele>
        <time>2025-09-08T11:13:33Z</time>
      </trkpt>
      <trkpt lat="48.07031" lon="7.23561">
        <ele>291</ele>
        <time>2025-09-08T11:13:34Z</time>
      </trkpt>
      <trkpt lat="48.07029" lon="7.23555">
        <ele>291.2</ele>
        <time>2025-09-08T11:13:35Z</time>
      </trkpt>
      <trkpt lat="48.07026" lon="7.23549">
        <ele>291.2</ele>
        <time>2025-09-08T11:13:36Z</time>
      </trkpt>
      <trkpt lat="48.07023" lon="7.23544">
        <ele>291.2</ele>
        <time>2025-09-08T11:13:37Z</time>
      </trkpt>
      <trkpt lat="48.0702" lon="7.23538">
        <ele>291.4</ele>
        <time>2025-09-08T11:13:38Z</time>
      </trkpt>
      <trkpt lat="48.07017" lon="7.23532">
        <ele>291.4</ele>
        <time>2025-09-08T11:13:39Z</time>
      </trkpt>
      <trkpt lat="48.07014" lon="7.23526">
        <ele>291.4</ele>
        <time>2025-09-08T11:13:40Z</time>
      </trkpt>
      <trkpt lat="48.07011" lon="7.2352">
        <ele>291.4</ele>
        <time>2025-09-08T11:13:41Z</time>
      </trkpt>
      <trkpt lat="48.07009" lon="7.23514">
        <ele>291.4</ele>
        <time>2025-09-08T11:13:42Z</time>
      </trkpt>
      <trkpt lat="48.07006" lon="7.23508">
        <ele>291.4</ele>
        <time>2025-09-08T11:13:43Z</time>
      </trkpt>
      <trkpt lat="48.07003" lon="7.23502">
        <ele>291.4</ele>
        <time>2025-09-08T11:13:44Z</time>
      </trkpt>
      <trkpt lat="48.06999" lon="7.23495">
        <ele>291.6</ele>
        <time>2025-09-08T11:13:45Z</time>
      </trkpt>
      <trkpt lat="48.06996" lon="7.23489">
        <ele>291.6</ele>
        <time>2025-09-08T11:13:46Z</time>
      </trkpt>
      <trkpt lat="48.06994" lon="7.23483">
        <ele>291.6</ele>
        <time>2025-09-08T11:13:47Z</time>
      </trkpt>
      <trkpt lat="48.06991" lon="7.23476">
        <ele>291.6</ele>
        <time>2025-09-08T11:13:48Z</time>
      </trkpt>
      <trkpt lat="48.06988" lon="7.2347">
        <ele>291.6</ele>
        <time>2025-09-08T11:13:49Z</time>
      </trkpt>
      <trkpt lat="48.06985" lon="7.23464">
        <ele>291.6</ele>
        <time>2025-09-08T11:13:50Z</time>
      </trkpt>
      <trkpt lat="48.06982" lon="7.23458">
        <ele>291.6</ele>
        <time>2025-09-08T11:13:51Z</time>
      </trkpt>
      <trkpt lat="48.0698" lon="7.23451">
        <ele>291.6</ele>
        <time>2025-09-08T11:13:52Z</time>
      </trkpt>
      <trkpt lat="48.06977" lon="7.23444">
        <ele>291.6</ele>
        <time>2025-09-08T11:13:53Z</time>
      </trkpt>
      <trkpt lat="48.06974" lon="7.23437">
        <ele>291.8</ele>
        <time>2025-09-08T11:13:54Z</time>
      </trkpt>
      <trkpt lat="48.06972" lon="7.2343">
        <ele>291.8</ele>
        <time>2025-09-08T11:13:55Z</time>
      </trkpt>
      <trkpt lat="48.06969" lon="7.23424">
        <ele>292</ele>
        <time>2025-09-08T11:13:56Z</time>
      </trkpt>
      <trkpt lat="48.06967" lon="7.23416">
        <ele>292</ele>
        <time>2025-09-08T11:13:57Z</time>
      </trkpt>
      <trkpt lat="48.06964" lon="7.23409">
        <ele>292.2</ele>
        <time>2025-09-08T11:13:58Z</time>
      </trkpt>
      <trkpt lat="48.06962" lon="7.23403">
        <ele>292.4</ele>
        <time>2025-09-08T11:13:59Z</time>
      </trkpt>
      <trkpt lat="48.0696" lon="7.23396">
        <ele>292.4</ele>
        <time>2025-09-08T11:14:00Z</time>
      </trkpt>
      <trkpt lat="48.06957" lon="7.23389">
        <ele>292.4</ele>
        <time>2025-09-08T11:14:01Z</time>
      </trkpt>
      <trkpt lat="48.06955" lon="7.23382">
        <ele>292.4</ele>
        <time>2025-09-08T11:14:02Z</time>
      </trkpt>
      <trkpt lat="48.06952" lon="7.23375">
        <ele>292.4</ele>
        <time>2025-09-08T11:14:03Z</time>
      </trkpt>
      <trkpt lat="48.0695" lon="7.23368">
        <ele>292.4</ele>
        <time>2025-09-08T11:14:04Z</time>
      </trkpt>
      <trkpt lat="48.06947" lon="7.23361">
        <ele>292.4</ele>
        <time>2025-09-08T11:14:05Z</time>
      </trkpt>
      <trkpt lat="48.06944" lon="7.23354">
        <ele>292.4</ele>
        <time>2025-09-08T11:14:06Z</time>
      </trkpt>
      <trkpt lat="48.06942" lon="7.23347">
        <ele>292.4</ele>
        <time>2025-09-08T11:14:07Z</time>
      </trkpt>
      <trkpt lat="48.06939" lon="7.2334">
        <ele>292.4</ele>
        <time>2025-09-08T11:14:08Z</time>
      </trkpt>
      <trkpt lat="48.06937" lon="7.23333">
        <ele>292.4</ele>
        <time>2025-09-08T11:14:09Z</time>
      </trkpt>
      <trkpt lat="48.06934" lon="7.23326">
        <ele>292.4</ele>
        <time>2025-09-08T11:14:10Z</time>
      </trkpt>
      <trkpt lat="48.06932" lon="7.2332">
        <ele>292.6</ele>
        <time>2025-09-08T11:14:11Z</time>
      </trkpt>
      <trkpt lat="48.06929" lon="7.23314">
        <ele>292.6</ele>
        <time>2025-09-08T11:14:12Z</time>
      </trkpt>
      <trkpt lat="48.06927" lon="7.23308">
        <ele>292.6</ele>
        <time>2025-09-08T11:14:13Z</time>
      </trkpt>
      <trkpt lat="48.06924" lon="7.23301">
        <ele>292.6</ele>
        <time>2025-09-08T11:14:14Z</time>
      </trkpt>
      <trkpt lat="48.06921" lon="7.23295">
        <ele>292.8</ele>
        <time>2025-09-08T11:14:15Z</time>
      </trkpt>
      <trkpt lat="48.06918" lon="7.2329">
        <ele>292.8</ele>
        <time>2025-09-08T11:14:16Z</time>
      </trkpt>
      <trkpt lat="48.06915" lon="7.23284">
        <ele>292.8</ele>
        <time>2025-09-08T11:14:17Z</time>
      </trkpt>
      <trkpt lat="48.06911" lon="7.23279">
        <ele>293</ele>
        <time>2025-09-08T11:14:18Z</time>
      </trkpt>
      <trkpt lat="48.06908" lon="7.23274">
        <ele>293</ele>
        <time>2025-09-08T11:14:19Z</time>
      </trkpt>
      <trkpt lat="48.06904" lon="7.23268">
        <ele>293</ele>
        <time>2025-09-08T11:14:20Z</time>
      </trkpt>
      <trkpt lat="48.069" lon="7.23263">
        <ele>293.2</ele>
        <time>2025-09-08T11:14:21Z</time>
      </trkpt>
      <trkpt lat="48.06897" lon="7.23258">
        <ele>293.2</ele>
        <time>2025-09-08T11:14:22Z</time>
      </trkpt>
      <trkpt lat="48.06893" lon="7.23253">
        <ele>293.4</ele>
        <time>2025-09-08T11:14:23Z</time>
      </trkpt>
      <trkpt lat="48.06889" lon="7.23248">
        <ele>293.4</ele>
        <time>2025-09-08T11:14:24Z</time>
      </trkpt>
      <trkpt lat="48.06885" lon="7.23243">
        <ele>293.6</ele>
        <time>2025-09-08T11:14:25Z</time>
      </trkpt>
      <trkpt lat="48.06881" lon="7.23238">
        <ele>293.8</ele>
        <time>2025-09-08T11:14:26Z</time>
      </trkpt>
      <trkpt lat="48.06878" lon="7.23233">
        <ele>294</ele>
        <time>2025-09-08T11:14:27Z</time>
      </trkpt>
      <trkpt lat="48.06876" lon="7.23226">
        <ele>294.2</ele>
        <time>2025-09-08T11:14:28Z</time>
      </trkpt>
      <trkpt lat="48.06873" lon="7.23219">
        <ele>294.2</ele>
        <time>2025-09-08T11:14:29Z</time>
      </trkpt>
      <trkpt lat="48.0687" lon="7.23213">
        <ele>294.4</ele>
        <time>2025-09-08T11:14:30Z</time>
      </trkpt>
      <trkpt lat="48.06867" lon="7.23208">
        <ele>294.6</ele>
        <time>2025-09-08T11:14:31Z</time>
      </trkpt>
      <trkpt lat="48.06863" lon="7.23203">
        <ele>294.6</ele>
        <time>2025-09-08T11:14:32Z</time>
      </trkpt>
      <trkpt lat="48.0686" lon="7.23198">
        <ele>294.6</ele>
        <time>2025-09-08T11:14:33Z</time>
      </trkpt>
      <trkpt lat="48.06855" lon="7.23194">
        <ele>294.6</ele>
        <time>2025-09-08T11:14:34Z</time>
      </trkpt>
      <trkpt lat="48.06851" lon="7.2319">
        <ele>294.8</ele>
        <time>2025-09-08T11:14:35Z</time>
      </trkpt>
      <trkpt lat="48.06847" lon="7.23186">
        <ele>294.8</ele>
        <time>2025-09-08T11:14:36Z</time>
      </trkpt>
      <trkpt lat="48.06843" lon="7.23182">
        <ele>295.2</ele>
        <time>2025-09-08T11:14:37Z</time>
      </trkpt>
      <trkpt lat="48.0684" lon="7.23179">
        <ele>295.8</ele>
        <time>2025-09-08T11:14:38Z</time>
      </trkpt>
      <trkpt lat="48.06836" lon="7.23176">
        <ele>296.2</ele>
        <time>2025-09-08T11:14:39Z</time>
      </trkpt>
      <trkpt lat="48.06833" lon="7.23175">
        <ele>296.8</ele>
        <time>2025-09-08T11:14:40Z</time>
      </trkpt>
      <trkpt lat="48.0683" lon="7.23172">
        <ele>297.2</ele>
        <time>2025-09-08T11:14:41Z</time>
      </trkpt>
      <trkpt lat="48.06827" lon="7.2317">
        <ele>297.8</ele>
        <time>2025-09-08T11:14:42Z</time>
      </trkpt>
      <trkpt lat="48.06824" lon="7.23169">
        <ele>299</ele>
        <time>2025-09-08T11:14:43Z</time>
      </trkpt>
      <trkpt lat="48.0682" lon="7.23167">
        <ele>299.6</ele>
        <time>2025-09-08T11:14:44Z</time>
      </trkpt>
      <trkpt lat="48.06817" lon="7.23166">
        <ele>300.4</ele>
        <time>2025-09-08T11:14:45Z</time>
      </trkpt>
      <trkpt lat="48.06814" lon="7.23165">
        <ele>301.2</ele>
        <time>2025-09-08T11:14:46Z</time>
      </trkpt>
      <trkpt lat="48.06811" lon="7.23163">
        <ele>301.6</ele>
        <time>2025-09-08T11:14:47Z</time>
      </trkpt>
      <trkpt lat="48.06808" lon="7.23162">
        <ele>302.4</ele>
        <time>2025-09-08T11:14:48Z</time>
      </trkpt>
      <trkpt lat="48.06805" lon="7.2316">
        <ele>303.2</ele>
        <time>2025-09-08T11:14:49Z</time>
      </trkpt>
      <trkpt lat="48.06803" lon="7.23158">
        <ele>303.6</ele>
        <time>2025-09-08T11:14:50Z</time>
      </trkpt>
      <trkpt lat="48.06801" lon="7.23155">
        <ele>304</ele>
        <time>2025-09-08T11:14:51Z</time>
      </trkpt>
      <trkpt lat="48.06799" lon="7.23153">
        <ele>304.2</ele>
        <time>2025-09-08T11:14:52Z</time>
      </trkpt>
      <trkpt lat="48.06797" lon="7.2315">
        <ele>304.6</ele>
        <time>2025-09-08T11:14:53Z</time>
      </trkpt>
      <trkpt lat="48.06795" lon="7.23147">
        <ele>305</ele>
        <time>2025-09-08T11:14:54Z</time>
      </trkpt>
      <trkpt lat="48.06792" lon="7.23145">
        <ele>305</ele>
        <time>2025-09-08T11:14:55Z</time>
      </trkpt>
      <trkpt lat="48.06789" lon="7.23142">
        <ele>305.2</ele>
        <time>2025-09-08T11:14:56Z</time>
      </trkpt>
      <trkpt lat="48.06786" lon="7.23139">
        <ele>305.2</ele>
        <time>2025-09-08T11:14:57Z</time>
      </trkpt>
      <trkpt lat="48.06784" lon="7.23136">
        <ele>305.4</ele>
        <time>2025-09-08T11:14:58Z</time>
      </trkpt>
      <trkpt lat="48.06781" lon="7.23133">
        <ele>305.4</ele>
        <time>2025-09-08T11:14:59Z</time>
      </trkpt>
      <trkpt lat="48.06778" lon="7.2313">
        <ele>305.4</ele>
        <time>2025-09-08T11:15:00Z</time>
      </trkpt>
      <trkpt lat="48.06775" lon="7.23126">
        <ele>305.6</ele>
        <time>2025-09-08T11:15:01Z</time>
      </trkpt>
      <trkpt lat="48.06772" lon="7.23123">
        <ele>305.6</ele>
        <time>2025-09-08T11:15:02Z</time>
      </trkpt>
      <trkpt lat="48.06769" lon="7.2312">
        <ele>305.6</ele>
        <time>2025-09-08T11:15:03Z</time>
      </trkpt>
      <trkpt lat="48.06766" lon="7.23117">
        <ele>305.6</ele>
        <time>2025-09-08T11:15:04Z</time>
      </trkpt>
      <trkpt lat="48.06763" lon="7.23114">
        <ele>305.8</ele>
        <time>2025-09-08T11:15:05Z</time>
      </trkpt>
      <trkpt lat="48.0676" lon="7.23111">
        <ele>305.8</ele>
        <time>2025-09-08T11:15:06Z</time>
      </trkpt>
      <trkpt lat="48.06758" lon="7.23108">
        <ele>306</ele>
        <time>2025-09-08T11:15:07Z</time>
      </trkpt>
      <trkpt lat="48.06755" lon="7.23105">
        <ele>306</ele>
        <time>2025-09-08T11:15:08Z</time>
      </trkpt>
      <trkpt lat="48.06753" lon="7.23102">
        <ele>306.2</ele>
        <time>2025-09-08T11:15:09Z</time>
      </trkpt>
      <trkpt lat="48.0675" lon="7.23099">
        <ele>306.4</ele>
        <time>2025-09-08T11:15:10Z</time>
      </trkpt>
      <trkpt lat="48.06747" lon="7.23096">
        <ele>306.6</ele>
        <time>2025-09-08T11:15:11Z</time>
      </trkpt>
      <trkpt lat="48.06745" lon="7.23092">
        <ele>307</ele>
        <time>2025-09-08T11:15:12Z</time>
      </trkpt>
      <trkpt lat="48.06742" lon="7.23089">
        <ele>307.2</ele>
        <time>2025-09-08T11:15:13Z</time>
      </trkpt>
      <trkpt lat="48.06739" lon="7.23086">
        <ele>307.2</ele>
        <time>2025-09-08T11:15:14Z</time>
      </trkpt>
      <trkpt lat="48.06736" lon="7.23083">
        <ele>307.6</ele>
        <time>2025-09-08T11:15:15Z</time>
      </trkpt>
      <trkpt lat="48.06734" lon="7.2308">
        <ele>307.8</ele>
        <time>2025-09-08T11:15:16Z</time>
      </trkpt>
      <trkpt lat="48.06731" lon="7.23077">
        <ele>308</ele>
        <time>2025-09-08T11:15:17Z</time>
      </trkpt>
      <trkpt lat="48.06728" lon="7.23074">
        <ele>308</ele>
        <time>2025-09-08T11:15:18Z</time>
      </trkpt>
      <trkpt lat="48.06726" lon="7.23071">
        <ele>308</ele>
        <time>2025-09-08T11:15:19Z</time>
      </trkpt>
      <trkpt lat="48.06724" lon="7.23067">
        <ele>308.2</ele>
        <time>2025-09-08T11:15:20Z</time>
      </trkpt>
      <trkpt lat="48.06723" lon="7.23062">
        <ele>308.4</ele>
        <time>2025-09-08T11:15:21Z</time>
      </trkpt>
      <trkpt lat="48.06723" lon="7.23056">
        <ele>308.4</ele>
        <time>2025-09-08T11:15:22Z</time>
      </trkpt>
      <trkpt lat="48.06722" lon="7.23052">
        <ele>308.4</ele>
        <time>2025-09-08T11:15:23Z</time>
      </trkpt>
      <trkpt lat="48.06721" lon="7.23047">
        <ele>308.6</ele>
        <time>2025-09-08T11:15:24Z</time>
      </trkpt>
      <trkpt lat="48.0672" lon="7.23043">
        <ele>309</ele>
        <time>2025-09-08T11:15:25Z</time>
      </trkpt>
      <trkpt lat="48.06718" lon="7.2304">
        <ele>309.2</ele>
        <time>2025-09-08T11:15:26Z</time>
      </trkpt>
      <trkpt lat="48.06716" lon="7.23036">
        <ele>309.4</ele>
        <time>2025-09-08T11:15:27Z</time>
      </trkpt>
      <trkpt lat="48.06714" lon="7.23034">
        <ele>309.8</ele>
        <time>2025-09-08T11:15:28Z</time>
      </trkpt>
      <trkpt lat="48.06712" lon="7.23031">
        <ele>310</ele>
        <time>2025-09-08T11:15:29Z</time>
      </trkpt>
      <trkpt lat="48.06712" lon="7.23029">
        <ele>310</ele>
        <time>2025-09-08T11:15:30Z</time>
      </trkpt>
      <trkpt lat="48.06712" lon="7.23029">
        <ele>310.2</ele>
        <time>2025-09-08T11:15:31Z</time>
      </trkpt>
      <trkpt lat="48.06712" lon="7.23029">
        <ele>310.4</ele>
        <time>2025-09-08T11:15:32Z</time>
      </trkpt>
      <trkpt lat="48.06708" lon="7.23028">
        <ele>311</ele>
        <time>2025-09-08T11:15:46Z</time>
      </trkpt>
      <trkpt lat="48.06705" lon="7.23026">
        <ele>311</ele>
        <time>2025-09-08T11:15:47Z</time>
      </trkpt>
      <trkpt lat="48.06701" lon="7.23022">
        <ele>311</ele>
        <time>2025-09-08T11:15:48Z</time>
      </trkpt>
      <trkpt lat="48.06698" lon="7.23018">
        <ele>311</ele>
        <time>2025-09-08T11:15:49Z</time>
      </trkpt>
      <trkpt lat="48.06694" lon="7.23015">
        <ele>310.8</ele>
        <time>2025-09-08T11:15:50Z</time>
      </trkpt>
      <trkpt lat="48.0669" lon="7.2301">
        <ele>310.8</ele>
        <time>2025-09-08T11:15:51Z</time>
      </trkpt>
      <trkpt lat="48.06685" lon="7.23007">
        <ele>310.6</ele>
        <time>2025-09-08T11:15:52Z</time>
      </trkpt>
      <trkpt lat="48.06681" lon="7.23003">
        <ele>310.4</ele>
        <time>2025-09-08T11:15:53Z</time>
      </trkpt>
      <trkpt lat="48.06676" lon="7.23001">
        <ele>310.2</ele>
        <time>2025-09-08T11:15:54Z</time>
      </trkpt>
      <trkpt lat="48.06672" lon="7.22999">
        <ele>310.2</ele>
        <time>2025-09-08T11:15:55Z</time>
      </trkpt>
      <trkpt lat="48.06667" lon="7.22997">
        <ele>310.2</ele>
        <time>2025-09-08T11:15:56Z</time>
      </trkpt>
      <trkpt lat="48.06663" lon="7.22995">
        <ele>310.2</ele>
        <time>2025-09-08T11:15:57Z</time>
      </trkpt>
      <trkpt lat="48.06659" lon="7.22992">
        <ele>310.2</ele>
        <time>2025-09-08T11:15:58Z</time>
      </trkpt>
      <trkpt lat="48.06655" lon="7.2299">
        <ele>310.4</ele>
        <time>2025-09-08T11:15:59Z</time>
      </trkpt>
      <trkpt lat="48.06651" lon="7.22988">
        <ele>310.8</ele>
        <time>2025-09-08T11:16:00Z</time>
      </trkpt>
      <trkpt lat="48.06647" lon="7.22985">
        <ele>310.8</ele>
        <time>2025-09-08T11:16:01Z</time>
      </trkpt>
      <trkpt lat="48.06643" lon="7.22983">
        <ele>311</ele>
        <time>2025-09-08T11:16:02Z</time>
      </trkpt>
      <trkpt lat="48.06639" lon="7.2298">
        <ele>311.4</ele>
        <time>2025-09-08T11:16:03Z</time>
      </trkpt>
      <trkpt lat="48.06635" lon="7.22977">
        <ele>312</ele>
        <time>2025-09-08T11:16:04Z</time>
      </trkpt>
      <trkpt lat="48.06631" lon="7.22976">
        <ele>312.4</ele>
        <time>2025-09-08T11:16:05Z</time>
      </trkpt>
      <trkpt lat="48.06627" lon="7.22973">
        <ele>312.6</ele>
        <time>2025-09-08T11:16:06Z</time>
      </trkpt>
      <trkpt lat="48.06622" lon="7.22971">
        <ele>312.8</ele>
        <time>2025-09-08T11:16:07Z</time>
      </trkpt>
      <trkpt lat="48.06618" lon="7.22968">
        <ele>313.2</ele>
        <time>2025-09-08T11:16:08Z</time>
      </trkpt>
      <trkpt lat="48.06613" lon="7.22965">
        <ele>313.4</ele>
        <time>2025-09-08T11:16:09Z</time>
      </trkpt>
      <trkpt lat="48.06609" lon="7.22963">
        <ele>313.4</ele>
        <time>2025-09-08T11:16:10Z</time>
      </trkpt>
      <trkpt lat="48.06604" lon="7.2296">
        <ele>313.6</ele>
        <time>2025-09-08T11:16:11Z</time>
      </trkpt>
      <trkpt lat="48.066" lon="7.22957">
        <ele>313.8</ele>
        <time>2025-09-08T11:16:12Z</time>
      </trkpt>
      <trkpt lat="48.06596" lon="7.22955">
        <ele>314</ele>
        <time>2025-09-08T11:16:13Z</time>
      </trkpt>
      <trkpt lat="48.06592" lon="7.22952">
        <ele>314</ele>
        <time>2025-09-08T11:16:14Z</time>
      </trkpt>
      <trkpt lat="48.06588" lon="7.22949">
        <ele>314.4</ele>
        <time>2025-09-08T11:16:15Z</time>
      </trkpt>
      <trkpt lat="48.06584" lon="7.22947">
        <ele>314.6</ele>
        <time>2025-09-08T11:16:16Z</time>
      </trkpt>
      <trkpt lat="48.0658" lon="7.22944">
        <ele>315</ele>
        <time>2025-09-08T11:16:17Z</time>
      </trkpt>
      <trkpt lat="48.06576" lon="7.22942">
        <ele>315.2</ele>
        <time>2025-09-08T11:16:18Z</time>
      </trkpt>
      <trkpt lat="48.06572" lon="7.22939">
        <ele>315.4</ele>
        <time>2025-09-08T11:16:19Z</time>
      </trkpt>
      <trkpt lat="48.06567" lon="7.22937">
        <ele>315.6</ele>
        <time>2025-09-08T11:16:20Z</time>
      </trkpt>
      <trkpt lat="48.06563" lon="7.22935">
        <ele>316</ele>
        <time>2025-09-08T11:16:21Z</time>
      </trkpt>
      <trkpt lat="48.06559" lon="7.22933">
        <ele>316.2</ele>
        <time>2025-09-08T11:16:22Z</time>
      </trkpt>
      <trkpt lat="48.06555" lon="7.22932">
        <ele>316.6</ele>
        <time>2025-09-08T11:16:23Z</time>
      </trkpt>
      <trkpt lat="48.0655" lon="7.2293">
        <ele>316.8</ele>
        <time>2025-09-08T11:16:24Z</time>
      </trkpt>
      <trkpt lat="48.06546" lon="7.22928">
        <ele>317.2</ele>
        <time>2025-09-08T11:16:25Z</time>
      </trkpt>
      <trkpt lat="48.06542" lon="7.22926">
        <ele>317.6</ele>
        <time>2025-09-08T11:16:26Z</time>
      </trkpt>
      <trkpt lat="48.06538" lon="7.22924">
        <ele>318</ele>
        <time>2025-09-08T11:16:27Z</time>
      </trkpt>
      <trkpt lat="48.06534" lon="7.22922">
        <ele>318.6</ele>
        <time>2025-09-08T11:16:28Z</time>
      </trkpt>
      <trkpt lat="48.0653" lon="7.22919">
        <ele>318.8</ele>
        <time>2025-09-08T11:16:29Z</time>
      </trkpt>
      <trkpt lat="48.06527" lon="7.22915">
        <ele>319.2</ele>
        <time>2025-09-08T11:16:30Z</time>
      </trkpt>
      <trkpt lat="48.06523" lon="7.22911">
        <ele>319.8</ele>
        <time>2025-09-08T11:16:31Z</time>
      </trkpt>
      <trkpt lat="48.0652" lon="7.22908">
        <ele>320</ele>
        <time>2025-09-08T11:16:32Z</time>
      </trkpt>
      <trkpt lat="48.06516" lon="7.22904">
        <ele>320.4</ele>
        <time>2025-09-08T11:16:33Z</time>
      </trkpt>
      <trkpt lat="48.06513" lon="7.229">
        <ele>320.8</ele>
        <time>2025-09-08T11:16:34Z</time>
      </trkpt>
      <trkpt lat="48.06509" lon="7.22896">
        <ele>321</ele>
        <time>2025-09-08T11:16:35Z</time>
      </trkpt>
      <trkpt lat="48.06506" lon="7.22893">
        <ele>321.6</ele>
        <time>2025-09-08T11:16:36Z</time>
      </trkpt>
      <trkpt lat="48.06503" lon="7.22889">
        <ele>322</ele>
        <time>2025-09-08T11:16:37Z</time>
      </trkpt>
      <trkpt lat="48.065" lon="7.22886">
        <ele>322.4</ele>
        <time>2025-09-08T11:16:38Z</time>
      </trkpt>
      <trkpt lat="48.06496" lon="7.22883">
        <ele>323</ele>
        <time>2025-09-08T11:16:39Z</time>
      </trkpt>
      <trkpt lat="48.06493" lon="7.22881">
        <ele>323.4</ele>
        <time>2025-09-08T11:16:40Z</time>
      </trkpt>
      <trkpt lat="48.0649" lon="7.22879">
        <ele>324</ele>
        <time>2025-09-08T11:16:41Z</time>
      </trkpt>
      <trkpt lat="48.06489" lon="7.22877">
        <ele>324.4</ele>
        <time>2025-09-08T11:16:42Z</time>
      </trkpt>
      <trkpt lat="48.06489" lon="7.22877">
        <ele>324.6</ele>
        <time>2025-09-08T11:16:43Z</time>
      </trkpt>
      <trkpt lat="48.06488" lon="7.22879">
        <ele>325.2</ele>
        <time>2025-09-08T11:16:44Z</time>
      </trkpt>
      <trkpt lat="48.06488" lon="7.22879">
        <ele>325.4</ele>
        <time>2025-09-08T11:16:45Z</time>
      </trkpt>
      <trkpt lat="48.06484" lon="7.22872">
        <ele>325.4</ele>
        <time>2025-09-08T11:20:35Z</time>
      </trkpt>
      <trkpt lat="48.06482" lon="7.22869">
        <ele>325.4</ele>
        <time>2025-09-08T11:20:36Z</time>
      </trkpt>
      <trkpt lat="48.06479" lon="7.22866">
        <ele>325.6</ele>
        <time>2025-09-08T11:20:37Z</time>
      </trkpt>
      <trkpt lat="48.06476" lon="7.22863">
        <ele>325.6</ele>
        <time>2025-09-08T11:20:38Z</time>
      </trkpt>
      <trkpt lat="48.06473" lon="7.2286">
        <ele>325.8</ele>
        <time>2025-09-08T11:20:39Z</time>
      </trkpt>
      <trkpt lat="48.06469" lon="7.22858">
        <ele>325.8</ele>
        <time>2025-09-08T11:20:40Z</time>
      </trkpt>
      <trkpt lat="48.06466" lon="7.22856">
        <ele>326</ele>
        <time>2025-09-08T11:20:41Z</time>
      </trkpt>
      <trkpt lat="48.06462" lon="7.22853">
        <ele>326</ele>
        <time>2025-09-08T11:20:42Z</time>
      </trkpt>
      <trkpt lat="48.06459" lon="7.2285">
        <ele>326.2</ele>
        <time>2025-09-08T11:20:43Z</time>
      </trkpt>
      <trkpt lat="48.06456" lon="7.22847">
        <ele>326.2</ele>
        <time>2025-09-08T11:20:44Z</time>
      </trkpt>
      <trkpt lat="48.06453" lon="7.22844">
        <ele>326.4</ele>
        <time>2025-09-08T11:20:45Z</time>
      </trkpt>
      <trkpt lat="48.06451" lon="7.22841">
        <ele>326.4</ele>
        <time>2025-09-08T11:20:46Z</time>
      </trkpt>
      <trkpt lat="48.06447" lon="7.22837">
        <ele>326.8</ele>
        <time>2025-09-08T11:20:47Z</time>
      </trkpt>
      <trkpt lat="48.06445" lon="7.22833">
        <ele>327</ele>
        <time>2025-09-08T11:20:48Z</time>
      </trkpt>
      <trkpt lat="48.06442" lon="7.22829">
        <ele>327</ele>
        <time>2025-09-08T11:20:49Z</time>
      </trkpt>
      <trkpt lat="48.06439" lon="7.22825">
        <ele>327</ele>
        <time>2025-09-08T11:20:50Z</time>
      </trkpt>
      <trkpt lat="48.06436" lon="7.22821">
        <ele>327.2</ele>
        <time>2025-09-08T11:20:51Z</time>
      </trkpt>
      <trkpt lat="48.06433" lon="7.22817">
        <ele>327.4</ele>
        <time>2025-09-08T11:20:52Z</time>
      </trkpt>
      <trkpt lat="48.06431" lon="7.22813">
        <ele>327.4</ele>
        <time>2025-09-08T11:20:53Z</time>
      </trkpt>
      <trkpt lat="48.06428" lon="7.22808">
        <ele>327.6</ele>
        <time>2025-09-08T11:20:54Z</time>
      </trkpt>
      <trkpt lat="48.06426" lon="7.22803">
        <ele>327.8</ele>
        <time>2025-09-08T11:20:55Z</time>
      </trkpt>
      <trkpt lat="48.06424" lon="7.22798">
        <ele>327.8</ele>
        <time>2025-09-08T11:20:56Z</time>
      </trkpt>
      <trkpt lat="48.06422" lon="7.22793">
        <ele>328</ele>
        <time>2025-09-08T11:20:57Z</time>
      </trkpt>
      <trkpt lat="48.06419" lon="7.22788">
        <ele>328.2</ele>
        <time>2025-09-08T11:20:58Z</time>
      </trkpt>
      <trkpt lat="48.06416" lon="7.22783">
        <ele>328.2</ele>
        <time>2025-09-08T11:20:59Z</time>
      </trkpt>
      <trkpt lat="48.06414" lon="7.22778">
        <ele>328.4</ele>
        <time>2025-09-08T11:21:00Z</time>
      </trkpt>
      <trkpt lat="48.06411" lon="7.22773">
        <ele>328.4</ele>
        <time>2025-09-08T11:21:01Z</time>
      </trkpt>
      <trkpt lat="48.06409" lon="7.22768">
        <ele>328.6</ele>
        <time>2025-09-08T11:21:02Z</time>
      </trkpt>
      <trkpt lat="48.06406" lon="7.22764">
        <ele>328.8</ele>
        <time>2025-09-08T11:21:03Z</time>
      </trkpt>
      <trkpt lat="48.06403" lon="7.22759">
        <ele>328.8</ele>
        <time>2025-09-08T11:21:04Z</time>
      </trkpt>
      <trkpt lat="48.064" lon="7.22754">
        <ele>329</ele>
        <time>2025-09-08T11:21:05Z</time>
      </trkpt>
      <trkpt lat="48.06398" lon="7.22749">
        <ele>329.2</ele>
        <time>2025-09-08T11:21:06Z</time>
      </trkpt>
      <trkpt lat="48.06395" lon="7.22744">
        <ele>329.2</ele>
        <time>2025-09-08T11:21:07Z</time>
      </trkpt>
      <trkpt lat="48.06393" lon="7.22738">
        <ele>329.2</ele>
        <time>2025-09-08T11:21:08Z</time>
      </trkpt>
      <trkpt lat="48.06391" lon="7.22732">
        <ele>329.4</ele>
        <time>2025-09-08T11:21:09Z</time>
      </trkpt>
      <trkpt lat="48.06388" lon="7.22727">
        <ele>329.4</ele>
        <time>2025-09-08T11:21:10Z</time>
      </trkpt>
      <trkpt lat="48.06386" lon="7.22721">
        <ele>329.4</ele>
        <time>2025-09-08T11:21:11Z</time>
      </trkpt>
      <trkpt lat="48.06384" lon="7.22715">
        <ele>329.4</ele>
        <time>2025-09-08T11:21:12Z</time>
      </trkpt>
      <trkpt lat="48.06382" lon="7.22709">
        <ele>329.6</ele>
        <time>2025-09-08T11:21:13Z</time>
      </trkpt>
      <trkpt lat="48.0638" lon="7.22702">
        <ele>329.6</ele>
        <time>2025-09-08T11:21:14Z</time>
      </trkpt>
      <trkpt lat="48.06378" lon="7.22696">
        <ele>329.6</ele>
        <time>2025-09-08T11:21:15Z</time>
      </trkpt>
      <trkpt lat="48.06376" lon="7.2269">
        <ele>329.6</ele>
        <time>2025-09-08T11:21:16Z</time>
      </trkpt>
      <trkpt lat="48.06375" lon="7.22684">
        <ele>329.6</ele>
        <time>2025-09-08T11:21:17Z</time>
      </trkpt>
      <trkpt lat="48.06373" lon="7.22678">
        <ele>329.8</ele>
        <time>2025-09-08T11:21:18Z</time>
      </trkpt>
      <trkpt lat="48.06372" lon="7.22672">
        <ele>329.8</ele>
        <time>2025-09-08T11:21:19Z</time>
      </trkpt>
      <trkpt lat="48.0637" lon="7.22666">
        <ele>329.8</ele>
        <time>2025-09-08T11:21:20Z</time>
      </trkpt>
      <trkpt lat="48.06369" lon="7.22659">
        <ele>329.8</ele>
        <time>2025-09-08T11:21:21Z</time>
      </trkpt>
      <trkpt lat="48.06368" lon="7.22654">
        <ele>330</ele>
        <time>2025-09-08T11:21:22Z</time>
      </trkpt>
      <trkpt lat="48.06368" lon="7.22648">
        <ele>330.2</ele>
        <time>2025-09-08T11:21:23Z</time>
      </trkpt>
      <trkpt lat="48.06368" lon="7.22642">
        <ele>330.4</ele>
        <time>2025-09-08T11:21:24Z</time>
      </trkpt>
      <trkpt lat="48.06368" lon="7.22634">
        <ele>330.4</ele>
        <time>2025-09-08T11:21:25Z</time>
      </trkpt>
      <trkpt lat="48.06369" lon="7.22627">
        <ele>330.6</ele>
        <time>2025-09-08T11:21:26Z</time>
      </trkpt>
      <trkpt lat="48.06369" lon="7.22619">
        <ele>330.6</ele>
        <time>2025-09-08T11:21:27Z</time>
      </trkpt>
      <trkpt lat="48.06369" lon="7.22612">
        <ele>330.6</ele>
        <time>2025-09-08T11:21:28Z</time>
      </trkpt>
      <trkpt lat="48.06369" lon="7.22603">
        <ele>330.6</ele>
        <time>2025-09-08T11:21:29Z</time>
      </trkpt>
      <trkpt lat="48.06369" lon="7.22594">
        <ele>330</ele>
        <time>2025-09-08T11:21:30Z</time>
      </trkpt>
      <trkpt lat="48.06368" lon="7.22584">
        <ele>329.8</ele>
        <time>2025-09-08T11:21:31Z</time>
      </trkpt>
      <trkpt lat="48.06367" lon="7.22574">
        <ele>329.8</ele>
        <time>2025-09-08T11:21:32Z</time>
      </trkpt>
      <trkpt lat="48.06366" lon="7.22564">
        <ele>329.4</ele>
        <time>2025-09-08T11:21:33Z</time>
      </trkpt>
      <trkpt lat="48.06365" lon="7.22555">
        <ele>329</ele>
        <time>2025-09-08T11:21:34Z</time>
      </trkpt>
      <trkpt lat="48.06365" lon="7.22545">
        <ele>328.8</ele>
        <time>2025-09-08T11:21:35Z</time>
      </trkpt>
      <trkpt lat="48.06366" lon="7.22535">
        <ele>328</ele>
        <time>2025-09-08T11:21:36Z</time>
      </trkpt>
      <trkpt lat="48.06368" lon="7.22526">
        <ele>327.8</ele>
        <time>2025-09-08T11:21:37Z</time>
      </trkpt>
      <trkpt lat="48.06371" lon="7.22518">
        <ele>327</ele>
        <time>2025-09-08T11:21:38Z</time>
      </trkpt>
      <trkpt lat="48.06374" lon="7.2251">
        <ele>326.6</ele>
        <time>2025-09-08T11:21:39Z</time>
      </trkpt>
      <trkpt lat="48.06377" lon="7.22504">
        <ele>326.4</ele>
        <time>2025-09-08T11:21:40Z</time>
      </trkpt>
      <trkpt lat="48.06379" lon="7.22497">
        <ele>326.4</ele>
        <time>2025-09-08T11:21:41Z</time>
      </trkpt>
      <trkpt lat="48.06382" lon="7.22491">
        <ele>326.4</ele>
        <time>2025-09-08T11:21:42Z</time>
      </trkpt>
      <trkpt lat="48.06384" lon="7.22484">
        <ele>326.4</ele>
        <time>2025-09-08T11:21:43Z</time>
      </trkpt>
      <trkpt lat="48.06387" lon="7.22478">
        <ele>326.6</ele>
        <time>2025-09-08T11:21:44Z</time>
      </trkpt>
      <trkpt lat="48.06389" lon="7.22471">
        <ele>326.6</ele>
        <time>2025-09-08T11:21:45Z</time>
      </trkpt>
      <trkpt lat="48.0639" lon="7.22464">
        <ele>326.8</ele>
        <time>2025-09-08T11:21:46Z</time>
      </trkpt>
      <trkpt lat="48.06392" lon="7.22457">
        <ele>327</ele>
        <time>2025-09-08T11:21:47Z</time>
      </trkpt>
      <trkpt lat="48.06394" lon="7.22451">
        <ele>327.2</ele>
        <time>2025-09-08T11:21:48Z</time>
      </trkpt>
      <trkpt lat="48.06395" lon="7.22444">
        <ele>327.6</ele>
        <time>2025-09-08T11:21:49Z</time>
      </trkpt>
      <trkpt lat="48.06396" lon="7.22437">
        <ele>327.8</ele>
        <time>2025-09-08T11:21:50Z</time>
      </trkpt>
      <trkpt lat="48.06397" lon="7.2243">
        <ele>328</ele>
        <time>2025-09-08T11:21:51Z</time>
      </trkpt>
      <trkpt lat="48.06398" lon="7.22424">
        <ele>328</ele>
        <time>2025-09-08T11:21:52Z</time>
      </trkpt>
      <trkpt lat="48.06399" lon="7.22418">
        <ele>328.2</ele>
        <time>2025-09-08T11:21:53Z</time>
      </trkpt>
      <trkpt lat="48.06401" lon="7.22412">
        <ele>328.2</ele>
        <time>2025-09-08T11:21:54Z</time>
      </trkpt>
      <trkpt lat="48.06402" lon="7.22407">
        <ele>328.4</ele>
        <time>2025-09-08T11:21:55Z</time>
      </trkpt>
      <trkpt lat="48.06404" lon="7.22402">
        <ele>328.6</ele>
        <time>2025-09-08T11:21:56Z</time>
      </trkpt>
      <trkpt lat="48.06406" lon="7.22397">
        <ele>328.8</ele>
        <time>2025-09-08T11:21:57Z</time>
      </trkpt>
      <trkpt lat="48.06408" lon="7.22392">
        <ele>329</ele>
        <time>2025-09-08T11:21:58Z</time>
      </trkpt>
      <trkpt lat="48.0641" lon="7.22387">
        <ele>329.4</ele>
        <time>2025-09-08T11:21:59Z</time>
      </trkpt>
      <trkpt lat="48.06413" lon="7.22382">
        <ele>329.4</ele>
        <time>2025-09-08T11:22:00Z</time>
      </trkpt>
      <trkpt lat="48.06414" lon="7.22376">
        <ele>329.8</ele>
        <time>2025-09-08T11:22:01Z</time>
      </trkpt>
      <trkpt lat="48.06415" lon="7.22372">
        <ele>330</ele>
        <time>2025-09-08T11:22:02Z</time>
      </trkpt>
      <trkpt lat="48.06415" lon="7.22367">
        <ele>330.2</ele>
        <time>2025-09-08T11:22:03Z</time>
      </trkpt>
      <trkpt lat="48.06415" lon="7.22362">
        <ele>330.4</ele>
        <time>2025-09-08T11:22:04Z</time>
      </trkpt>
      <trkpt lat="48.06416" lon="7.22357">
        <ele>330.8</ele>
        <time>2025-09-08T11:22:05Z</time>
      </trkpt>
      <trkpt lat="48.06416" lon="7.22352">
        <ele>331</ele>
        <time>2025-09-08T11:22:06Z</time>
      </trkpt>
      <trkpt lat="48.06417" lon="7.22347">
        <ele>331.2</ele>
        <time>2025-09-08T11:22:07Z</time>
      </trkpt>
      <trkpt lat="48.06416" lon="7.22342">
        <ele>331.2</ele>
        <time>2025-09-08T11:22:08Z</time>
      </trkpt>
      <trkpt lat="48.06417" lon="7.22336">
        <ele>331.4</ele>
        <time>2025-09-08T11:22:09Z</time>
      </trkpt>
      <trkpt lat="48.06417" lon="7.22331">
        <ele>331.4</ele>
        <time>2025-09-08T11:22:10Z</time>
      </trkpt>
      <trkpt lat="48.06418" lon="7.22326">
        <ele>331.4</ele>
        <time>2025-09-08T11:22:11Z</time>
      </trkpt>
      <trkpt lat="48.06418" lon="7.2232">
        <ele>331.4</ele>
        <time>2025-09-08T11:22:12Z</time>
      </trkpt>
      <trkpt lat="48.06419" lon="7.22313">
        <ele>331.4</ele>
        <time>2025-09-08T11:22:13Z</time>
      </trkpt>
      <trkpt lat="48.06419" lon="7.22307">
        <ele>331.4</ele>
        <time>2025-09-08T11:22:14Z</time>
      </trkpt>
      <trkpt lat="48.06418" lon="7.22301">
        <ele>331.4</ele>
        <time>2025-09-08T11:22:15Z</time>
      </trkpt>
      <trkpt lat="48.06418" lon="7.22295">
        <ele>331.4</ele>
        <time>2025-09-08T11:22:16Z</time>
      </trkpt>
      <trkpt lat="48.06418" lon="7.22288">
        <ele>331.4</ele>
        <time>2025-09-08T11:22:17Z</time>
      </trkpt>
      <trkpt lat="48.06418" lon="7.22282">
        <ele>331.4</ele>
        <time>2025-09-08T11:22:18Z</time>
      </trkpt>
      <trkpt lat="48.06417" lon="7.22275">
        <ele>331.4</ele>
        <time>2025-09-08T11:22:19Z</time>
      </trkpt>
      <trkpt lat="48.06416" lon="7.22269">
        <ele>331.4</ele>
        <time>2025-09-08T11:22:20Z</time>
      </trkpt>
      <trkpt lat="48.06414" lon="7.22262">
        <ele>331.6</ele>
        <time>2025-09-08T11:22:21Z</time>
      </trkpt>
      <trkpt lat="48.06412" lon="7.22256">
        <ele>331.8</ele>
        <time>2025-09-08T11:22:22Z</time>
      </trkpt>
      <trkpt lat="48.0641" lon="7.2225">
        <ele>332</ele>
        <time>2025-09-08T11:22:23Z</time>
      </trkpt>
      <trkpt lat="48.06408" lon="7.22244">
        <ele>332</ele>
        <time>2025-09-08T11:22:24Z</time>
      </trkpt>
      <trkpt lat="48.06405" lon="7.22239">
        <ele>332</ele>
        <time>2025-09-08T11:22:25Z</time>
      </trkpt>
      <trkpt lat="48.06402" lon="7.22235">
        <ele>332.2</ele>
        <time>2025-09-08T11:22:26Z</time>
      </trkpt>
      <trkpt lat="48.06399" lon="7.22231">
        <ele>332.2</ele>
        <time>2025-09-08T11:22:27Z</time>
      </trkpt>
      <trkpt lat="48.06395" lon="7.22231">
        <ele>332.4</ele>
        <time>2025-09-08T11:22:28Z</time>
      </trkpt>
      <trkpt lat="48.06391" lon="7.22232">
        <ele>332.6</ele>
        <time>2025-09-08T11:22:29Z</time>
      </trkpt>
      <trkpt lat="48.06388" lon="7.22234">
        <ele>333</ele>
        <time>2025-09-08T11:22:30Z</time>
      </trkpt>
      <trkpt lat="48.06385" lon="7.22237">
        <ele>333.4</ele>
        <time>2025-09-08T11:22:31Z</time>
      </trkpt>
      <trkpt lat="48.06382" lon="7.2224">
        <ele>333.6</ele>
        <time>2025-09-08T11:22:32Z</time>
      </trkpt>
      <trkpt lat="48.06379" lon="7.22243">
        <ele>333.8</ele>
        <time>2025-09-08T11:22:33Z</time>
      </trkpt>
      <trkpt lat="48.06376" lon="7.22245">
        <ele>334</ele>
        <time>2025-09-08T11:22:34Z</time>
      </trkpt>
      <trkpt lat="48.06373" lon="7.22247">
        <ele>334.2</ele>
        <time>2025-09-08T11:22:35Z</time>
      </trkpt>
      <trkpt lat="48.0637" lon="7.22248">
        <ele>334.2</ele>
        <time>2025-09-08T11:22:36Z</time>
      </trkpt>
      <trkpt lat="48.06368" lon="7.2225">
        <ele>334.4</ele>
        <time>2025-09-08T11:22:37Z</time>
      </trkpt>
      <trkpt lat="48.06366" lon="7.22251">
        <ele>334.4</ele>
        <time>2025-09-08T11:22:38Z</time>
      </trkpt>
      <trkpt lat="48.06364" lon="7.22253">
        <ele>334.6</ele>
        <time>2025-09-08T11:22:39Z</time>
      </trkpt>
      <trkpt lat="48.06362" lon="7.22255">
        <ele>334.6</ele>
        <time>2025-09-08T11:22:40Z</time>
      </trkpt>
      <trkpt lat="48.06359" lon="7.22257">
        <ele>334.6</ele>
        <time>2025-09-08T11:22:41Z</time>
      </trkpt>
      <trkpt lat="48.06355" lon="7.2226">
        <ele>334.6</ele>
        <time>2025-09-08T11:22:42Z</time>
      </trkpt>
      <trkpt lat="48.06351" lon="7.22263">
        <ele>334.4</ele>
        <time>2025-09-08T11:22:43Z</time>
      </trkpt>
      <trkpt lat="48.06346" lon="7.22266">
        <ele>334.2</ele>
        <time>2025-09-08T11:22:44Z</time>
      </trkpt>
      <trkpt lat="48.06342" lon="7.2227">
        <ele>334</ele>
        <time>2025-09-08T11:22:45Z</time>
      </trkpt>
      <trkpt lat="48.06337" lon="7.22274">
        <ele>333.8</ele>
        <time>2025-09-08T11:22:46Z</time>
      </trkpt>
      <trkpt lat="48.06333" lon="7.22278">
        <ele>333.6</ele>
        <time>2025-09-08T11:22:47Z</time>
      </trkpt>
      <trkpt lat="48.06328" lon="7.22283">
        <ele>333.2</ele>
        <time>2025-09-08T11:22:48Z</time>
      </trkpt>
      <trkpt lat="48.06323" lon="7.22287">
        <ele>332.8</ele>
        <time>2025-09-08T11:22:49Z</time>
      </trkpt>
      <trkpt lat="48.06318" lon="7.2229">
        <ele>332.6</ele>
        <time>2025-09-08T11:22:50Z</time>
      </trkpt>
      <trkpt lat="48.06313" lon="7.2229">
        <ele>332.2</ele>
        <time>2025-09-08T11:22:51Z</time>
      </trkpt>
      <trkpt lat="48.0631" lon="7.22286">
        <ele>332.2</ele>
        <time>2025-09-08T11:22:52Z</time>
      </trkpt>
      <trkpt lat="48.06307" lon="7.22281">
        <ele>332</ele>
        <time>2025-09-08T11:22:53Z</time>
      </trkpt>
      <trkpt lat="48.06304" lon="7.22276">
        <ele>331.8</ele>
        <time>2025-09-08T11:22:54Z</time>
      </trkpt>
      <trkpt lat="48.06302" lon="7.22271">
        <ele>331.8</ele>
        <time>2025-09-08T11:22:55Z</time>
      </trkpt>
      <trkpt lat="48.06299" lon="7.22265">
        <ele>331.8</ele>
        <time>2025-09-08T11:22:56Z</time>
      </trkpt>
      <trkpt lat="48.06296" lon="7.2226">
        <ele>331.8</ele>
        <time>2025-09-08T11:22:57Z</time>
      </trkpt>
      <trkpt lat="48.06293" lon="7.22255">
        <ele>331.8</ele>
        <time>2025-09-08T11:22:58Z</time>
      </trkpt>
      <trkpt lat="48.0629" lon="7.22249">
        <ele>331.8</ele>
        <time>2025-09-08T11:22:59Z</time>
      </trkpt>
      <trkpt lat="48.06287" lon="7.22243">
        <ele>332</ele>
        <time>2025-09-08T11:23:00Z</time>
      </trkpt>
      <trkpt lat="48.06285" lon="7.22238">
        <ele>332</ele>
        <time>2025-09-08T11:23:01Z</time>
      </trkpt>
      <trkpt lat="48.06282" lon="7.22232">
        <ele>332</ele>
        <time>2025-09-08T11:23:02Z</time>
      </trkpt>
      <trkpt lat="48.06279" lon="7.22226">
        <ele>332.2</ele>
        <time>2025-09-08T11:23:03Z</time>
      </trkpt>
      <trkpt lat="48.06277" lon="7.22221">
        <ele>332.2</ele>
        <time>2025-09-08T11:23:04Z</time>
      </trkpt>
      <trkpt lat="48.06274" lon="7.22215">
        <ele>332.4</ele>
        <time>2025-09-08T11:23:05Z</time>
      </trkpt>
      <trkpt lat="48.06271" lon="7.2221">
        <ele>332.6</ele>
        <time>2025-09-08T11:23:06Z</time>
      </trkpt>
      <trkpt lat="48.06269" lon="7.22204">
        <ele>332.8</ele>
        <time>2025-09-08T11:23:07Z</time>
      </trkpt>
      <trkpt lat="48.06266" lon="7.22199">
        <ele>333</ele>
        <time>2025-09-08T11:23:08Z</time>
      </trkpt>
      <trkpt lat="48.06263" lon="7.22193">
        <ele>333</ele>
        <time>2025-09-08T11:23:09Z</time>
      </trkpt>
      <trkpt lat="48.06261" lon="7.22187">
        <ele>333.4</ele>
        <time>2025-09-08T11:23:10Z</time>
      </trkpt>
      <trkpt lat="48.06258" lon="7.22181">
        <ele>333.4</ele>
        <time>2025-09-08T11:23:11Z</time>
      </trkpt>
      <trkpt lat="48.06255" lon="7.22176">
        <ele>333.6</ele>
        <time>2025-09-08T11:23:12Z</time>
      </trkpt>
      <trkpt lat="48.06252" lon="7.2217">
        <ele>333.6</ele>
        <time>2025-09-08T11:23:13Z</time>
      </trkpt>
      <trkpt lat="48.0625" lon="7.22164">
        <ele>333.8</ele>
        <time>2025-09-08T11:23:14Z</time>
      </trkpt>
      <trkpt lat="48.06248" lon="7.22159">
        <ele>334</ele>
        <time>2025-09-08T11:23:15Z</time>
      </trkpt>
      <trkpt lat="48.06245" lon="7.22152">
        <ele>334.2</ele>
        <time>2025-09-08T11:23:16Z</time>
      </trkpt>
      <trkpt lat="48.06242" lon="7.22146">
        <ele>334.4</ele>
        <time>2025-09-08T11:23:17Z</time>
      </trkpt>
      <trkpt lat="48.0624" lon="7.2214">
        <ele>334.4</ele>
        <time>2025-09-08T11:23:18Z</time>
      </trkpt>
      <trkpt lat="48.06237" lon="7.22135">
        <ele>334.6</ele>
        <time>2025-09-08T11:23:19Z</time>
      </trkpt>
      <trkpt lat="48.06234" lon="7.22129">
        <ele>334.6</ele>
        <time>2025-09-08T11:23:20Z</time>
      </trkpt>
      <trkpt lat="48.06231" lon="7.22124">
        <ele>334.6</ele>
        <time>2025-09-08T11:23:21Z</time>
      </trkpt>
      <trkpt lat="48.06228" lon="7.22118">
        <ele>334.8</ele>
        <time>2025-09-08T11:23:22Z</time>
      </trkpt>
      <trkpt lat="48.06225" lon="7.22113">
        <ele>334.8</ele>
        <time>2025-09-08T11:23:23Z</time>
      </trkpt>
      <trkpt lat="48.06222" lon="7.22107">
        <ele>334.8</ele>
        <time>2025-09-08T11:23:24Z</time>
      </trkpt>
      <trkpt lat="48.06218" lon="7.22102">
        <ele>334.8</ele>
        <time>2025-09-08T11:23:25Z</time>
      </trkpt>
      <trkpt lat="48.06214" lon="7.22096">
        <ele>334.6</ele>
        <time>2025-09-08T11:23:26Z</time>
      </trkpt>
      <trkpt lat="48.0621" lon="7.22091">
        <ele>334.6</ele>
        <time>2025-09-08T11:23:27Z</time>
      </trkpt>
      <trkpt lat="48.06205" lon="7.22085">
        <ele>334.4</ele>
        <time>2025-09-08T11:23:28Z</time>
      </trkpt>
      <trkpt lat="48.06201" lon="7.22078">
        <ele>334.4</ele>
        <time>2025-09-08T11:23:29Z</time>
      </trkpt>
      <trkpt lat="48.06196" lon="7.22071">
        <ele>334.2</ele>
        <time>2025-09-08T11:23:30Z</time>
      </trkpt>
      <trkpt lat="48.06192" lon="7.22064">
        <ele>333.8</ele>
        <time>2025-09-08T11:23:31Z</time>
      </trkpt>
      <trkpt lat="48.06188" lon="7.22056">
        <ele>333.6</ele>
        <time>2025-09-08T11:23:32Z</time>
      </trkpt>
      <trkpt lat="48.06184" lon="7.22048">
        <ele>333.2</ele>
        <time>2025-09-08T11:23:33Z</time>
      </trkpt>
      <trkpt lat="48.06179" lon="7.22041">
        <ele>332.8</ele>
        <time>2025-09-08T11:23:34Z</time>
      </trkpt>
      <trkpt lat="48.06174" lon="7.22033">
        <ele>332.4</ele>
        <time>2025-09-08T11:23:35Z</time>
      </trkpt>
      <trkpt lat="48.06168" lon="7.22025">
        <ele>331.8</ele>
        <time>2025-09-08T11:23:36Z</time>
      </trkpt>
      <trkpt lat="48.06162" lon="7.22018">
        <ele>331.4</ele>
        <time>2025-09-08T11:23:37Z</time>
      </trkpt>
      <trkpt lat="48.06156" lon="7.22011">
        <ele>330.6</ele>
        <time>2025-09-08T11:23:38Z</time>
      </trkpt>
      <trkpt lat="48.0615" lon="7.22003">
        <ele>329.8</ele>
        <time>2025-09-08T11:23:39Z</time>
      </trkpt>
      <trkpt lat="48.06145" lon="7.21995">
        <ele>329</ele>
        <time>2025-09-08T11:23:40Z</time>
      </trkpt>
      <trkpt lat="48.06141" lon="7.21985">
        <ele>328.4</ele>
        <time>2025-09-08T11:23:41Z</time>
      </trkpt>
      <trkpt lat="48.06137" lon="7.21975">
        <ele>327.4</ele>
        <time>2025-09-08T11:23:42Z</time>
      </trkpt>
      <trkpt lat="48.06133" lon="7.21963">
        <ele>326.4</ele>
        <time>2025-09-08T11:23:43Z</time>
      </trkpt>
      <trkpt lat="48.0613" lon="7.21951">
        <ele>325.8</ele>
        <time>2025-09-08T11:23:44Z</time>
      </trkpt>
      <trkpt lat="48.06128" lon="7.21939">
        <ele>324.8</ele>
        <time>2025-09-08T11:23:45Z</time>
      </trkpt>
      <trkpt lat="48.06123" lon="7.21928">
        <ele>324</ele>
        <time>2025-09-08T11:23:46Z</time>
      </trkpt>
      <trkpt lat="48.06118" lon="7.21917">
        <ele>323.4</ele>
        <time>2025-09-08T11:23:47Z</time>
      </trkpt>
      <trkpt lat="48.06113" lon="7.21906">
        <ele>322.8</ele>
        <time>2025-09-08T11:23:48Z</time>
      </trkpt>
      <trkpt lat="48.06107" lon="7.21896">
        <ele>322.2</ele>
        <time>2025-09-08T11:23:49Z</time>
      </trkpt>
      <trkpt lat="48.06101" lon="7.21885">
        <ele>321.2</ele>
        <time>2025-09-08T11:23:50Z</time>
      </trkpt>
      <trkpt lat="48.06095" lon="7.21874">
        <ele>320.4</ele>
        <time>2025-09-08T11:23:51Z</time>
      </trkpt>
      <trkpt lat="48.0609" lon="7.21863">
        <ele>319.8</ele>
        <time>2025-09-08T11:23:52Z</time>
      </trkpt>
      <trkpt lat="48.06086" lon="7.21851">
        <ele>319</ele>
        <time>2025-09-08T11:23:53Z</time>
      </trkpt>
      <trkpt lat="48.06083" lon="7.21839">
        <ele>318.2</ele>
        <time>2025-09-08T11:23:54Z</time>
      </trkpt>
      <trkpt lat="48.06081" lon="7.21827">
        <ele>317.8</ele>
        <time>2025-09-08T11:23:55Z</time>
      </trkpt>
      <trkpt lat="48.06079" lon="7.21815">
        <ele>317.6</ele>
        <time>2025-09-08T11:23:56Z</time>
      </trkpt>
      <trkpt lat="48.06077" lon="7.21804">
        <ele>317.2</ele>
        <time>2025-09-08T11:23:57Z</time>
      </trkpt>
      <trkpt lat="48.06076" lon="7.21793">
        <ele>316.8</ele>
        <time>2025-09-08T11:23:58Z</time>
      </trkpt>
      <trkpt lat="48.06075" lon="7.21783">
        <ele>316.8</ele>
        <time>2025-09-08T11:23:59Z</time>
      </trkpt>
      <trkpt lat="48.06075" lon="7.21773">
        <ele>316.6</ele>
        <time>2025-09-08T11:24:00Z</time>
      </trkpt>
      <trkpt lat="48.06075" lon="7.21763">
        <ele>316.4</ele>
        <time>2025-09-08T11:24:01Z</time>
      </trkpt>
      <trkpt lat="48.06074" lon="7.21754">
        <ele>316.4</ele>
        <time>2025-09-08T11:24:02Z</time>
      </trkpt>
      <trkpt lat="48.06073" lon="7.21744">
        <ele>316.4</ele>
        <time>2025-09-08T11:24:03Z</time>
      </trkpt>
      <trkpt lat="48.06071" lon="7.21735">
        <ele>316.4</ele>
        <time>2025-09-08T11:24:04Z</time>
      </trkpt>
      <trkpt lat="48.06069" lon="7.21726">
        <ele>316.4</ele>
        <time>2025-09-08T11:24:05Z</time>
      </trkpt>
      <trkpt lat="48.06067" lon="7.21718">
        <ele>316.4</ele>
        <time>2025-09-08T11:24:06Z</time>
      </trkpt>
      <trkpt lat="48.06065" lon="7.21708">
        <ele>316.4</ele>
        <time>2025-09-08T11:24:07Z</time>
      </trkpt>
      <trkpt lat="48.06063" lon="7.21699">
        <ele>316.6</ele>
        <time>2025-09-08T11:24:08Z</time>
      </trkpt>
      <trkpt lat="48.0606" lon="7.2169">
        <ele>316.6</ele>
        <time>2025-09-08T11:24:09Z</time>
      </trkpt>
      <trkpt lat="48.06057" lon="7.21682">
        <ele>316.6</ele>
        <time>2025-09-08T11:24:10Z</time>
      </trkpt>
      <trkpt lat="48.06053" lon="7.21674">
        <ele>316.8</ele>
        <time>2025-09-08T11:24:11Z</time>
      </trkpt>
      <trkpt lat="48.0605" lon="7.21666">
        <ele>316.8</ele>
        <time>2025-09-08T11:24:12Z</time>
      </trkpt>
      <trkpt lat="48.06046" lon="7.21658">
        <ele>316.8</ele>
        <time>2025-09-08T11:24:13Z</time>
      </trkpt>
      <trkpt lat="48.06043" lon="7.21651">
        <ele>316.8</ele>
        <time>2025-09-08T11:24:14Z</time>
      </trkpt>
      <trkpt lat="48.0604" lon="7.21643">
        <ele>317</ele>
        <time>2025-09-08T11:24:15Z</time>
      </trkpt>
      <trkpt lat="48.06036" lon="7.21636">
        <ele>317</ele>
        <time>2025-09-08T11:24:16Z</time>
      </trkpt>
      <trkpt lat="48.06032" lon="7.21628">
        <ele>317</ele>
        <time>2025-09-08T11:24:17Z</time>
      </trkpt>
      <trkpt lat="48.06028" lon="7.2162">
        <ele>317</ele>
        <time>2025-09-08T11:24:18Z</time>
      </trkpt>
      <trkpt lat="48.06025" lon="7.21612">
        <ele>317</ele>
        <time>2025-09-08T11:24:19Z</time>
      </trkpt>
      <trkpt lat="48.06021" lon="7.21605">
        <ele>317</ele>
        <time>2025-09-08T11:24:20Z</time>
      </trkpt>
      <trkpt lat="48.06018" lon="7.21596">
        <ele>316.8</ele>
        <time>2025-09-08T11:24:21Z</time>
      </trkpt>
      <trkpt lat="48.06015" lon="7.21588">
        <ele>316.8</ele>
        <time>2025-09-08T11:24:22Z</time>
      </trkpt>
      <trkpt lat="48.06011" lon="7.2158">
        <ele>316.8</ele>
        <time>2025-09-08T11:24:23Z</time>
      </trkpt>
      <trkpt lat="48.06007" lon="7.21572">
        <ele>316.6</ele>
        <time>2025-09-08T11:24:24Z</time>
      </trkpt>
      <trkpt lat="48.06003" lon="7.21564">
        <ele>316.6</ele>
        <time>2025-09-08T11:24:25Z</time>
      </trkpt>
      <trkpt lat="48.05999" lon="7.21556">
        <ele>316.4</ele>
        <time>2025-09-08T11:24:26Z</time>
      </trkpt>
      <trkpt lat="48.05994" lon="7.21549">
        <ele>316.2</ele>
        <time>2025-09-08T11:24:27Z</time>
      </trkpt>
      <trkpt lat="48.0599" lon="7.21542">
        <ele>316</ele>
        <time>2025-09-08T11:24:28Z</time>
      </trkpt>
      <trkpt lat="48.05986" lon="7.21535">
        <ele>316</ele>
        <time>2025-09-08T11:24:29Z</time>
      </trkpt>
      <trkpt lat="48.05981" lon="7.21529">
        <ele>315.8</ele>
        <time>2025-09-08T11:24:30Z</time>
      </trkpt>
      <trkpt lat="48.05976" lon="7.21523">
        <ele>315.8</ele>
        <time>2025-09-08T11:24:31Z</time>
      </trkpt>
      <trkpt lat="48.05971" lon="7.21517">
        <ele>315.6</ele>
        <time>2025-09-08T11:24:32Z</time>
      </trkpt>
      <trkpt lat="48.05966" lon="7.21512">
        <ele>315.6</ele>
        <time>2025-09-08T11:24:33Z</time>
      </trkpt>
      <trkpt lat="48.0596" lon="7.21508">
        <ele>315.6</ele>
        <time>2025-09-08T11:24:34Z</time>
      </trkpt>
      <trkpt lat="48.05955" lon="7.21505">
        <ele>315.6</ele>
        <time>2025-09-08T11:24:35Z</time>
      </trkpt>
      <trkpt lat="48.05949" lon="7.21503">
        <ele>315.6</ele>
        <time>2025-09-08T11:24:36Z</time>
      </trkpt>
      <trkpt lat="48.05942" lon="7.21501">
        <ele>315.6</ele>
        <time>2025-09-08T11:24:37Z</time>
      </trkpt>
      <trkpt lat="48.05936" lon="7.215">
        <ele>315.6</ele>
        <time>2025-09-08T11:24:38Z</time>
      </trkpt>
      <trkpt lat="48.05929" lon="7.21499">
        <ele>315.6</ele>
        <time>2025-09-08T11:24:39Z</time>
      </trkpt>
      <trkpt lat="48.05923" lon="7.215">
        <ele>315.6</ele>
        <time>2025-09-08T11:24:40Z</time>
      </trkpt>
      <trkpt lat="48.05916" lon="7.21502">
        <ele>315.6</ele>
        <time>2025-09-08T11:24:41Z</time>
      </trkpt>
      <trkpt lat="48.0591" lon="7.21502">
        <ele>315.6</ele>
        <time>2025-09-08T11:24:42Z</time>
      </trkpt>
      <trkpt lat="48.05903" lon="7.21503">
        <ele>315.4</ele>
        <time>2025-09-08T11:24:43Z</time>
      </trkpt>
      <trkpt lat="48.05896" lon="7.21504">
        <ele>315.4</ele>
        <time>2025-09-08T11:24:44Z</time>
      </trkpt>
      <trkpt lat="48.0589" lon="7.21504">
        <ele>315.4</ele>
        <time>2025-09-08T11:24:45Z</time>
      </trkpt>
      <trkpt lat="48.05884" lon="7.21504">
        <ele>315.2</ele>
        <time>2025-09-08T11:24:46Z</time>
      </trkpt>
      <trkpt lat="48.05877" lon="7.21503">
        <ele>315.2</ele>
        <time>2025-09-08T11:24:47Z</time>
      </trkpt>
      <trkpt lat="48.05871" lon="7.21502">
        <ele>315</ele>
        <time>2025-09-08T11:24:48Z</time>
      </trkpt>
      <trkpt lat="48.05865" lon="7.21501">
        <ele>314.8</ele>
        <time>2025-09-08T11:24:49Z</time>
      </trkpt>
      <trkpt lat="48.0586" lon="7.21499">
        <ele>312.8</ele>
        <time>2025-09-08T11:25:14Z</time>
      </trkpt>
      <trkpt lat="48.05861" lon="7.21496">
        <ele>312.8</ele>
        <time>2025-09-08T11:25:15Z</time>
      </trkpt>
      <trkpt lat="48.05861" lon="7.21494">
        <ele>312.8</ele>
        <time>2025-09-08T11:25:16Z</time>
      </trkpt>
      <trkpt lat="48.05861" lon="7.21493">
        <ele>313.2</ele>
        <time>2025-09-08T11:25:17Z</time>
      </trkpt>
      <trkpt lat="48.05861" lon="7.21492">
        <ele>313.6</ele>
        <time>2025-09-08T11:25:18Z</time>
      </trkpt>
      <trkpt lat="48.05859" lon="7.21489">
        <ele>314.4</ele>
        <time>2025-09-08T11:25:42Z</time>
      </trkpt>
      <trkpt lat="48.05858" lon="7.21487">
        <ele>314.2</ele>
        <time>2025-09-08T11:25:43Z</time>
      </trkpt>
      <trkpt lat="48.05857" lon="7.21485">
        <ele>314.2</ele>
        <time>2025-09-08T11:25:44Z</time>
      </trkpt>
      <trkpt lat="48.05856" lon="7.21483">
        <ele>314.2</ele>
        <time>2025-09-08T11:25:45Z</time>
      </trkpt>
      <trkpt lat="48.05856" lon="7.21479">
        <ele>314.2</ele>
        <time>2025-09-08T11:25:46Z</time>
      </trkpt>
      <trkpt lat="48.05854" lon="7.21476">
        <ele>314.2</ele>
        <time>2025-09-08T11:25:47Z</time>
      </trkpt>
      <trkpt lat="48.05853" lon="7.21473">
        <ele>314</ele>
        <time>2025-09-08T11:25:48Z</time>
      </trkpt>
      <trkpt lat="48.05851" lon="7.2147">
        <ele>314</ele>
        <time>2025-09-08T11:25:49Z</time>
      </trkpt>
      <trkpt lat="48.05849" lon="7.21465">
        <ele>314</ele>
        <time>2025-09-08T11:25:50Z</time>
      </trkpt>
      <trkpt lat="48.05847" lon="7.21461">
        <ele>314</ele>
        <time>2025-09-08T11:25:51Z</time>
      </trkpt>
      <trkpt lat="48.05846" lon="7.21457">
        <ele>314</ele>
        <time>2025-09-08T11:25:52Z</time>
      </trkpt>
      <trkpt lat="48.05843" lon="7.21452">
        <ele>313.8</ele>
        <time>2025-09-08T11:25:53Z</time>
      </trkpt>
      <trkpt lat="48.05841" lon="7.21448">
        <ele>313.8</ele>
        <time>2025-09-08T11:25:54Z</time>
      </trkpt>
      <trkpt lat="48.05839" lon="7.21444">
        <ele>313.8</ele>
        <time>2025-09-08T11:25:55Z</time>
      </trkpt>
      <trkpt lat="48.05837" lon="7.21439">
        <ele>313.8</ele>
        <time>2025-09-08T11:25:56Z</time>
      </trkpt>
      <trkpt lat="48.05836" lon="7.21434">
        <ele>313.8</ele>
        <time>2025-09-08T11:25:57Z</time>
      </trkpt>
      <trkpt lat="48.05836" lon="7.21429">
        <ele>313.8</ele>
        <time>2025-09-08T11:25:58Z</time>
      </trkpt>
      <trkpt lat="48.05836" lon="7.21424">
        <ele>313.8</ele>
        <time>2025-09-08T11:25:59Z</time>
      </trkpt>
      <trkpt lat="48.05835" lon="7.21418">
        <ele>314</ele>
        <time>2025-09-08T11:26:00Z</time>
      </trkpt>
      <trkpt lat="48.05834" lon="7.21415">
        <ele>314</ele>
        <time>2025-09-08T11:26:01Z</time>
      </trkpt>
      <trkpt lat="48.05832" lon="7.21412">
        <ele>314.2</ele>
        <time>2025-09-08T11:26:02Z</time>
      </trkpt>
      <trkpt lat="48.0583" lon="7.21409">
        <ele>314.2</ele>
        <time>2025-09-08T11:26:03Z</time>
      </trkpt>
      <trkpt lat="48.05828" lon="7.21406">
        <ele>314.2</ele>
        <time>2025-09-08T11:26:04Z</time>
      </trkpt>
      <trkpt lat="48.05825" lon="7.21403">
        <ele>314.6</ele>
        <time>2025-09-08T11:26:05Z</time>
      </trkpt>
      <trkpt lat="48.05823" lon="7.214">
        <ele>314.6</ele>
        <time>2025-09-08T11:26:06Z</time>
      </trkpt>
      <trkpt lat="48.0582" lon="7.21398">
        <ele>314.8</ele>
        <time>2025-09-08T11:26:07Z</time>
      </trkpt>
      <trkpt lat="48.05817" lon="7.21395">
        <ele>314.8</ele>
        <time>2025-09-08T11:26:08Z</time>
      </trkpt>
      <trkpt lat="48.05814" lon="7.21392">
        <ele>314.8</ele>
        <time>2025-09-08T11:26:09Z</time>
      </trkpt>
      <trkpt lat="48.05811" lon="7.21389">
        <ele>315</ele>
        <time>2025-09-08T11:26:10Z</time>
      </trkpt>
      <trkpt lat="48.05809" lon="7.21386">
        <ele>315</ele>
        <time>2025-09-08T11:26:11Z</time>
      </trkpt>
      <trkpt lat="48.05806" lon="7.21383">
        <ele>315</ele>
        <time>2025-09-08T11:26:12Z</time>
      </trkpt>
      <trkpt lat="48.05803" lon="7.2138">
        <ele>315.2</ele>
        <time>2025-09-08T11:26:13Z</time>
      </trkpt>
      <trkpt lat="48.05801" lon="7.21377">
        <ele>315.2</ele>
        <time>2025-09-08T11:26:14Z</time>
      </trkpt>
      <trkpt lat="48.05799" lon="7.21373">
        <ele>315.2</ele>
        <time>2025-09-08T11:26:15Z</time>
      </trkpt>
      <trkpt lat="48.05797" lon="7.2137">
        <ele>315.4</ele>
        <time>2025-09-08T11:26:16Z</time>
      </trkpt>
      <trkpt lat="48.05796" lon="7.21367">
        <ele>315.4</ele>
        <time>2025-09-08T11:26:17Z</time>
      </trkpt>
      <trkpt lat="48.05794" lon="7.21364">
        <ele>315.4</ele>
        <time>2025-09-08T11:26:18Z</time>
      </trkpt>
      <trkpt lat="48.05792" lon="7.21361">
        <ele>315.4</ele>
        <time>2025-09-08T11:26:19Z</time>
      </trkpt>
      <trkpt lat="48.0579" lon="7.21359">
        <ele>315.4</ele>
        <time>2025-09-08T11:26:20Z</time>
      </trkpt>
      <trkpt lat="48.05788" lon="7.21356">
        <ele>315.4</ele>
        <time>2025-09-08T11:26:21Z</time>
      </trkpt>
      <trkpt lat="48.05787" lon="7.21353">
        <ele>315.4</ele>
        <time>2025-09-08T11:26:22Z</time>
      </trkpt>
      <trkpt lat="48.05786" lon="7.21351">
        <ele>315.4</ele>
        <time>2025-09-08T11:26:23Z</time>
      </trkpt>
      <trkpt lat="48.05785" lon="7.21348">
        <ele>315.4</ele>
        <time>2025-09-08T11:26:24Z</time>
      </trkpt>
      <trkpt lat="48.05783" lon="7.21347">
        <ele>315.4</ele>
        <time>2025-09-08T11:26:25Z</time>
      </trkpt>
      <trkpt lat="48.05781" lon="7.21345">
        <ele>315.4</ele>
        <time>2025-09-08T11:26:26Z</time>
      </trkpt>
      <trkpt lat="48.05779" lon="7.21342">
        <ele>315.4</ele>
        <time>2025-09-08T11:26:27Z</time>
      </trkpt>
      <trkpt lat="48.05777" lon="7.2134">
        <ele>315.4</ele>
        <time>2025-09-08T11:26:28Z</time>
      </trkpt>
      <trkpt lat="48.05776" lon="7.21338">
        <ele>315.4</ele>
        <time>2025-09-08T11:26:29Z</time>
      </trkpt>
      <trkpt lat="48.05776" lon="7.21338">
        <ele>315.4</ele>
        <time>2025-09-08T11:26:30Z</time>
      </trkpt>
      <trkpt lat="48.05775" lon="7.21337">
        <ele>315.4</ele>
        <time>2025-09-08T11:26:31Z</time>
      </trkpt>
      <trkpt lat="48.05772" lon="7.21332">
        <ele>315.2</ele>
        <time>2025-09-08T11:27:27Z</time>
      </trkpt>
      <trkpt lat="48.0577" lon="7.21329">
        <ele>315.2</ele>
        <time>2025-09-08T11:27:28Z</time>
      </trkpt>
      <trkpt lat="48.05767" lon="7.21325">
        <ele>315.2</ele>
        <time>2025-09-08T11:27:29Z</time>
      </trkpt>
      <trkpt lat="48.05765" lon="7.21321">
        <ele>315.2</ele>
        <time>2025-09-08T11:27:30Z</time>
      </trkpt>
      <trkpt lat="48.05763" lon="7.21318">
        <ele>315</ele>
        <time>2025-09-08T11:27:31Z</time>
      </trkpt>
      <trkpt lat="48.05761" lon="7.21316">
        <ele>315</ele>
        <time>2025-09-08T11:27:32Z</time>
      </trkpt>
      <trkpt lat="48.05759" lon="7.21314">
        <ele>315</ele>
        <time>2025-09-08T11:27:33Z</time>
      </trkpt>
      <trkpt lat="48.05758" lon="7.21312">
        <ele>315</ele>
        <time>2025-09-08T11:27:34Z</time>
      </trkpt>
      <trkpt lat="48.05758" lon="7.21312">
        <ele>315</ele>
        <time>2025-09-08T11:27:35Z</time>
      </trkpt>
      <trkpt lat="48.05758" lon="7.21312">
        <ele>315</ele>
        <time>2025-09-08T11:27:36Z</time>
      </trkpt>
      <trkpt lat="48.05757" lon="7.21312">
        <ele>315</ele>
        <time>2025-09-08T11:27:37Z</time>
      </trkpt>
      <trkpt lat="48.05755" lon="7.21304">
        <ele>315.2</ele>
        <time>2025-09-08T11:28:59Z</time>
      </trkpt>
      <trkpt lat="48.05753" lon="7.21299">
        <ele>315.2</ele>
        <time>2025-09-08T11:29:00Z</time>
      </trkpt>
      <trkpt lat="48.0575" lon="7.21293">
        <ele>315.2</ele>
        <time>2025-09-08T11:29:01Z</time>
      </trkpt>
      <trkpt lat="48.05746" lon="7.21288">
        <ele>315.2</ele>
        <time>2025-09-08T11:29:02Z</time>
      </trkpt>
      <trkpt lat="48.05743" lon="7.21283">
        <ele>315</ele>
        <time>2025-09-08T11:29:03Z</time>
      </trkpt>
      <trkpt lat="48.05739" lon="7.21278">
        <ele>315</ele>
        <time>2025-09-08T11:29:04Z</time>
      </trkpt>
      <trkpt lat="48.05736" lon="7.21273">
        <ele>314.8</ele>
        <time>2025-09-08T11:29:05Z</time>
      </trkpt>
      <trkpt lat="48.05733" lon="7.21268">
        <ele>314.8</ele>
        <time>2025-09-08T11:29:06Z</time>
      </trkpt>
      <trkpt lat="48.05729" lon="7.21262">
        <ele>314.8</ele>
        <time>2025-09-08T11:29:07Z</time>
      </trkpt>
      <trkpt lat="48.05726" lon="7.21256">
        <ele>314.8</ele>
        <time>2025-09-08T11:29:08Z</time>
      </trkpt>
      <trkpt lat="48.05722" lon="7.2125">
        <ele>314.8</ele>
        <time>2025-09-08T11:29:09Z</time>
      </trkpt>
      <trkpt lat="48.05718" lon="7.21244">
        <ele>314.8</ele>
        <time>2025-09-08T11:29:10Z</time>
      </trkpt>
      <trkpt lat="48.05714" lon="7.21237">
        <ele>314.8</ele>
        <time>2025-09-08T11:29:11Z</time>
      </trkpt>
      <trkpt lat="48.0571" lon="7.21231">
        <ele>315</ele>
        <time>2025-09-08T11:29:12Z</time>
      </trkpt>
      <trkpt lat="48.05706" lon="7.21225">
        <ele>315</ele>
        <time>2025-09-08T11:29:13Z</time>
      </trkpt>
      <trkpt lat="48.05702" lon="7.21218">
        <ele>315</ele>
        <time>2025-09-08T11:29:14Z</time>
      </trkpt>
      <trkpt lat="48.05698" lon="7.21213">
        <ele>315.4</ele>
        <time>2025-09-08T11:29:15Z</time>
      </trkpt>
      <trkpt lat="48.05693" lon="7.21208">
        <ele>315.6</ele>
        <time>2025-09-08T11:29:16Z</time>
      </trkpt>
      <trkpt lat="48.05689" lon="7.21202">
        <ele>315.8</ele>
        <time>2025-09-08T11:29:17Z</time>
      </trkpt>
      <trkpt lat="48.05685" lon="7.21196">
        <ele>316</ele>
        <time>2025-09-08T11:29:18Z</time>
      </trkpt>
      <trkpt lat="48.0568" lon="7.21191">
        <ele>316.2</ele>
        <time>2025-09-08T11:29:19Z</time>
      </trkpt>
      <trkpt lat="48.05676" lon="7.21185">
        <ele>316.4</ele>
        <time>2025-09-08T11:29:20Z</time>
      </trkpt>
      <trkpt lat="48.05673" lon="7.21181">
        <ele>316.4</ele>
        <time>2025-09-08T11:29:21Z</time>
      </trkpt>
      <trkpt lat="48.0567" lon="7.21176">
        <ele>316.6</ele>
        <time>2025-09-08T11:29:22Z</time>
      </trkpt>
      <trkpt lat="48.05666" lon="7.21172">
        <ele>316.8</ele>
        <time>2025-09-08T11:29:23Z</time>
      </trkpt>
      <trkpt lat="48.05663" lon="7.21168">
        <ele>317</ele>
        <time>2025-09-08T11:29:24Z</time>
      </trkpt>
      <trkpt lat="48.05661" lon="7.21164">
        <ele>317.2</ele>
        <time>2025-09-08T11:29:25Z</time>
      </trkpt>
      <trkpt lat="48.05658" lon="7.2116">
        <ele>317.4</ele>
        <time>2025-09-08T11:29:26Z</time>
      </trkpt>
      <trkpt lat="48.05656" lon="7.21157">
        <ele>317.8</ele>
        <time>2025-09-08T11:29:27Z</time>
      </trkpt>
      <trkpt lat="48.05654" lon="7.21153">
        <ele>318</ele>
        <time>2025-09-08T11:29:28Z</time>
      </trkpt>
      <trkpt lat="48.05652" lon="7.21151">
        <ele>318</ele>
        <time>2025-09-08T11:29:29Z</time>
      </trkpt>
      <trkpt lat="48.0565" lon="7.21149">
        <ele>318.2</ele>
        <time>2025-09-08T11:29:30Z</time>
      </trkpt>
      <trkpt lat="48.05649" lon="7.21147">
        <ele>318.2</ele>
        <time>2025-09-08T11:29:31Z</time>
      </trkpt>
      <trkpt lat="48.05649" lon="7.21147">
        <ele>318.6</ele>
        <time>2025-09-08T11:29:32Z</time>
      </trkpt>
      <trkpt lat="48.05648" lon="7.21145">
        <ele>318.8</ele>
        <time>2025-09-08T11:29:33Z</time>
      </trkpt>
      <trkpt lat="48.05648" lon="7.21145">
        <ele>318.8</ele>
        <time>2025-09-08T11:29:34Z</time>
      </trkpt>
      <trkpt lat="48.05648" lon="7.21145">
        <ele>319</ele>
        <time>2025-09-08T11:29:35Z</time>
      </trkpt>
      <trkpt lat="48.05646" lon="7.21144">
        <ele>319.4</ele>
        <time>2025-09-08T11:30:01Z</time>
      </trkpt>
      <trkpt lat="48.05644" lon="7.21142">
        <ele>319.4</ele>
        <time>2025-09-08T11:30:02Z</time>
      </trkpt>
      <trkpt lat="48.05643" lon="7.2114">
        <ele>319.4</ele>
        <time>2025-09-08T11:30:03Z</time>
      </trkpt>
      <trkpt lat="48.05642" lon="7.21139">
        <ele>319.2</ele>
        <time>2025-09-08T11:30:04Z</time>
      </trkpt>
      <trkpt lat="48.05641" lon="7.21137">
        <ele>319.2</ele>
        <time>2025-09-08T11:30:05Z</time>
      </trkpt>
      <trkpt lat="48.0564" lon="7.21136">
        <ele>319.2</ele>
        <time>2025-09-08T11:30:06Z</time>
      </trkpt>
      <trkpt lat="48.05639" lon="7.21135">
        <ele>319.2</ele>
        <time>2025-09-08T11:30:07Z</time>
      </trkpt>
      <trkpt lat="48.05638" lon="7.21135">
        <ele>319.2</ele>
        <time>2025-09-08T11:30:08Z</time>
      </trkpt>
      <trkpt lat="48.05637" lon="7.21133">
        <ele>319.4</ele>
        <time>2025-09-08T11:30:09Z</time>
      </trkpt>
      <trkpt lat="48.05637" lon="7.21132">
        <ele>319.4</ele>
        <time>2025-09-08T11:30:10Z</time>
      </trkpt>
      <trkpt lat="48.05636" lon="7.2113">
        <ele>319.6</ele>
        <time>2025-09-08T11:30:11Z</time>
      </trkpt>
      <trkpt lat="48.05635" lon="7.21129">
        <ele>319.6</ele>
        <time>2025-09-08T11:30:12Z</time>
      </trkpt>
      <trkpt lat="48.05634" lon="7.21127">
        <ele>319.6</ele>
        <time>2025-09-08T11:30:13Z</time>
      </trkpt>
      <trkpt lat="48.05633" lon="7.21125">
        <ele>319.6</ele>
        <time>2025-09-08T11:30:14Z</time>
      </trkpt>
      <trkpt lat="48.05632" lon="7.21123">
        <ele>319.8</ele>
        <time>2025-09-08T11:30:15Z</time>
      </trkpt>
      <trkpt lat="48.05631" lon="7.21122">
        <ele>319.8</ele>
        <time>2025-09-08T11:30:16Z</time>
      </trkpt>
      <trkpt lat="48.0563" lon="7.2112">
        <ele>320</ele>
        <time>2025-09-08T11:30:17Z</time>
      </trkpt>
      <trkpt lat="48.0563" lon="7.21118">
        <ele>320.2</ele>
        <time>2025-09-08T11:30:18Z</time>
      </trkpt>
      <trkpt lat="48.05632" lon="7.21117">
        <ele>320.2</ele>
        <time>2025-09-08T11:30:19Z</time>
      </trkpt>
      <trkpt lat="48.05634" lon="7.21115">
        <ele>320.4</ele>
        <time>2025-09-08T11:30:20Z</time>
      </trkpt>
      <trkpt lat="48.05636" lon="7.21114">
        <ele>320.4</ele>
        <time>2025-09-08T11:30:21Z</time>
      </trkpt>
      <trkpt lat="48.05637" lon="7.21112">
        <ele>320.6</ele>
        <time>2025-09-08T11:30:22Z</time>
      </trkpt>
      <trkpt lat="48.05639" lon="7.21109">
        <ele>320.8</ele>
        <time>2025-09-08T11:30:23Z</time>
      </trkpt>
      <trkpt lat="48.0564" lon="7.21107">
        <ele>320.8</ele>
        <time>2025-09-08T11:30:24Z</time>
      </trkpt>
      <trkpt lat="48.05642" lon="7.21104">
        <ele>320.8</ele>
        <time>2025-09-08T11:30:25Z</time>
      </trkpt>
      <trkpt lat="48.05644" lon="7.21101">
        <ele>321.2</ele>
        <time>2025-09-08T11:30:26Z</time>
      </trkpt>
      <trkpt lat="48.05646" lon="7.21098">
        <ele>321.4</ele>
        <time>2025-09-08T11:30:27Z</time>
      </trkpt>
      <trkpt lat="48.05648" lon="7.21095">
        <ele>321.8</ele>
        <time>2025-09-08T11:30:28Z</time>
      </trkpt>
      <trkpt lat="48.0565" lon="7.21092">
        <ele>322</ele>
        <time>2025-09-08T11:30:29Z</time>
      </trkpt>
      <trkpt lat="48.05653" lon="7.21089">
        <ele>322.2</ele>
        <time>2025-09-08T11:30:30Z</time>
      </trkpt>
      <trkpt lat="48.05655" lon="7.21085">
        <ele>322.6</ele>
        <time>2025-09-08T11:30:31Z</time>
      </trkpt>
      <trkpt lat="48.05657" lon="7.21082">
        <ele>322.8</ele>
        <time>2025-09-08T11:30:32Z</time>
      </trkpt>
      <trkpt lat="48.05659" lon="7.21078">
        <ele>323.2</ele>
        <time>2025-09-08T11:30:33Z</time>
      </trkpt>
      <trkpt lat="48.05662" lon="7.21075">
        <ele>323.4</ele>
        <time>2025-09-08T11:30:34Z</time>
      </trkpt>
      <trkpt lat="48.05664" lon="7.21071">
        <ele>323.8</ele>
        <time>2025-09-08T11:30:35Z</time>
      </trkpt>
      <trkpt lat="48.05667" lon="7.21068">
        <ele>324.4</ele>
        <time>2025-09-08T11:30:36Z</time>
      </trkpt>
      <trkpt lat="48.05669" lon="7.21064">
        <ele>324.8</ele>
        <time>2025-09-08T11:30:37Z</time>
      </trkpt>
      <trkpt lat="48.05671" lon="7.21061">
        <ele>325.4</ele>
        <time>2025-09-08T11:30:38Z</time>
      </trkpt>
      <trkpt lat="48.05674" lon="7.21057">
        <ele>325.6</ele>
        <time>2025-09-08T11:30:39Z</time>
      </trkpt>
      <trkpt lat="48.05676" lon="7.21054">
        <ele>326</ele>
        <time>2025-09-08T11:30:40Z</time>
      </trkpt>
      <trkpt lat="48.05678" lon="7.2105">
        <ele>326.6</ele>
        <time>2025-09-08T11:30:41Z</time>
      </trkpt>
      <trkpt lat="48.0568" lon="7.21046">
        <ele>327.2</ele>
        <time>2025-09-08T11:30:42Z</time>
      </trkpt>
      <trkpt lat="48.05682" lon="7.21042">
        <ele>327.6</ele>
        <time>2025-09-08T11:30:43Z</time>
      </trkpt>
      <trkpt lat="48.05684" lon="7.21038">
        <ele>328</ele>
        <time>2025-09-08T11:30:44Z</time>
      </trkpt>
      <trkpt lat="48.05685" lon="7.21035">
        <ele>328.4</ele>
        <time>2025-09-08T11:30:45Z</time>
      </trkpt>
      <trkpt lat="48.05685" lon="7.21031">
        <ele>328.8</ele>
        <time>2025-09-08T11:30:46Z</time>
      </trkpt>
      <trkpt lat="48.05685" lon="7.21029">
        <ele>329.2</ele>
        <time>2025-09-08T11:30:47Z</time>
      </trkpt>
      <trkpt lat="48.05684" lon="7.21028">
        <ele>329.8</ele>
        <time>2025-09-08T11:30:48Z</time>
      </trkpt>
      <trkpt lat="48.05684" lon="7.21026">
        <ele>330.4</ele>
        <time>2025-09-08T11:30:49Z</time>
      </trkpt>
      <trkpt lat="48.05684" lon="7.21026">
        <ele>330.8</ele>
        <time>2025-09-08T11:30:50Z</time>
      </trkpt>
      <trkpt lat="48.05684" lon="7.21026">
        <ele>331.2</ele>
        <time>2025-09-08T11:30:51Z</time>
      </trkpt>
      <trkpt lat="48.05682" lon="7.21023">
        <ele>332.4</ele>
        <time>2025-09-08T11:31:02Z</time>
      </trkpt>
      <trkpt lat="48.05681" lon="7.21021">
        <ele>332.4</ele>
        <time>2025-09-08T11:31:03Z</time>
      </trkpt>
      <trkpt lat="48.05679" lon="7.21018">
        <ele>332.4</ele>
        <time>2025-09-08T11:31:04Z</time>
      </trkpt>
      <trkpt lat="48.05678" lon="7.21016">
        <ele>332.2</ele>
        <time>2025-09-08T11:31:05Z</time>
      </trkpt>
      <trkpt lat="48.05677" lon="7.21014">
        <ele>332.2</ele>
        <time>2025-09-08T11:31:06Z</time>
      </trkpt>
      <trkpt lat="48.05675" lon="7.21011">
        <ele>332.2</ele>
        <time>2025-09-08T11:31:07Z</time>
      </trkpt>
      <trkpt lat="48.05673" lon="7.2101">
        <ele>332.2</ele>
        <time>2025-09-08T11:31:08Z</time>
      </trkpt>
      <trkpt lat="48.05671" lon="7.21007">
        <ele>332.2</ele>
        <time>2025-09-08T11:31:09Z</time>
      </trkpt>
      <trkpt lat="48.05668" lon="7.21005">
        <ele>332.2</ele>
        <time>2025-09-08T11:31:10Z</time>
      </trkpt>
      <trkpt lat="48.05666" lon="7.21002">
        <ele>332.2</ele>
        <time>2025-09-08T11:31:11Z</time>
      </trkpt>
      <trkpt lat="48.05663" lon="7.20999">
        <ele>332.2</ele>
        <time>2025-09-08T11:31:12Z</time>
      </trkpt>
      <trkpt lat="48.05661" lon="7.20996">
        <ele>332.2</ele>
        <time>2025-09-08T11:31:13Z</time>
      </trkpt>
      <trkpt lat="48.05658" lon="7.20993">
        <ele>332</ele>
        <time>2025-09-08T11:31:14Z</time>
      </trkpt>
      <trkpt lat="48.05656" lon="7.2099">
        <ele>332</ele>
        <time>2025-09-08T11:31:15Z</time>
      </trkpt>
      <trkpt lat="48.05654" lon="7.20987">
        <ele>332</ele>
        <time>2025-09-08T11:31:16Z</time>
      </trkpt>
      <trkpt lat="48.05652" lon="7.20984">
        <ele>332</ele>
        <time>2025-09-08T11:31:17Z</time>
      </trkpt>
      <trkpt lat="48.0565" lon="7.20982">
        <ele>332</ele>
        <time>2025-09-08T11:31:18Z</time>
      </trkpt>
      <trkpt lat="48.05647" lon="7.20979">
        <ele>332.2</ele>
        <time>2025-09-08T11:31:19Z</time>
      </trkpt>
      <trkpt lat="48.05645" lon="7.20976">
        <ele>332.2</ele>
        <time>2025-09-08T11:31:20Z</time>
      </trkpt>
      <trkpt lat="48.05642" lon="7.20974">
        <ele>332.2</ele>
        <time>2025-09-08T11:31:21Z</time>
      </trkpt>
      <trkpt lat="48.0564" lon="7.20971">
        <ele>332.2</ele>
        <time>2025-09-08T11:31:22Z</time>
      </trkpt>
      <trkpt lat="48.05637" lon="7.20968">
        <ele>332.2</ele>
        <time>2025-09-08T11:31:23Z</time>
      </trkpt>
      <trkpt lat="48.05635" lon="7.20965">
        <ele>332.2</ele>
        <time>2025-09-08T11:31:24Z</time>
      </trkpt>
      <trkpt lat="48.05633" lon="7.20963">
        <ele>332.2</ele>
        <time>2025-09-08T11:31:25Z</time>
      </trkpt>
      <trkpt lat="48.05631" lon="7.2096">
        <ele>332.2</ele>
        <time>2025-09-08T11:31:26Z</time>
      </trkpt>
      <trkpt lat="48.05629" lon="7.20958">
        <ele>332.2</ele>
        <time>2025-09-08T11:31:27Z</time>
      </trkpt>
      <trkpt lat="48.05628" lon="7.20956">
        <ele>332.4</ele>
        <time>2025-09-08T11:31:28Z</time>
      </trkpt>
      <trkpt lat="48.05628" lon="7.20956">
        <ele>332.4</ele>
        <time>2025-09-08T11:31:29Z</time>
      </trkpt>
      <trkpt lat="48.05626" lon="7.20954">
        <ele>332.4</ele>
        <time>2025-09-08T11:31:30Z</time>
      </trkpt>
      <trkpt lat="48.05626" lon="7.20953">
        <ele>332.6</ele>
        <time>2025-09-08T11:31:31Z</time>
      </trkpt>
      <trkpt lat="48.05626" lon="7.20953">
        <ele>332.8</ele>
        <time>2025-09-08T11:31:32Z</time>
      </trkpt>
      <trkpt lat="48.05621" lon="7.20946">
        <ele>333</ele>
        <time>2025-09-08T11:31:53Z</time>
      </trkpt>
      <trkpt lat="48.05619" lon="7.20943">
        <ele>333</ele>
        <time>2025-09-08T11:31:54Z</time>
      </trkpt>
      <trkpt lat="48.05617" lon="7.20941">
        <ele>333</ele>
        <time>2025-09-08T11:31:55Z</time>
      </trkpt>
      <trkpt lat="48.05615" lon="7.20938">
        <ele>333</ele>
        <time>2025-09-08T11:31:56Z</time>
      </trkpt>
      <trkpt lat="48.05613" lon="7.20935">
        <ele>333</ele>
        <time>2025-09-08T11:31:57Z</time>
      </trkpt>
      <trkpt lat="48.05611" lon="7.20931">
        <ele>333</ele>
        <time>2025-09-08T11:31:58Z</time>
      </trkpt>
      <trkpt lat="48.05609" lon="7.20927">
        <ele>333</ele>
        <time>2025-09-08T11:31:59Z</time>
      </trkpt>
      <trkpt lat="48.05607" lon="7.20924">
        <ele>332.8</ele>
        <time>2025-09-08T11:32:00Z</time>
      </trkpt>
      <trkpt lat="48.05605" lon="7.2092">
        <ele>333</ele>
        <time>2025-09-08T11:32:01Z</time>
      </trkpt>
      <trkpt lat="48.05603" lon="7.20917">
        <ele>333</ele>
        <time>2025-09-08T11:32:02Z</time>
      </trkpt>
      <trkpt lat="48.05602" lon="7.20914">
        <ele>333</ele>
        <time>2025-09-08T11:32:03Z</time>
      </trkpt>
      <trkpt lat="48.056" lon="7.2091">
        <ele>333</ele>
        <time>2025-09-08T11:32:04Z</time>
      </trkpt>
      <trkpt lat="48.05597" lon="7.20905">
        <ele>333</ele>
        <time>2025-09-08T11:32:05Z</time>
      </trkpt>
      <trkpt lat="48.05595" lon="7.20901">
        <ele>333</ele>
        <time>2025-09-08T11:32:06Z</time>
      </trkpt>
      <trkpt lat="48.05593" lon="7.20897">
        <ele>333</ele>
        <time>2025-09-08T11:32:07Z</time>
      </trkpt>
      <trkpt lat="48.05591" lon="7.20892">
        <ele>333</ele>
        <time>2025-09-08T11:32:08Z</time>
      </trkpt>
      <trkpt lat="48.05589" lon="7.20888">
        <ele>333</ele>
        <time>2025-09-08T11:32:09Z</time>
      </trkpt>
      <trkpt lat="48.05587" lon="7.20883">
        <ele>333.2</ele>
        <time>2025-09-08T11:32:10Z</time>
      </trkpt>
      <trkpt lat="48.05584" lon="7.20878">
        <ele>333.2</ele>
        <time>2025-09-08T11:32:11Z</time>
      </trkpt>
      <trkpt lat="48.05582" lon="7.20873">
        <ele>333.2</ele>
        <time>2025-09-08T11:32:12Z</time>
      </trkpt>
      <trkpt lat="48.05579" lon="7.20868">
        <ele>333.4</ele>
        <time>2025-09-08T11:32:13Z</time>
      </trkpt>
      <trkpt lat="48.05577" lon="7.20862">
        <ele>333.4</ele>
        <time>2025-09-08T11:32:14Z</time>
      </trkpt>
      <trkpt lat="48.05574" lon="7.20856">
        <ele>333.4</ele>
        <time>2025-09-08T11:32:15Z</time>
      </trkpt>
      <trkpt lat="48.05572" lon="7.20851">
        <ele>333.4</ele>
        <time>2025-09-08T11:32:16Z</time>
      </trkpt>
      <trkpt lat="48.05569" lon="7.20844">
        <ele>333.4</ele>
        <time>2025-09-08T11:32:17Z</time>
      </trkpt>
      <trkpt lat="48.05567" lon="7.20839">
        <ele>333.4</ele>
        <time>2025-09-08T11:32:18Z</time>
      </trkpt>
      <trkpt lat="48.05564" lon="7.20833">
        <ele>333.4</ele>
        <time>2025-09-08T11:32:19Z</time>
      </trkpt>
      <trkpt lat="48.05562" lon="7.20828">
        <ele>333.4</ele>
        <time>2025-09-08T11:32:20Z</time>
      </trkpt>
      <trkpt lat="48.0556" lon="7.20824">
        <ele>333.6</ele>
        <time>2025-09-08T11:32:21Z</time>
      </trkpt>
      <trkpt lat="48.05557" lon="7.20819">
        <ele>333.6</ele>
        <time>2025-09-08T11:32:22Z</time>
      </trkpt>
      <trkpt lat="48.05555" lon="7.20814">
        <ele>333.8</ele>
        <time>2025-09-08T11:32:23Z</time>
      </trkpt>
      <trkpt lat="48.05553" lon="7.20809">
        <ele>333.8</ele>
        <time>2025-09-08T11:32:24Z</time>
      </trkpt>
      <trkpt lat="48.0555" lon="7.20804">
        <ele>334</ele>
        <time>2025-09-08T11:32:25Z</time>
      </trkpt>
      <trkpt lat="48.05548" lon="7.20799">
        <ele>334</ele>
        <time>2025-09-08T11:32:26Z</time>
      </trkpt>
      <trkpt lat="48.05545" lon="7.20793">
        <ele>334</ele>
        <time>2025-09-08T11:32:27Z</time>
      </trkpt>
      <trkpt lat="48.05543" lon="7.20788">
        <ele>334.2</ele>
        <time>2025-09-08T11:32:28Z</time>
      </trkpt>
      <trkpt lat="48.0554" lon="7.20783">
        <ele>334.2</ele>
        <time>2025-09-08T11:32:29Z</time>
      </trkpt>
      <trkpt lat="48.05538" lon="7.20777">
        <ele>334.4</ele>
        <time>2025-09-08T11:32:30Z</time>
      </trkpt>
      <trkpt lat="48.05535" lon="7.20772">
        <ele>334.4</ele>
        <time>2025-09-08T11:32:31Z</time>
      </trkpt>
      <trkpt lat="48.05533" lon="7.20766">
        <ele>334.4</ele>
        <time>2025-09-08T11:32:32Z</time>
      </trkpt>
      <trkpt lat="48.05531" lon="7.2076">
        <ele>334.4</ele>
        <time>2025-09-08T11:32:33Z</time>
      </trkpt>
      <trkpt lat="48.05528" lon="7.20754">
        <ele>334.4</ele>
        <time>2025-09-08T11:32:34Z</time>
      </trkpt>
      <trkpt lat="48.05526" lon="7.20748">
        <ele>334.4</ele>
        <time>2025-09-08T11:32:35Z</time>
      </trkpt>
      <trkpt lat="48.05524" lon="7.20742">
        <ele>334.6</ele>
        <time>2025-09-08T11:32:36Z</time>
      </trkpt>
      <trkpt lat="48.05522" lon="7.20736">
        <ele>334.6</ele>
        <time>2025-09-08T11:32:37Z</time>
      </trkpt>
      <trkpt lat="48.0552" lon="7.20729">
        <ele>334.6</ele>
        <time>2025-09-08T11:32:38Z</time>
      </trkpt>
      <trkpt lat="48.05518" lon="7.20723">
        <ele>334.6</ele>
        <time>2025-09-08T11:32:39Z</time>
      </trkpt>
      <trkpt lat="48.05516" lon="7.20716">
        <ele>334.6</ele>
        <time>2025-09-08T11:32:40Z</time>
      </trkpt>
      <trkpt lat="48.05514" lon="7.2071">
        <ele>334.6</ele>
        <time>2025-09-08T11:32:41Z</time>
      </trkpt>
      <trkpt lat="48.05512" lon="7.20703">
        <ele>334.8</ele>
        <time>2025-09-08T11:32:42Z</time>
      </trkpt>
      <trkpt lat="48.05511" lon="7.20697">
        <ele>334.8</ele>
        <time>2025-09-08T11:32:43Z</time>
      </trkpt>
      <trkpt lat="48.05509" lon="7.2069">
        <ele>334.8</ele>
        <time>2025-09-08T11:32:44Z</time>
      </trkpt>
      <trkpt lat="48.05507" lon="7.20683">
        <ele>334.8</ele>
        <time>2025-09-08T11:32:45Z</time>
      </trkpt>
      <trkpt lat="48.05506" lon="7.20677">
        <ele>334.8</ele>
        <time>2025-09-08T11:32:46Z</time>
      </trkpt>
      <trkpt lat="48.05504" lon="7.2067">
        <ele>334.8</ele>
        <time>2025-09-08T11:32:47Z</time>
      </trkpt>
      <trkpt lat="48.05502" lon="7.20663">
        <ele>334.8</ele>
        <time>2025-09-08T11:32:48Z</time>
      </trkpt>
      <trkpt lat="48.055" lon="7.20657">
        <ele>334.8</ele>
        <time>2025-09-08T11:32:49Z</time>
      </trkpt>
      <trkpt lat="48.05498" lon="7.20651">
        <ele>334.8</ele>
        <time>2025-09-08T11:32:50Z</time>
      </trkpt>
      <trkpt lat="48.05496" lon="7.20644">
        <ele>335</ele>
        <time>2025-09-08T11:32:51Z</time>
      </trkpt>
      <trkpt lat="48.05493" lon="7.20639">
        <ele>335</ele>
        <time>2025-09-08T11:32:52Z</time>
      </trkpt>
      <trkpt lat="48.05491" lon="7.20633">
        <ele>335.2</ele>
        <time>2025-09-08T11:32:53Z</time>
      </trkpt>
      <trkpt lat="48.05488" lon="7.20627">
        <ele>335.2</ele>
        <time>2025-09-08T11:32:54Z</time>
      </trkpt>
      <trkpt lat="48.05485" lon="7.20621">
        <ele>335.4</ele>
        <time>2025-09-08T11:32:55Z</time>
      </trkpt>
      <trkpt lat="48.05483" lon="7.20616">
        <ele>335.4</ele>
        <time>2025-09-08T11:32:56Z</time>
      </trkpt>
      <trkpt lat="48.0548" lon="7.2061">
        <ele>335.6</ele>
        <time>2025-09-08T11:32:57Z</time>
      </trkpt>
      <trkpt lat="48.05477" lon="7.20605">
        <ele>335.6</ele>
        <time>2025-09-08T11:32:58Z</time>
      </trkpt>
      <trkpt lat="48.05474" lon="7.20599">
        <ele>335.6</ele>
        <time>2025-09-08T11:32:59Z</time>
      </trkpt>
      <trkpt lat="48.05471" lon="7.20593">
        <ele>335.6</ele>
        <time>2025-09-08T11:33:00Z</time>
      </trkpt>
      <trkpt lat="48.05469" lon="7.20587">
        <ele>335.8</ele>
        <time>2025-09-08T11:33:01Z</time>
      </trkpt>
      <trkpt lat="48.05466" lon="7.20581">
        <ele>335.8</ele>
        <time>2025-09-08T11:33:02Z</time>
      </trkpt>
      <trkpt lat="48.05464" lon="7.20576">
        <ele>335.8</ele>
        <time>2025-09-08T11:33:03Z</time>
      </trkpt>
      <trkpt lat="48.05461" lon="7.2057">
        <ele>336</ele>
        <time>2025-09-08T11:33:04Z</time>
      </trkpt>
      <trkpt lat="48.05459" lon="7.20564">
        <ele>336</ele>
        <time>2025-09-08T11:33:05Z</time>
      </trkpt>
      <trkpt lat="48.05457" lon="7.20558">
        <ele>336</ele>
        <time>2025-09-08T11:33:06Z</time>
      </trkpt>
      <trkpt lat="48.05455" lon="7.20552">
        <ele>336</ele>
        <time>2025-09-08T11:33:07Z</time>
      </trkpt>
      <trkpt lat="48.05452" lon="7.20546">
        <ele>336.2</ele>
        <time>2025-09-08T11:33:08Z</time>
      </trkpt>
      <trkpt lat="48.0545" lon="7.2054">
        <ele>336.2</ele>
        <time>2025-09-08T11:33:09Z</time>
      </trkpt>
      <trkpt lat="48.05448" lon="7.20535">
        <ele>336.2</ele>
        <time>2025-09-08T11:33:10Z</time>
      </trkpt>
      <trkpt lat="48.05445" lon="7.2053">
        <ele>336.4</ele>
        <time>2025-09-08T11:33:11Z</time>
      </trkpt>
      <trkpt lat="48.05442" lon="7.20525">
        <ele>336.4</ele>
        <time>2025-09-08T11:33:12Z</time>
      </trkpt>
      <trkpt lat="48.05438" lon="7.20521">
        <ele>336.4</ele>
        <time>2025-09-08T11:33:13Z</time>
      </trkpt>
      <trkpt lat="48.05434" lon="7.20517">
        <ele>336.2</ele>
        <time>2025-09-08T11:33:14Z</time>
      </trkpt>
      <trkpt lat="48.0543" lon="7.20513">
        <ele>336.2</ele>
        <time>2025-09-08T11:33:15Z</time>
      </trkpt>
      <trkpt lat="48.05425" lon="7.20509">
        <ele>336.2</ele>
        <time>2025-09-08T11:33:16Z</time>
      </trkpt>
      <trkpt lat="48.0542" lon="7.20506">
        <ele>335.8</ele>
        <time>2025-09-08T11:33:17Z</time>
      </trkpt>
      <trkpt lat="48.05415" lon="7.20502">
        <ele>335.8</ele>
        <time>2025-09-08T11:33:18Z</time>
      </trkpt>
      <trkpt lat="48.05411" lon="7.20497">
        <ele>335.6</ele>
        <time>2025-09-08T11:33:19Z</time>
      </trkpt>
      <trkpt lat="48.05407" lon="7.20492">
        <ele>335.4</ele>
        <time>2025-09-08T11:33:20Z</time>
      </trkpt>
      <trkpt lat="48.05403" lon="7.20486">
        <ele>335</ele>
        <time>2025-09-08T11:33:21Z</time>
      </trkpt>
      <trkpt lat="48.054" lon="7.2048">
        <ele>334.8</ele>
        <time>2025-09-08T11:33:22Z</time>
      </trkpt>
      <trkpt lat="48.05397" lon="7.20473">
        <ele>334.6</ele>
        <time>2025-09-08T11:33:23Z</time>
      </trkpt>
      <trkpt lat="48.05395" lon="7.20465">
        <ele>334.2</ele>
        <time>2025-09-08T11:33:24Z</time>
      </trkpt>
      <trkpt lat="48.05392" lon="7.20458">
        <ele>334</ele>
        <time>2025-09-08T11:33:25Z</time>
      </trkpt>
      <trkpt lat="48.0539" lon="7.20451">
        <ele>333.8</ele>
        <time>2025-09-08T11:33:26Z</time>
      </trkpt>
      <trkpt lat="48.05388" lon="7.20444">
        <ele>333.8</ele>
        <time>2025-09-08T11:33:27Z</time>
      </trkpt>
      <trkpt lat="48.05386" lon="7.20437">
        <ele>333.8</ele>
        <time>2025-09-08T11:33:28Z</time>
      </trkpt>
      <trkpt lat="48.05384" lon="7.20431">
        <ele>333.8</ele>
        <time>2025-09-08T11:33:29Z</time>
      </trkpt>
      <trkpt lat="48.05383" lon="7.20425">
        <ele>333.8</ele>
        <time>2025-09-08T11:33:30Z</time>
      </trkpt>
      <trkpt lat="48.05381" lon="7.2042">
        <ele>333.8</ele>
        <time>2025-09-08T11:33:31Z</time>
      </trkpt>
      <trkpt lat="48.05378" lon="7.20415">
        <ele>334</ele>
        <time>2025-09-08T11:33:32Z</time>
      </trkpt>
      <trkpt lat="48.05374" lon="7.20411">
        <ele>334</ele>
        <time>2025-09-08T11:33:33Z</time>
      </trkpt>
      <trkpt lat="48.0537" lon="7.20409">
        <ele>334</ele>
        <time>2025-09-08T11:33:34Z</time>
      </trkpt>
      <trkpt lat="48.05366" lon="7.20408">
        <ele>334.2</ele>
        <time>2025-09-08T11:33:35Z</time>
      </trkpt>
      <trkpt lat="48.05362" lon="7.20407">
        <ele>334</ele>
        <time>2025-09-08T11:33:36Z</time>
      </trkpt>
      <trkpt lat="48.05358" lon="7.20407">
        <ele>334</ele>
        <time>2025-09-08T11:33:37Z</time>
      </trkpt>
      <trkpt lat="48.05354" lon="7.20408">
        <ele>334</ele>
        <time>2025-09-08T11:33:38Z</time>
      </trkpt>
      <trkpt lat="48.0535" lon="7.20409">
        <ele>333.8</ele>
        <time>2025-09-08T11:33:39Z</time>
      </trkpt>
      <trkpt lat="48.05346" lon="7.2041">
        <ele>333.8</ele>
        <time>2025-09-08T11:33:40Z</time>
      </trkpt>
      <trkpt lat="48.05343" lon="7.20407">
        <ele>333.6</ele>
        <time>2025-09-08T11:33:41Z</time>
      </trkpt>
      <trkpt lat="48.05341" lon="7.20402">
        <ele>333.4</ele>
        <time>2025-09-08T11:33:42Z</time>
      </trkpt>
      <trkpt lat="48.0534" lon="7.20395">
        <ele>333.2</ele>
        <time>2025-09-08T11:33:43Z</time>
      </trkpt>
      <trkpt lat="48.05338" lon="7.20389">
        <ele>333.2</ele>
        <time>2025-09-08T11:33:44Z</time>
      </trkpt>
      <trkpt lat="48.05337" lon="7.20383">
        <ele>333</ele>
        <time>2025-09-08T11:33:45Z</time>
      </trkpt>
      <trkpt lat="48.05335" lon="7.20377">
        <ele>332.8</ele>
        <time>2025-09-08T11:33:46Z</time>
      </trkpt>
      <trkpt lat="48.05335" lon="7.20372">
        <ele>332.8</ele>
        <time>2025-09-08T11:33:47Z</time>
      </trkpt>
      <trkpt lat="48.05333" lon="7.20366">
        <ele>332.8</ele>
        <time>2025-09-08T11:33:48Z</time>
      </trkpt>
      <trkpt lat="48.05332" lon="7.20361">
        <ele>332.8</ele>
        <time>2025-09-08T11:33:49Z</time>
      </trkpt>
      <trkpt lat="48.0533" lon="7.20355">
        <ele>332.8</ele>
        <time>2025-09-08T11:33:50Z</time>
      </trkpt>
      <trkpt lat="48.05329" lon="7.20349">
        <ele>332.8</ele>
        <time>2025-09-08T11:33:51Z</time>
      </trkpt>
      <trkpt lat="48.05327" lon="7.20344">
        <ele>332.8</ele>
        <time>2025-09-08T11:33:52Z</time>
      </trkpt>
      <trkpt lat="48.05325" lon="7.20339">
        <ele>333</ele>
        <time>2025-09-08T11:33:53Z</time>
      </trkpt>
      <trkpt lat="48.05324" lon="7.20333">
        <ele>333</ele>
        <time>2025-09-08T11:33:54Z</time>
      </trkpt>
      <trkpt lat="48.05322" lon="7.20327">
        <ele>333</ele>
        <time>2025-09-08T11:33:55Z</time>
      </trkpt>
      <trkpt lat="48.05321" lon="7.20322">
        <ele>333</ele>
        <time>2025-09-08T11:33:56Z</time>
      </trkpt>
      <trkpt lat="48.05318" lon="7.20318">
        <ele>333</ele>
        <time>2025-09-08T11:33:57Z</time>
      </trkpt>
      <trkpt lat="48.05315" lon="7.20316">
        <ele>333</ele>
        <time>2025-09-08T11:33:58Z</time>
      </trkpt>
      <trkpt lat="48.05312" lon="7.20317">
        <ele>333</ele>
        <time>2025-09-08T11:33:59Z</time>
      </trkpt>
      <trkpt lat="48.05309" lon="7.20319">
        <ele>333</ele>
        <time>2025-09-08T11:34:00Z</time>
      </trkpt>
      <trkpt lat="48.05306" lon="7.20321">
        <ele>333</ele>
        <time>2025-09-08T11:34:01Z</time>
      </trkpt>
      <trkpt lat="48.05303" lon="7.20323">
        <ele>333</ele>
        <time>2025-09-08T11:34:02Z</time>
      </trkpt>
      <trkpt lat="48.05299" lon="7.20325">
        <ele>332.8</ele>
        <time>2025-09-08T11:34:03Z</time>
      </trkpt>
      <trkpt lat="48.05295" lon="7.20326">
        <ele>332.8</ele>
        <time>2025-09-08T11:34:04Z</time>
      </trkpt>
      <trkpt lat="48.0529" lon="7.20328">
        <ele>332.6</ele>
        <time>2025-09-08T11:34:05Z</time>
      </trkpt>
      <trkpt lat="48.05285" lon="7.20328">
        <ele>332.4</ele>
        <time>2025-09-08T11:34:06Z</time>
      </trkpt>
      <trkpt lat="48.05281" lon="7.20328">
        <ele>332.2</ele>
        <time>2025-09-08T11:34:07Z</time>
      </trkpt>
      <trkpt lat="48.05276" lon="7.20329">
        <ele>332</ele>
        <time>2025-09-08T11:34:08Z</time>
      </trkpt>
      <trkpt lat="48.05271" lon="7.2033">
        <ele>332</ele>
        <time>2025-09-08T11:34:09Z</time>
      </trkpt>
      <trkpt lat="48.05266" lon="7.20331">
        <ele>331.6</ele>
        <time>2025-09-08T11:34:10Z</time>
      </trkpt>
      <trkpt lat="48.05262" lon="7.20331">
        <ele>331.6</ele>
        <time>2025-09-08T11:34:11Z</time>
      </trkpt>
      <trkpt lat="48.05257" lon="7.20332">
        <ele>331.4</ele>
        <time>2025-09-08T11:34:12Z</time>
      </trkpt>
      <trkpt lat="48.05253" lon="7.20332">
        <ele>331.2</ele>
        <time>2025-09-08T11:34:13Z</time>
      </trkpt>
      <trkpt lat="48.05248" lon="7.20331">
        <ele>331</ele>
        <time>2025-09-08T11:34:14Z</time>
      </trkpt>
      <trkpt lat="48.05244" lon="7.20332">
        <ele>330.8</ele>
        <time>2025-09-08T11:34:15Z</time>
      </trkpt>
      <trkpt lat="48.05239" lon="7.20333">
        <ele>330.6</ele>
        <time>2025-09-08T11:34:16Z</time>
      </trkpt>
      <trkpt lat="48.05234" lon="7.20334">
        <ele>330.6</ele>
        <time>2025-09-08T11:34:17Z</time>
      </trkpt>
      <trkpt lat="48.05228" lon="7.20335">
        <ele>330.4</ele>
        <time>2025-09-08T11:34:18Z</time>
      </trkpt>
      <trkpt lat="48.05223" lon="7.20336">
        <ele>330.4</ele>
        <time>2025-09-08T11:34:19Z</time>
      </trkpt>
      <trkpt lat="48.05218" lon="7.20337">
        <ele>330</ele>
        <time>2025-09-08T11:34:20Z</time>
      </trkpt>
      <trkpt lat="48.05212" lon="7.20338">
        <ele>329.8</ele>
        <time>2025-09-08T11:34:21Z</time>
      </trkpt>
      <trkpt lat="48.05208" lon="7.20338">
        <ele>329.4</ele>
        <time>2025-09-08T11:34:22Z</time>
      </trkpt>
      <trkpt lat="48.05204" lon="7.20336">
        <ele>329.2</ele>
        <time>2025-09-08T11:34:23Z</time>
      </trkpt>
      <trkpt lat="48.05203" lon="7.20331">
        <ele>329.2</ele>
        <time>2025-09-08T11:34:24Z</time>
      </trkpt>
      <trkpt lat="48.05202" lon="7.20326">
        <ele>329.2</ele>
        <time>2025-09-08T11:34:25Z</time>
      </trkpt>
      <trkpt lat="48.05203" lon="7.20319">
        <ele>329.2</ele>
        <time>2025-09-08T11:34:26Z</time>
      </trkpt>
      <trkpt lat="48.05203" lon="7.20313">
        <ele>329.2</ele>
        <time>2025-09-08T11:34:27Z</time>
      </trkpt>
      <trkpt lat="48.05204" lon="7.20307">
        <ele>329.2</ele>
        <time>2025-09-08T11:34:28Z</time>
      </trkpt>
      <trkpt lat="48.05204" lon="7.20301">
        <ele>329.2</ele>
        <time>2025-09-08T11:34:29Z</time>
      </trkpt>
      <trkpt lat="48.05205" lon="7.20295">
        <ele>329</ele>
        <time>2025-09-08T11:34:30Z</time>
      </trkpt>
      <trkpt lat="48.05205" lon="7.20289">
        <ele>329</ele>
        <time>2025-09-08T11:34:31Z</time>
      </trkpt>
      <trkpt lat="48.05205" lon="7.20283">
        <ele>329</ele>
        <time>2025-09-08T11:34:32Z</time>
      </trkpt>
      <trkpt lat="48.05205" lon="7.20277">
        <ele>329</ele>
        <time>2025-09-08T11:34:33Z</time>
      </trkpt>
      <trkpt lat="48.05203" lon="7.20273">
        <ele>329</ele>
        <time>2025-09-08T11:34:34Z</time>
      </trkpt>
      <trkpt lat="48.052" lon="7.2027">
        <ele>329</ele>
        <time>2025-09-08T11:34:35Z</time>
      </trkpt>
      <trkpt lat="48.05196" lon="7.2027">
        <ele>329</ele>
        <time>2025-09-08T11:34:36Z</time>
      </trkpt>
      <trkpt lat="48.05192" lon="7.20272">
        <ele>329</ele>
        <time>2025-09-08T11:34:37Z</time>
      </trkpt>
      <trkpt lat="48.05188" lon="7.20274">
        <ele>329</ele>
        <time>2025-09-08T11:34:38Z</time>
      </trkpt>
      <trkpt lat="48.05183" lon="7.20276">
        <ele>328.8</ele>
        <time>2025-09-08T11:34:39Z</time>
      </trkpt>
      <trkpt lat="48.05179" lon="7.2028">
        <ele>328.6</ele>
        <time>2025-09-08T11:34:40Z</time>
      </trkpt>
      <trkpt lat="48.05174" lon="7.20283">
        <ele>328.4</ele>
        <time>2025-09-08T11:34:41Z</time>
      </trkpt>
      <trkpt lat="48.05168" lon="7.20285">
        <ele>328.2</ele>
        <time>2025-09-08T11:34:42Z</time>
      </trkpt>
      <trkpt lat="48.05163" lon="7.20283">
        <ele>328</ele>
        <time>2025-09-08T11:34:43Z</time>
      </trkpt>
      <trkpt lat="48.05158" lon="7.20279">
        <ele>327.6</ele>
        <time>2025-09-08T11:34:44Z</time>
      </trkpt>
      <trkpt lat="48.05152" lon="7.20275">
        <ele>327</ele>
        <time>2025-09-08T11:34:45Z</time>
      </trkpt>
      <trkpt lat="48.05146" lon="7.20271">
        <ele>326.6</ele>
        <time>2025-09-08T11:34:46Z</time>
      </trkpt>
      <trkpt lat="48.0514" lon="7.20267">
        <ele>326.2</ele>
        <time>2025-09-08T11:34:47Z</time>
      </trkpt>
      <trkpt lat="48.05135" lon="7.20263">
        <ele>326</ele>
        <time>2025-09-08T11:34:48Z</time>
      </trkpt>
      <trkpt lat="48.05128" lon="7.20258">
        <ele>325.6</ele>
        <time>2025-09-08T11:34:49Z</time>
      </trkpt>
      <trkpt lat="48.05122" lon="7.20253">
        <ele>325.4</ele>
        <time>2025-09-08T11:34:50Z</time>
      </trkpt>
      <trkpt lat="48.05116" lon="7.20249">
        <ele>324.8</ele>
        <time>2025-09-08T11:34:51Z</time>
      </trkpt>
      <trkpt lat="48.0511" lon="7.20245">
        <ele>324.6</ele>
        <time>2025-09-08T11:34:52Z</time>
      </trkpt>
      <trkpt lat="48.05103" lon="7.2024">
        <ele>324.2</ele>
        <time>2025-09-08T11:34:53Z</time>
      </trkpt>
      <trkpt lat="48.05097" lon="7.20235">
        <ele>324</ele>
        <time>2025-09-08T11:34:54Z</time>
      </trkpt>
      <trkpt lat="48.0509" lon="7.2023">
        <ele>323.8</ele>
        <time>2025-09-08T11:34:55Z</time>
      </trkpt>
      <trkpt lat="48.05084" lon="7.20225">
        <ele>323.4</ele>
        <time>2025-09-08T11:34:56Z</time>
      </trkpt>
      <trkpt lat="48.05078" lon="7.2022">
        <ele>323.2</ele>
        <time>2025-09-08T11:34:57Z</time>
      </trkpt>
      <trkpt lat="48.05072" lon="7.20216">
        <ele>322.8</ele>
        <time>2025-09-08T11:34:58Z</time>
      </trkpt>
      <trkpt lat="48.05066" lon="7.20212">
        <ele>322.4</ele>
        <time>2025-09-08T11:34:59Z</time>
      </trkpt>
      <trkpt lat="48.05061" lon="7.20208">
        <ele>322.2</ele>
        <time>2025-09-08T11:35:00Z</time>
      </trkpt>
      <trkpt lat="48.05057" lon="7.20205">
        <ele>321.8</ele>
        <time>2025-09-08T11:35:01Z</time>
      </trkpt>
      <trkpt lat="48.05054" lon="7.20202">
        <ele>321.6</ele>
        <time>2025-09-08T11:35:02Z</time>
      </trkpt>
      <trkpt lat="48.05051" lon="7.20199">
        <ele>321.6</ele>
        <time>2025-09-08T11:35:03Z</time>
      </trkpt>
      <trkpt lat="48.05048" lon="7.20199">
        <ele>321.6</ele>
        <time>2025-09-08T11:35:04Z</time>
      </trkpt>
      <trkpt lat="48.05045" lon="7.20199">
        <ele>321.8</ele>
        <time>2025-09-08T11:35:05Z</time>
      </trkpt>
      <trkpt lat="48.05042" lon="7.20199">
        <ele>321.8</ele>
        <time>2025-09-08T11:35:06Z</time>
      </trkpt>
      <trkpt lat="48.05041" lon="7.20197">
        <ele>321.8</ele>
        <time>2025-09-08T11:35:07Z</time>
      </trkpt>
      <trkpt lat="48.0504" lon="7.20195">
        <ele>321.8</ele>
        <time>2025-09-08T11:35:08Z</time>
      </trkpt>
      <trkpt lat="48.05039" lon="7.20193">
        <ele>321.8</ele>
        <time>2025-09-08T11:35:09Z</time>
      </trkpt>
      <trkpt lat="48.05037" lon="7.20191">
        <ele>321.8</ele>
        <time>2025-09-08T11:35:10Z</time>
      </trkpt>
      <trkpt lat="48.05034" lon="7.20188">
        <ele>321.8</ele>
        <time>2025-09-08T11:35:11Z</time>
      </trkpt>
      <trkpt lat="48.05032" lon="7.20185">
        <ele>321.8</ele>
        <time>2025-09-08T11:35:12Z</time>
      </trkpt>
      <trkpt lat="48.0503" lon="7.2018">
        <ele>321.8</ele>
        <time>2025-09-08T11:35:13Z</time>
      </trkpt>
      <trkpt lat="48.05028" lon="7.20175">
        <ele>321.6</ele>
        <time>2025-09-08T11:35:14Z</time>
      </trkpt>
      <trkpt lat="48.05025" lon="7.2017">
        <ele>321.6</ele>
        <time>2025-09-08T11:35:15Z</time>
      </trkpt>
      <trkpt lat="48.05022" lon="7.20166">
        <ele>321.4</ele>
        <time>2025-09-08T11:35:16Z</time>
      </trkpt>
      <trkpt lat="48.05019" lon="7.20161">
        <ele>321</ele>
        <time>2025-09-08T11:35:17Z</time>
      </trkpt>
      <trkpt lat="48.05015" lon="7.20156">
        <ele>320.8</ele>
        <time>2025-09-08T11:35:18Z</time>
      </trkpt>
      <trkpt lat="48.05012" lon="7.20151">
        <ele>320.6</ele>
        <time>2025-09-08T11:35:19Z</time>
      </trkpt>
      <trkpt lat="48.05008" lon="7.20147">
        <ele>320.6</ele>
        <time>2025-09-08T11:35:20Z</time>
      </trkpt>
      <trkpt lat="48.05004" lon="7.20145">
        <ele>320.4</ele>
        <time>2025-09-08T11:35:21Z</time>
      </trkpt>
      <trkpt lat="48.05001" lon="7.20144">
        <ele>320.4</ele>
        <time>2025-09-08T11:35:22Z</time>
      </trkpt>
      <trkpt lat="48.04998" lon="7.20146">
        <ele>320.4</ele>
        <time>2025-09-08T11:35:23Z</time>
      </trkpt>
      <trkpt lat="48.04995" lon="7.20147">
        <ele>320.4</ele>
        <time>2025-09-08T11:35:24Z</time>
      </trkpt>
      <trkpt lat="48.04992" lon="7.20146">
        <ele>320.4</ele>
        <time>2025-09-08T11:35:25Z</time>
      </trkpt>
      <trkpt lat="48.04989" lon="7.20142">
        <ele>320.4</ele>
        <time>2025-09-08T11:35:26Z</time>
      </trkpt>
      <trkpt lat="48.04986" lon="7.20137">
        <ele>320.4</ele>
        <time>2025-09-08T11:35:27Z</time>
      </trkpt>
      <trkpt lat="48.04984" lon="7.2013">
        <ele>320.4</ele>
        <time>2025-09-08T11:35:28Z</time>
      </trkpt>
      <trkpt lat="48.04982" lon="7.20124">
        <ele>320.4</ele>
        <time>2025-09-08T11:35:29Z</time>
      </trkpt>
      <trkpt lat="48.04979" lon="7.20117">
        <ele>320.4</ele>
        <time>2025-09-08T11:35:30Z</time>
      </trkpt>
      <trkpt lat="48.04978" lon="7.2011">
        <ele>320.4</ele>
        <time>2025-09-08T11:35:31Z</time>
      </trkpt>
      <trkpt lat="48.04975" lon="7.20103">
        <ele>320.4</ele>
        <time>2025-09-08T11:35:32Z</time>
      </trkpt>
      <trkpt lat="48.04973" lon="7.20096">
        <ele>320.4</ele>
        <time>2025-09-08T11:35:33Z</time>
      </trkpt>
      <trkpt lat="48.04971" lon="7.20089">
        <ele>320.4</ele>
        <time>2025-09-08T11:35:34Z</time>
      </trkpt>
      <trkpt lat="48.04968" lon="7.20082">
        <ele>320.4</ele>
        <time>2025-09-08T11:35:35Z</time>
      </trkpt>
      <trkpt lat="48.04966" lon="7.20076">
        <ele>320.4</ele>
        <time>2025-09-08T11:35:36Z</time>
      </trkpt>
      <trkpt lat="48.04964" lon="7.2007">
        <ele>320.4</ele>
        <time>2025-09-08T11:35:37Z</time>
      </trkpt>
      <trkpt lat="48.04962" lon="7.20064">
        <ele>320.4</ele>
        <time>2025-09-08T11:35:38Z</time>
      </trkpt>
      <trkpt lat="48.04959" lon="7.20057">
        <ele>320.4</ele>
        <time>2025-09-08T11:35:39Z</time>
      </trkpt>
      <trkpt lat="48.04957" lon="7.20051">
        <ele>320.6</ele>
        <time>2025-09-08T11:35:40Z</time>
      </trkpt>
      <trkpt lat="48.04955" lon="7.20044">
        <ele>320.6</ele>
        <time>2025-09-08T11:35:41Z</time>
      </trkpt>
      <trkpt lat="48.04952" lon="7.20038">
        <ele>320.6</ele>
        <time>2025-09-08T11:35:42Z</time>
      </trkpt>
      <trkpt lat="48.0495" lon="7.20031">
        <ele>320.6</ele>
        <time>2025-09-08T11:35:43Z</time>
      </trkpt>
      <trkpt lat="48.04948" lon="7.20025">
        <ele>320.8</ele>
        <time>2025-09-08T11:35:44Z</time>
      </trkpt>
      <trkpt lat="48.04946" lon="7.20018">
        <ele>320.8</ele>
        <time>2025-09-08T11:35:45Z</time>
      </trkpt>
      <trkpt lat="48.04944" lon="7.20013">
        <ele>320.8</ele>
        <time>2025-09-08T11:35:46Z</time>
      </trkpt>
      <trkpt lat="48.04942" lon="7.20007">
        <ele>320.8</ele>
        <time>2025-09-08T11:35:47Z</time>
      </trkpt>
      <trkpt lat="48.04939" lon="7.20002">
        <ele>320.8</ele>
        <time>2025-09-08T11:35:48Z</time>
      </trkpt>
      <trkpt lat="48.04934" lon="7.19998">
        <ele>320.8</ele>
        <time>2025-09-08T11:35:49Z</time>
      </trkpt>
      <trkpt lat="48.04929" lon="7.19995">
        <ele>321</ele>
        <time>2025-09-08T11:35:50Z</time>
      </trkpt>
      <trkpt lat="48.04925" lon="7.19992">
        <ele>321</ele>
        <time>2025-09-08T11:35:51Z</time>
      </trkpt>
      <trkpt lat="48.04922" lon="7.19987">
        <ele>321</ele>
        <time>2025-09-08T11:35:52Z</time>
      </trkpt>
      <trkpt lat="48.0492" lon="7.1998">
        <ele>321.2</ele>
        <time>2025-09-08T11:35:53Z</time>
      </trkpt>
      <trkpt lat="48.04918" lon="7.19974">
        <ele>321.2</ele>
        <time>2025-09-08T11:35:54Z</time>
      </trkpt>
      <trkpt lat="48.04916" lon="7.19967">
        <ele>321.2</ele>
        <time>2025-09-08T11:35:55Z</time>
      </trkpt>
      <trkpt lat="48.04914" lon="7.1996">
        <ele>321.2</ele>
        <time>2025-09-08T11:35:56Z</time>
      </trkpt>
      <trkpt lat="48.04912" lon="7.19954">
        <ele>321.2</ele>
        <time>2025-09-08T11:35:57Z</time>
      </trkpt>
      <trkpt lat="48.0491" lon="7.19947">
        <ele>321.4</ele>
        <time>2025-09-08T11:35:58Z</time>
      </trkpt>
      <trkpt lat="48.04908" lon="7.1994">
        <ele>321.4</ele>
        <time>2025-09-08T11:35:59Z</time>
      </trkpt>
      <trkpt lat="48.04906" lon="7.19933">
        <ele>321.4</ele>
        <time>2025-09-08T11:36:00Z</time>
      </trkpt>
      <trkpt lat="48.04904" lon="7.19926">
        <ele>321.4</ele>
        <time>2025-09-08T11:36:01Z</time>
      </trkpt>
      <trkpt lat="48.04902" lon="7.19919">
        <ele>321.6</ele>
        <time>2025-09-08T11:36:02Z</time>
      </trkpt>
      <trkpt lat="48.049" lon="7.19912">
        <ele>321.6</ele>
        <time>2025-09-08T11:36:03Z</time>
      </trkpt>
      <trkpt lat="48.04898" lon="7.19905">
        <ele>321.6</ele>
        <time>2025-09-08T11:36:04Z</time>
      </trkpt>
      <trkpt lat="48.04897" lon="7.19898">
        <ele>321.6</ele>
        <time>2025-09-08T11:36:05Z</time>
      </trkpt>
      <trkpt lat="48.04895" lon="7.19891">
        <ele>321.6</ele>
        <time>2025-09-08T11:36:06Z</time>
      </trkpt>
      <trkpt lat="48.04893" lon="7.19884">
        <ele>321.6</ele>
        <time>2025-09-08T11:36:07Z</time>
      </trkpt>
      <trkpt lat="48.04891" lon="7.19877">
        <ele>321.8</ele>
        <time>2025-09-08T11:36:08Z</time>
      </trkpt>
      <trkpt lat="48.04889" lon="7.19871">
        <ele>321.8</ele>
        <time>2025-09-08T11:36:09Z</time>
      </trkpt>
      <trkpt lat="48.04887" lon="7.19864">
        <ele>321.8</ele>
        <time>2025-09-08T11:36:10Z</time>
      </trkpt>
      <trkpt lat="48.04885" lon="7.19858">
        <ele>322</ele>
        <time>2025-09-08T11:36:11Z</time>
      </trkpt>
      <trkpt lat="48.04883" lon="7.19851">
        <ele>322</ele>
        <time>2025-09-08T11:36:12Z</time>
      </trkpt>
      <trkpt lat="48.04881" lon="7.19845">
        <ele>322.2</ele>
        <time>2025-09-08T11:36:13Z</time>
      </trkpt>
      <trkpt lat="48.04879" lon="7.19838">
        <ele>322.2</ele>
        <time>2025-09-08T11:36:14Z</time>
      </trkpt>
      <trkpt lat="48.04877" lon="7.19831">
        <ele>322.4</ele>
        <time>2025-09-08T11:36:15Z</time>
      </trkpt>
      <trkpt lat="48.04875" lon="7.19824">
        <ele>322.4</ele>
        <time>2025-09-08T11:36:16Z</time>
      </trkpt>
      <trkpt lat="48.04873" lon="7.19817">
        <ele>322.4</ele>
        <time>2025-09-08T11:36:17Z</time>
      </trkpt>
      <trkpt lat="48.04871" lon="7.1981">
        <ele>322.6</ele>
        <time>2025-09-08T11:36:18Z</time>
      </trkpt>
      <trkpt lat="48.04869" lon="7.19803">
        <ele>322.6</ele>
        <time>2025-09-08T11:36:19Z</time>
      </trkpt>
      <trkpt lat="48.04866" lon="7.19796">
        <ele>322.6</ele>
        <time>2025-09-08T11:36:20Z</time>
      </trkpt>
      <trkpt lat="48.04863" lon="7.1979">
        <ele>322.6</ele>
        <time>2025-09-08T11:36:21Z</time>
      </trkpt>
      <trkpt lat="48.04861" lon="7.19783">
        <ele>322.8</ele>
        <time>2025-09-08T11:36:22Z</time>
      </trkpt>
      <trkpt lat="48.04858" lon="7.19777">
        <ele>322.8</ele>
        <time>2025-09-08T11:36:23Z</time>
      </trkpt>
      <trkpt lat="48.04855" lon="7.1977">
        <ele>322.8</ele>
        <time>2025-09-08T11:36:24Z</time>
      </trkpt>
      <trkpt lat="48.04852" lon="7.19764">
        <ele>322.8</ele>
        <time>2025-09-08T11:36:25Z</time>
      </trkpt>
      <trkpt lat="48.0485" lon="7.19758">
        <ele>322.8</ele>
        <time>2025-09-08T11:36:26Z</time>
      </trkpt>
      <trkpt lat="48.04847" lon="7.19751">
        <ele>323</ele>
        <time>2025-09-08T11:36:27Z</time>
      </trkpt>
      <trkpt lat="48.04844" lon="7.19744">
        <ele>323</ele>
        <time>2025-09-08T11:36:28Z</time>
      </trkpt>
      <trkpt lat="48.04842" lon="7.19738">
        <ele>323.2</ele>
        <time>2025-09-08T11:36:29Z</time>
      </trkpt>
      <trkpt lat="48.0484" lon="7.1973">
        <ele>323.4</ele>
        <time>2025-09-08T11:36:30Z</time>
      </trkpt>
      <trkpt lat="48.04838" lon="7.19723">
        <ele>323.4</ele>
        <time>2025-09-08T11:36:31Z</time>
      </trkpt>
      <trkpt lat="48.04836" lon="7.19716">
        <ele>323.4</ele>
        <time>2025-09-08T11:36:32Z</time>
      </trkpt>
      <trkpt lat="48.04833" lon="7.19708">
        <ele>323.6</ele>
        <time>2025-09-08T11:36:33Z</time>
      </trkpt>
      <trkpt lat="48.04831" lon="7.197">
        <ele>323.6</ele>
        <time>2025-09-08T11:36:34Z</time>
      </trkpt>
      <trkpt lat="48.0483" lon="7.19693">
        <ele>323.6</ele>
        <time>2025-09-08T11:36:35Z</time>
      </trkpt>
      <trkpt lat="48.04828" lon="7.19685">
        <ele>323.8</ele>
        <time>2025-09-08T11:36:36Z</time>
      </trkpt>
      <trkpt lat="48.04826" lon="7.19677">
        <ele>323.6</ele>
        <time>2025-09-08T11:36:37Z</time>
      </trkpt>
      <trkpt lat="48.04824" lon="7.19669">
        <ele>323.6</ele>
        <time>2025-09-08T11:36:38Z</time>
      </trkpt>
      <trkpt lat="48.04822" lon="7.19662">
        <ele>323.6</ele>
        <time>2025-09-08T11:36:39Z</time>
      </trkpt>
      <trkpt lat="48.04821" lon="7.19654">
        <ele>323.6</ele>
        <time>2025-09-08T11:36:40Z</time>
      </trkpt>
      <trkpt lat="48.04819" lon="7.19646">
        <ele>323.6</ele>
        <time>2025-09-08T11:36:41Z</time>
      </trkpt>
      <trkpt lat="48.04817" lon="7.19638">
        <ele>323.6</ele>
        <time>2025-09-08T11:36:42Z</time>
      </trkpt>
      <trkpt lat="48.04815" lon="7.19631">
        <ele>323.6</ele>
        <time>2025-09-08T11:36:43Z</time>
      </trkpt>
      <trkpt lat="48.04814" lon="7.19623">
        <ele>323.6</ele>
        <time>2025-09-08T11:36:44Z</time>
      </trkpt>
      <trkpt lat="48.04812" lon="7.19616">
        <ele>323.8</ele>
        <time>2025-09-08T11:36:45Z</time>
      </trkpt>
      <trkpt lat="48.0481" lon="7.19609">
        <ele>323.8</ele>
        <time>2025-09-08T11:36:46Z</time>
      </trkpt>
      <trkpt lat="48.04808" lon="7.19602">
        <ele>324</ele>
        <time>2025-09-08T11:36:47Z</time>
      </trkpt>
      <trkpt lat="48.04806" lon="7.19594">
        <ele>324</ele>
        <time>2025-09-08T11:36:48Z</time>
      </trkpt>
      <trkpt lat="48.04804" lon="7.19586">
        <ele>324</ele>
        <time>2025-09-08T11:36:49Z</time>
      </trkpt>
      <trkpt lat="48.04802" lon="7.19579">
        <ele>324.2</ele>
        <time>2025-09-08T11:36:50Z</time>
      </trkpt>
      <trkpt lat="48.048" lon="7.19571">
        <ele>324.4</ele>
        <time>2025-09-08T11:36:51Z</time>
      </trkpt>
      <trkpt lat="48.04799" lon="7.19564">
        <ele>324.4</ele>
        <time>2025-09-08T11:36:52Z</time>
      </trkpt>
      <trkpt lat="48.04797" lon="7.19557">
        <ele>324.4</ele>
        <time>2025-09-08T11:36:53Z</time>
      </trkpt>
      <trkpt lat="48.04795" lon="7.19549">
        <ele>324.4</ele>
        <time>2025-09-08T11:36:54Z</time>
      </trkpt>
      <trkpt lat="48.04792" lon="7.19542">
        <ele>324.4</ele>
        <time>2025-09-08T11:36:55Z</time>
      </trkpt>
      <trkpt lat="48.0479" lon="7.19535">
        <ele>324.4</ele>
        <time>2025-09-08T11:36:56Z</time>
      </trkpt>
      <trkpt lat="48.04789" lon="7.19527">
        <ele>324.6</ele>
        <time>2025-09-08T11:36:57Z</time>
      </trkpt>
      <trkpt lat="48.04787" lon="7.1952">
        <ele>324.6</ele>
        <time>2025-09-08T11:36:58Z</time>
      </trkpt>
      <trkpt lat="48.04785" lon="7.19513">
        <ele>324.6</ele>
        <time>2025-09-08T11:36:59Z</time>
      </trkpt>
      <trkpt lat="48.04783" lon="7.19505">
        <ele>324.6</ele>
        <time>2025-09-08T11:37:00Z</time>
      </trkpt>
      <trkpt lat="48.04781" lon="7.19498">
        <ele>324.6</ele>
        <time>2025-09-08T11:37:01Z</time>
      </trkpt>
      <trkpt lat="48.04779" lon="7.19491">
        <ele>324.8</ele>
        <time>2025-09-08T11:37:02Z</time>
      </trkpt>
      <trkpt lat="48.04777" lon="7.19484">
        <ele>324.8</ele>
        <time>2025-09-08T11:37:03Z</time>
      </trkpt>
      <trkpt lat="48.04774" lon="7.19477">
        <ele>324.8</ele>
        <time>2025-09-08T11:37:04Z</time>
      </trkpt>
      <trkpt lat="48.04772" lon="7.1947">
        <ele>324.8</ele>
        <time>2025-09-08T11:37:05Z</time>
      </trkpt>
      <trkpt lat="48.0477" lon="7.19463">
        <ele>325</ele>
        <time>2025-09-08T11:37:06Z</time>
      </trkpt>
      <trkpt lat="48.04768" lon="7.19456">
        <ele>325</ele>
        <time>2025-09-08T11:37:07Z</time>
      </trkpt>
      <trkpt lat="48.04766" lon="7.19449">
        <ele>325</ele>
        <time>2025-09-08T11:37:08Z</time>
      </trkpt>
      <trkpt lat="48.04763" lon="7.19442">
        <ele>325</ele>
        <time>2025-09-08T11:37:09Z</time>
      </trkpt>
      <trkpt lat="48.04761" lon="7.19435">
        <ele>325.2</ele>
        <time>2025-09-08T11:37:10Z</time>
      </trkpt>
      <trkpt lat="48.04759" lon="7.19428">
        <ele>325.2</ele>
        <time>2025-09-08T11:37:11Z</time>
      </trkpt>
      <trkpt lat="48.04757" lon="7.19421">
        <ele>325.2</ele>
        <time>2025-09-08T11:37:12Z</time>
      </trkpt>
      <trkpt lat="48.04754" lon="7.19414">
        <ele>325.2</ele>
        <time>2025-09-08T11:37:13Z</time>
      </trkpt>
      <trkpt lat="48.04752" lon="7.19407">
        <ele>325.4</ele>
        <time>2025-09-08T11:37:14Z</time>
      </trkpt>
      <trkpt lat="48.04749" lon="7.194">
        <ele>325.4</ele>
        <time>2025-09-08T11:37:15Z</time>
      </trkpt>
      <trkpt lat="48.04747" lon="7.19393">
        <ele>325.6</ele>
        <time>2025-09-08T11:37:16Z</time>
      </trkpt>
      <trkpt lat="48.04745" lon="7.19386">
        <ele>325.6</ele>
        <time>2025-09-08T11:37:17Z</time>
      </trkpt>
      <trkpt lat="48.04744" lon="7.1938">
        <ele>325.6</ele>
        <time>2025-09-08T11:37:18Z</time>
      </trkpt>
      <trkpt lat="48.04743" lon="7.19373">
        <ele>325.6</ele>
        <time>2025-09-08T11:37:19Z</time>
      </trkpt>
      <trkpt lat="48.04745" lon="7.19367">
        <ele>325.8</ele>
        <time>2025-09-08T11:37:20Z</time>
      </trkpt>
      <trkpt lat="48.04747" lon="7.19363">
        <ele>326</ele>
        <time>2025-09-08T11:37:21Z</time>
      </trkpt>
      <trkpt lat="48.04751" lon="7.19359">
        <ele>326</ele>
        <time>2025-09-08T11:37:22Z</time>
      </trkpt>
      <trkpt lat="48.04753" lon="7.19354">
        <ele>326.2</ele>
        <time>2025-09-08T11:37:23Z</time>
      </trkpt>
      <trkpt lat="48.04752" lon="7.19347">
        <ele>326.4</ele>
        <time>2025-09-08T11:37:24Z</time>
      </trkpt>
      <trkpt lat="48.0475" lon="7.1934">
        <ele>326.4</ele>
        <time>2025-09-08T11:37:25Z</time>
      </trkpt>
      <trkpt lat="48.04748" lon="7.19333">
        <ele>326.4</ele>
        <time>2025-09-08T11:37:26Z</time>
      </trkpt>
      <trkpt lat="48.04746" lon="7.19326">
        <ele>326.4</ele>
        <time>2025-09-08T11:37:27Z</time>
      </trkpt>
      <trkpt lat="48.04744" lon="7.1932">
        <ele>326.4</ele>
        <time>2025-09-08T11:37:28Z</time>
      </trkpt>
      <trkpt lat="48.04742" lon="7.19313">
        <ele>326.4</ele>
        <time>2025-09-08T11:37:29Z</time>
      </trkpt>
      <trkpt lat="48.04739" lon="7.19306">
        <ele>326.4</ele>
        <time>2025-09-08T11:37:30Z</time>
      </trkpt>
      <trkpt lat="48.04737" lon="7.19299">
        <ele>326.4</ele>
        <time>2025-09-08T11:37:31Z</time>
      </trkpt>
      <trkpt lat="48.04735" lon="7.19292">
        <ele>326.4</ele>
        <time>2025-09-08T11:37:32Z</time>
      </trkpt>
      <trkpt lat="48.04733" lon="7.19285">
        <ele>326.4</ele>
        <time>2025-09-08T11:37:33Z</time>
      </trkpt>
      <trkpt lat="48.04731" lon="7.19278">
        <ele>326.6</ele>
        <time>2025-09-08T11:37:34Z</time>
      </trkpt>
      <trkpt lat="48.04729" lon="7.19271">
        <ele>326.6</ele>
        <time>2025-09-08T11:37:35Z</time>
      </trkpt>
      <trkpt lat="48.04726" lon="7.19264">
        <ele>326.6</ele>
        <time>2025-09-08T11:37:36Z</time>
      </trkpt>
      <trkpt lat="48.04724" lon="7.19257">
        <ele>326.8</ele>
        <time>2025-09-08T11:37:37Z</time>
      </trkpt>
      <trkpt lat="48.04722" lon="7.1925">
        <ele>326.8</ele>
        <time>2025-09-08T11:37:38Z</time>
      </trkpt>
      <trkpt lat="48.04721" lon="7.19243">
        <ele>327</ele>
        <time>2025-09-08T11:37:39Z</time>
      </trkpt>
      <trkpt lat="48.04719" lon="7.19236">
        <ele>327</ele>
        <time>2025-09-08T11:37:40Z</time>
      </trkpt>
      <trkpt lat="48.04717" lon="7.19228">
        <ele>327.2</ele>
        <time>2025-09-08T11:37:41Z</time>
      </trkpt>
      <trkpt lat="48.04715" lon="7.19221">
        <ele>327.2</ele>
        <time>2025-09-08T11:37:42Z</time>
      </trkpt>
      <trkpt lat="48.04713" lon="7.19214">
        <ele>327.2</ele>
        <time>2025-09-08T11:37:43Z</time>
      </trkpt>
      <trkpt lat="48.04711" lon="7.19207">
        <ele>327.2</ele>
        <time>2025-09-08T11:37:44Z</time>
      </trkpt>
      <trkpt lat="48.04709" lon="7.192">
        <ele>327.4</ele>
        <time>2025-09-08T11:37:45Z</time>
      </trkpt>
      <trkpt lat="48.04707" lon="7.19192">
        <ele>327.4</ele>
        <time>2025-09-08T11:37:46Z</time>
      </trkpt>
      <trkpt lat="48.04705" lon="7.19185">
        <ele>327.4</ele>
        <time>2025-09-08T11:37:47Z</time>
      </trkpt>
      <trkpt lat="48.04703" lon="7.19178">
        <ele>327.4</ele>
        <time>2025-09-08T11:37:48Z</time>
      </trkpt>
      <trkpt lat="48.04701" lon="7.1917">
        <ele>327.4</ele>
        <time>2025-09-08T11:37:49Z</time>
      </trkpt>
      <trkpt lat="48.04699" lon="7.19163">
        <ele>327.4</ele>
        <time>2025-09-08T11:37:50Z</time>
      </trkpt>
      <trkpt lat="48.04697" lon="7.19156">
        <ele>327.6</ele>
        <time>2025-09-08T11:37:51Z</time>
      </trkpt>
      <trkpt lat="48.04695" lon="7.19148">
        <ele>327.6</ele>
        <time>2025-09-08T11:37:52Z</time>
      </trkpt>
      <trkpt lat="48.04693" lon="7.19141">
        <ele>327.6</ele>
        <time>2025-09-08T11:37:53Z</time>
      </trkpt>
      <trkpt lat="48.04691" lon="7.19134">
        <ele>327.6</ele>
        <time>2025-09-08T11:37:54Z</time>
      </trkpt>
      <trkpt lat="48.04688" lon="7.19127">
        <ele>327.6</ele>
        <time>2025-09-08T11:37:55Z</time>
      </trkpt>
      <trkpt lat="48.04685" lon="7.19121">
        <ele>327.6</ele>
        <time>2025-09-08T11:37:56Z</time>
      </trkpt>
      <trkpt lat="48.04682" lon="7.19114">
        <ele>327.6</ele>
        <time>2025-09-08T11:37:57Z</time>
      </trkpt>
      <trkpt lat="48.0468" lon="7.19107">
        <ele>327.6</ele>
        <time>2025-09-08T11:37:58Z</time>
      </trkpt>
      <trkpt lat="48.04679" lon="7.191">
        <ele>327.6</ele>
        <time>2025-09-08T11:37:59Z</time>
      </trkpt>
      <trkpt lat="48.04679" lon="7.19092">
        <ele>327.6</ele>
        <time>2025-09-08T11:38:00Z</time>
      </trkpt>
      <trkpt lat="48.04679" lon="7.19084">
        <ele>327.8</ele>
        <time>2025-09-08T11:38:01Z</time>
      </trkpt>
      <trkpt lat="48.0468" lon="7.19077">
        <ele>328</ele>
        <time>2025-09-08T11:38:02Z</time>
      </trkpt>
      <trkpt lat="48.04681" lon="7.19069">
        <ele>328</ele>
        <time>2025-09-08T11:38:03Z</time>
      </trkpt>
      <trkpt lat="48.04682" lon="7.19061">
        <ele>328</ele>
        <time>2025-09-08T11:38:04Z</time>
      </trkpt>
      <trkpt lat="48.04683" lon="7.19053">
        <ele>328</ele>
        <time>2025-09-08T11:38:05Z</time>
      </trkpt>
      <trkpt lat="48.04685" lon="7.19046">
        <ele>328</ele>
        <time>2025-09-08T11:38:06Z</time>
      </trkpt>
      <trkpt lat="48.04686" lon="7.19039">
        <ele>328.2</ele>
        <time>2025-09-08T11:38:07Z</time>
      </trkpt>
      <trkpt lat="48.04688" lon="7.19031">
        <ele>328.2</ele>
        <time>2025-09-08T11:38:08Z</time>
      </trkpt>
      <trkpt lat="48.04689" lon="7.19024">
        <ele>328.4</ele>
        <time>2025-09-08T11:38:09Z</time>
      </trkpt>
      <trkpt lat="48.0469" lon="7.19016">
        <ele>328.4</ele>
        <time>2025-09-08T11:38:10Z</time>
      </trkpt>
      <trkpt lat="48.04692" lon="7.19007">
        <ele>328.4</ele>
        <time>2025-09-08T11:38:11Z</time>
      </trkpt>
      <trkpt lat="48.04692" lon="7.18999">
        <ele>328.4</ele>
        <time>2025-09-08T11:38:12Z</time>
      </trkpt>
      <trkpt lat="48.04692" lon="7.1899">
        <ele>328.4</ele>
        <time>2025-09-08T11:38:13Z</time>
      </trkpt>
      <trkpt lat="48.04691" lon="7.18983">
        <ele>328.4</ele>
        <time>2025-09-08T11:38:14Z</time>
      </trkpt>
      <trkpt lat="48.0469" lon="7.18975">
        <ele>328.6</ele>
        <time>2025-09-08T11:38:15Z</time>
      </trkpt>
      <trkpt lat="48.04688" lon="7.18967">
        <ele>328.6</ele>
        <time>2025-09-08T11:38:16Z</time>
      </trkpt>
      <trkpt lat="48.04687" lon="7.18959">
        <ele>328.6</ele>
        <time>2025-09-08T11:38:17Z</time>
      </trkpt>
      <trkpt lat="48.04685" lon="7.18951">
        <ele>328.8</ele>
        <time>2025-09-08T11:38:18Z</time>
      </trkpt>
      <trkpt lat="48.04684" lon="7.18943">
        <ele>328.8</ele>
        <time>2025-09-08T11:38:19Z</time>
      </trkpt>
      <trkpt lat="48.04682" lon="7.18935">
        <ele>328.8</ele>
        <time>2025-09-08T11:38:20Z</time>
      </trkpt>
      <trkpt lat="48.04681" lon="7.18927">
        <ele>329</ele>
        <time>2025-09-08T11:38:21Z</time>
      </trkpt>
      <trkpt lat="48.04679" lon="7.18919">
        <ele>329</ele>
        <time>2025-09-08T11:38:22Z</time>
      </trkpt>
      <trkpt lat="48.04678" lon="7.18911">
        <ele>329</ele>
        <time>2025-09-08T11:38:23Z</time>
      </trkpt>
      <trkpt lat="48.04676" lon="7.18903">
        <ele>329</ele>
        <time>2025-09-08T11:38:24Z</time>
      </trkpt>
      <trkpt lat="48.04675" lon="7.18895">
        <ele>329</ele>
        <time>2025-09-08T11:38:25Z</time>
      </trkpt>
      <trkpt lat="48.04673" lon="7.18887">
        <ele>329.2</ele>
        <time>2025-09-08T11:38:26Z</time>
      </trkpt>
      <trkpt lat="48.04672" lon="7.18879">
        <ele>329.2</ele>
        <time>2025-09-08T11:38:27Z</time>
      </trkpt>
      <trkpt lat="48.0467" lon="7.18871">
        <ele>329.2</ele>
        <time>2025-09-08T11:38:28Z</time>
      </trkpt>
      <trkpt lat="48.04668" lon="7.18863">
        <ele>329.4</ele>
        <time>2025-09-08T11:38:29Z</time>
      </trkpt>
      <trkpt lat="48.04667" lon="7.18855">
        <ele>329.4</ele>
        <time>2025-09-08T11:38:30Z</time>
      </trkpt>
      <trkpt lat="48.04665" lon="7.18847">
        <ele>329.4</ele>
        <time>2025-09-08T11:38:31Z</time>
      </trkpt>
      <trkpt lat="48.04664" lon="7.18839">
        <ele>329.4</ele>
        <time>2025-09-08T11:38:32Z</time>
      </trkpt>
      <trkpt lat="48.04662" lon="7.1883">
        <ele>329.6</ele>
        <time>2025-09-08T11:38:33Z</time>
      </trkpt>
      <trkpt lat="48.04661" lon="7.18822">
        <ele>329.6</ele>
        <time>2025-09-08T11:38:34Z</time>
      </trkpt>
      <trkpt lat="48.0466" lon="7.18814">
        <ele>329.6</ele>
        <time>2025-09-08T11:38:35Z</time>
      </trkpt>
      <trkpt lat="48.04658" lon="7.18806">
        <ele>329.6</ele>
        <time>2025-09-08T11:38:36Z</time>
      </trkpt>
      <trkpt lat="48.04657" lon="7.18797">
        <ele>329.6</ele>
        <time>2025-09-08T11:38:37Z</time>
      </trkpt>
      <trkpt lat="48.04655" lon="7.18789">
        <ele>329.8</ele>
        <time>2025-09-08T11:38:38Z</time>
      </trkpt>
      <trkpt lat="48.04654" lon="7.18781">
        <ele>329.8</ele>
        <time>2025-09-08T11:38:39Z</time>
      </trkpt>
      <trkpt lat="48.04652" lon="7.18773">
        <ele>329.8</ele>
        <time>2025-09-08T11:38:40Z</time>
      </trkpt>
      <trkpt lat="48.04651" lon="7.18765">
        <ele>329.8</ele>
        <time>2025-09-08T11:38:41Z</time>
      </trkpt>
      <trkpt lat="48.04649" lon="7.18756">
        <ele>329.8</ele>
        <time>2025-09-08T11:38:42Z</time>
      </trkpt>
      <trkpt lat="48.04647" lon="7.18748">
        <ele>330</ele>
        <time>2025-09-08T11:38:43Z</time>
      </trkpt>
      <trkpt lat="48.04646" lon="7.1874">
        <ele>330</ele>
        <time>2025-09-08T11:38:44Z</time>
      </trkpt>
      <trkpt lat="48.04645" lon="7.18731">
        <ele>330.2</ele>
        <time>2025-09-08T11:38:45Z</time>
      </trkpt>
      <trkpt lat="48.04643" lon="7.18723">
        <ele>330.2</ele>
        <time>2025-09-08T11:38:46Z</time>
      </trkpt>
      <trkpt lat="48.04642" lon="7.18715">
        <ele>330.4</ele>
        <time>2025-09-08T11:38:47Z</time>
      </trkpt>
      <trkpt lat="48.0464" lon="7.18706">
        <ele>330.4</ele>
        <time>2025-09-08T11:38:48Z</time>
      </trkpt>
      <trkpt lat="48.04639" lon="7.18698">
        <ele>330.4</ele>
        <time>2025-09-08T11:38:49Z</time>
      </trkpt>
      <trkpt lat="48.04638" lon="7.18691">
        <ele>330.6</ele>
        <time>2025-09-08T11:38:50Z</time>
      </trkpt>
      <trkpt lat="48.04636" lon="7.18683">
        <ele>330.6</ele>
        <time>2025-09-08T11:38:51Z</time>
      </trkpt>
      <trkpt lat="48.04635" lon="7.18677">
        <ele>330.8</ele>
        <time>2025-09-08T11:38:52Z</time>
      </trkpt>
      <trkpt lat="48.04633" lon="7.1867">
        <ele>330.8</ele>
        <time>2025-09-08T11:38:53Z</time>
      </trkpt>
      <trkpt lat="48.04631" lon="7.18664">
        <ele>331</ele>
        <time>2025-09-08T11:38:54Z</time>
      </trkpt>
      <trkpt lat="48.0463" lon="7.18657">
        <ele>331.2</ele>
        <time>2025-09-08T11:38:55Z</time>
      </trkpt>
      <trkpt lat="48.04632" lon="7.18651">
        <ele>331.4</ele>
        <time>2025-09-08T11:38:56Z</time>
      </trkpt>
      <trkpt lat="48.04635" lon="7.18648">
        <ele>331.6</ele>
        <time>2025-09-08T11:38:57Z</time>
      </trkpt>
      <trkpt lat="48.04639" lon="7.18647">
        <ele>331.8</ele>
        <time>2025-09-08T11:38:58Z</time>
      </trkpt>
      <trkpt lat="48.04643" lon="7.18645">
        <ele>331.8</ele>
        <time>2025-09-08T11:38:59Z</time>
      </trkpt>
      <trkpt lat="48.04648" lon="7.18643">
        <ele>332</ele>
        <time>2025-09-08T11:39:00Z</time>
      </trkpt>
      <trkpt lat="48.04654" lon="7.18642">
        <ele>332</ele>
        <time>2025-09-08T11:39:01Z</time>
      </trkpt>
      <trkpt lat="48.04659" lon="7.18638">
        <ele>332</ele>
        <time>2025-09-08T11:39:02Z</time>
      </trkpt>
      <trkpt lat="48.04664" lon="7.18636">
        <ele>332.2</ele>
        <time>2025-09-08T11:39:03Z</time>
      </trkpt>
      <trkpt lat="48.0467" lon="7.18633">
        <ele>332.2</ele>
        <time>2025-09-08T11:39:04Z</time>
      </trkpt>
      <trkpt lat="48.04676" lon="7.1863">
        <ele>332.2</ele>
        <time>2025-09-08T11:39:05Z</time>
      </trkpt>
      <trkpt lat="48.04681" lon="7.18628">
        <ele>332.4</ele>
        <time>2025-09-08T11:39:06Z</time>
      </trkpt>
      <trkpt lat="48.04685" lon="7.18626">
        <ele>332.6</ele>
        <time>2025-09-08T11:39:07Z</time>
      </trkpt>
      <trkpt lat="48.0469" lon="7.18622">
        <ele>332.6</ele>
        <time>2025-09-08T11:39:08Z</time>
      </trkpt>
      <trkpt lat="48.04693" lon="7.18618">
        <ele>332.8</ele>
        <time>2025-09-08T11:39:09Z</time>
      </trkpt>
      <trkpt lat="48.04694" lon="7.18612">
        <ele>333.2</ele>
        <time>2025-09-08T11:39:10Z</time>
      </trkpt>
      <trkpt lat="48.04693" lon="7.18606">
        <ele>333.4</ele>
        <time>2025-09-08T11:39:11Z</time>
      </trkpt>
      <trkpt lat="48.04692" lon="7.186">
        <ele>333.6</ele>
        <time>2025-09-08T11:39:12Z</time>
      </trkpt>
      <trkpt lat="48.04692" lon="7.18594">
        <ele>334.2</ele>
        <time>2025-09-08T11:39:13Z</time>
      </trkpt>
      <trkpt lat="48.04691" lon="7.18589">
        <ele>334.2</ele>
        <time>2025-09-08T11:39:14Z</time>
      </trkpt>
      <trkpt lat="48.0469" lon="7.18583">
        <ele>334.4</ele>
        <time>2025-09-08T11:39:15Z</time>
      </trkpt>
      <trkpt lat="48.04689" lon="7.18578">
        <ele>334.4</ele>
        <time>2025-09-08T11:39:16Z</time>
      </trkpt>
      <trkpt lat="48.04688" lon="7.18571">
        <ele>334.4</ele>
        <time>2025-09-08T11:39:17Z</time>
      </trkpt>
      <trkpt lat="48.04687" lon="7.18564">
        <ele>334.4</ele>
        <time>2025-09-08T11:39:18Z</time>
      </trkpt>
      <trkpt lat="48.04686" lon="7.18557">
        <ele>334.4</ele>
        <time>2025-09-08T11:39:19Z</time>
      </trkpt>
      <trkpt lat="48.04685" lon="7.1855">
        <ele>334.4</ele>
        <time>2025-09-08T11:39:20Z</time>
      </trkpt>
      <trkpt lat="48.04683" lon="7.18543">
        <ele>334.4</ele>
        <time>2025-09-08T11:39:21Z</time>
      </trkpt>
      <trkpt lat="48.04682" lon="7.18535">
        <ele>334.4</ele>
        <time>2025-09-08T11:39:22Z</time>
      </trkpt>
      <trkpt lat="48.04681" lon="7.18528">
        <ele>334.2</ele>
        <time>2025-09-08T11:39:23Z</time>
      </trkpt>
      <trkpt lat="48.04679" lon="7.18521">
        <ele>334.2</ele>
        <time>2025-09-08T11:39:24Z</time>
      </trkpt>
      <trkpt lat="48.04678" lon="7.18513">
        <ele>334.2</ele>
        <time>2025-09-08T11:39:25Z</time>
      </trkpt>
      <trkpt lat="48.04676" lon="7.18505">
        <ele>334.2</ele>
        <time>2025-09-08T11:39:26Z</time>
      </trkpt>
      <trkpt lat="48.04674" lon="7.18497">
        <ele>334.2</ele>
        <time>2025-09-08T11:39:27Z</time>
      </trkpt>
      <trkpt lat="48.04671" lon="7.18489">
        <ele>334.2</ele>
        <time>2025-09-08T11:39:28Z</time>
      </trkpt>
      <trkpt lat="48.04668" lon="7.18482">
        <ele>334.2</ele>
        <time>2025-09-08T11:39:29Z</time>
      </trkpt>
      <trkpt lat="48.04665" lon="7.18474">
        <ele>334.2</ele>
        <time>2025-09-08T11:39:30Z</time>
      </trkpt>
      <trkpt lat="48.04662" lon="7.18467">
        <ele>334.2</ele>
        <time>2025-09-08T11:39:31Z</time>
      </trkpt>
      <trkpt lat="48.04659" lon="7.1846">
        <ele>334.2</ele>
        <time>2025-09-08T11:39:32Z</time>
      </trkpt>
      <trkpt lat="48.04656" lon="7.18453">
        <ele>334.2</ele>
        <time>2025-09-08T11:39:33Z</time>
      </trkpt>
      <trkpt lat="48.04652" lon="7.18445">
        <ele>334.2</ele>
        <time>2025-09-08T11:39:34Z</time>
      </trkpt>
      <trkpt lat="48.04649" lon="7.18438">
        <ele>334.2</ele>
        <time>2025-09-08T11:39:35Z</time>
      </trkpt>
      <trkpt lat="48.04645" lon="7.18431">
        <ele>334.2</ele>
        <time>2025-09-08T11:39:36Z</time>
      </trkpt>
      <trkpt lat="48.04642" lon="7.18423">
        <ele>334.2</ele>
        <time>2025-09-08T11:39:37Z</time>
      </trkpt>
      <trkpt lat="48.04638" lon="7.18416">
        <ele>334</ele>
        <time>2025-09-08T11:39:38Z</time>
      </trkpt>
      <trkpt lat="48.04635" lon="7.18408">
        <ele>334</ele>
        <time>2025-09-08T11:39:39Z</time>
      </trkpt>
      <trkpt lat="48.04631" lon="7.18401">
        <ele>334</ele>
        <time>2025-09-08T11:39:40Z</time>
      </trkpt>
      <trkpt lat="48.04628" lon="7.18394">
        <ele>334</ele>
        <time>2025-09-08T11:39:41Z</time>
      </trkpt>
      <trkpt lat="48.04624" lon="7.18387">
        <ele>334</ele>
        <time>2025-09-08T11:39:42Z</time>
      </trkpt>
      <trkpt lat="48.04619" lon="7.1838">
        <ele>334</ele>
        <time>2025-09-08T11:39:43Z</time>
      </trkpt>
      <trkpt lat="48.04615" lon="7.18374">
        <ele>334</ele>
        <time>2025-09-08T11:39:44Z</time>
      </trkpt>
      <trkpt lat="48.0461" lon="7.18369">
        <ele>334</ele>
        <time>2025-09-08T11:39:45Z</time>
      </trkpt>
      <trkpt lat="48.04606" lon="7.18364">
        <ele>334</ele>
        <time>2025-09-08T11:39:46Z</time>
      </trkpt>
      <trkpt lat="48.04601" lon="7.18358">
        <ele>334</ele>
        <time>2025-09-08T11:39:47Z</time>
      </trkpt>
      <trkpt lat="48.04595" lon="7.18353">
        <ele>334</ele>
        <time>2025-09-08T11:39:48Z</time>
      </trkpt>
      <trkpt lat="48.0459" lon="7.18349">
        <ele>334</ele>
        <time>2025-09-08T11:39:49Z</time>
      </trkpt>
      <trkpt lat="48.04585" lon="7.18345">
        <ele>333.8</ele>
        <time>2025-09-08T11:39:50Z</time>
      </trkpt>
      <trkpt lat="48.04581" lon="7.1834">
        <ele>333.8</ele>
        <time>2025-09-08T11:39:51Z</time>
      </trkpt>
      <trkpt lat="48.04576" lon="7.18335">
        <ele>333.8</ele>
        <time>2025-09-08T11:39:52Z</time>
      </trkpt>
      <trkpt lat="48.04573" lon="7.18329">
        <ele>333.8</ele>
        <time>2025-09-08T11:39:53Z</time>
      </trkpt>
      <trkpt lat="48.04569" lon="7.18323">
        <ele>333.8</ele>
        <time>2025-09-08T11:39:54Z</time>
      </trkpt>
      <trkpt lat="48.04567" lon="7.18316">
        <ele>334</ele>
        <time>2025-09-08T11:39:55Z</time>
      </trkpt>
      <trkpt lat="48.04564" lon="7.18309">
        <ele>334</ele>
        <time>2025-09-08T11:39:56Z</time>
      </trkpt>
      <trkpt lat="48.04562" lon="7.18301">
        <ele>334.2</ele>
        <time>2025-09-08T11:39:57Z</time>
      </trkpt>
      <trkpt lat="48.0456" lon="7.18293">
        <ele>334.2</ele>
        <time>2025-09-08T11:39:58Z</time>
      </trkpt>
      <trkpt lat="48.04559" lon="7.18285">
        <ele>334.2</ele>
        <time>2025-09-08T11:39:59Z</time>
      </trkpt>
      <trkpt lat="48.04557" lon="7.18276">
        <ele>334.2</ele>
        <time>2025-09-08T11:40:00Z</time>
      </trkpt>
      <trkpt lat="48.04555" lon="7.18268">
        <ele>334.4</ele>
        <time>2025-09-08T11:40:01Z</time>
      </trkpt>
      <trkpt lat="48.04553" lon="7.1826">
        <ele>334.4</ele>
        <time>2025-09-08T11:40:02Z</time>
      </trkpt>
      <trkpt lat="48.04552" lon="7.18252">
        <ele>334.4</ele>
        <time>2025-09-08T11:40:03Z</time>
      </trkpt>
      <trkpt lat="48.0455" lon="7.18244">
        <ele>334.4</ele>
        <time>2025-09-08T11:40:04Z</time>
      </trkpt>
      <trkpt lat="48.04548" lon="7.18237">
        <ele>334.6</ele>
        <time>2025-09-08T11:40:05Z</time>
      </trkpt>
      <trkpt lat="48.04546" lon="7.18229">
        <ele>334.6</ele>
        <time>2025-09-08T11:40:06Z</time>
      </trkpt>
      <trkpt lat="48.04544" lon="7.18222">
        <ele>334.8</ele>
        <time>2025-09-08T11:40:07Z</time>
      </trkpt>
      <trkpt lat="48.04542" lon="7.18215">
        <ele>334.8</ele>
        <time>2025-09-08T11:40:08Z</time>
      </trkpt>
      <trkpt lat="48.0454" lon="7.18207">
        <ele>335</ele>
        <time>2025-09-08T11:40:09Z</time>
      </trkpt>
      <trkpt lat="48.04538" lon="7.18199">
        <ele>335</ele>
        <time>2025-09-08T11:40:10Z</time>
      </trkpt>
      <trkpt lat="48.04537" lon="7.18192">
        <ele>335</ele>
        <time>2025-09-08T11:40:11Z</time>
      </trkpt>
      <trkpt lat="48.04536" lon="7.18183">
        <ele>335.2</ele>
        <time>2025-09-08T11:40:12Z</time>
      </trkpt>
      <trkpt lat="48.04536" lon="7.18175">
        <ele>335.4</ele>
        <time>2025-09-08T11:40:13Z</time>
      </trkpt>
      <trkpt lat="48.04537" lon="7.18167">
        <ele>335.4</ele>
        <time>2025-09-08T11:40:14Z</time>
      </trkpt>
      <trkpt lat="48.04537" lon="7.18159">
        <ele>335.4</ele>
        <time>2025-09-08T11:40:15Z</time>
      </trkpt>
      <trkpt lat="48.04537" lon="7.1815">
        <ele>335.6</ele>
        <time>2025-09-08T11:40:16Z</time>
      </trkpt>
      <trkpt lat="48.04536" lon="7.18142">
        <ele>335.6</ele>
        <time>2025-09-08T11:40:17Z</time>
      </trkpt>
      <trkpt lat="48.04535" lon="7.18134">
        <ele>335.6</ele>
        <time>2025-09-08T11:40:18Z</time>
      </trkpt>
      <trkpt lat="48.04534" lon="7.18126">
        <ele>335.8</ele>
        <time>2025-09-08T11:40:19Z</time>
      </trkpt>
      <trkpt lat="48.04532" lon="7.18118">
        <ele>336</ele>
        <time>2025-09-08T11:40:20Z</time>
      </trkpt>
      <trkpt lat="48.04531" lon="7.18111">
        <ele>336</ele>
        <time>2025-09-08T11:40:21Z</time>
      </trkpt>
      <trkpt lat="48.04529" lon="7.18103">
        <ele>336</ele>
        <time>2025-09-08T11:40:22Z</time>
      </trkpt>
      <trkpt lat="48.04527" lon="7.18095">
        <ele>336.2</ele>
        <time>2025-09-08T11:40:23Z</time>
      </trkpt>
      <trkpt lat="48.04526" lon="7.18088">
        <ele>336.2</ele>
        <time>2025-09-08T11:40:24Z</time>
      </trkpt>
      <trkpt lat="48.04524" lon="7.1808">
        <ele>336.4</ele>
        <time>2025-09-08T11:40:25Z</time>
      </trkpt>
      <trkpt lat="48.04523" lon="7.18073">
        <ele>336.4</ele>
        <time>2025-09-08T11:40:26Z</time>
      </trkpt>
      <trkpt lat="48.04521" lon="7.18067">
        <ele>336.6</ele>
        <time>2025-09-08T11:40:27Z</time>
      </trkpt>
      <trkpt lat="48.04519" lon="7.18061">
        <ele>336.6</ele>
        <time>2025-09-08T11:40:28Z</time>
      </trkpt>
      <trkpt lat="48.04519" lon="7.18046">
        <ele>334.7</ele>
      </trkpt>
      <trkpt lat="48.04519" lon="7.1803">
        <ele>337.8</ele>
        <time>2025-09-08T11:40:40Z</time>
      </trkpt>
      <trkpt lat="48.0452" lon="7.18024">
        <ele>337.8</ele>
        <time>2025-09-08T11:40:41Z</time>
      </trkpt>
      <trkpt lat="48.04521" lon="7.18018">
        <ele>337.8</ele>
        <time>2025-09-08T11:40:42Z</time>
      </trkpt>
      <trkpt lat="48.04523" lon="7.18013">
        <ele>337.8</ele>
        <time>2025-09-08T11:40:43Z</time>
      </trkpt>
      <trkpt lat="48.04524" lon="7.18008">
        <ele>337.8</ele>
        <time>2025-09-08T11:40:44Z</time>
      </trkpt>
      <trkpt lat="48.04524" lon="7.18003">
        <ele>337.8</ele>
        <time>2025-09-08T11:40:45Z</time>
      </trkpt>
      <trkpt lat="48.04522" lon="7.18">
        <ele>337.8</ele>
        <time>2025-09-08T11:40:46Z</time>
      </trkpt>
      <trkpt lat="48.04519" lon="7.17998">
        <ele>337.8</ele>
        <time>2025-09-08T11:40:47Z</time>
      </trkpt>
      <trkpt lat="48.04515" lon="7.17999">
        <ele>338</ele>
        <time>2025-09-08T11:40:48Z</time>
      </trkpt>
      <trkpt lat="48.04512" lon="7.18001">
        <ele>338</ele>
        <time>2025-09-08T11:40:49Z</time>
      </trkpt>
      <trkpt lat="48.0451" lon="7.18">
        <ele>338</ele>
        <time>2025-09-08T11:40:50Z</time>
      </trkpt>
      <trkpt lat="48.04507" lon="7.18">
        <ele>338</ele>
        <time>2025-09-08T11:40:51Z</time>
      </trkpt>
      <trkpt lat="48.04504" lon="7.18003">
        <ele>337.8</ele>
        <time>2025-09-08T11:40:52Z</time>
      </trkpt>
      <trkpt lat="48.04501" lon="7.18006">
        <ele>337.8</ele>
        <time>2025-09-08T11:40:53Z</time>
      </trkpt>
      <trkpt lat="48.04498" lon="7.18008">
        <ele>337.8</ele>
        <time>2025-09-08T11:40:54Z</time>
      </trkpt>
      <trkpt lat="48.04494" lon="7.1801">
        <ele>337.6</ele>
        <time>2025-09-08T11:40:55Z</time>
      </trkpt>
      <trkpt lat="48.04489" lon="7.1801">
        <ele>337.4</ele>
        <time>2025-09-08T11:40:56Z</time>
      </trkpt>
      <trkpt lat="48.04486" lon="7.18006">
        <ele>337</ele>
        <time>2025-09-08T11:40:57Z</time>
      </trkpt>
      <trkpt lat="48.04485" lon="7.18002">
        <ele>337</ele>
        <time>2025-09-08T11:40:58Z</time>
      </trkpt>
      <trkpt lat="48.04484" lon="7.17996">
        <ele>336.6</ele>
        <time>2025-09-08T11:40:59Z</time>
      </trkpt>
      <trkpt lat="48.04484" lon="7.1799">
        <ele>336.6</ele>
        <time>2025-09-08T11:41:00Z</time>
      </trkpt>
      <trkpt lat="48.04484" lon="7.17984">
        <ele>336.6</ele>
        <time>2025-09-08T11:41:01Z</time>
      </trkpt>
      <trkpt lat="48.04484" lon="7.17977">
        <ele>336.6</ele>
        <time>2025-09-08T11:41:02Z</time>
      </trkpt>
      <trkpt lat="48.04484" lon="7.1797">
        <ele>336.6</ele>
        <time>2025-09-08T11:41:03Z</time>
      </trkpt>
      <trkpt lat="48.04484" lon="7.17963">
        <ele>336.8</ele>
        <time>2025-09-08T11:41:04Z</time>
      </trkpt>
      <trkpt lat="48.04483" lon="7.17956">
        <ele>337</ele>
        <time>2025-09-08T11:41:05Z</time>
      </trkpt>
      <trkpt lat="48.04483" lon="7.17949">
        <ele>337</ele>
        <time>2025-09-08T11:41:06Z</time>
      </trkpt>
      <trkpt lat="48.04483" lon="7.17942">
        <ele>337</ele>
        <time>2025-09-08T11:41:07Z</time>
      </trkpt>
      <trkpt lat="48.04483" lon="7.17935">
        <ele>337</ele>
        <time>2025-09-08T11:41:08Z</time>
      </trkpt>
      <trkpt lat="48.04483" lon="7.17928">
        <ele>337</ele>
        <time>2025-09-08T11:41:09Z</time>
      </trkpt>
      <trkpt lat="48.04482" lon="7.1792">
        <ele>337</ele>
        <time>2025-09-08T11:41:10Z</time>
      </trkpt>
      <trkpt lat="48.04482" lon="7.17912">
        <ele>337</ele>
        <time>2025-09-08T11:41:11Z</time>
      </trkpt>
      <trkpt lat="48.04481" lon="7.17904">
        <ele>337</ele>
        <time>2025-09-08T11:41:12Z</time>
      </trkpt>
      <trkpt lat="48.0448" lon="7.17896">
        <ele>337.2</ele>
        <time>2025-09-08T11:41:13Z</time>
      </trkpt>
      <trkpt lat="48.0448" lon="7.17889">
        <ele>337.2</ele>
        <time>2025-09-08T11:41:14Z</time>
      </trkpt>
      <trkpt lat="48.04478" lon="7.17882">
        <ele>337.2</ele>
        <time>2025-09-08T11:41:15Z</time>
      </trkpt>
      <trkpt lat="48.04477" lon="7.17875">
        <ele>337.2</ele>
        <time>2025-09-08T11:41:16Z</time>
      </trkpt>
      <trkpt lat="48.04476" lon="7.17869">
        <ele>337.2</ele>
        <time>2025-09-08T11:41:17Z</time>
      </trkpt>
      <trkpt lat="48.04475" lon="7.17861">
        <ele>337.4</ele>
        <time>2025-09-08T11:41:18Z</time>
      </trkpt>
      <trkpt lat="48.04474" lon="7.17854">
        <ele>337.6</ele>
        <time>2025-09-08T11:41:19Z</time>
      </trkpt>
      <trkpt lat="48.04474" lon="7.17846">
        <ele>337.6</ele>
        <time>2025-09-08T11:41:20Z</time>
      </trkpt>
      <trkpt lat="48.04473" lon="7.17837">
        <ele>337.6</ele>
        <time>2025-09-08T11:41:21Z</time>
      </trkpt>
      <trkpt lat="48.04471" lon="7.17829">
        <ele>337.6</ele>
        <time>2025-09-08T11:41:22Z</time>
      </trkpt>
      <trkpt lat="48.0447" lon="7.17821">
        <ele>337.8</ele>
        <time>2025-09-08T11:41:23Z</time>
      </trkpt>
      <trkpt lat="48.04468" lon="7.17813">
        <ele>337.8</ele>
        <time>2025-09-08T11:41:24Z</time>
      </trkpt>
      <trkpt lat="48.04467" lon="7.17805">
        <ele>337.8</ele>
        <time>2025-09-08T11:41:25Z</time>
      </trkpt>
      <trkpt lat="48.04465" lon="7.17798">
        <ele>337.8</ele>
        <time>2025-09-08T11:41:26Z</time>
      </trkpt>
      <trkpt lat="48.04464" lon="7.1779">
        <ele>337.8</ele>
        <time>2025-09-08T11:41:27Z</time>
      </trkpt>
      <trkpt lat="48.04462" lon="7.17782">
        <ele>337.8</ele>
        <time>2025-09-08T11:41:28Z</time>
      </trkpt>
      <trkpt lat="48.04461" lon="7.17773">
        <ele>338</ele>
        <time>2025-09-08T11:41:29Z</time>
      </trkpt>
      <trkpt lat="48.0446" lon="7.17765">
        <ele>338</ele>
        <time>2025-09-08T11:41:30Z</time>
      </trkpt>
      <trkpt lat="48.04459" lon="7.17757">
        <ele>338</ele>
        <time>2025-09-08T11:41:31Z</time>
      </trkpt>
      <trkpt lat="48.04458" lon="7.17749">
        <ele>338.2</ele>
        <time>2025-09-08T11:41:32Z</time>
      </trkpt>
      <trkpt lat="48.04457" lon="7.1774">
        <ele>338.2</ele>
        <time>2025-09-08T11:41:33Z</time>
      </trkpt>
      <trkpt lat="48.04456" lon="7.17732">
        <ele>338.2</ele>
        <time>2025-09-08T11:41:34Z</time>
      </trkpt>
      <trkpt lat="48.04455" lon="7.17724">
        <ele>338.4</ele>
        <time>2025-09-08T11:41:35Z</time>
      </trkpt>
      <trkpt lat="48.04454" lon="7.17716">
        <ele>338.4</ele>
        <time>2025-09-08T11:41:36Z</time>
      </trkpt>
      <trkpt lat="48.04453" lon="7.17708">
        <ele>338.6</ele>
        <time>2025-09-08T11:41:37Z</time>
      </trkpt>
      <trkpt lat="48.04453" lon="7.177">
        <ele>338.6</ele>
        <time>2025-09-08T11:41:38Z</time>
      </trkpt>
      <trkpt lat="48.04452" lon="7.17692">
        <ele>338.8</ele>
        <time>2025-09-08T11:41:39Z</time>
      </trkpt>
      <trkpt lat="48.04452" lon="7.17684">
        <ele>338.8</ele>
        <time>2025-09-08T11:41:40Z</time>
      </trkpt>
      <trkpt lat="48.04451" lon="7.17675">
        <ele>338.8</ele>
        <time>2025-09-08T11:41:41Z</time>
      </trkpt>
      <trkpt lat="48.0445" lon="7.17666">
        <ele>338.8</ele>
        <time>2025-09-08T11:41:42Z</time>
      </trkpt>
      <trkpt lat="48.0445" lon="7.17658">
        <ele>339</ele>
        <time>2025-09-08T11:41:43Z</time>
      </trkpt>
      <trkpt lat="48.0445" lon="7.17649">
        <ele>339</ele>
        <time>2025-09-08T11:41:44Z</time>
      </trkpt>
      <trkpt lat="48.04451" lon="7.1764">
        <ele>339</ele>
        <time>2025-09-08T11:41:45Z</time>
      </trkpt>
      <trkpt lat="48.04451" lon="7.1763">
        <ele>339</ele>
        <time>2025-09-08T11:41:46Z</time>
      </trkpt>
      <trkpt lat="48.04451" lon="7.17622">
        <ele>339</ele>
        <time>2025-09-08T11:41:47Z</time>
      </trkpt>
      <trkpt lat="48.04451" lon="7.17613">
        <ele>339</ele>
        <time>2025-09-08T11:41:48Z</time>
      </trkpt>
      <trkpt lat="48.04452" lon="7.17605">
        <ele>339</ele>
        <time>2025-09-08T11:41:49Z</time>
      </trkpt>
      <trkpt lat="48.04453" lon="7.17596">
        <ele>339</ele>
        <time>2025-09-08T11:41:50Z</time>
      </trkpt>
      <trkpt lat="48.04453" lon="7.17587">
        <ele>339.2</ele>
        <time>2025-09-08T11:41:51Z</time>
      </trkpt>
      <trkpt lat="48.04453" lon="7.17579">
        <ele>339.4</ele>
        <time>2025-09-08T11:41:52Z</time>
      </trkpt>
      <trkpt lat="48.04454" lon="7.1757">
        <ele>339.4</ele>
        <time>2025-09-08T11:41:53Z</time>
      </trkpt>
      <trkpt lat="48.04455" lon="7.17561">
        <ele>339.4</ele>
        <time>2025-09-08T11:41:54Z</time>
      </trkpt>
      <trkpt lat="48.04457" lon="7.17553">
        <ele>339.6</ele>
        <time>2025-09-08T11:41:55Z</time>
      </trkpt>
      <trkpt lat="48.04458" lon="7.17546">
        <ele>339.6</ele>
        <time>2025-09-08T11:41:56Z</time>
      </trkpt>
      <trkpt lat="48.0446" lon="7.17539">
        <ele>339.6</ele>
        <time>2025-09-08T11:41:57Z</time>
      </trkpt>
      <trkpt lat="48.04461" lon="7.17533">
        <ele>339.8</ele>
        <time>2025-09-08T11:41:58Z</time>
      </trkpt>
      <trkpt lat="48.04463" lon="7.17529">
        <ele>340.2</ele>
        <time>2025-09-08T11:41:59Z</time>
      </trkpt>
      <trkpt lat="48.04464" lon="7.17523">
        <ele>338.5</ele>
        <time>2025-09-08T11:42:37Z</time>
      </trkpt>
      <trkpt lat="48.04458" lon="7.17514">
        <ele>337.4</ele>
        <time>2025-09-08T11:42:38Z</time>
      </trkpt>
      <trkpt lat="48.04445" lon="7.17511">
        <ele>336.1</ele>
        <time>2025-09-08T11:42:39Z</time>
      </trkpt>
      <trkpt lat="48.04419" lon="7.17505">
        <ele>339.5</ele>
        <time>2025-09-08T11:42:40Z</time>
      </trkpt>
      <trkpt lat="48.04397" lon="7.175">
        <ele>340</ele>
        <time>2025-09-08T11:42:41Z</time>
      </trkpt>
      <trkpt lat="48.044" lon="7.17488">
        <ele>339.7</ele>
        <time>2025-09-08T11:42:42Z</time>
      </trkpt>
      <trkpt lat="48.04401" lon="7.17479">
        <ele>339.6</ele>
        <time>2025-09-08T11:42:43Z</time>
      </trkpt>
      <trkpt lat="48.04403" lon="7.17471">
        <ele>339.5</ele>
        <time>2025-09-08T11:42:44Z</time>
      </trkpt>
      <trkpt lat="48.04405" lon="7.1746">
        <ele>339.3</ele>
        <time>2025-09-08T11:42:45Z</time>
      </trkpt>
      <trkpt lat="48.04408" lon="7.17449">
        <ele>339.1</ele>
        <time>2025-09-08T11:42:46Z</time>
      </trkpt>
      <trkpt lat="48.04409" lon="7.17437">
        <ele>339.1</ele>
        <time>2025-09-08T11:42:47Z</time>
      </trkpt>
      <trkpt lat="48.04413" lon="7.17426">
        <ele>339.1</ele>
        <time>2025-09-08T11:42:48Z</time>
      </trkpt>
      <trkpt lat="48.04415" lon="7.17414">
        <ele>339.2</ele>
        <time>2025-09-08T11:42:49Z</time>
      </trkpt>
      <trkpt lat="48.04419" lon="7.17402">
        <ele>339.4</ele>
        <time>2025-09-08T11:42:50Z</time>
      </trkpt>
      <trkpt lat="48.04422" lon="7.17385">
        <ele>339.8</ele>
        <time>2025-09-08T11:42:51Z</time>
      </trkpt>
      <trkpt lat="48.04429" lon="7.17372">
        <ele>339.8</ele>
        <time>2025-09-08T11:42:52Z</time>
      </trkpt>
      <trkpt lat="48.04433" lon="7.17362">
        <ele>340</ele>
        <time>2025-09-08T11:42:53Z</time>
      </trkpt>
      <trkpt lat="48.04432" lon="7.17353">
        <ele>340</ele>
        <time>2025-09-08T11:42:54Z</time>
      </trkpt>
      <trkpt lat="48.04433" lon="7.17344">
        <ele>340</ele>
        <time>2025-09-08T11:42:55Z</time>
      </trkpt>
      <trkpt lat="48.04432" lon="7.17334">
        <ele>340</ele>
        <time>2025-09-08T11:42:56Z</time>
      </trkpt>
      <trkpt lat="48.04432" lon="7.17321">
        <ele>340</ele>
        <time>2025-09-08T11:42:57Z</time>
      </trkpt>
      <trkpt lat="48.04432" lon="7.17316">
        <ele>340</ele>
        <time>2025-09-08T11:42:58Z</time>
      </trkpt>
      <trkpt lat="48.04433" lon="7.17311">
        <ele>340</ele>
        <time>2025-09-08T11:42:59Z</time>
      </trkpt>
      <trkpt lat="48.04433" lon="7.17305">
        <ele>340</ele>
        <time>2025-09-08T11:43:00Z</time>
      </trkpt>
      <trkpt lat="48.04436" lon="7.17298">
        <ele>340</ele>
        <time>2025-09-08T11:43:01Z</time>
      </trkpt>
      <trkpt lat="48.04439" lon="7.17293">
        <ele>340</ele>
        <time>2025-09-08T11:43:02Z</time>
      </trkpt>
      <trkpt lat="48.04441" lon="7.17286">
        <ele>340</ele>
        <time>2025-09-08T11:43:03Z</time>
      </trkpt>
      <trkpt lat="48.04441" lon="7.1728">
        <ele>340</ele>
      </trkpt>
      <trkpt lat="48.04441" lon="7.17274">
        <ele>340</ele>
        <time>2025-09-08T11:43:04Z</time>
      </trkpt>
      <trkpt lat="48.04441" lon="7.17267">
        <ele>340</ele>
        <time>2025-09-08T11:43:05Z</time>
      </trkpt>
      <trkpt lat="48.04441" lon="7.1726">
        <ele>340</ele>
        <time>2025-09-08T11:43:06Z</time>
      </trkpt>
      <trkpt lat="48.04441" lon="7.1725">
        <ele>340</ele>
        <time>2025-09-08T11:43:07Z</time>
      </trkpt>
      <trkpt lat="48.0444" lon="7.17242">
        <ele>340</ele>
        <time>2025-09-08T11:43:08Z</time>
      </trkpt>
      <trkpt lat="48.0444" lon="7.17233">
        <ele>340.1</ele>
        <time>2025-09-08T11:43:09Z</time>
      </trkpt>
      <trkpt lat="48.04439" lon="7.17225">
        <ele>340.2</ele>
        <time>2025-09-08T11:43:10Z</time>
      </trkpt>
      <trkpt lat="48.04439" lon="7.17218">
        <ele>340.2</ele>
        <time>2025-09-08T11:43:11Z</time>
      </trkpt>
      <trkpt lat="48.04437" lon="7.17209">
        <ele>340.3</ele>
        <time>2025-09-08T11:43:12Z</time>
      </trkpt>
      <trkpt lat="48.04437" lon="7.17202">
        <ele>340.3</ele>
        <time>2025-09-08T11:43:13Z</time>
      </trkpt>
      <trkpt lat="48.04437" lon="7.17196">
        <ele>340.3</ele>
        <time>2025-09-08T11:43:14Z</time>
      </trkpt>
      <trkpt lat="48.04436" lon="7.17187">
        <ele>340.3</ele>
        <time>2025-09-08T11:43:15Z</time>
      </trkpt>
      <trkpt lat="48.04435" lon="7.17174">
        <ele>340.3</ele>
        <time>2025-09-08T11:43:16Z</time>
      </trkpt>
      <trkpt lat="48.04434" lon="7.17167">
        <ele>340.4</ele>
        <time>2025-09-08T11:43:17Z</time>
      </trkpt>
      <trkpt lat="48.04434" lon="7.17159">
        <ele>340.5</ele>
        <time>2025-09-08T11:43:18Z</time>
      </trkpt>
      <trkpt lat="48.04433" lon="7.17152">
        <ele>340.6</ele>
        <time>2025-09-08T11:43:19Z</time>
      </trkpt>
      <trkpt lat="48.04433" lon="7.17146">
        <ele>340.7</ele>
        <time>2025-09-08T11:43:20Z</time>
      </trkpt>
      <trkpt lat="48.04432" lon="7.17141">
        <ele>340.9</ele>
        <time>2025-09-08T11:43:21Z</time>
      </trkpt>
      <trkpt lat="48.04431" lon="7.17133">
        <ele>341</ele>
        <time>2025-09-08T11:43:22Z</time>
      </trkpt>
      <trkpt lat="48.0443" lon="7.17126">
        <ele>341</ele>
        <time>2025-09-08T11:43:23Z</time>
      </trkpt>
      <trkpt lat="48.0443" lon="7.17116">
        <ele>341.1</ele>
        <time>2025-09-08T11:43:24Z</time>
      </trkpt>
      <trkpt lat="48.04429" lon="7.17105">
        <ele>341.1</ele>
        <time>2025-09-08T11:43:25Z</time>
      </trkpt>
      <trkpt lat="48.04427" lon="7.17093">
        <ele>341.3</ele>
        <time>2025-09-08T11:43:26Z</time>
      </trkpt>
      <trkpt lat="48.04426" lon="7.17083">
        <ele>341.3</ele>
        <time>2025-09-08T11:43:27Z</time>
      </trkpt>
      <trkpt lat="48.04425" lon="7.17076">
        <ele>341.5</ele>
        <time>2025-09-08T11:43:28Z</time>
      </trkpt>
      <trkpt lat="48.04424" lon="7.17069">
        <ele>341.6</ele>
        <time>2025-09-08T11:43:29Z</time>
      </trkpt>
      <trkpt lat="48.04423" lon="7.17063">
        <ele>341.7</ele>
        <time>2025-09-08T11:43:30Z</time>
      </trkpt>
      <trkpt lat="48.04423" lon="7.17056">
        <ele>341.8</ele>
        <time>2025-09-08T11:43:31Z</time>
      </trkpt>
      <trkpt lat="48.04422" lon="7.17047">
        <ele>342.1</ele>
        <time>2025-09-08T11:43:32Z</time>
      </trkpt>
      <trkpt lat="48.0442" lon="7.17035">
        <ele>342.6</ele>
        <time>2025-09-08T11:43:33Z</time>
      </trkpt>
      <trkpt lat="48.0442" lon="7.17027">
        <ele>342.9</ele>
        <time>2025-09-08T11:43:34Z</time>
      </trkpt>
      <trkpt lat="48.04419" lon="7.17019">
        <ele>342.9</ele>
        <time>2025-09-08T11:43:35Z</time>
      </trkpt>
      <trkpt lat="48.04419" lon="7.1701">
        <ele>342.9</ele>
        <time>2025-09-08T11:43:36Z</time>
      </trkpt>
      <trkpt lat="48.04418" lon="7.17004">
        <ele>343</ele>
        <time>2025-09-08T11:43:37Z</time>
      </trkpt>
      <trkpt lat="48.04417" lon="7.16998">
        <ele>343</ele>
        <time>2025-09-08T11:43:38Z</time>
      </trkpt>
      <trkpt lat="48.04417" lon="7.16987">
        <ele>343</ele>
        <time>2025-09-08T11:43:39Z</time>
      </trkpt>
      <trkpt lat="48.04415" lon="7.16979">
        <ele>343.1</ele>
        <time>2025-09-08T11:43:40Z</time>
      </trkpt>
      <trkpt lat="48.04415" lon="7.16974">
        <ele>343.1</ele>
        <time>2025-09-08T11:43:41Z</time>
      </trkpt>
      <trkpt lat="48.04414" lon="7.16968">
        <ele>343.2</ele>
        <time>2025-09-08T11:43:42Z</time>
      </trkpt>
      <trkpt lat="48.04413" lon="7.1696">
        <ele>343.3</ele>
        <time>2025-09-08T11:43:43Z</time>
      </trkpt>
      <trkpt lat="48.04412" lon="7.16951">
        <ele>343.5</ele>
        <time>2025-09-08T11:43:44Z</time>
      </trkpt>
      <trkpt lat="48.04411" lon="7.16942">
        <ele>343.6</ele>
        <time>2025-09-08T11:43:45Z</time>
      </trkpt>
      <trkpt lat="48.04409" lon="7.16936">
        <ele>343.5</ele>
        <time>2025-09-08T11:43:46Z</time>
      </trkpt>
      <trkpt lat="48.04407" lon="7.16928">
        <ele>343.5</ele>
        <time>2025-09-08T11:43:47Z</time>
      </trkpt>
      <trkpt lat="48.04405" lon="7.16923">
        <ele>343.5</ele>
        <time>2025-09-08T11:43:48Z</time>
      </trkpt>
      <trkpt lat="48.04404" lon="7.16918">
        <ele>343.4</ele>
        <time>2025-09-08T11:43:49Z</time>
      </trkpt>
      <trkpt lat="48.04403" lon="7.16912">
        <ele>343.4</ele>
        <time>2025-09-08T11:43:50Z</time>
      </trkpt>
      <trkpt lat="48.04403" lon="7.16903">
        <ele>343.3</ele>
        <time>2025-09-08T11:43:51Z</time>
      </trkpt>
      <trkpt lat="48.04403" lon="7.16896">
        <ele>343.2</ele>
        <time>2025-09-08T11:43:52Z</time>
      </trkpt>
      <trkpt lat="48.04403" lon="7.16884">
        <ele>343</ele>
        <time>2025-09-08T11:43:53Z</time>
      </trkpt>
      <trkpt lat="48.04404" lon="7.16876">
        <ele>342.9</ele>
        <time>2025-09-08T11:43:54Z</time>
      </trkpt>
      <trkpt lat="48.04404" lon="7.16867">
        <ele>342.9</ele>
        <time>2025-09-08T11:43:55Z</time>
      </trkpt>
      <trkpt lat="48.04403" lon="7.16859">
        <ele>343</ele>
        <time>2025-09-08T11:43:56Z</time>
      </trkpt>
      <trkpt lat="48.04403" lon="7.16849">
        <ele>343.2</ele>
        <time>2025-09-08T11:43:57Z</time>
      </trkpt>
      <trkpt lat="48.04404" lon="7.16836">
        <ele>343.3</ele>
        <time>2025-09-08T11:43:58Z</time>
      </trkpt>
      <trkpt lat="48.04405" lon="7.16823">
        <ele>343.2</ele>
        <time>2025-09-08T11:43:59Z</time>
      </trkpt>
      <trkpt lat="48.04406" lon="7.16814">
        <ele>343.2</ele>
        <time>2025-09-08T11:44:00Z</time>
      </trkpt>
      <trkpt lat="48.04407" lon="7.16802">
        <ele>343.1</ele>
        <time>2025-09-08T11:44:01Z</time>
      </trkpt>
      <trkpt lat="48.04408" lon="7.16788">
        <ele>343.4</ele>
        <time>2025-09-08T11:44:02Z</time>
      </trkpt>
      <trkpt lat="48.04409" lon="7.16779">
        <ele>343.5</ele>
        <time>2025-09-08T11:44:03Z</time>
      </trkpt>
      <trkpt lat="48.0441" lon="7.16769">
        <ele>344.1</ele>
        <time>2025-09-08T11:44:04Z</time>
      </trkpt>
      <trkpt lat="48.04411" lon="7.16755">
        <ele>345</ele>
        <time>2025-09-08T11:44:05Z</time>
      </trkpt>
      <trkpt lat="48.04411" lon="7.16748">
        <ele>345.4</ele>
        <time>2025-09-08T11:44:06Z</time>
      </trkpt>
      <trkpt lat="48.04413" lon="7.16737">
        <ele>345.6</ele>
        <time>2025-09-08T11:44:07Z</time>
      </trkpt>
      <trkpt lat="48.04413" lon="7.16725">
        <ele>345.9</ele>
        <time>2025-09-08T11:44:08Z</time>
      </trkpt>
      <trkpt lat="48.04414" lon="7.16719">
        <ele>346.1</ele>
        <time>2025-09-08T11:44:09Z</time>
      </trkpt>
      <trkpt lat="48.04415" lon="7.16709">
        <ele>346.5</ele>
        <time>2025-09-08T11:44:10Z</time>
      </trkpt>
      <trkpt lat="48.04417" lon="7.16699">
        <ele>346.9</ele>
        <time>2025-09-08T11:44:11Z</time>
      </trkpt>
      <trkpt lat="48.04418" lon="7.16689">
        <ele>346.9</ele>
        <time>2025-09-08T11:44:12Z</time>
      </trkpt>
      <trkpt lat="48.04419" lon="7.16681">
        <ele>346.8</ele>
        <time>2025-09-08T11:44:13Z</time>
      </trkpt>
      <trkpt lat="48.0442" lon="7.16671">
        <ele>346.7</ele>
        <time>2025-09-08T11:44:14Z</time>
      </trkpt>
      <trkpt lat="48.0442" lon="7.16661">
        <ele>346.6</ele>
        <time>2025-09-08T11:44:15Z</time>
      </trkpt>
      <trkpt lat="48.04421" lon="7.16652">
        <ele>346.5</ele>
        <time>2025-09-08T11:44:16Z</time>
      </trkpt>
      <trkpt lat="48.04422" lon="7.16643">
        <ele>346.5</ele>
        <time>2025-09-08T11:44:17Z</time>
      </trkpt>
      <trkpt lat="48.04423" lon="7.16632">
        <ele>346.4</ele>
        <time>2025-09-08T11:44:18Z</time>
      </trkpt>
      <trkpt lat="48.04425" lon="7.16619">
        <ele>346.6</ele>
        <time>2025-09-08T11:44:19Z</time>
      </trkpt>
      <trkpt lat="48.04426" lon="7.16606">
        <ele>346.9</ele>
        <time>2025-09-08T11:44:20Z</time>
      </trkpt>
      <trkpt lat="48.04427" lon="7.16597">
        <ele>347</ele>
        <time>2025-09-08T11:44:21Z</time>
      </trkpt>
      <trkpt lat="48.04428" lon="7.16584">
        <ele>347.4</ele>
        <time>2025-09-08T11:44:22Z</time>
      </trkpt>
      <trkpt lat="48.04429" lon="7.16574">
        <ele>347.3</ele>
        <time>2025-09-08T11:44:23Z</time>
      </trkpt>
      <trkpt lat="48.0443" lon="7.16567">
        <ele>347.1</ele>
        <time>2025-09-08T11:44:24Z</time>
      </trkpt>
      <trkpt lat="48.04433" lon="7.1656">
        <ele>346.7</ele>
        <time>2025-09-08T11:44:25Z</time>
      </trkpt>
      <trkpt lat="48.04437" lon="7.16553">
        <ele>346.2</ele>
        <time>2025-09-08T11:44:26Z</time>
      </trkpt>
      <trkpt lat="48.0444" lon="7.16546">
        <ele>346.2</ele>
        <time>2025-09-08T11:44:27Z</time>
      </trkpt>
      <trkpt lat="48.04444" lon="7.16541">
        <ele>346.1</ele>
        <time>2025-09-08T11:44:28Z</time>
      </trkpt>
      <trkpt lat="48.04447" lon="7.16531">
        <ele>346.7</ele>
        <time>2025-09-08T11:44:29Z</time>
      </trkpt>
      <trkpt lat="48.04448" lon="7.16527">
        <ele>346.9</ele>
        <time>2025-09-08T11:44:30Z</time>
      </trkpt>
      <trkpt lat="48.04451" lon="7.16519">
        <ele>347.2</ele>
        <time>2025-09-08T11:44:31Z</time>
      </trkpt>
      <trkpt lat="48.04453" lon="7.16512">
        <ele>347.3</ele>
        <time>2025-09-08T11:44:32Z</time>
      </trkpt>
      <trkpt lat="48.04454" lon="7.16506">
        <ele>347.4</ele>
        <time>2025-09-08T11:44:33Z</time>
      </trkpt>
      <trkpt lat="48.04455" lon="7.165">
        <ele>347.4</ele>
        <time>2025-09-08T11:44:34Z</time>
      </trkpt>
      <trkpt lat="48.04457" lon="7.16493">
        <ele>347.1</ele>
        <time>2025-09-08T11:44:35Z</time>
      </trkpt>
      <trkpt lat="48.04458" lon="7.16486">
        <ele>346.8</ele>
        <time>2025-09-08T11:44:36Z</time>
      </trkpt>
      <trkpt lat="48.0446" lon="7.16477">
        <ele>346.4</ele>
        <time>2025-09-08T11:44:37Z</time>
      </trkpt>
      <trkpt lat="48.04461" lon="7.1647">
        <ele>346.3</ele>
        <time>2025-09-08T11:44:38Z</time>
      </trkpt>
      <trkpt lat="48.04463" lon="7.16461">
        <ele>346.4</ele>
        <time>2025-09-08T11:44:39Z</time>
      </trkpt>
      <trkpt lat="48.04463" lon="7.16455">
        <ele>346.6</ele>
        <time>2025-09-08T11:44:40Z</time>
      </trkpt>
      <trkpt lat="48.04464" lon="7.16447">
        <ele>346.8</ele>
        <time>2025-09-08T11:44:41Z</time>
      </trkpt>
      <trkpt lat="48.04466" lon="7.16437">
        <ele>346.7</ele>
        <time>2025-09-08T11:44:42Z</time>
      </trkpt>
      <trkpt lat="48.04466" lon="7.16431">
        <ele>346.6</ele>
        <time>2025-09-08T11:44:43Z</time>
      </trkpt>
      <trkpt lat="48.04468" lon="7.16424">
        <ele>346.5</ele>
        <time>2025-09-08T11:44:44Z</time>
      </trkpt>
      <trkpt lat="48.04468" lon="7.16418">
        <ele>346.5</ele>
        <time>2025-09-08T11:44:45Z</time>
      </trkpt>
      <trkpt lat="48.04468" lon="7.16411">
        <ele>346.6</ele>
        <time>2025-09-08T11:44:46Z</time>
      </trkpt>
      <trkpt lat="48.04469" lon="7.16403">
        <ele>346.8</ele>
        <time>2025-09-08T11:44:47Z</time>
      </trkpt>
      <trkpt lat="48.04469" lon="7.16396">
        <ele>347</ele>
        <time>2025-09-08T11:44:48Z</time>
      </trkpt>
      <trkpt lat="48.04469" lon="7.16389">
        <ele>347.2</ele>
        <time>2025-09-08T11:44:49Z</time>
      </trkpt>
      <trkpt lat="48.04469" lon="7.16381">
        <ele>347</ele>
        <time>2025-09-08T11:44:50Z</time>
      </trkpt>
      <trkpt lat="48.04467" lon="7.16375">
        <ele>347</ele>
        <time>2025-09-08T11:44:51Z</time>
      </trkpt>
      <trkpt lat="48.04466" lon="7.16367">
        <ele>347</ele>
        <time>2025-09-08T11:44:52Z</time>
      </trkpt>
      <trkpt lat="48.04465" lon="7.16362">
        <ele>347.1</ele>
        <time>2025-09-08T11:44:53Z</time>
      </trkpt>
      <trkpt lat="48.04463" lon="7.16353">
        <ele>347.3</ele>
        <time>2025-09-08T11:44:54Z</time>
      </trkpt>
      <trkpt lat="48.04462" lon="7.16344">
        <ele>347.5</ele>
        <time>2025-09-08T11:44:55Z</time>
      </trkpt>
      <trkpt lat="48.0446" lon="7.16336">
        <ele>347.8</ele>
        <time>2025-09-08T11:44:56Z</time>
      </trkpt>
      <trkpt lat="48.04458" lon="7.16329">
        <ele>348.1</ele>
        <time>2025-09-08T11:44:57Z</time>
      </trkpt>
      <trkpt lat="48.04456" lon="7.16319">
        <ele>348.4</ele>
        <time>2025-09-08T11:44:58Z</time>
      </trkpt>
      <trkpt lat="48.04454" lon="7.1631">
        <ele>348.7</ele>
        <time>2025-09-08T11:44:59Z</time>
      </trkpt>
      <trkpt lat="48.04451" lon="7.16302">
        <ele>349</ele>
        <time>2025-09-08T11:45:00Z</time>
      </trkpt>
      <trkpt lat="48.04449" lon="7.16295">
        <ele>349.1</ele>
        <time>2025-09-08T11:45:01Z</time>
      </trkpt>
      <trkpt lat="48.04446" lon="7.16279">
        <ele>349</ele>
        <time>2025-09-08T11:45:02Z</time>
      </trkpt>
      <trkpt lat="48.04444" lon="7.1627">
        <ele>348.8</ele>
        <time>2025-09-08T11:45:03Z</time>
      </trkpt>
      <trkpt lat="48.04442" lon="7.16261">
        <ele>348.5</ele>
        <time>2025-09-08T11:45:04Z</time>
      </trkpt>
      <trkpt lat="48.0444" lon="7.16251">
        <ele>348.3</ele>
        <time>2025-09-08T11:45:05Z</time>
      </trkpt>
      <trkpt lat="48.04438" lon="7.16241">
        <ele>348.2</ele>
        <time>2025-09-08T11:45:06Z</time>
      </trkpt>
      <trkpt lat="48.04437" lon="7.16234">
        <ele>348.1</ele>
        <time>2025-09-08T11:45:07Z</time>
      </trkpt>
      <trkpt lat="48.04435" lon="7.16225">
        <ele>348.1</ele>
        <time>2025-09-08T11:45:08Z</time>
      </trkpt>
      <trkpt lat="48.04434" lon="7.16217">
        <ele>348.2</ele>
        <time>2025-09-08T11:45:09Z</time>
      </trkpt>
      <trkpt lat="48.04432" lon="7.16211">
        <ele>348.5</ele>
        <time>2025-09-08T11:45:10Z</time>
      </trkpt>
      <trkpt lat="48.0443" lon="7.16203">
        <ele>348.9</ele>
        <time>2025-09-08T11:45:11Z</time>
      </trkpt>
      <trkpt lat="48.04428" lon="7.16195">
        <ele>349.4</ele>
        <time>2025-09-08T11:45:12Z</time>
      </trkpt>
      <trkpt lat="48.04426" lon="7.16186">
        <ele>349.8</ele>
        <time>2025-09-08T11:45:13Z</time>
      </trkpt>
      <trkpt lat="48.04424" lon="7.16179">
        <ele>350.1</ele>
        <time>2025-09-08T11:45:14Z</time>
      </trkpt>
      <trkpt lat="48.04424" lon="7.16172">
        <ele>350.2</ele>
        <time>2025-09-08T11:45:15Z</time>
      </trkpt>
      <trkpt lat="48.04423" lon="7.16165">
        <ele>350.3</ele>
        <time>2025-09-08T11:45:16Z</time>
      </trkpt>
      <trkpt lat="48.04424" lon="7.16155">
        <ele>350.2</ele>
        <time>2025-09-08T11:45:17Z</time>
      </trkpt>
      <trkpt lat="48.04424" lon="7.16147">
        <ele>350.2</ele>
        <time>2025-09-08T11:45:18Z</time>
      </trkpt>
      <trkpt lat="48.04426" lon="7.16141">
        <ele>350.1</ele>
        <time>2025-09-08T11:45:19Z</time>
      </trkpt>
      <trkpt lat="48.04426" lon="7.16135">
        <ele>350</ele>
        <time>2025-09-08T11:45:20Z</time>
      </trkpt>
      <trkpt lat="48.04427" lon="7.16126">
        <ele>349.9</ele>
        <time>2025-09-08T11:45:21Z</time>
      </trkpt>
      <trkpt lat="48.04427" lon="7.16119">
        <ele>349.9</ele>
        <time>2025-09-08T11:45:22Z</time>
      </trkpt>
      <trkpt lat="48.04428" lon="7.16109">
        <ele>349.8</ele>
        <time>2025-09-08T11:45:23Z</time>
      </trkpt>
      <trkpt lat="48.04429" lon="7.16101">
        <ele>349.8</ele>
        <time>2025-09-08T11:45:24Z</time>
      </trkpt>
      <trkpt lat="48.0443" lon="7.16092">
        <ele>349.9</ele>
        <time>2025-09-08T11:45:25Z</time>
      </trkpt>
      <trkpt lat="48.04433" lon="7.16083">
        <ele>349.9</ele>
        <time>2025-09-08T11:45:26Z</time>
      </trkpt>
      <trkpt lat="48.04435" lon="7.16076">
        <ele>350.1</ele>
        <time>2025-09-08T11:45:27Z</time>
      </trkpt>
      <trkpt lat="48.04437" lon="7.1607">
        <ele>350.4</ele>
        <time>2025-09-08T11:45:28Z</time>
      </trkpt>
      <trkpt lat="48.04439" lon="7.16063">
        <ele>350.7</ele>
        <time>2025-09-08T11:45:29Z</time>
      </trkpt>
      <trkpt lat="48.04442" lon="7.16053">
        <ele>351.2</ele>
        <time>2025-09-08T11:45:30Z</time>
      </trkpt>
      <trkpt lat="48.04444" lon="7.16045">
        <ele>351.4</ele>
        <time>2025-09-08T11:45:31Z</time>
      </trkpt>
      <trkpt lat="48.04446" lon="7.16041">
        <ele>351.5</ele>
        <time>2025-09-08T11:45:32Z</time>
      </trkpt>
      <trkpt lat="48.04448" lon="7.16035">
        <ele>351.5</ele>
        <time>2025-09-08T11:45:33Z</time>
      </trkpt>
      <trkpt lat="48.04449" lon="7.16028">
        <ele>351.6</ele>
        <time>2025-09-08T11:45:34Z</time>
      </trkpt>
      <trkpt lat="48.04451" lon="7.16024">
        <ele>351.5</ele>
        <time>2025-09-08T11:45:35Z</time>
      </trkpt>
      <trkpt lat="48.04452" lon="7.16019">
        <ele>351.5</ele>
        <time>2025-09-08T11:45:36Z</time>
      </trkpt>
      <trkpt lat="48.04454" lon="7.16013">
        <ele>351.5</ele>
        <time>2025-09-08T11:45:37Z</time>
      </trkpt>
      <trkpt lat="48.04454" lon="7.16008">
        <ele>351.6</ele>
        <time>2025-09-08T11:45:38Z</time>
      </trkpt>
      <trkpt lat="48.04454" lon="7.16003">
        <ele>351.6</ele>
        <time>2025-09-08T11:45:39Z</time>
      </trkpt>
      <trkpt lat="48.04454" lon="7.15998">
        <ele>351.7</ele>
        <time>2025-09-08T11:45:40Z</time>
      </trkpt>
      <trkpt lat="48.04454" lon="7.15993">
        <ele>352</ele>
        <time>2025-09-08T11:45:41Z</time>
      </trkpt>
      <trkpt lat="48.04454" lon="7.15986">
        <ele>352.3</ele>
        <time>2025-09-08T11:45:42Z</time>
      </trkpt>
      <trkpt lat="48.04454" lon="7.15978">
        <ele>352.7</ele>
        <time>2025-09-08T11:45:43Z</time>
      </trkpt>
      <trkpt lat="48.04453" lon="7.15973">
        <ele>353.1</ele>
        <time>2025-09-08T11:45:44Z</time>
      </trkpt>
      <trkpt lat="48.04452" lon="7.15968">
        <ele>353.1</ele>
        <time>2025-09-08T11:45:45Z</time>
      </trkpt>
      <trkpt lat="48.04451" lon="7.15962">
        <ele>353</ele>
        <time>2025-09-08T11:45:46Z</time>
      </trkpt>
      <trkpt lat="48.04449" lon="7.15955">
        <ele>353</ele>
        <time>2025-09-08T11:45:47Z</time>
      </trkpt>
      <trkpt lat="48.04448" lon="7.15952">
        <ele>352.9</ele>
        <time>2025-09-08T11:45:48Z</time>
      </trkpt>
      <trkpt lat="48.04447" lon="7.15946">
        <ele>352.9</ele>
        <time>2025-09-08T11:45:49Z</time>
      </trkpt>
      <trkpt lat="48.04446" lon="7.15941">
        <ele>352.9</ele>
        <time>2025-09-08T11:45:50Z</time>
      </trkpt>
      <trkpt lat="48.04444" lon="7.15934">
        <ele>353</ele>
        <time>2025-09-08T11:45:51Z</time>
      </trkpt>
      <trkpt lat="48.04443" lon="7.15929">
        <ele>353</ele>
        <time>2025-09-08T11:45:52Z</time>
      </trkpt>
      <trkpt lat="48.04441" lon="7.1592">
        <ele>353</ele>
        <time>2025-09-08T11:45:53Z</time>
      </trkpt>
      <trkpt lat="48.04438" lon="7.15909">
        <ele>352.6</ele>
        <time>2025-09-08T11:45:54Z</time>
      </trkpt>
      <trkpt lat="48.04436" lon="7.15903">
        <ele>352.3</ele>
        <time>2025-09-08T11:45:55Z</time>
      </trkpt>
      <trkpt lat="48.04434" lon="7.15897">
        <ele>352.1</ele>
        <time>2025-09-08T11:45:56Z</time>
      </trkpt>
      <trkpt lat="48.04431" lon="7.15889">
        <ele>352</ele>
        <time>2025-09-08T11:45:57Z</time>
      </trkpt>
      <trkpt lat="48.04429" lon="7.15881">
        <ele>352.4</ele>
        <time>2025-09-08T11:45:58Z</time>
      </trkpt>
      <trkpt lat="48.04426" lon="7.15873">
        <ele>352.9</ele>
        <time>2025-09-08T11:45:59Z</time>
      </trkpt>
      <trkpt lat="48.04423" lon="7.15866">
        <ele>353.4</ele>
        <time>2025-09-08T11:46:00Z</time>
      </trkpt>
      <trkpt lat="48.0442" lon="7.1586">
        <ele>353.7</ele>
        <time>2025-09-08T11:46:01Z</time>
      </trkpt>
      <trkpt lat="48.04417" lon="7.15854">
        <ele>353.5</ele>
        <time>2025-09-08T11:46:02Z</time>
      </trkpt>
      <trkpt lat="48.04413" lon="7.15848">
        <ele>353.5</ele>
        <time>2025-09-08T11:46:03Z</time>
      </trkpt>
      <trkpt lat="48.04408" lon="7.15842">
        <ele>353.8</ele>
        <time>2025-09-08T11:46:04Z</time>
      </trkpt>
      <trkpt lat="48.04403" lon="7.15834">
        <ele>354.6</ele>
        <time>2025-09-08T11:46:05Z</time>
      </trkpt>
      <trkpt lat="48.04397" lon="7.15825">
        <ele>354.9</ele>
        <time>2025-09-08T11:46:06Z</time>
      </trkpt>
      <trkpt lat="48.04393" lon="7.1582">
        <ele>355</ele>
        <time>2025-09-08T11:46:07Z</time>
      </trkpt>
      <trkpt lat="48.04388" lon="7.15813">
        <ele>354.8</ele>
        <time>2025-09-08T11:46:08Z</time>
      </trkpt>
      <trkpt lat="48.04383" lon="7.15808">
        <ele>354.4</ele>
        <time>2025-09-08T11:46:09Z</time>
      </trkpt>
      <trkpt lat="48.04379" lon="7.15801">
        <ele>354.3</ele>
        <time>2025-09-08T11:46:10Z</time>
      </trkpt>
      <trkpt lat="48.04374" lon="7.15794">
        <ele>354.6</ele>
        <time>2025-09-08T11:46:11Z</time>
      </trkpt>
      <trkpt lat="48.04371" lon="7.15786">
        <ele>355.1</ele>
        <time>2025-09-08T11:46:12Z</time>
      </trkpt>
      <trkpt lat="48.04368" lon="7.1578">
        <ele>355.8</ele>
        <time>2025-09-08T11:46:13Z</time>
      </trkpt>
      <trkpt lat="48.04365" lon="7.15772">
        <ele>356</ele>
        <time>2025-09-08T11:46:14Z</time>
      </trkpt>
      <trkpt lat="48.04363" lon="7.15766">
        <ele>356</ele>
        <time>2025-09-08T11:46:15Z</time>
      </trkpt>
      <trkpt lat="48.04359" lon="7.15756">
        <ele>355.5</ele>
        <time>2025-09-08T11:46:16Z</time>
      </trkpt>
      <trkpt lat="48.04356" lon="7.15748">
        <ele>355.3</ele>
        <time>2025-09-08T11:46:17Z</time>
      </trkpt>
      <trkpt lat="48.04353" lon="7.15738">
        <ele>355.5</ele>
        <time>2025-09-08T11:46:18Z</time>
      </trkpt>
      <trkpt lat="48.04349" lon="7.15728">
        <ele>356.2</ele>
        <time>2025-09-08T11:46:19Z</time>
      </trkpt>
      <trkpt lat="48.04344" lon="7.15717">
        <ele>357.1</ele>
        <time>2025-09-08T11:46:20Z</time>
      </trkpt>
      <trkpt lat="48.04341" lon="7.15707">
        <ele>357.8</ele>
        <time>2025-09-08T11:46:21Z</time>
      </trkpt>
      <trkpt lat="48.04336" lon="7.15691">
        <ele>358.3</ele>
        <time>2025-09-08T11:46:22Z</time>
      </trkpt>
      <trkpt lat="48.04333" lon="7.1568">
        <ele>357.4</ele>
        <time>2025-09-08T11:46:23Z</time>
      </trkpt>
      <trkpt lat="48.0433" lon="7.15667">
        <ele>356</ele>
        <time>2025-09-08T11:46:24Z</time>
      </trkpt>
      <trkpt lat="48.04326" lon="7.15652">
        <ele>355.7</ele>
        <time>2025-09-08T11:46:25Z</time>
      </trkpt>
      <trkpt lat="48.04323" lon="7.15643">
        <ele>355.8</ele>
        <time>2025-09-08T11:46:26Z</time>
      </trkpt>
      <trkpt lat="48.04333" lon="7.15636">
        <ele>355</ele>
        <time>2025-09-08T11:46:27Z</time>
      </trkpt>
      <trkpt lat="48.04341" lon="7.15631">
        <ele>355.8</ele>
        <time>2025-09-08T11:46:28Z</time>
      </trkpt>
      <trkpt lat="48.04342" lon="7.15623">
        <ele>356.3</ele>
        <time>2025-09-08T11:46:29Z</time>
      </trkpt>
      <trkpt lat="48.04342" lon="7.15613">
        <ele>356.7</ele>
        <time>2025-09-08T11:46:30Z</time>
      </trkpt>
      <trkpt lat="48.04344" lon="7.15601">
        <ele>357.8</ele>
        <time>2025-09-08T11:46:31Z</time>
      </trkpt>
      <trkpt lat="48.04347" lon="7.15591">
        <ele>358.8</ele>
        <time>2025-09-08T11:46:32Z</time>
      </trkpt>
      <trkpt lat="48.04346" lon="7.15583">
        <ele>358.8</ele>
        <time>2025-09-08T11:46:33Z</time>
      </trkpt>
      <trkpt lat="48.04346" lon="7.15576">
        <ele>358.8</ele>
        <time>2025-09-08T11:46:34Z</time>
      </trkpt>
      <trkpt lat="48.04345" lon="7.15568">
        <ele>359</ele>
        <time>2025-09-08T11:46:35Z</time>
      </trkpt>
      <trkpt lat="48.04345" lon="7.1556">
        <ele>359</ele>
        <time>2025-09-08T11:46:36Z</time>
      </trkpt>
      <trkpt lat="48.04344" lon="7.15552">
        <ele>359.2</ele>
        <time>2025-09-08T11:46:37Z</time>
      </trkpt>
      <trkpt lat="48.04344" lon="7.15544">
        <ele>359.2</ele>
        <time>2025-09-08T11:46:38Z</time>
      </trkpt>
      <trkpt lat="48.04343" lon="7.15536">
        <ele>359.2</ele>
        <time>2025-09-08T11:46:39Z</time>
      </trkpt>
      <trkpt lat="48.04343" lon="7.15527">
        <ele>359.2</ele>
        <time>2025-09-08T11:46:40Z</time>
      </trkpt>
      <trkpt lat="48.04342" lon="7.15519">
        <ele>359.2</ele>
        <time>2025-09-08T11:46:41Z</time>
      </trkpt>
      <trkpt lat="48.04341" lon="7.15511">
        <ele>359.4</ele>
        <time>2025-09-08T11:46:42Z</time>
      </trkpt>
      <trkpt lat="48.0434" lon="7.15502">
        <ele>359.4</ele>
        <time>2025-09-08T11:46:43Z</time>
      </trkpt>
      <trkpt lat="48.04339" lon="7.15493">
        <ele>359.4</ele>
        <time>2025-09-08T11:46:44Z</time>
      </trkpt>
      <trkpt lat="48.04338" lon="7.15485">
        <ele>359.4</ele>
        <time>2025-09-08T11:46:45Z</time>
      </trkpt>
      <trkpt lat="48.04337" lon="7.15477">
        <ele>359.6</ele>
        <time>2025-09-08T11:46:46Z</time>
      </trkpt>
      <trkpt lat="48.04335" lon="7.15469">
        <ele>359.6</ele>
        <time>2025-09-08T11:46:47Z</time>
      </trkpt>
      <trkpt lat="48.04333" lon="7.15462">
        <ele>359.8</ele>
        <time>2025-09-08T11:46:48Z</time>
      </trkpt>
      <trkpt lat="48.04332" lon="7.15454">
        <ele>359.8</ele>
        <time>2025-09-08T11:46:49Z</time>
      </trkpt>
      <trkpt lat="48.0433" lon="7.15446">
        <ele>360</ele>
        <time>2025-09-08T11:46:50Z</time>
      </trkpt>
      <trkpt lat="48.04328" lon="7.15437">
        <ele>360</ele>
        <time>2025-09-08T11:46:51Z</time>
      </trkpt>
      <trkpt lat="48.04327" lon="7.15429">
        <ele>360.2</ele>
        <time>2025-09-08T11:46:52Z</time>
      </trkpt>
      <trkpt lat="48.04325" lon="7.15421">
        <ele>360.2</ele>
        <time>2025-09-08T11:46:53Z</time>
      </trkpt>
      <trkpt lat="48.04324" lon="7.15412">
        <ele>360.2</ele>
        <time>2025-09-08T11:46:54Z</time>
      </trkpt>
      <trkpt lat="48.04323" lon="7.15404">
        <ele>360.2</ele>
        <time>2025-09-08T11:46:55Z</time>
      </trkpt>
      <trkpt lat="48.04322" lon="7.15396">
        <ele>360.4</ele>
        <time>2025-09-08T11:46:56Z</time>
      </trkpt>
      <trkpt lat="48.04321" lon="7.15388">
        <ele>360.4</ele>
        <time>2025-09-08T11:46:57Z</time>
      </trkpt>
      <trkpt lat="48.0432" lon="7.1538">
        <ele>360.6</ele>
        <time>2025-09-08T11:46:58Z</time>
      </trkpt>
      <trkpt lat="48.0432" lon="7.15373">
        <ele>360.8</ele>
        <time>2025-09-08T11:46:59Z</time>
      </trkpt>
      <trkpt lat="48.0432" lon="7.15365">
        <ele>361</ele>
        <time>2025-09-08T11:47:00Z</time>
      </trkpt>
      <trkpt lat="48.0432" lon="7.15357">
        <ele>361.2</ele>
        <time>2025-09-08T11:47:01Z</time>
      </trkpt>
      <trkpt lat="48.0432" lon="7.1535">
        <ele>361.6</ele>
        <time>2025-09-08T11:47:02Z</time>
      </trkpt>
      <trkpt lat="48.0432" lon="7.15343">
        <ele>362</ele>
        <time>2025-09-08T11:47:03Z</time>
      </trkpt>
      <trkpt lat="48.04319" lon="7.15336">
        <ele>362.2</ele>
        <time>2025-09-08T11:47:04Z</time>
      </trkpt>
      <trkpt lat="48.04316" lon="7.15331">
        <ele>362.6</ele>
        <time>2025-09-08T11:47:05Z</time>
      </trkpt>
      <trkpt lat="48.04312" lon="7.15327">
        <ele>362.8</ele>
        <time>2025-09-08T11:47:06Z</time>
      </trkpt>
      <trkpt lat="48.04308" lon="7.15321">
        <ele>362.8</ele>
        <time>2025-09-08T11:47:07Z</time>
      </trkpt>
      <trkpt lat="48.04305" lon="7.15314">
        <ele>363</ele>
        <time>2025-09-08T11:47:08Z</time>
      </trkpt>
      <trkpt lat="48.04303" lon="7.15306">
        <ele>363</ele>
        <time>2025-09-08T11:47:09Z</time>
      </trkpt>
      <trkpt lat="48.04301" lon="7.15298">
        <ele>362.8</ele>
        <time>2025-09-08T11:47:10Z</time>
      </trkpt>
      <trkpt lat="48.04299" lon="7.1529">
        <ele>362.6</ele>
        <time>2025-09-08T11:47:11Z</time>
      </trkpt>
      <trkpt lat="48.04298" lon="7.15282">
        <ele>362.4</ele>
        <time>2025-09-08T11:47:12Z</time>
      </trkpt>
      <trkpt lat="48.04296" lon="7.15274">
        <ele>362.4</ele>
        <time>2025-09-08T11:47:13Z</time>
      </trkpt>
      <trkpt lat="48.04294" lon="7.15265">
        <ele>362.4</ele>
        <time>2025-09-08T11:47:14Z</time>
      </trkpt>
      <trkpt lat="48.04292" lon="7.15257">
        <ele>362.4</ele>
        <time>2025-09-08T11:47:15Z</time>
      </trkpt>
      <trkpt lat="48.0429" lon="7.15249">
        <ele>362.4</ele>
        <time>2025-09-08T11:47:16Z</time>
      </trkpt>
      <trkpt lat="48.04288" lon="7.15241">
        <ele>362.4</ele>
        <time>2025-09-08T11:47:17Z</time>
      </trkpt>
      <trkpt lat="48.04287" lon="7.15233">
        <ele>362.4</ele>
        <time>2025-09-08T11:47:18Z</time>
      </trkpt>
      <trkpt lat="48.04285" lon="7.15225">
        <ele>362.4</ele>
        <time>2025-09-08T11:47:19Z</time>
      </trkpt>
      <trkpt lat="48.04283" lon="7.15216">
        <ele>362.4</ele>
        <time>2025-09-08T11:47:20Z</time>
      </trkpt>
      <trkpt lat="48.04282" lon="7.15208">
        <ele>362.4</ele>
        <time>2025-09-08T11:47:21Z</time>
      </trkpt>
      <trkpt lat="48.0428" lon="7.152">
        <ele>362.4</ele>
        <time>2025-09-08T11:47:22Z</time>
      </trkpt>
      <trkpt lat="48.04279" lon="7.15192">
        <ele>362.4</ele>
        <time>2025-09-08T11:47:23Z</time>
      </trkpt>
      <trkpt lat="48.04278" lon="7.15184">
        <ele>362.4</ele>
        <time>2025-09-08T11:47:24Z</time>
      </trkpt>
      <trkpt lat="48.04277" lon="7.15175">
        <ele>362.4</ele>
        <time>2025-09-08T11:47:25Z</time>
      </trkpt>
      <trkpt lat="48.04276" lon="7.15167">
        <ele>362.4</ele>
        <time>2025-09-08T11:47:26Z</time>
      </trkpt>
      <trkpt lat="48.04276" lon="7.15159">
        <ele>362.6</ele>
        <time>2025-09-08T11:47:27Z</time>
      </trkpt>
      <trkpt lat="48.04276" lon="7.15151">
        <ele>362.6</ele>
        <time>2025-09-08T11:47:28Z</time>
      </trkpt>
      <trkpt lat="48.04276" lon="7.15142">
        <ele>362.8</ele>
        <time>2025-09-08T11:47:29Z</time>
      </trkpt>
      <trkpt lat="48.04276" lon="7.15132">
        <ele>362.8</ele>
        <time>2025-09-08T11:47:30Z</time>
      </trkpt>
      <trkpt lat="48.04276" lon="7.15124">
        <ele>362.8</ele>
        <time>2025-09-08T11:47:31Z</time>
      </trkpt>
      <trkpt lat="48.04276" lon="7.15115">
        <ele>362.8</ele>
        <time>2025-09-08T11:47:32Z</time>
      </trkpt>
      <trkpt lat="48.04276" lon="7.15106">
        <ele>362.8</ele>
        <time>2025-09-08T11:47:33Z</time>
      </trkpt>
      <trkpt lat="48.04276" lon="7.15097">
        <ele>363</ele>
        <time>2025-09-08T11:47:34Z</time>
      </trkpt>
      <trkpt lat="48.04275" lon="7.15089">
        <ele>363</ele>
        <time>2025-09-08T11:47:35Z</time>
      </trkpt>
      <trkpt lat="48.04275" lon="7.1508">
        <ele>363.2</ele>
        <time>2025-09-08T11:47:36Z</time>
      </trkpt>
      <trkpt lat="48.04274" lon="7.15071">
        <ele>363.2</ele>
        <time>2025-09-08T11:47:37Z</time>
      </trkpt>
      <trkpt lat="48.04273" lon="7.15063">
        <ele>363.4</ele>
        <time>2025-09-08T11:47:38Z</time>
      </trkpt>
      <trkpt lat="48.04272" lon="7.15054">
        <ele>363.4</ele>
        <time>2025-09-08T11:47:39Z</time>
      </trkpt>
      <trkpt lat="48.04271" lon="7.15046">
        <ele>363.4</ele>
        <time>2025-09-08T11:47:40Z</time>
      </trkpt>
      <trkpt lat="48.0427" lon="7.15038">
        <ele>363.6</ele>
        <time>2025-09-08T11:47:41Z</time>
      </trkpt>
      <trkpt lat="48.04268" lon="7.1503">
        <ele>363.8</ele>
        <time>2025-09-08T11:47:42Z</time>
      </trkpt>
      <trkpt lat="48.04267" lon="7.15022">
        <ele>363.8</ele>
        <time>2025-09-08T11:47:43Z</time>
      </trkpt>
      <trkpt lat="48.04266" lon="7.15015">
        <ele>364</ele>
        <time>2025-09-08T11:47:44Z</time>
      </trkpt>
      <trkpt lat="48.04264" lon="7.15007">
        <ele>364.2</ele>
        <time>2025-09-08T11:47:45Z</time>
      </trkpt>
      <trkpt lat="48.04262" lon="7.15001">
        <ele>364.8</ele>
        <time>2025-09-08T11:47:46Z</time>
      </trkpt>
      <trkpt lat="48.0426" lon="7.14994">
        <ele>365</ele>
        <time>2025-09-08T11:47:47Z</time>
      </trkpt>
      <trkpt lat="48.04258" lon="7.14988">
        <ele>365.2</ele>
        <time>2025-09-08T11:47:48Z</time>
      </trkpt>
      <trkpt lat="48.04256" lon="7.14982">
        <ele>365.2</ele>
        <time>2025-09-08T11:47:49Z</time>
      </trkpt>
      <trkpt lat="48.04255" lon="7.14975">
        <ele>365.4</ele>
        <time>2025-09-08T11:47:50Z</time>
      </trkpt>
      <trkpt lat="48.04255" lon="7.1497">
        <ele>365.6</ele>
        <time>2025-09-08T11:47:51Z</time>
      </trkpt>
      <trkpt lat="48.04256" lon="7.14964">
        <ele>365.6</ele>
        <time>2025-09-08T11:47:52Z</time>
      </trkpt>
      <trkpt lat="48.04257" lon="7.14958">
        <ele>365.6</ele>
        <time>2025-09-08T11:47:53Z</time>
      </trkpt>
      <trkpt lat="48.04255" lon="7.14953">
        <ele>366</ele>
        <time>2025-09-08T11:47:54Z</time>
      </trkpt>
      <trkpt lat="48.04254" lon="7.14948">
        <ele>366.2</ele>
        <time>2025-09-08T11:47:55Z</time>
      </trkpt>
      <trkpt lat="48.04253" lon="7.14943">
        <ele>366.4</ele>
        <time>2025-09-08T11:47:56Z</time>
      </trkpt>
      <trkpt lat="48.04252" lon="7.14939">
        <ele>367</ele>
        <time>2025-09-08T11:47:57Z</time>
      </trkpt>
      <trkpt lat="48.0425" lon="7.14934">
        <ele>367.2</ele>
        <time>2025-09-08T11:47:58Z</time>
      </trkpt>
      <trkpt lat="48.04248" lon="7.14929">
        <ele>367.4</ele>
        <time>2025-09-08T11:47:59Z</time>
      </trkpt>
      <trkpt lat="48.04245" lon="7.14925">
        <ele>367.4</ele>
        <time>2025-09-08T11:48:00Z</time>
      </trkpt>
      <trkpt lat="48.04242" lon="7.1492">
        <ele>367.6</ele>
        <time>2025-09-08T11:48:01Z</time>
      </trkpt>
      <trkpt lat="48.04238" lon="7.14914">
        <ele>367.6</ele>
        <time>2025-09-08T11:48:02Z</time>
      </trkpt>
      <trkpt lat="48.04234" lon="7.14908">
        <ele>367.6</ele>
        <time>2025-09-08T11:48:03Z</time>
      </trkpt>
      <trkpt lat="48.04231" lon="7.14901">
        <ele>367.4</ele>
        <time>2025-09-08T11:48:04Z</time>
      </trkpt>
      <trkpt lat="48.0423" lon="7.14894">
        <ele>367</ele>
        <time>2025-09-08T11:48:05Z</time>
      </trkpt>
      <trkpt lat="48.04228" lon="7.14886">
        <ele>367</ele>
        <time>2025-09-08T11:48:06Z</time>
      </trkpt>
      <trkpt lat="48.04226" lon="7.14878">
        <ele>367</ele>
        <time>2025-09-08T11:48:07Z</time>
      </trkpt>
      <trkpt lat="48.04224" lon="7.14871">
        <ele>366.8</ele>
        <time>2025-09-08T11:48:08Z</time>
      </trkpt>
      <trkpt lat="48.04222" lon="7.14864">
        <ele>366.8</ele>
        <time>2025-09-08T11:48:09Z</time>
      </trkpt>
      <trkpt lat="48.0422" lon="7.14857">
        <ele>366.8</ele>
        <time>2025-09-08T11:48:10Z</time>
      </trkpt>
      <trkpt lat="48.04218" lon="7.1485">
        <ele>366.8</ele>
        <time>2025-09-08T11:48:11Z</time>
      </trkpt>
      <trkpt lat="48.04217" lon="7.14842">
        <ele>366.8</ele>
        <time>2025-09-08T11:48:12Z</time>
      </trkpt>
      <trkpt lat="48.04214" lon="7.14835">
        <ele>366.8</ele>
        <time>2025-09-08T11:48:13Z</time>
      </trkpt>
      <trkpt lat="48.04213" lon="7.14828">
        <ele>367</ele>
        <time>2025-09-08T11:48:14Z</time>
      </trkpt>
      <trkpt lat="48.04212" lon="7.14821">
        <ele>367.2</ele>
        <time>2025-09-08T11:48:15Z</time>
      </trkpt>
      <trkpt lat="48.04211" lon="7.14814">
        <ele>367.2</ele>
        <time>2025-09-08T11:48:16Z</time>
      </trkpt>
      <trkpt lat="48.0421" lon="7.14808">
        <ele>367.2</ele>
        <time>2025-09-08T11:48:17Z</time>
      </trkpt>
      <trkpt lat="48.04211" lon="7.148">
        <ele>367.2</ele>
        <time>2025-09-08T11:48:18Z</time>
      </trkpt>
      <trkpt lat="48.04211" lon="7.14792">
        <ele>367.4</ele>
        <time>2025-09-08T11:48:19Z</time>
      </trkpt>
      <trkpt lat="48.04211" lon="7.14784">
        <ele>367.4</ele>
        <time>2025-09-08T11:48:20Z</time>
      </trkpt>
      <trkpt lat="48.04212" lon="7.14776">
        <ele>367.4</ele>
        <time>2025-09-08T11:48:21Z</time>
      </trkpt>
      <trkpt lat="48.04212" lon="7.14768">
        <ele>367.6</ele>
        <time>2025-09-08T11:48:22Z</time>
      </trkpt>
      <trkpt lat="48.04213" lon="7.1476">
        <ele>367.6</ele>
        <time>2025-09-08T11:48:23Z</time>
      </trkpt>
      <trkpt lat="48.04212" lon="7.14753">
        <ele>367.6</ele>
        <time>2025-09-08T11:48:24Z</time>
      </trkpt>
      <trkpt lat="48.04213" lon="7.14746">
        <ele>367.6</ele>
        <time>2025-09-08T11:48:25Z</time>
      </trkpt>
      <trkpt lat="48.04213" lon="7.1474">
        <ele>367.6</ele>
        <time>2025-09-08T11:48:26Z</time>
      </trkpt>
      <trkpt lat="48.04214" lon="7.14733">
        <ele>367.6</ele>
        <time>2025-09-08T11:48:27Z</time>
      </trkpt>
      <trkpt lat="48.04214" lon="7.14727">
        <ele>367.8</ele>
        <time>2025-09-08T11:48:28Z</time>
      </trkpt>
      <trkpt lat="48.04213" lon="7.14721">
        <ele>367.8</ele>
        <time>2025-09-08T11:48:29Z</time>
      </trkpt>
      <trkpt lat="48.04213" lon="7.14714">
        <ele>367.8</ele>
        <time>2025-09-08T11:48:30Z</time>
      </trkpt>
      <trkpt lat="48.04212" lon="7.1471">
        <ele>367.8</ele>
        <time>2025-09-08T11:48:31Z</time>
      </trkpt>
      <trkpt lat="48.04211" lon="7.14706">
        <ele>368</ele>
        <time>2025-09-08T11:48:32Z</time>
      </trkpt>
      <trkpt lat="48.04211" lon="7.14701">
        <ele>368</ele>
        <time>2025-09-08T11:48:33Z</time>
      </trkpt>
      <trkpt lat="48.0421" lon="7.14695">
        <ele>368</ele>
        <time>2025-09-08T11:48:34Z</time>
      </trkpt>
      <trkpt lat="48.0421" lon="7.14689">
        <ele>368.2</ele>
        <time>2025-09-08T11:48:35Z</time>
      </trkpt>
      <trkpt lat="48.0421" lon="7.14682">
        <ele>368.2</ele>
        <time>2025-09-08T11:48:36Z</time>
      </trkpt>
      <trkpt lat="48.04209" lon="7.14676">
        <ele>368.4</ele>
        <time>2025-09-08T11:48:37Z</time>
      </trkpt>
      <trkpt lat="48.04209" lon="7.1467">
        <ele>368.4</ele>
        <time>2025-09-08T11:48:38Z</time>
      </trkpt>
      <trkpt lat="48.04209" lon="7.14664">
        <ele>368.4</ele>
        <time>2025-09-08T11:48:39Z</time>
      </trkpt>
      <trkpt lat="48.04208" lon="7.14657">
        <ele>368.4</ele>
        <time>2025-09-08T11:48:40Z</time>
      </trkpt>
      <trkpt lat="48.04207" lon="7.14651">
        <ele>368.4</ele>
        <time>2025-09-08T11:48:41Z</time>
      </trkpt>
      <trkpt lat="48.04207" lon="7.14644">
        <ele>368.4</ele>
        <time>2025-09-08T11:48:42Z</time>
      </trkpt>
      <trkpt lat="48.04206" lon="7.14637">
        <ele>368.4</ele>
        <time>2025-09-08T11:48:43Z</time>
      </trkpt>
      <trkpt lat="48.04206" lon="7.14631">
        <ele>368.4</ele>
        <time>2025-09-08T11:48:44Z</time>
      </trkpt>
      <trkpt lat="48.04205" lon="7.14624">
        <ele>368.4</ele>
        <time>2025-09-08T11:48:45Z</time>
      </trkpt>
      <trkpt lat="48.04204" lon="7.14617">
        <ele>368.4</ele>
        <time>2025-09-08T11:48:46Z</time>
      </trkpt>
      <trkpt lat="48.04204" lon="7.1461">
        <ele>368.6</ele>
        <time>2025-09-08T11:48:47Z</time>
      </trkpt>
      <trkpt lat="48.04203" lon="7.14603">
        <ele>368.6</ele>
        <time>2025-09-08T11:48:48Z</time>
      </trkpt>
      <trkpt lat="48.04203" lon="7.14595">
        <ele>368.6</ele>
        <time>2025-09-08T11:48:49Z</time>
      </trkpt>
      <trkpt lat="48.04202" lon="7.14588">
        <ele>368.8</ele>
        <time>2025-09-08T11:48:50Z</time>
      </trkpt>
      <trkpt lat="48.04201" lon="7.14581">
        <ele>368.8</ele>
        <time>2025-09-08T11:48:51Z</time>
      </trkpt>
      <trkpt lat="48.04201" lon="7.14574">
        <ele>368.8</ele>
        <time>2025-09-08T11:48:52Z</time>
      </trkpt>
      <trkpt lat="48.042" lon="7.14568">
        <ele>368.8</ele>
        <time>2025-09-08T11:48:53Z</time>
      </trkpt>
      <trkpt lat="48.04199" lon="7.14561">
        <ele>368.8</ele>
        <time>2025-09-08T11:48:54Z</time>
      </trkpt>
      <trkpt lat="48.04197" lon="7.14555">
        <ele>369</ele>
        <time>2025-09-08T11:48:55Z</time>
      </trkpt>
      <trkpt lat="48.04196" lon="7.14548">
        <ele>369</ele>
        <time>2025-09-08T11:48:56Z</time>
      </trkpt>
      <trkpt lat="48.04194" lon="7.14542">
        <ele>369</ele>
        <time>2025-09-08T11:48:57Z</time>
      </trkpt>
      <trkpt lat="48.04192" lon="7.14535">
        <ele>369</ele>
        <time>2025-09-08T11:48:58Z</time>
      </trkpt>
      <trkpt lat="48.0419" lon="7.14529">
        <ele>369.2</ele>
        <time>2025-09-08T11:48:59Z</time>
      </trkpt>
      <trkpt lat="48.04188" lon="7.14523">
        <ele>369.2</ele>
        <time>2025-09-08T11:49:00Z</time>
      </trkpt>
      <trkpt lat="48.04187" lon="7.14517">
        <ele>369.2</ele>
        <time>2025-09-08T11:49:01Z</time>
      </trkpt>
      <trkpt lat="48.04184" lon="7.14511">
        <ele>369.2</ele>
        <time>2025-09-08T11:49:02Z</time>
      </trkpt>
      <trkpt lat="48.04182" lon="7.14504">
        <ele>369.4</ele>
        <time>2025-09-08T11:49:03Z</time>
      </trkpt>
      <trkpt lat="48.04179" lon="7.14499">
        <ele>369.4</ele>
        <time>2025-09-08T11:49:04Z</time>
      </trkpt>
      <trkpt lat="48.04176" lon="7.14493">
        <ele>369.6</ele>
        <time>2025-09-08T11:49:05Z</time>
      </trkpt>
      <trkpt lat="48.04173" lon="7.14487">
        <ele>369.6</ele>
        <time>2025-09-08T11:49:06Z</time>
      </trkpt>
      <trkpt lat="48.04171" lon="7.14481">
        <ele>369.6</ele>
        <time>2025-09-08T11:49:07Z</time>
      </trkpt>
      <trkpt lat="48.04168" lon="7.14475">
        <ele>369.8</ele>
        <time>2025-09-08T11:49:08Z</time>
      </trkpt>
      <trkpt lat="48.04165" lon="7.14469">
        <ele>369.8</ele>
        <time>2025-09-08T11:49:09Z</time>
      </trkpt>
      <trkpt lat="48.04162" lon="7.14464">
        <ele>370</ele>
        <time>2025-09-08T11:49:10Z</time>
      </trkpt>
      <trkpt lat="48.0416" lon="7.14458">
        <ele>370</ele>
        <time>2025-09-08T11:49:11Z</time>
      </trkpt>
      <trkpt lat="48.04157" lon="7.14453">
        <ele>370</ele>
        <time>2025-09-08T11:49:12Z</time>
      </trkpt>
      <trkpt lat="48.04154" lon="7.14449">
        <ele>370.2</ele>
        <time>2025-09-08T11:49:13Z</time>
      </trkpt>
      <trkpt lat="48.0415" lon="7.14447">
        <ele>370.2</ele>
        <time>2025-09-08T11:49:14Z</time>
      </trkpt>
      <trkpt lat="48.04146" lon="7.14445">
        <ele>370.2</ele>
        <time>2025-09-08T11:49:15Z</time>
      </trkpt>
      <trkpt lat="48.04144" lon="7.14442">
        <ele>370.2</ele>
        <time>2025-09-08T11:49:16Z</time>
      </trkpt>
      <trkpt lat="48.04141" lon="7.14438">
        <ele>370.2</ele>
        <time>2025-09-08T11:49:17Z</time>
      </trkpt>
      <trkpt lat="48.04139" lon="7.14433">
        <ele>370.4</ele>
        <time>2025-09-08T11:49:18Z</time>
      </trkpt>
      <trkpt lat="48.04137" lon="7.14428">
        <ele>370.6</ele>
        <time>2025-09-08T11:49:19Z</time>
      </trkpt>
      <trkpt lat="48.04135" lon="7.14423">
        <ele>370.8</ele>
        <time>2025-09-08T11:49:20Z</time>
      </trkpt>
      <trkpt lat="48.04132" lon="7.14419">
        <ele>370.8</ele>
        <time>2025-09-08T11:49:21Z</time>
      </trkpt>
      <trkpt lat="48.04129" lon="7.14417">
        <ele>371</ele>
        <time>2025-09-08T11:49:22Z</time>
      </trkpt>
      <trkpt lat="48.04126" lon="7.1442">
        <ele>371.2</ele>
        <time>2025-09-08T11:49:23Z</time>
      </trkpt>
      <trkpt lat="48.04124" lon="7.14424">
        <ele>371.4</ele>
        <time>2025-09-08T11:49:24Z</time>
      </trkpt>
      <trkpt lat="48.04122" lon="7.14429">
        <ele>371.6</ele>
        <time>2025-09-08T11:49:25Z</time>
      </trkpt>
      <trkpt lat="48.0412" lon="7.14434">
        <ele>371.8</ele>
        <time>2025-09-08T11:49:26Z</time>
      </trkpt>
      <trkpt lat="48.04119" lon="7.14439">
        <ele>371.8</ele>
        <time>2025-09-08T11:49:27Z</time>
      </trkpt>
      <trkpt lat="48.04117" lon="7.14444">
        <ele>371.8</ele>
        <time>2025-09-08T11:49:28Z</time>
      </trkpt>
      <trkpt lat="48.04114" lon="7.14448">
        <ele>371.8</ele>
        <time>2025-09-08T11:49:29Z</time>
      </trkpt>
      <trkpt lat="48.0411" lon="7.14449">
        <ele>371.8</ele>
        <time>2025-09-08T11:49:30Z</time>
      </trkpt>
      <trkpt lat="48.04107" lon="7.14447">
        <ele>371.8</ele>
        <time>2025-09-08T11:49:31Z</time>
      </trkpt>
      <trkpt lat="48.04104" lon="7.14443">
        <ele>371.8</ele>
        <time>2025-09-08T11:49:32Z</time>
      </trkpt>
      <trkpt lat="48.04102" lon="7.14439">
        <ele>371.8</ele>
        <time>2025-09-08T11:49:33Z</time>
      </trkpt>
      <trkpt lat="48.04099" lon="7.14434">
        <ele>371.8</ele>
        <time>2025-09-08T11:49:34Z</time>
      </trkpt>
      <trkpt lat="48.04096" lon="7.1443">
        <ele>371.8</ele>
        <time>2025-09-08T11:49:35Z</time>
      </trkpt>
      <trkpt lat="48.04093" lon="7.14425">
        <ele>371.8</ele>
        <time>2025-09-08T11:49:36Z</time>
      </trkpt>
      <trkpt lat="48.0409" lon="7.1442">
        <ele>371.8</ele>
        <time>2025-09-08T11:49:37Z</time>
      </trkpt>
      <trkpt lat="48.04086" lon="7.14414">
        <ele>371.8</ele>
        <time>2025-09-08T11:49:38Z</time>
      </trkpt>
      <trkpt lat="48.04083" lon="7.14409">
        <ele>372</ele>
        <time>2025-09-08T11:49:39Z</time>
      </trkpt>
      <trkpt lat="48.0408" lon="7.14404">
        <ele>372</ele>
        <time>2025-09-08T11:49:40Z</time>
      </trkpt>
      <trkpt lat="48.04077" lon="7.14399">
        <ele>372</ele>
        <time>2025-09-08T11:49:41Z</time>
      </trkpt>
      <trkpt lat="48.04073" lon="7.14395">
        <ele>372.2</ele>
        <time>2025-09-08T11:49:42Z</time>
      </trkpt>
      <trkpt lat="48.04069" lon="7.14391">
        <ele>372.2</ele>
        <time>2025-09-08T11:49:43Z</time>
      </trkpt>
      <trkpt lat="48.04065" lon="7.14388">
        <ele>372.4</ele>
        <time>2025-09-08T11:49:44Z</time>
      </trkpt>
      <trkpt lat="48.04061" lon="7.14385">
        <ele>372.4</ele>
        <time>2025-09-08T11:49:45Z</time>
      </trkpt>
      <trkpt lat="48.04056" lon="7.14383">
        <ele>372.6</ele>
        <time>2025-09-08T11:49:46Z</time>
      </trkpt>
      <trkpt lat="48.04052" lon="7.14381">
        <ele>372.6</ele>
        <time>2025-09-08T11:49:47Z</time>
      </trkpt>
      <trkpt lat="48.04048" lon="7.14379">
        <ele>372.6</ele>
        <time>2025-09-08T11:49:48Z</time>
      </trkpt>
      <trkpt lat="48.04044" lon="7.14377">
        <ele>372.6</ele>
        <time>2025-09-08T11:49:49Z</time>
      </trkpt>
      <trkpt lat="48.04041" lon="7.14374">
        <ele>372.8</ele>
        <time>2025-09-08T11:49:50Z</time>
      </trkpt>
      <trkpt lat="48.04041" lon="7.14369">
        <ele>372.8</ele>
        <time>2025-09-08T11:49:51Z</time>
      </trkpt>
      <trkpt lat="48.04041" lon="7.14363">
        <ele>373</ele>
        <time>2025-09-08T11:49:52Z</time>
      </trkpt>
      <trkpt lat="48.04041" lon="7.14359">
        <ele>373.2</ele>
        <time>2025-09-08T11:49:53Z</time>
      </trkpt>
      <trkpt lat="48.04041" lon="7.14354">
        <ele>373.4</ele>
        <time>2025-09-08T11:49:54Z</time>
      </trkpt>
      <trkpt lat="48.04041" lon="7.14349">
        <ele>373.6</ele>
        <time>2025-09-08T11:49:55Z</time>
      </trkpt>
      <trkpt lat="48.04042" lon="7.14345">
        <ele>373.6</ele>
        <time>2025-09-08T11:49:56Z</time>
      </trkpt>
      <trkpt lat="48.04042" lon="7.1434">
        <ele>373.8</ele>
        <time>2025-09-08T11:49:57Z</time>
      </trkpt>
      <trkpt lat="48.0404" lon="7.14336">
        <ele>373.8</ele>
        <time>2025-09-08T11:49:58Z</time>
      </trkpt>
      <trkpt lat="48.04037" lon="7.14331">
        <ele>373.8</ele>
        <time>2025-09-08T11:49:59Z</time>
      </trkpt>
      <trkpt lat="48.04035" lon="7.14327">
        <ele>373.8</ele>
        <time>2025-09-08T11:50:00Z</time>
      </trkpt>
      <trkpt lat="48.04032" lon="7.14323">
        <ele>373.8</ele>
        <time>2025-09-08T11:50:01Z</time>
      </trkpt>
      <trkpt lat="48.04028" lon="7.14318">
        <ele>373.6</ele>
        <time>2025-09-08T11:50:02Z</time>
      </trkpt>
      <trkpt lat="48.04025" lon="7.14314">
        <ele>373.6</ele>
        <time>2025-09-08T11:50:03Z</time>
      </trkpt>
      <trkpt lat="48.04022" lon="7.14309">
        <ele>373.6</ele>
        <time>2025-09-08T11:50:04Z</time>
      </trkpt>
      <trkpt lat="48.0402" lon="7.14303">
        <ele>373.6</ele>
        <time>2025-09-08T11:50:05Z</time>
      </trkpt>
      <trkpt lat="48.04019" lon="7.14297">
        <ele>373.6</ele>
        <time>2025-09-08T11:50:06Z</time>
      </trkpt>
      <trkpt lat="48.04018" lon="7.1429">
        <ele>373.6</ele>
        <time>2025-09-08T11:50:07Z</time>
      </trkpt>
      <trkpt lat="48.04016" lon="7.14283">
        <ele>373.6</ele>
        <time>2025-09-08T11:50:08Z</time>
      </trkpt>
      <trkpt lat="48.04016" lon="7.14276">
        <ele>373.6</ele>
        <time>2025-09-08T11:50:09Z</time>
      </trkpt>
      <trkpt lat="48.04015" lon="7.1427">
        <ele>373.6</ele>
        <time>2025-09-08T11:50:10Z</time>
      </trkpt>
      <trkpt lat="48.04014" lon="7.14263">
        <ele>373.6</ele>
        <time>2025-09-08T11:50:11Z</time>
      </trkpt>
      <trkpt lat="48.04013" lon="7.14257">
        <ele>373.8</ele>
        <time>2025-09-08T11:50:12Z</time>
      </trkpt>
      <trkpt lat="48.04012" lon="7.1425">
        <ele>373.8</ele>
        <time>2025-09-08T11:50:13Z</time>
      </trkpt>
      <trkpt lat="48.04012" lon="7.14243">
        <ele>373.8</ele>
        <time>2025-09-08T11:50:14Z</time>
      </trkpt>
      <trkpt lat="48.04013" lon="7.14236">
        <ele>374</ele>
        <time>2025-09-08T11:50:15Z</time>
      </trkpt>
      <trkpt lat="48.04014" lon="7.14229">
        <ele>374</ele>
        <time>2025-09-08T11:50:16Z</time>
      </trkpt>
      <trkpt lat="48.04016" lon="7.14223">
        <ele>374</ele>
        <time>2025-09-08T11:50:17Z</time>
      </trkpt>
      <trkpt lat="48.04018" lon="7.14217">
        <ele>374.2</ele>
        <time>2025-09-08T11:50:18Z</time>
      </trkpt>
      <trkpt lat="48.04021" lon="7.14212">
        <ele>374.2</ele>
        <time>2025-09-08T11:50:19Z</time>
      </trkpt>
      <trkpt lat="48.04023" lon="7.14206">
        <ele>374.2</ele>
        <time>2025-09-08T11:50:20Z</time>
      </trkpt>
      <trkpt lat="48.04026" lon="7.14201">
        <ele>374.4</ele>
        <time>2025-09-08T11:50:21Z</time>
      </trkpt>
      <trkpt lat="48.04029" lon="7.14196">
        <ele>374.6</ele>
        <time>2025-09-08T11:50:22Z</time>
      </trkpt>
      <trkpt lat="48.04033" lon="7.14191">
        <ele>374.6</ele>
        <time>2025-09-08T11:50:23Z</time>
      </trkpt>
      <trkpt lat="48.04036" lon="7.14187">
        <ele>374.8</ele>
        <time>2025-09-08T11:50:24Z</time>
      </trkpt>
      <trkpt lat="48.0404" lon="7.14182">
        <ele>375</ele>
        <time>2025-09-08T11:50:25Z</time>
      </trkpt>
      <trkpt lat="48.04043" lon="7.14177">
        <ele>375.2</ele>
        <time>2025-09-08T11:50:26Z</time>
      </trkpt>
      <trkpt lat="48.04044" lon="7.14171">
        <ele>375.2</ele>
        <time>2025-09-08T11:50:27Z</time>
      </trkpt>
      <trkpt lat="48.04043" lon="7.14163">
        <ele>375.4</ele>
        <time>2025-09-08T11:50:28Z</time>
      </trkpt>
      <trkpt lat="48.04041" lon="7.14157">
        <ele>375.6</ele>
        <time>2025-09-08T11:50:29Z</time>
      </trkpt>
      <trkpt lat="48.04038" lon="7.14151">
        <ele>375.8</ele>
        <time>2025-09-08T11:50:30Z</time>
      </trkpt>
      <trkpt lat="48.04035" lon="7.14146">
        <ele>376</ele>
        <time>2025-09-08T11:50:31Z</time>
      </trkpt>
      <trkpt lat="48.04032" lon="7.14142">
        <ele>376.2</ele>
        <time>2025-09-08T11:50:32Z</time>
      </trkpt>
      <trkpt lat="48.04029" lon="7.14137">
        <ele>376.4</ele>
        <time>2025-09-08T11:50:33Z</time>
      </trkpt>
      <trkpt lat="48.04026" lon="7.14133">
        <ele>376.4</ele>
        <time>2025-09-08T11:50:34Z</time>
      </trkpt>
      <trkpt lat="48.04023" lon="7.14128">
        <ele>376.6</ele>
        <time>2025-09-08T11:50:35Z</time>
      </trkpt>
      <trkpt lat="48.04021" lon="7.14123">
        <ele>376.6</ele>
        <time>2025-09-08T11:50:36Z</time>
      </trkpt>
      <trkpt lat="48.04018" lon="7.14118">
        <ele>376.8</ele>
        <time>2025-09-08T11:50:37Z</time>
      </trkpt>
      <trkpt lat="48.04014" lon="7.14114">
        <ele>376.8</ele>
        <time>2025-09-08T11:50:38Z</time>
      </trkpt>
      <trkpt lat="48.0401" lon="7.14111">
        <ele>376.8</ele>
        <time>2025-09-08T11:50:39Z</time>
      </trkpt>
      <trkpt lat="48.04007" lon="7.14105">
        <ele>376.8</ele>
        <time>2025-09-08T11:50:40Z</time>
      </trkpt>
      <trkpt lat="48.04004" lon="7.141">
        <ele>376.8</ele>
        <time>2025-09-08T11:50:41Z</time>
      </trkpt>
      <trkpt lat="48.04002" lon="7.14094">
        <ele>376.8</ele>
        <time>2025-09-08T11:50:42Z</time>
      </trkpt>
      <trkpt lat="48.04" lon="7.14089">
        <ele>376.8</ele>
        <time>2025-09-08T11:50:43Z</time>
      </trkpt>
      <trkpt lat="48.03999" lon="7.14083">
        <ele>377</ele>
        <time>2025-09-08T11:50:44Z</time>
      </trkpt>
      <trkpt lat="48.03997" lon="7.14078">
        <ele>377</ele>
        <time>2025-09-08T11:50:45Z</time>
      </trkpt>
      <trkpt lat="48.03995" lon="7.14073">
        <ele>377</ele>
        <time>2025-09-08T11:50:46Z</time>
      </trkpt>
      <trkpt lat="48.03994" lon="7.14069">
        <ele>377.2</ele>
        <time>2025-09-08T11:50:47Z</time>
      </trkpt>
      <trkpt lat="48.03993" lon="7.14065">
        <ele>377.2</ele>
        <time>2025-09-08T11:50:48Z</time>
      </trkpt>
      <trkpt lat="48.03993" lon="7.14061">
        <ele>377.4</ele>
        <time>2025-09-08T11:50:49Z</time>
      </trkpt>
      <trkpt lat="48.03992" lon="7.14057">
        <ele>377.6</ele>
        <time>2025-09-08T11:50:50Z</time>
      </trkpt>
      <trkpt lat="48.03991" lon="7.14052">
        <ele>377.8</ele>
        <time>2025-09-08T11:50:51Z</time>
      </trkpt>
      <trkpt lat="48.0399" lon="7.14049">
        <ele>378</ele>
        <time>2025-09-08T11:50:52Z</time>
      </trkpt>
      <trkpt lat="48.0399" lon="7.14045">
        <ele>378</ele>
        <time>2025-09-08T11:50:53Z</time>
      </trkpt>
      <trkpt lat="48.03989" lon="7.14041">
        <ele>378</ele>
        <time>2025-09-08T11:50:54Z</time>
      </trkpt>
      <trkpt lat="48.03989" lon="7.14038">
        <ele>378.2</ele>
        <time>2025-09-08T11:50:55Z</time>
      </trkpt>
      <trkpt lat="48.03989" lon="7.14033">
        <ele>378.2</ele>
        <time>2025-09-08T11:50:56Z</time>
      </trkpt>
      <trkpt lat="48.03989" lon="7.14028">
        <ele>378.2</ele>
        <time>2025-09-08T11:50:57Z</time>
      </trkpt>
      <trkpt lat="48.03989" lon="7.14024">
        <ele>378.2</ele>
        <time>2025-09-08T11:50:58Z</time>
      </trkpt>
      <trkpt lat="48.03989" lon="7.1402">
        <ele>378.2</ele>
        <time>2025-09-08T11:50:59Z</time>
      </trkpt>
      <trkpt lat="48.03989" lon="7.14017">
        <ele>378.2</ele>
        <time>2025-09-08T11:51:00Z</time>
      </trkpt>
      <trkpt lat="48.03989" lon="7.14014">
        <ele>378.2</ele>
        <time>2025-09-08T11:51:01Z</time>
      </trkpt>
      <trkpt lat="48.03989" lon="7.14011">
        <ele>378.2</ele>
        <time>2025-09-08T11:51:02Z</time>
      </trkpt>
      <trkpt lat="48.03989" lon="7.14007">
        <ele>378.2</ele>
        <time>2025-09-08T11:51:03Z</time>
      </trkpt>
      <trkpt lat="48.0399" lon="7.14005">
        <ele>378.2</ele>
        <time>2025-09-08T11:51:04Z</time>
      </trkpt>
      <trkpt lat="48.03991" lon="7.14003">
        <ele>378.4</ele>
        <time>2025-09-08T11:51:05Z</time>
      </trkpt>
      <trkpt lat="48.03992" lon="7.14002">
        <ele>378.4</ele>
        <time>2025-09-08T11:51:06Z</time>
      </trkpt>
      <trkpt lat="48.03993" lon="7.14002">
        <ele>378.4</ele>
        <time>2025-09-08T11:51:07Z</time>
      </trkpt>
      <trkpt lat="48.03995" lon="7.14004">
        <ele>378.6</ele>
        <time>2025-09-08T11:51:08Z</time>
      </trkpt>
      <trkpt lat="48.03996" lon="7.14006">
        <ele>378.6</ele>
        <time>2025-09-08T11:51:09Z</time>
      </trkpt>
      <trkpt lat="48.03998" lon="7.14008">
        <ele>378.6</ele>
        <time>2025-09-08T11:51:10Z</time>
      </trkpt>
      <trkpt lat="48.04001" lon="7.14009">
        <ele>378.6</ele>
        <time>2025-09-08T11:51:11Z</time>
      </trkpt>
      <trkpt lat="48.04004" lon="7.14008">
        <ele>378.4</ele>
        <time>2025-09-08T11:51:12Z</time>
      </trkpt>
      <trkpt lat="48.04007" lon="7.14008">
        <ele>378.4</ele>
        <time>2025-09-08T11:51:13Z</time>
      </trkpt>
      <trkpt lat="48.04011" lon="7.14007">
        <ele>378.2</ele>
        <time>2025-09-08T11:51:14Z</time>
      </trkpt>
      <trkpt lat="48.04014" lon="7.14005">
        <ele>378.2</ele>
        <time>2025-09-08T11:51:15Z</time>
      </trkpt>
      <trkpt lat="48.04018" lon="7.14004">
        <ele>378</ele>
        <time>2025-09-08T11:51:16Z</time>
      </trkpt>
      <trkpt lat="48.04022" lon="7.14002">
        <ele>378</ele>
        <time>2025-09-08T11:51:17Z</time>
      </trkpt>
      <trkpt lat="48.04026" lon="7.14001">
        <ele>377.8</ele>
        <time>2025-09-08T11:51:18Z</time>
      </trkpt>
      <trkpt lat="48.04031" lon="7.14">
        <ele>377.8</ele>
        <time>2025-09-08T11:51:19Z</time>
      </trkpt>
      <trkpt lat="48.04036" lon="7.14001">
        <ele>377.8</ele>
        <time>2025-09-08T11:51:20Z</time>
      </trkpt>
      <trkpt lat="48.04041" lon="7.14002">
        <ele>377.6</ele>
        <time>2025-09-08T11:51:21Z</time>
      </trkpt>
      <trkpt lat="48.04045" lon="7.14003">
        <ele>377.6</ele>
        <time>2025-09-08T11:51:22Z</time>
      </trkpt>
      <trkpt lat="48.0405" lon="7.14004">
        <ele>377.6</ele>
        <time>2025-09-08T11:51:23Z</time>
      </trkpt>
      <trkpt lat="48.04055" lon="7.14004">
        <ele>377.8</ele>
        <time>2025-09-08T11:51:24Z</time>
      </trkpt>
      <trkpt lat="48.04059" lon="7.14003">
        <ele>377.8</ele>
        <time>2025-09-08T11:51:25Z</time>
      </trkpt>
      <trkpt lat="48.04064" lon="7.14003">
        <ele>377.8</ele>
        <time>2025-09-08T11:51:26Z</time>
      </trkpt>
      <trkpt lat="48.04068" lon="7.14002">
        <ele>378</ele>
        <time>2025-09-08T11:51:27Z</time>
      </trkpt>
      <trkpt lat="48.04073" lon="7.14002">
        <ele>378</ele>
        <time>2025-09-08T11:51:28Z</time>
      </trkpt>
      <trkpt lat="48.04078" lon="7.14002">
        <ele>378.2</ele>
        <time>2025-09-08T11:51:29Z</time>
      </trkpt>
      <trkpt lat="48.04082" lon="7.14001">
        <ele>378.2</ele>
        <time>2025-09-08T11:51:30Z</time>
      </trkpt>
      <trkpt lat="48.04087" lon="7.14001">
        <ele>378.4</ele>
        <time>2025-09-08T11:51:31Z</time>
      </trkpt>
      <trkpt lat="48.04091" lon="7.14001">
        <ele>378.4</ele>
        <time>2025-09-08T11:51:32Z</time>
      </trkpt>
      <trkpt lat="48.04096" lon="7.14001">
        <ele>378.6</ele>
        <time>2025-09-08T11:51:33Z</time>
      </trkpt>
      <trkpt lat="48.041" lon="7.14001">
        <ele>378.6</ele>
        <time>2025-09-08T11:51:34Z</time>
      </trkpt>
      <trkpt lat="48.04105" lon="7.14">
        <ele>378.8</ele>
        <time>2025-09-08T11:51:35Z</time>
      </trkpt>
      <trkpt lat="48.04109" lon="7.13999">
        <ele>379</ele>
        <time>2025-09-08T11:51:36Z</time>
      </trkpt>
      <trkpt lat="48.04113" lon="7.13999">
        <ele>379</ele>
        <time>2025-09-08T11:51:37Z</time>
      </trkpt>
      <trkpt lat="48.04117" lon="7.13998">
        <ele>379.2</ele>
        <time>2025-09-08T11:51:38Z</time>
      </trkpt>
      <trkpt lat="48.04121" lon="7.13998">
        <ele>379.2</ele>
        <time>2025-09-08T11:51:39Z</time>
      </trkpt>
      <trkpt lat="48.04125" lon="7.13997">
        <ele>379.4</ele>
        <time>2025-09-08T11:51:40Z</time>
      </trkpt>
      <trkpt lat="48.04128" lon="7.13997">
        <ele>379.4</ele>
        <time>2025-09-08T11:51:41Z</time>
      </trkpt>
      <trkpt lat="48.0413" lon="7.13981">
        <ele>380.6</ele>
        <time>2025-09-08T11:52:21Z</time>
      </trkpt>
      <trkpt lat="48.04129" lon="7.13976">
        <ele>380.4</ele>
        <time>2025-09-08T11:52:22Z</time>
      </trkpt>
      <trkpt lat="48.04128" lon="7.1397">
        <ele>380.4</ele>
        <time>2025-09-08T11:52:23Z</time>
      </trkpt>
      <trkpt lat="48.04128" lon="7.13963">
        <ele>380.4</ele>
        <time>2025-09-08T11:52:24Z</time>
      </trkpt>
      <trkpt lat="48.04129" lon="7.13956">
        <ele>380.2</ele>
        <time>2025-09-08T11:52:25Z</time>
      </trkpt>
      <trkpt lat="48.04129" lon="7.1395">
        <ele>380</ele>
        <time>2025-09-08T11:52:26Z</time>
      </trkpt>
      <trkpt lat="48.0413" lon="7.13943">
        <ele>380</ele>
        <time>2025-09-08T11:52:27Z</time>
      </trkpt>
      <trkpt lat="48.0413" lon="7.13937">
        <ele>380</ele>
        <time>2025-09-08T11:52:28Z</time>
      </trkpt>
      <trkpt lat="48.04131" lon="7.1393">
        <ele>380</ele>
        <time>2025-09-08T11:52:29Z</time>
      </trkpt>
      <trkpt lat="48.04133" lon="7.13924">
        <ele>380</ele>
        <time>2025-09-08T11:52:30Z</time>
      </trkpt>
      <trkpt lat="48.04134" lon="7.13917">
        <ele>380</ele>
        <time>2025-09-08T11:52:31Z</time>
      </trkpt>
      <trkpt lat="48.04136" lon="7.13911">
        <ele>380.2</ele>
        <time>2025-09-08T11:52:32Z</time>
      </trkpt>
      <trkpt lat="48.04139" lon="7.13905">
        <ele>380.2</ele>
        <time>2025-09-08T11:52:33Z</time>
      </trkpt>
      <trkpt lat="48.04141" lon="7.13899">
        <ele>380.2</ele>
        <time>2025-09-08T11:52:34Z</time>
      </trkpt>
      <trkpt lat="48.04144" lon="7.13893">
        <ele>380.4</ele>
        <time>2025-09-08T11:52:35Z</time>
      </trkpt>
      <trkpt lat="48.04147" lon="7.13888">
        <ele>380.4</ele>
        <time>2025-09-08T11:52:36Z</time>
      </trkpt>
      <trkpt lat="48.04149" lon="7.13883">
        <ele>380.6</ele>
        <time>2025-09-08T11:52:37Z</time>
      </trkpt>
      <trkpt lat="48.04153" lon="7.13878">
        <ele>380.6</ele>
        <time>2025-09-08T11:52:38Z</time>
      </trkpt>
      <trkpt lat="48.04156" lon="7.13873">
        <ele>380.8</ele>
        <time>2025-09-08T11:52:39Z</time>
      </trkpt>
      <trkpt lat="48.04159" lon="7.13869">
        <ele>380.8</ele>
        <time>2025-09-08T11:52:40Z</time>
      </trkpt>
      <trkpt lat="48.04161" lon="7.13865">
        <ele>381</ele>
        <time>2025-09-08T11:52:41Z</time>
      </trkpt>
      <trkpt lat="48.04164" lon="7.1386">
        <ele>381</ele>
        <time>2025-09-08T11:52:42Z</time>
      </trkpt>
      <trkpt lat="48.04168" lon="7.13856">
        <ele>381</ele>
        <time>2025-09-08T11:52:43Z</time>
      </trkpt>
      <trkpt lat="48.04171" lon="7.1385">
        <ele>381</ele>
        <time>2025-09-08T11:52:44Z</time>
      </trkpt>
      <trkpt lat="48.04175" lon="7.13845">
        <ele>381</ele>
        <time>2025-09-08T11:52:45Z</time>
      </trkpt>
      <trkpt lat="48.04178" lon="7.1384">
        <ele>381</ele>
        <time>2025-09-08T11:52:46Z</time>
      </trkpt>
      <trkpt lat="48.0418" lon="7.13834">
        <ele>381.2</ele>
        <time>2025-09-08T11:52:47Z</time>
      </trkpt>
      <trkpt lat="48.04183" lon="7.13828">
        <ele>381.2</ele>
        <time>2025-09-08T11:52:48Z</time>
      </trkpt>
      <trkpt lat="48.04185" lon="7.13822">
        <ele>381.2</ele>
        <time>2025-09-08T11:52:49Z</time>
      </trkpt>
      <trkpt lat="48.04186" lon="7.13815">
        <ele>381.2</ele>
        <time>2025-09-08T11:52:50Z</time>
      </trkpt>
      <trkpt lat="48.04188" lon="7.13808">
        <ele>381.6</ele>
        <time>2025-09-08T11:52:51Z</time>
      </trkpt>
      <trkpt lat="48.0419" lon="7.13802">
        <ele>381.6</ele>
        <time>2025-09-08T11:52:52Z</time>
      </trkpt>
      <trkpt lat="48.04191" lon="7.13795">
        <ele>382</ele>
        <time>2025-09-08T11:52:53Z</time>
      </trkpt>
      <trkpt lat="48.04192" lon="7.13789">
        <ele>382.2</ele>
        <time>2025-09-08T11:52:54Z</time>
      </trkpt>
      <trkpt lat="48.04193" lon="7.13782">
        <ele>382.4</ele>
        <time>2025-09-08T11:52:55Z</time>
      </trkpt>
      <trkpt lat="48.04194" lon="7.13775">
        <ele>382.6</ele>
        <time>2025-09-08T11:52:56Z</time>
      </trkpt>
      <trkpt lat="48.04195" lon="7.13768">
        <ele>382.8</ele>
        <time>2025-09-08T11:52:57Z</time>
      </trkpt>
      <trkpt lat="48.04195" lon="7.13761">
        <ele>382.8</ele>
        <time>2025-09-08T11:52:58Z</time>
      </trkpt>
      <trkpt lat="48.04196" lon="7.13755">
        <ele>383</ele>
        <time>2025-09-08T11:52:59Z</time>
      </trkpt>
      <trkpt lat="48.04197" lon="7.13749">
        <ele>383</ele>
        <time>2025-09-08T11:53:00Z</time>
      </trkpt>
      <trkpt lat="48.04198" lon="7.13742">
        <ele>383</ele>
        <time>2025-09-08T11:53:01Z</time>
      </trkpt>
      <trkpt lat="48.04199" lon="7.13736">
        <ele>383.2</ele>
        <time>2025-09-08T11:53:02Z</time>
      </trkpt>
      <trkpt lat="48.042" lon="7.1373">
        <ele>383.4</ele>
        <time>2025-09-08T11:53:03Z</time>
      </trkpt>
      <trkpt lat="48.04202" lon="7.13725">
        <ele>383.8</ele>
        <time>2025-09-08T11:53:04Z</time>
      </trkpt>
      <trkpt lat="48.04205" lon="7.13722">
        <ele>383.8</ele>
        <time>2025-09-08T11:53:05Z</time>
      </trkpt>
      <trkpt lat="48.04208" lon="7.13722">
        <ele>384.2</ele>
        <time>2025-09-08T11:53:06Z</time>
      </trkpt>
      <trkpt lat="48.04211" lon="7.13723">
        <ele>384.4</ele>
        <time>2025-09-08T11:53:07Z</time>
      </trkpt>
      <trkpt lat="48.04215" lon="7.13723">
        <ele>384.4</ele>
        <time>2025-09-08T11:53:08Z</time>
      </trkpt>
      <trkpt lat="48.04219" lon="7.13725">
        <ele>384.4</ele>
        <time>2025-09-08T11:53:09Z</time>
      </trkpt>
      <trkpt lat="48.04223" lon="7.13727">
        <ele>384.4</ele>
        <time>2025-09-08T11:53:10Z</time>
      </trkpt>
      <trkpt lat="48.04227" lon="7.1373">
        <ele>384.4</ele>
        <time>2025-09-08T11:53:11Z</time>
      </trkpt>
      <trkpt lat="48.04231" lon="7.13734">
        <ele>384.4</ele>
        <time>2025-09-08T11:53:12Z</time>
      </trkpt>
      <trkpt lat="48.04234" lon="7.13738">
        <ele>384.4</ele>
        <time>2025-09-08T11:53:13Z</time>
      </trkpt>
      <trkpt lat="48.04238" lon="7.13742">
        <ele>384.2</ele>
        <time>2025-09-08T11:53:14Z</time>
      </trkpt>
      <trkpt lat="48.04241" lon="7.13745">
        <ele>384.2</ele>
        <time>2025-09-08T11:53:15Z</time>
      </trkpt>
      <trkpt lat="48.04245" lon="7.13748">
        <ele>384.2</ele>
        <time>2025-09-08T11:53:16Z</time>
      </trkpt>
      <trkpt lat="48.04248" lon="7.13751">
        <ele>384.2</ele>
        <time>2025-09-08T11:53:17Z</time>
      </trkpt>
      <trkpt lat="48.04252" lon="7.13753">
        <ele>384.2</ele>
        <time>2025-09-08T11:53:18Z</time>
      </trkpt>
      <trkpt lat="48.04255" lon="7.13755">
        <ele>384.4</ele>
        <time>2025-09-08T11:53:19Z</time>
      </trkpt>
      <trkpt lat="48.04259" lon="7.13757">
        <ele>384.4</ele>
        <time>2025-09-08T11:53:20Z</time>
      </trkpt>
      <trkpt lat="48.04263" lon="7.1376">
        <ele>384.6</ele>
        <time>2025-09-08T11:53:21Z</time>
      </trkpt>
      <trkpt lat="48.04266" lon="7.13762">
        <ele>384.8</ele>
        <time>2025-09-08T11:53:22Z</time>
      </trkpt>
      <trkpt lat="48.0427" lon="7.13764">
        <ele>385</ele>
        <time>2025-09-08T11:53:23Z</time>
      </trkpt>
      <trkpt lat="48.04274" lon="7.13767">
        <ele>385</ele>
        <time>2025-09-08T11:53:24Z</time>
      </trkpt>
      <trkpt lat="48.04276" lon="7.13772">
        <ele>385.2</ele>
        <time>2025-09-08T11:53:25Z</time>
      </trkpt>
      <trkpt lat="48.04278" lon="7.13777">
        <ele>385.4</ele>
        <time>2025-09-08T11:53:26Z</time>
      </trkpt>
      <trkpt lat="48.0428" lon="7.13782">
        <ele>385.4</ele>
        <time>2025-09-08T11:53:27Z</time>
      </trkpt>
      <trkpt lat="48.04283" lon="7.13785">
        <ele>385.8</ele>
        <time>2025-09-08T11:53:28Z</time>
      </trkpt>
      <trkpt lat="48.04287" lon="7.13785">
        <ele>386</ele>
        <time>2025-09-08T11:53:29Z</time>
      </trkpt>
      <trkpt lat="48.0429" lon="7.13783">
        <ele>386.2</ele>
        <time>2025-09-08T11:53:30Z</time>
      </trkpt>
      <trkpt lat="48.04294" lon="7.13781">
        <ele>386.4</ele>
        <time>2025-09-08T11:53:31Z</time>
      </trkpt>
      <trkpt lat="48.04297" lon="7.1378">
        <ele>386.6</ele>
        <time>2025-09-08T11:53:32Z</time>
      </trkpt>
      <trkpt lat="48.04299" lon="7.13779">
        <ele>387</ele>
        <time>2025-09-08T11:53:33Z</time>
      </trkpt>
      <trkpt lat="48.04303" lon="7.13777">
        <ele>387.2</ele>
        <time>2025-09-08T11:53:34Z</time>
      </trkpt>
      <trkpt lat="48.04306" lon="7.13774">
        <ele>387.6</ele>
        <time>2025-09-08T11:53:35Z</time>
      </trkpt>
      <trkpt lat="48.04309" lon="7.13771">
        <ele>388</ele>
        <time>2025-09-08T11:53:36Z</time>
      </trkpt>
      <trkpt lat="48.04312" lon="7.13769">
        <ele>388.2</ele>
        <time>2025-09-08T11:53:37Z</time>
      </trkpt>
      <trkpt lat="48.04314" lon="7.13767">
        <ele>388.4</ele>
        <time>2025-09-08T11:53:38Z</time>
      </trkpt>
      <trkpt lat="48.04317" lon="7.13765">
        <ele>388.8</ele>
        <time>2025-09-08T11:53:39Z</time>
      </trkpt>
      <trkpt lat="48.0432" lon="7.13762">
        <ele>389</ele>
        <time>2025-09-08T11:53:40Z</time>
      </trkpt>
      <trkpt lat="48.04323" lon="7.13758">
        <ele>389.2</ele>
        <time>2025-09-08T11:53:41Z</time>
      </trkpt>
      <trkpt lat="48.04326" lon="7.13754">
        <ele>389.2</ele>
        <time>2025-09-08T11:53:42Z</time>
      </trkpt>
      <trkpt lat="48.0433" lon="7.13749">
        <ele>389.2</ele>
        <time>2025-09-08T11:53:43Z</time>
      </trkpt>
      <trkpt lat="48.04334" lon="7.13744">
        <ele>389.2</ele>
        <time>2025-09-08T11:53:44Z</time>
      </trkpt>
      <trkpt lat="48.04337" lon="7.13739">
        <ele>389.2</ele>
        <time>2025-09-08T11:53:45Z</time>
      </trkpt>
      <trkpt lat="48.0434" lon="7.13734">
        <ele>389.2</ele>
        <time>2025-09-08T11:53:46Z</time>
      </trkpt>
      <trkpt lat="48.04344" lon="7.13729">
        <ele>389.2</ele>
        <time>2025-09-08T11:53:47Z</time>
      </trkpt>
      <trkpt lat="48.04347" lon="7.13724">
        <ele>389.2</ele>
        <time>2025-09-08T11:53:48Z</time>
      </trkpt>
      <trkpt lat="48.0435" lon="7.13719">
        <ele>389.2</ele>
        <time>2025-09-08T11:53:49Z</time>
      </trkpt>
      <trkpt lat="48.04352" lon="7.13715">
        <ele>389.4</ele>
        <time>2025-09-08T11:53:50Z</time>
      </trkpt>
      <trkpt lat="48.04355" lon="7.1371">
        <ele>389.6</ele>
        <time>2025-09-08T11:53:51Z</time>
      </trkpt>
      <trkpt lat="48.04357" lon="7.13704">
        <ele>389.6</ele>
        <time>2025-09-08T11:53:52Z</time>
      </trkpt>
      <trkpt lat="48.04358" lon="7.13698">
        <ele>389.8</ele>
        <time>2025-09-08T11:53:53Z</time>
      </trkpt>
      <trkpt lat="48.04359" lon="7.13692">
        <ele>389.8</ele>
        <time>2025-09-08T11:53:54Z</time>
      </trkpt>
      <trkpt lat="48.04361" lon="7.13686">
        <ele>390</ele>
        <time>2025-09-08T11:53:55Z</time>
      </trkpt>
      <trkpt lat="48.04362" lon="7.13679">
        <ele>390</ele>
        <time>2025-09-08T11:53:56Z</time>
      </trkpt>
      <trkpt lat="48.04364" lon="7.13672">
        <ele>390</ele>
        <time>2025-09-08T11:53:57Z</time>
      </trkpt>
      <trkpt lat="48.04366" lon="7.13665">
        <ele>390</ele>
        <time>2025-09-08T11:53:58Z</time>
      </trkpt>
      <trkpt lat="48.04368" lon="7.13658">
        <ele>390.2</ele>
        <time>2025-09-08T11:53:59Z</time>
      </trkpt>
      <trkpt lat="48.0437" lon="7.1365">
        <ele>390.2</ele>
        <time>2025-09-08T11:54:00Z</time>
      </trkpt>
      <trkpt lat="48.04372" lon="7.13643">
        <ele>390.2</ele>
        <time>2025-09-08T11:54:01Z</time>
      </trkpt>
      <trkpt lat="48.04373" lon="7.13637">
        <ele>390.4</ele>
        <time>2025-09-08T11:54:02Z</time>
      </trkpt>
      <trkpt lat="48.04374" lon="7.1363">
        <ele>390.4</ele>
        <time>2025-09-08T11:54:03Z</time>
      </trkpt>
      <trkpt lat="48.04375" lon="7.13623">
        <ele>390.4</ele>
        <time>2025-09-08T11:54:04Z</time>
      </trkpt>
      <trkpt lat="48.04376" lon="7.13617">
        <ele>390.4</ele>
        <time>2025-09-08T11:54:05Z</time>
      </trkpt>
      <trkpt lat="48.04378" lon="7.1361">
        <ele>390.6</ele>
        <time>2025-09-08T11:54:06Z</time>
      </trkpt>
      <trkpt lat="48.04379" lon="7.13603">
        <ele>390.6</ele>
        <time>2025-09-08T11:54:07Z</time>
      </trkpt>
      <trkpt lat="48.04381" lon="7.13596">
        <ele>390.6</ele>
        <time>2025-09-08T11:54:08Z</time>
      </trkpt>
      <trkpt lat="48.04382" lon="7.13589">
        <ele>390.8</ele>
        <time>2025-09-08T11:54:09Z</time>
      </trkpt>
      <trkpt lat="48.04383" lon="7.13582">
        <ele>390.8</ele>
        <time>2025-09-08T11:54:10Z</time>
      </trkpt>
      <trkpt lat="48.04384" lon="7.13575">
        <ele>390.8</ele>
        <time>2025-09-08T11:54:11Z</time>
      </trkpt>
      <trkpt lat="48.04386" lon="7.13569">
        <ele>391</ele>
        <time>2025-09-08T11:54:12Z</time>
      </trkpt>
      <trkpt lat="48.04389" lon="7.13563">
        <ele>391</ele>
        <time>2025-09-08T11:54:13Z</time>
      </trkpt>
      <trkpt lat="48.04392" lon="7.13558">
        <ele>391.2</ele>
        <time>2025-09-08T11:54:14Z</time>
      </trkpt>
      <trkpt lat="48.04395" lon="7.13552">
        <ele>391.2</ele>
        <time>2025-09-08T11:54:15Z</time>
      </trkpt>
      <trkpt lat="48.04398" lon="7.13546">
        <ele>391.4</ele>
        <time>2025-09-08T11:54:16Z</time>
      </trkpt>
      <trkpt lat="48.04401" lon="7.13539">
        <ele>391.4</ele>
        <time>2025-09-08T11:54:17Z</time>
      </trkpt>
      <trkpt lat="48.04404" lon="7.13533">
        <ele>391.6</ele>
        <time>2025-09-08T11:54:18Z</time>
      </trkpt>
      <trkpt lat="48.04407" lon="7.13527">
        <ele>391.6</ele>
        <time>2025-09-08T11:54:19Z</time>
      </trkpt>
      <trkpt lat="48.04411" lon="7.13521">
        <ele>391.8</ele>
        <time>2025-09-08T11:54:20Z</time>
      </trkpt>
      <trkpt lat="48.04413" lon="7.13515">
        <ele>391.8</ele>
        <time>2025-09-08T11:54:21Z</time>
      </trkpt>
      <trkpt lat="48.04413" lon="7.13507">
        <ele>391.8</ele>
        <time>2025-09-08T11:54:22Z</time>
      </trkpt>
      <trkpt lat="48.04413" lon="7.135">
        <ele>391.8</ele>
        <time>2025-09-08T11:54:23Z</time>
      </trkpt>
      <trkpt lat="48.04413" lon="7.13493">
        <ele>391.8</ele>
        <time>2025-09-08T11:54:24Z</time>
      </trkpt>
      <trkpt lat="48.04413" lon="7.13485">
        <ele>391.8</ele>
        <time>2025-09-08T11:54:25Z</time>
      </trkpt>
      <trkpt lat="48.04414" lon="7.13478">
        <ele>392</ele>
        <time>2025-09-08T11:54:26Z</time>
      </trkpt>
      <trkpt lat="48.04415" lon="7.1347">
        <ele>392</ele>
        <time>2025-09-08T11:54:27Z</time>
      </trkpt>
      <trkpt lat="48.04415" lon="7.13463">
        <ele>392</ele>
        <time>2025-09-08T11:54:28Z</time>
      </trkpt>
      <trkpt lat="48.04415" lon="7.13455">
        <ele>392</ele>
        <time>2025-09-08T11:54:29Z</time>
      </trkpt>
      <trkpt lat="48.04414" lon="7.13448">
        <ele>392</ele>
        <time>2025-09-08T11:54:30Z</time>
      </trkpt>
      <trkpt lat="48.04412" lon="7.1344">
        <ele>392</ele>
        <time>2025-09-08T11:54:31Z</time>
      </trkpt>
      <trkpt lat="48.0441" lon="7.13434">
        <ele>392</ele>
        <time>2025-09-08T11:54:32Z</time>
      </trkpt>
      <trkpt lat="48.04408" lon="7.13427">
        <ele>392</ele>
        <time>2025-09-08T11:54:33Z</time>
      </trkpt>
      <trkpt lat="48.04405" lon="7.13421">
        <ele>392</ele>
        <time>2025-09-08T11:54:34Z</time>
      </trkpt>
      <trkpt lat="48.04403" lon="7.13414">
        <ele>392</ele>
        <time>2025-09-08T11:54:35Z</time>
      </trkpt>
      <trkpt lat="48.04402" lon="7.13407">
        <ele>392</ele>
        <time>2025-09-08T11:54:36Z</time>
      </trkpt>
      <trkpt lat="48.04401" lon="7.13401">
        <ele>392</ele>
        <time>2025-09-08T11:54:37Z</time>
      </trkpt>
      <trkpt lat="48.04401" lon="7.13395">
        <ele>392.2</ele>
        <time>2025-09-08T11:54:38Z</time>
      </trkpt>
      <trkpt lat="48.04401" lon="7.13389">
        <ele>392.2</ele>
        <time>2025-09-08T11:54:39Z</time>
      </trkpt>
      <trkpt lat="48.044" lon="7.13383">
        <ele>392.2</ele>
        <time>2025-09-08T11:54:40Z</time>
      </trkpt>
      <trkpt lat="48.04401" lon="7.13377">
        <ele>392.4</ele>
        <time>2025-09-08T11:54:41Z</time>
      </trkpt>
      <trkpt lat="48.04402" lon="7.13372">
        <ele>392.4</ele>
        <time>2025-09-08T11:54:42Z</time>
      </trkpt>
      <trkpt lat="48.04403" lon="7.13367">
        <ele>392.6</ele>
        <time>2025-09-08T11:54:43Z</time>
      </trkpt>
      <trkpt lat="48.04405" lon="7.13361">
        <ele>392.8</ele>
        <time>2025-09-08T11:54:44Z</time>
      </trkpt>
      <trkpt lat="48.04407" lon="7.13356">
        <ele>393</ele>
        <time>2025-09-08T11:54:45Z</time>
      </trkpt>
      <trkpt lat="48.0441" lon="7.1335">
        <ele>393</ele>
        <time>2025-09-08T11:54:46Z</time>
      </trkpt>
      <trkpt lat="48.04412" lon="7.13344">
        <ele>393.2</ele>
        <time>2025-09-08T11:54:47Z</time>
      </trkpt>
      <trkpt lat="48.04414" lon="7.13339">
        <ele>393.2</ele>
        <time>2025-09-08T11:54:48Z</time>
      </trkpt>
      <trkpt lat="48.04416" lon="7.13335">
        <ele>393.4</ele>
        <time>2025-09-08T11:54:49Z</time>
      </trkpt>
      <trkpt lat="48.04418" lon="7.1333">
        <ele>393.4</ele>
        <time>2025-09-08T11:54:50Z</time>
      </trkpt>
      <trkpt lat="48.04421" lon="7.13327">
        <ele>393.6</ele>
        <time>2025-09-08T11:54:51Z</time>
      </trkpt>
      <trkpt lat="48.04424" lon="7.13326">
        <ele>393.8</ele>
        <time>2025-09-08T11:54:52Z</time>
      </trkpt>
      <trkpt lat="48.04428" lon="7.13327">
        <ele>394.2</ele>
        <time>2025-09-08T11:54:53Z</time>
      </trkpt>
      <trkpt lat="48.04431" lon="7.13328">
        <ele>394.4</ele>
        <time>2025-09-08T11:54:54Z</time>
      </trkpt>
      <trkpt lat="48.04434" lon="7.13329">
        <ele>394.6</ele>
        <time>2025-09-08T11:54:55Z</time>
      </trkpt>
      <trkpt lat="48.04437" lon="7.1333">
        <ele>395</ele>
        <time>2025-09-08T11:54:56Z</time>
      </trkpt>
      <trkpt lat="48.0444" lon="7.1333">
        <ele>395</ele>
        <time>2025-09-08T11:54:57Z</time>
      </trkpt>
      <trkpt lat="48.04443" lon="7.13329">
        <ele>395.4</ele>
        <time>2025-09-08T11:54:58Z</time>
      </trkpt>
      <trkpt lat="48.04446" lon="7.13329">
        <ele>395.6</ele>
        <time>2025-09-08T11:54:59Z</time>
      </trkpt>
      <trkpt lat="48.04448" lon="7.13331">
        <ele>395.8</ele>
        <time>2025-09-08T11:55:00Z</time>
      </trkpt>
      <trkpt lat="48.04451" lon="7.13334">
        <ele>396</ele>
        <time>2025-09-08T11:55:01Z</time>
      </trkpt>
      <trkpt lat="48.04454" lon="7.13337">
        <ele>396.2</ele>
        <time>2025-09-08T11:55:02Z</time>
      </trkpt>
      <trkpt lat="48.04457" lon="7.13339">
        <ele>396.4</ele>
        <time>2025-09-08T11:55:03Z</time>
      </trkpt>
      <trkpt lat="48.04461" lon="7.13341">
        <ele>396.6</ele>
        <time>2025-09-08T11:55:04Z</time>
      </trkpt>
      <trkpt lat="48.04465" lon="7.13342">
        <ele>396.8</ele>
        <time>2025-09-08T11:55:05Z</time>
      </trkpt>
      <trkpt lat="48.04469" lon="7.13343">
        <ele>396.8</ele>
        <time>2025-09-08T11:55:06Z</time>
      </trkpt>
      <trkpt lat="48.04473" lon="7.13343">
        <ele>397</ele>
        <time>2025-09-08T11:55:07Z</time>
      </trkpt>
      <trkpt lat="48.04475" lon="7.1334">
        <ele>397.2</ele>
        <time>2025-09-08T11:55:08Z</time>
      </trkpt>
      <trkpt lat="48.04477" lon="7.13335">
        <ele>397.4</ele>
        <time>2025-09-08T11:55:09Z</time>
      </trkpt>
      <trkpt lat="48.04478" lon="7.1333">
        <ele>398</ele>
        <time>2025-09-08T11:55:10Z</time>
      </trkpt>
      <trkpt lat="48.0448" lon="7.13325">
        <ele>398.2</ele>
        <time>2025-09-08T11:55:11Z</time>
      </trkpt>
      <trkpt lat="48.04481" lon="7.1332">
        <ele>398.4</ele>
        <time>2025-09-08T11:55:12Z</time>
      </trkpt>
      <trkpt lat="48.04483" lon="7.13315">
        <ele>398.4</ele>
        <time>2025-09-08T11:55:13Z</time>
      </trkpt>
      <trkpt lat="48.04484" lon="7.1331">
        <ele>398.6</ele>
        <time>2025-09-08T11:55:14Z</time>
      </trkpt>
      <trkpt lat="48.04486" lon="7.13305">
        <ele>398.6</ele>
        <time>2025-09-08T11:55:15Z</time>
      </trkpt>
      <trkpt lat="48.04487" lon="7.13299">
        <ele>398.8</ele>
        <time>2025-09-08T11:55:16Z</time>
      </trkpt>
      <trkpt lat="48.04489" lon="7.13293">
        <ele>398.8</ele>
        <time>2025-09-08T11:55:17Z</time>
      </trkpt>
      <trkpt lat="48.0449" lon="7.13288">
        <ele>398.8</ele>
        <time>2025-09-08T11:55:18Z</time>
      </trkpt>
      <trkpt lat="48.04491" lon="7.13283">
        <ele>398.8</ele>
        <time>2025-09-08T11:55:19Z</time>
      </trkpt>
      <trkpt lat="48.04493" lon="7.13277">
        <ele>398.8</ele>
        <time>2025-09-08T11:55:20Z</time>
      </trkpt>
      <trkpt lat="48.04494" lon="7.13271">
        <ele>398.8</ele>
        <time>2025-09-08T11:55:21Z</time>
      </trkpt>
      <trkpt lat="48.04495" lon="7.13265">
        <ele>398.6</ele>
        <time>2025-09-08T11:55:22Z</time>
      </trkpt>
      <trkpt lat="48.04496" lon="7.13259">
        <ele>398.6</ele>
        <time>2025-09-08T11:55:23Z</time>
      </trkpt>
      <trkpt lat="48.04497" lon="7.13252">
        <ele>398.6</ele>
        <time>2025-09-08T11:55:24Z</time>
      </trkpt>
      <trkpt lat="48.04497" lon="7.13246">
        <ele>398.8</ele>
        <time>2025-09-08T11:55:25Z</time>
      </trkpt>
      <trkpt lat="48.04498" lon="7.13239">
        <ele>398.8</ele>
        <time>2025-09-08T11:55:26Z</time>
      </trkpt>
      <trkpt lat="48.04498" lon="7.13233">
        <ele>398.8</ele>
        <time>2025-09-08T11:55:27Z</time>
      </trkpt>
      <trkpt lat="48.04498" lon="7.13227">
        <ele>398.8</ele>
        <time>2025-09-08T11:55:28Z</time>
      </trkpt>
      <trkpt lat="48.04498" lon="7.1322">
        <ele>398.8</ele>
        <time>2025-09-08T11:55:29Z</time>
      </trkpt>
      <trkpt lat="48.04498" lon="7.13214">
        <ele>398.8</ele>
        <time>2025-09-08T11:55:30Z</time>
      </trkpt>
      <trkpt lat="48.04498" lon="7.13208">
        <ele>398.6</ele>
        <time>2025-09-08T11:55:31Z</time>
      </trkpt>
      <trkpt lat="48.04498" lon="7.13201">
        <ele>398.6</ele>
        <time>2025-09-08T11:55:32Z</time>
      </trkpt>
      <trkpt lat="48.04499" lon="7.13194">
        <ele>398.4</ele>
        <time>2025-09-08T11:55:33Z</time>
      </trkpt>
      <trkpt lat="48.04499" lon="7.13186">
        <ele>398.4</ele>
        <time>2025-09-08T11:55:34Z</time>
      </trkpt>
      <trkpt lat="48.045" lon="7.13178">
        <ele>398.2</ele>
        <time>2025-09-08T11:55:35Z</time>
      </trkpt>
      <trkpt lat="48.04501" lon="7.13171">
        <ele>398.2</ele>
        <time>2025-09-08T11:55:36Z</time>
      </trkpt>
      <trkpt lat="48.04502" lon="7.13164">
        <ele>398.2</ele>
        <time>2025-09-08T11:55:37Z</time>
      </trkpt>
      <trkpt lat="48.04503" lon="7.13157">
        <ele>398</ele>
        <time>2025-09-08T11:55:38Z</time>
      </trkpt>
      <trkpt lat="48.04505" lon="7.1315">
        <ele>398</ele>
        <time>2025-09-08T11:55:39Z</time>
      </trkpt>
      <trkpt lat="48.04506" lon="7.13142">
        <ele>398</ele>
        <time>2025-09-08T11:55:40Z</time>
      </trkpt>
      <trkpt lat="48.04507" lon="7.13135">
        <ele>398</ele>
        <time>2025-09-08T11:55:41Z</time>
      </trkpt>
      <trkpt lat="48.04508" lon="7.13127">
        <ele>398</ele>
        <time>2025-09-08T11:55:42Z</time>
      </trkpt>
      <trkpt lat="48.04508" lon="7.1312">
        <ele>398</ele>
        <time>2025-09-08T11:55:43Z</time>
      </trkpt>
      <trkpt lat="48.04509" lon="7.13112">
        <ele>398</ele>
        <time>2025-09-08T11:55:44Z</time>
      </trkpt>
      <trkpt lat="48.04511" lon="7.13105">
        <ele>398.2</ele>
        <time>2025-09-08T11:55:45Z</time>
      </trkpt>
      <trkpt lat="48.04515" lon="7.13101">
        <ele>398.2</ele>
        <time>2025-09-08T11:55:46Z</time>
      </trkpt>
      <trkpt lat="48.04519" lon="7.131">
        <ele>398.2</ele>
        <time>2025-09-08T11:55:47Z</time>
      </trkpt>
      <trkpt lat="48.04524" lon="7.131">
        <ele>398.4</ele>
        <time>2025-09-08T11:55:48Z</time>
      </trkpt>
      <trkpt lat="48.04529" lon="7.131">
        <ele>398.4</ele>
        <time>2025-09-08T11:55:49Z</time>
      </trkpt>
      <trkpt lat="48.04533" lon="7.13099">
        <ele>398.6</ele>
        <time>2025-09-08T11:55:50Z</time>
      </trkpt>
      <trkpt lat="48.04537" lon="7.13096">
        <ele>399</ele>
        <time>2025-09-08T11:55:51Z</time>
      </trkpt>
      <trkpt lat="48.04541" lon="7.13092">
        <ele>399</ele>
        <time>2025-09-08T11:55:52Z</time>
      </trkpt>
      <trkpt lat="48.04544" lon="7.13086">
        <ele>399.4</ele>
        <time>2025-09-08T11:55:53Z</time>
      </trkpt>
      <trkpt lat="48.04547" lon="7.13081">
        <ele>399.6</ele>
        <time>2025-09-08T11:55:54Z</time>
      </trkpt>
      <trkpt lat="48.04549" lon="7.13075">
        <ele>399.8</ele>
        <time>2025-09-08T11:55:55Z</time>
      </trkpt>
      <trkpt lat="48.04552" lon="7.13069">
        <ele>400</ele>
        <time>2025-09-08T11:55:56Z</time>
      </trkpt>
      <trkpt lat="48.04554" lon="7.13062">
        <ele>400.2</ele>
        <time>2025-09-08T11:55:57Z</time>
      </trkpt>
      <trkpt lat="48.04556" lon="7.13056">
        <ele>400.6</ele>
        <time>2025-09-08T11:55:58Z</time>
      </trkpt>
      <trkpt lat="48.04558" lon="7.13049">
        <ele>400.8</ele>
        <time>2025-09-08T11:55:59Z</time>
      </trkpt>
      <trkpt lat="48.0456" lon="7.13043">
        <ele>401</ele>
        <time>2025-09-08T11:56:00Z</time>
      </trkpt>
      <trkpt lat="48.04563" lon="7.13036">
        <ele>401</ele>
        <time>2025-09-08T11:56:01Z</time>
      </trkpt>
      <trkpt lat="48.04565" lon="7.1303">
        <ele>401</ele>
        <time>2025-09-08T11:56:02Z</time>
      </trkpt>
      <trkpt lat="48.04567" lon="7.13024">
        <ele>401.4</ele>
        <time>2025-09-08T11:56:03Z</time>
      </trkpt>
      <trkpt lat="48.0457" lon="7.13018">
        <ele>401.4</ele>
        <time>2025-09-08T11:56:04Z</time>
      </trkpt>
      <trkpt lat="48.04572" lon="7.13013">
        <ele>401.8</ele>
        <time>2025-09-08T11:56:05Z</time>
      </trkpt>
      <trkpt lat="48.04575" lon="7.13007">
        <ele>402</ele>
        <time>2025-09-08T11:56:06Z</time>
      </trkpt>
      <trkpt lat="48.04578" lon="7.13">
        <ele>402</ele>
        <time>2025-09-08T11:56:07Z</time>
      </trkpt>
      <trkpt lat="48.0458" lon="7.12993">
        <ele>402.2</ele>
        <time>2025-09-08T11:56:08Z</time>
      </trkpt>
      <trkpt lat="48.04583" lon="7.12987">
        <ele>402.4</ele>
        <time>2025-09-08T11:56:09Z</time>
      </trkpt>
      <trkpt lat="48.04586" lon="7.12981">
        <ele>402.4</ele>
        <time>2025-09-08T11:56:10Z</time>
      </trkpt>
      <trkpt lat="48.04589" lon="7.12974">
        <ele>402.6</ele>
        <time>2025-09-08T11:56:11Z</time>
      </trkpt>
      <trkpt lat="48.04591" lon="7.12967">
        <ele>402.8</ele>
        <time>2025-09-08T11:56:12Z</time>
      </trkpt>
      <trkpt lat="48.04593" lon="7.12961">
        <ele>403</ele>
        <time>2025-09-08T11:56:13Z</time>
      </trkpt>
      <trkpt lat="48.04594" lon="7.12954">
        <ele>403</ele>
        <time>2025-09-08T11:56:14Z</time>
      </trkpt>
      <trkpt lat="48.04596" lon="7.12947">
        <ele>403</ele>
        <time>2025-09-08T11:56:15Z</time>
      </trkpt>
      <trkpt lat="48.04597" lon="7.1294">
        <ele>403</ele>
        <time>2025-09-08T11:56:16Z</time>
      </trkpt>
      <trkpt lat="48.04599" lon="7.12933">
        <ele>403.2</ele>
        <time>2025-09-08T11:56:17Z</time>
      </trkpt>
      <trkpt lat="48.046" lon="7.12925">
        <ele>403.4</ele>
        <time>2025-09-08T11:56:18Z</time>
      </trkpt>
      <trkpt lat="48.04602" lon="7.12918">
        <ele>403.4</ele>
        <time>2025-09-08T11:56:19Z</time>
      </trkpt>
      <trkpt lat="48.04604" lon="7.12912">
        <ele>403.6</ele>
        <time>2025-09-08T11:56:20Z</time>
      </trkpt>
      <trkpt lat="48.04606" lon="7.12905">
        <ele>403.8</ele>
        <time>2025-09-08T11:56:21Z</time>
      </trkpt>
      <trkpt lat="48.04609" lon="7.12899">
        <ele>404</ele>
        <time>2025-09-08T11:56:22Z</time>
      </trkpt>
      <trkpt lat="48.04612" lon="7.12893">
        <ele>404.2</ele>
        <time>2025-09-08T11:56:23Z</time>
      </trkpt>
      <trkpt lat="48.04615" lon="7.12887">
        <ele>404.4</ele>
        <time>2025-09-08T11:56:24Z</time>
      </trkpt>
      <trkpt lat="48.04619" lon="7.12882">
        <ele>404.6</ele>
        <time>2025-09-08T11:56:25Z</time>
      </trkpt>
      <trkpt lat="48.04623" lon="7.12878">
        <ele>405</ele>
        <time>2025-09-08T11:56:26Z</time>
      </trkpt>
      <trkpt lat="48.04627" lon="7.12875">
        <ele>405</ele>
        <time>2025-09-08T11:56:27Z</time>
      </trkpt>
      <trkpt lat="48.04632" lon="7.12872">
        <ele>405.2</ele>
        <time>2025-09-08T11:56:28Z</time>
      </trkpt>
      <trkpt lat="48.04636" lon="7.1287">
        <ele>405.6</ele>
        <time>2025-09-08T11:56:29Z</time>
      </trkpt>
      <trkpt lat="48.04641" lon="7.12869">
        <ele>405.8</ele>
        <time>2025-09-08T11:56:30Z</time>
      </trkpt>
      <trkpt lat="48.04646" lon="7.12868">
        <ele>406</ele>
        <time>2025-09-08T11:56:31Z</time>
      </trkpt>
      <trkpt lat="48.0465" lon="7.12866">
        <ele>406.2</ele>
        <time>2025-09-08T11:56:32Z</time>
      </trkpt>
      <trkpt lat="48.04655" lon="7.12865">
        <ele>406.2</ele>
        <time>2025-09-08T11:56:33Z</time>
      </trkpt>
      <trkpt lat="48.04658" lon="7.12862">
        <ele>406.8</ele>
        <time>2025-09-08T11:56:34Z</time>
      </trkpt>
      <trkpt lat="48.04662" lon="7.12858">
        <ele>407.2</ele>
        <time>2025-09-08T11:56:35Z</time>
      </trkpt>
      <trkpt lat="48.04666" lon="7.12853">
        <ele>407.6</ele>
        <time>2025-09-08T11:56:36Z</time>
      </trkpt>
      <trkpt lat="48.04669" lon="7.12848">
        <ele>408</ele>
        <time>2025-09-08T11:56:37Z</time>
      </trkpt>
      <trkpt lat="48.04672" lon="7.12843">
        <ele>408.4</ele>
        <time>2025-09-08T11:56:38Z</time>
      </trkpt>
      <trkpt lat="48.04675" lon="7.12838">
        <ele>408.6</ele>
        <time>2025-09-08T11:56:39Z</time>
      </trkpt>
      <trkpt lat="48.04678" lon="7.12832">
        <ele>408.8</ele>
        <time>2025-09-08T11:56:40Z</time>
      </trkpt>
      <trkpt lat="48.04681" lon="7.12827">
        <ele>409</ele>
        <time>2025-09-08T11:56:41Z</time>
      </trkpt>
      <trkpt lat="48.04684" lon="7.12822">
        <ele>409.2</ele>
        <time>2025-09-08T11:56:42Z</time>
      </trkpt>
      <trkpt lat="48.04687" lon="7.12816">
        <ele>409.4</ele>
        <time>2025-09-08T11:56:43Z</time>
      </trkpt>
      <trkpt lat="48.0469" lon="7.12811">
        <ele>409.6</ele>
        <time>2025-09-08T11:56:44Z</time>
      </trkpt>
      <trkpt lat="48.04692" lon="7.12805">
        <ele>409.6</ele>
        <time>2025-09-08T11:56:45Z</time>
      </trkpt>
      <trkpt lat="48.04695" lon="7.12799">
        <ele>409.8</ele>
        <time>2025-09-08T11:56:46Z</time>
      </trkpt>
      <trkpt lat="48.04699" lon="7.12793">
        <ele>410</ele>
        <time>2025-09-08T11:56:47Z</time>
      </trkpt>
      <trkpt lat="48.04702" lon="7.12787">
        <ele>410</ele>
        <time>2025-09-08T11:56:48Z</time>
      </trkpt>
      <trkpt lat="48.04706" lon="7.12781">
        <ele>410</ele>
        <time>2025-09-08T11:56:49Z</time>
      </trkpt>
      <trkpt lat="48.04709" lon="7.12775">
        <ele>410</ele>
        <time>2025-09-08T11:56:50Z</time>
      </trkpt>
      <trkpt lat="48.04712" lon="7.1277">
        <ele>410.2</ele>
        <time>2025-09-08T11:56:51Z</time>
      </trkpt>
      <trkpt lat="48.04715" lon="7.12764">
        <ele>410.2</ele>
        <time>2025-09-08T11:56:52Z</time>
      </trkpt>
      <trkpt lat="48.04718" lon="7.12758">
        <ele>410.4</ele>
        <time>2025-09-08T11:56:53Z</time>
      </trkpt>
      <trkpt lat="48.04721" lon="7.12752">
        <ele>410.4</ele>
        <time>2025-09-08T11:56:54Z</time>
      </trkpt>
      <trkpt lat="48.04724" lon="7.12747">
        <ele>410.4</ele>
        <time>2025-09-08T11:56:55Z</time>
      </trkpt>
      <trkpt lat="48.04727" lon="7.12741">
        <ele>410.6</ele>
        <time>2025-09-08T11:56:56Z</time>
      </trkpt>
      <trkpt lat="48.0473" lon="7.12735">
        <ele>410.8</ele>
        <time>2025-09-08T11:56:57Z</time>
      </trkpt>
      <trkpt lat="48.04733" lon="7.1273">
        <ele>410.8</ele>
        <time>2025-09-08T11:56:58Z</time>
      </trkpt>
      <trkpt lat="48.04736" lon="7.12724">
        <ele>411</ele>
        <time>2025-09-08T11:56:59Z</time>
      </trkpt>
      <trkpt lat="48.04739" lon="7.12718">
        <ele>411.2</ele>
        <time>2025-09-08T11:57:00Z</time>
      </trkpt>
      <trkpt lat="48.04742" lon="7.12711">
        <ele>411.4</ele>
        <time>2025-09-08T11:57:01Z</time>
      </trkpt>
      <trkpt lat="48.04745" lon="7.12705">
        <ele>411.4</ele>
        <time>2025-09-08T11:57:02Z</time>
      </trkpt>
      <trkpt lat="48.04748" lon="7.12699">
        <ele>411.6</ele>
        <time>2025-09-08T11:57:03Z</time>
      </trkpt>
      <trkpt lat="48.04751" lon="7.12693">
        <ele>411.6</ele>
        <time>2025-09-08T11:57:04Z</time>
      </trkpt>
      <trkpt lat="48.04754" lon="7.12688">
        <ele>411.6</ele>
        <time>2025-09-08T11:57:05Z</time>
      </trkpt>
      <trkpt lat="48.04757" lon="7.12682">
        <ele>411.8</ele>
        <time>2025-09-08T11:57:06Z</time>
      </trkpt>
      <trkpt lat="48.0476" lon="7.12677">
        <ele>412</ele>
        <time>2025-09-08T11:57:07Z</time>
      </trkpt>
      <trkpt lat="48.04763" lon="7.12671">
        <ele>412</ele>
        <time>2025-09-08T11:57:08Z</time>
      </trkpt>
      <trkpt lat="48.04766" lon="7.12666">
        <ele>412.2</ele>
        <time>2025-09-08T11:57:09Z</time>
      </trkpt>
      <trkpt lat="48.04769" lon="7.12661">
        <ele>412.2</ele>
        <time>2025-09-08T11:57:10Z</time>
      </trkpt>
      <trkpt lat="48.04772" lon="7.12655">
        <ele>412.2</ele>
        <time>2025-09-08T11:57:11Z</time>
      </trkpt>
      <trkpt lat="48.04775" lon="7.12649">
        <ele>412.4</ele>
        <time>2025-09-08T11:57:12Z</time>
      </trkpt>
      <trkpt lat="48.04778" lon="7.12644">
        <ele>412.8</ele>
        <time>2025-09-08T11:57:13Z</time>
      </trkpt>
      <trkpt lat="48.04781" lon="7.12639">
        <ele>413</ele>
        <time>2025-09-08T11:57:14Z</time>
      </trkpt>
      <trkpt lat="48.04784" lon="7.12635">
        <ele>413</ele>
        <time>2025-09-08T11:57:15Z</time>
      </trkpt>
      <trkpt lat="48.04788" lon="7.12631">
        <ele>413.2</ele>
        <time>2025-09-08T11:57:16Z</time>
      </trkpt>
      <trkpt lat="48.04791" lon="7.12626">
        <ele>413.4</ele>
        <time>2025-09-08T11:57:17Z</time>
      </trkpt>
      <trkpt lat="48.04794" lon="7.12622">
        <ele>413.6</ele>
        <time>2025-09-08T11:57:18Z</time>
      </trkpt>
      <trkpt lat="48.04798" lon="7.12619">
        <ele>413.6</ele>
        <time>2025-09-08T11:57:19Z</time>
      </trkpt>
      <trkpt lat="48.048" lon="7.12615">
        <ele>414</ele>
        <time>2025-09-08T11:57:20Z</time>
      </trkpt>
      <trkpt lat="48.04803" lon="7.1261">
        <ele>414.2</ele>
        <time>2025-09-08T11:57:21Z</time>
      </trkpt>
      <trkpt lat="48.04806" lon="7.12605">
        <ele>414.4</ele>
        <time>2025-09-08T11:57:22Z</time>
      </trkpt>
      <trkpt lat="48.04809" lon="7.12601">
        <ele>414.8</ele>
        <time>2025-09-08T11:57:23Z</time>
      </trkpt>
      <trkpt lat="48.04812" lon="7.12596">
        <ele>415</ele>
        <time>2025-09-08T11:57:24Z</time>
      </trkpt>
      <trkpt lat="48.04814" lon="7.12591">
        <ele>415.2</ele>
        <time>2025-09-08T11:57:25Z</time>
      </trkpt>
      <trkpt lat="48.04816" lon="7.12586">
        <ele>415.4</ele>
        <time>2025-09-08T11:57:26Z</time>
      </trkpt>
      <trkpt lat="48.04819" lon="7.12581">
        <ele>415.6</ele>
        <time>2025-09-08T11:57:27Z</time>
      </trkpt>
      <trkpt lat="48.04821" lon="7.12576">
        <ele>415.8</ele>
        <time>2025-09-08T11:57:28Z</time>
      </trkpt>
      <trkpt lat="48.04824" lon="7.12571">
        <ele>416.2</ele>
        <time>2025-09-08T11:57:29Z</time>
      </trkpt>
      <trkpt lat="48.04826" lon="7.12565">
        <ele>416.4</ele>
        <time>2025-09-08T11:57:30Z</time>
      </trkpt>
      <trkpt lat="48.04829" lon="7.1256">
        <ele>416.6</ele>
        <time>2025-09-08T11:57:31Z</time>
      </trkpt>
      <trkpt lat="48.04831" lon="7.12556">
        <ele>416.8</ele>
        <time>2025-09-08T11:57:32Z</time>
      </trkpt>
      <trkpt lat="48.04834" lon="7.12553">
        <ele>417.2</ele>
        <time>2025-09-08T11:57:33Z</time>
      </trkpt>
      <trkpt lat="48.04836" lon="7.12548">
        <ele>417.6</ele>
        <time>2025-09-08T11:57:34Z</time>
      </trkpt>
      <trkpt lat="48.04839" lon="7.12544">
        <ele>418</ele>
        <time>2025-09-08T11:57:35Z</time>
      </trkpt>
      <trkpt lat="48.04841" lon="7.1254">
        <ele>418.4</ele>
        <time>2025-09-08T11:57:36Z</time>
      </trkpt>
      <trkpt lat="48.04843" lon="7.12536">
        <ele>418.6</ele>
        <time>2025-09-08T11:57:37Z</time>
      </trkpt>
      <trkpt lat="48.04845" lon="7.12533">
        <ele>419.2</ele>
        <time>2025-09-08T11:57:38Z</time>
      </trkpt>
      <trkpt lat="48.04847" lon="7.12529">
        <ele>419.8</ele>
        <time>2025-09-08T11:57:39Z</time>
      </trkpt>
      <trkpt lat="48.04849" lon="7.12525">
        <ele>420.2</ele>
        <time>2025-09-08T11:57:40Z</time>
      </trkpt>
      <trkpt lat="48.04851" lon="7.12521">
        <ele>420.8</ele>
        <time>2025-09-08T11:57:41Z</time>
      </trkpt>
      <trkpt lat="48.04853" lon="7.12517">
        <ele>421.4</ele>
        <time>2025-09-08T11:57:42Z</time>
      </trkpt>
      <trkpt lat="48.04855" lon="7.12512">
        <ele>421.8</ele>
        <time>2025-09-08T11:57:43Z</time>
      </trkpt>
      <trkpt lat="48.04857" lon="7.12509">
        <ele>422.6</ele>
        <time>2025-09-08T11:57:44Z</time>
      </trkpt>
      <trkpt lat="48.04859" lon="7.12505">
        <ele>423</ele>
        <time>2025-09-08T11:57:45Z</time>
      </trkpt>
      <trkpt lat="48.04861" lon="7.12502">
        <ele>423.8</ele>
        <time>2025-09-08T11:57:46Z</time>
      </trkpt>
      <trkpt lat="48.04864" lon="7.12499">
        <ele>424.2</ele>
        <time>2025-09-08T11:57:47Z</time>
      </trkpt>
      <trkpt lat="48.04866" lon="7.12496">
        <ele>425</ele>
        <time>2025-09-08T11:57:48Z</time>
      </trkpt>
      <trkpt lat="48.04868" lon="7.12493">
        <ele>425.6</ele>
        <time>2025-09-08T11:57:49Z</time>
      </trkpt>
      <trkpt lat="48.04871" lon="7.12489">
        <ele>426.2</ele>
        <time>2025-09-08T11:57:50Z</time>
      </trkpt>
      <trkpt lat="48.04873" lon="7.12486">
        <ele>426.8</ele>
        <time>2025-09-08T11:57:51Z</time>
      </trkpt>
      <trkpt lat="48.04875" lon="7.12482">
        <ele>427.4</ele>
        <time>2025-09-08T11:57:52Z</time>
      </trkpt>
      <trkpt lat="48.04877" lon="7.12477">
        <ele>427.8</ele>
        <time>2025-09-08T11:57:53Z</time>
      </trkpt>
      <trkpt lat="48.04879" lon="7.12473">
        <ele>428.4</ele>
        <time>2025-09-08T11:57:54Z</time>
      </trkpt>
      <trkpt lat="48.0488" lon="7.12468">
        <ele>429</ele>
        <time>2025-09-08T11:57:55Z</time>
      </trkpt>
      <trkpt lat="48.04881" lon="7.12463">
        <ele>429.6</ele>
        <time>2025-09-08T11:57:56Z</time>
      </trkpt>
      <trkpt lat="48.04882" lon="7.12458">
        <ele>430.2</ele>
        <time>2025-09-08T11:57:57Z</time>
      </trkpt>
      <trkpt lat="48.04883" lon="7.12454">
        <ele>430.6</ele>
        <time>2025-09-08T11:57:58Z</time>
      </trkpt>
      <trkpt lat="48.04884" lon="7.12449">
        <ele>431.2</ele>
        <time>2025-09-08T11:57:59Z</time>
      </trkpt>
      <trkpt lat="48.04885" lon="7.12444">
        <ele>431.6</ele>
        <time>2025-09-08T11:58:00Z</time>
      </trkpt>
      <trkpt lat="48.04886" lon="7.12439">
        <ele>431.8</ele>
        <time>2025-09-08T11:58:01Z</time>
      </trkpt>
      <trkpt lat="48.04886" lon="7.12434">
        <ele>432.2</ele>
        <time>2025-09-08T11:58:02Z</time>
      </trkpt>
      <trkpt lat="48.04888" lon="7.12429">
        <ele>433.2</ele>
        <time>2025-09-08T11:58:03Z</time>
      </trkpt>
      <trkpt lat="48.04888" lon="7.12424">
        <ele>434.2</ele>
        <time>2025-09-08T11:58:04Z</time>
      </trkpt>
      <trkpt lat="48.04889" lon="7.12418">
        <ele>434.4</ele>
        <time>2025-09-08T11:58:05Z</time>
      </trkpt>
      <trkpt lat="48.0489" lon="7.12413">
        <ele>434.6</ele>
        <time>2025-09-08T11:58:06Z</time>
      </trkpt>
      <trkpt lat="48.04891" lon="7.12407">
        <ele>435</ele>
        <time>2025-09-08T11:58:07Z</time>
      </trkpt>
      <trkpt lat="48.04891" lon="7.12402">
        <ele>435.2</ele>
        <time>2025-09-08T11:58:08Z</time>
      </trkpt>
      <trkpt lat="48.04892" lon="7.12396">
        <ele>435.2</ele>
        <time>2025-09-08T11:58:09Z</time>
      </trkpt>
      <trkpt lat="48.04893" lon="7.1239">
        <ele>435.4</ele>
        <time>2025-09-08T11:58:10Z</time>
      </trkpt>
      <trkpt lat="48.04894" lon="7.12385">
        <ele>436</ele>
        <time>2025-09-08T11:58:11Z</time>
      </trkpt>
      <trkpt lat="48.04895" lon="7.12379">
        <ele>436.4</ele>
        <time>2025-09-08T11:58:12Z</time>
      </trkpt>
      <trkpt lat="48.04896" lon="7.12374">
        <ele>436.8</ele>
        <time>2025-09-08T11:58:13Z</time>
      </trkpt>
      <trkpt lat="48.04897" lon="7.12369">
        <ele>437</ele>
        <time>2025-09-08T11:58:14Z</time>
      </trkpt>
      <trkpt lat="48.04897" lon="7.12363">
        <ele>437.2</ele>
        <time>2025-09-08T11:58:15Z</time>
      </trkpt>
      <trkpt lat="48.04898" lon="7.12358">
        <ele>437.4</ele>
        <time>2025-09-08T11:58:16Z</time>
      </trkpt>
      <trkpt lat="48.04899" lon="7.12353">
        <ele>437.8</ele>
        <time>2025-09-08T11:58:17Z</time>
      </trkpt>
      <trkpt lat="48.04901" lon="7.12348">
        <ele>437.8</ele>
        <time>2025-09-08T11:58:18Z</time>
      </trkpt>
      <trkpt lat="48.04902" lon="7.12343">
        <ele>438</ele>
        <time>2025-09-08T11:58:19Z</time>
      </trkpt>
      <trkpt lat="48.04904" lon="7.12338">
        <ele>438.8</ele>
        <time>2025-09-08T11:58:20Z</time>
      </trkpt>
      <trkpt lat="48.04906" lon="7.12333">
        <ele>439.2</ele>
        <time>2025-09-08T11:58:21Z</time>
      </trkpt>
      <trkpt lat="48.04908" lon="7.12329">
        <ele>439.8</ele>
        <time>2025-09-08T11:58:22Z</time>
      </trkpt>
      <trkpt lat="48.04909" lon="7.12325">
        <ele>440.2</ele>
        <time>2025-09-08T11:58:23Z</time>
      </trkpt>
      <trkpt lat="48.04911" lon="7.12321">
        <ele>440.8</ele>
        <time>2025-09-08T11:58:24Z</time>
      </trkpt>
      <trkpt lat="48.04913" lon="7.12316">
        <ele>441.4</ele>
        <time>2025-09-08T11:58:25Z</time>
      </trkpt>
      <trkpt lat="48.04916" lon="7.12312">
        <ele>442</ele>
        <time>2025-09-08T11:58:26Z</time>
      </trkpt>
      <trkpt lat="48.04918" lon="7.12309">
        <ele>442.8</ele>
        <time>2025-09-08T11:58:27Z</time>
      </trkpt>
      <trkpt lat="48.04921" lon="7.12306">
        <ele>443.2</ele>
        <time>2025-09-08T11:58:28Z</time>
      </trkpt>
      <trkpt lat="48.04924" lon="7.12303">
        <ele>443.8</ele>
        <time>2025-09-08T11:58:29Z</time>
      </trkpt>
      <trkpt lat="48.04926" lon="7.12301">
        <ele>444.2</ele>
        <time>2025-09-08T11:58:30Z</time>
      </trkpt>
      <trkpt lat="48.04929" lon="7.12298">
        <ele>444.8</ele>
        <time>2025-09-08T11:58:31Z</time>
      </trkpt>
      <trkpt lat="48.04933" lon="7.12296">
        <ele>445.4</ele>
        <time>2025-09-08T11:58:32Z</time>
      </trkpt>
      <trkpt lat="48.04936" lon="7.12293">
        <ele>445.8</ele>
        <time>2025-09-08T11:58:33Z</time>
      </trkpt>
      <trkpt lat="48.0494" lon="7.12291">
        <ele>446.2</ele>
        <time>2025-09-08T11:58:34Z</time>
      </trkpt>
      <trkpt lat="48.04943" lon="7.12289">
        <ele>446.4</ele>
        <time>2025-09-08T11:58:35Z</time>
      </trkpt>
      <trkpt lat="48.04947" lon="7.12286">
        <ele>446.8</ele>
        <time>2025-09-08T11:58:36Z</time>
      </trkpt>
      <trkpt lat="48.0495" lon="7.12283">
        <ele>447</ele>
        <time>2025-09-08T11:58:37Z</time>
      </trkpt>
      <trkpt lat="48.04953" lon="7.12281">
        <ele>447.2</ele>
        <time>2025-09-08T11:58:38Z</time>
      </trkpt>
      <trkpt lat="48.04957" lon="7.12278">
        <ele>447.4</ele>
        <time>2025-09-08T11:58:39Z</time>
      </trkpt>
      <trkpt lat="48.0496" lon="7.12275">
        <ele>447.6</ele>
        <time>2025-09-08T11:58:40Z</time>
      </trkpt>
      <trkpt lat="48.04963" lon="7.12272">
        <ele>448</ele>
        <time>2025-09-08T11:58:41Z</time>
      </trkpt>
      <trkpt lat="48.04965" lon="7.12268">
        <ele>448.2</ele>
        <time>2025-09-08T11:58:42Z</time>
      </trkpt>
      <trkpt lat="48.04968" lon="7.12264">
        <ele>448.4</ele>
        <time>2025-09-08T11:58:43Z</time>
      </trkpt>
      <trkpt lat="48.0497" lon="7.12261">
        <ele>448.6</ele>
        <time>2025-09-08T11:58:44Z</time>
      </trkpt>
      <trkpt lat="48.04971" lon="7.12256">
        <ele>449</ele>
        <time>2025-09-08T11:58:45Z</time>
      </trkpt>
      <trkpt lat="48.04972" lon="7.12252">
        <ele>449.6</ele>
        <time>2025-09-08T11:58:46Z</time>
      </trkpt>
      <trkpt lat="48.04973" lon="7.12247">
        <ele>450</ele>
        <time>2025-09-08T11:58:47Z</time>
      </trkpt>
      <trkpt lat="48.04974" lon="7.12241">
        <ele>450.4</ele>
        <time>2025-09-08T11:58:48Z</time>
      </trkpt>
      <trkpt lat="48.04974" lon="7.12236">
        <ele>451</ele>
        <time>2025-09-08T11:58:49Z</time>
      </trkpt>
      <trkpt lat="48.04975" lon="7.12231">
        <ele>451.4</ele>
        <time>2025-09-08T11:58:50Z</time>
      </trkpt>
      <trkpt lat="48.04976" lon="7.12226">
        <ele>451.6</ele>
        <time>2025-09-08T11:58:51Z</time>
      </trkpt>
      <trkpt lat="48.04977" lon="7.12221">
        <ele>452.2</ele>
        <time>2025-09-08T11:58:52Z</time>
      </trkpt>
      <trkpt lat="48.04978" lon="7.12216">
        <ele>452.6</ele>
        <time>2025-09-08T11:58:53Z</time>
      </trkpt>
      <trkpt lat="48.04981" lon="7.12212">
        <ele>453.2</ele>
        <time>2025-09-08T11:58:54Z</time>
      </trkpt>
      <trkpt lat="48.04983" lon="7.12209">
        <ele>453.4</ele>
        <time>2025-09-08T11:58:55Z</time>
      </trkpt>
      <trkpt lat="48.04986" lon="7.12206">
        <ele>454</ele>
        <time>2025-09-08T11:58:56Z</time>
      </trkpt>
      <trkpt lat="48.04989" lon="7.12204">
        <ele>454.2</ele>
        <time>2025-09-08T11:58:57Z</time>
      </trkpt>
      <trkpt lat="48.04992" lon="7.12203">
        <ele>454.6</ele>
        <time>2025-09-08T11:58:58Z</time>
      </trkpt>
      <trkpt lat="48.04996" lon="7.12202">
        <ele>455</ele>
        <time>2025-09-08T11:58:59Z</time>
      </trkpt>
      <trkpt lat="48.04999" lon="7.122">
        <ele>455.4</ele>
        <time>2025-09-08T11:59:00Z</time>
      </trkpt>
      <trkpt lat="48.05003" lon="7.12199">
        <ele>455.8</ele>
        <time>2025-09-08T11:59:01Z</time>
      </trkpt>
      <trkpt lat="48.05007" lon="7.12198">
        <ele>456</ele>
        <time>2025-09-08T11:59:02Z</time>
      </trkpt>
      <trkpt lat="48.05011" lon="7.12199">
        <ele>456</ele>
        <time>2025-09-08T11:59:03Z</time>
      </trkpt>
      <trkpt lat="48.05014" lon="7.122">
        <ele>456.2</ele>
        <time>2025-09-08T11:59:04Z</time>
      </trkpt>
      <trkpt lat="48.05018" lon="7.12202">
        <ele>456.4</ele>
        <time>2025-09-08T11:59:05Z</time>
      </trkpt>
      <trkpt lat="48.05022" lon="7.12203">
        <ele>456.4</ele>
        <time>2025-09-08T11:59:06Z</time>
      </trkpt>
      <trkpt lat="48.05025" lon="7.12206">
        <ele>456.6</ele>
        <time>2025-09-08T11:59:07Z</time>
      </trkpt>
      <trkpt lat="48.05029" lon="7.12208">
        <ele>456.6</ele>
        <time>2025-09-08T11:59:08Z</time>
      </trkpt>
      <trkpt lat="48.05033" lon="7.1221">
        <ele>456.8</ele>
        <time>2025-09-08T11:59:09Z</time>
      </trkpt>
      <trkpt lat="48.05037" lon="7.12212">
        <ele>456.8</ele>
        <time>2025-09-08T11:59:10Z</time>
      </trkpt>
      <trkpt lat="48.05041" lon="7.12214">
        <ele>457</ele>
        <time>2025-09-08T11:59:11Z</time>
      </trkpt>
      <trkpt lat="48.05045" lon="7.12216">
        <ele>457.2</ele>
        <time>2025-09-08T11:59:12Z</time>
      </trkpt>
      <trkpt lat="48.05048" lon="7.12219">
        <ele>457.2</ele>
        <time>2025-09-08T11:59:13Z</time>
      </trkpt>
      <trkpt lat="48.05052" lon="7.12221">
        <ele>457.2</ele>
        <time>2025-09-08T11:59:14Z</time>
      </trkpt>
      <trkpt lat="48.05056" lon="7.12223">
        <ele>457.4</ele>
        <time>2025-09-08T11:59:15Z</time>
      </trkpt>
      <trkpt lat="48.0506" lon="7.12225">
        <ele>457.4</ele>
        <time>2025-09-08T11:59:16Z</time>
      </trkpt>
      <trkpt lat="48.05064" lon="7.12228">
        <ele>457.4</ele>
        <time>2025-09-08T11:59:17Z</time>
      </trkpt>
      <trkpt lat="48.05067" lon="7.1223">
        <ele>457.6</ele>
        <time>2025-09-08T11:59:18Z</time>
      </trkpt>
      <trkpt lat="48.05071" lon="7.12233">
        <ele>457.6</ele>
        <time>2025-09-08T11:59:19Z</time>
      </trkpt>
      <trkpt lat="48.05075" lon="7.12236">
        <ele>457.6</ele>
        <time>2025-09-08T11:59:20Z</time>
      </trkpt>
      <trkpt lat="48.0508" lon="7.1224">
        <ele>457.4</ele>
        <time>2025-09-08T11:59:21Z</time>
      </trkpt>
      <trkpt lat="48.05084" lon="7.12244">
        <ele>457.4</ele>
        <time>2025-09-08T11:59:22Z</time>
      </trkpt>
      <trkpt lat="48.05089" lon="7.12248">
        <ele>457.2</ele>
        <time>2025-09-08T11:59:23Z</time>
      </trkpt>
      <trkpt lat="48.05093" lon="7.12252">
        <ele>457</ele>
        <time>2025-09-08T11:59:24Z</time>
      </trkpt>
      <trkpt lat="48.05099" lon="7.12255">
        <ele>456.6</ele>
        <time>2025-09-08T11:59:25Z</time>
      </trkpt>
      <trkpt lat="48.05104" lon="7.12258">
        <ele>456.6</ele>
        <time>2025-09-08T11:59:26Z</time>
      </trkpt>
      <trkpt lat="48.05109" lon="7.12261">
        <ele>456.2</ele>
        <time>2025-09-08T11:59:27Z</time>
      </trkpt>
      <trkpt lat="48.05115" lon="7.12264">
        <ele>456.2</ele>
        <time>2025-09-08T11:59:28Z</time>
      </trkpt>
      <trkpt lat="48.0512" lon="7.12268">
        <ele>456</ele>
        <time>2025-09-08T11:59:29Z</time>
      </trkpt>
      <trkpt lat="48.05126" lon="7.12272">
        <ele>455.8</ele>
        <time>2025-09-08T11:59:30Z</time>
      </trkpt>
      <trkpt lat="48.05131" lon="7.12276">
        <ele>455.6</ele>
        <time>2025-09-08T11:59:31Z</time>
      </trkpt>
      <trkpt lat="48.05136" lon="7.1228">
        <ele>455.4</ele>
        <time>2025-09-08T11:59:32Z</time>
      </trkpt>
      <trkpt lat="48.05141" lon="7.12284">
        <ele>455</ele>
        <time>2025-09-08T11:59:33Z</time>
      </trkpt>
      <trkpt lat="48.05146" lon="7.12289">
        <ele>454.8</ele>
        <time>2025-09-08T11:59:34Z</time>
      </trkpt>
      <trkpt lat="48.05151" lon="7.12294">
        <ele>454.8</ele>
        <time>2025-09-08T11:59:35Z</time>
      </trkpt>
      <trkpt lat="48.05156" lon="7.123">
        <ele>454.6</ele>
        <time>2025-09-08T11:59:36Z</time>
      </trkpt>
      <trkpt lat="48.05161" lon="7.12305">
        <ele>454.2</ele>
        <time>2025-09-08T11:59:37Z</time>
      </trkpt>
      <trkpt lat="48.05166" lon="7.12311">
        <ele>454</ele>
        <time>2025-09-08T11:59:38Z</time>
      </trkpt>
      <trkpt lat="48.05171" lon="7.12316">
        <ele>453.8</ele>
        <time>2025-09-08T11:59:39Z</time>
      </trkpt>
      <trkpt lat="48.05176" lon="7.12319">
        <ele>453.6</ele>
        <time>2025-09-08T11:59:40Z</time>
      </trkpt>
      <trkpt lat="48.05181" lon="7.12321">
        <ele>453.4</ele>
        <time>2025-09-08T11:59:41Z</time>
      </trkpt>
      <trkpt lat="48.05186" lon="7.12323">
        <ele>453.4</ele>
        <time>2025-09-08T11:59:42Z</time>
      </trkpt>
      <trkpt lat="48.05191" lon="7.12325">
        <ele>453.4</ele>
        <time>2025-09-08T11:59:43Z</time>
      </trkpt>
      <trkpt lat="48.05194" lon="7.12327">
        <ele>453.4</ele>
        <time>2025-09-08T11:59:44Z</time>
      </trkpt>
      <trkpt lat="48.05198" lon="7.12329">
        <ele>453.4</ele>
        <time>2025-09-08T11:59:45Z</time>
      </trkpt>
      <trkpt lat="48.05201" lon="7.12332">
        <ele>453.4</ele>
        <time>2025-09-08T11:59:46Z</time>
      </trkpt>
      <trkpt lat="48.05204" lon="7.12336">
        <ele>453.8</ele>
        <time>2025-09-08T11:59:47Z</time>
      </trkpt>
      <trkpt lat="48.05208" lon="7.12339">
        <ele>454</ele>
        <time>2025-09-08T11:59:48Z</time>
      </trkpt>
      <trkpt lat="48.05211" lon="7.12343">
        <ele>454.2</ele>
        <time>2025-09-08T11:59:49Z</time>
      </trkpt>
      <trkpt lat="48.05214" lon="7.12347">
        <ele>454.6</ele>
        <time>2025-09-08T11:59:50Z</time>
      </trkpt>
      <trkpt lat="48.05217" lon="7.12351">
        <ele>454.8</ele>
        <time>2025-09-08T11:59:51Z</time>
      </trkpt>
      <trkpt lat="48.0522" lon="7.12354">
        <ele>455.2</ele>
        <time>2025-09-08T11:59:52Z</time>
      </trkpt>
      <trkpt lat="48.05223" lon="7.12358">
        <ele>455.6</ele>
        <time>2025-09-08T11:59:53Z</time>
      </trkpt>
      <trkpt lat="48.05226" lon="7.12363">
        <ele>455.8</ele>
        <time>2025-09-08T11:59:54Z</time>
      </trkpt>
      <trkpt lat="48.05229" lon="7.12367">
        <ele>456.2</ele>
        <time>2025-09-08T11:59:55Z</time>
      </trkpt>
      <trkpt lat="48.05231" lon="7.12372">
        <ele>456.6</ele>
        <time>2025-09-08T11:59:56Z</time>
      </trkpt>
      <trkpt lat="48.05233" lon="7.12376">
        <ele>457</ele>
        <time>2025-09-08T11:59:57Z</time>
      </trkpt>
      <trkpt lat="48.05235" lon="7.12381">
        <ele>457.2</ele>
        <time>2025-09-08T11:59:58Z</time>
      </trkpt>
      <trkpt lat="48.05237" lon="7.12386">
        <ele>457.8</ele>
        <time>2025-09-08T11:59:59Z</time>
      </trkpt>
      <trkpt lat="48.05239" lon="7.12391">
        <ele>458</ele>
        <time>2025-09-08T12:00:00Z</time>
      </trkpt>
      <trkpt lat="48.05241" lon="7.12395">
        <ele>458.4</ele>
        <time>2025-09-08T12:00:01Z</time>
      </trkpt>
      <trkpt lat="48.05243" lon="7.12401">
        <ele>458.8</ele>
        <time>2025-09-08T12:00:02Z</time>
      </trkpt>
      <trkpt lat="48.05245" lon="7.12406">
        <ele>459.2</ele>
        <time>2025-09-08T12:00:03Z</time>
      </trkpt>
      <trkpt lat="48.05247" lon="7.1241">
        <ele>459.4</ele>
        <time>2025-09-08T12:00:04Z</time>
      </trkpt>
      <trkpt lat="48.0525" lon="7.12415">
        <ele>459.8</ele>
        <time>2025-09-08T12:00:05Z</time>
      </trkpt>
      <trkpt lat="48.05253" lon="7.12419">
        <ele>460.2</ele>
        <time>2025-09-08T12:00:06Z</time>
      </trkpt>
      <trkpt lat="48.05256" lon="7.12423">
        <ele>460.4</ele>
        <time>2025-09-08T12:00:07Z</time>
      </trkpt>
      <trkpt lat="48.0526" lon="7.12425">
        <ele>460.8</ele>
        <time>2025-09-08T12:00:08Z</time>
      </trkpt>
      <trkpt lat="48.05263" lon="7.12428">
        <ele>461.2</ele>
        <time>2025-09-08T12:00:09Z</time>
      </trkpt>
      <trkpt lat="48.05267" lon="7.12429">
        <ele>461.6</ele>
        <time>2025-09-08T12:00:10Z</time>
      </trkpt>
      <trkpt lat="48.05271" lon="7.1243">
        <ele>462</ele>
        <time>2025-09-08T12:00:11Z</time>
      </trkpt>
      <trkpt lat="48.05275" lon="7.12429">
        <ele>462.4</ele>
        <time>2025-09-08T12:00:12Z</time>
      </trkpt>
      <trkpt lat="48.05279" lon="7.12427">
        <ele>462.6</ele>
        <time>2025-09-08T12:00:13Z</time>
      </trkpt>
      <trkpt lat="48.05283" lon="7.12425">
        <ele>462.8</ele>
        <time>2025-09-08T12:00:14Z</time>
      </trkpt>
      <trkpt lat="48.05286" lon="7.12421">
        <ele>463</ele>
        <time>2025-09-08T12:00:15Z</time>
      </trkpt>
      <trkpt lat="48.0529" lon="7.12418">
        <ele>463.4</ele>
        <time>2025-09-08T12:00:16Z</time>
      </trkpt>
      <trkpt lat="48.05293" lon="7.12413">
        <ele>463.8</ele>
        <time>2025-09-08T12:00:17Z</time>
      </trkpt>
      <trkpt lat="48.05296" lon="7.12409">
        <ele>464</ele>
        <time>2025-09-08T12:00:18Z</time>
      </trkpt>
      <trkpt lat="48.05298" lon="7.12403">
        <ele>464.2</ele>
        <time>2025-09-08T12:00:19Z</time>
      </trkpt>
      <trkpt lat="48.053" lon="7.12398">
        <ele>464.6</ele>
        <time>2025-09-08T12:00:20Z</time>
      </trkpt>
      <trkpt lat="48.05303" lon="7.12393">
        <ele>464.8</ele>
        <time>2025-09-08T12:00:21Z</time>
      </trkpt>
      <trkpt lat="48.05305" lon="7.12389">
        <ele>465</ele>
        <time>2025-09-08T12:00:22Z</time>
      </trkpt>
      <trkpt lat="48.05307" lon="7.12384">
        <ele>465.2</ele>
        <time>2025-09-08T12:00:23Z</time>
      </trkpt>
      <trkpt lat="48.0531" lon="7.1238">
        <ele>465.6</ele>
        <time>2025-09-08T12:00:24Z</time>
      </trkpt>
      <trkpt lat="48.05313" lon="7.12376">
        <ele>466</ele>
        <time>2025-09-08T12:00:25Z</time>
      </trkpt>
      <trkpt lat="48.05316" lon="7.12372">
        <ele>466.4</ele>
        <time>2025-09-08T12:00:26Z</time>
      </trkpt>
      <trkpt lat="48.05319" lon="7.12368">
        <ele>466.6</ele>
        <time>2025-09-08T12:00:27Z</time>
      </trkpt>
      <trkpt lat="48.05322" lon="7.12365">
        <ele>467</ele>
        <time>2025-09-08T12:00:28Z</time>
      </trkpt>
      <trkpt lat="48.05325" lon="7.12361">
        <ele>467.2</ele>
        <time>2025-09-08T12:00:29Z</time>
      </trkpt>
      <trkpt lat="48.05329" lon="7.12357">
        <ele>467.6</ele>
        <time>2025-09-08T12:00:30Z</time>
      </trkpt>
      <trkpt lat="48.05331" lon="7.12353">
        <ele>468</ele>
        <time>2025-09-08T12:00:31Z</time>
      </trkpt>
      <trkpt lat="48.05335" lon="7.12349">
        <ele>468.4</ele>
        <time>2025-09-08T12:00:32Z</time>
      </trkpt>
      <trkpt lat="48.05338" lon="7.12346">
        <ele>468.6</ele>
        <time>2025-09-08T12:00:33Z</time>
      </trkpt>
      <trkpt lat="48.05341" lon="7.12342">
        <ele>469</ele>
        <time>2025-09-08T12:00:34Z</time>
      </trkpt>
      <trkpt lat="48.05344" lon="7.12339">
        <ele>469.4</ele>
        <time>2025-09-08T12:00:35Z</time>
      </trkpt>
      <trkpt lat="48.05347" lon="7.12335">
        <ele>469.8</ele>
        <time>2025-09-08T12:00:36Z</time>
      </trkpt>
      <trkpt lat="48.0535" lon="7.12332">
        <ele>470</ele>
        <time>2025-09-08T12:00:37Z</time>
      </trkpt>
      <trkpt lat="48.05353" lon="7.12328">
        <ele>470.2</ele>
        <time>2025-09-08T12:00:38Z</time>
      </trkpt>
      <trkpt lat="48.05357" lon="7.12324">
        <ele>470.6</ele>
        <time>2025-09-08T12:00:39Z</time>
      </trkpt>
      <trkpt lat="48.0536" lon="7.1232">
        <ele>470.8</ele>
        <time>2025-09-08T12:00:40Z</time>
      </trkpt>
      <trkpt lat="48.05363" lon="7.12317">
        <ele>471.2</ele>
        <time>2025-09-08T12:00:41Z</time>
      </trkpt>
      <trkpt lat="48.05366" lon="7.12313">
        <ele>471.4</ele>
        <time>2025-09-08T12:00:42Z</time>
      </trkpt>
      <trkpt lat="48.05369" lon="7.1231">
        <ele>471.8</ele>
        <time>2025-09-08T12:00:43Z</time>
      </trkpt>
      <trkpt lat="48.05372" lon="7.12306">
        <ele>472.2</ele>
        <time>2025-09-08T12:00:44Z</time>
      </trkpt>
      <trkpt lat="48.05376" lon="7.12302">
        <ele>472.4</ele>
        <time>2025-09-08T12:00:45Z</time>
      </trkpt>
      <trkpt lat="48.05379" lon="7.12299">
        <ele>472.8</ele>
        <time>2025-09-08T12:00:46Z</time>
      </trkpt>
      <trkpt lat="48.05382" lon="7.12296">
        <ele>473.2</ele>
        <time>2025-09-08T12:00:47Z</time>
      </trkpt>
      <trkpt lat="48.05385" lon="7.12292">
        <ele>473.6</ele>
        <time>2025-09-08T12:00:48Z</time>
      </trkpt>
      <trkpt lat="48.05389" lon="7.12288">
        <ele>474</ele>
        <time>2025-09-08T12:00:49Z</time>
      </trkpt>
      <trkpt lat="48.05392" lon="7.12285">
        <ele>474.2</ele>
        <time>2025-09-08T12:00:50Z</time>
      </trkpt>
      <trkpt lat="48.05396" lon="7.12283">
        <ele>474.6</ele>
        <time>2025-09-08T12:00:51Z</time>
      </trkpt>
      <trkpt lat="48.05399" lon="7.12281">
        <ele>474.8</ele>
        <time>2025-09-08T12:00:52Z</time>
      </trkpt>
      <trkpt lat="48.05403" lon="7.12281">
        <ele>475.4</ele>
        <time>2025-09-08T12:00:53Z</time>
      </trkpt>
      <trkpt lat="48.05406" lon="7.12283">
        <ele>475.8</ele>
        <time>2025-09-08T12:00:54Z</time>
      </trkpt>
      <trkpt lat="48.05409" lon="7.12286">
        <ele>475.8</ele>
        <time>2025-09-08T12:00:55Z</time>
      </trkpt>
      <trkpt lat="48.05413" lon="7.12288">
        <ele>476.2</ele>
        <time>2025-09-08T12:00:56Z</time>
      </trkpt>
      <trkpt lat="48.05417" lon="7.12289">
        <ele>476.4</ele>
        <time>2025-09-08T12:00:57Z</time>
      </trkpt>
      <trkpt lat="48.0542" lon="7.12288">
        <ele>476.6</ele>
        <time>2025-09-08T12:00:58Z</time>
      </trkpt>
      <trkpt lat="48.05424" lon="7.12285">
        <ele>476.8</ele>
        <time>2025-09-08T12:00:59Z</time>
      </trkpt>
      <trkpt lat="48.05427" lon="7.12281">
        <ele>477.2</ele>
        <time>2025-09-08T12:01:00Z</time>
      </trkpt>
      <trkpt lat="48.0543" lon="7.12278">
        <ele>477.6</ele>
        <time>2025-09-08T12:01:01Z</time>
      </trkpt>
      <trkpt lat="48.05434" lon="7.12275">
        <ele>477.8</ele>
        <time>2025-09-08T12:01:02Z</time>
      </trkpt>
      <trkpt lat="48.05437" lon="7.12272">
        <ele>478</ele>
        <time>2025-09-08T12:01:03Z</time>
      </trkpt>
      <trkpt lat="48.0544" lon="7.12269">
        <ele>478.4</ele>
        <time>2025-09-08T12:01:04Z</time>
      </trkpt>
      <trkpt lat="48.05444" lon="7.12267">
        <ele>478.6</ele>
        <time>2025-09-08T12:01:05Z</time>
      </trkpt>
      <trkpt lat="48.05448" lon="7.12264">
        <ele>478.8</ele>
        <time>2025-09-08T12:01:06Z</time>
      </trkpt>
      <trkpt lat="48.05452" lon="7.12261">
        <ele>479</ele>
        <time>2025-09-08T12:01:07Z</time>
      </trkpt>
      <trkpt lat="48.05456" lon="7.12257">
        <ele>479</ele>
        <time>2025-09-08T12:01:08Z</time>
      </trkpt>
      <trkpt lat="48.05461" lon="7.12253">
        <ele>479.2</ele>
        <time>2025-09-08T12:01:09Z</time>
      </trkpt>
      <trkpt lat="48.05465" lon="7.12249">
        <ele>479.2</ele>
        <time>2025-09-08T12:01:10Z</time>
      </trkpt>
      <trkpt lat="48.0547" lon="7.12245">
        <ele>479</ele>
        <time>2025-09-08T12:01:11Z</time>
      </trkpt>
      <trkpt lat="48.05475" lon="7.12239">
        <ele>479</ele>
        <time>2025-09-08T12:01:12Z</time>
      </trkpt>
      <trkpt lat="48.05479" lon="7.12233">
        <ele>478.8</ele>
        <time>2025-09-08T12:01:13Z</time>
      </trkpt>
      <trkpt lat="48.05484" lon="7.12227">
        <ele>478.6</ele>
        <time>2025-09-08T12:01:14Z</time>
      </trkpt>
      <trkpt lat="48.05488" lon="7.1222">
        <ele>478.2</ele>
        <time>2025-09-08T12:01:15Z</time>
      </trkpt>
      <trkpt lat="48.05489" lon="7.12211">
        <ele>477.8</ele>
        <time>2025-09-08T12:01:16Z</time>
      </trkpt>
      <trkpt lat="48.05488" lon="7.12202">
        <ele>477.4</ele>
        <time>2025-09-08T12:01:17Z</time>
      </trkpt>
      <trkpt lat="48.05485" lon="7.12195">
        <ele>477</ele>
        <time>2025-09-08T12:01:18Z</time>
      </trkpt>
      <trkpt lat="48.0548" lon="7.12192">
        <ele>476.8</ele>
        <time>2025-09-08T12:01:19Z</time>
      </trkpt>
      <trkpt lat="48.05475" lon="7.1219">
        <ele>476</ele>
        <time>2025-09-08T12:01:20Z</time>
      </trkpt>
      <trkpt lat="48.0547" lon="7.12187">
        <ele>475.8</ele>
        <time>2025-09-08T12:01:21Z</time>
      </trkpt>
      <trkpt lat="48.05466" lon="7.12184">
        <ele>475.6</ele>
        <time>2025-09-08T12:01:22Z</time>
      </trkpt>
      <trkpt lat="48.05462" lon="7.12181">
        <ele>475.6</ele>
        <time>2025-09-08T12:01:23Z</time>
      </trkpt>
      <trkpt lat="48.05457" lon="7.12178">
        <ele>475.6</ele>
        <time>2025-09-08T12:01:24Z</time>
      </trkpt>
      <trkpt lat="48.05452" lon="7.12176">
        <ele>475.6</ele>
        <time>2025-09-08T12:01:25Z</time>
      </trkpt>
      <trkpt lat="48.05448" lon="7.12173">
        <ele>475.6</ele>
        <time>2025-09-08T12:01:26Z</time>
      </trkpt>
      <trkpt lat="48.05443" lon="7.1217">
        <ele>475.6</ele>
        <time>2025-09-08T12:01:27Z</time>
      </trkpt>
      <trkpt lat="48.05438" lon="7.12167">
        <ele>475.6</ele>
        <time>2025-09-08T12:01:28Z</time>
      </trkpt>
      <trkpt lat="48.05434" lon="7.12164">
        <ele>475.8</ele>
        <time>2025-09-08T12:01:29Z</time>
      </trkpt>
      <trkpt lat="48.05429" lon="7.12161">
        <ele>475.8</ele>
        <time>2025-09-08T12:01:30Z</time>
      </trkpt>
      <trkpt lat="48.05425" lon="7.12158">
        <ele>475.8</ele>
        <time>2025-09-08T12:01:31Z</time>
      </trkpt>
      <trkpt lat="48.05421" lon="7.12154">
        <ele>475.8</ele>
        <time>2025-09-08T12:01:32Z</time>
      </trkpt>
      <trkpt lat="48.05418" lon="7.12151">
        <ele>476</ele>
        <time>2025-09-08T12:01:33Z</time>
      </trkpt>
      <trkpt lat="48.05414" lon="7.12147">
        <ele>476</ele>
        <time>2025-09-08T12:01:34Z</time>
      </trkpt>
      <trkpt lat="48.05411" lon="7.12143">
        <ele>476.4</ele>
        <time>2025-09-08T12:01:35Z</time>
      </trkpt>
      <trkpt lat="48.05408" lon="7.12139">
        <ele>477</ele>
        <time>2025-09-08T12:01:36Z</time>
      </trkpt>
      <trkpt lat="48.05404" lon="7.12137">
        <ele>477.6</ele>
        <time>2025-09-08T12:01:37Z</time>
      </trkpt>
      <trkpt lat="48.054" lon="7.12135">
        <ele>477.8</ele>
        <time>2025-09-08T12:01:38Z</time>
      </trkpt>
      <trkpt lat="48.05396" lon="7.12134">
        <ele>478.2</ele>
        <time>2025-09-08T12:01:39Z</time>
      </trkpt>
      <trkpt lat="48.05392" lon="7.12133">
        <ele>478.6</ele>
        <time>2025-09-08T12:01:40Z</time>
      </trkpt>
      <trkpt lat="48.05389" lon="7.12132">
        <ele>479.4</ele>
        <time>2025-09-08T12:01:41Z</time>
      </trkpt>
      <trkpt lat="48.05385" lon="7.1213">
        <ele>479.8</ele>
        <time>2025-09-08T12:01:42Z</time>
      </trkpt>
      <trkpt lat="48.05382" lon="7.12129">
        <ele>480.4</ele>
        <time>2025-09-08T12:01:43Z</time>
      </trkpt>
      <trkpt lat="48.05379" lon="7.12127">
        <ele>480.8</ele>
        <time>2025-09-08T12:01:44Z</time>
      </trkpt>
      <trkpt lat="48.05375" lon="7.12124">
        <ele>481.4</ele>
        <time>2025-09-08T12:01:45Z</time>
      </trkpt>
      <trkpt lat="48.05372" lon="7.12122">
        <ele>481.8</ele>
        <time>2025-09-08T12:01:46Z</time>
      </trkpt>
      <trkpt lat="48.05369" lon="7.1212">
        <ele>482.6</ele>
        <time>2025-09-08T12:01:47Z</time>
      </trkpt>
      <trkpt lat="48.05366" lon="7.12118">
        <ele>482.8</ele>
        <time>2025-09-08T12:01:48Z</time>
      </trkpt>
      <trkpt lat="48.05363" lon="7.12114">
        <ele>483.4</ele>
        <time>2025-09-08T12:01:49Z</time>
      </trkpt>
      <trkpt lat="48.05361" lon="7.12111">
        <ele>483.8</ele>
        <time>2025-09-08T12:01:50Z</time>
      </trkpt>
      <trkpt lat="48.05358" lon="7.12108">
        <ele>484.4</ele>
        <time>2025-09-08T12:01:51Z</time>
      </trkpt>
      <trkpt lat="48.05356" lon="7.12104">
        <ele>485</ele>
        <time>2025-09-08T12:01:52Z</time>
      </trkpt>
      <trkpt lat="48.05353" lon="7.121">
        <ele>485.4</ele>
        <time>2025-09-08T12:01:53Z</time>
      </trkpt>
      <trkpt lat="48.05351" lon="7.12096">
        <ele>486</ele>
        <time>2025-09-08T12:01:54Z</time>
      </trkpt>
      <trkpt lat="48.0535" lon="7.12093">
        <ele>486.4</ele>
        <time>2025-09-08T12:01:55Z</time>
      </trkpt>
      <trkpt lat="48.05349" lon="7.12088">
        <ele>487</ele>
        <time>2025-09-08T12:01:56Z</time>
      </trkpt>
      <trkpt lat="48.05348" lon="7.12083">
        <ele>487.4</ele>
        <time>2025-09-08T12:01:57Z</time>
      </trkpt>
      <trkpt lat="48.05348" lon="7.12079">
        <ele>487.8</ele>
        <time>2025-09-08T12:01:58Z</time>
      </trkpt>
      <trkpt lat="48.05348" lon="7.12073">
        <ele>488.4</ele>
        <time>2025-09-08T12:01:59Z</time>
      </trkpt>
      <trkpt lat="48.05346" lon="7.12068">
        <ele>489</ele>
        <time>2025-09-08T12:02:00Z</time>
      </trkpt>
      <trkpt lat="48.05345" lon="7.12063">
        <ele>489.6</ele>
        <time>2025-09-08T12:02:01Z</time>
      </trkpt>
      <trkpt lat="48.05344" lon="7.12058">
        <ele>489.8</ele>
        <time>2025-09-08T12:02:02Z</time>
      </trkpt>
      <trkpt lat="48.05344" lon="7.12052">
        <ele>490.2</ele>
        <time>2025-09-08T12:02:03Z</time>
      </trkpt>
      <trkpt lat="48.05343" lon="7.12047">
        <ele>490.6</ele>
        <time>2025-09-08T12:02:04Z</time>
      </trkpt>
      <trkpt lat="48.05344" lon="7.12041">
        <ele>491</ele>
        <time>2025-09-08T12:02:05Z</time>
      </trkpt>
      <trkpt lat="48.05344" lon="7.12036">
        <ele>491.4</ele>
        <time>2025-09-08T12:02:06Z</time>
      </trkpt>
      <trkpt lat="48.05345" lon="7.12031">
        <ele>491.6</ele>
        <time>2025-09-08T12:02:07Z</time>
      </trkpt>
      <trkpt lat="48.05345" lon="7.12026">
        <ele>492</ele>
        <time>2025-09-08T12:02:08Z</time>
      </trkpt>
      <trkpt lat="48.05346" lon="7.12021">
        <ele>492.4</ele>
        <time>2025-09-08T12:02:09Z</time>
      </trkpt>
      <trkpt lat="48.05346" lon="7.12017">
        <ele>492.8</ele>
        <time>2025-09-08T12:02:10Z</time>
      </trkpt>
      <trkpt lat="48.05347" lon="7.12012">
        <ele>493.4</ele>
        <time>2025-09-08T12:02:11Z</time>
      </trkpt>
      <trkpt lat="48.05346" lon="7.12008">
        <ele>494.2</ele>
        <time>2025-09-08T12:02:12Z</time>
      </trkpt>
      <trkpt lat="48.05346" lon="7.12002">
        <ele>494.6</ele>
        <time>2025-09-08T12:02:13Z</time>
      </trkpt>
      <trkpt lat="48.05345" lon="7.11997">
        <ele>495.2</ele>
        <time>2025-09-08T12:02:14Z</time>
      </trkpt>
      <trkpt lat="48.05345" lon="7.11991">
        <ele>495.8</ele>
        <time>2025-09-08T12:02:15Z</time>
      </trkpt>
      <trkpt lat="48.05345" lon="7.11985">
        <ele>496</ele>
        <time>2025-09-08T12:02:16Z</time>
      </trkpt>
      <trkpt lat="48.05345" lon="7.1198">
        <ele>496.2</ele>
        <time>2025-09-08T12:02:17Z</time>
      </trkpt>
      <trkpt lat="48.05347" lon="7.11974">
        <ele>496.6</ele>
        <time>2025-09-08T12:02:18Z</time>
      </trkpt>
      <trkpt lat="48.05347" lon="7.1197">
        <ele>497</ele>
        <time>2025-09-08T12:02:19Z</time>
      </trkpt>
      <trkpt lat="48.05348" lon="7.11964">
        <ele>497.2</ele>
        <time>2025-09-08T12:02:20Z</time>
      </trkpt>
      <trkpt lat="48.05348" lon="7.11959">
        <ele>497.6</ele>
        <time>2025-09-08T12:02:21Z</time>
      </trkpt>
      <trkpt lat="48.05346" lon="7.11954">
        <ele>498</ele>
        <time>2025-09-08T12:02:22Z</time>
      </trkpt>
      <trkpt lat="48.05344" lon="7.1195">
        <ele>498.4</ele>
        <time>2025-09-08T12:02:23Z</time>
      </trkpt>
      <trkpt lat="48.05342" lon="7.11946">
        <ele>498.6</ele>
        <time>2025-09-08T12:02:24Z</time>
      </trkpt>
      <trkpt lat="48.05339" lon="7.11943">
        <ele>499</ele>
        <time>2025-09-08T12:02:25Z</time>
      </trkpt>
      <trkpt lat="48.05336" lon="7.11939">
        <ele>499.4</ele>
        <time>2025-09-08T12:02:26Z</time>
      </trkpt>
      <trkpt lat="48.05333" lon="7.11934">
        <ele>499.6</ele>
        <time>2025-09-08T12:02:27Z</time>
      </trkpt>
      <trkpt lat="48.0533" lon="7.1193">
        <ele>499.8</ele>
        <time>2025-09-08T12:02:28Z</time>
      </trkpt>
      <trkpt lat="48.05327" lon="7.11926">
        <ele>500</ele>
        <time>2025-09-08T12:02:29Z</time>
      </trkpt>
      <trkpt lat="48.05324" lon="7.11922">
        <ele>500.4</ele>
        <time>2025-09-08T12:02:30Z</time>
      </trkpt>
      <trkpt lat="48.05322" lon="7.11918">
        <ele>500.6</ele>
        <time>2025-09-08T12:02:31Z</time>
      </trkpt>
      <trkpt lat="48.0532" lon="7.11915">
        <ele>500.8</ele>
        <time>2025-09-08T12:02:32Z</time>
      </trkpt>
      <trkpt lat="48.05319" lon="7.11911">
        <ele>501</ele>
        <time>2025-09-08T12:02:33Z</time>
      </trkpt>
      <trkpt lat="48.05318" lon="7.11906">
        <ele>501.4</ele>
        <time>2025-09-08T12:02:34Z</time>
      </trkpt>
      <trkpt lat="48.05317" lon="7.11901">
        <ele>502</ele>
        <time>2025-09-08T12:02:35Z</time>
      </trkpt>
      <trkpt lat="48.05316" lon="7.11898">
        <ele>502.6</ele>
        <time>2025-09-08T12:02:36Z</time>
      </trkpt>
      <trkpt lat="48.05315" lon="7.11893">
        <ele>503.2</ele>
        <time>2025-09-08T12:02:37Z</time>
      </trkpt>
      <trkpt lat="48.05314" lon="7.11889">
        <ele>503.6</ele>
        <time>2025-09-08T12:02:38Z</time>
      </trkpt>
      <trkpt lat="48.05313" lon="7.11884">
        <ele>504.2</ele>
        <time>2025-09-08T12:02:39Z</time>
      </trkpt>
      <trkpt lat="48.05312" lon="7.11879">
        <ele>504.6</ele>
        <time>2025-09-08T12:02:40Z</time>
      </trkpt>
      <trkpt lat="48.05311" lon="7.11874">
        <ele>504.8</ele>
        <time>2025-09-08T12:02:41Z</time>
      </trkpt>
      <trkpt lat="48.0531" lon="7.1187">
        <ele>505.4</ele>
        <time>2025-09-08T12:02:42Z</time>
      </trkpt>
      <trkpt lat="48.0531" lon="7.11866">
        <ele>506</ele>
        <time>2025-09-08T12:02:43Z</time>
      </trkpt>
      <trkpt lat="48.05309" lon="7.11862">
        <ele>506.4</ele>
        <time>2025-09-08T12:02:44Z</time>
      </trkpt>
      <trkpt lat="48.05309" lon="7.11859">
        <ele>507</ele>
        <time>2025-09-08T12:02:45Z</time>
      </trkpt>
      <trkpt lat="48.05308" lon="7.11856">
        <ele>507.4</ele>
        <time>2025-09-08T12:02:46Z</time>
      </trkpt>
      <trkpt lat="48.05308" lon="7.11853">
        <ele>507.8</ele>
        <time>2025-09-08T12:02:47Z</time>
      </trkpt>
      <trkpt lat="48.05308" lon="7.1185">
        <ele>508</ele>
        <time>2025-09-08T12:02:48Z</time>
      </trkpt>
      <trkpt lat="48.05308" lon="7.11847">
        <ele>508</ele>
        <time>2025-09-08T12:02:49Z</time>
      </trkpt>
      <trkpt lat="48.05308" lon="7.11843">
        <ele>508.2</ele>
        <time>2025-09-08T12:02:50Z</time>
      </trkpt>
      <trkpt lat="48.05309" lon="7.11839">
        <ele>508.4</ele>
        <time>2025-09-08T12:02:51Z</time>
      </trkpt>
      <trkpt lat="48.05309" lon="7.11835">
        <ele>508.4</ele>
        <time>2025-09-08T12:02:52Z</time>
      </trkpt>
      <trkpt lat="48.05309" lon="7.11831">
        <ele>508.4</ele>
        <time>2025-09-08T12:02:53Z</time>
      </trkpt>
      <trkpt lat="48.0531" lon="7.11827">
        <ele>508.4</ele>
        <time>2025-09-08T12:02:54Z</time>
      </trkpt>
      <trkpt lat="48.05311" lon="7.11823">
        <ele>508.6</ele>
        <time>2025-09-08T12:02:55Z</time>
      </trkpt>
      <trkpt lat="48.05314" lon="7.11819">
        <ele>508.6</ele>
        <time>2025-09-08T12:02:56Z</time>
      </trkpt>
      <trkpt lat="48.05317" lon="7.11815">
        <ele>508.6</ele>
        <time>2025-09-08T12:02:57Z</time>
      </trkpt>
      <trkpt lat="48.0532" lon="7.11811">
        <ele>508.6</ele>
        <time>2025-09-08T12:02:58Z</time>
      </trkpt>
      <trkpt lat="48.05324" lon="7.11808">
        <ele>508.4</ele>
        <time>2025-09-08T12:02:59Z</time>
      </trkpt>
      <trkpt lat="48.05327" lon="7.11804">
        <ele>508.4</ele>
        <time>2025-09-08T12:03:00Z</time>
      </trkpt>
      <trkpt lat="48.05331" lon="7.11801">
        <ele>508.2</ele>
        <time>2025-09-08T12:03:01Z</time>
      </trkpt>
      <trkpt lat="48.05335" lon="7.11798">
        <ele>508</ele>
        <time>2025-09-08T12:03:02Z</time>
      </trkpt>
      <trkpt lat="48.05338" lon="7.11796">
        <ele>507.8</ele>
        <time>2025-09-08T12:03:03Z</time>
      </trkpt>
      <trkpt lat="48.05341" lon="7.11792">
        <ele>507.8</ele>
        <time>2025-09-08T12:03:04Z</time>
      </trkpt>
      <trkpt lat="48.05343" lon="7.11788">
        <ele>507.8</ele>
        <time>2025-09-08T12:03:05Z</time>
      </trkpt>
      <trkpt lat="48.05345" lon="7.11784">
        <ele>507.8</ele>
        <time>2025-09-08T12:03:06Z</time>
      </trkpt>
      <trkpt lat="48.05348" lon="7.1178">
        <ele>507.8</ele>
        <time>2025-09-08T12:03:07Z</time>
      </trkpt>
      <trkpt lat="48.0535" lon="7.11774">
        <ele>508</ele>
        <time>2025-09-08T12:03:08Z</time>
      </trkpt>
      <trkpt lat="48.05352" lon="7.11769">
        <ele>508</ele>
        <time>2025-09-08T12:03:09Z</time>
      </trkpt>
      <trkpt lat="48.05355" lon="7.11764">
        <ele>508</ele>
        <time>2025-09-08T12:03:10Z</time>
      </trkpt>
      <trkpt lat="48.05356" lon="7.11759">
        <ele>508</ele>
        <time>2025-09-08T12:03:11Z</time>
      </trkpt>
      <trkpt lat="48.05357" lon="7.11754">
        <ele>508.2</ele>
        <time>2025-09-08T12:03:12Z</time>
      </trkpt>
      <trkpt lat="48.05356" lon="7.11748">
        <ele>508.2</ele>
        <time>2025-09-08T12:03:13Z</time>
      </trkpt>
      <trkpt lat="48.05356" lon="7.11743">
        <ele>508.2</ele>
        <time>2025-09-08T12:03:14Z</time>
      </trkpt>
      <trkpt lat="48.05356" lon="7.11737">
        <ele>508.2</ele>
        <time>2025-09-08T12:03:15Z</time>
      </trkpt>
      <trkpt lat="48.05355" lon="7.11731">
        <ele>508.2</ele>
        <time>2025-09-08T12:03:16Z</time>
      </trkpt>
      <trkpt lat="48.05355" lon="7.11726">
        <ele>508.2</ele>
        <time>2025-09-08T12:03:17Z</time>
      </trkpt>
      <trkpt lat="48.05355" lon="7.11721">
        <ele>508.2</ele>
        <time>2025-09-08T12:03:18Z</time>
      </trkpt>
      <trkpt lat="48.05355" lon="7.11716">
        <ele>508.2</ele>
        <time>2025-09-08T12:03:19Z</time>
      </trkpt>
      <trkpt lat="48.05356" lon="7.11711">
        <ele>508.2</ele>
        <time>2025-09-08T12:03:20Z</time>
      </trkpt>
      <trkpt lat="48.05356" lon="7.11705">
        <ele>508.2</ele>
        <time>2025-09-08T12:03:21Z</time>
      </trkpt>
      <trkpt lat="48.05355" lon="7.11699">
        <ele>508</ele>
        <time>2025-09-08T12:03:22Z</time>
      </trkpt>
      <trkpt lat="48.05354" lon="7.11693">
        <ele>508</ele>
        <time>2025-09-08T12:03:23Z</time>
      </trkpt>
      <trkpt lat="48.05352" lon="7.11684">
        <ele>507.8</ele>
        <time>2025-09-08T12:03:24Z</time>
      </trkpt>
      <trkpt lat="48.05348" lon="7.11676">
        <ele>507.6</ele>
        <time>2025-09-08T12:03:25Z</time>
      </trkpt>
      <trkpt lat="48.05344" lon="7.11668">
        <ele>507.2</ele>
        <time>2025-09-08T12:03:26Z</time>
      </trkpt>
      <trkpt lat="48.05338" lon="7.11659">
        <ele>506.6</ele>
        <time>2025-09-08T12:03:27Z</time>
      </trkpt>
      <trkpt lat="48.05333" lon="7.11651">
        <ele>505.8</ele>
        <time>2025-09-08T12:03:28Z</time>
      </trkpt>
      <trkpt lat="48.05328" lon="7.11643">
        <ele>504.6</ele>
        <time>2025-09-08T12:03:29Z</time>
      </trkpt>
      <trkpt lat="48.05322" lon="7.11635">
        <ele>503.6</ele>
        <time>2025-09-08T12:03:30Z</time>
      </trkpt>
      <trkpt lat="48.05317" lon="7.11627">
        <ele>502.8</ele>
        <time>2025-09-08T12:03:31Z</time>
      </trkpt>
      <trkpt lat="48.05313" lon="7.11618">
        <ele>502.4</ele>
        <time>2025-09-08T12:03:32Z</time>
      </trkpt>
      <trkpt lat="48.05311" lon="7.11607">
        <ele>501</ele>
        <time>2025-09-08T12:03:33Z</time>
      </trkpt>
      <trkpt lat="48.0531" lon="7.11596">
        <ele>500.6</ele>
        <time>2025-09-08T12:03:34Z</time>
      </trkpt>
      <trkpt lat="48.05309" lon="7.11585">
        <ele>500</ele>
        <time>2025-09-08T12:03:35Z</time>
      </trkpt>
      <trkpt lat="48.0531" lon="7.11574">
        <ele>498.6</ele>
        <time>2025-09-08T12:03:36Z</time>
      </trkpt>
      <trkpt lat="48.05312" lon="7.11564">
        <ele>498.2</ele>
        <time>2025-09-08T12:03:37Z</time>
      </trkpt>
      <trkpt lat="48.05314" lon="7.11557">
        <ele>496.8</ele>
        <time>2025-09-08T12:03:38Z</time>
      </trkpt>
      <trkpt lat="48.05316" lon="7.1155">
        <ele>496</ele>
        <time>2025-09-08T12:03:39Z</time>
      </trkpt>
      <trkpt lat="48.05317" lon="7.11544">
        <ele>495.4</ele>
        <time>2025-09-08T12:03:40Z</time>
      </trkpt>
      <trkpt lat="48.05316" lon="7.11538">
        <ele>494.6</ele>
        <time>2025-09-08T12:03:41Z</time>
      </trkpt>
      <trkpt lat="48.05313" lon="7.11533">
        <ele>494.4</ele>
        <time>2025-09-08T12:03:42Z</time>
      </trkpt>
      <trkpt lat="48.0531" lon="7.11528">
        <ele>494</ele>
        <time>2025-09-08T12:03:43Z</time>
      </trkpt>
      <trkpt lat="48.05307" lon="7.11525">
        <ele>493.2</ele>
        <time>2025-09-08T12:03:44Z</time>
      </trkpt>
      <trkpt lat="48.05304" lon="7.11521">
        <ele>492.6</ele>
        <time>2025-09-08T12:03:45Z</time>
      </trkpt>
      <trkpt lat="48.05301" lon="7.11517">
        <ele>492</ele>
        <time>2025-09-08T12:03:46Z</time>
      </trkpt>
      <trkpt lat="48.053" lon="7.11513">
        <ele>491.6</ele>
        <time>2025-09-08T12:03:47Z</time>
      </trkpt>
      <trkpt lat="48.05298" lon="7.1151">
        <ele>491.2</ele>
        <time>2025-09-08T12:03:48Z</time>
      </trkpt>
      <trkpt lat="48.05296" lon="7.11507">
        <ele>490.8</ele>
        <time>2025-09-08T12:03:49Z</time>
      </trkpt>
      <trkpt lat="48.05295" lon="7.11504">
        <ele>490.6</ele>
        <time>2025-09-08T12:03:50Z</time>
      </trkpt>
      <trkpt lat="48.05294" lon="7.11502">
        <ele>490.4</ele>
        <time>2025-09-08T12:03:51Z</time>
      </trkpt>
      <trkpt lat="48.05293" lon="7.11499">
        <ele>490.2</ele>
        <time>2025-09-08T12:03:52Z</time>
      </trkpt>
      <trkpt lat="48.05293" lon="7.11496">
        <ele>490.2</ele>
        <time>2025-09-08T12:03:53Z</time>
      </trkpt>
      <trkpt lat="48.05294" lon="7.11493">
        <ele>490</ele>
        <time>2025-09-08T12:03:54Z</time>
      </trkpt>
      <trkpt lat="48.05296" lon="7.11491">
        <ele>489.8</ele>
        <time>2025-09-08T12:03:55Z</time>
      </trkpt>
      <trkpt lat="48.05298" lon="7.11491">
        <ele>489.6</ele>
        <time>2025-09-08T12:03:56Z</time>
      </trkpt>
      <trkpt lat="48.053" lon="7.1149">
        <ele>489.2</ele>
        <time>2025-09-08T12:03:57Z</time>
      </trkpt>
      <trkpt lat="48.05303" lon="7.1149">
        <ele>489</ele>
        <time>2025-09-08T12:03:58Z</time>
      </trkpt>
      <trkpt lat="48.05306" lon="7.1149">
        <ele>488.8</ele>
        <time>2025-09-08T12:03:59Z</time>
      </trkpt>
      <trkpt lat="48.05308" lon="7.1149">
        <ele>488.6</ele>
        <time>2025-09-08T12:04:00Z</time>
      </trkpt>
      <trkpt lat="48.05311" lon="7.1149">
        <ele>488.2</ele>
        <time>2025-09-08T12:04:01Z</time>
      </trkpt>
      <trkpt lat="48.05314" lon="7.1149">
        <ele>487.8</ele>
        <time>2025-09-08T12:04:02Z</time>
      </trkpt>
      <trkpt lat="48.05317" lon="7.11489">
        <ele>487.4</ele>
        <time>2025-09-08T12:04:03Z</time>
      </trkpt>
      <trkpt lat="48.0532" lon="7.11487">
        <ele>487.2</ele>
        <time>2025-09-08T12:04:04Z</time>
      </trkpt>
      <trkpt lat="48.05322" lon="7.11485">
        <ele>486.8</ele>
        <time>2025-09-08T12:04:05Z</time>
      </trkpt>
      <trkpt lat="48.05324" lon="7.11484">
        <ele>486.4</ele>
        <time>2025-09-08T12:04:06Z</time>
      </trkpt>
      <trkpt lat="48.05324" lon="7.11484">
        <ele>486.2</ele>
        <time>2025-09-08T12:04:07Z</time>
      </trkpt>
      <trkpt lat="48.05324" lon="7.11484">
        <ele>486</ele>
        <time>2025-09-08T12:04:08Z</time>
      </trkpt>
      <trkpt lat="48.05325" lon="7.11486">
        <ele>485.8</ele>
        <time>2025-09-08T12:04:09Z</time>
      </trkpt>
      <trkpt lat="48.05325" lon="7.11486">
        <ele>485.6</ele>
        <time>2025-09-08T12:04:10Z</time>
        <extensions>
          <visugpx:TrkExtension xmlns:visugpx="https://www.visugpx.com/editgpx/">
            <visugpx:node>1</visugpx:node>
            </visugpx:TrkExtension>
        </extensions>
      </trkpt>
    </trkseg>
  </trk>
</gpx>